<?xml version="1.0" encoding="UTF-8" standalone="no" ?>
<gpx xmlns="http://www.topografix.com/GPX/1/1" xmlns:xsi="http://www.w3.org/2001/XMLSchema-instance" xsi:schemaLocation="http://www.topografix.com/GPX/1/1 http://www.topografix.com/GPX/1/1/gpx.xsd" version="1.1" creator="VisuGPX - https://www.visugpx.com">
  <metadata>
    <name>2018-02-13 Bike ride-Amberieux en Dombes O via Toussieux</name>
    <desc><![CDATA[2018-02-13 Bike ride-Amberieux en Dombes O via Toussieux]]></desc>
  </metadata>
  <wpt lat="45.92464" lon="4.73713">
    <ele>174</ele>
    <name><![CDATA[2018-02-13 10:43 (Start)]]></name>
  </wpt>
  <wpt lat="45.92466" lon="4.7371">
    <ele>174</ele>
    <name><![CDATA[2018-02-13 10:43 (End)]]></name>
  </wpt>
  <trk>
    <name><![CDATA[2018-02-13 10:43]]></name>
    <trkseg>
      <trkpt lat="45.92464" lon="4.73713">
        <ele>174</ele>
        <time>2018-02-13T09:43:41.209Z</time>
      </trkpt>
      <trkpt lat="45.92466" lon="4.73702">
        <ele>174</ele>
        <time>2018-02-13T09:44:05Z</time>
      </trkpt>
      <trkpt lat="45.92466" lon="4.737">
        <ele>174</ele>
        <time>2018-02-13T09:44:06Z</time>
      </trkpt>
      <trkpt lat="45.92466" lon="4.73687">
        <ele>174</ele>
        <time>2018-02-13T09:44:14Z</time>
      </trkpt>
      <trkpt lat="45.92466" lon="4.73685">
        <ele>174</ele>
        <time>2018-02-13T09:44:15Z</time>
      </trkpt>
      <trkpt lat="45.92469" lon="4.73675">
        <ele>174</ele>
        <time>2018-02-13T09:44:21Z</time>
      </trkpt>
      <trkpt lat="45.92469" lon="4.73672">
        <ele>174</ele>
        <time>2018-02-13T09:44:22Z</time>
      </trkpt>
      <trkpt lat="45.92471" lon="4.73661">
        <ele>174</ele>
        <time>2018-02-13T09:44:26Z</time>
      </trkpt>
      <trkpt lat="45.92472" lon="4.73657">
        <ele>174</ele>
        <time>2018-02-13T09:44:27Z</time>
      </trkpt>
      <trkpt lat="45.92474" lon="4.73649">
        <ele>174</ele>
        <time>2018-02-13T09:44:29Z</time>
      </trkpt>
      <trkpt lat="45.92475" lon="4.73645">
        <ele>174</ele>
        <time>2018-02-13T09:44:30Z</time>
      </trkpt>
      <trkpt lat="45.92482" lon="4.73638">
        <ele>174</ele>
        <time>2018-02-13T09:44:33Z</time>
      </trkpt>
      <trkpt lat="45.92486" lon="4.73638">
        <ele>174</ele>
        <time>2018-02-13T09:44:34Z</time>
      </trkpt>
      <trkpt lat="45.92493" lon="4.73639">
        <ele>174</ele>
        <time>2018-02-13T09:44:36Z</time>
      </trkpt>
      <trkpt lat="45.92497" lon="4.73639">
        <ele>174</ele>
        <time>2018-02-13T09:44:37Z</time>
      </trkpt>
      <trkpt lat="45.92505" lon="4.73639">
        <ele>174</ele>
        <time>2018-02-13T09:44:39Z</time>
      </trkpt>
      <trkpt lat="45.92509" lon="4.73638">
        <ele>174</ele>
        <time>2018-02-13T09:44:40Z</time>
      </trkpt>
      <trkpt lat="45.92518" lon="4.73638">
        <ele>173</ele>
        <time>2018-02-13T09:44:42Z</time>
      </trkpt>
      <trkpt lat="45.92523" lon="4.73638">
        <ele>173</ele>
        <time>2018-02-13T09:44:43Z</time>
      </trkpt>
      <trkpt lat="45.92528" lon="4.73636">
        <ele>173</ele>
        <time>2018-02-13T09:44:44Z</time>
      </trkpt>
      <trkpt lat="45.92533" lon="4.73636">
        <ele>173</ele>
        <time>2018-02-13T09:44:45Z</time>
      </trkpt>
      <trkpt lat="45.92538" lon="4.73635">
        <ele>173</ele>
        <time>2018-02-13T09:44:46Z</time>
      </trkpt>
      <trkpt lat="45.92542" lon="4.73634">
        <ele>173</ele>
        <time>2018-02-13T09:44:47Z</time>
      </trkpt>
      <trkpt lat="45.92547" lon="4.73633">
        <ele>173</ele>
        <time>2018-02-13T09:44:48Z</time>
      </trkpt>
      <trkpt lat="45.92552" lon="4.73631">
        <ele>173</ele>
        <time>2018-02-13T09:44:49Z</time>
      </trkpt>
      <trkpt lat="45.92556" lon="4.7363">
        <ele>173</ele>
        <time>2018-02-13T09:44:50Z</time>
      </trkpt>
      <trkpt lat="45.92561" lon="4.73628">
        <ele>173</ele>
        <time>2018-02-13T09:44:51Z</time>
      </trkpt>
      <trkpt lat="45.92565" lon="4.73629">
        <ele>173</ele>
        <time>2018-02-13T09:44:52Z</time>
      </trkpt>
      <trkpt lat="45.9257" lon="4.73626">
        <ele>173</ele>
        <time>2018-02-13T09:44:53Z</time>
      </trkpt>
      <trkpt lat="45.92574" lon="4.73625">
        <ele>173</ele>
        <time>2018-02-13T09:44:54Z</time>
      </trkpt>
      <trkpt lat="45.92579" lon="4.73623">
        <ele>173</ele>
        <time>2018-02-13T09:44:55Z</time>
      </trkpt>
      <trkpt lat="45.92587" lon="4.73622">
        <ele>173</ele>
        <time>2018-02-13T09:44:57Z</time>
      </trkpt>
      <trkpt lat="45.92591" lon="4.73621">
        <ele>173</ele>
        <time>2018-02-13T09:44:58Z</time>
      </trkpt>
      <trkpt lat="45.926" lon="4.73619">
        <ele>173</ele>
        <time>2018-02-13T09:45:00Z</time>
      </trkpt>
      <trkpt lat="45.92604" lon="4.7362">
        <ele>173</ele>
        <time>2018-02-13T09:45:01Z</time>
      </trkpt>
      <trkpt lat="45.92609" lon="4.7362">
        <ele>173</ele>
        <time>2018-02-13T09:45:02Z</time>
      </trkpt>
      <trkpt lat="45.92613" lon="4.73622">
        <ele>173</ele>
        <time>2018-02-13T09:45:03Z</time>
      </trkpt>
      <trkpt lat="45.9262" lon="4.73629">
        <ele>173</ele>
        <time>2018-02-13T09:45:05Z</time>
      </trkpt>
      <trkpt lat="45.92623" lon="4.73634">
        <ele>173</ele>
        <time>2018-02-13T09:45:06Z</time>
      </trkpt>
      <trkpt lat="45.92626" lon="4.73639">
        <ele>173</ele>
        <time>2018-02-13T09:45:07Z</time>
      </trkpt>
      <trkpt lat="45.92628" lon="4.73645">
        <ele>173</ele>
        <time>2018-02-13T09:45:08Z</time>
      </trkpt>
      <trkpt lat="45.9263" lon="4.73652">
        <ele>173</ele>
        <time>2018-02-13T09:45:09Z</time>
      </trkpt>
      <trkpt lat="45.92633" lon="4.73658">
        <ele>173</ele>
        <time>2018-02-13T09:45:10Z</time>
      </trkpt>
      <trkpt lat="45.92636" lon="4.73663">
        <ele>173</ele>
        <time>2018-02-13T09:45:11Z</time>
      </trkpt>
      <trkpt lat="45.92639" lon="4.73669">
        <ele>173</ele>
        <time>2018-02-13T09:45:12Z</time>
      </trkpt>
      <trkpt lat="45.92642" lon="4.73674">
        <ele>173</ele>
        <time>2018-02-13T09:45:13Z</time>
      </trkpt>
      <trkpt lat="45.92645" lon="4.7368">
        <ele>173</ele>
        <time>2018-02-13T09:45:14Z</time>
      </trkpt>
      <trkpt lat="45.92649" lon="4.73685">
        <ele>173</ele>
        <time>2018-02-13T09:45:15Z</time>
      </trkpt>
      <trkpt lat="45.92654" lon="4.73689">
        <ele>173</ele>
        <time>2018-02-13T09:45:16Z</time>
      </trkpt>
      <trkpt lat="45.92658" lon="4.73693">
        <ele>173</ele>
        <time>2018-02-13T09:45:17Z</time>
      </trkpt>
      <trkpt lat="45.92662" lon="4.73696">
        <ele>173</ele>
        <time>2018-02-13T09:45:18Z</time>
      </trkpt>
      <trkpt lat="45.92668" lon="4.73699">
        <ele>174</ele>
        <time>2018-02-13T09:45:19Z</time>
      </trkpt>
      <trkpt lat="45.92673" lon="4.73701">
        <ele>174</ele>
        <time>2018-02-13T09:45:20Z</time>
      </trkpt>
      <trkpt lat="45.92678" lon="4.73703">
        <ele>173</ele>
        <time>2018-02-13T09:45:21Z</time>
      </trkpt>
      <trkpt lat="45.92684" lon="4.73705">
        <ele>173</ele>
        <time>2018-02-13T09:45:22Z</time>
      </trkpt>
      <trkpt lat="45.92689" lon="4.73706">
        <ele>173</ele>
        <time>2018-02-13T09:45:23Z</time>
      </trkpt>
      <trkpt lat="45.92695" lon="4.73708">
        <ele>173</ele>
        <time>2018-02-13T09:45:24Z</time>
      </trkpt>
      <trkpt lat="45.927" lon="4.73708">
        <ele>173</ele>
        <time>2018-02-13T09:45:25Z</time>
      </trkpt>
      <trkpt lat="45.92705" lon="4.73709">
        <ele>173</ele>
        <time>2018-02-13T09:45:26Z</time>
      </trkpt>
      <trkpt lat="45.92711" lon="4.7371">
        <ele>173</ele>
        <time>2018-02-13T09:45:27Z</time>
      </trkpt>
      <trkpt lat="45.92717" lon="4.73711">
        <ele>173</ele>
        <time>2018-02-13T09:45:28Z</time>
      </trkpt>
      <trkpt lat="45.92722" lon="4.73711">
        <ele>173</ele>
        <time>2018-02-13T09:45:29Z</time>
      </trkpt>
      <trkpt lat="45.92727" lon="4.73712">
        <ele>173</ele>
        <time>2018-02-13T09:45:30Z</time>
      </trkpt>
      <trkpt lat="45.92735" lon="4.73716">
        <ele>173</ele>
        <time>2018-02-13T09:45:32Z</time>
      </trkpt>
      <trkpt lat="45.9274" lon="4.73718">
        <ele>173</ele>
        <time>2018-02-13T09:45:33Z</time>
      </trkpt>
      <trkpt lat="45.92745" lon="4.73721">
        <ele>173</ele>
        <time>2018-02-13T09:45:34Z</time>
      </trkpt>
      <trkpt lat="45.92749" lon="4.73721">
        <ele>173</ele>
        <time>2018-02-13T09:45:35Z</time>
      </trkpt>
      <trkpt lat="45.92753" lon="4.73723">
        <ele>172</ele>
        <time>2018-02-13T09:45:36Z</time>
      </trkpt>
      <trkpt lat="45.92758" lon="4.73725">
        <ele>172</ele>
        <time>2018-02-13T09:45:37Z</time>
      </trkpt>
      <trkpt lat="45.92765" lon="4.73726">
        <ele>172</ele>
        <time>2018-02-13T09:45:39Z</time>
      </trkpt>
      <trkpt lat="45.92769" lon="4.73728">
        <ele>172</ele>
        <time>2018-02-13T09:45:40Z</time>
      </trkpt>
      <trkpt lat="45.92776" lon="4.73732">
        <ele>172</ele>
        <time>2018-02-13T09:45:42Z</time>
      </trkpt>
      <trkpt lat="45.9278" lon="4.73736">
        <ele>172</ele>
        <time>2018-02-13T09:45:43Z</time>
      </trkpt>
      <trkpt lat="45.92783" lon="4.73744">
        <ele>172</ele>
        <time>2018-02-13T09:45:45Z</time>
      </trkpt>
      <trkpt lat="45.92785" lon="4.73748">
        <ele>172</ele>
        <time>2018-02-13T09:45:46Z</time>
      </trkpt>
      <trkpt lat="45.92792" lon="4.73754">
        <ele>173</ele>
        <time>2018-02-13T09:45:48Z</time>
      </trkpt>
      <trkpt lat="45.92797" lon="4.73757">
        <ele>173</ele>
        <time>2018-02-13T09:45:49Z</time>
      </trkpt>
      <trkpt lat="45.92801" lon="4.73761">
        <ele>173</ele>
        <time>2018-02-13T09:45:50Z</time>
      </trkpt>
      <trkpt lat="45.92805" lon="4.73765">
        <ele>173</ele>
        <time>2018-02-13T09:45:51Z</time>
      </trkpt>
      <trkpt lat="45.9281" lon="4.73767">
        <ele>173</ele>
        <time>2018-02-13T09:45:52Z</time>
      </trkpt>
      <trkpt lat="45.92814" lon="4.7377">
        <ele>173</ele>
        <time>2018-02-13T09:45:53Z</time>
      </trkpt>
      <trkpt lat="45.92819" lon="4.73774">
        <ele>173</ele>
        <time>2018-02-13T09:45:54Z</time>
      </trkpt>
      <trkpt lat="45.92824" lon="4.73777">
        <ele>173</ele>
        <time>2018-02-13T09:45:55Z</time>
      </trkpt>
      <trkpt lat="45.92829" lon="4.7378">
        <ele>173</ele>
        <time>2018-02-13T09:45:56Z</time>
      </trkpt>
      <trkpt lat="45.92834" lon="4.73784">
        <ele>173</ele>
        <time>2018-02-13T09:45:57Z</time>
      </trkpt>
      <trkpt lat="45.92839" lon="4.73786">
        <ele>173</ele>
        <time>2018-02-13T09:45:58Z</time>
      </trkpt>
      <trkpt lat="45.92843" lon="4.7379">
        <ele>173</ele>
        <time>2018-02-13T09:45:59Z</time>
      </trkpt>
      <trkpt lat="45.92849" lon="4.73796">
        <ele>173</ele>
        <time>2018-02-13T09:46:01Z</time>
      </trkpt>
      <trkpt lat="45.92852" lon="4.73801">
        <ele>173</ele>
        <time>2018-02-13T09:46:02Z</time>
      </trkpt>
      <trkpt lat="45.92856" lon="4.73812">
        <ele>173</ele>
        <time>2018-02-13T09:46:04Z</time>
      </trkpt>
      <trkpt lat="45.92858" lon="4.73818">
        <ele>173</ele>
        <time>2018-02-13T09:46:05Z</time>
      </trkpt>
      <trkpt lat="45.9286" lon="4.73824">
        <ele>173</ele>
        <time>2018-02-13T09:46:06Z</time>
      </trkpt>
      <trkpt lat="45.92861" lon="4.73831">
        <ele>173</ele>
        <time>2018-02-13T09:46:07Z</time>
      </trkpt>
      <trkpt lat="45.92863" lon="4.73837">
        <ele>173</ele>
        <time>2018-02-13T09:46:08Z</time>
      </trkpt>
      <trkpt lat="45.92865" lon="4.73844">
        <ele>173</ele>
        <time>2018-02-13T09:46:09Z</time>
      </trkpt>
      <trkpt lat="45.92867" lon="4.73851">
        <ele>173</ele>
        <time>2018-02-13T09:46:10Z</time>
      </trkpt>
      <trkpt lat="45.92868" lon="4.73858">
        <ele>173</ele>
        <time>2018-02-13T09:46:11Z</time>
      </trkpt>
      <trkpt lat="45.9287" lon="4.73866">
        <ele>173</ele>
        <time>2018-02-13T09:46:12Z</time>
      </trkpt>
      <trkpt lat="45.92873" lon="4.73873">
        <ele>173</ele>
        <time>2018-02-13T09:46:13Z</time>
      </trkpt>
      <trkpt lat="45.92875" lon="4.7388">
        <ele>173</ele>
        <time>2018-02-13T09:46:14Z</time>
      </trkpt>
      <trkpt lat="45.92877" lon="4.73888">
        <ele>173</ele>
        <time>2018-02-13T09:46:15Z</time>
      </trkpt>
      <trkpt lat="45.92878" lon="4.73896">
        <ele>173</ele>
        <time>2018-02-13T09:46:16Z</time>
      </trkpt>
      <trkpt lat="45.92878" lon="4.73905">
        <ele>173</ele>
        <time>2018-02-13T09:46:17Z</time>
      </trkpt>
      <trkpt lat="45.92878" lon="4.73913">
        <ele>173</ele>
        <time>2018-02-13T09:46:18Z</time>
      </trkpt>
      <trkpt lat="45.92879" lon="4.7392">
        <ele>172</ele>
        <time>2018-02-13T09:46:19Z</time>
      </trkpt>
      <trkpt lat="45.92881" lon="4.73928">
        <ele>172</ele>
        <time>2018-02-13T09:46:20Z</time>
      </trkpt>
      <trkpt lat="45.92882" lon="4.73935">
        <ele>172</ele>
        <time>2018-02-13T09:46:21Z</time>
      </trkpt>
      <trkpt lat="45.92883" lon="4.73942">
        <ele>172</ele>
        <time>2018-02-13T09:46:22Z</time>
      </trkpt>
      <trkpt lat="45.92883" lon="4.73949">
        <ele>172</ele>
        <time>2018-02-13T09:46:23Z</time>
      </trkpt>
      <trkpt lat="45.92884" lon="4.73961">
        <ele>172</ele>
        <time>2018-02-13T09:46:25Z</time>
      </trkpt>
      <trkpt lat="45.92884" lon="4.73967">
        <ele>172</ele>
        <time>2018-02-13T09:46:26Z</time>
      </trkpt>
      <trkpt lat="45.92883" lon="4.73974">
        <ele>172</ele>
        <time>2018-02-13T09:46:27Z</time>
      </trkpt>
      <trkpt lat="45.92882" lon="4.73981">
        <ele>172</ele>
        <time>2018-02-13T09:46:28Z</time>
      </trkpt>
      <trkpt lat="45.92879" lon="4.73992">
        <ele>172</ele>
        <time>2018-02-13T09:46:30Z</time>
      </trkpt>
      <trkpt lat="45.92878" lon="4.73998">
        <ele>172</ele>
        <time>2018-02-13T09:46:31Z</time>
      </trkpt>
      <trkpt lat="45.92876" lon="4.74004">
        <ele>172</ele>
        <time>2018-02-13T09:46:32Z</time>
      </trkpt>
      <trkpt lat="45.92875" lon="4.74011">
        <ele>172</ele>
        <time>2018-02-13T09:46:33Z</time>
      </trkpt>
      <trkpt lat="45.92875" lon="4.74018">
        <ele>172</ele>
        <time>2018-02-13T09:46:34Z</time>
      </trkpt>
      <trkpt lat="45.92873" lon="4.74025">
        <ele>172</ele>
        <time>2018-02-13T09:46:35Z</time>
      </trkpt>
      <trkpt lat="45.92872" lon="4.74031">
        <ele>172</ele>
        <time>2018-02-13T09:46:36Z</time>
      </trkpt>
      <trkpt lat="45.9287" lon="4.74039">
        <ele>172</ele>
        <time>2018-02-13T09:46:37Z</time>
      </trkpt>
      <trkpt lat="45.92868" lon="4.74045">
        <ele>172</ele>
        <time>2018-02-13T09:46:38Z</time>
      </trkpt>
      <trkpt lat="45.92865" lon="4.74051">
        <ele>172</ele>
        <time>2018-02-13T09:46:39Z</time>
      </trkpt>
      <trkpt lat="45.92861" lon="4.74054">
        <ele>172</ele>
        <time>2018-02-13T09:46:40Z</time>
      </trkpt>
      <trkpt lat="45.92857" lon="4.74058">
        <ele>172</ele>
        <time>2018-02-13T09:46:41Z</time>
      </trkpt>
      <trkpt lat="45.92854" lon="4.74063">
        <ele>172</ele>
        <time>2018-02-13T09:46:42Z</time>
      </trkpt>
      <trkpt lat="45.9285" lon="4.74068">
        <ele>172</ele>
        <time>2018-02-13T09:46:43Z</time>
      </trkpt>
      <trkpt lat="45.92846" lon="4.74073">
        <ele>172</ele>
        <time>2018-02-13T09:46:44Z</time>
      </trkpt>
      <trkpt lat="45.92841" lon="4.74079">
        <ele>171</ele>
        <time>2018-02-13T09:46:45Z</time>
      </trkpt>
      <trkpt lat="45.92837" lon="4.74084">
        <ele>171</ele>
        <time>2018-02-13T09:46:46Z</time>
      </trkpt>
      <trkpt lat="45.92833" lon="4.74089">
        <ele>171</ele>
        <time>2018-02-13T09:46:47Z</time>
      </trkpt>
      <trkpt lat="45.9283" lon="4.74095">
        <ele>171</ele>
        <time>2018-02-13T09:46:48Z</time>
      </trkpt>
      <trkpt lat="45.92827" lon="4.741">
        <ele>171</ele>
        <time>2018-02-13T09:46:49Z</time>
      </trkpt>
      <trkpt lat="45.92823" lon="4.74105">
        <ele>171</ele>
        <time>2018-02-13T09:46:50Z</time>
      </trkpt>
      <trkpt lat="45.92819" lon="4.7411">
        <ele>172</ele>
        <time>2018-02-13T09:46:51Z</time>
      </trkpt>
      <trkpt lat="45.92815" lon="4.74113">
        <ele>172</ele>
        <time>2018-02-13T09:46:52Z</time>
      </trkpt>
      <trkpt lat="45.9281" lon="4.74118">
        <ele>172</ele>
        <time>2018-02-13T09:46:53Z</time>
      </trkpt>
      <trkpt lat="45.92805" lon="4.74123">
        <ele>172</ele>
        <time>2018-02-13T09:46:54Z</time>
      </trkpt>
      <trkpt lat="45.928" lon="4.74127">
        <ele>172</ele>
        <time>2018-02-13T09:46:55Z</time>
      </trkpt>
      <trkpt lat="45.92796" lon="4.74131">
        <ele>172</ele>
        <time>2018-02-13T09:46:56Z</time>
      </trkpt>
      <trkpt lat="45.9279" lon="4.74136">
        <ele>172</ele>
        <time>2018-02-13T09:46:57Z</time>
      </trkpt>
      <trkpt lat="45.92786" lon="4.74141">
        <ele>172</ele>
        <time>2018-02-13T09:46:58Z</time>
      </trkpt>
      <trkpt lat="45.92781" lon="4.74145">
        <ele>172</ele>
        <time>2018-02-13T09:46:59Z</time>
      </trkpt>
      <trkpt lat="45.92775" lon="4.7415">
        <ele>172</ele>
        <time>2018-02-13T09:47:00Z</time>
      </trkpt>
      <trkpt lat="45.9277" lon="4.74154">
        <ele>172</ele>
        <time>2018-02-13T09:47:01Z</time>
      </trkpt>
      <trkpt lat="45.92766" lon="4.7416">
        <ele>172</ele>
        <time>2018-02-13T09:47:02Z</time>
      </trkpt>
      <trkpt lat="45.92761" lon="4.74166">
        <ele>172</ele>
        <time>2018-02-13T09:47:03Z</time>
      </trkpt>
      <trkpt lat="45.92757" lon="4.7417">
        <ele>172</ele>
        <time>2018-02-13T09:47:04Z</time>
      </trkpt>
      <trkpt lat="45.92753" lon="4.74174">
        <ele>172</ele>
        <time>2018-02-13T09:47:05Z</time>
      </trkpt>
      <trkpt lat="45.9275" lon="4.74179">
        <ele>172</ele>
        <time>2018-02-13T09:47:06Z</time>
      </trkpt>
      <trkpt lat="45.92745" lon="4.74184">
        <ele>172</ele>
        <time>2018-02-13T09:47:07Z</time>
      </trkpt>
      <trkpt lat="45.92742" lon="4.74189">
        <ele>172</ele>
        <time>2018-02-13T09:47:08Z</time>
      </trkpt>
      <trkpt lat="45.92738" lon="4.74194">
        <ele>171</ele>
        <time>2018-02-13T09:47:09Z</time>
      </trkpt>
      <trkpt lat="45.92734" lon="4.74199">
        <ele>171</ele>
        <time>2018-02-13T09:47:10Z</time>
      </trkpt>
      <trkpt lat="45.92731" lon="4.74205">
        <ele>171</ele>
        <time>2018-02-13T09:47:11Z</time>
      </trkpt>
      <trkpt lat="45.92726" lon="4.7421">
        <ele>171</ele>
        <time>2018-02-13T09:47:12Z</time>
      </trkpt>
      <trkpt lat="45.92723" lon="4.74216">
        <ele>171</ele>
        <time>2018-02-13T09:47:13Z</time>
      </trkpt>
      <trkpt lat="45.92719" lon="4.74221">
        <ele>171</ele>
        <time>2018-02-13T09:47:14Z</time>
      </trkpt>
      <trkpt lat="45.92716" lon="4.74225">
        <ele>171</ele>
        <time>2018-02-13T09:47:15Z</time>
      </trkpt>
      <trkpt lat="45.92712" lon="4.7423">
        <ele>171</ele>
        <time>2018-02-13T09:47:16Z</time>
      </trkpt>
      <trkpt lat="45.92709" lon="4.74235">
        <ele>171</ele>
        <time>2018-02-13T09:47:17Z</time>
      </trkpt>
      <trkpt lat="45.92706" lon="4.7424">
        <ele>171</ele>
        <time>2018-02-13T09:47:18Z</time>
      </trkpt>
      <trkpt lat="45.92702" lon="4.74244">
        <ele>171</ele>
        <time>2018-02-13T09:47:19Z</time>
      </trkpt>
      <trkpt lat="45.92698" lon="4.7425">
        <ele>171</ele>
        <time>2018-02-13T09:47:20Z</time>
      </trkpt>
      <trkpt lat="45.92695" lon="4.74257">
        <ele>171</ele>
        <time>2018-02-13T09:47:21Z</time>
      </trkpt>
      <trkpt lat="45.92692" lon="4.74262">
        <ele>171</ele>
        <time>2018-02-13T09:47:22Z</time>
      </trkpt>
      <trkpt lat="45.92688" lon="4.74268">
        <ele>171</ele>
        <time>2018-02-13T09:47:23Z</time>
      </trkpt>
      <trkpt lat="45.92682" lon="4.74276">
        <ele>171</ele>
        <time>2018-02-13T09:47:25Z</time>
      </trkpt>
      <trkpt lat="45.92678" lon="4.74282">
        <ele>171</ele>
        <time>2018-02-13T09:47:26Z</time>
      </trkpt>
      <trkpt lat="45.92675" lon="4.74288">
        <ele>171</ele>
        <time>2018-02-13T09:47:27Z</time>
      </trkpt>
      <trkpt lat="45.92672" lon="4.74294">
        <ele>171</ele>
        <time>2018-02-13T09:47:28Z</time>
      </trkpt>
      <trkpt lat="45.92668" lon="4.74299">
        <ele>171</ele>
        <time>2018-02-13T09:47:29Z</time>
      </trkpt>
      <trkpt lat="45.92665" lon="4.74305">
        <ele>171</ele>
        <time>2018-02-13T09:47:30Z</time>
      </trkpt>
      <trkpt lat="45.92662" lon="4.74311">
        <ele>171</ele>
        <time>2018-02-13T09:47:31Z</time>
      </trkpt>
      <trkpt lat="45.92658" lon="4.74318">
        <ele>171</ele>
        <time>2018-02-13T09:47:32Z</time>
      </trkpt>
      <trkpt lat="45.92656" lon="4.74323">
        <ele>171</ele>
        <time>2018-02-13T09:47:33Z</time>
      </trkpt>
      <trkpt lat="45.92652" lon="4.74331">
        <ele>171</ele>
        <time>2018-02-13T09:47:34Z</time>
      </trkpt>
      <trkpt lat="45.92649" lon="4.74337">
        <ele>171</ele>
        <time>2018-02-13T09:47:35Z</time>
      </trkpt>
      <trkpt lat="45.92646" lon="4.74343">
        <ele>171</ele>
        <time>2018-02-13T09:47:36Z</time>
      </trkpt>
      <trkpt lat="45.92643" lon="4.74351">
        <ele>171</ele>
        <time>2018-02-13T09:47:37Z</time>
      </trkpt>
      <trkpt lat="45.92639" lon="4.74358">
        <ele>171</ele>
        <time>2018-02-13T09:47:38Z</time>
      </trkpt>
      <trkpt lat="45.92635" lon="4.74365">
        <ele>171</ele>
        <time>2018-02-13T09:47:39Z</time>
      </trkpt>
      <trkpt lat="45.92632" lon="4.74371">
        <ele>171</ele>
        <time>2018-02-13T09:47:40Z</time>
      </trkpt>
      <trkpt lat="45.92627" lon="4.74378">
        <ele>170</ele>
        <time>2018-02-13T09:47:41Z</time>
      </trkpt>
      <trkpt lat="45.92623" lon="4.74384">
        <ele>170</ele>
        <time>2018-02-13T09:47:42Z</time>
      </trkpt>
      <trkpt lat="45.9262" lon="4.74392">
        <ele>170</ele>
        <time>2018-02-13T09:47:43Z</time>
      </trkpt>
      <trkpt lat="45.92616" lon="4.74399">
        <ele>170</ele>
        <time>2018-02-13T09:47:44Z</time>
      </trkpt>
      <trkpt lat="45.92613" lon="4.74407">
        <ele>170</ele>
        <time>2018-02-13T09:47:45Z</time>
      </trkpt>
      <trkpt lat="45.92609" lon="4.74412">
        <ele>170</ele>
        <time>2018-02-13T09:47:46Z</time>
      </trkpt>
      <trkpt lat="45.92606" lon="4.74419">
        <ele>170</ele>
        <time>2018-02-13T09:47:47Z</time>
      </trkpt>
      <trkpt lat="45.92602" lon="4.74425">
        <ele>170</ele>
        <time>2018-02-13T09:47:48Z</time>
      </trkpt>
      <trkpt lat="45.92598" lon="4.74431">
        <ele>170</ele>
        <time>2018-02-13T09:47:49Z</time>
      </trkpt>
      <trkpt lat="45.92595" lon="4.74438">
        <ele>170</ele>
        <time>2018-02-13T09:47:50Z</time>
      </trkpt>
      <trkpt lat="45.92591" lon="4.74444">
        <ele>170</ele>
        <time>2018-02-13T09:47:51Z</time>
      </trkpt>
      <trkpt lat="45.92588" lon="4.74451">
        <ele>170</ele>
        <time>2018-02-13T09:47:52Z</time>
      </trkpt>
      <trkpt lat="45.92585" lon="4.74457">
        <ele>170</ele>
        <time>2018-02-13T09:47:53Z</time>
      </trkpt>
      <trkpt lat="45.92581" lon="4.74464">
        <ele>170</ele>
        <time>2018-02-13T09:47:54Z</time>
      </trkpt>
      <trkpt lat="45.92577" lon="4.74471">
        <ele>170</ele>
        <time>2018-02-13T09:47:55Z</time>
      </trkpt>
      <trkpt lat="45.92573" lon="4.74476">
        <ele>170</ele>
        <time>2018-02-13T09:47:56Z</time>
      </trkpt>
      <trkpt lat="45.92569" lon="4.74482">
        <ele>170</ele>
        <time>2018-02-13T09:47:57Z</time>
      </trkpt>
      <trkpt lat="45.92566" lon="4.74488">
        <ele>170</ele>
        <time>2018-02-13T09:47:58Z</time>
      </trkpt>
      <trkpt lat="45.92563" lon="4.74493">
        <ele>170</ele>
        <time>2018-02-13T09:47:59Z</time>
      </trkpt>
      <trkpt lat="45.92559" lon="4.745">
        <ele>170</ele>
        <time>2018-02-13T09:48:00Z</time>
      </trkpt>
      <trkpt lat="45.92555" lon="4.74505">
        <ele>170</ele>
        <time>2018-02-13T09:48:01Z</time>
      </trkpt>
      <trkpt lat="45.92552" lon="4.74511">
        <ele>170</ele>
        <time>2018-02-13T09:48:02Z</time>
      </trkpt>
      <trkpt lat="45.92548" lon="4.74516">
        <ele>170</ele>
        <time>2018-02-13T09:48:03Z</time>
      </trkpt>
      <trkpt lat="45.92545" lon="4.74523">
        <ele>170</ele>
        <time>2018-02-13T09:48:04Z</time>
      </trkpt>
      <trkpt lat="45.92541" lon="4.7453">
        <ele>171</ele>
        <time>2018-02-13T09:48:05Z</time>
      </trkpt>
      <trkpt lat="45.92538" lon="4.74536">
        <ele>171</ele>
        <time>2018-02-13T09:48:06Z</time>
      </trkpt>
      <trkpt lat="45.92534" lon="4.74543">
        <ele>171</ele>
        <time>2018-02-13T09:48:07Z</time>
      </trkpt>
      <trkpt lat="45.9253" lon="4.74548">
        <ele>171</ele>
        <time>2018-02-13T09:48:08Z</time>
      </trkpt>
      <trkpt lat="45.92526" lon="4.74554">
        <ele>171</ele>
        <time>2018-02-13T09:48:09Z</time>
      </trkpt>
      <trkpt lat="45.92522" lon="4.7456">
        <ele>171</ele>
        <time>2018-02-13T09:48:10Z</time>
      </trkpt>
      <trkpt lat="45.92517" lon="4.74565">
        <ele>171</ele>
        <time>2018-02-13T09:48:11Z</time>
      </trkpt>
      <trkpt lat="45.92513" lon="4.74569">
        <ele>171</ele>
        <time>2018-02-13T09:48:12Z</time>
      </trkpt>
      <trkpt lat="45.92509" lon="4.74575">
        <ele>171</ele>
        <time>2018-02-13T09:48:13Z</time>
      </trkpt>
      <trkpt lat="45.92505" lon="4.74579">
        <ele>171</ele>
        <time>2018-02-13T09:48:14Z</time>
      </trkpt>
      <trkpt lat="45.92502" lon="4.74583">
        <ele>171</ele>
        <time>2018-02-13T09:48:15Z</time>
      </trkpt>
      <trkpt lat="45.92498" lon="4.74587">
        <ele>171</ele>
        <time>2018-02-13T09:48:16Z</time>
      </trkpt>
      <trkpt lat="45.92494" lon="4.74593">
        <ele>171</ele>
        <time>2018-02-13T09:48:17Z</time>
      </trkpt>
      <trkpt lat="45.9249" lon="4.74598">
        <ele>171</ele>
        <time>2018-02-13T09:48:18Z</time>
      </trkpt>
      <trkpt lat="45.92486" lon="4.74604">
        <ele>171</ele>
        <time>2018-02-13T09:48:19Z</time>
      </trkpt>
      <trkpt lat="45.92482" lon="4.74609">
        <ele>171</ele>
        <time>2018-02-13T09:48:20Z</time>
      </trkpt>
      <trkpt lat="45.92478" lon="4.74614">
        <ele>171</ele>
        <time>2018-02-13T09:48:21Z</time>
      </trkpt>
      <trkpt lat="45.92475" lon="4.7462">
        <ele>171</ele>
        <time>2018-02-13T09:48:22Z</time>
      </trkpt>
      <trkpt lat="45.92471" lon="4.74626">
        <ele>171</ele>
        <time>2018-02-13T09:48:23Z</time>
      </trkpt>
      <trkpt lat="45.92467" lon="4.74632">
        <ele>171</ele>
        <time>2018-02-13T09:48:24Z</time>
      </trkpt>
      <trkpt lat="45.92462" lon="4.74643">
        <ele>171</ele>
        <time>2018-02-13T09:48:26Z</time>
      </trkpt>
      <trkpt lat="45.92458" lon="4.74651">
        <ele>171</ele>
        <time>2018-02-13T09:48:27Z</time>
      </trkpt>
      <trkpt lat="45.92454" lon="4.74657">
        <ele>171</ele>
        <time>2018-02-13T09:48:28Z</time>
      </trkpt>
      <trkpt lat="45.92452" lon="4.74661">
        <ele>171</ele>
        <time>2018-02-13T09:48:29Z</time>
      </trkpt>
      <trkpt lat="45.92447" lon="4.74669">
        <ele>171</ele>
        <time>2018-02-13T09:48:30Z</time>
      </trkpt>
      <trkpt lat="45.92445" lon="4.74675">
        <ele>171</ele>
        <time>2018-02-13T09:48:31Z</time>
      </trkpt>
      <trkpt lat="45.92442" lon="4.74683">
        <ele>171</ele>
        <time>2018-02-13T09:48:32Z</time>
      </trkpt>
      <trkpt lat="45.92439" lon="4.7469">
        <ele>171</ele>
        <time>2018-02-13T09:48:33Z</time>
      </trkpt>
      <trkpt lat="45.92435" lon="4.74697">
        <ele>171</ele>
        <time>2018-02-13T09:48:34Z</time>
      </trkpt>
      <trkpt lat="45.92433" lon="4.74703">
        <ele>171</ele>
        <time>2018-02-13T09:48:35Z</time>
      </trkpt>
      <trkpt lat="45.9243" lon="4.7471">
        <ele>171</ele>
        <time>2018-02-13T09:48:36Z</time>
      </trkpt>
      <trkpt lat="45.92427" lon="4.74718">
        <ele>171</ele>
        <time>2018-02-13T09:48:37Z</time>
      </trkpt>
      <trkpt lat="45.92424" lon="4.74726">
        <ele>171</ele>
        <time>2018-02-13T09:48:38Z</time>
      </trkpt>
      <trkpt lat="45.92422" lon="4.74735">
        <ele>171</ele>
        <time>2018-02-13T09:48:39Z</time>
      </trkpt>
      <trkpt lat="45.92419" lon="4.74743">
        <ele>172</ele>
        <time>2018-02-13T09:48:40Z</time>
      </trkpt>
      <trkpt lat="45.92418" lon="4.7475">
        <ele>172</ele>
        <time>2018-02-13T09:48:41Z</time>
      </trkpt>
      <trkpt lat="45.92416" lon="4.74755">
        <ele>172</ele>
        <time>2018-02-13T09:48:42Z</time>
      </trkpt>
      <trkpt lat="45.92414" lon="4.74762">
        <ele>172</ele>
        <time>2018-02-13T09:48:43Z</time>
      </trkpt>
      <trkpt lat="45.92411" lon="4.74769">
        <ele>172</ele>
        <time>2018-02-13T09:48:44Z</time>
      </trkpt>
      <trkpt lat="45.92409" lon="4.74775">
        <ele>171</ele>
        <time>2018-02-13T09:48:45Z</time>
      </trkpt>
      <trkpt lat="45.92408" lon="4.74782">
        <ele>171</ele>
        <time>2018-02-13T09:48:46Z</time>
      </trkpt>
      <trkpt lat="45.92407" lon="4.74789">
        <ele>171</ele>
        <time>2018-02-13T09:48:47Z</time>
      </trkpt>
      <trkpt lat="45.92405" lon="4.74795">
        <ele>171</ele>
        <time>2018-02-13T09:48:48Z</time>
      </trkpt>
      <trkpt lat="45.92404" lon="4.74802">
        <ele>171</ele>
        <time>2018-02-13T09:48:49Z</time>
      </trkpt>
      <trkpt lat="45.92402" lon="4.7481">
        <ele>171</ele>
        <time>2018-02-13T09:48:50Z</time>
      </trkpt>
      <trkpt lat="45.92401" lon="4.74817">
        <ele>171</ele>
        <time>2018-02-13T09:48:51Z</time>
      </trkpt>
      <trkpt lat="45.92399" lon="4.74825">
        <ele>171</ele>
        <time>2018-02-13T09:48:52Z</time>
      </trkpt>
      <trkpt lat="45.92397" lon="4.74832">
        <ele>171</ele>
        <time>2018-02-13T09:48:53Z</time>
      </trkpt>
      <trkpt lat="45.92395" lon="4.74841">
        <ele>171</ele>
        <time>2018-02-13T09:48:54Z</time>
      </trkpt>
      <trkpt lat="45.92393" lon="4.74847">
        <ele>171</ele>
        <time>2018-02-13T09:48:55Z</time>
      </trkpt>
      <trkpt lat="45.92391" lon="4.74855">
        <ele>171</ele>
        <time>2018-02-13T09:48:56Z</time>
      </trkpt>
      <trkpt lat="45.92388" lon="4.74862">
        <ele>171</ele>
        <time>2018-02-13T09:48:57Z</time>
      </trkpt>
      <trkpt lat="45.92386" lon="4.74869">
        <ele>171</ele>
        <time>2018-02-13T09:48:58Z</time>
      </trkpt>
      <trkpt lat="45.92383" lon="4.74876">
        <ele>171</ele>
        <time>2018-02-13T09:48:59Z</time>
      </trkpt>
      <trkpt lat="45.92381" lon="4.74882">
        <ele>171</ele>
        <time>2018-02-13T09:49:00Z</time>
      </trkpt>
      <trkpt lat="45.92379" lon="4.74888">
        <ele>171</ele>
        <time>2018-02-13T09:49:01Z</time>
      </trkpt>
      <trkpt lat="45.92377" lon="4.74894">
        <ele>171</ele>
        <time>2018-02-13T09:49:02Z</time>
      </trkpt>
      <trkpt lat="45.92374" lon="4.74902">
        <ele>171</ele>
        <time>2018-02-13T09:49:03Z</time>
      </trkpt>
      <trkpt lat="45.92373" lon="4.7491">
        <ele>171</ele>
        <time>2018-02-13T09:49:04Z</time>
      </trkpt>
      <trkpt lat="45.92371" lon="4.74916">
        <ele>171</ele>
        <time>2018-02-13T09:49:05Z</time>
      </trkpt>
      <trkpt lat="45.92369" lon="4.74922">
        <ele>170</ele>
        <time>2018-02-13T09:49:06Z</time>
      </trkpt>
      <trkpt lat="45.92367" lon="4.74929">
        <ele>170</ele>
        <time>2018-02-13T09:49:07Z</time>
      </trkpt>
      <trkpt lat="45.92363" lon="4.74936">
        <ele>170</ele>
        <time>2018-02-13T09:49:08Z</time>
      </trkpt>
      <trkpt lat="45.9236" lon="4.74942">
        <ele>170</ele>
        <time>2018-02-13T09:49:09Z</time>
      </trkpt>
      <trkpt lat="45.92358" lon="4.74949">
        <ele>170</ele>
        <time>2018-02-13T09:49:10Z</time>
      </trkpt>
      <trkpt lat="45.92355" lon="4.74955">
        <ele>170</ele>
        <time>2018-02-13T09:49:11Z</time>
      </trkpt>
      <trkpt lat="45.92353" lon="4.7496">
        <ele>170</ele>
        <time>2018-02-13T09:49:12Z</time>
      </trkpt>
      <trkpt lat="45.9235" lon="4.74967">
        <ele>170</ele>
        <time>2018-02-13T09:49:13Z</time>
      </trkpt>
      <trkpt lat="45.92347" lon="4.74973">
        <ele>170</ele>
        <time>2018-02-13T09:49:14Z</time>
      </trkpt>
      <trkpt lat="45.92345" lon="4.7498">
        <ele>170</ele>
        <time>2018-02-13T09:49:15Z</time>
      </trkpt>
      <trkpt lat="45.92342" lon="4.74986">
        <ele>170</ele>
        <time>2018-02-13T09:49:16Z</time>
      </trkpt>
      <trkpt lat="45.92339" lon="4.74992">
        <ele>170</ele>
        <time>2018-02-13T09:49:17Z</time>
      </trkpt>
      <trkpt lat="45.92337" lon="4.74998">
        <ele>170</ele>
        <time>2018-02-13T09:49:18Z</time>
      </trkpt>
      <trkpt lat="45.92335" lon="4.75004">
        <ele>170</ele>
        <time>2018-02-13T09:49:19Z</time>
      </trkpt>
      <trkpt lat="45.92331" lon="4.75013">
        <ele>171</ele>
        <time>2018-02-13T09:49:20Z</time>
      </trkpt>
      <trkpt lat="45.92328" lon="4.75019">
        <ele>171</ele>
        <time>2018-02-13T09:49:21Z</time>
      </trkpt>
      <trkpt lat="45.92325" lon="4.75025">
        <ele>171</ele>
        <time>2018-02-13T09:49:22Z</time>
      </trkpt>
      <trkpt lat="45.92322" lon="4.7503">
        <ele>171</ele>
        <time>2018-02-13T09:49:23Z</time>
      </trkpt>
      <trkpt lat="45.92318" lon="4.75035">
        <ele>171</ele>
        <time>2018-02-13T09:49:24Z</time>
      </trkpt>
      <trkpt lat="45.92313" lon="4.75042">
        <ele>172</ele>
        <time>2018-02-13T09:49:25Z</time>
      </trkpt>
      <trkpt lat="45.92309" lon="4.75048">
        <ele>172</ele>
        <time>2018-02-13T09:49:26Z</time>
      </trkpt>
      <trkpt lat="45.92305" lon="4.75052">
        <ele>172</ele>
        <time>2018-02-13T09:49:27Z</time>
      </trkpt>
      <trkpt lat="45.92302" lon="4.75059">
        <ele>172</ele>
        <time>2018-02-13T09:49:28Z</time>
      </trkpt>
      <trkpt lat="45.92298" lon="4.75064">
        <ele>172</ele>
        <time>2018-02-13T09:49:29Z</time>
      </trkpt>
      <trkpt lat="45.92294" lon="4.75069">
        <ele>172</ele>
        <time>2018-02-13T09:49:30Z</time>
      </trkpt>
      <trkpt lat="45.9229" lon="4.75074">
        <ele>172</ele>
        <time>2018-02-13T09:49:31Z</time>
      </trkpt>
      <trkpt lat="45.92286" lon="4.75079">
        <ele>172</ele>
        <time>2018-02-13T09:49:32Z</time>
      </trkpt>
      <trkpt lat="45.92281" lon="4.75084">
        <ele>173</ele>
        <time>2018-02-13T09:49:33Z</time>
      </trkpt>
      <trkpt lat="45.92277" lon="4.75089">
        <ele>173</ele>
        <time>2018-02-13T09:49:34Z</time>
      </trkpt>
      <trkpt lat="45.92273" lon="4.75093">
        <ele>173</ele>
        <time>2018-02-13T09:49:35Z</time>
      </trkpt>
      <trkpt lat="45.92269" lon="4.75098">
        <ele>173</ele>
        <time>2018-02-13T09:49:36Z</time>
      </trkpt>
      <trkpt lat="45.92265" lon="4.75102">
        <ele>173</ele>
        <time>2018-02-13T09:49:37Z</time>
      </trkpt>
      <trkpt lat="45.9226" lon="4.75107">
        <ele>174</ele>
        <time>2018-02-13T09:49:38Z</time>
      </trkpt>
      <trkpt lat="45.92256" lon="4.75112">
        <ele>174</ele>
        <time>2018-02-13T09:49:39Z</time>
      </trkpt>
      <trkpt lat="45.92254" lon="4.75116">
        <ele>174</ele>
        <time>2018-02-13T09:49:40Z</time>
      </trkpt>
      <trkpt lat="45.92249" lon="4.75121">
        <ele>174</ele>
        <time>2018-02-13T09:49:41Z</time>
      </trkpt>
      <trkpt lat="45.92245" lon="4.75128">
        <ele>174</ele>
        <time>2018-02-13T09:49:42Z</time>
      </trkpt>
      <trkpt lat="45.92242" lon="4.75133">
        <ele>174</ele>
        <time>2018-02-13T09:49:43Z</time>
      </trkpt>
      <trkpt lat="45.92238" lon="4.75138">
        <ele>174</ele>
        <time>2018-02-13T09:49:44Z</time>
      </trkpt>
      <trkpt lat="45.92235" lon="4.75143">
        <ele>174</ele>
        <time>2018-02-13T09:49:45Z</time>
      </trkpt>
      <trkpt lat="45.92231" lon="4.75149">
        <ele>174</ele>
        <time>2018-02-13T09:49:46Z</time>
      </trkpt>
      <trkpt lat="45.92227" lon="4.75153">
        <ele>174</ele>
        <time>2018-02-13T09:49:47Z</time>
      </trkpt>
      <trkpt lat="45.92225" lon="4.7516">
        <ele>174</ele>
        <time>2018-02-13T09:49:48Z</time>
      </trkpt>
      <trkpt lat="45.92222" lon="4.75167">
        <ele>175</ele>
        <time>2018-02-13T09:49:49Z</time>
      </trkpt>
      <trkpt lat="45.9222" lon="4.75173">
        <ele>175</ele>
        <time>2018-02-13T09:49:50Z</time>
      </trkpt>
      <trkpt lat="45.92218" lon="4.7518">
        <ele>175</ele>
        <time>2018-02-13T09:49:51Z</time>
      </trkpt>
      <trkpt lat="45.92217" lon="4.75187">
        <ele>175</ele>
        <time>2018-02-13T09:49:52Z</time>
      </trkpt>
      <trkpt lat="45.92216" lon="4.75193">
        <ele>175</ele>
        <time>2018-02-13T09:49:53Z</time>
      </trkpt>
      <trkpt lat="45.92214" lon="4.752">
        <ele>175</ele>
        <time>2018-02-13T09:49:54Z</time>
      </trkpt>
      <trkpt lat="45.92212" lon="4.75206">
        <ele>175</ele>
        <time>2018-02-13T09:49:55Z</time>
      </trkpt>
      <trkpt lat="45.92211" lon="4.75218">
        <ele>175</ele>
        <time>2018-02-13T09:49:57Z</time>
      </trkpt>
      <trkpt lat="45.92211" lon="4.75224">
        <ele>175</ele>
        <time>2018-02-13T09:49:58Z</time>
      </trkpt>
      <trkpt lat="45.92211" lon="4.7523">
        <ele>175</ele>
        <time>2018-02-13T09:49:59Z</time>
      </trkpt>
      <trkpt lat="45.92211" lon="4.75237">
        <ele>175</ele>
        <time>2018-02-13T09:50:00Z</time>
      </trkpt>
      <trkpt lat="45.9221" lon="4.75245">
        <ele>175</ele>
        <time>2018-02-13T09:50:01Z</time>
      </trkpt>
      <trkpt lat="45.92211" lon="4.75251">
        <ele>175</ele>
        <time>2018-02-13T09:50:02Z</time>
      </trkpt>
      <trkpt lat="45.92211" lon="4.75258">
        <ele>175</ele>
        <time>2018-02-13T09:50:03Z</time>
      </trkpt>
      <trkpt lat="45.92211" lon="4.75265">
        <ele>176</ele>
        <time>2018-02-13T09:50:04Z</time>
      </trkpt>
      <trkpt lat="45.9221" lon="4.75273">
        <ele>176</ele>
        <time>2018-02-13T09:50:05Z</time>
      </trkpt>
      <trkpt lat="45.9221" lon="4.75279">
        <ele>176</ele>
        <time>2018-02-13T09:50:06Z</time>
      </trkpt>
      <trkpt lat="45.92209" lon="4.75286">
        <ele>176</ele>
        <time>2018-02-13T09:50:07Z</time>
      </trkpt>
      <trkpt lat="45.92208" lon="4.75294">
        <ele>176</ele>
        <time>2018-02-13T09:50:08Z</time>
      </trkpt>
      <trkpt lat="45.92208" lon="4.75301">
        <ele>176</ele>
        <time>2018-02-13T09:50:09Z</time>
      </trkpt>
      <trkpt lat="45.92208" lon="4.75309">
        <ele>176</ele>
        <time>2018-02-13T09:50:10Z</time>
      </trkpt>
      <trkpt lat="45.92207" lon="4.75315">
        <ele>176</ele>
        <time>2018-02-13T09:50:11Z</time>
      </trkpt>
      <trkpt lat="45.92208" lon="4.75323">
        <ele>176</ele>
        <time>2018-02-13T09:50:12Z</time>
      </trkpt>
      <trkpt lat="45.92206" lon="4.7533">
        <ele>176</ele>
        <time>2018-02-13T09:50:13Z</time>
      </trkpt>
      <trkpt lat="45.92205" lon="4.75337">
        <ele>177</ele>
        <time>2018-02-13T09:50:14Z</time>
      </trkpt>
      <trkpt lat="45.92204" lon="4.75345">
        <ele>177</ele>
        <time>2018-02-13T09:50:15Z</time>
      </trkpt>
      <trkpt lat="45.92202" lon="4.75352">
        <ele>177</ele>
        <time>2018-02-13T09:50:16Z</time>
      </trkpt>
      <trkpt lat="45.922" lon="4.75358">
        <ele>177</ele>
        <time>2018-02-13T09:50:17Z</time>
      </trkpt>
      <trkpt lat="45.92198" lon="4.75365">
        <ele>177</ele>
        <time>2018-02-13T09:50:18Z</time>
      </trkpt>
      <trkpt lat="45.92195" lon="4.75372">
        <ele>177</ele>
        <time>2018-02-13T09:50:19Z</time>
      </trkpt>
      <trkpt lat="45.92194" lon="4.75378">
        <ele>177</ele>
        <time>2018-02-13T09:50:20Z</time>
      </trkpt>
      <trkpt lat="45.92191" lon="4.75386">
        <ele>177</ele>
        <time>2018-02-13T09:50:21Z</time>
      </trkpt>
      <trkpt lat="45.92189" lon="4.75393">
        <ele>177</ele>
        <time>2018-02-13T09:50:22Z</time>
      </trkpt>
      <trkpt lat="45.92187" lon="4.75401">
        <ele>177</ele>
        <time>2018-02-13T09:50:23Z</time>
      </trkpt>
      <trkpt lat="45.92187" lon="4.75409">
        <ele>177</ele>
        <time>2018-02-13T09:50:24Z</time>
      </trkpt>
      <trkpt lat="45.92183" lon="4.75416">
        <ele>177</ele>
        <time>2018-02-13T09:50:25Z</time>
      </trkpt>
      <trkpt lat="45.92181" lon="4.75421">
        <ele>177</ele>
        <time>2018-02-13T09:50:26Z</time>
      </trkpt>
      <trkpt lat="45.92179" lon="4.75427">
        <ele>177</ele>
        <time>2018-02-13T09:50:27Z</time>
      </trkpt>
      <trkpt lat="45.92177" lon="4.75435">
        <ele>177</ele>
        <time>2018-02-13T09:50:28Z</time>
      </trkpt>
      <trkpt lat="45.92174" lon="4.75442">
        <ele>176</ele>
        <time>2018-02-13T09:50:29Z</time>
      </trkpt>
      <trkpt lat="45.92169" lon="4.75449">
        <ele>176</ele>
        <time>2018-02-13T09:50:30Z</time>
      </trkpt>
      <trkpt lat="45.92168" lon="4.75456">
        <ele>176</ele>
        <time>2018-02-13T09:50:31Z</time>
      </trkpt>
      <trkpt lat="45.92164" lon="4.75463">
        <ele>176</ele>
        <time>2018-02-13T09:50:32Z</time>
      </trkpt>
      <trkpt lat="45.9216" lon="4.7547">
        <ele>176</ele>
        <time>2018-02-13T09:50:33Z</time>
      </trkpt>
      <trkpt lat="45.92157" lon="4.75478">
        <ele>176</ele>
        <time>2018-02-13T09:50:34Z</time>
      </trkpt>
      <trkpt lat="45.92153" lon="4.75485">
        <ele>176</ele>
        <time>2018-02-13T09:50:35Z</time>
      </trkpt>
      <trkpt lat="45.9215" lon="4.75492">
        <ele>175</ele>
        <time>2018-02-13T09:50:36Z</time>
      </trkpt>
      <trkpt lat="45.92146" lon="4.75497">
        <ele>175</ele>
        <time>2018-02-13T09:50:37Z</time>
      </trkpt>
      <trkpt lat="45.92144" lon="4.75504">
        <ele>175</ele>
        <time>2018-02-13T09:50:38Z</time>
      </trkpt>
      <trkpt lat="45.92141" lon="4.75511">
        <ele>174</ele>
        <time>2018-02-13T09:50:39Z</time>
      </trkpt>
      <trkpt lat="45.92138" lon="4.75519">
        <ele>174</ele>
        <time>2018-02-13T09:50:40Z</time>
      </trkpt>
      <trkpt lat="45.92134" lon="4.75525">
        <ele>174</ele>
        <time>2018-02-13T09:50:41Z</time>
      </trkpt>
      <trkpt lat="45.9213" lon="4.75532">
        <ele>174</ele>
        <time>2018-02-13T09:50:42Z</time>
      </trkpt>
      <trkpt lat="45.92127" lon="4.75537">
        <ele>174</ele>
        <time>2018-02-13T09:50:43Z</time>
      </trkpt>
      <trkpt lat="45.92124" lon="4.75544">
        <ele>174</ele>
        <time>2018-02-13T09:50:44Z</time>
      </trkpt>
      <trkpt lat="45.92121" lon="4.7555">
        <ele>174</ele>
        <time>2018-02-13T09:50:45Z</time>
      </trkpt>
      <trkpt lat="45.92117" lon="4.75555">
        <ele>174</ele>
        <time>2018-02-13T09:50:46Z</time>
      </trkpt>
      <trkpt lat="45.92115" lon="4.75562">
        <ele>174</ele>
        <time>2018-02-13T09:50:47Z</time>
      </trkpt>
      <trkpt lat="45.92113" lon="4.75567">
        <ele>174</ele>
        <time>2018-02-13T09:50:48Z</time>
      </trkpt>
      <trkpt lat="45.92114" lon="4.75578">
        <ele>174</ele>
        <time>2018-02-13T09:50:50Z</time>
      </trkpt>
      <trkpt lat="45.92118" lon="4.75587">
        <ele>174</ele>
        <time>2018-02-13T09:50:51Z</time>
      </trkpt>
      <trkpt lat="45.92124" lon="4.75594">
        <ele>174</ele>
        <time>2018-02-13T09:50:53Z</time>
      </trkpt>
      <trkpt lat="45.92129" lon="4.75597">
        <ele>174</ele>
        <time>2018-02-13T09:50:54Z</time>
      </trkpt>
      <trkpt lat="45.92133" lon="4.75601">
        <ele>174</ele>
        <time>2018-02-13T09:50:55Z</time>
      </trkpt>
      <trkpt lat="45.92138" lon="4.75606">
        <ele>174</ele>
        <time>2018-02-13T09:50:56Z</time>
      </trkpt>
      <trkpt lat="45.92142" lon="4.75611">
        <ele>174</ele>
        <time>2018-02-13T09:50:57Z</time>
      </trkpt>
      <trkpt lat="45.92146" lon="4.75616">
        <ele>174</ele>
        <time>2018-02-13T09:50:58Z</time>
      </trkpt>
      <trkpt lat="45.92151" lon="4.75621">
        <ele>174</ele>
        <time>2018-02-13T09:50:59Z</time>
      </trkpt>
      <trkpt lat="45.92156" lon="4.75626">
        <ele>174</ele>
        <time>2018-02-13T09:51:00Z</time>
      </trkpt>
      <trkpt lat="45.92161" lon="4.75631">
        <ele>174</ele>
        <time>2018-02-13T09:51:01Z</time>
      </trkpt>
      <trkpt lat="45.92166" lon="4.75635">
        <ele>174</ele>
        <time>2018-02-13T09:51:02Z</time>
      </trkpt>
      <trkpt lat="45.92171" lon="4.75639">
        <ele>174</ele>
        <time>2018-02-13T09:51:03Z</time>
      </trkpt>
      <trkpt lat="45.92175" lon="4.75645">
        <ele>174</ele>
        <time>2018-02-13T09:51:04Z</time>
      </trkpt>
      <trkpt lat="45.9218" lon="4.75649">
        <ele>174</ele>
        <time>2018-02-13T09:51:05Z</time>
      </trkpt>
      <trkpt lat="45.92185" lon="4.75653">
        <ele>174</ele>
        <time>2018-02-13T09:51:06Z</time>
      </trkpt>
      <trkpt lat="45.92189" lon="4.75658">
        <ele>174</ele>
        <time>2018-02-13T09:51:07Z</time>
      </trkpt>
      <trkpt lat="45.92194" lon="4.75662">
        <ele>174</ele>
        <time>2018-02-13T09:51:08Z</time>
      </trkpt>
      <trkpt lat="45.92199" lon="4.75666">
        <ele>174</ele>
        <time>2018-02-13T09:51:09Z</time>
      </trkpt>
      <trkpt lat="45.92203" lon="4.75672">
        <ele>174</ele>
        <time>2018-02-13T09:51:10Z</time>
      </trkpt>
      <trkpt lat="45.92207" lon="4.75676">
        <ele>174</ele>
        <time>2018-02-13T09:51:11Z</time>
      </trkpt>
      <trkpt lat="45.92212" lon="4.7568">
        <ele>174</ele>
        <time>2018-02-13T09:51:12Z</time>
      </trkpt>
      <trkpt lat="45.92216" lon="4.75684">
        <ele>174</ele>
        <time>2018-02-13T09:51:13Z</time>
      </trkpt>
      <trkpt lat="45.9222" lon="4.75688">
        <ele>174</ele>
        <time>2018-02-13T09:51:14Z</time>
      </trkpt>
      <trkpt lat="45.92225" lon="4.75693">
        <ele>174</ele>
        <time>2018-02-13T09:51:15Z</time>
      </trkpt>
      <trkpt lat="45.92229" lon="4.75697">
        <ele>174</ele>
        <time>2018-02-13T09:51:16Z</time>
      </trkpt>
      <trkpt lat="45.92233" lon="4.75703">
        <ele>174</ele>
        <time>2018-02-13T09:51:17Z</time>
      </trkpt>
      <trkpt lat="45.92236" lon="4.75709">
        <ele>174</ele>
        <time>2018-02-13T09:51:18Z</time>
      </trkpt>
      <trkpt lat="45.92239" lon="4.75715">
        <ele>174</ele>
        <time>2018-02-13T09:51:19Z</time>
      </trkpt>
      <trkpt lat="45.92242" lon="4.7572">
        <ele>174</ele>
        <time>2018-02-13T09:51:20Z</time>
      </trkpt>
      <trkpt lat="45.92244" lon="4.75727">
        <ele>174</ele>
        <time>2018-02-13T09:51:21Z</time>
      </trkpt>
      <trkpt lat="45.92246" lon="4.75733">
        <ele>174</ele>
        <time>2018-02-13T09:51:22Z</time>
      </trkpt>
      <trkpt lat="45.92247" lon="4.7574">
        <ele>174</ele>
        <time>2018-02-13T09:51:23Z</time>
      </trkpt>
      <trkpt lat="45.92249" lon="4.75746">
        <ele>174</ele>
        <time>2018-02-13T09:51:24Z</time>
      </trkpt>
      <trkpt lat="45.92251" lon="4.75753">
        <ele>174</ele>
        <time>2018-02-13T09:51:25Z</time>
      </trkpt>
      <trkpt lat="45.92252" lon="4.7576">
        <ele>174</ele>
        <time>2018-02-13T09:51:26Z</time>
      </trkpt>
      <trkpt lat="45.92253" lon="4.75767">
        <ele>174</ele>
        <time>2018-02-13T09:51:27Z</time>
      </trkpt>
      <trkpt lat="45.92255" lon="4.75774">
        <ele>174</ele>
        <time>2018-02-13T09:51:28Z</time>
      </trkpt>
      <trkpt lat="45.92257" lon="4.75781">
        <ele>174</ele>
        <time>2018-02-13T09:51:29Z</time>
      </trkpt>
      <trkpt lat="45.92258" lon="4.75787">
        <ele>174</ele>
        <time>2018-02-13T09:51:30Z</time>
      </trkpt>
      <trkpt lat="45.9226" lon="4.75795">
        <ele>174</ele>
        <time>2018-02-13T09:51:31Z</time>
      </trkpt>
      <trkpt lat="45.92261" lon="4.75801">
        <ele>174</ele>
        <time>2018-02-13T09:51:32Z</time>
      </trkpt>
      <trkpt lat="45.92263" lon="4.75808">
        <ele>174</ele>
        <time>2018-02-13T09:51:33Z</time>
      </trkpt>
      <trkpt lat="45.92265" lon="4.75814">
        <ele>174</ele>
        <time>2018-02-13T09:51:34Z</time>
      </trkpt>
      <trkpt lat="45.92269" lon="4.7582">
        <ele>174</ele>
        <time>2018-02-13T09:51:35Z</time>
      </trkpt>
      <trkpt lat="45.92272" lon="4.75825">
        <ele>174</ele>
        <time>2018-02-13T09:51:36Z</time>
      </trkpt>
      <trkpt lat="45.92276" lon="4.75829">
        <ele>174</ele>
        <time>2018-02-13T09:51:37Z</time>
      </trkpt>
      <trkpt lat="45.92281" lon="4.75834">
        <ele>173</ele>
        <time>2018-02-13T09:51:38Z</time>
      </trkpt>
      <trkpt lat="45.92287" lon="4.75837">
        <ele>173</ele>
        <time>2018-02-13T09:51:39Z</time>
      </trkpt>
      <trkpt lat="45.92292" lon="4.7584">
        <ele>173</ele>
        <time>2018-02-13T09:51:40Z</time>
      </trkpt>
      <trkpt lat="45.92297" lon="4.75843">
        <ele>173</ele>
        <time>2018-02-13T09:51:41Z</time>
      </trkpt>
      <trkpt lat="45.92303" lon="4.75848">
        <ele>173</ele>
        <time>2018-02-13T09:51:42Z</time>
      </trkpt>
      <trkpt lat="45.92308" lon="4.75852">
        <ele>173</ele>
        <time>2018-02-13T09:51:43Z</time>
      </trkpt>
      <trkpt lat="45.92315" lon="4.75855">
        <ele>173</ele>
        <time>2018-02-13T09:51:44Z</time>
      </trkpt>
      <trkpt lat="45.92321" lon="4.75859">
        <ele>173</ele>
        <time>2018-02-13T09:51:45Z</time>
      </trkpt>
      <trkpt lat="45.92326" lon="4.75862">
        <ele>173</ele>
        <time>2018-02-13T09:51:46Z</time>
      </trkpt>
      <trkpt lat="45.92332" lon="4.75866">
        <ele>173</ele>
        <time>2018-02-13T09:51:47Z</time>
      </trkpt>
      <trkpt lat="45.92337" lon="4.75869">
        <ele>173</ele>
        <time>2018-02-13T09:51:48Z</time>
      </trkpt>
      <trkpt lat="45.92344" lon="4.75873">
        <ele>173</ele>
        <time>2018-02-13T09:51:49Z</time>
      </trkpt>
      <trkpt lat="45.92348" lon="4.75876">
        <ele>173</ele>
        <time>2018-02-13T09:51:50Z</time>
      </trkpt>
      <trkpt lat="45.92354" lon="4.75879">
        <ele>173</ele>
        <time>2018-02-13T09:51:51Z</time>
      </trkpt>
      <trkpt lat="45.92358" lon="4.75882">
        <ele>173</ele>
        <time>2018-02-13T09:51:52Z</time>
      </trkpt>
      <trkpt lat="45.92363" lon="4.75885">
        <ele>173</ele>
        <time>2018-02-13T09:51:53Z</time>
      </trkpt>
      <trkpt lat="45.92369" lon="4.75888">
        <ele>173</ele>
        <time>2018-02-13T09:51:54Z</time>
      </trkpt>
      <trkpt lat="45.92374" lon="4.7589">
        <ele>173</ele>
        <time>2018-02-13T09:51:55Z</time>
      </trkpt>
      <trkpt lat="45.92378" lon="4.75893">
        <ele>173</ele>
        <time>2018-02-13T09:51:56Z</time>
      </trkpt>
      <trkpt lat="45.92383" lon="4.75897">
        <ele>173</ele>
        <time>2018-02-13T09:51:57Z</time>
      </trkpt>
      <trkpt lat="45.92388" lon="4.759">
        <ele>173</ele>
        <time>2018-02-13T09:51:58Z</time>
      </trkpt>
      <trkpt lat="45.92392" lon="4.75903">
        <ele>173</ele>
        <time>2018-02-13T09:51:59Z</time>
      </trkpt>
      <trkpt lat="45.92397" lon="4.75907">
        <ele>173</ele>
        <time>2018-02-13T09:52:00Z</time>
      </trkpt>
      <trkpt lat="45.92402" lon="4.7591">
        <ele>172</ele>
        <time>2018-02-13T09:52:01Z</time>
      </trkpt>
      <trkpt lat="45.92408" lon="4.75912">
        <ele>172</ele>
        <time>2018-02-13T09:52:02Z</time>
      </trkpt>
      <trkpt lat="45.92413" lon="4.75916">
        <ele>172</ele>
        <time>2018-02-13T09:52:03Z</time>
      </trkpt>
      <trkpt lat="45.92417" lon="4.75919">
        <ele>172</ele>
        <time>2018-02-13T09:52:04Z</time>
      </trkpt>
      <trkpt lat="45.92421" lon="4.75922">
        <ele>172</ele>
        <time>2018-02-13T09:52:05Z</time>
      </trkpt>
      <trkpt lat="45.92426" lon="4.75925">
        <ele>172</ele>
        <time>2018-02-13T09:52:06Z</time>
      </trkpt>
      <trkpt lat="45.92431" lon="4.75928">
        <ele>172</ele>
        <time>2018-02-13T09:52:07Z</time>
      </trkpt>
      <trkpt lat="45.92435" lon="4.75931">
        <ele>172</ele>
        <time>2018-02-13T09:52:08Z</time>
      </trkpt>
      <trkpt lat="45.9244" lon="4.75935">
        <ele>172</ele>
        <time>2018-02-13T09:52:09Z</time>
      </trkpt>
      <trkpt lat="45.92444" lon="4.75939">
        <ele>172</ele>
        <time>2018-02-13T09:52:10Z</time>
      </trkpt>
      <trkpt lat="45.92448" lon="4.75943">
        <ele>172</ele>
        <time>2018-02-13T09:52:11Z</time>
      </trkpt>
      <trkpt lat="45.92452" lon="4.75946">
        <ele>172</ele>
        <time>2018-02-13T09:52:12Z</time>
      </trkpt>
      <trkpt lat="45.9246" lon="4.75953">
        <ele>172</ele>
        <time>2018-02-13T09:52:14Z</time>
      </trkpt>
      <trkpt lat="45.92464" lon="4.75957">
        <ele>172</ele>
        <time>2018-02-13T09:52:15Z</time>
      </trkpt>
      <trkpt lat="45.92468" lon="4.75961">
        <ele>172</ele>
        <time>2018-02-13T09:52:16Z</time>
      </trkpt>
      <trkpt lat="45.92472" lon="4.75964">
        <ele>172</ele>
        <time>2018-02-13T09:52:17Z</time>
      </trkpt>
      <trkpt lat="45.9248" lon="4.75969">
        <ele>172</ele>
        <time>2018-02-13T09:52:19Z</time>
      </trkpt>
      <trkpt lat="45.92483" lon="4.75971">
        <ele>172</ele>
        <time>2018-02-13T09:52:20Z</time>
      </trkpt>
      <trkpt lat="45.92491" lon="4.75977">
        <ele>172</ele>
        <time>2018-02-13T09:52:22Z</time>
      </trkpt>
      <trkpt lat="45.92494" lon="4.7598">
        <ele>172</ele>
        <time>2018-02-13T09:52:23Z</time>
      </trkpt>
      <trkpt lat="45.92501" lon="4.75986">
        <ele>172</ele>
        <time>2018-02-13T09:52:25Z</time>
      </trkpt>
      <trkpt lat="45.92505" lon="4.75989">
        <ele>172</ele>
        <time>2018-02-13T09:52:26Z</time>
      </trkpt>
      <trkpt lat="45.92512" lon="4.75994">
        <ele>172</ele>
        <time>2018-02-13T09:52:28Z</time>
      </trkpt>
      <trkpt lat="45.92515" lon="4.75997">
        <ele>172</ele>
        <time>2018-02-13T09:52:29Z</time>
      </trkpt>
      <trkpt lat="45.92522" lon="4.76002">
        <ele>172</ele>
        <time>2018-02-13T09:52:31Z</time>
      </trkpt>
      <trkpt lat="45.92526" lon="4.76004">
        <ele>172</ele>
        <time>2018-02-13T09:52:32Z</time>
      </trkpt>
      <trkpt lat="45.92533" lon="4.7601">
        <ele>172</ele>
        <time>2018-02-13T09:52:34Z</time>
      </trkpt>
      <trkpt lat="45.92537" lon="4.76013">
        <ele>172</ele>
        <time>2018-02-13T09:52:35Z</time>
      </trkpt>
      <trkpt lat="45.92544" lon="4.76019">
        <ele>172</ele>
        <time>2018-02-13T09:52:37Z</time>
      </trkpt>
      <trkpt lat="45.92547" lon="4.76021">
        <ele>172</ele>
        <time>2018-02-13T09:52:38Z</time>
      </trkpt>
      <trkpt lat="45.92555" lon="4.76027">
        <ele>172</ele>
        <time>2018-02-13T09:52:40Z</time>
      </trkpt>
      <trkpt lat="45.9256" lon="4.7603">
        <ele>172</ele>
        <time>2018-02-13T09:52:41Z</time>
      </trkpt>
      <trkpt lat="45.92564" lon="4.76032">
        <ele>172</ele>
        <time>2018-02-13T09:52:42Z</time>
      </trkpt>
      <trkpt lat="45.92569" lon="4.76035">
        <ele>172</ele>
        <time>2018-02-13T09:52:43Z</time>
      </trkpt>
      <trkpt lat="45.92574" lon="4.76039">
        <ele>172</ele>
        <time>2018-02-13T09:52:44Z</time>
      </trkpt>
      <trkpt lat="45.92578" lon="4.76043">
        <ele>171</ele>
        <time>2018-02-13T09:52:45Z</time>
      </trkpt>
      <trkpt lat="45.92583" lon="4.76046">
        <ele>171</ele>
        <time>2018-02-13T09:52:46Z</time>
      </trkpt>
      <trkpt lat="45.92588" lon="4.7605">
        <ele>171</ele>
        <time>2018-02-13T09:52:47Z</time>
      </trkpt>
      <trkpt lat="45.92593" lon="4.76053">
        <ele>171</ele>
        <time>2018-02-13T09:52:48Z</time>
      </trkpt>
      <trkpt lat="45.92598" lon="4.76056">
        <ele>171</ele>
        <time>2018-02-13T09:52:49Z</time>
      </trkpt>
      <trkpt lat="45.92602" lon="4.76059">
        <ele>171</ele>
        <time>2018-02-13T09:52:50Z</time>
      </trkpt>
      <trkpt lat="45.92607" lon="4.76062">
        <ele>171</ele>
        <time>2018-02-13T09:52:51Z</time>
      </trkpt>
      <trkpt lat="45.92612" lon="4.76064">
        <ele>171</ele>
        <time>2018-02-13T09:52:52Z</time>
      </trkpt>
      <trkpt lat="45.92617" lon="4.76068">
        <ele>171</ele>
        <time>2018-02-13T09:52:53Z</time>
      </trkpt>
      <trkpt lat="45.92622" lon="4.76072">
        <ele>171</ele>
        <time>2018-02-13T09:52:54Z</time>
      </trkpt>
      <trkpt lat="45.92627" lon="4.76075">
        <ele>170</ele>
        <time>2018-02-13T09:52:55Z</time>
      </trkpt>
      <trkpt lat="45.92632" lon="4.76079">
        <ele>170</ele>
        <time>2018-02-13T09:52:56Z</time>
      </trkpt>
      <trkpt lat="45.92637" lon="4.76082">
        <ele>170</ele>
        <time>2018-02-13T09:52:57Z</time>
      </trkpt>
      <trkpt lat="45.92643" lon="4.76086">
        <ele>170</ele>
        <time>2018-02-13T09:52:58Z</time>
      </trkpt>
      <trkpt lat="45.92648" lon="4.7609">
        <ele>170</ele>
        <time>2018-02-13T09:52:59Z</time>
      </trkpt>
      <trkpt lat="45.92653" lon="4.76094">
        <ele>170</ele>
        <time>2018-02-13T09:53:00Z</time>
      </trkpt>
      <trkpt lat="45.92659" lon="4.76098">
        <ele>170</ele>
        <time>2018-02-13T09:53:01Z</time>
      </trkpt>
      <trkpt lat="45.92665" lon="4.76102">
        <ele>170</ele>
        <time>2018-02-13T09:53:02Z</time>
      </trkpt>
      <trkpt lat="45.92671" lon="4.76106">
        <ele>169</ele>
        <time>2018-02-13T09:53:03Z</time>
      </trkpt>
      <trkpt lat="45.92677" lon="4.7611">
        <ele>169</ele>
        <time>2018-02-13T09:53:04Z</time>
      </trkpt>
      <trkpt lat="45.92684" lon="4.76113">
        <ele>169</ele>
        <time>2018-02-13T09:53:05Z</time>
      </trkpt>
      <trkpt lat="45.9269" lon="4.76117">
        <ele>169</ele>
        <time>2018-02-13T09:53:06Z</time>
      </trkpt>
      <trkpt lat="45.92697" lon="4.76122">
        <ele>169</ele>
        <time>2018-02-13T09:53:07Z</time>
      </trkpt>
      <trkpt lat="45.92703" lon="4.76127">
        <ele>169</ele>
        <time>2018-02-13T09:53:08Z</time>
      </trkpt>
      <trkpt lat="45.92709" lon="4.76131">
        <ele>168</ele>
        <time>2018-02-13T09:53:09Z</time>
      </trkpt>
      <trkpt lat="45.92715" lon="4.76136">
        <ele>168</ele>
        <time>2018-02-13T09:53:10Z</time>
      </trkpt>
      <trkpt lat="45.92721" lon="4.76141">
        <ele>168</ele>
        <time>2018-02-13T09:53:11Z</time>
      </trkpt>
      <trkpt lat="45.92727" lon="4.76145">
        <ele>168</ele>
        <time>2018-02-13T09:53:12Z</time>
      </trkpt>
      <trkpt lat="45.92734" lon="4.76149">
        <ele>168</ele>
        <time>2018-02-13T09:53:13Z</time>
      </trkpt>
      <trkpt lat="45.92739" lon="4.76153">
        <ele>168</ele>
        <time>2018-02-13T09:53:14Z</time>
      </trkpt>
      <trkpt lat="45.92745" lon="4.76158">
        <ele>167</ele>
        <time>2018-02-13T09:53:15Z</time>
      </trkpt>
      <trkpt lat="45.9275" lon="4.76162">
        <ele>167</ele>
        <time>2018-02-13T09:53:16Z</time>
      </trkpt>
      <trkpt lat="45.92755" lon="4.76167">
        <ele>167</ele>
        <time>2018-02-13T09:53:17Z</time>
      </trkpt>
      <trkpt lat="45.9276" lon="4.76171">
        <ele>167</ele>
        <time>2018-02-13T09:53:18Z</time>
      </trkpt>
      <trkpt lat="45.92765" lon="4.76176">
        <ele>167</ele>
        <time>2018-02-13T09:53:19Z</time>
      </trkpt>
      <trkpt lat="45.9277" lon="4.76179">
        <ele>167</ele>
        <time>2018-02-13T09:53:20Z</time>
      </trkpt>
      <trkpt lat="45.92774" lon="4.76184">
        <ele>167</ele>
        <time>2018-02-13T09:53:21Z</time>
      </trkpt>
      <trkpt lat="45.92779" lon="4.76188">
        <ele>168</ele>
        <time>2018-02-13T09:53:22Z</time>
      </trkpt>
      <trkpt lat="45.92784" lon="4.76193">
        <ele>168</ele>
        <time>2018-02-13T09:53:23Z</time>
      </trkpt>
      <trkpt lat="45.92789" lon="4.76198">
        <ele>168</ele>
        <time>2018-02-13T09:53:24Z</time>
      </trkpt>
      <trkpt lat="45.92794" lon="4.76202">
        <ele>168</ele>
        <time>2018-02-13T09:53:25Z</time>
      </trkpt>
      <trkpt lat="45.92799" lon="4.76206">
        <ele>168</ele>
        <time>2018-02-13T09:53:26Z</time>
      </trkpt>
      <trkpt lat="45.92804" lon="4.76211">
        <ele>168</ele>
        <time>2018-02-13T09:53:27Z</time>
      </trkpt>
      <trkpt lat="45.92808" lon="4.76216">
        <ele>168</ele>
        <time>2018-02-13T09:53:28Z</time>
      </trkpt>
      <trkpt lat="45.92814" lon="4.7622">
        <ele>168</ele>
        <time>2018-02-13T09:53:29Z</time>
      </trkpt>
      <trkpt lat="45.92819" lon="4.76225">
        <ele>168</ele>
        <time>2018-02-13T09:53:30Z</time>
      </trkpt>
      <trkpt lat="45.92823" lon="4.7623">
        <ele>168</ele>
        <time>2018-02-13T09:53:31Z</time>
      </trkpt>
      <trkpt lat="45.92828" lon="4.76235">
        <ele>168</ele>
        <time>2018-02-13T09:53:32Z</time>
      </trkpt>
      <trkpt lat="45.92832" lon="4.7624">
        <ele>169</ele>
        <time>2018-02-13T09:53:33Z</time>
      </trkpt>
      <trkpt lat="45.92837" lon="4.76244">
        <ele>169</ele>
        <time>2018-02-13T09:53:34Z</time>
      </trkpt>
      <trkpt lat="45.92842" lon="4.76248">
        <ele>169</ele>
        <time>2018-02-13T09:53:35Z</time>
      </trkpt>
      <trkpt lat="45.92847" lon="4.76251">
        <ele>169</ele>
        <time>2018-02-13T09:53:36Z</time>
      </trkpt>
      <trkpt lat="45.92852" lon="4.76255">
        <ele>169</ele>
        <time>2018-02-13T09:53:37Z</time>
      </trkpt>
      <trkpt lat="45.92856" lon="4.76259">
        <ele>169</ele>
        <time>2018-02-13T09:53:38Z</time>
      </trkpt>
      <trkpt lat="45.92861" lon="4.76264">
        <ele>169</ele>
        <time>2018-02-13T09:53:39Z</time>
      </trkpt>
      <trkpt lat="45.92866" lon="4.76269">
        <ele>169</ele>
        <time>2018-02-13T09:53:40Z</time>
      </trkpt>
      <trkpt lat="45.9287" lon="4.76274">
        <ele>169</ele>
        <time>2018-02-13T09:53:41Z</time>
      </trkpt>
      <trkpt lat="45.92874" lon="4.76279">
        <ele>169</ele>
        <time>2018-02-13T09:53:42Z</time>
      </trkpt>
      <trkpt lat="45.92879" lon="4.76282">
        <ele>169</ele>
        <time>2018-02-13T09:53:43Z</time>
      </trkpt>
      <trkpt lat="45.92884" lon="4.76288">
        <ele>169</ele>
        <time>2018-02-13T09:53:44Z</time>
      </trkpt>
      <trkpt lat="45.92889" lon="4.76291">
        <ele>169</ele>
        <time>2018-02-13T09:53:45Z</time>
      </trkpt>
      <trkpt lat="45.92893" lon="4.76298">
        <ele>169</ele>
        <time>2018-02-13T09:53:46Z</time>
      </trkpt>
      <trkpt lat="45.92898" lon="4.76301">
        <ele>169</ele>
        <time>2018-02-13T09:53:47Z</time>
      </trkpt>
      <trkpt lat="45.92901" lon="4.76306">
        <ele>169</ele>
        <time>2018-02-13T09:53:48Z</time>
      </trkpt>
      <trkpt lat="45.92905" lon="4.7631">
        <ele>169</ele>
        <time>2018-02-13T09:53:49Z</time>
      </trkpt>
      <trkpt lat="45.9291" lon="4.76314">
        <ele>169</ele>
        <time>2018-02-13T09:53:50Z</time>
      </trkpt>
      <trkpt lat="45.92915" lon="4.76317">
        <ele>169</ele>
        <time>2018-02-13T09:53:51Z</time>
      </trkpt>
      <trkpt lat="45.92921" lon="4.76321">
        <ele>169</ele>
        <time>2018-02-13T09:53:52Z</time>
      </trkpt>
      <trkpt lat="45.92925" lon="4.76325">
        <ele>169</ele>
        <time>2018-02-13T09:53:53Z</time>
      </trkpt>
      <trkpt lat="45.92929" lon="4.7633">
        <ele>169</ele>
        <time>2018-02-13T09:53:54Z</time>
      </trkpt>
      <trkpt lat="45.92935" lon="4.76339">
        <ele>169</ele>
        <time>2018-02-13T09:53:55Z</time>
      </trkpt>
      <trkpt lat="45.92939" lon="4.76343">
        <ele>169</ele>
        <time>2018-02-13T09:53:56Z</time>
      </trkpt>
      <trkpt lat="45.92943" lon="4.76348">
        <ele>169</ele>
        <time>2018-02-13T09:53:57Z</time>
      </trkpt>
      <trkpt lat="45.92948" lon="4.76353">
        <ele>169</ele>
        <time>2018-02-13T09:53:58Z</time>
      </trkpt>
      <trkpt lat="45.92952" lon="4.76356">
        <ele>169</ele>
        <time>2018-02-13T09:53:59Z</time>
      </trkpt>
      <trkpt lat="45.92957" lon="4.7636">
        <ele>169</ele>
        <time>2018-02-13T09:54:00Z</time>
      </trkpt>
      <trkpt lat="45.92962" lon="4.76367">
        <ele>169</ele>
        <time>2018-02-13T09:54:01Z</time>
      </trkpt>
      <trkpt lat="45.92967" lon="4.76371">
        <ele>169</ele>
        <time>2018-02-13T09:54:02Z</time>
      </trkpt>
      <trkpt lat="45.92972" lon="4.76375">
        <ele>169</ele>
        <time>2018-02-13T09:54:03Z</time>
      </trkpt>
      <trkpt lat="45.92977" lon="4.7638">
        <ele>169</ele>
        <time>2018-02-13T09:54:04Z</time>
      </trkpt>
      <trkpt lat="45.92981" lon="4.76385">
        <ele>169</ele>
        <time>2018-02-13T09:54:05Z</time>
      </trkpt>
      <trkpt lat="45.92986" lon="4.76389">
        <ele>169</ele>
        <time>2018-02-13T09:54:06Z</time>
      </trkpt>
      <trkpt lat="45.9299" lon="4.76393">
        <ele>169</ele>
        <time>2018-02-13T09:54:07Z</time>
      </trkpt>
      <trkpt lat="45.92995" lon="4.76398">
        <ele>169</ele>
        <time>2018-02-13T09:54:08Z</time>
      </trkpt>
      <trkpt lat="45.92999" lon="4.76403">
        <ele>169</ele>
        <time>2018-02-13T09:54:09Z</time>
      </trkpt>
      <trkpt lat="45.93005" lon="4.76407">
        <ele>169</ele>
        <time>2018-02-13T09:54:10Z</time>
      </trkpt>
      <trkpt lat="45.93009" lon="4.76411">
        <ele>169</ele>
        <time>2018-02-13T09:54:11Z</time>
      </trkpt>
      <trkpt lat="45.93013" lon="4.76418">
        <ele>169</ele>
        <time>2018-02-13T09:54:12Z</time>
      </trkpt>
      <trkpt lat="45.93018" lon="4.76422">
        <ele>169</ele>
        <time>2018-02-13T09:54:13Z</time>
      </trkpt>
      <trkpt lat="45.93023" lon="4.76426">
        <ele>169</ele>
        <time>2018-02-13T09:54:14Z</time>
      </trkpt>
      <trkpt lat="45.93028" lon="4.76432">
        <ele>169</ele>
        <time>2018-02-13T09:54:15Z</time>
      </trkpt>
      <trkpt lat="45.93032" lon="4.76436">
        <ele>169</ele>
        <time>2018-02-13T09:54:16Z</time>
      </trkpt>
      <trkpt lat="45.93038" lon="4.76439">
        <ele>169</ele>
        <time>2018-02-13T09:54:17Z</time>
      </trkpt>
      <trkpt lat="45.93043" lon="4.76445">
        <ele>169</ele>
        <time>2018-02-13T09:54:18Z</time>
      </trkpt>
      <trkpt lat="45.93048" lon="4.7645">
        <ele>169</ele>
        <time>2018-02-13T09:54:19Z</time>
      </trkpt>
      <trkpt lat="45.93053" lon="4.76455">
        <ele>169</ele>
        <time>2018-02-13T09:54:20Z</time>
      </trkpt>
      <trkpt lat="45.93057" lon="4.7646">
        <ele>169</ele>
        <time>2018-02-13T09:54:21Z</time>
      </trkpt>
      <trkpt lat="45.93061" lon="4.76466">
        <ele>169</ele>
        <time>2018-02-13T09:54:22Z</time>
      </trkpt>
      <trkpt lat="45.93066" lon="4.76469">
        <ele>169</ele>
        <time>2018-02-13T09:54:23Z</time>
      </trkpt>
      <trkpt lat="45.9307" lon="4.76473">
        <ele>169</ele>
        <time>2018-02-13T09:54:24Z</time>
      </trkpt>
      <trkpt lat="45.93075" lon="4.76478">
        <ele>169</ele>
        <time>2018-02-13T09:54:25Z</time>
      </trkpt>
      <trkpt lat="45.93079" lon="4.76483">
        <ele>169</ele>
        <time>2018-02-13T09:54:26Z</time>
      </trkpt>
      <trkpt lat="45.93083" lon="4.76488">
        <ele>170</ele>
        <time>2018-02-13T09:54:27Z</time>
      </trkpt>
      <trkpt lat="45.93086" lon="4.76492">
        <ele>170</ele>
        <time>2018-02-13T09:54:28Z</time>
      </trkpt>
      <trkpt lat="45.9309" lon="4.76497">
        <ele>170</ele>
        <time>2018-02-13T09:54:29Z</time>
      </trkpt>
      <trkpt lat="45.93095" lon="4.76501">
        <ele>170</ele>
        <time>2018-02-13T09:54:30Z</time>
      </trkpt>
      <trkpt lat="45.93099" lon="4.76506">
        <ele>170</ele>
        <time>2018-02-13T09:54:31Z</time>
      </trkpt>
      <trkpt lat="45.93104" lon="4.7651">
        <ele>170</ele>
        <time>2018-02-13T09:54:32Z</time>
      </trkpt>
      <trkpt lat="45.93108" lon="4.76514">
        <ele>170</ele>
        <time>2018-02-13T09:54:33Z</time>
      </trkpt>
      <trkpt lat="45.93111" lon="4.76518">
        <ele>170</ele>
        <time>2018-02-13T09:54:34Z</time>
      </trkpt>
      <trkpt lat="45.93115" lon="4.76523">
        <ele>170</ele>
        <time>2018-02-13T09:54:35Z</time>
      </trkpt>
      <trkpt lat="45.9312" lon="4.76528">
        <ele>170</ele>
        <time>2018-02-13T09:54:36Z</time>
      </trkpt>
      <trkpt lat="45.93124" lon="4.76531">
        <ele>170</ele>
        <time>2018-02-13T09:54:37Z</time>
      </trkpt>
      <trkpt lat="45.93129" lon="4.76535">
        <ele>170</ele>
        <time>2018-02-13T09:54:38Z</time>
      </trkpt>
      <trkpt lat="45.93134" lon="4.76539">
        <ele>170</ele>
        <time>2018-02-13T09:54:39Z</time>
      </trkpt>
      <trkpt lat="45.93138" lon="4.76543">
        <ele>170</ele>
        <time>2018-02-13T09:54:40Z</time>
      </trkpt>
      <trkpt lat="45.93143" lon="4.76546">
        <ele>170</ele>
        <time>2018-02-13T09:54:41Z</time>
      </trkpt>
      <trkpt lat="45.93146" lon="4.76552">
        <ele>170</ele>
        <time>2018-02-13T09:54:42Z</time>
      </trkpt>
      <trkpt lat="45.9315" lon="4.76556">
        <ele>170</ele>
        <time>2018-02-13T09:54:43Z</time>
      </trkpt>
      <trkpt lat="45.93154" lon="4.76561">
        <ele>170</ele>
        <time>2018-02-13T09:54:44Z</time>
      </trkpt>
      <trkpt lat="45.93158" lon="4.76566">
        <ele>170</ele>
        <time>2018-02-13T09:54:45Z</time>
      </trkpt>
      <trkpt lat="45.93162" lon="4.7657">
        <ele>170</ele>
        <time>2018-02-13T09:54:46Z</time>
      </trkpt>
      <trkpt lat="45.93166" lon="4.76573">
        <ele>171</ele>
        <time>2018-02-13T09:54:47Z</time>
      </trkpt>
      <trkpt lat="45.9317" lon="4.76578">
        <ele>170</ele>
        <time>2018-02-13T09:54:48Z</time>
      </trkpt>
      <trkpt lat="45.93175" lon="4.76583">
        <ele>170</ele>
        <time>2018-02-13T09:54:49Z</time>
      </trkpt>
      <trkpt lat="45.93179" lon="4.76589">
        <ele>171</ele>
        <time>2018-02-13T09:54:50Z</time>
      </trkpt>
      <trkpt lat="45.93184" lon="4.76595">
        <ele>171</ele>
        <time>2018-02-13T09:54:51Z</time>
      </trkpt>
      <trkpt lat="45.93188" lon="4.76599">
        <ele>171</ele>
        <time>2018-02-13T09:54:52Z</time>
      </trkpt>
      <trkpt lat="45.93192" lon="4.76602">
        <ele>170</ele>
        <time>2018-02-13T09:54:53Z</time>
      </trkpt>
      <trkpt lat="45.93196" lon="4.76606">
        <ele>170</ele>
        <time>2018-02-13T09:54:54Z</time>
      </trkpt>
      <trkpt lat="45.932" lon="4.76611">
        <ele>170</ele>
        <time>2018-02-13T09:54:55Z</time>
      </trkpt>
      <trkpt lat="45.93205" lon="4.76615">
        <ele>170</ele>
        <time>2018-02-13T09:54:56Z</time>
      </trkpt>
      <trkpt lat="45.9321" lon="4.76619">
        <ele>170</ele>
        <time>2018-02-13T09:54:57Z</time>
      </trkpt>
      <trkpt lat="45.93214" lon="4.76623">
        <ele>170</ele>
        <time>2018-02-13T09:54:58Z</time>
      </trkpt>
      <trkpt lat="45.93218" lon="4.76627">
        <ele>170</ele>
        <time>2018-02-13T09:54:59Z</time>
      </trkpt>
      <trkpt lat="45.93222" lon="4.76631">
        <ele>170</ele>
        <time>2018-02-13T09:55:00Z</time>
      </trkpt>
      <trkpt lat="45.93226" lon="4.76635">
        <ele>171</ele>
        <time>2018-02-13T09:55:01Z</time>
      </trkpt>
      <trkpt lat="45.9323" lon="4.76639">
        <ele>171</ele>
        <time>2018-02-13T09:55:02Z</time>
      </trkpt>
      <trkpt lat="45.93234" lon="4.76643">
        <ele>171</ele>
        <time>2018-02-13T09:55:03Z</time>
      </trkpt>
      <trkpt lat="45.93239" lon="4.76647">
        <ele>171</ele>
        <time>2018-02-13T09:55:04Z</time>
      </trkpt>
      <trkpt lat="45.93245" lon="4.76655">
        <ele>171</ele>
        <time>2018-02-13T09:55:05Z</time>
      </trkpt>
      <trkpt lat="45.9325" lon="4.7666">
        <ele>172</ele>
        <time>2018-02-13T09:55:06Z</time>
      </trkpt>
      <trkpt lat="45.93255" lon="4.76664">
        <ele>171</ele>
        <time>2018-02-13T09:55:07Z</time>
      </trkpt>
      <trkpt lat="45.9326" lon="4.76667">
        <ele>172</ele>
        <time>2018-02-13T09:55:08Z</time>
      </trkpt>
      <trkpt lat="45.93264" lon="4.76671">
        <ele>172</ele>
        <time>2018-02-13T09:55:09Z</time>
      </trkpt>
      <trkpt lat="45.93268" lon="4.76674">
        <ele>172</ele>
        <time>2018-02-13T09:55:10Z</time>
      </trkpt>
      <trkpt lat="45.93271" lon="4.76679">
        <ele>172</ele>
        <time>2018-02-13T09:55:11Z</time>
      </trkpt>
      <trkpt lat="45.93275" lon="4.76682">
        <ele>172</ele>
        <time>2018-02-13T09:55:12Z</time>
      </trkpt>
      <trkpt lat="45.93279" lon="4.76685">
        <ele>172</ele>
        <time>2018-02-13T09:55:13Z</time>
      </trkpt>
      <trkpt lat="45.93284" lon="4.76691">
        <ele>172</ele>
        <time>2018-02-13T09:55:14Z</time>
      </trkpt>
      <trkpt lat="45.93288" lon="4.76694">
        <ele>172</ele>
        <time>2018-02-13T09:55:15Z</time>
      </trkpt>
      <trkpt lat="45.93291" lon="4.76698">
        <ele>172</ele>
        <time>2018-02-13T09:55:16Z</time>
      </trkpt>
      <trkpt lat="45.93296" lon="4.76702">
        <ele>172</ele>
        <time>2018-02-13T09:55:17Z</time>
      </trkpt>
      <trkpt lat="45.933" lon="4.76706">
        <ele>172</ele>
        <time>2018-02-13T09:55:18Z</time>
      </trkpt>
      <trkpt lat="45.93304" lon="4.76712">
        <ele>172</ele>
        <time>2018-02-13T09:55:19Z</time>
      </trkpt>
      <trkpt lat="45.93309" lon="4.76717">
        <ele>172</ele>
        <time>2018-02-13T09:55:20Z</time>
      </trkpt>
      <trkpt lat="45.93313" lon="4.76722">
        <ele>172</ele>
        <time>2018-02-13T09:55:21Z</time>
      </trkpt>
      <trkpt lat="45.93318" lon="4.76725">
        <ele>172</ele>
        <time>2018-02-13T09:55:22Z</time>
      </trkpt>
      <trkpt lat="45.93321" lon="4.7673">
        <ele>172</ele>
        <time>2018-02-13T09:55:23Z</time>
      </trkpt>
      <trkpt lat="45.93325" lon="4.76735">
        <ele>172</ele>
        <time>2018-02-13T09:55:24Z</time>
      </trkpt>
      <trkpt lat="45.93329" lon="4.76739">
        <ele>172</ele>
        <time>2018-02-13T09:55:25Z</time>
      </trkpt>
      <trkpt lat="45.93334" lon="4.76743">
        <ele>173</ele>
        <time>2018-02-13T09:55:26Z</time>
      </trkpt>
      <trkpt lat="45.93338" lon="4.76747">
        <ele>173</ele>
        <time>2018-02-13T09:55:27Z</time>
      </trkpt>
      <trkpt lat="45.93341" lon="4.76751">
        <ele>173</ele>
        <time>2018-02-13T09:55:28Z</time>
      </trkpt>
      <trkpt lat="45.93346" lon="4.76754">
        <ele>172</ele>
        <time>2018-02-13T09:55:29Z</time>
      </trkpt>
      <trkpt lat="45.9335" lon="4.76759">
        <ele>172</ele>
        <time>2018-02-13T09:55:30Z</time>
      </trkpt>
      <trkpt lat="45.93354" lon="4.76761">
        <ele>172</ele>
        <time>2018-02-13T09:55:31Z</time>
      </trkpt>
      <trkpt lat="45.93357" lon="4.76765">
        <ele>172</ele>
        <time>2018-02-13T09:55:32Z</time>
      </trkpt>
      <trkpt lat="45.93362" lon="4.7677">
        <ele>172</ele>
        <time>2018-02-13T09:55:33Z</time>
      </trkpt>
      <trkpt lat="45.93367" lon="4.76775">
        <ele>172</ele>
        <time>2018-02-13T09:55:34Z</time>
      </trkpt>
      <trkpt lat="45.93372" lon="4.76779">
        <ele>172</ele>
        <time>2018-02-13T09:55:35Z</time>
      </trkpt>
      <trkpt lat="45.93377" lon="4.76783">
        <ele>172</ele>
        <time>2018-02-13T09:55:36Z</time>
      </trkpt>
      <trkpt lat="45.93381" lon="4.76788">
        <ele>172</ele>
        <time>2018-02-13T09:55:37Z</time>
      </trkpt>
      <trkpt lat="45.93385" lon="4.76793">
        <ele>172</ele>
        <time>2018-02-13T09:55:38Z</time>
      </trkpt>
      <trkpt lat="45.93389" lon="4.76799">
        <ele>172</ele>
        <time>2018-02-13T09:55:39Z</time>
      </trkpt>
      <trkpt lat="45.93394" lon="4.76803">
        <ele>172</ele>
        <time>2018-02-13T09:55:40Z</time>
      </trkpt>
      <trkpt lat="45.93398" lon="4.76809">
        <ele>172</ele>
        <time>2018-02-13T09:55:41Z</time>
      </trkpt>
      <trkpt lat="45.93402" lon="4.76815">
        <ele>172</ele>
        <time>2018-02-13T09:55:42Z</time>
      </trkpt>
      <trkpt lat="45.93407" lon="4.76821">
        <ele>172</ele>
        <time>2018-02-13T09:55:43Z</time>
      </trkpt>
      <trkpt lat="45.9341" lon="4.76829">
        <ele>172</ele>
        <time>2018-02-13T09:55:44Z</time>
      </trkpt>
      <trkpt lat="45.93414" lon="4.76835">
        <ele>172</ele>
        <time>2018-02-13T09:55:45Z</time>
      </trkpt>
      <trkpt lat="45.93417" lon="4.76841">
        <ele>172</ele>
        <time>2018-02-13T09:55:46Z</time>
      </trkpt>
      <trkpt lat="45.93421" lon="4.76846">
        <ele>171</ele>
        <time>2018-02-13T09:55:47Z</time>
      </trkpt>
      <trkpt lat="45.93424" lon="4.76852">
        <ele>171</ele>
        <time>2018-02-13T09:55:48Z</time>
      </trkpt>
      <trkpt lat="45.93426" lon="4.76856">
        <ele>171</ele>
        <time>2018-02-13T09:55:49Z</time>
      </trkpt>
      <trkpt lat="45.93429" lon="4.76862">
        <ele>171</ele>
        <time>2018-02-13T09:55:50Z</time>
      </trkpt>
      <trkpt lat="45.93432" lon="4.76868">
        <ele>171</ele>
        <time>2018-02-13T09:55:51Z</time>
      </trkpt>
      <trkpt lat="45.93434" lon="4.76874">
        <ele>171</ele>
        <time>2018-02-13T09:55:52Z</time>
      </trkpt>
      <trkpt lat="45.93436" lon="4.76881">
        <ele>171</ele>
        <time>2018-02-13T09:55:53Z</time>
      </trkpt>
      <trkpt lat="45.93438" lon="4.76887">
        <ele>170</ele>
        <time>2018-02-13T09:55:54Z</time>
      </trkpt>
      <trkpt lat="45.93439" lon="4.76894">
        <ele>170</ele>
        <time>2018-02-13T09:55:55Z</time>
      </trkpt>
      <trkpt lat="45.93441" lon="4.76901">
        <ele>170</ele>
        <time>2018-02-13T09:55:56Z</time>
      </trkpt>
      <trkpt lat="45.93443" lon="4.76909">
        <ele>170</ele>
        <time>2018-02-13T09:55:57Z</time>
      </trkpt>
      <trkpt lat="45.93445" lon="4.76915">
        <ele>170</ele>
        <time>2018-02-13T09:55:58Z</time>
      </trkpt>
      <trkpt lat="45.93446" lon="4.76923">
        <ele>170</ele>
        <time>2018-02-13T09:55:59Z</time>
      </trkpt>
      <trkpt lat="45.93447" lon="4.7693">
        <ele>170</ele>
        <time>2018-02-13T09:56:00Z</time>
      </trkpt>
      <trkpt lat="45.93449" lon="4.76937">
        <ele>170</ele>
        <time>2018-02-13T09:56:01Z</time>
      </trkpt>
      <trkpt lat="45.9345" lon="4.76945">
        <ele>170</ele>
        <time>2018-02-13T09:56:02Z</time>
      </trkpt>
      <trkpt lat="45.93452" lon="4.76953">
        <ele>170</ele>
        <time>2018-02-13T09:56:03Z</time>
      </trkpt>
      <trkpt lat="45.93453" lon="4.7696">
        <ele>170</ele>
        <time>2018-02-13T09:56:04Z</time>
      </trkpt>
      <trkpt lat="45.93455" lon="4.76966">
        <ele>170</ele>
        <time>2018-02-13T09:56:05Z</time>
      </trkpt>
      <trkpt lat="45.93456" lon="4.76973">
        <ele>170</ele>
        <time>2018-02-13T09:56:06Z</time>
      </trkpt>
      <trkpt lat="45.93457" lon="4.7698">
        <ele>170</ele>
        <time>2018-02-13T09:56:07Z</time>
      </trkpt>
      <trkpt lat="45.93458" lon="4.76988">
        <ele>170</ele>
        <time>2018-02-13T09:56:08Z</time>
      </trkpt>
      <trkpt lat="45.93459" lon="4.76995">
        <ele>170</ele>
        <time>2018-02-13T09:56:09Z</time>
      </trkpt>
      <trkpt lat="45.93459" lon="4.77002">
        <ele>170</ele>
        <time>2018-02-13T09:56:10Z</time>
      </trkpt>
      <trkpt lat="45.93461" lon="4.77009">
        <ele>170</ele>
        <time>2018-02-13T09:56:11Z</time>
      </trkpt>
      <trkpt lat="45.93461" lon="4.77015">
        <ele>170</ele>
        <time>2018-02-13T09:56:12Z</time>
      </trkpt>
      <trkpt lat="45.93462" lon="4.77023">
        <ele>170</ele>
        <time>2018-02-13T09:56:13Z</time>
      </trkpt>
      <trkpt lat="45.93463" lon="4.7703">
        <ele>170</ele>
        <time>2018-02-13T09:56:14Z</time>
      </trkpt>
      <trkpt lat="45.93465" lon="4.77038">
        <ele>170</ele>
        <time>2018-02-13T09:56:15Z</time>
      </trkpt>
      <trkpt lat="45.93466" lon="4.77044">
        <ele>170</ele>
        <time>2018-02-13T09:56:16Z</time>
      </trkpt>
      <trkpt lat="45.93467" lon="4.77051">
        <ele>170</ele>
        <time>2018-02-13T09:56:17Z</time>
      </trkpt>
      <trkpt lat="45.93469" lon="4.77058">
        <ele>170</ele>
        <time>2018-02-13T09:56:18Z</time>
      </trkpt>
      <trkpt lat="45.9347" lon="4.77065">
        <ele>170</ele>
        <time>2018-02-13T09:56:19Z</time>
      </trkpt>
      <trkpt lat="45.9347" lon="4.77072">
        <ele>170</ele>
        <time>2018-02-13T09:56:20Z</time>
      </trkpt>
      <trkpt lat="45.93472" lon="4.77079">
        <ele>170</ele>
        <time>2018-02-13T09:56:21Z</time>
      </trkpt>
      <trkpt lat="45.93473" lon="4.77086">
        <ele>169</ele>
        <time>2018-02-13T09:56:22Z</time>
      </trkpt>
      <trkpt lat="45.93474" lon="4.77093">
        <ele>169</ele>
        <time>2018-02-13T09:56:23Z</time>
      </trkpt>
      <trkpt lat="45.93475" lon="4.771">
        <ele>169</ele>
        <time>2018-02-13T09:56:24Z</time>
      </trkpt>
      <trkpt lat="45.93476" lon="4.77107">
        <ele>169</ele>
        <time>2018-02-13T09:56:25Z</time>
      </trkpt>
      <trkpt lat="45.93477" lon="4.77114">
        <ele>169</ele>
        <time>2018-02-13T09:56:26Z</time>
      </trkpt>
      <trkpt lat="45.93479" lon="4.77121">
        <ele>169</ele>
        <time>2018-02-13T09:56:27Z</time>
      </trkpt>
      <trkpt lat="45.9348" lon="4.77129">
        <ele>169</ele>
        <time>2018-02-13T09:56:28Z</time>
      </trkpt>
      <trkpt lat="45.93482" lon="4.77137">
        <ele>169</ele>
        <time>2018-02-13T09:56:29Z</time>
      </trkpt>
      <trkpt lat="45.93484" lon="4.77145">
        <ele>169</ele>
        <time>2018-02-13T09:56:30Z</time>
      </trkpt>
      <trkpt lat="45.93485" lon="4.77152">
        <ele>169</ele>
        <time>2018-02-13T09:56:31Z</time>
      </trkpt>
      <trkpt lat="45.93487" lon="4.7716">
        <ele>169</ele>
        <time>2018-02-13T09:56:32Z</time>
      </trkpt>
      <trkpt lat="45.93489" lon="4.77167">
        <ele>169</ele>
        <time>2018-02-13T09:56:33Z</time>
      </trkpt>
      <trkpt lat="45.9349" lon="4.77174">
        <ele>169</ele>
        <time>2018-02-13T09:56:34Z</time>
      </trkpt>
      <trkpt lat="45.93492" lon="4.7718">
        <ele>169</ele>
        <time>2018-02-13T09:56:35Z</time>
      </trkpt>
      <trkpt lat="45.93493" lon="4.77187">
        <ele>169</ele>
        <time>2018-02-13T09:56:36Z</time>
      </trkpt>
      <trkpt lat="45.93495" lon="4.77193">
        <ele>169</ele>
        <time>2018-02-13T09:56:37Z</time>
      </trkpt>
      <trkpt lat="45.93497" lon="4.77199">
        <ele>169</ele>
        <time>2018-02-13T09:56:38Z</time>
      </trkpt>
      <trkpt lat="45.93498" lon="4.77206">
        <ele>169</ele>
        <time>2018-02-13T09:56:39Z</time>
      </trkpt>
      <trkpt lat="45.935" lon="4.77213">
        <ele>169</ele>
        <time>2018-02-13T09:56:40Z</time>
      </trkpt>
      <trkpt lat="45.93502" lon="4.7722">
        <ele>169</ele>
        <time>2018-02-13T09:56:41Z</time>
      </trkpt>
      <trkpt lat="45.93503" lon="4.77227">
        <ele>169</ele>
        <time>2018-02-13T09:56:42Z</time>
      </trkpt>
      <trkpt lat="45.93505" lon="4.77234">
        <ele>169</ele>
        <time>2018-02-13T09:56:43Z</time>
      </trkpt>
      <trkpt lat="45.93507" lon="4.77243">
        <ele>170</ele>
        <time>2018-02-13T09:56:44Z</time>
      </trkpt>
      <trkpt lat="45.93509" lon="4.77251">
        <ele>170</ele>
        <time>2018-02-13T09:56:45Z</time>
      </trkpt>
      <trkpt lat="45.9351" lon="4.77258">
        <ele>170</ele>
        <time>2018-02-13T09:56:46Z</time>
      </trkpt>
      <trkpt lat="45.93511" lon="4.77266">
        <ele>170</ele>
        <time>2018-02-13T09:56:47Z</time>
      </trkpt>
      <trkpt lat="45.93512" lon="4.77273">
        <ele>170</ele>
        <time>2018-02-13T09:56:48Z</time>
      </trkpt>
      <trkpt lat="45.93514" lon="4.7728">
        <ele>170</ele>
        <time>2018-02-13T09:56:49Z</time>
      </trkpt>
      <trkpt lat="45.93516" lon="4.77287">
        <ele>170</ele>
        <time>2018-02-13T09:56:50Z</time>
      </trkpt>
      <trkpt lat="45.93518" lon="4.77294">
        <ele>170</ele>
        <time>2018-02-13T09:56:51Z</time>
      </trkpt>
      <trkpt lat="45.93519" lon="4.77302">
        <ele>170</ele>
        <time>2018-02-13T09:56:52Z</time>
      </trkpt>
      <trkpt lat="45.93521" lon="4.77309">
        <ele>170</ele>
        <time>2018-02-13T09:56:53Z</time>
      </trkpt>
      <trkpt lat="45.93523" lon="4.77316">
        <ele>170</ele>
        <time>2018-02-13T09:56:54Z</time>
      </trkpt>
      <trkpt lat="45.93524" lon="4.77323">
        <ele>170</ele>
        <time>2018-02-13T09:56:55Z</time>
      </trkpt>
      <trkpt lat="45.93526" lon="4.7733">
        <ele>170</ele>
        <time>2018-02-13T09:56:56Z</time>
      </trkpt>
      <trkpt lat="45.93527" lon="4.77337">
        <ele>170</ele>
        <time>2018-02-13T09:56:57Z</time>
      </trkpt>
      <trkpt lat="45.93528" lon="4.77345">
        <ele>170</ele>
        <time>2018-02-13T09:56:58Z</time>
      </trkpt>
      <trkpt lat="45.93529" lon="4.77352">
        <ele>170</ele>
        <time>2018-02-13T09:56:59Z</time>
      </trkpt>
      <trkpt lat="45.93529" lon="4.77359">
        <ele>170</ele>
        <time>2018-02-13T09:57:00Z</time>
      </trkpt>
      <trkpt lat="45.93531" lon="4.77367">
        <ele>170</ele>
        <time>2018-02-13T09:57:01Z</time>
      </trkpt>
      <trkpt lat="45.93532" lon="4.77373">
        <ele>170</ele>
        <time>2018-02-13T09:57:02Z</time>
      </trkpt>
      <trkpt lat="45.93533" lon="4.77381">
        <ele>170</ele>
        <time>2018-02-13T09:57:03Z</time>
      </trkpt>
      <trkpt lat="45.93535" lon="4.77386">
        <ele>170</ele>
        <time>2018-02-13T09:57:04Z</time>
      </trkpt>
      <trkpt lat="45.93536" lon="4.77393">
        <ele>170</ele>
        <time>2018-02-13T09:57:05Z</time>
      </trkpt>
      <trkpt lat="45.93537" lon="4.77399">
        <ele>170</ele>
        <time>2018-02-13T09:57:06Z</time>
      </trkpt>
      <trkpt lat="45.93539" lon="4.77405">
        <ele>170</ele>
        <time>2018-02-13T09:57:07Z</time>
      </trkpt>
      <trkpt lat="45.9354" lon="4.77413">
        <ele>170</ele>
        <time>2018-02-13T09:57:08Z</time>
      </trkpt>
      <trkpt lat="45.93542" lon="4.7742">
        <ele>170</ele>
        <time>2018-02-13T09:57:09Z</time>
      </trkpt>
      <trkpt lat="45.93544" lon="4.77428">
        <ele>169</ele>
        <time>2018-02-13T09:57:10Z</time>
      </trkpt>
      <trkpt lat="45.93545" lon="4.77435">
        <ele>169</ele>
        <time>2018-02-13T09:57:11Z</time>
      </trkpt>
      <trkpt lat="45.93546" lon="4.77441">
        <ele>169</ele>
        <time>2018-02-13T09:57:12Z</time>
      </trkpt>
      <trkpt lat="45.93548" lon="4.77448">
        <ele>169</ele>
        <time>2018-02-13T09:57:13Z</time>
      </trkpt>
      <trkpt lat="45.93551" lon="4.77455">
        <ele>169</ele>
        <time>2018-02-13T09:57:14Z</time>
      </trkpt>
      <trkpt lat="45.93552" lon="4.77462">
        <ele>169</ele>
        <time>2018-02-13T09:57:15Z</time>
      </trkpt>
      <trkpt lat="45.93554" lon="4.77469">
        <ele>169</ele>
        <time>2018-02-13T09:57:16Z</time>
      </trkpt>
      <trkpt lat="45.93556" lon="4.77474">
        <ele>169</ele>
        <time>2018-02-13T09:57:17Z</time>
      </trkpt>
      <trkpt lat="45.93558" lon="4.77481">
        <ele>169</ele>
        <time>2018-02-13T09:57:18Z</time>
      </trkpt>
      <trkpt lat="45.9356" lon="4.77488">
        <ele>169</ele>
        <time>2018-02-13T09:57:19Z</time>
      </trkpt>
      <trkpt lat="45.93561" lon="4.77495">
        <ele>169</ele>
        <time>2018-02-13T09:57:20Z</time>
      </trkpt>
      <trkpt lat="45.93563" lon="4.77501">
        <ele>169</ele>
        <time>2018-02-13T09:57:21Z</time>
      </trkpt>
      <trkpt lat="45.93565" lon="4.77513">
        <ele>169</ele>
        <time>2018-02-13T09:57:23Z</time>
      </trkpt>
      <trkpt lat="45.93567" lon="4.77519">
        <ele>169</ele>
        <time>2018-02-13T09:57:24Z</time>
      </trkpt>
      <trkpt lat="45.93568" lon="4.77525">
        <ele>169</ele>
        <time>2018-02-13T09:57:25Z</time>
      </trkpt>
      <trkpt lat="45.9357" lon="4.77533">
        <ele>169</ele>
        <time>2018-02-13T09:57:26Z</time>
      </trkpt>
      <trkpt lat="45.93573" lon="4.77544">
        <ele>169</ele>
        <time>2018-02-13T09:57:28Z</time>
      </trkpt>
      <trkpt lat="45.93576" lon="4.7755">
        <ele>169</ele>
        <time>2018-02-13T09:57:29Z</time>
      </trkpt>
      <trkpt lat="45.93577" lon="4.77556">
        <ele>169</ele>
        <time>2018-02-13T09:57:30Z</time>
      </trkpt>
      <trkpt lat="45.93578" lon="4.77563">
        <ele>169</ele>
        <time>2018-02-13T09:57:31Z</time>
      </trkpt>
      <trkpt lat="45.93581" lon="4.7757">
        <ele>170</ele>
        <time>2018-02-13T09:57:32Z</time>
      </trkpt>
      <trkpt lat="45.93583" lon="4.77577">
        <ele>170</ele>
        <time>2018-02-13T09:57:33Z</time>
      </trkpt>
      <trkpt lat="45.93586" lon="4.77584">
        <ele>170</ele>
        <time>2018-02-13T09:57:34Z</time>
      </trkpt>
      <trkpt lat="45.93588" lon="4.7759">
        <ele>170</ele>
        <time>2018-02-13T09:57:35Z</time>
      </trkpt>
      <trkpt lat="45.9359" lon="4.77597">
        <ele>170</ele>
        <time>2018-02-13T09:57:36Z</time>
      </trkpt>
      <trkpt lat="45.93593" lon="4.77604">
        <ele>170</ele>
        <time>2018-02-13T09:57:37Z</time>
      </trkpt>
      <trkpt lat="45.93595" lon="4.77611">
        <ele>170</ele>
        <time>2018-02-13T09:57:38Z</time>
      </trkpt>
      <trkpt lat="45.93597" lon="4.77618">
        <ele>170</ele>
        <time>2018-02-13T09:57:39Z</time>
      </trkpt>
      <trkpt lat="45.936" lon="4.77624">
        <ele>170</ele>
        <time>2018-02-13T09:57:40Z</time>
      </trkpt>
      <trkpt lat="45.93602" lon="4.77629">
        <ele>169</ele>
        <time>2018-02-13T09:57:41Z</time>
      </trkpt>
      <trkpt lat="45.93604" lon="4.77637">
        <ele>169</ele>
        <time>2018-02-13T09:57:42Z</time>
      </trkpt>
      <trkpt lat="45.93606" lon="4.77643">
        <ele>169</ele>
        <time>2018-02-13T09:57:43Z</time>
      </trkpt>
      <trkpt lat="45.9361" lon="4.77649">
        <ele>169</ele>
        <time>2018-02-13T09:57:44Z</time>
      </trkpt>
      <trkpt lat="45.93613" lon="4.77656">
        <ele>169</ele>
        <time>2018-02-13T09:57:45Z</time>
      </trkpt>
      <trkpt lat="45.93615" lon="4.77662">
        <ele>169</ele>
        <time>2018-02-13T09:57:46Z</time>
      </trkpt>
      <trkpt lat="45.93618" lon="4.77668">
        <ele>169</ele>
        <time>2018-02-13T09:57:47Z</time>
      </trkpt>
      <trkpt lat="45.93621" lon="4.77674">
        <ele>169</ele>
        <time>2018-02-13T09:57:48Z</time>
      </trkpt>
      <trkpt lat="45.93624" lon="4.77679">
        <ele>169</ele>
        <time>2018-02-13T09:57:49Z</time>
      </trkpt>
      <trkpt lat="45.93627" lon="4.77685">
        <ele>169</ele>
        <time>2018-02-13T09:57:50Z</time>
      </trkpt>
      <trkpt lat="45.93629" lon="4.77691">
        <ele>169</ele>
        <time>2018-02-13T09:57:51Z</time>
      </trkpt>
      <trkpt lat="45.93632" lon="4.77696">
        <ele>169</ele>
        <time>2018-02-13T09:57:52Z</time>
      </trkpt>
      <trkpt lat="45.93635" lon="4.77702">
        <ele>170</ele>
        <time>2018-02-13T09:57:53Z</time>
      </trkpt>
      <trkpt lat="45.9364" lon="4.77712">
        <ele>170</ele>
        <time>2018-02-13T09:57:55Z</time>
      </trkpt>
      <trkpt lat="45.93643" lon="4.77718">
        <ele>170</ele>
        <time>2018-02-13T09:57:56Z</time>
      </trkpt>
      <trkpt lat="45.93646" lon="4.77722">
        <ele>170</ele>
        <time>2018-02-13T09:57:57Z</time>
      </trkpt>
      <trkpt lat="45.93649" lon="4.77728">
        <ele>170</ele>
        <time>2018-02-13T09:57:58Z</time>
      </trkpt>
      <trkpt lat="45.93655" lon="4.77736">
        <ele>170</ele>
        <time>2018-02-13T09:58:00Z</time>
      </trkpt>
      <trkpt lat="45.93658" lon="4.77739">
        <ele>170</ele>
        <time>2018-02-13T09:58:01Z</time>
      </trkpt>
      <trkpt lat="45.93663" lon="4.77747">
        <ele>171</ele>
        <time>2018-02-13T09:58:03Z</time>
      </trkpt>
      <trkpt lat="45.93665" lon="4.7775">
        <ele>171</ele>
        <time>2018-02-13T09:58:04Z</time>
      </trkpt>
      <trkpt lat="45.9367" lon="4.77758">
        <ele>171</ele>
        <time>2018-02-13T09:58:06Z</time>
      </trkpt>
      <trkpt lat="45.93673" lon="4.77762">
        <ele>170</ele>
        <time>2018-02-13T09:58:07Z</time>
      </trkpt>
      <trkpt lat="45.93678" lon="4.7777">
        <ele>170</ele>
        <time>2018-02-13T09:58:09Z</time>
      </trkpt>
      <trkpt lat="45.9368" lon="4.77774">
        <ele>170</ele>
        <time>2018-02-13T09:58:10Z</time>
      </trkpt>
      <trkpt lat="45.93685" lon="4.77782">
        <ele>170</ele>
        <time>2018-02-13T09:58:12Z</time>
      </trkpt>
      <trkpt lat="45.93688" lon="4.77786">
        <ele>170</ele>
        <time>2018-02-13T09:58:13Z</time>
      </trkpt>
      <trkpt lat="45.93694" lon="4.77794">
        <ele>169</ele>
        <time>2018-02-13T09:58:15Z</time>
      </trkpt>
      <trkpt lat="45.93697" lon="4.77798">
        <ele>169</ele>
        <time>2018-02-13T09:58:16Z</time>
      </trkpt>
      <trkpt lat="45.93703" lon="4.77805">
        <ele>169</ele>
        <time>2018-02-13T09:58:18Z</time>
      </trkpt>
      <trkpt lat="45.93706" lon="4.77809">
        <ele>169</ele>
        <time>2018-02-13T09:58:19Z</time>
      </trkpt>
      <trkpt lat="45.93712" lon="4.77816">
        <ele>169</ele>
        <time>2018-02-13T09:58:21Z</time>
      </trkpt>
      <trkpt lat="45.93714" lon="4.7782">
        <ele>169</ele>
        <time>2018-02-13T09:58:22Z</time>
      </trkpt>
      <trkpt lat="45.93719" lon="4.77827">
        <ele>168</ele>
        <time>2018-02-13T09:58:24Z</time>
      </trkpt>
      <trkpt lat="45.93722" lon="4.77831">
        <ele>168</ele>
        <time>2018-02-13T09:58:25Z</time>
      </trkpt>
      <trkpt lat="45.93726" lon="4.77838">
        <ele>167</ele>
        <time>2018-02-13T09:58:27Z</time>
      </trkpt>
      <trkpt lat="45.93729" lon="4.77842">
        <ele>167</ele>
        <time>2018-02-13T09:58:28Z</time>
      </trkpt>
      <trkpt lat="45.93734" lon="4.77849">
        <ele>167</ele>
        <time>2018-02-13T09:58:30Z</time>
      </trkpt>
      <trkpt lat="45.93737" lon="4.77853">
        <ele>167</ele>
        <time>2018-02-13T09:58:31Z</time>
      </trkpt>
      <trkpt lat="45.93742" lon="4.7786">
        <ele>167</ele>
        <time>2018-02-13T09:58:33Z</time>
      </trkpt>
      <trkpt lat="45.93745" lon="4.77864">
        <ele>167</ele>
        <time>2018-02-13T09:58:34Z</time>
      </trkpt>
      <trkpt lat="45.9375" lon="4.77872">
        <ele>166</ele>
        <time>2018-02-13T09:58:36Z</time>
      </trkpt>
      <trkpt lat="45.93753" lon="4.77876">
        <ele>166</ele>
        <time>2018-02-13T09:58:37Z</time>
      </trkpt>
      <trkpt lat="45.93759" lon="4.77883">
        <ele>166</ele>
        <time>2018-02-13T09:58:39Z</time>
      </trkpt>
      <trkpt lat="45.93762" lon="4.77887">
        <ele>166</ele>
        <time>2018-02-13T09:58:40Z</time>
      </trkpt>
      <trkpt lat="45.93767" lon="4.77894">
        <ele>166</ele>
        <time>2018-02-13T09:58:42Z</time>
      </trkpt>
      <trkpt lat="45.93769" lon="4.77898">
        <ele>166</ele>
        <time>2018-02-13T09:58:43Z</time>
      </trkpt>
      <trkpt lat="45.93775" lon="4.77906">
        <ele>166</ele>
        <time>2018-02-13T09:58:45Z</time>
      </trkpt>
      <trkpt lat="45.93779" lon="4.77911">
        <ele>166</ele>
        <time>2018-02-13T09:58:46Z</time>
      </trkpt>
      <trkpt lat="45.93783" lon="4.77915">
        <ele>166</ele>
        <time>2018-02-13T09:58:47Z</time>
      </trkpt>
      <trkpt lat="45.93786" lon="4.7792">
        <ele>168</ele>
        <time>2018-02-13T09:58:48Z</time>
      </trkpt>
      <trkpt lat="45.93789" lon="4.77925">
        <ele>168</ele>
        <time>2018-02-13T09:58:49Z</time>
      </trkpt>
      <trkpt lat="45.93793" lon="4.77929">
        <ele>168</ele>
        <time>2018-02-13T09:58:50Z</time>
      </trkpt>
      <trkpt lat="45.93796" lon="4.77934">
        <ele>168</ele>
        <time>2018-02-13T09:58:51Z</time>
      </trkpt>
      <trkpt lat="45.938" lon="4.77938">
        <ele>169</ele>
        <time>2018-02-13T09:58:52Z</time>
      </trkpt>
      <trkpt lat="45.93804" lon="4.77942">
        <ele>169</ele>
        <time>2018-02-13T09:58:53Z</time>
      </trkpt>
      <trkpt lat="45.93807" lon="4.77947">
        <ele>169</ele>
        <time>2018-02-13T09:58:54Z</time>
      </trkpt>
      <trkpt lat="45.93811" lon="4.77951">
        <ele>169</ele>
        <time>2018-02-13T09:58:55Z</time>
      </trkpt>
      <trkpt lat="45.93815" lon="4.77956">
        <ele>170</ele>
        <time>2018-02-13T09:58:56Z</time>
      </trkpt>
      <trkpt lat="45.93818" lon="4.77961">
        <ele>170</ele>
        <time>2018-02-13T09:58:57Z</time>
      </trkpt>
      <trkpt lat="45.93821" lon="4.77966">
        <ele>171</ele>
        <time>2018-02-13T09:58:58Z</time>
      </trkpt>
      <trkpt lat="45.93824" lon="4.77971">
        <ele>172</ele>
        <time>2018-02-13T09:58:59Z</time>
      </trkpt>
      <trkpt lat="45.93828" lon="4.77975">
        <ele>172</ele>
        <time>2018-02-13T09:59:00Z</time>
      </trkpt>
      <trkpt lat="45.93832" lon="4.77981">
        <ele>174</ele>
        <time>2018-02-13T09:59:01Z</time>
      </trkpt>
      <trkpt lat="45.93835" lon="4.77986">
        <ele>178</ele>
        <time>2018-02-13T09:59:02Z</time>
      </trkpt>
      <trkpt lat="45.93838" lon="4.77992">
        <ele>179</ele>
        <time>2018-02-13T09:59:03Z</time>
      </trkpt>
      <trkpt lat="45.9384" lon="4.77999">
        <ele>179</ele>
        <time>2018-02-13T09:59:04Z</time>
      </trkpt>
      <trkpt lat="45.93842" lon="4.78007">
        <ele>181</ele>
        <time>2018-02-13T09:59:05Z</time>
      </trkpt>
      <trkpt lat="45.93843" lon="4.78015">
        <ele>181</ele>
        <time>2018-02-13T09:59:06Z</time>
      </trkpt>
      <trkpt lat="45.93844" lon="4.78023">
        <ele>182</ele>
        <time>2018-02-13T09:59:07Z</time>
      </trkpt>
      <trkpt lat="45.93847" lon="4.78029">
        <ele>182</ele>
        <time>2018-02-13T09:59:08Z</time>
      </trkpt>
      <trkpt lat="45.93855" lon="4.78034">
        <ele>183</ele>
        <time>2018-02-13T09:59:10Z</time>
      </trkpt>
      <trkpt lat="45.93859" lon="4.78034">
        <ele>183</ele>
        <time>2018-02-13T09:59:11Z</time>
      </trkpt>
      <trkpt lat="45.93866" lon="4.78034">
        <ele>183</ele>
        <time>2018-02-13T09:59:13Z</time>
      </trkpt>
      <trkpt lat="45.93868" lon="4.78033">
        <ele>183</ele>
        <time>2018-02-13T09:59:14Z</time>
      </trkpt>
      <trkpt lat="45.93875" lon="4.78031">
        <ele>184</ele>
        <time>2018-02-13T09:59:16Z</time>
      </trkpt>
      <trkpt lat="45.93878" lon="4.78028">
        <ele>184</ele>
        <time>2018-02-13T09:59:17Z</time>
      </trkpt>
      <trkpt lat="45.93884" lon="4.78023">
        <ele>184</ele>
        <time>2018-02-13T09:59:20Z</time>
      </trkpt>
      <trkpt lat="45.93886" lon="4.78022">
        <ele>184</ele>
        <time>2018-02-13T09:59:21Z</time>
      </trkpt>
      <trkpt lat="45.93892" lon="4.78014">
        <ele>184</ele>
        <time>2018-02-13T09:59:25Z</time>
      </trkpt>
      <trkpt lat="45.93893" lon="4.78012">
        <ele>184</ele>
        <time>2018-02-13T09:59:26Z</time>
      </trkpt>
      <trkpt lat="45.93899" lon="4.78005">
        <ele>185</ele>
        <time>2018-02-13T09:59:30Z</time>
      </trkpt>
      <trkpt lat="45.93901" lon="4.78003">
        <ele>185</ele>
        <time>2018-02-13T09:59:31Z</time>
      </trkpt>
      <trkpt lat="45.93907" lon="4.77995">
        <ele>184</ele>
        <time>2018-02-13T09:59:35Z</time>
      </trkpt>
      <trkpt lat="45.93908" lon="4.77993">
        <ele>184</ele>
        <time>2018-02-13T09:59:36Z</time>
      </trkpt>
      <trkpt lat="45.93915" lon="4.77987">
        <ele>183</ele>
        <time>2018-02-13T09:59:40Z</time>
      </trkpt>
      <trkpt lat="45.93917" lon="4.77986">
        <ele>188</ele>
        <time>2018-02-13T09:59:41Z</time>
      </trkpt>
      <trkpt lat="45.93924" lon="4.77979">
        <ele>188</ele>
        <time>2018-02-13T09:59:47Z</time>
      </trkpt>
      <trkpt lat="45.93925" lon="4.77979">
        <ele>188</ele>
        <time>2018-02-13T09:59:48Z</time>
      </trkpt>
      <trkpt lat="45.93932" lon="4.77974">
        <ele>189</ele>
        <time>2018-02-13T09:59:54Z</time>
      </trkpt>
      <trkpt lat="45.93934" lon="4.77972">
        <ele>189</ele>
        <time>2018-02-13T09:59:55Z</time>
      </trkpt>
      <trkpt lat="45.93942" lon="4.77967">
        <ele>189</ele>
        <time>2018-02-13T10:00:00Z</time>
      </trkpt>
      <trkpt lat="45.93943" lon="4.77966">
        <ele>189</ele>
        <time>2018-02-13T10:00:01Z</time>
      </trkpt>
      <trkpt lat="45.9395" lon="4.77959">
        <ele>190</ele>
        <time>2018-02-13T10:00:06Z</time>
      </trkpt>
      <trkpt lat="45.93952" lon="4.77958">
        <ele>190</ele>
        <time>2018-02-13T10:00:07Z</time>
      </trkpt>
      <trkpt lat="45.93959" lon="4.77952">
        <ele>190</ele>
        <time>2018-02-13T10:00:11Z</time>
      </trkpt>
      <trkpt lat="45.93961" lon="4.77951">
        <ele>190</ele>
        <time>2018-02-13T10:00:12Z</time>
      </trkpt>
      <trkpt lat="45.93967" lon="4.77945">
        <ele>190</ele>
        <time>2018-02-13T10:00:16Z</time>
      </trkpt>
      <trkpt lat="45.93969" lon="4.77944">
        <ele>191</ele>
        <time>2018-02-13T10:00:17Z</time>
      </trkpt>
      <trkpt lat="45.93977" lon="4.77939">
        <ele>191</ele>
        <time>2018-02-13T10:00:21Z</time>
      </trkpt>
      <trkpt lat="45.93978" lon="4.77938">
        <ele>191</ele>
        <time>2018-02-13T10:00:22Z</time>
      </trkpt>
      <trkpt lat="45.93987" lon="4.77933">
        <ele>192</ele>
        <time>2018-02-13T10:00:27Z</time>
      </trkpt>
      <trkpt lat="45.93988" lon="4.77932">
        <ele>192</ele>
        <time>2018-02-13T10:00:28Z</time>
      </trkpt>
      <trkpt lat="45.93996" lon="4.77929">
        <ele>192</ele>
        <time>2018-02-13T10:00:33Z</time>
      </trkpt>
      <trkpt lat="45.93997" lon="4.77928">
        <ele>193</ele>
        <time>2018-02-13T10:00:34Z</time>
      </trkpt>
      <trkpt lat="45.94005" lon="4.77927">
        <ele>197</ele>
        <time>2018-02-13T10:00:40Z</time>
      </trkpt>
      <trkpt lat="45.94006" lon="4.77927">
        <ele>197</ele>
        <time>2018-02-13T10:00:41Z</time>
      </trkpt>
      <trkpt lat="45.94012" lon="4.77936">
        <ele>198</ele>
        <time>2018-02-13T10:00:46Z</time>
      </trkpt>
      <trkpt lat="45.94014" lon="4.77938">
        <ele>199</ele>
        <time>2018-02-13T10:00:47Z</time>
      </trkpt>
      <trkpt lat="45.94018" lon="4.77948">
        <ele>200</ele>
        <time>2018-02-13T10:00:52Z</time>
      </trkpt>
      <trkpt lat="45.94018" lon="4.77951">
        <ele>200</ele>
        <time>2018-02-13T10:00:53Z</time>
      </trkpt>
      <trkpt lat="45.94017" lon="4.77961">
        <ele>200</ele>
        <time>2018-02-13T10:00:56Z</time>
      </trkpt>
      <trkpt lat="45.94018" lon="4.77964">
        <ele>200</ele>
        <time>2018-02-13T10:00:57Z</time>
      </trkpt>
      <trkpt lat="45.94017" lon="4.77974">
        <ele>200</ele>
        <time>2018-02-13T10:01:00Z</time>
      </trkpt>
      <trkpt lat="45.94017" lon="4.77977">
        <ele>200</ele>
        <time>2018-02-13T10:01:01Z</time>
      </trkpt>
      <trkpt lat="45.94015" lon="4.77988">
        <ele>199</ele>
        <time>2018-02-13T10:01:04Z</time>
      </trkpt>
      <trkpt lat="45.94015" lon="4.77992">
        <ele>199</ele>
        <time>2018-02-13T10:01:05Z</time>
      </trkpt>
      <trkpt lat="45.94013" lon="4.78002">
        <ele>199</ele>
        <time>2018-02-13T10:01:08Z</time>
      </trkpt>
      <trkpt lat="45.94013" lon="4.78005">
        <ele>199</ele>
        <time>2018-02-13T10:01:09Z</time>
      </trkpt>
      <trkpt lat="45.94011" lon="4.78015">
        <ele>200</ele>
        <time>2018-02-13T10:01:12Z</time>
      </trkpt>
      <trkpt lat="45.94011" lon="4.78019">
        <ele>200</ele>
        <time>2018-02-13T10:01:13Z</time>
      </trkpt>
      <trkpt lat="45.94008" lon="4.78029">
        <ele>201</ele>
        <time>2018-02-13T10:01:16Z</time>
      </trkpt>
      <trkpt lat="45.94007" lon="4.78033">
        <ele>201</ele>
        <time>2018-02-13T10:01:17Z</time>
      </trkpt>
      <trkpt lat="45.94004" lon="4.78044">
        <ele>201</ele>
        <time>2018-02-13T10:01:20Z</time>
      </trkpt>
      <trkpt lat="45.94004" lon="4.78048">
        <ele>201</ele>
        <time>2018-02-13T10:01:21Z</time>
      </trkpt>
      <trkpt lat="45.94002" lon="4.7806">
        <ele>201</ele>
        <time>2018-02-13T10:01:24Z</time>
      </trkpt>
      <trkpt lat="45.94002" lon="4.78064">
        <ele>201</ele>
        <time>2018-02-13T10:01:25Z</time>
      </trkpt>
      <trkpt lat="45.94002" lon="4.78072">
        <ele>200</ele>
        <time>2018-02-13T10:01:27Z</time>
      </trkpt>
      <trkpt lat="45.94001" lon="4.78077">
        <ele>200</ele>
        <time>2018-02-13T10:01:28Z</time>
      </trkpt>
      <trkpt lat="45.93999" lon="4.78087">
        <ele>199</ele>
        <time>2018-02-13T10:01:31Z</time>
      </trkpt>
      <trkpt lat="45.93997" lon="4.78091">
        <ele>198</ele>
        <time>2018-02-13T10:01:32Z</time>
      </trkpt>
      <trkpt lat="45.93995" lon="4.78103">
        <ele>197</ele>
        <time>2018-02-13T10:01:35Z</time>
      </trkpt>
      <trkpt lat="45.93995" lon="4.78107">
        <ele>197</ele>
        <time>2018-02-13T10:01:36Z</time>
      </trkpt>
      <trkpt lat="45.93994" lon="4.78117">
        <ele>197</ele>
        <time>2018-02-13T10:01:38Z</time>
      </trkpt>
      <trkpt lat="45.93993" lon="4.78121">
        <ele>197</ele>
        <time>2018-02-13T10:01:39Z</time>
      </trkpt>
      <trkpt lat="45.93991" lon="4.78132">
        <ele>197</ele>
        <time>2018-02-13T10:01:41Z</time>
      </trkpt>
      <trkpt lat="45.93991" lon="4.78137">
        <ele>198</ele>
        <time>2018-02-13T10:01:42Z</time>
      </trkpt>
      <trkpt lat="45.9399" lon="4.78146">
        <ele>198</ele>
        <time>2018-02-13T10:01:44Z</time>
      </trkpt>
      <trkpt lat="45.9399" lon="4.78151">
        <ele>198</ele>
        <time>2018-02-13T10:01:45Z</time>
      </trkpt>
      <trkpt lat="45.93994" lon="4.78161">
        <ele>200</ele>
        <time>2018-02-13T10:01:48Z</time>
      </trkpt>
      <trkpt lat="45.93997" lon="4.78164">
        <ele>200</ele>
        <time>2018-02-13T10:01:49Z</time>
      </trkpt>
      <trkpt lat="45.94004" lon="4.78169">
        <ele>202</ele>
        <time>2018-02-13T10:01:52Z</time>
      </trkpt>
      <trkpt lat="45.94006" lon="4.7817">
        <ele>202</ele>
        <time>2018-02-13T10:01:53Z</time>
      </trkpt>
      <trkpt lat="45.94013" lon="4.78176">
        <ele>203</ele>
        <time>2018-02-13T10:01:58Z</time>
      </trkpt>
      <trkpt lat="45.94015" lon="4.78176">
        <ele>203</ele>
        <time>2018-02-13T10:01:59Z</time>
      </trkpt>
      <trkpt lat="45.94023" lon="4.78178">
        <ele>204</ele>
        <time>2018-02-13T10:02:04Z</time>
      </trkpt>
      <trkpt lat="45.94025" lon="4.78179">
        <ele>204</ele>
        <time>2018-02-13T10:02:05Z</time>
      </trkpt>
      <trkpt lat="45.94032" lon="4.78184">
        <ele>204</ele>
        <time>2018-02-13T10:02:09Z</time>
      </trkpt>
      <trkpt lat="45.94034" lon="4.78185">
        <ele>205</ele>
        <time>2018-02-13T10:02:10Z</time>
      </trkpt>
      <trkpt lat="45.9404" lon="4.78189">
        <ele>205</ele>
        <time>2018-02-13T10:02:13Z</time>
      </trkpt>
      <trkpt lat="45.94042" lon="4.78191">
        <ele>205</ele>
        <time>2018-02-13T10:02:14Z</time>
      </trkpt>
      <trkpt lat="45.94049" lon="4.78196">
        <ele>205</ele>
        <time>2018-02-13T10:02:17Z</time>
      </trkpt>
      <trkpt lat="45.94051" lon="4.78198">
        <ele>205</ele>
        <time>2018-02-13T10:02:18Z</time>
      </trkpt>
      <trkpt lat="45.94057" lon="4.78204">
        <ele>206</ele>
        <time>2018-02-13T10:02:21Z</time>
      </trkpt>
      <trkpt lat="45.94059" lon="4.78206">
        <ele>206</ele>
        <time>2018-02-13T10:02:22Z</time>
      </trkpt>
      <trkpt lat="45.94066" lon="4.78212">
        <ele>206</ele>
        <time>2018-02-13T10:02:25Z</time>
      </trkpt>
      <trkpt lat="45.94068" lon="4.78214">
        <ele>206</ele>
        <time>2018-02-13T10:02:26Z</time>
      </trkpt>
      <trkpt lat="45.94075" lon="4.78219">
        <ele>206</ele>
        <time>2018-02-13T10:02:29Z</time>
      </trkpt>
      <trkpt lat="45.94077" lon="4.7822">
        <ele>206</ele>
        <time>2018-02-13T10:02:30Z</time>
      </trkpt>
      <trkpt lat="45.94084" lon="4.78224">
        <ele>212</ele>
        <time>2018-02-13T10:02:33Z</time>
      </trkpt>
      <trkpt lat="45.94086" lon="4.78226">
        <ele>212</ele>
        <time>2018-02-13T10:02:34Z</time>
      </trkpt>
      <trkpt lat="45.94093" lon="4.7823">
        <ele>212</ele>
        <time>2018-02-13T10:02:37Z</time>
      </trkpt>
      <trkpt lat="45.94095" lon="4.78231">
        <ele>212</ele>
        <time>2018-02-13T10:02:38Z</time>
      </trkpt>
      <trkpt lat="45.94101" lon="4.78236">
        <ele>212</ele>
        <time>2018-02-13T10:02:41Z</time>
      </trkpt>
      <trkpt lat="45.94103" lon="4.78237">
        <ele>213</ele>
        <time>2018-02-13T10:02:42Z</time>
      </trkpt>
      <trkpt lat="45.9411" lon="4.78242">
        <ele>213</ele>
        <time>2018-02-13T10:02:45Z</time>
      </trkpt>
      <trkpt lat="45.94112" lon="4.78243">
        <ele>213</ele>
        <time>2018-02-13T10:02:46Z</time>
      </trkpt>
      <trkpt lat="45.94118" lon="4.78247">
        <ele>214</ele>
        <time>2018-02-13T10:02:49Z</time>
      </trkpt>
      <trkpt lat="45.94121" lon="4.78249">
        <ele>214</ele>
        <time>2018-02-13T10:02:50Z</time>
      </trkpt>
      <trkpt lat="45.94128" lon="4.78253">
        <ele>214</ele>
        <time>2018-02-13T10:02:53Z</time>
      </trkpt>
      <trkpt lat="45.9413" lon="4.78255">
        <ele>214</ele>
        <time>2018-02-13T10:02:54Z</time>
      </trkpt>
      <trkpt lat="45.94138" lon="4.7826">
        <ele>215</ele>
        <time>2018-02-13T10:02:57Z</time>
      </trkpt>
      <trkpt lat="45.9414" lon="4.78261">
        <ele>215</ele>
        <time>2018-02-13T10:02:58Z</time>
      </trkpt>
      <trkpt lat="45.94147" lon="4.78266">
        <ele>216</ele>
        <time>2018-02-13T10:03:01Z</time>
      </trkpt>
      <trkpt lat="45.94149" lon="4.78267">
        <ele>216</ele>
        <time>2018-02-13T10:03:02Z</time>
      </trkpt>
      <trkpt lat="45.94156" lon="4.78272">
        <ele>216</ele>
        <time>2018-02-13T10:03:05Z</time>
      </trkpt>
      <trkpt lat="45.94159" lon="4.78275">
        <ele>216</ele>
        <time>2018-02-13T10:03:06Z</time>
      </trkpt>
      <trkpt lat="45.94166" lon="4.78279">
        <ele>216</ele>
        <time>2018-02-13T10:03:10Z</time>
      </trkpt>
      <trkpt lat="45.94168" lon="4.78281">
        <ele>220</ele>
        <time>2018-02-13T10:03:11Z</time>
      </trkpt>
      <trkpt lat="45.94175" lon="4.78285">
        <ele>221</ele>
        <time>2018-02-13T10:03:14Z</time>
      </trkpt>
      <trkpt lat="45.94178" lon="4.78286">
        <ele>221</ele>
        <time>2018-02-13T10:03:15Z</time>
      </trkpt>
      <trkpt lat="45.94185" lon="4.78291">
        <ele>221</ele>
        <time>2018-02-13T10:03:18Z</time>
      </trkpt>
      <trkpt lat="45.94187" lon="4.78292">
        <ele>221</ele>
        <time>2018-02-13T10:03:19Z</time>
      </trkpt>
      <trkpt lat="45.94195" lon="4.78295">
        <ele>221</ele>
        <time>2018-02-13T10:03:22Z</time>
      </trkpt>
      <trkpt lat="45.94197" lon="4.78295">
        <ele>221</ele>
        <time>2018-02-13T10:03:23Z</time>
      </trkpt>
      <trkpt lat="45.94205" lon="4.78296">
        <ele>221</ele>
        <time>2018-02-13T10:03:26Z</time>
      </trkpt>
      <trkpt lat="45.94207" lon="4.78297">
        <ele>221</ele>
        <time>2018-02-13T10:03:27Z</time>
      </trkpt>
      <trkpt lat="45.94215" lon="4.78298">
        <ele>222</ele>
        <time>2018-02-13T10:03:30Z</time>
      </trkpt>
      <trkpt lat="45.94218" lon="4.78299">
        <ele>222</ele>
        <time>2018-02-13T10:03:31Z</time>
      </trkpt>
      <trkpt lat="45.94227" lon="4.783">
        <ele>222</ele>
        <time>2018-02-13T10:03:34Z</time>
      </trkpt>
      <trkpt lat="45.9423" lon="4.78301">
        <ele>222</ele>
        <time>2018-02-13T10:03:35Z</time>
      </trkpt>
      <trkpt lat="45.94238" lon="4.78303">
        <ele>222</ele>
        <time>2018-02-13T10:03:38Z</time>
      </trkpt>
      <trkpt lat="45.9424" lon="4.78304">
        <ele>222</ele>
        <time>2018-02-13T10:03:39Z</time>
      </trkpt>
      <trkpt lat="45.94247" lon="4.78306">
        <ele>222</ele>
        <time>2018-02-13T10:03:42Z</time>
      </trkpt>
      <trkpt lat="45.94249" lon="4.78308">
        <ele>222</ele>
        <time>2018-02-13T10:03:43Z</time>
      </trkpt>
      <trkpt lat="45.94256" lon="4.78311">
        <ele>226</ele>
        <time>2018-02-13T10:03:46Z</time>
      </trkpt>
      <trkpt lat="45.94258" lon="4.78312">
        <ele>226</ele>
        <time>2018-02-13T10:03:47Z</time>
      </trkpt>
      <trkpt lat="45.94265" lon="4.78315">
        <ele>227</ele>
        <time>2018-02-13T10:03:50Z</time>
      </trkpt>
      <trkpt lat="45.94267" lon="4.78317">
        <ele>227</ele>
        <time>2018-02-13T10:03:51Z</time>
      </trkpt>
      <trkpt lat="45.94274" lon="4.78323">
        <ele>227</ele>
        <time>2018-02-13T10:03:54Z</time>
      </trkpt>
      <trkpt lat="45.94276" lon="4.78325">
        <ele>227</ele>
        <time>2018-02-13T10:03:55Z</time>
      </trkpt>
      <trkpt lat="45.94283" lon="4.7833">
        <ele>228</ele>
        <time>2018-02-13T10:03:58Z</time>
      </trkpt>
      <trkpt lat="45.94285" lon="4.78332">
        <ele>228</ele>
        <time>2018-02-13T10:03:59Z</time>
      </trkpt>
      <trkpt lat="45.9429" lon="4.78341">
        <ele>228</ele>
        <time>2018-02-13T10:04:02Z</time>
      </trkpt>
      <trkpt lat="45.94292" lon="4.78344">
        <ele>228</ele>
        <time>2018-02-13T10:04:03Z</time>
      </trkpt>
      <trkpt lat="45.94298" lon="4.78352">
        <ele>229</ele>
        <time>2018-02-13T10:04:06Z</time>
      </trkpt>
      <trkpt lat="45.943" lon="4.78355">
        <ele>229</ele>
        <time>2018-02-13T10:04:07Z</time>
      </trkpt>
      <trkpt lat="45.94305" lon="4.78363">
        <ele>229</ele>
        <time>2018-02-13T10:04:10Z</time>
      </trkpt>
      <trkpt lat="45.94306" lon="4.78366">
        <ele>229</ele>
        <time>2018-02-13T10:04:11Z</time>
      </trkpt>
      <trkpt lat="45.9431" lon="4.78375">
        <ele>229</ele>
        <time>2018-02-13T10:04:14Z</time>
      </trkpt>
      <trkpt lat="45.94312" lon="4.78378">
        <ele>230</ele>
        <time>2018-02-13T10:04:15Z</time>
      </trkpt>
      <trkpt lat="45.94316" lon="4.78385">
        <ele>230</ele>
        <time>2018-02-13T10:04:18Z</time>
      </trkpt>
      <trkpt lat="45.94317" lon="4.78388">
        <ele>230</ele>
        <time>2018-02-13T10:04:19Z</time>
      </trkpt>
      <trkpt lat="45.94322" lon="4.78396">
        <ele>230</ele>
        <time>2018-02-13T10:04:22Z</time>
      </trkpt>
      <trkpt lat="45.94323" lon="4.78399">
        <ele>230</ele>
        <time>2018-02-13T10:04:23Z</time>
      </trkpt>
      <trkpt lat="45.94327" lon="4.78408">
        <ele>229</ele>
        <time>2018-02-13T10:04:26Z</time>
      </trkpt>
      <trkpt lat="45.94329" lon="4.78411">
        <ele>229</ele>
        <time>2018-02-13T10:04:27Z</time>
      </trkpt>
      <trkpt lat="45.94333" lon="4.78419">
        <ele>230</ele>
        <time>2018-02-13T10:04:30Z</time>
      </trkpt>
      <trkpt lat="45.94335" lon="4.78422">
        <ele>231</ele>
        <time>2018-02-13T10:04:31Z</time>
      </trkpt>
      <trkpt lat="45.9434" lon="4.78432">
        <ele>233</ele>
        <time>2018-02-13T10:04:35Z</time>
      </trkpt>
      <trkpt lat="45.94342" lon="4.78434">
        <ele>233</ele>
        <time>2018-02-13T10:04:36Z</time>
      </trkpt>
      <trkpt lat="45.94346" lon="4.78442">
        <ele>234</ele>
        <time>2018-02-13T10:04:39Z</time>
      </trkpt>
      <trkpt lat="45.94348" lon="4.78445">
        <ele>234</ele>
        <time>2018-02-13T10:04:40Z</time>
      </trkpt>
      <trkpt lat="45.94353" lon="4.78452">
        <ele>235</ele>
        <time>2018-02-13T10:04:43Z</time>
      </trkpt>
      <trkpt lat="45.94355" lon="4.78454">
        <ele>235</ele>
        <time>2018-02-13T10:04:44Z</time>
      </trkpt>
      <trkpt lat="45.94361" lon="4.78462">
        <ele>236</ele>
        <time>2018-02-13T10:04:48Z</time>
      </trkpt>
      <trkpt lat="45.94363" lon="4.78464">
        <ele>236</ele>
        <time>2018-02-13T10:04:49Z</time>
      </trkpt>
      <trkpt lat="45.94367" lon="4.78472">
        <ele>236</ele>
        <time>2018-02-13T10:04:52Z</time>
      </trkpt>
      <trkpt lat="45.94369" lon="4.78474">
        <ele>236</ele>
        <time>2018-02-13T10:04:53Z</time>
      </trkpt>
      <trkpt lat="45.94374" lon="4.78482">
        <ele>236</ele>
        <time>2018-02-13T10:04:56Z</time>
      </trkpt>
      <trkpt lat="45.94376" lon="4.78485">
        <ele>236</ele>
        <time>2018-02-13T10:04:57Z</time>
      </trkpt>
      <trkpt lat="45.94382" lon="4.78491">
        <ele>236</ele>
        <time>2018-02-13T10:05:00Z</time>
      </trkpt>
      <trkpt lat="45.94384" lon="4.78493">
        <ele>236</ele>
        <time>2018-02-13T10:05:01Z</time>
      </trkpt>
      <trkpt lat="45.9439" lon="4.785">
        <ele>235</ele>
        <time>2018-02-13T10:05:04Z</time>
      </trkpt>
      <trkpt lat="45.94391" lon="4.78502">
        <ele>237</ele>
        <time>2018-02-13T10:05:05Z</time>
      </trkpt>
      <trkpt lat="45.94396" lon="4.7851">
        <ele>237</ele>
        <time>2018-02-13T10:05:08Z</time>
      </trkpt>
      <trkpt lat="45.94398" lon="4.78512">
        <ele>237</ele>
        <time>2018-02-13T10:05:09Z</time>
      </trkpt>
      <trkpt lat="45.94403" lon="4.78518">
        <ele>237</ele>
        <time>2018-02-13T10:05:12Z</time>
      </trkpt>
      <trkpt lat="45.94406" lon="4.7852">
        <ele>237</ele>
        <time>2018-02-13T10:05:13Z</time>
      </trkpt>
      <trkpt lat="45.94412" lon="4.78525">
        <ele>237</ele>
        <time>2018-02-13T10:05:16Z</time>
      </trkpt>
      <trkpt lat="45.94414" lon="4.78527">
        <ele>237</ele>
        <time>2018-02-13T10:05:17Z</time>
      </trkpt>
      <trkpt lat="45.94419" lon="4.78536">
        <ele>238</ele>
        <time>2018-02-13T10:05:20Z</time>
      </trkpt>
      <trkpt lat="45.94421" lon="4.7854">
        <ele>238</ele>
        <time>2018-02-13T10:05:21Z</time>
      </trkpt>
      <trkpt lat="45.94425" lon="4.7855">
        <ele>238</ele>
        <time>2018-02-13T10:05:24Z</time>
      </trkpt>
      <trkpt lat="45.94427" lon="4.78553">
        <ele>238</ele>
        <time>2018-02-13T10:05:25Z</time>
      </trkpt>
      <trkpt lat="45.94432" lon="4.78562">
        <ele>238</ele>
        <time>2018-02-13T10:05:28Z</time>
      </trkpt>
      <trkpt lat="45.94434" lon="4.78564">
        <ele>239</ele>
        <time>2018-02-13T10:05:29Z</time>
      </trkpt>
      <trkpt lat="45.9444" lon="4.78572">
        <ele>239</ele>
        <time>2018-02-13T10:05:32Z</time>
      </trkpt>
      <trkpt lat="45.94442" lon="4.78575">
        <ele>239</ele>
        <time>2018-02-13T10:05:33Z</time>
      </trkpt>
      <trkpt lat="45.94448" lon="4.78584">
        <ele>240</ele>
        <time>2018-02-13T10:05:36Z</time>
      </trkpt>
      <trkpt lat="45.94449" lon="4.78587">
        <ele>240</ele>
        <time>2018-02-13T10:05:37Z</time>
      </trkpt>
      <trkpt lat="45.94453" lon="4.78597">
        <ele>240</ele>
        <time>2018-02-13T10:05:40Z</time>
      </trkpt>
      <trkpt lat="45.94455" lon="4.786">
        <ele>240</ele>
        <time>2018-02-13T10:05:41Z</time>
      </trkpt>
      <trkpt lat="45.9446" lon="4.78608">
        <ele>241</ele>
        <time>2018-02-13T10:05:44Z</time>
      </trkpt>
      <trkpt lat="45.94461" lon="4.78611">
        <ele>241</ele>
        <time>2018-02-13T10:05:45Z</time>
      </trkpt>
      <trkpt lat="45.94463" lon="4.78622">
        <ele>241</ele>
        <time>2018-02-13T10:05:48Z</time>
      </trkpt>
      <trkpt lat="45.94464" lon="4.78625">
        <ele>241</ele>
        <time>2018-02-13T10:05:49Z</time>
      </trkpt>
      <trkpt lat="45.94466" lon="4.78634">
        <ele>241</ele>
        <time>2018-02-13T10:05:52Z</time>
      </trkpt>
      <trkpt lat="45.94467" lon="4.78638">
        <ele>241</ele>
        <time>2018-02-13T10:05:53Z</time>
      </trkpt>
      <trkpt lat="45.94468" lon="4.7865">
        <ele>241</ele>
        <time>2018-02-13T10:05:57Z</time>
      </trkpt>
      <trkpt lat="45.94469" lon="4.78653">
        <ele>241</ele>
        <time>2018-02-13T10:05:58Z</time>
      </trkpt>
      <trkpt lat="45.94471" lon="4.78664">
        <ele>241</ele>
        <time>2018-02-13T10:06:02Z</time>
      </trkpt>
      <trkpt lat="45.94471" lon="4.78667">
        <ele>241</ele>
        <time>2018-02-13T10:06:03Z</time>
      </trkpt>
      <trkpt lat="45.94472" lon="4.78679">
        <ele>244</ele>
        <time>2018-02-13T10:06:08Z</time>
      </trkpt>
      <trkpt lat="45.94472" lon="4.78682">
        <ele>244</ele>
        <time>2018-02-13T10:06:09Z</time>
      </trkpt>
      <trkpt lat="45.94474" lon="4.78693">
        <ele>244</ele>
        <time>2018-02-13T10:06:13Z</time>
      </trkpt>
      <trkpt lat="45.94475" lon="4.78696">
        <ele>244</ele>
        <time>2018-02-13T10:06:14Z</time>
      </trkpt>
      <trkpt lat="45.94478" lon="4.78705">
        <ele>245</ele>
        <time>2018-02-13T10:06:18Z</time>
      </trkpt>
      <trkpt lat="45.94479" lon="4.78708">
        <ele>245</ele>
        <time>2018-02-13T10:06:19Z</time>
      </trkpt>
      <trkpt lat="45.94481" lon="4.78718">
        <ele>245</ele>
        <time>2018-02-13T10:06:23Z</time>
      </trkpt>
      <trkpt lat="45.94482" lon="4.78721">
        <ele>245</ele>
        <time>2018-02-13T10:06:24Z</time>
      </trkpt>
      <trkpt lat="45.94483" lon="4.7873">
        <ele>246</ele>
        <time>2018-02-13T10:06:28Z</time>
      </trkpt>
      <trkpt lat="45.94483" lon="4.78733">
        <ele>246</ele>
        <time>2018-02-13T10:06:29Z</time>
      </trkpt>
      <trkpt lat="45.94484" lon="4.78744">
        <ele>246</ele>
        <time>2018-02-13T10:06:32Z</time>
      </trkpt>
      <trkpt lat="45.94485" lon="4.78746">
        <ele>246</ele>
        <time>2018-02-13T10:06:33Z</time>
      </trkpt>
      <trkpt lat="45.94486" lon="4.78758">
        <ele>249</ele>
        <time>2018-02-13T10:06:37Z</time>
      </trkpt>
      <trkpt lat="45.94487" lon="4.78761">
        <ele>249</ele>
        <time>2018-02-13T10:06:38Z</time>
      </trkpt>
      <trkpt lat="45.94482" lon="4.78771">
        <ele>249</ele>
        <time>2018-02-13T10:06:44Z</time>
      </trkpt>
      <trkpt lat="45.9448" lon="4.78771">
        <ele>250</ele>
        <time>2018-02-13T10:06:45Z</time>
      </trkpt>
      <trkpt lat="45.94473" lon="4.78776">
        <ele>250</ele>
        <time>2018-02-13T10:06:50Z</time>
      </trkpt>
      <trkpt lat="45.94471" lon="4.78777">
        <ele>250</ele>
        <time>2018-02-13T10:06:51Z</time>
      </trkpt>
      <trkpt lat="45.94465" lon="4.78786">
        <ele>250</ele>
        <time>2018-02-13T10:06:56Z</time>
      </trkpt>
      <trkpt lat="45.94465" lon="4.78788">
        <ele>250</ele>
        <time>2018-02-13T10:06:57Z</time>
      </trkpt>
      <trkpt lat="45.94462" lon="4.78798">
        <ele>251</ele>
        <time>2018-02-13T10:07:02Z</time>
      </trkpt>
      <trkpt lat="45.94461" lon="4.78801">
        <ele>251</ele>
        <time>2018-02-13T10:07:03Z</time>
      </trkpt>
      <trkpt lat="45.9446" lon="4.78811">
        <ele>251</ele>
        <time>2018-02-13T10:07:08Z</time>
      </trkpt>
      <trkpt lat="45.9446" lon="4.78814">
        <ele>251</ele>
        <time>2018-02-13T10:07:09Z</time>
      </trkpt>
      <trkpt lat="45.94457" lon="4.78826">
        <ele>251</ele>
        <time>2018-02-13T10:07:16Z</time>
      </trkpt>
      <trkpt lat="45.94457" lon="4.78828">
        <ele>251</ele>
        <time>2018-02-13T10:07:17Z</time>
      </trkpt>
      <trkpt lat="45.94457" lon="4.78839">
        <ele>253</ele>
        <time>2018-02-13T10:07:21Z</time>
      </trkpt>
      <trkpt lat="45.94456" lon="4.78841">
        <ele>253</ele>
        <time>2018-02-13T10:07:22Z</time>
      </trkpt>
      <trkpt lat="45.94453" lon="4.78853">
        <ele>253</ele>
        <time>2018-02-13T10:07:27Z</time>
      </trkpt>
      <trkpt lat="45.94452" lon="4.78855">
        <ele>253</ele>
        <time>2018-02-13T10:07:28Z</time>
      </trkpt>
      <trkpt lat="45.94451" lon="4.78867">
        <ele>253</ele>
        <time>2018-02-13T10:07:33Z</time>
      </trkpt>
      <trkpt lat="45.94451" lon="4.78869">
        <ele>253</ele>
        <time>2018-02-13T10:07:34Z</time>
      </trkpt>
      <trkpt lat="45.94453" lon="4.78881">
        <ele>253</ele>
        <time>2018-02-13T10:07:38Z</time>
      </trkpt>
      <trkpt lat="45.94453" lon="4.78884">
        <ele>253</ele>
        <time>2018-02-13T10:07:39Z</time>
      </trkpt>
      <trkpt lat="45.94456" lon="4.78894">
        <ele>253</ele>
        <time>2018-02-13T10:07:43Z</time>
      </trkpt>
      <trkpt lat="45.94456" lon="4.78896">
        <ele>253</ele>
        <time>2018-02-13T10:07:44Z</time>
      </trkpt>
      <trkpt lat="45.94459" lon="4.78907">
        <ele>253</ele>
        <time>2018-02-13T10:07:48Z</time>
      </trkpt>
      <trkpt lat="45.94459" lon="4.78909">
        <ele>253</ele>
        <time>2018-02-13T10:07:49Z</time>
      </trkpt>
      <trkpt lat="45.94461" lon="4.78919">
        <ele>254</ele>
        <time>2018-02-13T10:07:53Z</time>
      </trkpt>
      <trkpt lat="45.94462" lon="4.78922">
        <ele>254</ele>
        <time>2018-02-13T10:07:54Z</time>
      </trkpt>
      <trkpt lat="45.94465" lon="4.78933">
        <ele>254</ele>
        <time>2018-02-13T10:07:58Z</time>
      </trkpt>
      <trkpt lat="45.94466" lon="4.78935">
        <ele>254</ele>
        <time>2018-02-13T10:07:59Z</time>
      </trkpt>
      <trkpt lat="45.94471" lon="4.78946">
        <ele>254</ele>
        <time>2018-02-13T10:08:04Z</time>
      </trkpt>
      <trkpt lat="45.94472" lon="4.78948">
        <ele>254</ele>
        <time>2018-02-13T10:08:05Z</time>
      </trkpt>
      <trkpt lat="45.94476" lon="4.78957">
        <ele>254</ele>
        <time>2018-02-13T10:08:10Z</time>
      </trkpt>
      <trkpt lat="45.94477" lon="4.78959">
        <ele>254</ele>
        <time>2018-02-13T10:08:11Z</time>
      </trkpt>
      <trkpt lat="45.9448" lon="4.7897">
        <ele>254</ele>
        <time>2018-02-13T10:08:16Z</time>
      </trkpt>
      <trkpt lat="45.94481" lon="4.78973">
        <ele>254</ele>
        <time>2018-02-13T10:08:17Z</time>
      </trkpt>
      <trkpt lat="45.94486" lon="4.78984">
        <ele>254</ele>
        <time>2018-02-13T10:08:22Z</time>
      </trkpt>
      <trkpt lat="45.94486" lon="4.78986">
        <ele>254</ele>
        <time>2018-02-13T10:08:23Z</time>
      </trkpt>
      <trkpt lat="45.9449" lon="4.78995">
        <ele>254</ele>
        <time>2018-02-13T10:08:27Z</time>
      </trkpt>
      <trkpt lat="45.94491" lon="4.78998">
        <ele>254</ele>
        <time>2018-02-13T10:08:28Z</time>
      </trkpt>
      <trkpt lat="45.94496" lon="4.79008">
        <ele>254</ele>
        <time>2018-02-13T10:08:32Z</time>
      </trkpt>
      <trkpt lat="45.94497" lon="4.7901">
        <ele>254</ele>
        <time>2018-02-13T10:08:33Z</time>
      </trkpt>
      <trkpt lat="45.94502" lon="4.79021">
        <ele>255</ele>
        <time>2018-02-13T10:08:37Z</time>
      </trkpt>
      <trkpt lat="45.94503" lon="4.79023">
        <ele>255</ele>
        <time>2018-02-13T10:08:38Z</time>
      </trkpt>
      <trkpt lat="45.94509" lon="4.79032">
        <ele>255</ele>
        <time>2018-02-13T10:08:42Z</time>
      </trkpt>
      <trkpt lat="45.9451" lon="4.79035">
        <ele>255</ele>
        <time>2018-02-13T10:08:43Z</time>
      </trkpt>
      <trkpt lat="45.94514" lon="4.79043">
        <ele>255</ele>
        <time>2018-02-13T10:08:46Z</time>
      </trkpt>
      <trkpt lat="45.94515" lon="4.79046">
        <ele>255</ele>
        <time>2018-02-13T10:08:47Z</time>
      </trkpt>
      <trkpt lat="45.9452" lon="4.79056">
        <ele>255</ele>
        <time>2018-02-13T10:08:50Z</time>
      </trkpt>
      <trkpt lat="45.94522" lon="4.7906">
        <ele>255</ele>
        <time>2018-02-13T10:08:51Z</time>
      </trkpt>
      <trkpt lat="45.94527" lon="4.79071">
        <ele>255</ele>
        <time>2018-02-13T10:08:54Z</time>
      </trkpt>
      <trkpt lat="45.94529" lon="4.79074">
        <ele>255</ele>
        <time>2018-02-13T10:08:55Z</time>
      </trkpt>
      <trkpt lat="45.94534" lon="4.79084">
        <ele>256</ele>
        <time>2018-02-13T10:08:58Z</time>
      </trkpt>
      <trkpt lat="45.94536" lon="4.79088">
        <ele>256</ele>
        <time>2018-02-13T10:08:59Z</time>
      </trkpt>
      <trkpt lat="45.94541" lon="4.79097">
        <ele>256</ele>
        <time>2018-02-13T10:09:01Z</time>
      </trkpt>
      <trkpt lat="45.94543" lon="4.79101">
        <ele>256</ele>
        <time>2018-02-13T10:09:02Z</time>
      </trkpt>
      <trkpt lat="45.94547" lon="4.79109">
        <ele>256</ele>
        <time>2018-02-13T10:09:04Z</time>
      </trkpt>
      <trkpt lat="45.94549" lon="4.79113">
        <ele>256</ele>
        <time>2018-02-13T10:09:05Z</time>
      </trkpt>
      <trkpt lat="45.94553" lon="4.79123">
        <ele>257</ele>
        <time>2018-02-13T10:09:07Z</time>
      </trkpt>
      <trkpt lat="45.94555" lon="4.79127">
        <ele>257</ele>
        <time>2018-02-13T10:09:08Z</time>
      </trkpt>
      <trkpt lat="45.9456" lon="4.79136">
        <ele>257</ele>
        <time>2018-02-13T10:09:10Z</time>
      </trkpt>
      <trkpt lat="45.94561" lon="4.7914">
        <ele>257</ele>
        <time>2018-02-13T10:09:11Z</time>
      </trkpt>
      <trkpt lat="45.94565" lon="4.79149">
        <ele>257</ele>
        <time>2018-02-13T10:09:13Z</time>
      </trkpt>
      <trkpt lat="45.94566" lon="4.79154">
        <ele>257</ele>
        <time>2018-02-13T10:09:14Z</time>
      </trkpt>
      <trkpt lat="45.94573" lon="4.79162">
        <ele>258</ele>
        <time>2018-02-13T10:09:16Z</time>
      </trkpt>
      <trkpt lat="45.94573" lon="4.79166">
        <ele>258</ele>
        <time>2018-02-13T10:09:17Z</time>
      </trkpt>
      <trkpt lat="45.94577" lon="4.79175">
        <ele>258</ele>
        <time>2018-02-13T10:09:19Z</time>
      </trkpt>
      <trkpt lat="45.94579" lon="4.79179">
        <ele>257</ele>
        <time>2018-02-13T10:09:20Z</time>
      </trkpt>
      <trkpt lat="45.9458" lon="4.79188">
        <ele>257</ele>
        <time>2018-02-13T10:09:22Z</time>
      </trkpt>
      <trkpt lat="45.94582" lon="4.79194">
        <ele>257</ele>
        <time>2018-02-13T10:09:23Z</time>
      </trkpt>
      <trkpt lat="45.94587" lon="4.79202">
        <ele>257</ele>
        <time>2018-02-13T10:09:25Z</time>
      </trkpt>
      <trkpt lat="45.94589" lon="4.79206">
        <ele>257</ele>
        <time>2018-02-13T10:09:26Z</time>
      </trkpt>
      <trkpt lat="45.94594" lon="4.79214">
        <ele>257</ele>
        <time>2018-02-13T10:09:28Z</time>
      </trkpt>
      <trkpt lat="45.94597" lon="4.79218">
        <ele>257</ele>
        <time>2018-02-13T10:09:29Z</time>
      </trkpt>
      <trkpt lat="45.94601" lon="4.79226">
        <ele>256</ele>
        <time>2018-02-13T10:09:31Z</time>
      </trkpt>
      <trkpt lat="45.94603" lon="4.79229">
        <ele>256</ele>
        <time>2018-02-13T10:09:32Z</time>
      </trkpt>
      <trkpt lat="45.94608" lon="4.79237">
        <ele>256</ele>
        <time>2018-02-13T10:09:34Z</time>
      </trkpt>
      <trkpt lat="45.94609" lon="4.79241">
        <ele>256</ele>
        <time>2018-02-13T10:09:35Z</time>
      </trkpt>
      <trkpt lat="45.94614" lon="4.79249">
        <ele>256</ele>
        <time>2018-02-13T10:09:37Z</time>
      </trkpt>
      <trkpt lat="45.94616" lon="4.79254">
        <ele>255</ele>
        <time>2018-02-13T10:09:38Z</time>
      </trkpt>
      <trkpt lat="45.9462" lon="4.79262">
        <ele>255</ele>
        <time>2018-02-13T10:09:40Z</time>
      </trkpt>
      <trkpt lat="45.94623" lon="4.79266">
        <ele>255</ele>
        <time>2018-02-13T10:09:41Z</time>
      </trkpt>
      <trkpt lat="45.94629" lon="4.79273">
        <ele>254</ele>
        <time>2018-02-13T10:09:43Z</time>
      </trkpt>
      <trkpt lat="45.94631" lon="4.79277">
        <ele>254</ele>
        <time>2018-02-13T10:09:44Z</time>
      </trkpt>
      <trkpt lat="45.94636" lon="4.79286">
        <ele>254</ele>
        <time>2018-02-13T10:09:46Z</time>
      </trkpt>
      <trkpt lat="45.94638" lon="4.7929">
        <ele>254</ele>
        <time>2018-02-13T10:09:47Z</time>
      </trkpt>
      <trkpt lat="45.94644" lon="4.79299">
        <ele>254</ele>
        <time>2018-02-13T10:09:49Z</time>
      </trkpt>
      <trkpt lat="45.94646" lon="4.79304">
        <ele>254</ele>
        <time>2018-02-13T10:09:50Z</time>
      </trkpt>
      <trkpt lat="45.94652" lon="4.79313">
        <ele>254</ele>
        <time>2018-02-13T10:09:52Z</time>
      </trkpt>
      <trkpt lat="45.94655" lon="4.79318">
        <ele>254</ele>
        <time>2018-02-13T10:09:53Z</time>
      </trkpt>
      <trkpt lat="45.94659" lon="4.79326">
        <ele>254</ele>
        <time>2018-02-13T10:09:55Z</time>
      </trkpt>
      <trkpt lat="45.94662" lon="4.79329">
        <ele>254</ele>
        <time>2018-02-13T10:09:56Z</time>
      </trkpt>
      <trkpt lat="45.94666" lon="4.79337">
        <ele>254</ele>
        <time>2018-02-13T10:09:58Z</time>
      </trkpt>
      <trkpt lat="45.94669" lon="4.79342">
        <ele>254</ele>
        <time>2018-02-13T10:09:59Z</time>
      </trkpt>
      <trkpt lat="45.94673" lon="4.79351">
        <ele>253</ele>
        <time>2018-02-13T10:10:01Z</time>
      </trkpt>
      <trkpt lat="45.94675" lon="4.79355">
        <ele>253</ele>
        <time>2018-02-13T10:10:02Z</time>
      </trkpt>
      <trkpt lat="45.94679" lon="4.79364">
        <ele>253</ele>
        <time>2018-02-13T10:10:04Z</time>
      </trkpt>
      <trkpt lat="45.94681" lon="4.79368">
        <ele>253</ele>
        <time>2018-02-13T10:10:05Z</time>
      </trkpt>
      <trkpt lat="45.94684" lon="4.79377">
        <ele>253</ele>
        <time>2018-02-13T10:10:07Z</time>
      </trkpt>
      <trkpt lat="45.94687" lon="4.79382">
        <ele>253</ele>
        <time>2018-02-13T10:10:08Z</time>
      </trkpt>
      <trkpt lat="45.94692" lon="4.79392">
        <ele>253</ele>
        <time>2018-02-13T10:10:10Z</time>
      </trkpt>
      <trkpt lat="45.94694" lon="4.79397">
        <ele>253</ele>
        <time>2018-02-13T10:10:11Z</time>
      </trkpt>
      <trkpt lat="45.94697" lon="4.79403">
        <ele>253</ele>
        <time>2018-02-13T10:10:12Z</time>
      </trkpt>
      <trkpt lat="45.94699" lon="4.79408">
        <ele>253</ele>
        <time>2018-02-13T10:10:13Z</time>
      </trkpt>
      <trkpt lat="45.94702" lon="4.79414">
        <ele>253</ele>
        <time>2018-02-13T10:10:14Z</time>
      </trkpt>
      <trkpt lat="45.94705" lon="4.79419">
        <ele>253</ele>
        <time>2018-02-13T10:10:15Z</time>
      </trkpt>
      <trkpt lat="45.94708" lon="4.79425">
        <ele>253</ele>
        <time>2018-02-13T10:10:16Z</time>
      </trkpt>
      <trkpt lat="45.94712" lon="4.7943">
        <ele>253</ele>
        <time>2018-02-13T10:10:17Z</time>
      </trkpt>
      <trkpt lat="45.94714" lon="4.79436">
        <ele>253</ele>
        <time>2018-02-13T10:10:18Z</time>
      </trkpt>
      <trkpt lat="45.94716" lon="4.79441">
        <ele>253</ele>
        <time>2018-02-13T10:10:19Z</time>
      </trkpt>
      <trkpt lat="45.94719" lon="4.79447">
        <ele>253</ele>
        <time>2018-02-13T10:10:20Z</time>
      </trkpt>
      <trkpt lat="45.94721" lon="4.79453">
        <ele>253</ele>
        <time>2018-02-13T10:10:21Z</time>
      </trkpt>
      <trkpt lat="45.94724" lon="4.79458">
        <ele>253</ele>
        <time>2018-02-13T10:10:22Z</time>
      </trkpt>
      <trkpt lat="45.94727" lon="4.79464">
        <ele>253</ele>
        <time>2018-02-13T10:10:23Z</time>
      </trkpt>
      <trkpt lat="45.9473" lon="4.7947">
        <ele>253</ele>
        <time>2018-02-13T10:10:24Z</time>
      </trkpt>
      <trkpt lat="45.94732" lon="4.79478">
        <ele>253</ele>
        <time>2018-02-13T10:10:25Z</time>
      </trkpt>
      <trkpt lat="45.94735" lon="4.79483">
        <ele>253</ele>
        <time>2018-02-13T10:10:26Z</time>
      </trkpt>
      <trkpt lat="45.94737" lon="4.79489">
        <ele>252</ele>
        <time>2018-02-13T10:10:27Z</time>
      </trkpt>
      <trkpt lat="45.9474" lon="4.79495">
        <ele>252</ele>
        <time>2018-02-13T10:10:28Z</time>
      </trkpt>
      <trkpt lat="45.94743" lon="4.79501">
        <ele>252</ele>
        <time>2018-02-13T10:10:29Z</time>
      </trkpt>
      <trkpt lat="45.94746" lon="4.79508">
        <ele>252</ele>
        <time>2018-02-13T10:10:30Z</time>
      </trkpt>
      <trkpt lat="45.94748" lon="4.79514">
        <ele>252</ele>
        <time>2018-02-13T10:10:31Z</time>
      </trkpt>
      <trkpt lat="45.9475" lon="4.7952">
        <ele>252</ele>
        <time>2018-02-13T10:10:32Z</time>
      </trkpt>
      <trkpt lat="45.94752" lon="4.79525">
        <ele>252</ele>
        <time>2018-02-13T10:10:33Z</time>
      </trkpt>
      <trkpt lat="45.94755" lon="4.79531">
        <ele>252</ele>
        <time>2018-02-13T10:10:34Z</time>
      </trkpt>
      <trkpt lat="45.94756" lon="4.79537">
        <ele>252</ele>
        <time>2018-02-13T10:10:35Z</time>
      </trkpt>
      <trkpt lat="45.94759" lon="4.79543">
        <ele>252</ele>
        <time>2018-02-13T10:10:36Z</time>
      </trkpt>
      <trkpt lat="45.94761" lon="4.79549">
        <ele>252</ele>
        <time>2018-02-13T10:10:37Z</time>
      </trkpt>
      <trkpt lat="45.94762" lon="4.79555">
        <ele>252</ele>
        <time>2018-02-13T10:10:38Z</time>
      </trkpt>
      <trkpt lat="45.94765" lon="4.79561">
        <ele>252</ele>
        <time>2018-02-13T10:10:39Z</time>
      </trkpt>
      <trkpt lat="45.94766" lon="4.79573">
        <ele>252</ele>
        <time>2018-02-13T10:10:41Z</time>
      </trkpt>
      <trkpt lat="45.94766" lon="4.79579">
        <ele>252</ele>
        <time>2018-02-13T10:10:42Z</time>
      </trkpt>
      <trkpt lat="45.94765" lon="4.79591">
        <ele>253</ele>
        <time>2018-02-13T10:10:44Z</time>
      </trkpt>
      <trkpt lat="45.94765" lon="4.79596">
        <ele>253</ele>
        <time>2018-02-13T10:10:45Z</time>
      </trkpt>
      <trkpt lat="45.94767" lon="4.79606">
        <ele>253</ele>
        <time>2018-02-13T10:10:47Z</time>
      </trkpt>
      <trkpt lat="45.94768" lon="4.79612">
        <ele>253</ele>
        <time>2018-02-13T10:10:48Z</time>
      </trkpt>
      <trkpt lat="45.9477" lon="4.79623">
        <ele>253</ele>
        <time>2018-02-13T10:10:50Z</time>
      </trkpt>
      <trkpt lat="45.94772" lon="4.79628">
        <ele>253</ele>
        <time>2018-02-13T10:10:51Z</time>
      </trkpt>
      <trkpt lat="45.94774" lon="4.79638">
        <ele>254</ele>
        <time>2018-02-13T10:10:53Z</time>
      </trkpt>
      <trkpt lat="45.94776" lon="4.79643">
        <ele>254</ele>
        <time>2018-02-13T10:10:54Z</time>
      </trkpt>
      <trkpt lat="45.94778" lon="4.79652">
        <ele>254</ele>
        <time>2018-02-13T10:10:56Z</time>
      </trkpt>
      <trkpt lat="45.94779" lon="4.79657">
        <ele>254</ele>
        <time>2018-02-13T10:10:57Z</time>
      </trkpt>
      <trkpt lat="45.94782" lon="4.79669">
        <ele>254</ele>
        <time>2018-02-13T10:10:59Z</time>
      </trkpt>
      <trkpt lat="45.94783" lon="4.79675">
        <ele>254</ele>
        <time>2018-02-13T10:11:00Z</time>
      </trkpt>
      <trkpt lat="45.94786" lon="4.79687">
        <ele>254</ele>
        <time>2018-02-13T10:11:02Z</time>
      </trkpt>
      <trkpt lat="45.94787" lon="4.79693">
        <ele>254</ele>
        <time>2018-02-13T10:11:03Z</time>
      </trkpt>
      <trkpt lat="45.9479" lon="4.79705">
        <ele>254</ele>
        <time>2018-02-13T10:11:05Z</time>
      </trkpt>
      <trkpt lat="45.94792" lon="4.79711">
        <ele>254</ele>
        <time>2018-02-13T10:11:06Z</time>
      </trkpt>
      <trkpt lat="45.94794" lon="4.79717">
        <ele>254</ele>
        <time>2018-02-13T10:11:07Z</time>
      </trkpt>
      <trkpt lat="45.94797" lon="4.79723">
        <ele>254</ele>
        <time>2018-02-13T10:11:08Z</time>
      </trkpt>
      <trkpt lat="45.94799" lon="4.79729">
        <ele>254</ele>
        <time>2018-02-13T10:11:09Z</time>
      </trkpt>
      <trkpt lat="45.948" lon="4.79736">
        <ele>254</ele>
        <time>2018-02-13T10:11:10Z</time>
      </trkpt>
      <trkpt lat="45.94802" lon="4.79742">
        <ele>254</ele>
        <time>2018-02-13T10:11:11Z</time>
      </trkpt>
      <trkpt lat="45.94804" lon="4.79748">
        <ele>254</ele>
        <time>2018-02-13T10:11:12Z</time>
      </trkpt>
      <trkpt lat="45.94806" lon="4.79754">
        <ele>254</ele>
        <time>2018-02-13T10:11:13Z</time>
      </trkpt>
      <trkpt lat="45.94807" lon="4.79761">
        <ele>254</ele>
        <time>2018-02-13T10:11:14Z</time>
      </trkpt>
      <trkpt lat="45.9481" lon="4.79767">
        <ele>254</ele>
        <time>2018-02-13T10:11:15Z</time>
      </trkpt>
      <trkpt lat="45.94813" lon="4.79775">
        <ele>254</ele>
        <time>2018-02-13T10:11:16Z</time>
      </trkpt>
      <trkpt lat="45.94815" lon="4.79782">
        <ele>254</ele>
        <time>2018-02-13T10:11:17Z</time>
      </trkpt>
      <trkpt lat="45.94817" lon="4.79789">
        <ele>254</ele>
        <time>2018-02-13T10:11:18Z</time>
      </trkpt>
      <trkpt lat="45.94819" lon="4.79795">
        <ele>254</ele>
        <time>2018-02-13T10:11:19Z</time>
      </trkpt>
      <trkpt lat="45.9482" lon="4.79802">
        <ele>254</ele>
        <time>2018-02-13T10:11:20Z</time>
      </trkpt>
      <trkpt lat="45.94822" lon="4.79808">
        <ele>254</ele>
        <time>2018-02-13T10:11:21Z</time>
      </trkpt>
      <trkpt lat="45.94824" lon="4.79815">
        <ele>254</ele>
        <time>2018-02-13T10:11:22Z</time>
      </trkpt>
      <trkpt lat="45.94826" lon="4.79827">
        <ele>254</ele>
        <time>2018-02-13T10:11:24Z</time>
      </trkpt>
      <trkpt lat="45.94828" lon="4.79833">
        <ele>254</ele>
        <time>2018-02-13T10:11:25Z</time>
      </trkpt>
      <trkpt lat="45.9483" lon="4.7984">
        <ele>254</ele>
        <time>2018-02-13T10:11:26Z</time>
      </trkpt>
      <trkpt lat="45.94832" lon="4.79846">
        <ele>254</ele>
        <time>2018-02-13T10:11:27Z</time>
      </trkpt>
      <trkpt lat="45.94834" lon="4.79857">
        <ele>255</ele>
        <time>2018-02-13T10:11:29Z</time>
      </trkpt>
      <trkpt lat="45.94835" lon="4.79863">
        <ele>255</ele>
        <time>2018-02-13T10:11:30Z</time>
      </trkpt>
      <trkpt lat="45.94838" lon="4.79873">
        <ele>255</ele>
        <time>2018-02-13T10:11:32Z</time>
      </trkpt>
      <trkpt lat="45.9484" lon="4.79878">
        <ele>255</ele>
        <time>2018-02-13T10:11:33Z</time>
      </trkpt>
      <trkpt lat="45.94843" lon="4.79888">
        <ele>255</ele>
        <time>2018-02-13T10:11:35Z</time>
      </trkpt>
      <trkpt lat="45.94844" lon="4.79893">
        <ele>255</ele>
        <time>2018-02-13T10:11:36Z</time>
      </trkpt>
      <trkpt lat="45.94848" lon="4.79903">
        <ele>255</ele>
        <time>2018-02-13T10:11:38Z</time>
      </trkpt>
      <trkpt lat="45.94849" lon="4.79908">
        <ele>256</ele>
        <time>2018-02-13T10:11:39Z</time>
      </trkpt>
      <trkpt lat="45.94853" lon="4.79918">
        <ele>256</ele>
        <time>2018-02-13T10:11:41Z</time>
      </trkpt>
      <trkpt lat="45.94855" lon="4.79922">
        <ele>256</ele>
        <time>2018-02-13T10:11:42Z</time>
      </trkpt>
      <trkpt lat="45.94859" lon="4.79932">
        <ele>256</ele>
        <time>2018-02-13T10:11:44Z</time>
      </trkpt>
      <trkpt lat="45.94861" lon="4.79937">
        <ele>256</ele>
        <time>2018-02-13T10:11:45Z</time>
      </trkpt>
      <trkpt lat="45.94866" lon="4.79947">
        <ele>256</ele>
        <time>2018-02-13T10:11:47Z</time>
      </trkpt>
      <trkpt lat="45.94868" lon="4.79952">
        <ele>256</ele>
        <time>2018-02-13T10:11:48Z</time>
      </trkpt>
      <trkpt lat="45.94873" lon="4.79962">
        <ele>256</ele>
        <time>2018-02-13T10:11:50Z</time>
      </trkpt>
      <trkpt lat="45.94875" lon="4.79968">
        <ele>256</ele>
        <time>2018-02-13T10:11:51Z</time>
      </trkpt>
      <trkpt lat="45.9488" lon="4.79979">
        <ele>256</ele>
        <time>2018-02-13T10:11:53Z</time>
      </trkpt>
      <trkpt lat="45.94882" lon="4.79984">
        <ele>256</ele>
        <time>2018-02-13T10:11:54Z</time>
      </trkpt>
      <trkpt lat="45.94885" lon="4.79994">
        <ele>256</ele>
        <time>2018-02-13T10:11:56Z</time>
      </trkpt>
      <trkpt lat="45.94886" lon="4.79999">
        <ele>256</ele>
        <time>2018-02-13T10:11:57Z</time>
      </trkpt>
      <trkpt lat="45.9489" lon="4.80008">
        <ele>256</ele>
        <time>2018-02-13T10:11:59Z</time>
      </trkpt>
      <trkpt lat="45.94893" lon="4.80014">
        <ele>256</ele>
        <time>2018-02-13T10:12:00Z</time>
      </trkpt>
      <trkpt lat="45.94897" lon="4.80025">
        <ele>256</ele>
        <time>2018-02-13T10:12:02Z</time>
      </trkpt>
      <trkpt lat="45.94899" lon="4.8003">
        <ele>256</ele>
        <time>2018-02-13T10:12:03Z</time>
      </trkpt>
      <trkpt lat="45.94902" lon="4.80042">
        <ele>256</ele>
        <time>2018-02-13T10:12:05Z</time>
      </trkpt>
      <trkpt lat="45.94903" lon="4.80047">
        <ele>256</ele>
        <time>2018-02-13T10:12:06Z</time>
      </trkpt>
      <trkpt lat="45.94905" lon="4.80053">
        <ele>256</ele>
        <time>2018-02-13T10:12:07Z</time>
      </trkpt>
      <trkpt lat="45.94907" lon="4.80059">
        <ele>256</ele>
        <time>2018-02-13T10:12:08Z</time>
      </trkpt>
      <trkpt lat="45.94909" lon="4.80065">
        <ele>256</ele>
        <time>2018-02-13T10:12:09Z</time>
      </trkpt>
      <trkpt lat="45.94911" lon="4.80072">
        <ele>257</ele>
        <time>2018-02-13T10:12:10Z</time>
      </trkpt>
      <trkpt lat="45.94913" lon="4.80083">
        <ele>257</ele>
        <time>2018-02-13T10:12:12Z</time>
      </trkpt>
      <trkpt lat="45.94914" lon="4.80089">
        <ele>257</ele>
        <time>2018-02-13T10:12:13Z</time>
      </trkpt>
      <trkpt lat="45.94916" lon="4.80102">
        <ele>256</ele>
        <time>2018-02-13T10:12:15Z</time>
      </trkpt>
      <trkpt lat="45.94917" lon="4.80108">
        <ele>256</ele>
        <time>2018-02-13T10:12:16Z</time>
      </trkpt>
      <trkpt lat="45.94918" lon="4.8012">
        <ele>256</ele>
        <time>2018-02-13T10:12:18Z</time>
      </trkpt>
      <trkpt lat="45.9492" lon="4.80125">
        <ele>256</ele>
        <time>2018-02-13T10:12:19Z</time>
      </trkpt>
      <trkpt lat="45.94922" lon="4.80137">
        <ele>256</ele>
        <time>2018-02-13T10:12:21Z</time>
      </trkpt>
      <trkpt lat="45.94924" lon="4.80143">
        <ele>256</ele>
        <time>2018-02-13T10:12:22Z</time>
      </trkpt>
      <trkpt lat="45.94925" lon="4.80155">
        <ele>255</ele>
        <time>2018-02-13T10:12:24Z</time>
      </trkpt>
      <trkpt lat="45.94927" lon="4.80162">
        <ele>255</ele>
        <time>2018-02-13T10:12:25Z</time>
      </trkpt>
      <trkpt lat="45.94929" lon="4.80172">
        <ele>255</ele>
        <time>2018-02-13T10:12:27Z</time>
      </trkpt>
      <trkpt lat="45.94931" lon="4.80177">
        <ele>256</ele>
        <time>2018-02-13T10:12:28Z</time>
      </trkpt>
      <trkpt lat="45.94933" lon="4.80187">
        <ele>256</ele>
        <time>2018-02-13T10:12:30Z</time>
      </trkpt>
      <trkpt lat="45.94933" lon="4.80194">
        <ele>256</ele>
        <time>2018-02-13T10:12:31Z</time>
      </trkpt>
      <trkpt lat="45.94934" lon="4.80205">
        <ele>256</ele>
        <time>2018-02-13T10:12:33Z</time>
      </trkpt>
      <trkpt lat="45.94935" lon="4.80211">
        <ele>256</ele>
        <time>2018-02-13T10:12:34Z</time>
      </trkpt>
      <trkpt lat="45.94937" lon="4.80223">
        <ele>256</ele>
        <time>2018-02-13T10:12:36Z</time>
      </trkpt>
      <trkpt lat="45.94938" lon="4.80229">
        <ele>256</ele>
        <time>2018-02-13T10:12:37Z</time>
      </trkpt>
      <trkpt lat="45.94939" lon="4.8024">
        <ele>256</ele>
        <time>2018-02-13T10:12:39Z</time>
      </trkpt>
      <trkpt lat="45.9494" lon="4.80246">
        <ele>256</ele>
        <time>2018-02-13T10:12:40Z</time>
      </trkpt>
      <trkpt lat="45.94942" lon="4.80257">
        <ele>257</ele>
        <time>2018-02-13T10:12:42Z</time>
      </trkpt>
      <trkpt lat="45.94942" lon="4.80264">
        <ele>257</ele>
        <time>2018-02-13T10:12:43Z</time>
      </trkpt>
      <trkpt lat="45.94942" lon="4.80276">
        <ele>257</ele>
        <time>2018-02-13T10:12:45Z</time>
      </trkpt>
      <trkpt lat="45.94941" lon="4.80282">
        <ele>257</ele>
        <time>2018-02-13T10:12:46Z</time>
      </trkpt>
      <trkpt lat="45.94941" lon="4.80295">
        <ele>257</ele>
        <time>2018-02-13T10:12:48Z</time>
      </trkpt>
      <trkpt lat="45.94942" lon="4.80301">
        <ele>257</ele>
        <time>2018-02-13T10:12:49Z</time>
      </trkpt>
      <trkpt lat="45.94942" lon="4.80309">
        <ele>257</ele>
        <time>2018-02-13T10:12:50Z</time>
      </trkpt>
      <trkpt lat="45.94942" lon="4.80315">
        <ele>257</ele>
        <time>2018-02-13T10:12:51Z</time>
      </trkpt>
      <trkpt lat="45.94941" lon="4.80327">
        <ele>257</ele>
        <time>2018-02-13T10:12:53Z</time>
      </trkpt>
      <trkpt lat="45.94943" lon="4.80333">
        <ele>257</ele>
        <time>2018-02-13T10:12:54Z</time>
      </trkpt>
      <trkpt lat="45.94942" lon="4.80344">
        <ele>258</ele>
        <time>2018-02-13T10:12:56Z</time>
      </trkpt>
      <trkpt lat="45.94944" lon="4.80349">
        <ele>258</ele>
        <time>2018-02-13T10:12:57Z</time>
      </trkpt>
      <trkpt lat="45.94943" lon="4.80359">
        <ele>258</ele>
        <time>2018-02-13T10:12:59Z</time>
      </trkpt>
      <trkpt lat="45.94943" lon="4.80363">
        <ele>258</ele>
        <time>2018-02-13T10:13:00Z</time>
      </trkpt>
      <trkpt lat="45.94944" lon="4.80375">
        <ele>258</ele>
        <time>2018-02-13T10:13:02Z</time>
      </trkpt>
      <trkpt lat="45.94944" lon="4.80382">
        <ele>258</ele>
        <time>2018-02-13T10:13:03Z</time>
      </trkpt>
      <trkpt lat="45.94943" lon="4.80394">
        <ele>258</ele>
        <time>2018-02-13T10:13:05Z</time>
      </trkpt>
      <trkpt lat="45.94944" lon="4.80401">
        <ele>258</ele>
        <time>2018-02-13T10:13:06Z</time>
      </trkpt>
      <trkpt lat="45.94944" lon="4.80408">
        <ele>259</ele>
        <time>2018-02-13T10:13:07Z</time>
      </trkpt>
      <trkpt lat="45.94943" lon="4.80414">
        <ele>259</ele>
        <time>2018-02-13T10:13:08Z</time>
      </trkpt>
      <trkpt lat="45.94944" lon="4.80422">
        <ele>259</ele>
        <time>2018-02-13T10:13:09Z</time>
      </trkpt>
      <trkpt lat="45.94944" lon="4.80428">
        <ele>259</ele>
        <time>2018-02-13T10:13:10Z</time>
      </trkpt>
      <trkpt lat="45.94944" lon="4.80434">
        <ele>259</ele>
        <time>2018-02-13T10:13:11Z</time>
      </trkpt>
      <trkpt lat="45.94944" lon="4.80441">
        <ele>259</ele>
        <time>2018-02-13T10:13:12Z</time>
      </trkpt>
      <trkpt lat="45.94945" lon="4.80453">
        <ele>258</ele>
        <time>2018-02-13T10:13:14Z</time>
      </trkpt>
      <trkpt lat="45.94946" lon="4.80459">
        <ele>258</ele>
        <time>2018-02-13T10:13:15Z</time>
      </trkpt>
      <trkpt lat="45.94945" lon="4.80471">
        <ele>258</ele>
        <time>2018-02-13T10:13:17Z</time>
      </trkpt>
      <trkpt lat="45.94945" lon="4.80477">
        <ele>258</ele>
        <time>2018-02-13T10:13:18Z</time>
      </trkpt>
      <trkpt lat="45.94947" lon="4.80489">
        <ele>258</ele>
        <time>2018-02-13T10:13:20Z</time>
      </trkpt>
      <trkpt lat="45.94947" lon="4.80495">
        <ele>258</ele>
        <time>2018-02-13T10:13:21Z</time>
      </trkpt>
      <trkpt lat="45.94948" lon="4.80507">
        <ele>258</ele>
        <time>2018-02-13T10:13:23Z</time>
      </trkpt>
      <trkpt lat="45.94948" lon="4.80513">
        <ele>258</ele>
        <time>2018-02-13T10:13:24Z</time>
      </trkpt>
      <trkpt lat="45.94949" lon="4.80519">
        <ele>258</ele>
        <time>2018-02-13T10:13:25Z</time>
      </trkpt>
      <trkpt lat="45.94949" lon="4.80526">
        <ele>258</ele>
        <time>2018-02-13T10:13:26Z</time>
      </trkpt>
      <trkpt lat="45.94949" lon="4.80538">
        <ele>258</ele>
        <time>2018-02-13T10:13:28Z</time>
      </trkpt>
      <trkpt lat="45.94949" lon="4.80543">
        <ele>258</ele>
        <time>2018-02-13T10:13:29Z</time>
      </trkpt>
      <trkpt lat="45.94949" lon="4.80554">
        <ele>258</ele>
        <time>2018-02-13T10:13:31Z</time>
      </trkpt>
      <trkpt lat="45.9495" lon="4.8056">
        <ele>257</ele>
        <time>2018-02-13T10:13:32Z</time>
      </trkpt>
      <trkpt lat="45.9495" lon="4.80572">
        <ele>257</ele>
        <time>2018-02-13T10:13:34Z</time>
      </trkpt>
      <trkpt lat="45.9495" lon="4.80579">
        <ele>257</ele>
        <time>2018-02-13T10:13:35Z</time>
      </trkpt>
      <trkpt lat="45.9495" lon="4.80591">
        <ele>258</ele>
        <time>2018-02-13T10:13:37Z</time>
      </trkpt>
      <trkpt lat="45.94949" lon="4.80598">
        <ele>258</ele>
        <time>2018-02-13T10:13:38Z</time>
      </trkpt>
      <trkpt lat="45.9495" lon="4.80605">
        <ele>258</ele>
        <time>2018-02-13T10:13:39Z</time>
      </trkpt>
      <trkpt lat="45.9495" lon="4.80612">
        <ele>258</ele>
        <time>2018-02-13T10:13:40Z</time>
      </trkpt>
      <trkpt lat="45.9495" lon="4.80618">
        <ele>258</ele>
        <time>2018-02-13T10:13:41Z</time>
      </trkpt>
      <trkpt lat="45.9495" lon="4.80625">
        <ele>258</ele>
        <time>2018-02-13T10:13:42Z</time>
      </trkpt>
      <trkpt lat="45.94951" lon="4.80637">
        <ele>258</ele>
        <time>2018-02-13T10:13:44Z</time>
      </trkpt>
      <trkpt lat="45.94952" lon="4.80643">
        <ele>258</ele>
        <time>2018-02-13T10:13:45Z</time>
      </trkpt>
      <trkpt lat="45.94952" lon="4.8065">
        <ele>259</ele>
        <time>2018-02-13T10:13:46Z</time>
      </trkpt>
      <trkpt lat="45.94953" lon="4.80656">
        <ele>259</ele>
        <time>2018-02-13T10:13:47Z</time>
      </trkpt>
      <trkpt lat="45.94954" lon="4.80669">
        <ele>259</ele>
        <time>2018-02-13T10:13:49Z</time>
      </trkpt>
      <trkpt lat="45.94954" lon="4.80675">
        <ele>259</ele>
        <time>2018-02-13T10:13:50Z</time>
      </trkpt>
      <trkpt lat="45.94955" lon="4.80687">
        <ele>259</ele>
        <time>2018-02-13T10:13:52Z</time>
      </trkpt>
      <trkpt lat="45.94955" lon="4.80693">
        <ele>259</ele>
        <time>2018-02-13T10:13:53Z</time>
      </trkpt>
      <trkpt lat="45.94955" lon="4.80702">
        <ele>259</ele>
        <time>2018-02-13T10:13:55Z</time>
      </trkpt>
      <trkpt lat="45.94954" lon="4.80707">
        <ele>259</ele>
        <time>2018-02-13T10:13:56Z</time>
      </trkpt>
      <trkpt lat="45.94954" lon="4.80718">
        <ele>259</ele>
        <time>2018-02-13T10:13:58Z</time>
      </trkpt>
      <trkpt lat="45.94954" lon="4.80725">
        <ele>259</ele>
        <time>2018-02-13T10:13:59Z</time>
      </trkpt>
      <trkpt lat="45.94955" lon="4.80732">
        <ele>259</ele>
        <time>2018-02-13T10:14:00Z</time>
      </trkpt>
      <trkpt lat="45.94954" lon="4.80738">
        <ele>259</ele>
        <time>2018-02-13T10:14:01Z</time>
      </trkpt>
      <trkpt lat="45.94954" lon="4.80749">
        <ele>259</ele>
        <time>2018-02-13T10:14:03Z</time>
      </trkpt>
      <trkpt lat="45.94954" lon="4.80756">
        <ele>259</ele>
        <time>2018-02-13T10:14:04Z</time>
      </trkpt>
      <trkpt lat="45.94953" lon="4.80766">
        <ele>259</ele>
        <time>2018-02-13T10:14:06Z</time>
      </trkpt>
      <trkpt lat="45.94952" lon="4.80772">
        <ele>259</ele>
        <time>2018-02-13T10:14:07Z</time>
      </trkpt>
      <trkpt lat="45.94951" lon="4.80782">
        <ele>259</ele>
        <time>2018-02-13T10:14:09Z</time>
      </trkpt>
      <trkpt lat="45.94951" lon="4.80787">
        <ele>259</ele>
        <time>2018-02-13T10:14:10Z</time>
      </trkpt>
      <trkpt lat="45.94948" lon="4.80796">
        <ele>259</ele>
        <time>2018-02-13T10:14:12Z</time>
      </trkpt>
      <trkpt lat="45.94947" lon="4.80801">
        <ele>259</ele>
        <time>2018-02-13T10:14:13Z</time>
      </trkpt>
      <trkpt lat="45.94949" lon="4.80811">
        <ele>258</ele>
        <time>2018-02-13T10:14:15Z</time>
      </trkpt>
      <trkpt lat="45.94951" lon="4.80816">
        <ele>258</ele>
        <time>2018-02-13T10:14:16Z</time>
      </trkpt>
      <trkpt lat="45.94956" lon="4.80819">
        <ele>258</ele>
        <time>2018-02-13T10:14:17Z</time>
      </trkpt>
      <trkpt lat="45.94958" lon="4.80825">
        <ele>258</ele>
        <time>2018-02-13T10:14:18Z</time>
      </trkpt>
      <trkpt lat="45.9496" lon="4.80831">
        <ele>259</ele>
        <time>2018-02-13T10:14:19Z</time>
      </trkpt>
      <trkpt lat="45.94961" lon="4.80838">
        <ele>259</ele>
        <time>2018-02-13T10:14:20Z</time>
      </trkpt>
      <trkpt lat="45.94964" lon="4.8085">
        <ele>259</ele>
        <time>2018-02-13T10:14:22Z</time>
      </trkpt>
      <trkpt lat="45.94965" lon="4.80856">
        <ele>259</ele>
        <time>2018-02-13T10:14:23Z</time>
      </trkpt>
      <trkpt lat="45.94966" lon="4.80863">
        <ele>259</ele>
        <time>2018-02-13T10:14:24Z</time>
      </trkpt>
      <trkpt lat="45.94967" lon="4.8087">
        <ele>259</ele>
        <time>2018-02-13T10:14:25Z</time>
      </trkpt>
      <trkpt lat="45.94969" lon="4.80877">
        <ele>258</ele>
        <time>2018-02-13T10:14:26Z</time>
      </trkpt>
      <trkpt lat="45.9497" lon="4.80882">
        <ele>258</ele>
        <time>2018-02-13T10:14:27Z</time>
      </trkpt>
      <trkpt lat="45.94973" lon="4.80894">
        <ele>258</ele>
        <time>2018-02-13T10:14:29Z</time>
      </trkpt>
      <trkpt lat="45.94974" lon="4.809">
        <ele>258</ele>
        <time>2018-02-13T10:14:30Z</time>
      </trkpt>
      <trkpt lat="45.94976" lon="4.80912">
        <ele>258</ele>
        <time>2018-02-13T10:14:32Z</time>
      </trkpt>
      <trkpt lat="45.94977" lon="4.80918">
        <ele>258</ele>
        <time>2018-02-13T10:14:33Z</time>
      </trkpt>
      <trkpt lat="45.94978" lon="4.80925">
        <ele>258</ele>
        <time>2018-02-13T10:14:34Z</time>
      </trkpt>
      <trkpt lat="45.94979" lon="4.80932">
        <ele>258</ele>
        <time>2018-02-13T10:14:35Z</time>
      </trkpt>
      <trkpt lat="45.9498" lon="4.80939">
        <ele>258</ele>
        <time>2018-02-13T10:14:36Z</time>
      </trkpt>
      <trkpt lat="45.94981" lon="4.80946">
        <ele>258</ele>
        <time>2018-02-13T10:14:37Z</time>
      </trkpt>
      <trkpt lat="45.94982" lon="4.80958">
        <ele>258</ele>
        <time>2018-02-13T10:14:39Z</time>
      </trkpt>
      <trkpt lat="45.94983" lon="4.80963">
        <ele>258</ele>
        <time>2018-02-13T10:14:40Z</time>
      </trkpt>
      <trkpt lat="45.94985" lon="4.80974">
        <ele>258</ele>
        <time>2018-02-13T10:14:42Z</time>
      </trkpt>
      <trkpt lat="45.94986" lon="4.8098">
        <ele>258</ele>
        <time>2018-02-13T10:14:43Z</time>
      </trkpt>
      <trkpt lat="45.94987" lon="4.80991">
        <ele>257</ele>
        <time>2018-02-13T10:14:45Z</time>
      </trkpt>
      <trkpt lat="45.94987" lon="4.80998">
        <ele>257</ele>
        <time>2018-02-13T10:14:46Z</time>
      </trkpt>
      <trkpt lat="45.94988" lon="4.81007">
        <ele>257</ele>
        <time>2018-02-13T10:14:47Z</time>
      </trkpt>
      <trkpt lat="45.94988" lon="4.81013">
        <ele>257</ele>
        <time>2018-02-13T10:14:48Z</time>
      </trkpt>
      <trkpt lat="45.94989" lon="4.8102">
        <ele>257</ele>
        <time>2018-02-13T10:14:49Z</time>
      </trkpt>
      <trkpt lat="45.94989" lon="4.81027">
        <ele>257</ele>
        <time>2018-02-13T10:14:50Z</time>
      </trkpt>
      <trkpt lat="45.9499" lon="4.81034">
        <ele>257</ele>
        <time>2018-02-13T10:14:51Z</time>
      </trkpt>
      <trkpt lat="45.9499" lon="4.81043">
        <ele>257</ele>
        <time>2018-02-13T10:14:52Z</time>
      </trkpt>
      <trkpt lat="45.9499" lon="4.8105">
        <ele>257</ele>
        <time>2018-02-13T10:14:53Z</time>
      </trkpt>
      <trkpt lat="45.94991" lon="4.81057">
        <ele>257</ele>
        <time>2018-02-13T10:14:54Z</time>
      </trkpt>
      <trkpt lat="45.94991" lon="4.81069">
        <ele>257</ele>
        <time>2018-02-13T10:14:56Z</time>
      </trkpt>
      <trkpt lat="45.94991" lon="4.81076">
        <ele>257</ele>
        <time>2018-02-13T10:14:57Z</time>
      </trkpt>
      <trkpt lat="45.94992" lon="4.81087">
        <ele>257</ele>
        <time>2018-02-13T10:14:59Z</time>
      </trkpt>
      <trkpt lat="45.94993" lon="4.81094">
        <ele>257</ele>
        <time>2018-02-13T10:15:00Z</time>
      </trkpt>
      <trkpt lat="45.94995" lon="4.81105">
        <ele>257</ele>
        <time>2018-02-13T10:15:02Z</time>
      </trkpt>
      <trkpt lat="45.94995" lon="4.81111">
        <ele>257</ele>
        <time>2018-02-13T10:15:03Z</time>
      </trkpt>
      <trkpt lat="45.94997" lon="4.81119">
        <ele>257</ele>
        <time>2018-02-13T10:15:04Z</time>
      </trkpt>
      <trkpt lat="45.94999" lon="4.81127">
        <ele>256</ele>
        <time>2018-02-13T10:15:05Z</time>
      </trkpt>
      <trkpt lat="45.94999" lon="4.81134">
        <ele>256</ele>
        <time>2018-02-13T10:15:06Z</time>
      </trkpt>
      <trkpt lat="45.95" lon="4.81141">
        <ele>256</ele>
        <time>2018-02-13T10:15:07Z</time>
      </trkpt>
      <trkpt lat="45.95001" lon="4.81149">
        <ele>256</ele>
        <time>2018-02-13T10:15:08Z</time>
      </trkpt>
      <trkpt lat="45.95002" lon="4.81157">
        <ele>256</ele>
        <time>2018-02-13T10:15:09Z</time>
      </trkpt>
      <trkpt lat="45.95003" lon="4.81164">
        <ele>256</ele>
        <time>2018-02-13T10:15:10Z</time>
      </trkpt>
      <trkpt lat="45.95004" lon="4.81171">
        <ele>256</ele>
        <time>2018-02-13T10:15:11Z</time>
      </trkpt>
      <trkpt lat="45.95004" lon="4.81179">
        <ele>256</ele>
        <time>2018-02-13T10:15:12Z</time>
      </trkpt>
      <trkpt lat="45.95005" lon="4.81187">
        <ele>256</ele>
        <time>2018-02-13T10:15:13Z</time>
      </trkpt>
      <trkpt lat="45.95006" lon="4.81194">
        <ele>256</ele>
        <time>2018-02-13T10:15:14Z</time>
      </trkpt>
      <trkpt lat="45.95006" lon="4.81201">
        <ele>256</ele>
        <time>2018-02-13T10:15:15Z</time>
      </trkpt>
      <trkpt lat="45.95007" lon="4.81209">
        <ele>256</ele>
        <time>2018-02-13T10:15:16Z</time>
      </trkpt>
      <trkpt lat="45.95008" lon="4.81217">
        <ele>256</ele>
        <time>2018-02-13T10:15:17Z</time>
      </trkpt>
      <trkpt lat="45.95009" lon="4.81225">
        <ele>256</ele>
        <time>2018-02-13T10:15:18Z</time>
      </trkpt>
      <trkpt lat="45.95009" lon="4.81233">
        <ele>256</ele>
        <time>2018-02-13T10:15:19Z</time>
      </trkpt>
      <trkpt lat="45.9501" lon="4.81242">
        <ele>256</ele>
        <time>2018-02-13T10:15:20Z</time>
      </trkpt>
      <trkpt lat="45.95011" lon="4.8125">
        <ele>256</ele>
        <time>2018-02-13T10:15:21Z</time>
      </trkpt>
      <trkpt lat="45.95012" lon="4.81258">
        <ele>256</ele>
        <time>2018-02-13T10:15:22Z</time>
      </trkpt>
      <trkpt lat="45.95014" lon="4.81267">
        <ele>255</ele>
        <time>2018-02-13T10:15:23Z</time>
      </trkpt>
      <trkpt lat="45.95015" lon="4.81275">
        <ele>255</ele>
        <time>2018-02-13T10:15:24Z</time>
      </trkpt>
      <trkpt lat="45.95017" lon="4.81283">
        <ele>255</ele>
        <time>2018-02-13T10:15:25Z</time>
      </trkpt>
      <trkpt lat="45.95019" lon="4.81292">
        <ele>255</ele>
        <time>2018-02-13T10:15:26Z</time>
      </trkpt>
      <trkpt lat="45.95021" lon="4.813">
        <ele>255</ele>
        <time>2018-02-13T10:15:27Z</time>
      </trkpt>
      <trkpt lat="45.95024" lon="4.81307">
        <ele>255</ele>
        <time>2018-02-13T10:15:28Z</time>
      </trkpt>
      <trkpt lat="45.95025" lon="4.81316">
        <ele>255</ele>
        <time>2018-02-13T10:15:29Z</time>
      </trkpt>
      <trkpt lat="45.95028" lon="4.81323">
        <ele>255</ele>
        <time>2018-02-13T10:15:30Z</time>
      </trkpt>
      <trkpt lat="45.9503" lon="4.81332">
        <ele>255</ele>
        <time>2018-02-13T10:15:31Z</time>
      </trkpt>
      <trkpt lat="45.95032" lon="4.8134">
        <ele>254</ele>
        <time>2018-02-13T10:15:32Z</time>
      </trkpt>
      <trkpt lat="45.95034" lon="4.81348">
        <ele>254</ele>
        <time>2018-02-13T10:15:33Z</time>
      </trkpt>
      <trkpt lat="45.95037" lon="4.81357">
        <ele>254</ele>
        <time>2018-02-13T10:15:34Z</time>
      </trkpt>
      <trkpt lat="45.95039" lon="4.81366">
        <ele>254</ele>
        <time>2018-02-13T10:15:35Z</time>
      </trkpt>
      <trkpt lat="45.95042" lon="4.81374">
        <ele>254</ele>
        <time>2018-02-13T10:15:36Z</time>
      </trkpt>
      <trkpt lat="45.95045" lon="4.81383">
        <ele>254</ele>
        <time>2018-02-13T10:15:37Z</time>
      </trkpt>
      <trkpt lat="45.95047" lon="4.81392">
        <ele>253</ele>
        <time>2018-02-13T10:15:38Z</time>
      </trkpt>
      <trkpt lat="45.9505" lon="4.81401">
        <ele>253</ele>
        <time>2018-02-13T10:15:39Z</time>
      </trkpt>
      <trkpt lat="45.95053" lon="4.8141">
        <ele>253</ele>
        <time>2018-02-13T10:15:40Z</time>
      </trkpt>
      <trkpt lat="45.95056" lon="4.81417">
        <ele>253</ele>
        <time>2018-02-13T10:15:41Z</time>
      </trkpt>
      <trkpt lat="45.95059" lon="4.81426">
        <ele>253</ele>
        <time>2018-02-13T10:15:42Z</time>
      </trkpt>
      <trkpt lat="45.95062" lon="4.81434">
        <ele>253</ele>
        <time>2018-02-13T10:15:43Z</time>
      </trkpt>
      <trkpt lat="45.95066" lon="4.81442">
        <ele>253</ele>
        <time>2018-02-13T10:15:44Z</time>
      </trkpt>
      <trkpt lat="45.95069" lon="4.8145">
        <ele>253</ele>
        <time>2018-02-13T10:15:45Z</time>
      </trkpt>
      <trkpt lat="45.95073" lon="4.81459">
        <ele>253</ele>
        <time>2018-02-13T10:15:46Z</time>
      </trkpt>
      <trkpt lat="45.95076" lon="4.81467">
        <ele>253</ele>
        <time>2018-02-13T10:15:47Z</time>
      </trkpt>
      <trkpt lat="45.9508" lon="4.81477">
        <ele>253</ele>
        <time>2018-02-13T10:15:48Z</time>
      </trkpt>
      <trkpt lat="45.95083" lon="4.81486">
        <ele>252</ele>
        <time>2018-02-13T10:15:49Z</time>
      </trkpt>
      <trkpt lat="45.95087" lon="4.81495">
        <ele>252</ele>
        <time>2018-02-13T10:15:50Z</time>
      </trkpt>
      <trkpt lat="45.9509" lon="4.81504">
        <ele>252</ele>
        <time>2018-02-13T10:15:51Z</time>
      </trkpt>
      <trkpt lat="45.95092" lon="4.81513">
        <ele>252</ele>
        <time>2018-02-13T10:15:52Z</time>
      </trkpt>
      <trkpt lat="45.95095" lon="4.81522">
        <ele>251</ele>
        <time>2018-02-13T10:15:53Z</time>
      </trkpt>
      <trkpt lat="45.95098" lon="4.81531">
        <ele>251</ele>
        <time>2018-02-13T10:15:54Z</time>
      </trkpt>
      <trkpt lat="45.95101" lon="4.8154">
        <ele>251</ele>
        <time>2018-02-13T10:15:55Z</time>
      </trkpt>
      <trkpt lat="45.95104" lon="4.81549">
        <ele>251</ele>
        <time>2018-02-13T10:15:56Z</time>
      </trkpt>
      <trkpt lat="45.95108" lon="4.81558">
        <ele>251</ele>
        <time>2018-02-13T10:15:57Z</time>
      </trkpt>
      <trkpt lat="45.9511" lon="4.81566">
        <ele>251</ele>
        <time>2018-02-13T10:15:58Z</time>
      </trkpt>
      <trkpt lat="45.95114" lon="4.81574">
        <ele>251</ele>
        <time>2018-02-13T10:15:59Z</time>
      </trkpt>
      <trkpt lat="45.95117" lon="4.81581">
        <ele>251</ele>
        <time>2018-02-13T10:16:00Z</time>
      </trkpt>
      <trkpt lat="45.95119" lon="4.81588">
        <ele>252</ele>
        <time>2018-02-13T10:16:01Z</time>
      </trkpt>
      <trkpt lat="45.95121" lon="4.81596">
        <ele>252</ele>
        <time>2018-02-13T10:16:02Z</time>
      </trkpt>
      <trkpt lat="45.95123" lon="4.81603">
        <ele>252</ele>
        <time>2018-02-13T10:16:03Z</time>
      </trkpt>
      <trkpt lat="45.95126" lon="4.81611">
        <ele>252</ele>
        <time>2018-02-13T10:16:04Z</time>
      </trkpt>
      <trkpt lat="45.95128" lon="4.81617">
        <ele>252</ele>
        <time>2018-02-13T10:16:05Z</time>
      </trkpt>
      <trkpt lat="45.9513" lon="4.81624">
        <ele>252</ele>
        <time>2018-02-13T10:16:06Z</time>
      </trkpt>
      <trkpt lat="45.95133" lon="4.81629">
        <ele>253</ele>
        <time>2018-02-13T10:16:07Z</time>
      </trkpt>
      <trkpt lat="45.95137" lon="4.81636">
        <ele>253</ele>
        <time>2018-02-13T10:16:08Z</time>
      </trkpt>
      <trkpt lat="45.95139" lon="4.81642">
        <ele>253</ele>
        <time>2018-02-13T10:16:09Z</time>
      </trkpt>
      <trkpt lat="45.95141" lon="4.81648">
        <ele>253</ele>
        <time>2018-02-13T10:16:10Z</time>
      </trkpt>
      <trkpt lat="45.95142" lon="4.81654">
        <ele>253</ele>
        <time>2018-02-13T10:16:11Z</time>
      </trkpt>
      <trkpt lat="45.95146" lon="4.81665">
        <ele>253</ele>
        <time>2018-02-13T10:16:13Z</time>
      </trkpt>
      <trkpt lat="45.95147" lon="4.81671">
        <ele>255</ele>
        <time>2018-02-13T10:16:14Z</time>
      </trkpt>
      <trkpt lat="45.95151" lon="4.81681">
        <ele>255</ele>
        <time>2018-02-13T10:16:16Z</time>
      </trkpt>
      <trkpt lat="45.95153" lon="4.81687">
        <ele>255</ele>
        <time>2018-02-13T10:16:17Z</time>
      </trkpt>
      <trkpt lat="45.95156" lon="4.81696">
        <ele>255</ele>
        <time>2018-02-13T10:16:19Z</time>
      </trkpt>
      <trkpt lat="45.95157" lon="4.817">
        <ele>255</ele>
        <time>2018-02-13T10:16:20Z</time>
      </trkpt>
      <trkpt lat="45.95161" lon="4.81708">
        <ele>255</ele>
        <time>2018-02-13T10:16:22Z</time>
      </trkpt>
      <trkpt lat="45.95162" lon="4.81712">
        <ele>256</ele>
        <time>2018-02-13T10:16:23Z</time>
      </trkpt>
      <trkpt lat="45.95165" lon="4.81722">
        <ele>256</ele>
        <time>2018-02-13T10:16:26Z</time>
      </trkpt>
      <trkpt lat="45.95165" lon="4.81725">
        <ele>256</ele>
        <time>2018-02-13T10:16:27Z</time>
      </trkpt>
      <trkpt lat="45.9517" lon="4.81733">
        <ele>257</ele>
        <time>2018-02-13T10:16:30Z</time>
      </trkpt>
      <trkpt lat="45.95172" lon="4.81737">
        <ele>257</ele>
        <time>2018-02-13T10:16:31Z</time>
      </trkpt>
      <trkpt lat="45.95177" lon="4.81746">
        <ele>257</ele>
        <time>2018-02-13T10:16:34Z</time>
      </trkpt>
      <trkpt lat="45.95179" lon="4.81749">
        <ele>257</ele>
        <time>2018-02-13T10:16:35Z</time>
      </trkpt>
      <trkpt lat="45.95184" lon="4.81759">
        <ele>258</ele>
        <time>2018-02-13T10:16:38Z</time>
      </trkpt>
      <trkpt lat="45.95186" lon="4.81762">
        <ele>258</ele>
        <time>2018-02-13T10:16:39Z</time>
      </trkpt>
      <trkpt lat="45.95191" lon="4.81771">
        <ele>258</ele>
        <time>2018-02-13T10:16:42Z</time>
      </trkpt>
      <trkpt lat="45.95192" lon="4.81774">
        <ele>258</ele>
        <time>2018-02-13T10:16:43Z</time>
      </trkpt>
      <trkpt lat="45.95197" lon="4.8178">
        <ele>258</ele>
        <time>2018-02-13T10:16:45Z</time>
      </trkpt>
      <trkpt lat="45.95199" lon="4.81783">
        <ele>258</ele>
        <time>2018-02-13T10:16:46Z</time>
      </trkpt>
      <trkpt lat="45.95206" lon="4.81791">
        <ele>259</ele>
        <time>2018-02-13T10:16:49Z</time>
      </trkpt>
      <trkpt lat="45.95208" lon="4.81794">
        <ele>259</ele>
        <time>2018-02-13T10:16:50Z</time>
      </trkpt>
      <trkpt lat="45.95214" lon="4.81803">
        <ele>259</ele>
        <time>2018-02-13T10:16:53Z</time>
      </trkpt>
      <trkpt lat="45.95216" lon="4.81806">
        <ele>259</ele>
        <time>2018-02-13T10:16:54Z</time>
      </trkpt>
      <trkpt lat="45.95221" lon="4.81815">
        <ele>259</ele>
        <time>2018-02-13T10:16:57Z</time>
      </trkpt>
      <trkpt lat="45.95223" lon="4.81818">
        <ele>259</ele>
        <time>2018-02-13T10:16:58Z</time>
      </trkpt>
      <trkpt lat="45.95229" lon="4.81827">
        <ele>259</ele>
        <time>2018-02-13T10:17:01Z</time>
      </trkpt>
      <trkpt lat="45.95231" lon="4.8183">
        <ele>259</ele>
        <time>2018-02-13T10:17:02Z</time>
      </trkpt>
      <trkpt lat="45.95235" lon="4.81837">
        <ele>260</ele>
        <time>2018-02-13T10:17:04Z</time>
      </trkpt>
      <trkpt lat="45.95238" lon="4.8184">
        <ele>260</ele>
        <time>2018-02-13T10:17:05Z</time>
      </trkpt>
      <trkpt lat="45.95242" lon="4.81847">
        <ele>260</ele>
        <time>2018-02-13T10:17:07Z</time>
      </trkpt>
      <trkpt lat="45.95245" lon="4.81851">
        <ele>260</ele>
        <time>2018-02-13T10:17:08Z</time>
      </trkpt>
      <trkpt lat="45.95249" lon="4.81858">
        <ele>260</ele>
        <time>2018-02-13T10:17:10Z</time>
      </trkpt>
      <trkpt lat="45.95252" lon="4.81862">
        <ele>260</ele>
        <time>2018-02-13T10:17:11Z</time>
      </trkpt>
      <trkpt lat="45.95257" lon="4.81869">
        <ele>260</ele>
        <time>2018-02-13T10:17:13Z</time>
      </trkpt>
      <trkpt lat="45.9526" lon="4.81873">
        <ele>260</ele>
        <time>2018-02-13T10:17:14Z</time>
      </trkpt>
      <trkpt lat="45.95265" lon="4.81881">
        <ele>260</ele>
        <time>2018-02-13T10:17:16Z</time>
      </trkpt>
      <trkpt lat="45.95267" lon="4.81885">
        <ele>260</ele>
        <time>2018-02-13T10:17:17Z</time>
      </trkpt>
      <trkpt lat="45.95272" lon="4.81892">
        <ele>260</ele>
        <time>2018-02-13T10:17:19Z</time>
      </trkpt>
      <trkpt lat="45.95274" lon="4.81895">
        <ele>260</ele>
        <time>2018-02-13T10:17:20Z</time>
      </trkpt>
      <trkpt lat="45.95279" lon="4.81901">
        <ele>260</ele>
        <time>2018-02-13T10:17:22Z</time>
      </trkpt>
      <trkpt lat="45.95282" lon="4.81905">
        <ele>260</ele>
        <time>2018-02-13T10:17:23Z</time>
      </trkpt>
      <trkpt lat="45.95288" lon="4.81913">
        <ele>260</ele>
        <time>2018-02-13T10:17:25Z</time>
      </trkpt>
      <trkpt lat="45.9529" lon="4.81916">
        <ele>260</ele>
        <time>2018-02-13T10:17:26Z</time>
      </trkpt>
      <trkpt lat="45.95296" lon="4.81925">
        <ele>261</ele>
        <time>2018-02-13T10:17:28Z</time>
      </trkpt>
      <trkpt lat="45.95299" lon="4.81929">
        <ele>261</ele>
        <time>2018-02-13T10:17:29Z</time>
      </trkpt>
      <trkpt lat="45.95304" lon="4.81936">
        <ele>261</ele>
        <time>2018-02-13T10:17:31Z</time>
      </trkpt>
      <trkpt lat="45.95307" lon="4.8194">
        <ele>261</ele>
        <time>2018-02-13T10:17:32Z</time>
      </trkpt>
      <trkpt lat="45.95313" lon="4.81948">
        <ele>262</ele>
        <time>2018-02-13T10:17:34Z</time>
      </trkpt>
      <trkpt lat="45.95316" lon="4.81952">
        <ele>262</ele>
        <time>2018-02-13T10:17:35Z</time>
      </trkpt>
      <trkpt lat="45.9532" lon="4.81956">
        <ele>262</ele>
        <time>2018-02-13T10:17:36Z</time>
      </trkpt>
      <trkpt lat="45.95325" lon="4.8196">
        <ele>262</ele>
        <time>2018-02-13T10:17:37Z</time>
      </trkpt>
      <trkpt lat="45.95329" lon="4.81963">
        <ele>262</ele>
        <time>2018-02-13T10:17:38Z</time>
      </trkpt>
      <trkpt lat="45.95333" lon="4.81967">
        <ele>262</ele>
        <time>2018-02-13T10:17:39Z</time>
      </trkpt>
      <trkpt lat="45.95336" lon="4.81971">
        <ele>261</ele>
        <time>2018-02-13T10:17:40Z</time>
      </trkpt>
      <trkpt lat="45.9534" lon="4.81976">
        <ele>262</ele>
        <time>2018-02-13T10:17:41Z</time>
      </trkpt>
      <trkpt lat="45.95344" lon="4.81979">
        <ele>262</ele>
        <time>2018-02-13T10:17:42Z</time>
      </trkpt>
      <trkpt lat="45.95348" lon="4.81983">
        <ele>262</ele>
        <time>2018-02-13T10:17:43Z</time>
      </trkpt>
      <trkpt lat="45.95355" lon="4.81989">
        <ele>262</ele>
        <time>2018-02-13T10:17:45Z</time>
      </trkpt>
      <trkpt lat="45.95359" lon="4.81993">
        <ele>261</ele>
        <time>2018-02-13T10:17:46Z</time>
      </trkpt>
      <trkpt lat="45.95365" lon="4.82001">
        <ele>262</ele>
        <time>2018-02-13T10:17:48Z</time>
      </trkpt>
      <trkpt lat="45.95368" lon="4.82004">
        <ele>262</ele>
        <time>2018-02-13T10:17:49Z</time>
      </trkpt>
      <trkpt lat="45.95371" lon="4.82008">
        <ele>262</ele>
        <time>2018-02-13T10:17:50Z</time>
      </trkpt>
      <trkpt lat="45.95376" lon="4.82012">
        <ele>262</ele>
        <time>2018-02-13T10:17:51Z</time>
      </trkpt>
      <trkpt lat="45.9538" lon="4.82016">
        <ele>262</ele>
        <time>2018-02-13T10:17:52Z</time>
      </trkpt>
      <trkpt lat="45.95384" lon="4.8202">
        <ele>262</ele>
        <time>2018-02-13T10:17:53Z</time>
      </trkpt>
      <trkpt lat="45.95388" lon="4.82024">
        <ele>261</ele>
        <time>2018-02-13T10:17:54Z</time>
      </trkpt>
      <trkpt lat="45.95392" lon="4.82027">
        <ele>261</ele>
        <time>2018-02-13T10:17:55Z</time>
      </trkpt>
      <trkpt lat="45.95396" lon="4.82032">
        <ele>261</ele>
        <time>2018-02-13T10:17:56Z</time>
      </trkpt>
      <trkpt lat="45.95399" lon="4.82036">
        <ele>261</ele>
        <time>2018-02-13T10:17:57Z</time>
      </trkpt>
      <trkpt lat="45.95403" lon="4.8204">
        <ele>261</ele>
        <time>2018-02-13T10:17:58Z</time>
      </trkpt>
      <trkpt lat="45.95407" lon="4.82044">
        <ele>261</ele>
        <time>2018-02-13T10:17:59Z</time>
      </trkpt>
      <trkpt lat="45.95414" lon="4.82051">
        <ele>261</ele>
        <time>2018-02-13T10:18:01Z</time>
      </trkpt>
      <trkpt lat="45.95418" lon="4.82055">
        <ele>260</ele>
        <time>2018-02-13T10:18:02Z</time>
      </trkpt>
      <trkpt lat="45.95425" lon="4.82062">
        <ele>260</ele>
        <time>2018-02-13T10:18:04Z</time>
      </trkpt>
      <trkpt lat="45.95429" lon="4.82066">
        <ele>260</ele>
        <time>2018-02-13T10:18:05Z</time>
      </trkpt>
      <trkpt lat="45.95432" lon="4.8207">
        <ele>260</ele>
        <time>2018-02-13T10:18:06Z</time>
      </trkpt>
      <trkpt lat="45.95437" lon="4.82074">
        <ele>260</ele>
        <time>2018-02-13T10:18:07Z</time>
      </trkpt>
      <trkpt lat="45.95441" lon="4.82079">
        <ele>260</ele>
        <time>2018-02-13T10:18:08Z</time>
      </trkpt>
      <trkpt lat="45.95444" lon="4.82082">
        <ele>260</ele>
        <time>2018-02-13T10:18:09Z</time>
      </trkpt>
      <trkpt lat="45.9545" lon="4.82085">
        <ele>260</ele>
        <time>2018-02-13T10:18:10Z</time>
      </trkpt>
      <trkpt lat="45.95454" lon="4.8209">
        <ele>260</ele>
        <time>2018-02-13T10:18:11Z</time>
      </trkpt>
      <trkpt lat="45.95458" lon="4.82093">
        <ele>260</ele>
        <time>2018-02-13T10:18:12Z</time>
      </trkpt>
      <trkpt lat="45.95463" lon="4.82097">
        <ele>260</ele>
        <time>2018-02-13T10:18:13Z</time>
      </trkpt>
      <trkpt lat="45.95468" lon="4.82101">
        <ele>260</ele>
        <time>2018-02-13T10:18:14Z</time>
      </trkpt>
      <trkpt lat="45.95472" lon="4.82106">
        <ele>260</ele>
        <time>2018-02-13T10:18:15Z</time>
      </trkpt>
      <trkpt lat="45.95478" lon="4.82113">
        <ele>260</ele>
        <time>2018-02-13T10:18:17Z</time>
      </trkpt>
      <trkpt lat="45.95481" lon="4.82117">
        <ele>260</ele>
        <time>2018-02-13T10:18:18Z</time>
      </trkpt>
      <trkpt lat="45.95485" lon="4.82121">
        <ele>260</ele>
        <time>2018-02-13T10:18:19Z</time>
      </trkpt>
      <trkpt lat="45.95488" lon="4.82125">
        <ele>260</ele>
        <time>2018-02-13T10:18:20Z</time>
      </trkpt>
      <trkpt lat="45.95492" lon="4.82129">
        <ele>260</ele>
        <time>2018-02-13T10:18:21Z</time>
      </trkpt>
      <trkpt lat="45.95495" lon="4.82134">
        <ele>260</ele>
        <time>2018-02-13T10:18:22Z</time>
      </trkpt>
      <trkpt lat="45.95499" lon="4.82138">
        <ele>260</ele>
        <time>2018-02-13T10:18:23Z</time>
      </trkpt>
      <trkpt lat="45.95503" lon="4.82143">
        <ele>259</ele>
        <time>2018-02-13T10:18:24Z</time>
      </trkpt>
      <trkpt lat="45.95507" lon="4.82148">
        <ele>259</ele>
        <time>2018-02-13T10:18:25Z</time>
      </trkpt>
      <trkpt lat="45.95511" lon="4.82152">
        <ele>259</ele>
        <time>2018-02-13T10:18:26Z</time>
      </trkpt>
      <trkpt lat="45.95516" lon="4.82156">
        <ele>259</ele>
        <time>2018-02-13T10:18:27Z</time>
      </trkpt>
      <trkpt lat="45.9552" lon="4.8216">
        <ele>259</ele>
        <time>2018-02-13T10:18:28Z</time>
      </trkpt>
      <trkpt lat="45.95524" lon="4.82164">
        <ele>259</ele>
        <time>2018-02-13T10:18:29Z</time>
      </trkpt>
      <trkpt lat="45.95527" lon="4.82169">
        <ele>259</ele>
        <time>2018-02-13T10:18:30Z</time>
      </trkpt>
      <trkpt lat="45.95531" lon="4.82173">
        <ele>259</ele>
        <time>2018-02-13T10:18:31Z</time>
      </trkpt>
      <trkpt lat="45.95536" lon="4.82177">
        <ele>259</ele>
        <time>2018-02-13T10:18:32Z</time>
      </trkpt>
      <trkpt lat="45.9554" lon="4.82181">
        <ele>259</ele>
        <time>2018-02-13T10:18:33Z</time>
      </trkpt>
      <trkpt lat="45.95545" lon="4.82184">
        <ele>259</ele>
        <time>2018-02-13T10:18:34Z</time>
      </trkpt>
      <trkpt lat="45.9555" lon="4.82187">
        <ele>259</ele>
        <time>2018-02-13T10:18:35Z</time>
      </trkpt>
      <trkpt lat="45.95554" lon="4.8219">
        <ele>259</ele>
        <time>2018-02-13T10:18:36Z</time>
      </trkpt>
      <trkpt lat="45.95559" lon="4.82194">
        <ele>259</ele>
        <time>2018-02-13T10:18:37Z</time>
      </trkpt>
      <trkpt lat="45.95563" lon="4.82197">
        <ele>258</ele>
        <time>2018-02-13T10:18:38Z</time>
      </trkpt>
      <trkpt lat="45.95566" lon="4.82201">
        <ele>258</ele>
        <time>2018-02-13T10:18:39Z</time>
      </trkpt>
      <trkpt lat="45.95571" lon="4.82206">
        <ele>258</ele>
        <time>2018-02-13T10:18:40Z</time>
      </trkpt>
      <trkpt lat="45.95576" lon="4.82211">
        <ele>258</ele>
        <time>2018-02-13T10:18:41Z</time>
      </trkpt>
      <trkpt lat="45.95582" lon="4.82215">
        <ele>258</ele>
        <time>2018-02-13T10:18:42Z</time>
      </trkpt>
      <trkpt lat="45.95587" lon="4.82219">
        <ele>257</ele>
        <time>2018-02-13T10:18:43Z</time>
      </trkpt>
      <trkpt lat="45.95592" lon="4.82223">
        <ele>257</ele>
        <time>2018-02-13T10:18:44Z</time>
      </trkpt>
      <trkpt lat="45.95599" lon="4.82225">
        <ele>257</ele>
        <time>2018-02-13T10:18:45Z</time>
      </trkpt>
      <trkpt lat="45.95605" lon="4.82227">
        <ele>257</ele>
        <time>2018-02-13T10:18:46Z</time>
      </trkpt>
      <trkpt lat="45.95611" lon="4.82228">
        <ele>257</ele>
        <time>2018-02-13T10:18:47Z</time>
      </trkpt>
      <trkpt lat="45.95617" lon="4.82228">
        <ele>257</ele>
        <time>2018-02-13T10:18:48Z</time>
      </trkpt>
      <trkpt lat="45.95624" lon="4.82229">
        <ele>257</ele>
        <time>2018-02-13T10:18:49Z</time>
      </trkpt>
      <trkpt lat="45.9563" lon="4.82228">
        <ele>257</ele>
        <time>2018-02-13T10:18:50Z</time>
      </trkpt>
      <trkpt lat="45.95636" lon="4.82228">
        <ele>257</ele>
        <time>2018-02-13T10:18:51Z</time>
      </trkpt>
      <trkpt lat="45.95642" lon="4.82228">
        <ele>257</ele>
        <time>2018-02-13T10:18:52Z</time>
      </trkpt>
      <trkpt lat="45.95649" lon="4.82227">
        <ele>257</ele>
        <time>2018-02-13T10:18:53Z</time>
      </trkpt>
      <trkpt lat="45.95655" lon="4.82228">
        <ele>257</ele>
        <time>2018-02-13T10:18:54Z</time>
      </trkpt>
      <trkpt lat="45.95661" lon="4.8223">
        <ele>257</ele>
        <time>2018-02-13T10:18:55Z</time>
      </trkpt>
      <trkpt lat="45.95667" lon="4.82232">
        <ele>255</ele>
        <time>2018-02-13T10:18:56Z</time>
      </trkpt>
      <trkpt lat="45.95674" lon="4.82235">
        <ele>255</ele>
        <time>2018-02-13T10:18:57Z</time>
      </trkpt>
      <trkpt lat="45.9568" lon="4.82238">
        <ele>255</ele>
        <time>2018-02-13T10:18:58Z</time>
      </trkpt>
      <trkpt lat="45.95686" lon="4.82241">
        <ele>255</ele>
        <time>2018-02-13T10:18:59Z</time>
      </trkpt>
      <trkpt lat="45.95692" lon="4.82247">
        <ele>255</ele>
        <time>2018-02-13T10:19:00Z</time>
      </trkpt>
      <trkpt lat="45.95698" lon="4.82254">
        <ele>255</ele>
        <time>2018-02-13T10:19:01Z</time>
      </trkpt>
      <trkpt lat="45.95704" lon="4.82259">
        <ele>255</ele>
        <time>2018-02-13T10:19:02Z</time>
      </trkpt>
      <trkpt lat="45.9571" lon="4.82265">
        <ele>255</ele>
        <time>2018-02-13T10:19:03Z</time>
      </trkpt>
      <trkpt lat="45.95714" lon="4.82271">
        <ele>255</ele>
        <time>2018-02-13T10:19:04Z</time>
      </trkpt>
      <trkpt lat="45.95718" lon="4.82277">
        <ele>255</ele>
        <time>2018-02-13T10:19:05Z</time>
      </trkpt>
      <trkpt lat="45.95723" lon="4.82282">
        <ele>255</ele>
        <time>2018-02-13T10:19:06Z</time>
      </trkpt>
      <trkpt lat="45.95728" lon="4.82287">
        <ele>255</ele>
        <time>2018-02-13T10:19:07Z</time>
      </trkpt>
      <trkpt lat="45.95736" lon="4.82293">
        <ele>255</ele>
        <time>2018-02-13T10:19:08Z</time>
      </trkpt>
      <trkpt lat="45.9574" lon="4.82298">
        <ele>255</ele>
        <time>2018-02-13T10:19:09Z</time>
      </trkpt>
      <trkpt lat="45.95745" lon="4.82303">
        <ele>255</ele>
        <time>2018-02-13T10:19:10Z</time>
      </trkpt>
      <trkpt lat="45.9575" lon="4.82308">
        <ele>252</ele>
        <time>2018-02-13T10:19:11Z</time>
      </trkpt>
      <trkpt lat="45.95755" lon="4.82314">
        <ele>253</ele>
        <time>2018-02-13T10:19:12Z</time>
      </trkpt>
      <trkpt lat="45.9576" lon="4.8232">
        <ele>253</ele>
        <time>2018-02-13T10:19:13Z</time>
      </trkpt>
      <trkpt lat="45.95765" lon="4.82326">
        <ele>253</ele>
        <time>2018-02-13T10:19:14Z</time>
      </trkpt>
      <trkpt lat="45.95771" lon="4.82333">
        <ele>254</ele>
        <time>2018-02-13T10:19:15Z</time>
      </trkpt>
      <trkpt lat="45.95776" lon="4.8234">
        <ele>253</ele>
        <time>2018-02-13T10:19:16Z</time>
      </trkpt>
      <trkpt lat="45.95783" lon="4.82345">
        <ele>253</ele>
        <time>2018-02-13T10:19:17Z</time>
      </trkpt>
      <trkpt lat="45.95789" lon="4.8235">
        <ele>253</ele>
        <time>2018-02-13T10:19:18Z</time>
      </trkpt>
      <trkpt lat="45.95796" lon="4.82355">
        <ele>252</ele>
        <time>2018-02-13T10:19:19Z</time>
      </trkpt>
      <trkpt lat="45.95802" lon="4.8236">
        <ele>252</ele>
        <time>2018-02-13T10:19:20Z</time>
      </trkpt>
      <trkpt lat="45.95809" lon="4.82364">
        <ele>252</ele>
        <time>2018-02-13T10:19:21Z</time>
      </trkpt>
      <trkpt lat="45.95816" lon="4.82366">
        <ele>252</ele>
        <time>2018-02-13T10:19:22Z</time>
      </trkpt>
      <trkpt lat="45.95823" lon="4.82369">
        <ele>251</ele>
        <time>2018-02-13T10:19:23Z</time>
      </trkpt>
      <trkpt lat="45.95831" lon="4.8237">
        <ele>251</ele>
        <time>2018-02-13T10:19:24Z</time>
      </trkpt>
      <trkpt lat="45.95841" lon="4.82371">
        <ele>246</ele>
        <time>2018-02-13T10:19:25Z</time>
      </trkpt>
      <trkpt lat="45.95849" lon="4.82372">
        <ele>246</ele>
        <time>2018-02-13T10:19:26Z</time>
      </trkpt>
      <trkpt lat="45.95858" lon="4.82373">
        <ele>245</ele>
        <time>2018-02-13T10:19:27Z</time>
      </trkpt>
      <trkpt lat="45.95865" lon="4.82374">
        <ele>245</ele>
        <time>2018-02-13T10:19:28Z</time>
      </trkpt>
      <trkpt lat="45.95874" lon="4.82374">
        <ele>244</ele>
        <time>2018-02-13T10:19:29Z</time>
      </trkpt>
      <trkpt lat="45.95882" lon="4.82374">
        <ele>244</ele>
        <time>2018-02-13T10:19:30Z</time>
      </trkpt>
      <trkpt lat="45.9589" lon="4.82374">
        <ele>243</ele>
        <time>2018-02-13T10:19:31Z</time>
      </trkpt>
      <trkpt lat="45.959" lon="4.82373">
        <ele>243</ele>
        <time>2018-02-13T10:19:32Z</time>
      </trkpt>
      <trkpt lat="45.9591" lon="4.82373">
        <ele>242</ele>
        <time>2018-02-13T10:19:33Z</time>
      </trkpt>
      <trkpt lat="45.9592" lon="4.82372">
        <ele>238</ele>
        <time>2018-02-13T10:19:34Z</time>
      </trkpt>
      <trkpt lat="45.95929" lon="4.82369">
        <ele>238</ele>
        <time>2018-02-13T10:19:35Z</time>
      </trkpt>
      <trkpt lat="45.95939" lon="4.82367">
        <ele>238</ele>
        <time>2018-02-13T10:19:36Z</time>
      </trkpt>
      <trkpt lat="45.95949" lon="4.82365">
        <ele>237</ele>
        <time>2018-02-13T10:19:37Z</time>
      </trkpt>
      <trkpt lat="45.9596" lon="4.82364">
        <ele>237</ele>
        <time>2018-02-13T10:19:38Z</time>
      </trkpt>
      <trkpt lat="45.95971" lon="4.82363">
        <ele>237</ele>
        <time>2018-02-13T10:19:39Z</time>
      </trkpt>
      <trkpt lat="45.95981" lon="4.82362">
        <ele>237</ele>
        <time>2018-02-13T10:19:40Z</time>
      </trkpt>
      <trkpt lat="45.95991" lon="4.82361">
        <ele>236</ele>
        <time>2018-02-13T10:19:41Z</time>
      </trkpt>
      <trkpt lat="45.96" lon="4.82362">
        <ele>236</ele>
        <time>2018-02-13T10:19:42Z</time>
      </trkpt>
      <trkpt lat="45.96008" lon="4.82363">
        <ele>235</ele>
        <time>2018-02-13T10:19:43Z</time>
      </trkpt>
      <trkpt lat="45.96015" lon="4.82363">
        <ele>235</ele>
        <time>2018-02-13T10:19:44Z</time>
      </trkpt>
      <trkpt lat="45.96021" lon="4.82369">
        <ele>235</ele>
        <time>2018-02-13T10:19:45Z</time>
      </trkpt>
      <trkpt lat="45.96026" lon="4.82374">
        <ele>235</ele>
        <time>2018-02-13T10:19:46Z</time>
      </trkpt>
      <trkpt lat="45.96029" lon="4.82381">
        <ele>235</ele>
        <time>2018-02-13T10:19:47Z</time>
      </trkpt>
      <trkpt lat="45.9603" lon="4.8239">
        <ele>235</ele>
        <time>2018-02-13T10:19:48Z</time>
      </trkpt>
      <trkpt lat="45.96029" lon="4.82398">
        <ele>235</ele>
        <time>2018-02-13T10:19:49Z</time>
      </trkpt>
      <trkpt lat="45.96028" lon="4.82404">
        <ele>235</ele>
        <time>2018-02-13T10:19:50Z</time>
      </trkpt>
      <trkpt lat="45.96027" lon="4.82412">
        <ele>235</ele>
        <time>2018-02-13T10:19:51Z</time>
      </trkpt>
      <trkpt lat="45.96026" lon="4.82418">
        <ele>235</ele>
        <time>2018-02-13T10:19:52Z</time>
      </trkpt>
      <trkpt lat="45.96025" lon="4.82425">
        <ele>235</ele>
        <time>2018-02-13T10:19:53Z</time>
      </trkpt>
      <trkpt lat="45.96024" lon="4.82431">
        <ele>235</ele>
        <time>2018-02-13T10:19:54Z</time>
      </trkpt>
      <trkpt lat="45.96023" lon="4.82439">
        <ele>235</ele>
        <time>2018-02-13T10:19:55Z</time>
      </trkpt>
      <trkpt lat="45.96022" lon="4.82445">
        <ele>235</ele>
        <time>2018-02-13T10:19:56Z</time>
      </trkpt>
      <trkpt lat="45.96021" lon="4.82452">
        <ele>235</ele>
        <time>2018-02-13T10:19:57Z</time>
      </trkpt>
      <trkpt lat="45.96021" lon="4.82458">
        <ele>235</ele>
        <time>2018-02-13T10:19:58Z</time>
      </trkpt>
      <trkpt lat="45.96019" lon="4.82467">
        <ele>235</ele>
        <time>2018-02-13T10:19:59Z</time>
      </trkpt>
      <trkpt lat="45.96018" lon="4.82473">
        <ele>235</ele>
        <time>2018-02-13T10:20:00Z</time>
      </trkpt>
      <trkpt lat="45.96018" lon="4.8248">
        <ele>235</ele>
        <time>2018-02-13T10:20:01Z</time>
      </trkpt>
      <trkpt lat="45.96016" lon="4.82492">
        <ele>235</ele>
        <time>2018-02-13T10:20:03Z</time>
      </trkpt>
      <trkpt lat="45.96015" lon="4.825">
        <ele>235</ele>
        <time>2018-02-13T10:20:04Z</time>
      </trkpt>
      <trkpt lat="45.96014" lon="4.82512">
        <ele>235</ele>
        <time>2018-02-13T10:20:06Z</time>
      </trkpt>
      <trkpt lat="45.96014" lon="4.82517">
        <ele>235</ele>
        <time>2018-02-13T10:20:07Z</time>
      </trkpt>
      <trkpt lat="45.96013" lon="4.82529">
        <ele>235</ele>
        <time>2018-02-13T10:20:09Z</time>
      </trkpt>
      <trkpt lat="45.96013" lon="4.82535">
        <ele>235</ele>
        <time>2018-02-13T10:20:10Z</time>
      </trkpt>
      <trkpt lat="45.96012" lon="4.82547">
        <ele>235</ele>
        <time>2018-02-13T10:20:12Z</time>
      </trkpt>
      <trkpt lat="45.96011" lon="4.82554">
        <ele>235</ele>
        <time>2018-02-13T10:20:13Z</time>
      </trkpt>
      <trkpt lat="45.96011" lon="4.8256">
        <ele>235</ele>
        <time>2018-02-13T10:20:14Z</time>
      </trkpt>
      <trkpt lat="45.96012" lon="4.82567">
        <ele>234</ele>
        <time>2018-02-13T10:20:15Z</time>
      </trkpt>
      <trkpt lat="45.96014" lon="4.82578">
        <ele>234</ele>
        <time>2018-02-13T10:20:17Z</time>
      </trkpt>
      <trkpt lat="45.96014" lon="4.82584">
        <ele>235</ele>
        <time>2018-02-13T10:20:18Z</time>
      </trkpt>
      <trkpt lat="45.96018" lon="4.82595">
        <ele>235</ele>
        <time>2018-02-13T10:20:20Z</time>
      </trkpt>
      <trkpt lat="45.9602" lon="4.826">
        <ele>235</ele>
        <time>2018-02-13T10:20:21Z</time>
      </trkpt>
      <trkpt lat="45.96024" lon="4.8261">
        <ele>235</ele>
        <time>2018-02-13T10:20:23Z</time>
      </trkpt>
      <trkpt lat="45.96026" lon="4.82615">
        <ele>235</ele>
        <time>2018-02-13T10:20:24Z</time>
      </trkpt>
      <trkpt lat="45.9603" lon="4.82626">
        <ele>235</ele>
        <time>2018-02-13T10:20:26Z</time>
      </trkpt>
      <trkpt lat="45.96033" lon="4.82632">
        <ele>235</ele>
        <time>2018-02-13T10:20:27Z</time>
      </trkpt>
      <trkpt lat="45.96035" lon="4.82638">
        <ele>235</ele>
        <time>2018-02-13T10:20:28Z</time>
      </trkpt>
      <trkpt lat="45.96038" lon="4.82643">
        <ele>235</ele>
        <time>2018-02-13T10:20:29Z</time>
      </trkpt>
      <trkpt lat="45.9604" lon="4.82648">
        <ele>235</ele>
        <time>2018-02-13T10:20:30Z</time>
      </trkpt>
      <trkpt lat="45.96042" lon="4.82654">
        <ele>235</ele>
        <time>2018-02-13T10:20:31Z</time>
      </trkpt>
      <trkpt lat="45.96045" lon="4.82661">
        <ele>235</ele>
        <time>2018-02-13T10:20:32Z</time>
      </trkpt>
      <trkpt lat="45.96047" lon="4.82667">
        <ele>236</ele>
        <time>2018-02-13T10:20:33Z</time>
      </trkpt>
      <trkpt lat="45.96049" lon="4.82673">
        <ele>236</ele>
        <time>2018-02-13T10:20:34Z</time>
      </trkpt>
      <trkpt lat="45.96052" lon="4.82678">
        <ele>236</ele>
        <time>2018-02-13T10:20:35Z</time>
      </trkpt>
      <trkpt lat="45.96055" lon="4.82689">
        <ele>236</ele>
        <time>2018-02-13T10:20:37Z</time>
      </trkpt>
      <trkpt lat="45.96057" lon="4.82693">
        <ele>237</ele>
        <time>2018-02-13T10:20:38Z</time>
      </trkpt>
      <trkpt lat="45.96061" lon="4.82704">
        <ele>237</ele>
        <time>2018-02-13T10:20:40Z</time>
      </trkpt>
      <trkpt lat="45.96064" lon="4.82708">
        <ele>237</ele>
        <time>2018-02-13T10:20:41Z</time>
      </trkpt>
      <trkpt lat="45.96066" lon="4.82719">
        <ele>237</ele>
        <time>2018-02-13T10:20:43Z</time>
      </trkpt>
      <trkpt lat="45.96068" lon="4.82725">
        <ele>237</ele>
        <time>2018-02-13T10:20:44Z</time>
      </trkpt>
      <trkpt lat="45.96071" lon="4.82736">
        <ele>237</ele>
        <time>2018-02-13T10:20:46Z</time>
      </trkpt>
      <trkpt lat="45.96072" lon="4.82742">
        <ele>237</ele>
        <time>2018-02-13T10:20:47Z</time>
      </trkpt>
      <trkpt lat="45.96074" lon="4.82748">
        <ele>237</ele>
        <time>2018-02-13T10:20:48Z</time>
      </trkpt>
      <trkpt lat="45.96076" lon="4.82755">
        <ele>237</ele>
        <time>2018-02-13T10:20:49Z</time>
      </trkpt>
      <trkpt lat="45.96079" lon="4.82761">
        <ele>238</ele>
        <time>2018-02-13T10:20:50Z</time>
      </trkpt>
      <trkpt lat="45.9608" lon="4.82767">
        <ele>238</ele>
        <time>2018-02-13T10:20:51Z</time>
      </trkpt>
      <trkpt lat="45.96082" lon="4.82773">
        <ele>238</ele>
        <time>2018-02-13T10:20:52Z</time>
      </trkpt>
      <trkpt lat="45.96085" lon="4.82778">
        <ele>237</ele>
        <time>2018-02-13T10:20:53Z</time>
      </trkpt>
      <trkpt lat="45.96087" lon="4.82785">
        <ele>237</ele>
        <time>2018-02-13T10:20:54Z</time>
      </trkpt>
      <trkpt lat="45.96089" lon="4.82791">
        <ele>237</ele>
        <time>2018-02-13T10:20:55Z</time>
      </trkpt>
      <trkpt lat="45.96091" lon="4.82803">
        <ele>237</ele>
        <time>2018-02-13T10:20:57Z</time>
      </trkpt>
      <trkpt lat="45.96092" lon="4.8281">
        <ele>237</ele>
        <time>2018-02-13T10:20:58Z</time>
      </trkpt>
      <trkpt lat="45.96094" lon="4.82822">
        <ele>237</ele>
        <time>2018-02-13T10:21:00Z</time>
      </trkpt>
      <trkpt lat="45.96096" lon="4.82829">
        <ele>237</ele>
        <time>2018-02-13T10:21:01Z</time>
      </trkpt>
      <trkpt lat="45.96099" lon="4.8284">
        <ele>237</ele>
        <time>2018-02-13T10:21:03Z</time>
      </trkpt>
      <trkpt lat="45.961" lon="4.82845">
        <ele>237</ele>
        <time>2018-02-13T10:21:04Z</time>
      </trkpt>
      <trkpt lat="45.961" lon="4.82858">
        <ele>237</ele>
        <time>2018-02-13T10:21:06Z</time>
      </trkpt>
      <trkpt lat="45.961" lon="4.82863">
        <ele>237</ele>
        <time>2018-02-13T10:21:07Z</time>
      </trkpt>
      <trkpt lat="45.96098" lon="4.82874">
        <ele>237</ele>
        <time>2018-02-13T10:21:09Z</time>
      </trkpt>
      <trkpt lat="45.96097" lon="4.8288">
        <ele>237</ele>
        <time>2018-02-13T10:21:10Z</time>
      </trkpt>
      <trkpt lat="45.96094" lon="4.8289">
        <ele>237</ele>
        <time>2018-02-13T10:21:12Z</time>
      </trkpt>
      <trkpt lat="45.96092" lon="4.82896">
        <ele>237</ele>
        <time>2018-02-13T10:21:13Z</time>
      </trkpt>
      <trkpt lat="45.9609" lon="4.82906">
        <ele>238</ele>
        <time>2018-02-13T10:21:15Z</time>
      </trkpt>
      <trkpt lat="45.96087" lon="4.82912">
        <ele>238</ele>
        <time>2018-02-13T10:21:16Z</time>
      </trkpt>
      <trkpt lat="45.96084" lon="4.82923">
        <ele>238</ele>
        <time>2018-02-13T10:21:18Z</time>
      </trkpt>
      <trkpt lat="45.96083" lon="4.8293">
        <ele>238</ele>
        <time>2018-02-13T10:21:19Z</time>
      </trkpt>
      <trkpt lat="45.96082" lon="4.82937">
        <ele>240</ele>
        <time>2018-02-13T10:21:20Z</time>
      </trkpt>
      <trkpt lat="45.96082" lon="4.82943">
        <ele>240</ele>
        <time>2018-02-13T10:21:21Z</time>
      </trkpt>
      <trkpt lat="45.96078" lon="4.82954">
        <ele>241</ele>
        <time>2018-02-13T10:21:23Z</time>
      </trkpt>
      <trkpt lat="45.96076" lon="4.82959">
        <ele>241</ele>
        <time>2018-02-13T10:21:24Z</time>
      </trkpt>
      <trkpt lat="45.96074" lon="4.82971">
        <ele>241</ele>
        <time>2018-02-13T10:21:26Z</time>
      </trkpt>
      <trkpt lat="45.96072" lon="4.82977">
        <ele>241</ele>
        <time>2018-02-13T10:21:27Z</time>
      </trkpt>
      <trkpt lat="45.96071" lon="4.82989">
        <ele>241</ele>
        <time>2018-02-13T10:21:29Z</time>
      </trkpt>
      <trkpt lat="45.9607" lon="4.82995">
        <ele>241</ele>
        <time>2018-02-13T10:21:30Z</time>
      </trkpt>
      <trkpt lat="45.96071" lon="4.83007">
        <ele>241</ele>
        <time>2018-02-13T10:21:32Z</time>
      </trkpt>
      <trkpt lat="45.96072" lon="4.83014">
        <ele>242</ele>
        <time>2018-02-13T10:21:33Z</time>
      </trkpt>
      <trkpt lat="45.96073" lon="4.83026">
        <ele>242</ele>
        <time>2018-02-13T10:21:35Z</time>
      </trkpt>
      <trkpt lat="45.96074" lon="4.83033">
        <ele>242</ele>
        <time>2018-02-13T10:21:36Z</time>
      </trkpt>
      <trkpt lat="45.96076" lon="4.83039">
        <ele>242</ele>
        <time>2018-02-13T10:21:37Z</time>
      </trkpt>
      <trkpt lat="45.96078" lon="4.83045">
        <ele>242</ele>
        <time>2018-02-13T10:21:38Z</time>
      </trkpt>
      <trkpt lat="45.96081" lon="4.83057">
        <ele>242</ele>
        <time>2018-02-13T10:21:40Z</time>
      </trkpt>
      <trkpt lat="45.96082" lon="4.83063">
        <ele>242</ele>
        <time>2018-02-13T10:21:41Z</time>
      </trkpt>
      <trkpt lat="45.96085" lon="4.83075">
        <ele>240</ele>
        <time>2018-02-13T10:21:43Z</time>
      </trkpt>
      <trkpt lat="45.96086" lon="4.83081">
        <ele>240</ele>
        <time>2018-02-13T10:21:44Z</time>
      </trkpt>
      <trkpt lat="45.96087" lon="4.83093">
        <ele>240</ele>
        <time>2018-02-13T10:21:46Z</time>
      </trkpt>
      <trkpt lat="45.96088" lon="4.83099">
        <ele>240</ele>
        <time>2018-02-13T10:21:47Z</time>
      </trkpt>
      <trkpt lat="45.9609" lon="4.83111">
        <ele>240</ele>
        <time>2018-02-13T10:21:49Z</time>
      </trkpt>
      <trkpt lat="45.9609" lon="4.83118">
        <ele>240</ele>
        <time>2018-02-13T10:21:50Z</time>
      </trkpt>
      <trkpt lat="45.9609" lon="4.83125">
        <ele>240</ele>
        <time>2018-02-13T10:21:51Z</time>
      </trkpt>
      <trkpt lat="45.9609" lon="4.83132">
        <ele>240</ele>
        <time>2018-02-13T10:21:52Z</time>
      </trkpt>
      <trkpt lat="45.96091" lon="4.83144">
        <ele>240</ele>
        <time>2018-02-13T10:21:54Z</time>
      </trkpt>
      <trkpt lat="45.96091" lon="4.83151">
        <ele>240</ele>
        <time>2018-02-13T10:21:55Z</time>
      </trkpt>
      <trkpt lat="45.96091" lon="4.83158">
        <ele>240</ele>
        <time>2018-02-13T10:21:56Z</time>
      </trkpt>
      <trkpt lat="45.96091" lon="4.83166">
        <ele>240</ele>
        <time>2018-02-13T10:21:57Z</time>
      </trkpt>
      <trkpt lat="45.96091" lon="4.83179">
        <ele>240</ele>
        <time>2018-02-13T10:21:59Z</time>
      </trkpt>
      <trkpt lat="45.96091" lon="4.83186">
        <ele>240</ele>
        <time>2018-02-13T10:22:00Z</time>
      </trkpt>
      <trkpt lat="45.96091" lon="4.83192">
        <ele>240</ele>
        <time>2018-02-13T10:22:01Z</time>
      </trkpt>
      <trkpt lat="45.96092" lon="4.83199">
        <ele>240</ele>
        <time>2018-02-13T10:22:02Z</time>
      </trkpt>
      <trkpt lat="45.96092" lon="4.83212">
        <ele>240</ele>
        <time>2018-02-13T10:22:04Z</time>
      </trkpt>
      <trkpt lat="45.96093" lon="4.83218">
        <ele>240</ele>
        <time>2018-02-13T10:22:05Z</time>
      </trkpt>
      <trkpt lat="45.96093" lon="4.83225">
        <ele>240</ele>
        <time>2018-02-13T10:22:06Z</time>
      </trkpt>
      <trkpt lat="45.96094" lon="4.83231">
        <ele>240</ele>
        <time>2018-02-13T10:22:07Z</time>
      </trkpt>
      <trkpt lat="45.96094" lon="4.83243">
        <ele>240</ele>
        <time>2018-02-13T10:22:09Z</time>
      </trkpt>
      <trkpt lat="45.96094" lon="4.8325">
        <ele>240</ele>
        <time>2018-02-13T10:22:10Z</time>
      </trkpt>
      <trkpt lat="45.96095" lon="4.83257">
        <ele>241</ele>
        <time>2018-02-13T10:22:11Z</time>
      </trkpt>
      <trkpt lat="45.96096" lon="4.83264">
        <ele>241</ele>
        <time>2018-02-13T10:22:12Z</time>
      </trkpt>
      <trkpt lat="45.96094" lon="4.83276">
        <ele>241</ele>
        <time>2018-02-13T10:22:14Z</time>
      </trkpt>
      <trkpt lat="45.96095" lon="4.83282">
        <ele>241</ele>
        <time>2018-02-13T10:22:15Z</time>
      </trkpt>
      <trkpt lat="45.96095" lon="4.83289">
        <ele>241</ele>
        <time>2018-02-13T10:22:16Z</time>
      </trkpt>
      <trkpt lat="45.96095" lon="4.83295">
        <ele>241</ele>
        <time>2018-02-13T10:22:17Z</time>
      </trkpt>
      <trkpt lat="45.96096" lon="4.83302">
        <ele>241</ele>
        <time>2018-02-13T10:22:18Z</time>
      </trkpt>
      <trkpt lat="45.96096" lon="4.83309">
        <ele>241</ele>
        <time>2018-02-13T10:22:19Z</time>
      </trkpt>
      <trkpt lat="45.96098" lon="4.83321">
        <ele>241</ele>
        <time>2018-02-13T10:22:21Z</time>
      </trkpt>
      <trkpt lat="45.96099" lon="4.83327">
        <ele>241</ele>
        <time>2018-02-13T10:22:22Z</time>
      </trkpt>
      <trkpt lat="45.96101" lon="4.8334">
        <ele>242</ele>
        <time>2018-02-13T10:22:24Z</time>
      </trkpt>
      <trkpt lat="45.96102" lon="4.83346">
        <ele>242</ele>
        <time>2018-02-13T10:22:25Z</time>
      </trkpt>
      <trkpt lat="45.96105" lon="4.83357">
        <ele>242</ele>
        <time>2018-02-13T10:22:27Z</time>
      </trkpt>
      <trkpt lat="45.96105" lon="4.83363">
        <ele>242</ele>
        <time>2018-02-13T10:22:28Z</time>
      </trkpt>
      <trkpt lat="45.96108" lon="4.83373">
        <ele>242</ele>
        <time>2018-02-13T10:22:30Z</time>
      </trkpt>
      <trkpt lat="45.9611" lon="4.83379">
        <ele>242</ele>
        <time>2018-02-13T10:22:31Z</time>
      </trkpt>
      <trkpt lat="45.96112" lon="4.8339">
        <ele>243</ele>
        <time>2018-02-13T10:22:33Z</time>
      </trkpt>
      <trkpt lat="45.96113" lon="4.83397">
        <ele>243</ele>
        <time>2018-02-13T10:22:34Z</time>
      </trkpt>
      <trkpt lat="45.96116" lon="4.83408">
        <ele>243</ele>
        <time>2018-02-13T10:22:36Z</time>
      </trkpt>
      <trkpt lat="45.96118" lon="4.83414">
        <ele>243</ele>
        <time>2018-02-13T10:22:37Z</time>
      </trkpt>
      <trkpt lat="45.9612" lon="4.83425">
        <ele>243</ele>
        <time>2018-02-13T10:22:39Z</time>
      </trkpt>
      <trkpt lat="45.96121" lon="4.83431">
        <ele>242</ele>
        <time>2018-02-13T10:22:40Z</time>
      </trkpt>
      <trkpt lat="45.96124" lon="4.83442">
        <ele>242</ele>
        <time>2018-02-13T10:22:42Z</time>
      </trkpt>
      <trkpt lat="45.96124" lon="4.83448">
        <ele>242</ele>
        <time>2018-02-13T10:22:43Z</time>
      </trkpt>
      <trkpt lat="45.96127" lon="4.83457">
        <ele>242</ele>
        <time>2018-02-13T10:22:45Z</time>
      </trkpt>
      <trkpt lat="45.96127" lon="4.83462">
        <ele>242</ele>
        <time>2018-02-13T10:22:46Z</time>
      </trkpt>
      <trkpt lat="45.96129" lon="4.83472">
        <ele>242</ele>
        <time>2018-02-13T10:22:48Z</time>
      </trkpt>
      <trkpt lat="45.9613" lon="4.83478">
        <ele>242</ele>
        <time>2018-02-13T10:22:49Z</time>
      </trkpt>
      <trkpt lat="45.96132" lon="4.83489">
        <ele>242</ele>
        <time>2018-02-13T10:22:51Z</time>
      </trkpt>
      <trkpt lat="45.96133" lon="4.83495">
        <ele>242</ele>
        <time>2018-02-13T10:22:52Z</time>
      </trkpt>
      <trkpt lat="45.96136" lon="4.83506">
        <ele>242</ele>
        <time>2018-02-13T10:22:54Z</time>
      </trkpt>
      <trkpt lat="45.96137" lon="4.83511">
        <ele>242</ele>
        <time>2018-02-13T10:22:55Z</time>
      </trkpt>
      <trkpt lat="45.96138" lon="4.83522">
        <ele>242</ele>
        <time>2018-02-13T10:22:57Z</time>
      </trkpt>
      <trkpt lat="45.96139" lon="4.83528">
        <ele>242</ele>
        <time>2018-02-13T10:22:58Z</time>
      </trkpt>
      <trkpt lat="45.96141" lon="4.83539">
        <ele>242</ele>
        <time>2018-02-13T10:23:00Z</time>
      </trkpt>
      <trkpt lat="45.96142" lon="4.83546">
        <ele>242</ele>
        <time>2018-02-13T10:23:01Z</time>
      </trkpt>
      <trkpt lat="45.96143" lon="4.83552">
        <ele>242</ele>
        <time>2018-02-13T10:23:02Z</time>
      </trkpt>
      <trkpt lat="45.96144" lon="4.8356">
        <ele>242</ele>
        <time>2018-02-13T10:23:03Z</time>
      </trkpt>
      <trkpt lat="45.96146" lon="4.83566">
        <ele>241</ele>
        <time>2018-02-13T10:23:04Z</time>
      </trkpt>
      <trkpt lat="45.96148" lon="4.83572">
        <ele>241</ele>
        <time>2018-02-13T10:23:05Z</time>
      </trkpt>
      <trkpt lat="45.9615" lon="4.83578">
        <ele>241</ele>
        <time>2018-02-13T10:23:06Z</time>
      </trkpt>
      <trkpt lat="45.96152" lon="4.83584">
        <ele>241</ele>
        <time>2018-02-13T10:23:07Z</time>
      </trkpt>
      <trkpt lat="45.96153" lon="4.8359">
        <ele>241</ele>
        <time>2018-02-13T10:23:08Z</time>
      </trkpt>
      <trkpt lat="45.96156" lon="4.83597">
        <ele>242</ele>
        <time>2018-02-13T10:23:09Z</time>
      </trkpt>
      <trkpt lat="45.96158" lon="4.83609">
        <ele>242</ele>
        <time>2018-02-13T10:23:11Z</time>
      </trkpt>
      <trkpt lat="45.96159" lon="4.83616">
        <ele>242</ele>
        <time>2018-02-13T10:23:12Z</time>
      </trkpt>
      <trkpt lat="45.96162" lon="4.83628">
        <ele>242</ele>
        <time>2018-02-13T10:23:14Z</time>
      </trkpt>
      <trkpt lat="45.96164" lon="4.83634">
        <ele>243</ele>
        <time>2018-02-13T10:23:15Z</time>
      </trkpt>
      <trkpt lat="45.96166" lon="4.8364">
        <ele>243</ele>
        <time>2018-02-13T10:23:16Z</time>
      </trkpt>
      <trkpt lat="45.96169" lon="4.83645">
        <ele>242</ele>
        <time>2018-02-13T10:23:17Z</time>
      </trkpt>
      <trkpt lat="45.96172" lon="4.83652">
        <ele>242</ele>
        <time>2018-02-13T10:23:18Z</time>
      </trkpt>
      <trkpt lat="45.96175" lon="4.83658">
        <ele>242</ele>
        <time>2018-02-13T10:23:19Z</time>
      </trkpt>
      <trkpt lat="45.96178" lon="4.83663">
        <ele>242</ele>
        <time>2018-02-13T10:23:20Z</time>
      </trkpt>
      <trkpt lat="45.96182" lon="4.83668">
        <ele>243</ele>
        <time>2018-02-13T10:23:21Z</time>
      </trkpt>
      <trkpt lat="45.96185" lon="4.83672">
        <ele>243</ele>
        <time>2018-02-13T10:23:22Z</time>
      </trkpt>
      <trkpt lat="45.96189" lon="4.83677">
        <ele>243</ele>
        <time>2018-02-13T10:23:23Z</time>
      </trkpt>
      <trkpt lat="45.96193" lon="4.83681">
        <ele>243</ele>
        <time>2018-02-13T10:23:24Z</time>
      </trkpt>
      <trkpt lat="45.96196" lon="4.83685">
        <ele>243</ele>
        <time>2018-02-13T10:23:25Z</time>
      </trkpt>
      <trkpt lat="45.96202" lon="4.83693">
        <ele>243</ele>
        <time>2018-02-13T10:23:27Z</time>
      </trkpt>
      <trkpt lat="45.96206" lon="4.83697">
        <ele>243</ele>
        <time>2018-02-13T10:23:28Z</time>
      </trkpt>
      <trkpt lat="45.96213" lon="4.83704">
        <ele>244</ele>
        <time>2018-02-13T10:23:30Z</time>
      </trkpt>
      <trkpt lat="45.96217" lon="4.83708">
        <ele>244</ele>
        <time>2018-02-13T10:23:31Z</time>
      </trkpt>
      <trkpt lat="45.96224" lon="4.83715">
        <ele>244</ele>
        <time>2018-02-13T10:23:33Z</time>
      </trkpt>
      <trkpt lat="45.96227" lon="4.83719">
        <ele>244</ele>
        <time>2018-02-13T10:23:34Z</time>
      </trkpt>
      <trkpt lat="45.96231" lon="4.83724">
        <ele>244</ele>
        <time>2018-02-13T10:23:35Z</time>
      </trkpt>
      <trkpt lat="45.96235" lon="4.83728">
        <ele>244</ele>
        <time>2018-02-13T10:23:36Z</time>
      </trkpt>
      <trkpt lat="45.96239" lon="4.83731">
        <ele>244</ele>
        <time>2018-02-13T10:23:37Z</time>
      </trkpt>
      <trkpt lat="45.96243" lon="4.83735">
        <ele>244</ele>
        <time>2018-02-13T10:23:38Z</time>
      </trkpt>
      <trkpt lat="45.96247" lon="4.8374">
        <ele>244</ele>
        <time>2018-02-13T10:23:39Z</time>
      </trkpt>
      <trkpt lat="45.96251" lon="4.83743">
        <ele>245</ele>
        <time>2018-02-13T10:23:40Z</time>
      </trkpt>
      <trkpt lat="45.96254" lon="4.83747">
        <ele>245</ele>
        <time>2018-02-13T10:23:41Z</time>
      </trkpt>
      <trkpt lat="45.96258" lon="4.83752">
        <ele>244</ele>
        <time>2018-02-13T10:23:42Z</time>
      </trkpt>
      <trkpt lat="45.96262" lon="4.83755">
        <ele>245</ele>
        <time>2018-02-13T10:23:43Z</time>
      </trkpt>
      <trkpt lat="45.96266" lon="4.83759">
        <ele>245</ele>
        <time>2018-02-13T10:23:44Z</time>
      </trkpt>
      <trkpt lat="45.9627" lon="4.83763">
        <ele>245</ele>
        <time>2018-02-13T10:23:45Z</time>
      </trkpt>
      <trkpt lat="45.96274" lon="4.83766">
        <ele>245</ele>
        <time>2018-02-13T10:23:46Z</time>
      </trkpt>
      <trkpt lat="45.96277" lon="4.83769">
        <ele>245</ele>
        <time>2018-02-13T10:23:47Z</time>
      </trkpt>
      <trkpt lat="45.96281" lon="4.83773">
        <ele>245</ele>
        <time>2018-02-13T10:23:48Z</time>
      </trkpt>
      <trkpt lat="45.96286" lon="4.83777">
        <ele>245</ele>
        <time>2018-02-13T10:23:49Z</time>
      </trkpt>
      <trkpt lat="45.9629" lon="4.8378">
        <ele>245</ele>
        <time>2018-02-13T10:23:50Z</time>
      </trkpt>
      <trkpt lat="45.96294" lon="4.83784">
        <ele>245</ele>
        <time>2018-02-13T10:23:51Z</time>
      </trkpt>
      <trkpt lat="45.96298" lon="4.83787">
        <ele>245</ele>
        <time>2018-02-13T10:23:52Z</time>
      </trkpt>
      <trkpt lat="45.96302" lon="4.83791">
        <ele>245</ele>
        <time>2018-02-13T10:23:53Z</time>
      </trkpt>
      <trkpt lat="45.96306" lon="4.83794">
        <ele>245</ele>
        <time>2018-02-13T10:23:54Z</time>
      </trkpt>
      <trkpt lat="45.96314" lon="4.838">
        <ele>245</ele>
        <time>2018-02-13T10:23:56Z</time>
      </trkpt>
      <trkpt lat="45.96317" lon="4.83803">
        <ele>245</ele>
        <time>2018-02-13T10:23:57Z</time>
      </trkpt>
      <trkpt lat="45.96325" lon="4.8381">
        <ele>244</ele>
        <time>2018-02-13T10:23:59Z</time>
      </trkpt>
      <trkpt lat="45.96329" lon="4.83814">
        <ele>244</ele>
        <time>2018-02-13T10:24:00Z</time>
      </trkpt>
      <trkpt lat="45.96333" lon="4.83817">
        <ele>244</ele>
        <time>2018-02-13T10:24:01Z</time>
      </trkpt>
      <trkpt lat="45.96336" lon="4.83821">
        <ele>245</ele>
        <time>2018-02-13T10:24:02Z</time>
      </trkpt>
      <trkpt lat="45.9634" lon="4.83825">
        <ele>245</ele>
        <time>2018-02-13T10:24:03Z</time>
      </trkpt>
      <trkpt lat="45.96344" lon="4.8383">
        <ele>245</ele>
        <time>2018-02-13T10:24:04Z</time>
      </trkpt>
      <trkpt lat="45.9635" lon="4.83838">
        <ele>245</ele>
        <time>2018-02-13T10:24:06Z</time>
      </trkpt>
      <trkpt lat="45.96354" lon="4.83843">
        <ele>246</ele>
        <time>2018-02-13T10:24:07Z</time>
      </trkpt>
      <trkpt lat="45.96357" lon="4.83849">
        <ele>246</ele>
        <time>2018-02-13T10:24:08Z</time>
      </trkpt>
      <trkpt lat="45.9636" lon="4.83854">
        <ele>246</ele>
        <time>2018-02-13T10:24:09Z</time>
      </trkpt>
      <trkpt lat="45.96363" lon="4.83859">
        <ele>247</ele>
        <time>2018-02-13T10:24:10Z</time>
      </trkpt>
      <trkpt lat="45.96366" lon="4.83865">
        <ele>247</ele>
        <time>2018-02-13T10:24:11Z</time>
      </trkpt>
      <trkpt lat="45.96369" lon="4.8387">
        <ele>247</ele>
        <time>2018-02-13T10:24:12Z</time>
      </trkpt>
      <trkpt lat="45.96372" lon="4.83875">
        <ele>247</ele>
        <time>2018-02-13T10:24:13Z</time>
      </trkpt>
      <trkpt lat="45.96376" lon="4.83886">
        <ele>248</ele>
        <time>2018-02-13T10:24:15Z</time>
      </trkpt>
      <trkpt lat="45.96378" lon="4.83891">
        <ele>248</ele>
        <time>2018-02-13T10:24:16Z</time>
      </trkpt>
      <trkpt lat="45.96384" lon="4.83901">
        <ele>248</ele>
        <time>2018-02-13T10:24:18Z</time>
      </trkpt>
      <trkpt lat="45.96386" lon="4.83906">
        <ele>248</ele>
        <time>2018-02-13T10:24:19Z</time>
      </trkpt>
      <trkpt lat="45.96388" lon="4.83912">
        <ele>248</ele>
        <time>2018-02-13T10:24:20Z</time>
      </trkpt>
      <trkpt lat="45.9639" lon="4.83917">
        <ele>251</ele>
        <time>2018-02-13T10:24:21Z</time>
      </trkpt>
      <trkpt lat="45.96395" lon="4.83926">
        <ele>251</ele>
        <time>2018-02-13T10:24:23Z</time>
      </trkpt>
      <trkpt lat="45.96398" lon="4.83931">
        <ele>251</ele>
        <time>2018-02-13T10:24:24Z</time>
      </trkpt>
      <trkpt lat="45.96402" lon="4.83941">
        <ele>251</ele>
        <time>2018-02-13T10:24:26Z</time>
      </trkpt>
      <trkpt lat="45.96404" lon="4.83947">
        <ele>252</ele>
        <time>2018-02-13T10:24:27Z</time>
      </trkpt>
      <trkpt lat="45.96409" lon="4.83953">
        <ele>252</ele>
        <time>2018-02-13T10:24:28Z</time>
      </trkpt>
      <trkpt lat="45.96411" lon="4.83959">
        <ele>252</ele>
        <time>2018-02-13T10:24:29Z</time>
      </trkpt>
      <trkpt lat="45.96413" lon="4.83965">
        <ele>252</ele>
        <time>2018-02-13T10:24:30Z</time>
      </trkpt>
      <trkpt lat="45.96416" lon="4.83971">
        <ele>253</ele>
        <time>2018-02-13T10:24:31Z</time>
      </trkpt>
      <trkpt lat="45.96419" lon="4.83976">
        <ele>250</ele>
        <time>2018-02-13T10:24:32Z</time>
      </trkpt>
      <trkpt lat="45.96423" lon="4.83982">
        <ele>251</ele>
        <time>2018-02-13T10:24:33Z</time>
      </trkpt>
      <trkpt lat="45.96427" lon="4.83991">
        <ele>251</ele>
        <time>2018-02-13T10:24:35Z</time>
      </trkpt>
      <trkpt lat="45.9643" lon="4.83995">
        <ele>251</ele>
        <time>2018-02-13T10:24:36Z</time>
      </trkpt>
      <trkpt lat="45.96432" lon="4.84005">
        <ele>252</ele>
        <time>2018-02-13T10:24:38Z</time>
      </trkpt>
      <trkpt lat="45.96434" lon="4.8401">
        <ele>252</ele>
        <time>2018-02-13T10:24:39Z</time>
      </trkpt>
      <trkpt lat="45.96438" lon="4.84019">
        <ele>251</ele>
        <time>2018-02-13T10:24:41Z</time>
      </trkpt>
      <trkpt lat="45.9644" lon="4.84023">
        <ele>251</ele>
        <time>2018-02-13T10:24:42Z</time>
      </trkpt>
      <trkpt lat="45.96443" lon="4.84033">
        <ele>251</ele>
        <time>2018-02-13T10:24:44Z</time>
      </trkpt>
      <trkpt lat="45.96445" lon="4.84037">
        <ele>251</ele>
        <time>2018-02-13T10:24:45Z</time>
      </trkpt>
      <trkpt lat="45.96449" lon="4.84047">
        <ele>251</ele>
        <time>2018-02-13T10:24:47Z</time>
      </trkpt>
      <trkpt lat="45.96451" lon="4.84052">
        <ele>251</ele>
        <time>2018-02-13T10:24:48Z</time>
      </trkpt>
      <trkpt lat="45.96455" lon="4.84063">
        <ele>251</ele>
        <time>2018-02-13T10:24:50Z</time>
      </trkpt>
      <trkpt lat="45.96456" lon="4.84068">
        <ele>251</ele>
        <time>2018-02-13T10:24:51Z</time>
      </trkpt>
      <trkpt lat="45.96459" lon="4.84078">
        <ele>251</ele>
        <time>2018-02-13T10:24:53Z</time>
      </trkpt>
      <trkpt lat="45.96461" lon="4.84083">
        <ele>251</ele>
        <time>2018-02-13T10:24:54Z</time>
      </trkpt>
      <trkpt lat="45.96464" lon="4.84093">
        <ele>251</ele>
        <time>2018-02-13T10:24:56Z</time>
      </trkpt>
      <trkpt lat="45.96466" lon="4.84098">
        <ele>251</ele>
        <time>2018-02-13T10:24:57Z</time>
      </trkpt>
      <trkpt lat="45.96469" lon="4.84108">
        <ele>251</ele>
        <time>2018-02-13T10:24:59Z</time>
      </trkpt>
      <trkpt lat="45.96471" lon="4.84112">
        <ele>251</ele>
        <time>2018-02-13T10:25:00Z</time>
      </trkpt>
      <trkpt lat="45.96475" lon="4.84121">
        <ele>251</ele>
        <time>2018-02-13T10:25:02Z</time>
      </trkpt>
      <trkpt lat="45.96477" lon="4.84126">
        <ele>251</ele>
        <time>2018-02-13T10:25:03Z</time>
      </trkpt>
      <trkpt lat="45.9648" lon="4.84136">
        <ele>251</ele>
        <time>2018-02-13T10:25:05Z</time>
      </trkpt>
      <trkpt lat="45.96481" lon="4.8414">
        <ele>251</ele>
        <time>2018-02-13T10:25:06Z</time>
      </trkpt>
      <trkpt lat="45.96484" lon="4.8415">
        <ele>251</ele>
        <time>2018-02-13T10:25:08Z</time>
      </trkpt>
      <trkpt lat="45.96485" lon="4.84155">
        <ele>250</ele>
        <time>2018-02-13T10:25:09Z</time>
      </trkpt>
      <trkpt lat="45.96487" lon="4.84165">
        <ele>250</ele>
        <time>2018-02-13T10:25:11Z</time>
      </trkpt>
      <trkpt lat="45.96488" lon="4.8417">
        <ele>250</ele>
        <time>2018-02-13T10:25:12Z</time>
      </trkpt>
      <trkpt lat="45.9649" lon="4.84181">
        <ele>251</ele>
        <time>2018-02-13T10:25:14Z</time>
      </trkpt>
      <trkpt lat="45.96491" lon="4.84186">
        <ele>251</ele>
        <time>2018-02-13T10:25:15Z</time>
      </trkpt>
      <trkpt lat="45.96493" lon="4.84197">
        <ele>251</ele>
        <time>2018-02-13T10:25:17Z</time>
      </trkpt>
      <trkpt lat="45.96493" lon="4.84203">
        <ele>251</ele>
        <time>2018-02-13T10:25:18Z</time>
      </trkpt>
      <trkpt lat="45.96495" lon="4.84215">
        <ele>252</ele>
        <time>2018-02-13T10:25:20Z</time>
      </trkpt>
      <trkpt lat="45.96496" lon="4.84221">
        <ele>252</ele>
        <time>2018-02-13T10:25:21Z</time>
      </trkpt>
      <trkpt lat="45.96498" lon="4.84233">
        <ele>251</ele>
        <time>2018-02-13T10:25:23Z</time>
      </trkpt>
      <trkpt lat="45.965" lon="4.84239">
        <ele>251</ele>
        <time>2018-02-13T10:25:24Z</time>
      </trkpt>
      <trkpt lat="45.96502" lon="4.84251">
        <ele>251</ele>
        <time>2018-02-13T10:25:26Z</time>
      </trkpt>
      <trkpt lat="45.96503" lon="4.84257">
        <ele>251</ele>
        <time>2018-02-13T10:25:27Z</time>
      </trkpt>
      <trkpt lat="45.96504" lon="4.84263">
        <ele>251</ele>
        <time>2018-02-13T10:25:28Z</time>
      </trkpt>
      <trkpt lat="45.96506" lon="4.8427">
        <ele>250</ele>
        <time>2018-02-13T10:25:29Z</time>
      </trkpt>
      <trkpt lat="45.96507" lon="4.84276">
        <ele>250</ele>
        <time>2018-02-13T10:25:30Z</time>
      </trkpt>
      <trkpt lat="45.96509" lon="4.84283">
        <ele>250</ele>
        <time>2018-02-13T10:25:31Z</time>
      </trkpt>
      <trkpt lat="45.9651" lon="4.8429">
        <ele>250</ele>
        <time>2018-02-13T10:25:32Z</time>
      </trkpt>
      <trkpt lat="45.96512" lon="4.84297">
        <ele>250</ele>
        <time>2018-02-13T10:25:33Z</time>
      </trkpt>
      <trkpt lat="45.96513" lon="4.84305">
        <ele>250</ele>
        <time>2018-02-13T10:25:34Z</time>
      </trkpt>
      <trkpt lat="45.96515" lon="4.84313">
        <ele>250</ele>
        <time>2018-02-13T10:25:35Z</time>
      </trkpt>
      <trkpt lat="45.96516" lon="4.84321">
        <ele>250</ele>
        <time>2018-02-13T10:25:36Z</time>
      </trkpt>
      <trkpt lat="45.96518" lon="4.84328">
        <ele>251</ele>
        <time>2018-02-13T10:25:37Z</time>
      </trkpt>
      <trkpt lat="45.96519" lon="4.84334">
        <ele>251</ele>
        <time>2018-02-13T10:25:38Z</time>
      </trkpt>
      <trkpt lat="45.96521" lon="4.84342">
        <ele>251</ele>
        <time>2018-02-13T10:25:39Z</time>
      </trkpt>
      <trkpt lat="45.96524" lon="4.84349">
        <ele>251</ele>
        <time>2018-02-13T10:25:40Z</time>
      </trkpt>
      <trkpt lat="45.96526" lon="4.84356">
        <ele>251</ele>
        <time>2018-02-13T10:25:41Z</time>
      </trkpt>
      <trkpt lat="45.96527" lon="4.84363">
        <ele>251</ele>
        <time>2018-02-13T10:25:42Z</time>
      </trkpt>
      <trkpt lat="45.96528" lon="4.8437">
        <ele>251</ele>
        <time>2018-02-13T10:25:43Z</time>
      </trkpt>
      <trkpt lat="45.9653" lon="4.84382">
        <ele>251</ele>
        <time>2018-02-13T10:25:45Z</time>
      </trkpt>
      <trkpt lat="45.96531" lon="4.84389">
        <ele>252</ele>
        <time>2018-02-13T10:25:46Z</time>
      </trkpt>
      <trkpt lat="45.96532" lon="4.84402">
        <ele>252</ele>
        <time>2018-02-13T10:25:48Z</time>
      </trkpt>
      <trkpt lat="45.96532" lon="4.84408">
        <ele>252</ele>
        <time>2018-02-13T10:25:49Z</time>
      </trkpt>
      <trkpt lat="45.96531" lon="4.8442">
        <ele>253</ele>
        <time>2018-02-13T10:25:51Z</time>
      </trkpt>
      <trkpt lat="45.9653" lon="4.84426">
        <ele>253</ele>
        <time>2018-02-13T10:25:52Z</time>
      </trkpt>
      <trkpt lat="45.9653" lon="4.84433">
        <ele>253</ele>
        <time>2018-02-13T10:25:53Z</time>
      </trkpt>
      <trkpt lat="45.9653" lon="4.84439">
        <ele>253</ele>
        <time>2018-02-13T10:25:54Z</time>
      </trkpt>
      <trkpt lat="45.96529" lon="4.84452">
        <ele>253</ele>
        <time>2018-02-13T10:25:56Z</time>
      </trkpt>
      <trkpt lat="45.96528" lon="4.84458">
        <ele>253</ele>
        <time>2018-02-13T10:25:57Z</time>
      </trkpt>
      <trkpt lat="45.96528" lon="4.84471">
        <ele>253</ele>
        <time>2018-02-13T10:25:59Z</time>
      </trkpt>
      <trkpt lat="45.96528" lon="4.84478">
        <ele>253</ele>
        <time>2018-02-13T10:26:00Z</time>
      </trkpt>
      <trkpt lat="45.96528" lon="4.84489">
        <ele>253</ele>
        <time>2018-02-13T10:26:02Z</time>
      </trkpt>
      <trkpt lat="45.96528" lon="4.84496">
        <ele>253</ele>
        <time>2018-02-13T10:26:03Z</time>
      </trkpt>
      <trkpt lat="45.96527" lon="4.84509">
        <ele>253</ele>
        <time>2018-02-13T10:26:05Z</time>
      </trkpt>
      <trkpt lat="45.96527" lon="4.84516">
        <ele>253</ele>
        <time>2018-02-13T10:26:06Z</time>
      </trkpt>
      <trkpt lat="45.96526" lon="4.84522">
        <ele>253</ele>
        <time>2018-02-13T10:26:07Z</time>
      </trkpt>
      <trkpt lat="45.96525" lon="4.84528">
        <ele>253</ele>
        <time>2018-02-13T10:26:08Z</time>
      </trkpt>
      <trkpt lat="45.96524" lon="4.84535">
        <ele>253</ele>
        <time>2018-02-13T10:26:09Z</time>
      </trkpt>
      <trkpt lat="45.96524" lon="4.84541">
        <ele>253</ele>
        <time>2018-02-13T10:26:10Z</time>
      </trkpt>
      <trkpt lat="45.96524" lon="4.84548">
        <ele>253</ele>
        <time>2018-02-13T10:26:11Z</time>
      </trkpt>
      <trkpt lat="45.96524" lon="4.84555">
        <ele>253</ele>
        <time>2018-02-13T10:26:12Z</time>
      </trkpt>
      <trkpt lat="45.96524" lon="4.84562">
        <ele>253</ele>
        <time>2018-02-13T10:26:13Z</time>
      </trkpt>
      <trkpt lat="45.96524" lon="4.8457">
        <ele>253</ele>
        <time>2018-02-13T10:26:14Z</time>
      </trkpt>
      <trkpt lat="45.96523" lon="4.84576">
        <ele>253</ele>
        <time>2018-02-13T10:26:15Z</time>
      </trkpt>
      <trkpt lat="45.96523" lon="4.84583">
        <ele>253</ele>
        <time>2018-02-13T10:26:16Z</time>
      </trkpt>
      <trkpt lat="45.96522" lon="4.8459">
        <ele>252</ele>
        <time>2018-02-13T10:26:17Z</time>
      </trkpt>
      <trkpt lat="45.96523" lon="4.84597">
        <ele>252</ele>
        <time>2018-02-13T10:26:18Z</time>
      </trkpt>
      <trkpt lat="45.96523" lon="4.84604">
        <ele>252</ele>
        <time>2018-02-13T10:26:19Z</time>
      </trkpt>
      <trkpt lat="45.96522" lon="4.84611">
        <ele>252</ele>
        <time>2018-02-13T10:26:20Z</time>
      </trkpt>
      <trkpt lat="45.96522" lon="4.84617">
        <ele>252</ele>
        <time>2018-02-13T10:26:21Z</time>
      </trkpt>
      <trkpt lat="45.96522" lon="4.84624">
        <ele>252</ele>
        <time>2018-02-13T10:26:22Z</time>
      </trkpt>
      <trkpt lat="45.96522" lon="4.84637">
        <ele>252</ele>
        <time>2018-02-13T10:26:24Z</time>
      </trkpt>
      <trkpt lat="45.96523" lon="4.84643">
        <ele>252</ele>
        <time>2018-02-13T10:26:25Z</time>
      </trkpt>
      <trkpt lat="45.96524" lon="4.84654">
        <ele>252</ele>
        <time>2018-02-13T10:26:27Z</time>
      </trkpt>
      <trkpt lat="45.96524" lon="4.8466">
        <ele>252</ele>
        <time>2018-02-13T10:26:28Z</time>
      </trkpt>
      <trkpt lat="45.96526" lon="4.84671">
        <ele>252</ele>
        <time>2018-02-13T10:26:30Z</time>
      </trkpt>
      <trkpt lat="45.96527" lon="4.84677">
        <ele>252</ele>
        <time>2018-02-13T10:26:31Z</time>
      </trkpt>
      <trkpt lat="45.96529" lon="4.84688">
        <ele>253</ele>
        <time>2018-02-13T10:26:33Z</time>
      </trkpt>
      <trkpt lat="45.96531" lon="4.84694">
        <ele>253</ele>
        <time>2018-02-13T10:26:34Z</time>
      </trkpt>
      <trkpt lat="45.96534" lon="4.84706">
        <ele>253</ele>
        <time>2018-02-13T10:26:36Z</time>
      </trkpt>
      <trkpt lat="45.96534" lon="4.84712">
        <ele>253</ele>
        <time>2018-02-13T10:26:37Z</time>
      </trkpt>
      <trkpt lat="45.96534" lon="4.84724">
        <ele>253</ele>
        <time>2018-02-13T10:26:39Z</time>
      </trkpt>
      <trkpt lat="45.96533" lon="4.8473">
        <ele>253</ele>
        <time>2018-02-13T10:26:40Z</time>
      </trkpt>
      <trkpt lat="45.96531" lon="4.84742">
        <ele>253</ele>
        <time>2018-02-13T10:26:42Z</time>
      </trkpt>
      <trkpt lat="45.9653" lon="4.84747">
        <ele>253</ele>
        <time>2018-02-13T10:26:43Z</time>
      </trkpt>
      <trkpt lat="45.96527" lon="4.84758">
        <ele>253</ele>
        <time>2018-02-13T10:26:45Z</time>
      </trkpt>
      <trkpt lat="45.96526" lon="4.84763">
        <ele>253</ele>
        <time>2018-02-13T10:26:46Z</time>
      </trkpt>
      <trkpt lat="45.96523" lon="4.84774">
        <ele>254</ele>
        <time>2018-02-13T10:26:48Z</time>
      </trkpt>
      <trkpt lat="45.96522" lon="4.84779">
        <ele>254</ele>
        <time>2018-02-13T10:26:49Z</time>
      </trkpt>
      <trkpt lat="45.96519" lon="4.84788">
        <ele>254</ele>
        <time>2018-02-13T10:26:51Z</time>
      </trkpt>
      <trkpt lat="45.96517" lon="4.84793">
        <ele>254</ele>
        <time>2018-02-13T10:26:52Z</time>
      </trkpt>
      <trkpt lat="45.96515" lon="4.84802">
        <ele>254</ele>
        <time>2018-02-13T10:26:54Z</time>
      </trkpt>
      <trkpt lat="45.96514" lon="4.84806">
        <ele>254</ele>
        <time>2018-02-13T10:26:55Z</time>
      </trkpt>
      <trkpt lat="45.96511" lon="4.84814">
        <ele>254</ele>
        <time>2018-02-13T10:26:57Z</time>
      </trkpt>
      <trkpt lat="45.9651" lon="4.84818">
        <ele>254</ele>
        <time>2018-02-13T10:26:58Z</time>
      </trkpt>
      <trkpt lat="45.96506" lon="4.8483">
        <ele>253</ele>
        <time>2018-02-13T10:27:01Z</time>
      </trkpt>
      <trkpt lat="45.96505" lon="4.84834">
        <ele>254</ele>
        <time>2018-02-13T10:27:02Z</time>
      </trkpt>
      <trkpt lat="45.96503" lon="4.84843">
        <ele>255</ele>
        <time>2018-02-13T10:27:04Z</time>
      </trkpt>
      <trkpt lat="45.96502" lon="4.84848">
        <ele>255</ele>
        <time>2018-02-13T10:27:05Z</time>
      </trkpt>
      <trkpt lat="45.96499" lon="4.84857">
        <ele>254</ele>
        <time>2018-02-13T10:27:07Z</time>
      </trkpt>
      <trkpt lat="45.96497" lon="4.84862">
        <ele>255</ele>
        <time>2018-02-13T10:27:08Z</time>
      </trkpt>
      <trkpt lat="45.96496" lon="4.8487">
        <ele>255</ele>
        <time>2018-02-13T10:27:10Z</time>
      </trkpt>
      <trkpt lat="45.96495" lon="4.84874">
        <ele>255</ele>
        <time>2018-02-13T10:27:11Z</time>
      </trkpt>
      <trkpt lat="45.96492" lon="4.84883">
        <ele>255</ele>
        <time>2018-02-13T10:27:13Z</time>
      </trkpt>
      <trkpt lat="45.96491" lon="4.84887">
        <ele>255</ele>
        <time>2018-02-13T10:27:14Z</time>
      </trkpt>
      <trkpt lat="45.96489" lon="4.84896">
        <ele>256</ele>
        <time>2018-02-13T10:27:16Z</time>
      </trkpt>
      <trkpt lat="45.96488" lon="4.849">
        <ele>256</ele>
        <time>2018-02-13T10:27:17Z</time>
      </trkpt>
      <trkpt lat="45.96485" lon="4.84909">
        <ele>256</ele>
        <time>2018-02-13T10:27:19Z</time>
      </trkpt>
      <trkpt lat="45.96483" lon="4.84913">
        <ele>256</ele>
        <time>2018-02-13T10:27:20Z</time>
      </trkpt>
      <trkpt lat="45.96481" lon="4.84925">
        <ele>259</ele>
        <time>2018-02-13T10:27:23Z</time>
      </trkpt>
      <trkpt lat="45.96481" lon="4.84929">
        <ele>259</ele>
        <time>2018-02-13T10:27:24Z</time>
      </trkpt>
      <trkpt lat="45.96478" lon="4.84941">
        <ele>260</ele>
        <time>2018-02-13T10:27:27Z</time>
      </trkpt>
      <trkpt lat="45.96477" lon="4.84945">
        <ele>260</ele>
        <time>2018-02-13T10:27:28Z</time>
      </trkpt>
      <trkpt lat="45.96474" lon="4.84956">
        <ele>261</ele>
        <time>2018-02-13T10:27:31Z</time>
      </trkpt>
      <trkpt lat="45.96473" lon="4.8496">
        <ele>261</ele>
        <time>2018-02-13T10:27:32Z</time>
      </trkpt>
      <trkpt lat="45.96472" lon="4.84971">
        <ele>262</ele>
        <time>2018-02-13T10:27:35Z</time>
      </trkpt>
      <trkpt lat="45.96471" lon="4.84974">
        <ele>262</ele>
        <time>2018-02-13T10:27:36Z</time>
      </trkpt>
      <trkpt lat="45.9647" lon="4.84985">
        <ele>262</ele>
        <time>2018-02-13T10:27:39Z</time>
      </trkpt>
      <trkpt lat="45.9647" lon="4.84989">
        <ele>262</ele>
        <time>2018-02-13T10:27:40Z</time>
      </trkpt>
      <trkpt lat="45.9647" lon="4.85001">
        <ele>266</ele>
        <time>2018-02-13T10:27:43Z</time>
      </trkpt>
      <trkpt lat="45.9647" lon="4.85005">
        <ele>266</ele>
        <time>2018-02-13T10:27:44Z</time>
      </trkpt>
      <trkpt lat="45.96469" lon="4.85018">
        <ele>266</ele>
        <time>2018-02-13T10:27:47Z</time>
      </trkpt>
      <trkpt lat="45.96469" lon="4.85022">
        <ele>266</ele>
        <time>2018-02-13T10:27:48Z</time>
      </trkpt>
      <trkpt lat="45.96468" lon="4.85032">
        <ele>266</ele>
        <time>2018-02-13T10:27:50Z</time>
      </trkpt>
      <trkpt lat="45.96468" lon="4.85036">
        <ele>266</ele>
        <time>2018-02-13T10:27:51Z</time>
      </trkpt>
      <trkpt lat="45.96469" lon="4.85048">
        <ele>266</ele>
        <time>2018-02-13T10:27:54Z</time>
      </trkpt>
      <trkpt lat="45.9647" lon="4.85052">
        <ele>266</ele>
        <time>2018-02-13T10:27:55Z</time>
      </trkpt>
      <trkpt lat="45.9647" lon="4.85064">
        <ele>266</ele>
        <time>2018-02-13T10:27:58Z</time>
      </trkpt>
      <trkpt lat="45.9647" lon="4.85067">
        <ele>266</ele>
        <time>2018-02-13T10:27:59Z</time>
      </trkpt>
      <trkpt lat="45.96469" lon="4.85077">
        <ele>267</ele>
        <time>2018-02-13T10:28:02Z</time>
      </trkpt>
      <trkpt lat="45.96469" lon="4.85081">
        <ele>267</ele>
        <time>2018-02-13T10:28:03Z</time>
      </trkpt>
      <trkpt lat="45.96469" lon="4.85091">
        <ele>268</ele>
        <time>2018-02-13T10:28:06Z</time>
      </trkpt>
      <trkpt lat="45.9647" lon="4.85096">
        <ele>268</ele>
        <time>2018-02-13T10:28:07Z</time>
      </trkpt>
      <trkpt lat="45.96468" lon="4.85107">
        <ele>268</ele>
        <time>2018-02-13T10:28:10Z</time>
      </trkpt>
      <trkpt lat="45.96468" lon="4.85111">
        <ele>268</ele>
        <time>2018-02-13T10:28:11Z</time>
      </trkpt>
      <trkpt lat="45.96467" lon="4.85122">
        <ele>268</ele>
        <time>2018-02-13T10:28:14Z</time>
      </trkpt>
      <trkpt lat="45.96467" lon="4.85125">
        <ele>268</ele>
        <time>2018-02-13T10:28:15Z</time>
      </trkpt>
      <trkpt lat="45.96465" lon="4.85136">
        <ele>268</ele>
        <time>2018-02-13T10:28:18Z</time>
      </trkpt>
      <trkpt lat="45.96465" lon="4.8514">
        <ele>268</ele>
        <time>2018-02-13T10:28:19Z</time>
      </trkpt>
      <trkpt lat="45.96463" lon="4.85151">
        <ele>268</ele>
        <time>2018-02-13T10:28:22Z</time>
      </trkpt>
      <trkpt lat="45.96463" lon="4.85155">
        <ele>268</ele>
        <time>2018-02-13T10:28:23Z</time>
      </trkpt>
      <trkpt lat="45.9646" lon="4.85165">
        <ele>268</ele>
        <time>2018-02-13T10:28:26Z</time>
      </trkpt>
      <trkpt lat="45.96459" lon="4.85168">
        <ele>269</ele>
        <time>2018-02-13T10:28:27Z</time>
      </trkpt>
      <trkpt lat="45.96456" lon="4.85177">
        <ele>269</ele>
        <time>2018-02-13T10:28:30Z</time>
      </trkpt>
      <trkpt lat="45.96456" lon="4.85181">
        <ele>269</ele>
        <time>2018-02-13T10:28:31Z</time>
      </trkpt>
      <trkpt lat="45.96454" lon="4.85191">
        <ele>269</ele>
        <time>2018-02-13T10:28:34Z</time>
      </trkpt>
      <trkpt lat="45.96454" lon="4.85194">
        <ele>269</ele>
        <time>2018-02-13T10:28:35Z</time>
      </trkpt>
      <trkpt lat="45.96453" lon="4.85205">
        <ele>269</ele>
        <time>2018-02-13T10:28:38Z</time>
      </trkpt>
      <trkpt lat="45.96453" lon="4.85208">
        <ele>269</ele>
        <time>2018-02-13T10:28:39Z</time>
      </trkpt>
      <trkpt lat="45.96453" lon="4.85219">
        <ele>269</ele>
        <time>2018-02-13T10:28:42Z</time>
      </trkpt>
      <trkpt lat="45.96453" lon="4.85223">
        <ele>269</ele>
        <time>2018-02-13T10:28:43Z</time>
      </trkpt>
      <trkpt lat="45.96453" lon="4.85233">
        <ele>269</ele>
        <time>2018-02-13T10:28:46Z</time>
      </trkpt>
      <trkpt lat="45.96453" lon="4.85237">
        <ele>269</ele>
        <time>2018-02-13T10:28:47Z</time>
      </trkpt>
      <trkpt lat="45.96451" lon="4.85247">
        <ele>269</ele>
        <time>2018-02-13T10:28:50Z</time>
      </trkpt>
      <trkpt lat="45.96451" lon="4.85251">
        <ele>270</ele>
        <time>2018-02-13T10:28:51Z</time>
      </trkpt>
      <trkpt lat="45.96451" lon="4.85263">
        <ele>270</ele>
        <time>2018-02-13T10:28:54Z</time>
      </trkpt>
      <trkpt lat="45.96451" lon="4.85267">
        <ele>270</ele>
        <time>2018-02-13T10:28:55Z</time>
      </trkpt>
      <trkpt lat="45.96451" lon="4.85277">
        <ele>270</ele>
        <time>2018-02-13T10:28:57Z</time>
      </trkpt>
      <trkpt lat="45.96451" lon="4.85281">
        <ele>270</ele>
        <time>2018-02-13T10:28:58Z</time>
      </trkpt>
      <trkpt lat="45.96451" lon="4.8529">
        <ele>270</ele>
        <time>2018-02-13T10:29:00Z</time>
      </trkpt>
      <trkpt lat="45.96451" lon="4.85294">
        <ele>270</ele>
        <time>2018-02-13T10:29:01Z</time>
      </trkpt>
      <trkpt lat="45.96453" lon="4.85303">
        <ele>271</ele>
        <time>2018-02-13T10:29:03Z</time>
      </trkpt>
      <trkpt lat="45.96453" lon="4.85308">
        <ele>271</ele>
        <time>2018-02-13T10:29:04Z</time>
      </trkpt>
      <trkpt lat="45.96454" lon="4.85317">
        <ele>271</ele>
        <time>2018-02-13T10:29:06Z</time>
      </trkpt>
      <trkpt lat="45.96454" lon="4.85322">
        <ele>271</ele>
        <time>2018-02-13T10:29:07Z</time>
      </trkpt>
      <trkpt lat="45.96455" lon="4.85332">
        <ele>271</ele>
        <time>2018-02-13T10:29:09Z</time>
      </trkpt>
      <trkpt lat="45.96456" lon="4.85336">
        <ele>272</ele>
        <time>2018-02-13T10:29:10Z</time>
      </trkpt>
      <trkpt lat="45.96457" lon="4.85345">
        <ele>272</ele>
        <time>2018-02-13T10:29:12Z</time>
      </trkpt>
      <trkpt lat="45.96458" lon="4.8535">
        <ele>272</ele>
        <time>2018-02-13T10:29:13Z</time>
      </trkpt>
      <trkpt lat="45.96459" lon="4.85359">
        <ele>272</ele>
        <time>2018-02-13T10:29:15Z</time>
      </trkpt>
      <trkpt lat="45.9646" lon="4.85365">
        <ele>272</ele>
        <time>2018-02-13T10:29:16Z</time>
      </trkpt>
      <trkpt lat="45.96459" lon="4.85374">
        <ele>272</ele>
        <time>2018-02-13T10:29:18Z</time>
      </trkpt>
      <trkpt lat="45.96459" lon="4.8538">
        <ele>272</ele>
        <time>2018-02-13T10:29:19Z</time>
      </trkpt>
      <trkpt lat="45.9646" lon="4.85389">
        <ele>272</ele>
        <time>2018-02-13T10:29:21Z</time>
      </trkpt>
      <trkpt lat="45.9646" lon="4.85394">
        <ele>272</ele>
        <time>2018-02-13T10:29:22Z</time>
      </trkpt>
      <trkpt lat="45.96461" lon="4.85405">
        <ele>272</ele>
        <time>2018-02-13T10:29:24Z</time>
      </trkpt>
      <trkpt lat="45.96462" lon="4.8541">
        <ele>272</ele>
        <time>2018-02-13T10:29:25Z</time>
      </trkpt>
      <trkpt lat="45.96462" lon="4.8542">
        <ele>272</ele>
        <time>2018-02-13T10:29:27Z</time>
      </trkpt>
      <trkpt lat="45.96462" lon="4.85425">
        <ele>272</ele>
        <time>2018-02-13T10:29:28Z</time>
      </trkpt>
      <trkpt lat="45.96463" lon="4.85434">
        <ele>272</ele>
        <time>2018-02-13T10:29:30Z</time>
      </trkpt>
      <trkpt lat="45.96464" lon="4.85439">
        <ele>272</ele>
        <time>2018-02-13T10:29:31Z</time>
      </trkpt>
      <trkpt lat="45.96464" lon="4.8545">
        <ele>272</ele>
        <time>2018-02-13T10:29:33Z</time>
      </trkpt>
      <trkpt lat="45.96464" lon="4.85455">
        <ele>272</ele>
        <time>2018-02-13T10:29:34Z</time>
      </trkpt>
      <trkpt lat="45.96465" lon="4.85468">
        <ele>272</ele>
        <time>2018-02-13T10:29:36Z</time>
      </trkpt>
      <trkpt lat="45.96465" lon="4.85474">
        <ele>272</ele>
        <time>2018-02-13T10:29:37Z</time>
      </trkpt>
      <trkpt lat="45.96466" lon="4.85485">
        <ele>272</ele>
        <time>2018-02-13T10:29:39Z</time>
      </trkpt>
      <trkpt lat="45.96466" lon="4.85492">
        <ele>272</ele>
        <time>2018-02-13T10:29:40Z</time>
      </trkpt>
      <trkpt lat="45.96465" lon="4.85502">
        <ele>272</ele>
        <time>2018-02-13T10:29:42Z</time>
      </trkpt>
      <trkpt lat="45.96465" lon="4.85507">
        <ele>272</ele>
        <time>2018-02-13T10:29:43Z</time>
      </trkpt>
      <trkpt lat="45.96465" lon="4.85517">
        <ele>272</ele>
        <time>2018-02-13T10:29:45Z</time>
      </trkpt>
      <trkpt lat="45.96465" lon="4.85522">
        <ele>272</ele>
        <time>2018-02-13T10:29:46Z</time>
      </trkpt>
      <trkpt lat="45.96465" lon="4.85533">
        <ele>272</ele>
        <time>2018-02-13T10:29:48Z</time>
      </trkpt>
      <trkpt lat="45.96465" lon="4.85538">
        <ele>272</ele>
        <time>2018-02-13T10:29:49Z</time>
      </trkpt>
      <trkpt lat="45.96466" lon="4.85547">
        <ele>272</ele>
        <time>2018-02-13T10:29:51Z</time>
      </trkpt>
      <trkpt lat="45.96467" lon="4.85552">
        <ele>272</ele>
        <time>2018-02-13T10:29:52Z</time>
      </trkpt>
      <trkpt lat="45.96467" lon="4.85562">
        <ele>272</ele>
        <time>2018-02-13T10:29:54Z</time>
      </trkpt>
      <trkpt lat="45.96467" lon="4.85567">
        <ele>272</ele>
        <time>2018-02-13T10:29:55Z</time>
      </trkpt>
      <trkpt lat="45.96469" lon="4.85577">
        <ele>272</ele>
        <time>2018-02-13T10:29:57Z</time>
      </trkpt>
      <trkpt lat="45.96469" lon="4.85582">
        <ele>272</ele>
        <time>2018-02-13T10:29:58Z</time>
      </trkpt>
      <trkpt lat="45.9647" lon="4.85592">
        <ele>271</ele>
        <time>2018-02-13T10:30:00Z</time>
      </trkpt>
      <trkpt lat="45.9647" lon="4.85597">
        <ele>271</ele>
        <time>2018-02-13T10:30:01Z</time>
      </trkpt>
      <trkpt lat="45.96469" lon="4.85608">
        <ele>271</ele>
        <time>2018-02-13T10:30:03Z</time>
      </trkpt>
      <trkpt lat="45.96469" lon="4.85614">
        <ele>271</ele>
        <time>2018-02-13T10:30:04Z</time>
      </trkpt>
      <trkpt lat="45.96469" lon="4.85625">
        <ele>271</ele>
        <time>2018-02-13T10:30:06Z</time>
      </trkpt>
      <trkpt lat="45.9647" lon="4.85631">
        <ele>271</ele>
        <time>2018-02-13T10:30:07Z</time>
      </trkpt>
      <trkpt lat="45.96472" lon="4.85642">
        <ele>271</ele>
        <time>2018-02-13T10:30:09Z</time>
      </trkpt>
      <trkpt lat="45.96473" lon="4.85648">
        <ele>271</ele>
        <time>2018-02-13T10:30:10Z</time>
      </trkpt>
      <trkpt lat="45.96474" lon="4.85659">
        <ele>271</ele>
        <time>2018-02-13T10:30:12Z</time>
      </trkpt>
      <trkpt lat="45.96475" lon="4.85664">
        <ele>271</ele>
        <time>2018-02-13T10:30:13Z</time>
      </trkpt>
      <trkpt lat="45.96477" lon="4.85674">
        <ele>272</ele>
        <time>2018-02-13T10:30:15Z</time>
      </trkpt>
      <trkpt lat="45.96478" lon="4.85679">
        <ele>272</ele>
        <time>2018-02-13T10:30:16Z</time>
      </trkpt>
      <trkpt lat="45.96479" lon="4.85689">
        <ele>272</ele>
        <time>2018-02-13T10:30:18Z</time>
      </trkpt>
      <trkpt lat="45.9648" lon="4.85694">
        <ele>272</ele>
        <time>2018-02-13T10:30:19Z</time>
      </trkpt>
      <trkpt lat="45.96482" lon="4.85704">
        <ele>272</ele>
        <time>2018-02-13T10:30:21Z</time>
      </trkpt>
      <trkpt lat="45.96483" lon="4.85709">
        <ele>272</ele>
        <time>2018-02-13T10:30:22Z</time>
      </trkpt>
      <trkpt lat="45.96484" lon="4.85719">
        <ele>272</ele>
        <time>2018-02-13T10:30:24Z</time>
      </trkpt>
      <trkpt lat="45.96484" lon="4.85724">
        <ele>273</ele>
        <time>2018-02-13T10:30:25Z</time>
      </trkpt>
      <trkpt lat="45.96486" lon="4.85734">
        <ele>273</ele>
        <time>2018-02-13T10:30:27Z</time>
      </trkpt>
      <trkpt lat="45.96487" lon="4.85739">
        <ele>273</ele>
        <time>2018-02-13T10:30:28Z</time>
      </trkpt>
      <trkpt lat="45.96489" lon="4.85749">
        <ele>273</ele>
        <time>2018-02-13T10:30:30Z</time>
      </trkpt>
      <trkpt lat="45.96489" lon="4.85754">
        <ele>274</ele>
        <time>2018-02-13T10:30:31Z</time>
      </trkpt>
      <trkpt lat="45.96492" lon="4.85764">
        <ele>274</ele>
        <time>2018-02-13T10:30:33Z</time>
      </trkpt>
      <trkpt lat="45.96492" lon="4.85769">
        <ele>274</ele>
        <time>2018-02-13T10:30:34Z</time>
      </trkpt>
      <trkpt lat="45.96493" lon="4.8578">
        <ele>274</ele>
        <time>2018-02-13T10:30:36Z</time>
      </trkpt>
      <trkpt lat="45.96494" lon="4.85786">
        <ele>274</ele>
        <time>2018-02-13T10:30:37Z</time>
      </trkpt>
      <trkpt lat="45.96496" lon="4.85797">
        <ele>274</ele>
        <time>2018-02-13T10:30:39Z</time>
      </trkpt>
      <trkpt lat="45.96497" lon="4.85803">
        <ele>274</ele>
        <time>2018-02-13T10:30:40Z</time>
      </trkpt>
      <trkpt lat="45.96498" lon="4.85814">
        <ele>274</ele>
        <time>2018-02-13T10:30:42Z</time>
      </trkpt>
      <trkpt lat="45.965" lon="4.85819">
        <ele>274</ele>
        <time>2018-02-13T10:30:43Z</time>
      </trkpt>
      <trkpt lat="45.965" lon="4.8583">
        <ele>275</ele>
        <time>2018-02-13T10:30:45Z</time>
      </trkpt>
      <trkpt lat="45.96501" lon="4.85835">
        <ele>275</ele>
        <time>2018-02-13T10:30:46Z</time>
      </trkpt>
      <trkpt lat="45.96503" lon="4.85847">
        <ele>275</ele>
        <time>2018-02-13T10:30:48Z</time>
      </trkpt>
      <trkpt lat="45.96504" lon="4.85852">
        <ele>275</ele>
        <time>2018-02-13T10:30:49Z</time>
      </trkpt>
      <trkpt lat="45.96505" lon="4.85864">
        <ele>275</ele>
        <time>2018-02-13T10:30:51Z</time>
      </trkpt>
      <trkpt lat="45.96506" lon="4.85869">
        <ele>275</ele>
        <time>2018-02-13T10:30:52Z</time>
      </trkpt>
      <trkpt lat="45.96508" lon="4.8588">
        <ele>275</ele>
        <time>2018-02-13T10:30:54Z</time>
      </trkpt>
      <trkpt lat="45.96508" lon="4.85885">
        <ele>275</ele>
        <time>2018-02-13T10:30:55Z</time>
      </trkpt>
      <trkpt lat="45.9651" lon="4.85896">
        <ele>275</ele>
        <time>2018-02-13T10:30:57Z</time>
      </trkpt>
      <trkpt lat="45.96511" lon="4.85901">
        <ele>275</ele>
        <time>2018-02-13T10:30:58Z</time>
      </trkpt>
      <trkpt lat="45.96514" lon="4.85911">
        <ele>275</ele>
        <time>2018-02-13T10:31:00Z</time>
      </trkpt>
      <trkpt lat="45.96515" lon="4.85916">
        <ele>275</ele>
        <time>2018-02-13T10:31:01Z</time>
      </trkpt>
      <trkpt lat="45.96518" lon="4.85927">
        <ele>275</ele>
        <time>2018-02-13T10:31:03Z</time>
      </trkpt>
      <trkpt lat="45.96519" lon="4.85932">
        <ele>275</ele>
        <time>2018-02-13T10:31:04Z</time>
      </trkpt>
      <trkpt lat="45.96523" lon="4.85942">
        <ele>275</ele>
        <time>2018-02-13T10:31:06Z</time>
      </trkpt>
      <trkpt lat="45.96525" lon="4.85947">
        <ele>275</ele>
        <time>2018-02-13T10:31:07Z</time>
      </trkpt>
      <trkpt lat="45.9653" lon="4.85957">
        <ele>275</ele>
        <time>2018-02-13T10:31:09Z</time>
      </trkpt>
      <trkpt lat="45.96532" lon="4.85962">
        <ele>275</ele>
        <time>2018-02-13T10:31:10Z</time>
      </trkpt>
      <trkpt lat="45.96537" lon="4.8597">
        <ele>275</ele>
        <time>2018-02-13T10:31:12Z</time>
      </trkpt>
      <trkpt lat="45.96539" lon="4.85974">
        <ele>275</ele>
        <time>2018-02-13T10:31:13Z</time>
      </trkpt>
      <trkpt lat="45.96543" lon="4.85982">
        <ele>275</ele>
        <time>2018-02-13T10:31:15Z</time>
      </trkpt>
      <trkpt lat="45.96545" lon="4.85986">
        <ele>275</ele>
        <time>2018-02-13T10:31:16Z</time>
      </trkpt>
      <trkpt lat="45.96549" lon="4.85995">
        <ele>276</ele>
        <time>2018-02-13T10:31:18Z</time>
      </trkpt>
      <trkpt lat="45.96551" lon="4.85999">
        <ele>276</ele>
        <time>2018-02-13T10:31:19Z</time>
      </trkpt>
      <trkpt lat="45.96555" lon="4.86007">
        <ele>276</ele>
        <time>2018-02-13T10:31:21Z</time>
      </trkpt>
      <trkpt lat="45.96557" lon="4.86011">
        <ele>276</ele>
        <time>2018-02-13T10:31:22Z</time>
      </trkpt>
      <trkpt lat="45.96562" lon="4.86017">
        <ele>276</ele>
        <time>2018-02-13T10:31:24Z</time>
      </trkpt>
      <trkpt lat="45.96564" lon="4.86021">
        <ele>276</ele>
        <time>2018-02-13T10:31:25Z</time>
      </trkpt>
      <trkpt lat="45.96568" lon="4.8603">
        <ele>276</ele>
        <time>2018-02-13T10:31:27Z</time>
      </trkpt>
      <trkpt lat="45.96569" lon="4.86034">
        <ele>276</ele>
        <time>2018-02-13T10:31:28Z</time>
      </trkpt>
      <trkpt lat="45.96573" lon="4.86041">
        <ele>276</ele>
        <time>2018-02-13T10:31:30Z</time>
      </trkpt>
      <trkpt lat="45.96575" lon="4.86044">
        <ele>276</ele>
        <time>2018-02-13T10:31:31Z</time>
      </trkpt>
      <trkpt lat="45.96579" lon="4.86051">
        <ele>277</ele>
        <time>2018-02-13T10:31:33Z</time>
      </trkpt>
      <trkpt lat="45.96581" lon="4.86055">
        <ele>277</ele>
        <time>2018-02-13T10:31:34Z</time>
      </trkpt>
      <trkpt lat="45.96584" lon="4.86062">
        <ele>280</ele>
        <time>2018-02-13T10:31:36Z</time>
      </trkpt>
      <trkpt lat="45.96586" lon="4.86066">
        <ele>279</ele>
        <time>2018-02-13T10:31:37Z</time>
      </trkpt>
      <trkpt lat="45.96589" lon="4.86074">
        <ele>279</ele>
        <time>2018-02-13T10:31:39Z</time>
      </trkpt>
      <trkpt lat="45.9659" lon="4.86078">
        <ele>279</ele>
        <time>2018-02-13T10:31:40Z</time>
      </trkpt>
      <trkpt lat="45.96593" lon="4.86086">
        <ele>279</ele>
        <time>2018-02-13T10:31:42Z</time>
      </trkpt>
      <trkpt lat="45.96594" lon="4.86091">
        <ele>280</ele>
        <time>2018-02-13T10:31:43Z</time>
      </trkpt>
      <trkpt lat="45.96595" lon="4.86099">
        <ele>280</ele>
        <time>2018-02-13T10:31:45Z</time>
      </trkpt>
      <trkpt lat="45.96595" lon="4.86104">
        <ele>280</ele>
        <time>2018-02-13T10:31:46Z</time>
      </trkpt>
      <trkpt lat="45.96596" lon="4.86112">
        <ele>281</ele>
        <time>2018-02-13T10:31:48Z</time>
      </trkpt>
      <trkpt lat="45.96596" lon="4.86117">
        <ele>281</ele>
        <time>2018-02-13T10:31:49Z</time>
      </trkpt>
      <trkpt lat="45.96596" lon="4.86125">
        <ele>281</ele>
        <time>2018-02-13T10:31:51Z</time>
      </trkpt>
      <trkpt lat="45.96595" lon="4.8613">
        <ele>281</ele>
        <time>2018-02-13T10:31:52Z</time>
      </trkpt>
      <trkpt lat="45.96595" lon="4.86139">
        <ele>281</ele>
        <time>2018-02-13T10:31:54Z</time>
      </trkpt>
      <trkpt lat="45.96594" lon="4.86143">
        <ele>281</ele>
        <time>2018-02-13T10:31:55Z</time>
      </trkpt>
      <trkpt lat="45.96593" lon="4.86152">
        <ele>281</ele>
        <time>2018-02-13T10:31:57Z</time>
      </trkpt>
      <trkpt lat="45.96593" lon="4.86156">
        <ele>281</ele>
        <time>2018-02-13T10:31:58Z</time>
      </trkpt>
      <trkpt lat="45.96592" lon="4.86165">
        <ele>281</ele>
        <time>2018-02-13T10:32:00Z</time>
      </trkpt>
      <trkpt lat="45.96591" lon="4.86169">
        <ele>281</ele>
        <time>2018-02-13T10:32:01Z</time>
      </trkpt>
      <trkpt lat="45.96588" lon="4.8618">
        <ele>281</ele>
        <time>2018-02-13T10:32:04Z</time>
      </trkpt>
      <trkpt lat="45.96588" lon="4.86184">
        <ele>281</ele>
        <time>2018-02-13T10:32:05Z</time>
      </trkpt>
      <trkpt lat="45.96587" lon="4.86196">
        <ele>282</ele>
        <time>2018-02-13T10:32:08Z</time>
      </trkpt>
      <trkpt lat="45.96586" lon="4.862">
        <ele>282</ele>
        <time>2018-02-13T10:32:09Z</time>
      </trkpt>
      <trkpt lat="45.96584" lon="4.86211">
        <ele>282</ele>
        <time>2018-02-13T10:32:12Z</time>
      </trkpt>
      <trkpt lat="45.96584" lon="4.86215">
        <ele>282</ele>
        <time>2018-02-13T10:32:13Z</time>
      </trkpt>
      <trkpt lat="45.96582" lon="4.86226">
        <ele>280</ele>
        <time>2018-02-13T10:32:16Z</time>
      </trkpt>
      <trkpt lat="45.96582" lon="4.8623">
        <ele>280</ele>
        <time>2018-02-13T10:32:17Z</time>
      </trkpt>
      <trkpt lat="45.96581" lon="4.86241">
        <ele>280</ele>
        <time>2018-02-13T10:32:20Z</time>
      </trkpt>
      <trkpt lat="45.9658" lon="4.86244">
        <ele>281</ele>
        <time>2018-02-13T10:32:21Z</time>
      </trkpt>
      <trkpt lat="45.96579" lon="4.86256">
        <ele>281</ele>
        <time>2018-02-13T10:32:25Z</time>
      </trkpt>
      <trkpt lat="45.96578" lon="4.86259">
        <ele>281</ele>
        <time>2018-02-13T10:32:26Z</time>
      </trkpt>
      <trkpt lat="45.96578" lon="4.86272">
        <ele>282</ele>
        <time>2018-02-13T10:32:30Z</time>
      </trkpt>
      <trkpt lat="45.96578" lon="4.86275">
        <ele>282</ele>
        <time>2018-02-13T10:32:31Z</time>
      </trkpt>
      <trkpt lat="45.96578" lon="4.86286">
        <ele>282</ele>
        <time>2018-02-13T10:32:34Z</time>
      </trkpt>
      <trkpt lat="45.96578" lon="4.86289">
        <ele>282</ele>
        <time>2018-02-13T10:32:35Z</time>
      </trkpt>
      <trkpt lat="45.96578" lon="4.86299">
        <ele>282</ele>
        <time>2018-02-13T10:32:38Z</time>
      </trkpt>
      <trkpt lat="45.96577" lon="4.86302">
        <ele>283</ele>
        <time>2018-02-13T10:32:39Z</time>
      </trkpt>
      <trkpt lat="45.96577" lon="4.86312">
        <ele>283</ele>
        <time>2018-02-13T10:32:42Z</time>
      </trkpt>
      <trkpt lat="45.96577" lon="4.86316">
        <ele>283</ele>
        <time>2018-02-13T10:32:43Z</time>
      </trkpt>
      <trkpt lat="45.96577" lon="4.86325">
        <ele>284</ele>
        <time>2018-02-13T10:32:46Z</time>
      </trkpt>
      <trkpt lat="45.96577" lon="4.86329">
        <ele>284</ele>
        <time>2018-02-13T10:32:47Z</time>
      </trkpt>
      <trkpt lat="45.96577" lon="4.86339">
        <ele>285</ele>
        <time>2018-02-13T10:32:50Z</time>
      </trkpt>
      <trkpt lat="45.96578" lon="4.86342">
        <ele>285</ele>
        <time>2018-02-13T10:32:51Z</time>
      </trkpt>
      <trkpt lat="45.96577" lon="4.86353">
        <ele>285</ele>
        <time>2018-02-13T10:32:55Z</time>
      </trkpt>
      <trkpt lat="45.96577" lon="4.86357">
        <ele>285</ele>
        <time>2018-02-13T10:32:56Z</time>
      </trkpt>
      <trkpt lat="45.96577" lon="4.86367">
        <ele>286</ele>
        <time>2018-02-13T10:32:59Z</time>
      </trkpt>
      <trkpt lat="45.96577" lon="4.86371">
        <ele>286</ele>
        <time>2018-02-13T10:33:00Z</time>
      </trkpt>
      <trkpt lat="45.96576" lon="4.86382">
        <ele>286</ele>
        <time>2018-02-13T10:33:03Z</time>
      </trkpt>
      <trkpt lat="45.96576" lon="4.86385">
        <ele>287</ele>
        <time>2018-02-13T10:33:04Z</time>
      </trkpt>
      <trkpt lat="45.96576" lon="4.86396">
        <ele>287</ele>
        <time>2018-02-13T10:33:07Z</time>
      </trkpt>
      <trkpt lat="45.96576" lon="4.86399">
        <ele>287</ele>
        <time>2018-02-13T10:33:08Z</time>
      </trkpt>
      <trkpt lat="45.96576" lon="4.86409">
        <ele>288</ele>
        <time>2018-02-13T10:33:11Z</time>
      </trkpt>
      <trkpt lat="45.96576" lon="4.86413">
        <ele>289</ele>
        <time>2018-02-13T10:33:12Z</time>
      </trkpt>
      <trkpt lat="45.96577" lon="4.86424">
        <ele>289</ele>
        <time>2018-02-13T10:33:15Z</time>
      </trkpt>
      <trkpt lat="45.96577" lon="4.86427">
        <ele>289</ele>
        <time>2018-02-13T10:33:16Z</time>
      </trkpt>
      <trkpt lat="45.96578" lon="4.86438">
        <ele>289</ele>
        <time>2018-02-13T10:33:19Z</time>
      </trkpt>
      <trkpt lat="45.96578" lon="4.86441">
        <ele>289</ele>
        <time>2018-02-13T10:33:20Z</time>
      </trkpt>
      <trkpt lat="45.96577" lon="4.86451">
        <ele>289</ele>
        <time>2018-02-13T10:33:23Z</time>
      </trkpt>
      <trkpt lat="45.96577" lon="4.86455">
        <ele>289</ele>
        <time>2018-02-13T10:33:24Z</time>
      </trkpt>
      <trkpt lat="45.96579" lon="4.86466">
        <ele>289</ele>
        <time>2018-02-13T10:33:27Z</time>
      </trkpt>
      <trkpt lat="45.96579" lon="4.86469">
        <ele>289</ele>
        <time>2018-02-13T10:33:28Z</time>
      </trkpt>
      <trkpt lat="45.96581" lon="4.86479">
        <ele>290</ele>
        <time>2018-02-13T10:33:31Z</time>
      </trkpt>
      <trkpt lat="45.96581" lon="4.86482">
        <ele>290</ele>
        <time>2018-02-13T10:33:32Z</time>
      </trkpt>
      <trkpt lat="45.96584" lon="4.86493">
        <ele>292</ele>
        <time>2018-02-13T10:33:35Z</time>
      </trkpt>
      <trkpt lat="45.96586" lon="4.86496">
        <ele>292</ele>
        <time>2018-02-13T10:33:36Z</time>
      </trkpt>
      <trkpt lat="45.96592" lon="4.86504">
        <ele>292</ele>
        <time>2018-02-13T10:33:39Z</time>
      </trkpt>
      <trkpt lat="45.96595" lon="4.86507">
        <ele>291</ele>
        <time>2018-02-13T10:33:40Z</time>
      </trkpt>
      <trkpt lat="45.96599" lon="4.86513">
        <ele>291</ele>
        <time>2018-02-13T10:33:42Z</time>
      </trkpt>
      <trkpt lat="45.96602" lon="4.86515">
        <ele>291</ele>
        <time>2018-02-13T10:33:43Z</time>
      </trkpt>
      <trkpt lat="45.96607" lon="4.86521">
        <ele>291</ele>
        <time>2018-02-13T10:33:45Z</time>
      </trkpt>
      <trkpt lat="45.9661" lon="4.86523">
        <ele>291</ele>
        <time>2018-02-13T10:33:46Z</time>
      </trkpt>
      <trkpt lat="45.96615" lon="4.86528">
        <ele>291</ele>
        <time>2018-02-13T10:33:48Z</time>
      </trkpt>
      <trkpt lat="45.96618" lon="4.8653">
        <ele>291</ele>
        <time>2018-02-13T10:33:49Z</time>
      </trkpt>
      <trkpt lat="45.96624" lon="4.86534">
        <ele>291</ele>
        <time>2018-02-13T10:33:51Z</time>
      </trkpt>
      <trkpt lat="45.96627" lon="4.86537">
        <ele>291</ele>
        <time>2018-02-13T10:33:52Z</time>
      </trkpt>
      <trkpt lat="45.96632" lon="4.86542">
        <ele>291</ele>
        <time>2018-02-13T10:33:54Z</time>
      </trkpt>
      <trkpt lat="45.96635" lon="4.86544">
        <ele>291</ele>
        <time>2018-02-13T10:33:55Z</time>
      </trkpt>
      <trkpt lat="45.96642" lon="4.86551">
        <ele>291</ele>
        <time>2018-02-13T10:33:58Z</time>
      </trkpt>
      <trkpt lat="45.96645" lon="4.86554">
        <ele>291</ele>
        <time>2018-02-13T10:33:59Z</time>
      </trkpt>
      <trkpt lat="45.96651" lon="4.86558">
        <ele>291</ele>
        <time>2018-02-13T10:34:01Z</time>
      </trkpt>
      <trkpt lat="45.96654" lon="4.86561">
        <ele>290</ele>
        <time>2018-02-13T10:34:02Z</time>
      </trkpt>
      <trkpt lat="45.9666" lon="4.86568">
        <ele>290</ele>
        <time>2018-02-13T10:34:04Z</time>
      </trkpt>
      <trkpt lat="45.96663" lon="4.86571">
        <ele>290</ele>
        <time>2018-02-13T10:34:05Z</time>
      </trkpt>
      <trkpt lat="45.96669" lon="4.86578">
        <ele>290</ele>
        <time>2018-02-13T10:34:07Z</time>
      </trkpt>
      <trkpt lat="45.96672" lon="4.86581">
        <ele>290</ele>
        <time>2018-02-13T10:34:08Z</time>
      </trkpt>
      <trkpt lat="45.96679" lon="4.86588">
        <ele>290</ele>
        <time>2018-02-13T10:34:10Z</time>
      </trkpt>
      <trkpt lat="45.96682" lon="4.86591">
        <ele>290</ele>
        <time>2018-02-13T10:34:11Z</time>
      </trkpt>
      <trkpt lat="45.96689" lon="4.86599">
        <ele>290</ele>
        <time>2018-02-13T10:34:13Z</time>
      </trkpt>
      <trkpt lat="45.96692" lon="4.86603">
        <ele>290</ele>
        <time>2018-02-13T10:34:14Z</time>
      </trkpt>
      <trkpt lat="45.96696" lon="4.86606">
        <ele>290</ele>
        <time>2018-02-13T10:34:15Z</time>
      </trkpt>
      <trkpt lat="45.967" lon="4.8661">
        <ele>290</ele>
        <time>2018-02-13T10:34:16Z</time>
      </trkpt>
      <trkpt lat="45.96708" lon="4.86616">
        <ele>290</ele>
        <time>2018-02-13T10:34:18Z</time>
      </trkpt>
      <trkpt lat="45.96712" lon="4.86619">
        <ele>290</ele>
        <time>2018-02-13T10:34:19Z</time>
      </trkpt>
      <trkpt lat="45.96715" lon="4.86622">
        <ele>290</ele>
        <time>2018-02-13T10:34:20Z</time>
      </trkpt>
      <trkpt lat="45.9672" lon="4.86625">
        <ele>290</ele>
        <time>2018-02-13T10:34:21Z</time>
      </trkpt>
      <trkpt lat="45.96724" lon="4.86627">
        <ele>290</ele>
        <time>2018-02-13T10:34:22Z</time>
      </trkpt>
      <trkpt lat="45.96728" lon="4.86629">
        <ele>290</ele>
        <time>2018-02-13T10:34:23Z</time>
      </trkpt>
      <trkpt lat="45.96732" lon="4.86632">
        <ele>290</ele>
        <time>2018-02-13T10:34:24Z</time>
      </trkpt>
      <trkpt lat="45.96737" lon="4.86636">
        <ele>290</ele>
        <time>2018-02-13T10:34:25Z</time>
      </trkpt>
      <trkpt lat="45.9674" lon="4.86641">
        <ele>290</ele>
        <time>2018-02-13T10:34:26Z</time>
      </trkpt>
      <trkpt lat="45.96742" lon="4.86648">
        <ele>290</ele>
        <time>2018-02-13T10:34:27Z</time>
      </trkpt>
      <trkpt lat="45.96742" lon="4.86654">
        <ele>290</ele>
        <time>2018-02-13T10:34:28Z</time>
      </trkpt>
      <trkpt lat="45.96741" lon="4.86661">
        <ele>290</ele>
        <time>2018-02-13T10:34:29Z</time>
      </trkpt>
      <trkpt lat="45.96739" lon="4.86667">
        <ele>290</ele>
        <time>2018-02-13T10:34:30Z</time>
      </trkpt>
      <trkpt lat="45.96736" lon="4.86672">
        <ele>290</ele>
        <time>2018-02-13T10:34:31Z</time>
      </trkpt>
      <trkpt lat="45.96733" lon="4.86677">
        <ele>290</ele>
        <time>2018-02-13T10:34:32Z</time>
      </trkpt>
      <trkpt lat="45.96729" lon="4.86682">
        <ele>289</ele>
        <time>2018-02-13T10:34:33Z</time>
      </trkpt>
      <trkpt lat="45.96725" lon="4.86688">
        <ele>289</ele>
        <time>2018-02-13T10:34:34Z</time>
      </trkpt>
      <trkpt lat="45.96722" lon="4.86692">
        <ele>289</ele>
        <time>2018-02-13T10:34:35Z</time>
      </trkpt>
      <trkpt lat="45.96719" lon="4.86696">
        <ele>289</ele>
        <time>2018-02-13T10:34:36Z</time>
      </trkpt>
      <trkpt lat="45.96715" lon="4.86701">
        <ele>289</ele>
        <time>2018-02-13T10:34:37Z</time>
      </trkpt>
      <trkpt lat="45.9671" lon="4.86711">
        <ele>289</ele>
        <time>2018-02-13T10:34:39Z</time>
      </trkpt>
      <trkpt lat="45.96707" lon="4.86717">
        <ele>289</ele>
        <time>2018-02-13T10:34:40Z</time>
      </trkpt>
      <trkpt lat="45.96703" lon="4.86726">
        <ele>289</ele>
        <time>2018-02-13T10:34:42Z</time>
      </trkpt>
      <trkpt lat="45.96701" lon="4.8673">
        <ele>289</ele>
        <time>2018-02-13T10:34:43Z</time>
      </trkpt>
      <trkpt lat="45.96695" lon="4.8674">
        <ele>289</ele>
        <time>2018-02-13T10:34:45Z</time>
      </trkpt>
      <trkpt lat="45.96692" lon="4.86745">
        <ele>289</ele>
        <time>2018-02-13T10:34:46Z</time>
      </trkpt>
      <trkpt lat="45.96687" lon="4.86753">
        <ele>289</ele>
        <time>2018-02-13T10:34:48Z</time>
      </trkpt>
      <trkpt lat="45.96684" lon="4.86758">
        <ele>289</ele>
        <time>2018-02-13T10:34:49Z</time>
      </trkpt>
      <trkpt lat="45.96678" lon="4.86766">
        <ele>289</ele>
        <time>2018-02-13T10:34:51Z</time>
      </trkpt>
      <trkpt lat="45.96675" lon="4.86771">
        <ele>289</ele>
        <time>2018-02-13T10:34:52Z</time>
      </trkpt>
      <trkpt lat="45.9667" lon="4.86781">
        <ele>289</ele>
        <time>2018-02-13T10:34:54Z</time>
      </trkpt>
      <trkpt lat="45.96667" lon="4.86786">
        <ele>289</ele>
        <time>2018-02-13T10:34:55Z</time>
      </trkpt>
      <trkpt lat="45.96663" lon="4.86791">
        <ele>288</ele>
        <time>2018-02-13T10:34:56Z</time>
      </trkpt>
      <trkpt lat="45.9666" lon="4.86795">
        <ele>288</ele>
        <time>2018-02-13T10:34:57Z</time>
      </trkpt>
      <trkpt lat="45.96655" lon="4.86805">
        <ele>288</ele>
        <time>2018-02-13T10:34:59Z</time>
      </trkpt>
      <trkpt lat="45.96652" lon="4.8681">
        <ele>288</ele>
        <time>2018-02-13T10:35:00Z</time>
      </trkpt>
      <trkpt lat="45.96647" lon="4.86819">
        <ele>288</ele>
        <time>2018-02-13T10:35:02Z</time>
      </trkpt>
      <trkpt lat="45.96644" lon="4.86823">
        <ele>288</ele>
        <time>2018-02-13T10:35:03Z</time>
      </trkpt>
      <trkpt lat="45.96639" lon="4.86831">
        <ele>288</ele>
        <time>2018-02-13T10:35:05Z</time>
      </trkpt>
      <trkpt lat="45.96635" lon="4.86836">
        <ele>287</ele>
        <time>2018-02-13T10:35:06Z</time>
      </trkpt>
      <trkpt lat="45.96629" lon="4.86843">
        <ele>287</ele>
        <time>2018-02-13T10:35:08Z</time>
      </trkpt>
      <trkpt lat="45.96627" lon="4.86849">
        <ele>287</ele>
        <time>2018-02-13T10:35:09Z</time>
      </trkpt>
      <trkpt lat="45.96621" lon="4.86859">
        <ele>287</ele>
        <time>2018-02-13T10:35:11Z</time>
      </trkpt>
      <trkpt lat="45.96618" lon="4.86863">
        <ele>287</ele>
        <time>2018-02-13T10:35:12Z</time>
      </trkpt>
      <trkpt lat="45.96613" lon="4.86871">
        <ele>287</ele>
        <time>2018-02-13T10:35:14Z</time>
      </trkpt>
      <trkpt lat="45.9661" lon="4.86876">
        <ele>287</ele>
        <time>2018-02-13T10:35:15Z</time>
      </trkpt>
      <trkpt lat="45.96605" lon="4.86885">
        <ele>287</ele>
        <time>2018-02-13T10:35:17Z</time>
      </trkpt>
      <trkpt lat="45.96603" lon="4.86888">
        <ele>287</ele>
        <time>2018-02-13T10:35:18Z</time>
      </trkpt>
      <trkpt lat="45.966" lon="4.86893">
        <ele>286</ele>
        <time>2018-02-13T10:35:19Z</time>
      </trkpt>
      <trkpt lat="45.96597" lon="4.86899">
        <ele>286</ele>
        <time>2018-02-13T10:35:20Z</time>
      </trkpt>
      <trkpt lat="45.96592" lon="4.86908">
        <ele>286</ele>
        <time>2018-02-13T10:35:22Z</time>
      </trkpt>
      <trkpt lat="45.96589" lon="4.86913">
        <ele>286</ele>
        <time>2018-02-13T10:35:23Z</time>
      </trkpt>
      <trkpt lat="45.96586" lon="4.86919">
        <ele>285</ele>
        <time>2018-02-13T10:35:24Z</time>
      </trkpt>
      <trkpt lat="45.96583" lon="4.86925">
        <ele>284</ele>
        <time>2018-02-13T10:35:25Z</time>
      </trkpt>
      <trkpt lat="45.96579" lon="4.86931">
        <ele>284</ele>
        <time>2018-02-13T10:35:26Z</time>
      </trkpt>
      <trkpt lat="45.96575" lon="4.86938">
        <ele>284</ele>
        <time>2018-02-13T10:35:27Z</time>
      </trkpt>
      <trkpt lat="45.96571" lon="4.86944">
        <ele>284</ele>
        <time>2018-02-13T10:35:28Z</time>
      </trkpt>
      <trkpt lat="45.96568" lon="4.8695">
        <ele>284</ele>
        <time>2018-02-13T10:35:29Z</time>
      </trkpt>
      <trkpt lat="45.96565" lon="4.86956">
        <ele>284</ele>
        <time>2018-02-13T10:35:30Z</time>
      </trkpt>
      <trkpt lat="45.96562" lon="4.86962">
        <ele>283</ele>
        <time>2018-02-13T10:35:31Z</time>
      </trkpt>
      <trkpt lat="45.96556" lon="4.86971">
        <ele>283</ele>
        <time>2018-02-13T10:35:33Z</time>
      </trkpt>
      <trkpt lat="45.96555" lon="4.86975">
        <ele>283</ele>
        <time>2018-02-13T10:35:34Z</time>
      </trkpt>
      <trkpt lat="45.96552" lon="4.86983">
        <ele>283</ele>
        <time>2018-02-13T10:35:38Z</time>
      </trkpt>
      <trkpt lat="45.9655" lon="4.86986">
        <ele>283</ele>
        <time>2018-02-13T10:35:39Z</time>
      </trkpt>
      <trkpt lat="45.96545" lon="4.86996">
        <ele>283</ele>
        <time>2018-02-13T10:35:41Z</time>
      </trkpt>
      <trkpt lat="45.96545" lon="4.87002">
        <ele>283</ele>
        <time>2018-02-13T10:35:42Z</time>
      </trkpt>
      <trkpt lat="45.96543" lon="4.87013">
        <ele>283</ele>
        <time>2018-02-13T10:35:45Z</time>
      </trkpt>
      <trkpt lat="45.96542" lon="4.87016">
        <ele>283</ele>
        <time>2018-02-13T10:35:46Z</time>
      </trkpt>
      <trkpt lat="45.96547" lon="4.87026">
        <ele>283</ele>
        <time>2018-02-13T10:35:51Z</time>
      </trkpt>
      <trkpt lat="45.96548" lon="4.87028">
        <ele>283</ele>
        <time>2018-02-13T10:35:52Z</time>
      </trkpt>
      <trkpt lat="45.96547" lon="4.87032">
        <ele>283</ele>
        <time>2018-02-13T10:36:07Z</time>
      </trkpt>
      <trkpt lat="45.96547" lon="4.87032">
        <ele>283</ele>
        <time>2018-02-13T10:36:08Z</time>
      </trkpt>
      <trkpt lat="45.96547" lon="4.87032">
        <ele>283</ele>
        <time>2018-02-13T10:36:09Z</time>
      </trkpt>
      <trkpt lat="45.96547" lon="4.8703">
        <ele>283</ele>
        <time>2018-02-13T10:36:11Z</time>
      </trkpt>
      <trkpt lat="45.96547" lon="4.8703">
        <ele>283</ele>
        <time>2018-02-13T10:36:12Z</time>
      </trkpt>
      <trkpt lat="45.96548" lon="4.87029">
        <ele>283</ele>
        <time>2018-02-13T10:36:25Z</time>
      </trkpt>
      <trkpt lat="45.96548" lon="4.87029">
        <ele>283</ele>
        <time>2018-02-13T10:36:26Z</time>
      </trkpt>
      <trkpt lat="45.9655" lon="4.87029">
        <ele>283</ele>
        <time>2018-02-13T10:38:21Z</time>
      </trkpt>
      <trkpt lat="45.96551" lon="4.87029">
        <ele>283</ele>
        <time>2018-02-13T10:38:22Z</time>
      </trkpt>
      <trkpt lat="45.96552" lon="4.87029">
        <ele>283</ele>
        <time>2018-02-13T10:38:24Z</time>
      </trkpt>
      <trkpt lat="45.96551" lon="4.87029">
        <ele>283</ele>
        <time>2018-02-13T10:38:25Z</time>
      </trkpt>
      <trkpt lat="45.96548" lon="4.87028">
        <ele>283</ele>
        <time>2018-02-13T10:41:40Z</time>
      </trkpt>
      <trkpt lat="45.96548" lon="4.87028">
        <ele>283</ele>
        <time>2018-02-13T10:41:41Z</time>
      </trkpt>
      <trkpt lat="45.96548" lon="4.87028">
        <ele>283</ele>
        <time>2018-02-13T10:41:42Z</time>
      </trkpt>
      <trkpt lat="45.96548" lon="4.87028">
        <ele>283</ele>
        <time>2018-02-13T10:41:43Z</time>
      </trkpt>
      <trkpt lat="45.96556" lon="4.87034">
        <ele>283</ele>
        <time>2018-02-13T10:43:15Z</time>
      </trkpt>
      <trkpt lat="45.96556" lon="4.87037">
        <ele>283</ele>
        <time>2018-02-13T10:43:16Z</time>
      </trkpt>
      <trkpt lat="45.96558" lon="4.87047">
        <ele>283</ele>
        <time>2018-02-13T10:43:19Z</time>
      </trkpt>
      <trkpt lat="45.96558" lon="4.87051">
        <ele>283</ele>
        <time>2018-02-13T10:43:20Z</time>
      </trkpt>
      <trkpt lat="45.96559" lon="4.8706">
        <ele>283</ele>
        <time>2018-02-13T10:43:22Z</time>
      </trkpt>
      <trkpt lat="45.96559" lon="4.87064">
        <ele>283</ele>
        <time>2018-02-13T10:43:23Z</time>
      </trkpt>
      <trkpt lat="45.9656" lon="4.87076">
        <ele>283</ele>
        <time>2018-02-13T10:43:27Z</time>
      </trkpt>
      <trkpt lat="45.96558" lon="4.87078">
        <ele>283</ele>
        <time>2018-02-13T10:43:28Z</time>
      </trkpt>
      <trkpt lat="45.96549" lon="4.87078">
        <ele>283</ele>
        <time>2018-02-13T10:43:31Z</time>
      </trkpt>
      <trkpt lat="45.96547" lon="4.87078">
        <ele>283</ele>
        <time>2018-02-13T10:43:32Z</time>
      </trkpt>
      <trkpt lat="45.9654" lon="4.87074">
        <ele>283</ele>
        <time>2018-02-13T10:43:34Z</time>
      </trkpt>
      <trkpt lat="45.96539" lon="4.87071">
        <ele>283</ele>
        <time>2018-02-13T10:43:35Z</time>
      </trkpt>
      <trkpt lat="45.96536" lon="4.87062">
        <ele>283</ele>
        <time>2018-02-13T10:43:38Z</time>
      </trkpt>
      <trkpt lat="45.96533" lon="4.87059">
        <ele>283</ele>
        <time>2018-02-13T10:43:39Z</time>
      </trkpt>
      <trkpt lat="45.96527" lon="4.87053">
        <ele>283</ele>
        <time>2018-02-13T10:43:41Z</time>
      </trkpt>
      <trkpt lat="45.96525" lon="4.87049">
        <ele>283</ele>
        <time>2018-02-13T10:43:42Z</time>
      </trkpt>
      <trkpt lat="45.96521" lon="4.87041">
        <ele>283</ele>
        <time>2018-02-13T10:43:44Z</time>
      </trkpt>
      <trkpt lat="45.9652" lon="4.87037">
        <ele>283</ele>
        <time>2018-02-13T10:43:45Z</time>
      </trkpt>
      <trkpt lat="45.9652" lon="4.87027">
        <ele>283</ele>
        <time>2018-02-13T10:43:47Z</time>
      </trkpt>
      <trkpt lat="45.96523" lon="4.87023">
        <ele>283</ele>
        <time>2018-02-13T10:43:48Z</time>
      </trkpt>
      <trkpt lat="45.9653" lon="4.87016">
        <ele>283</ele>
        <time>2018-02-13T10:43:50Z</time>
      </trkpt>
      <trkpt lat="45.96533" lon="4.87012">
        <ele>283</ele>
        <time>2018-02-13T10:43:51Z</time>
      </trkpt>
      <trkpt lat="45.96538" lon="4.87006">
        <ele>283</ele>
        <time>2018-02-13T10:43:53Z</time>
      </trkpt>
      <trkpt lat="45.96541" lon="4.87002">
        <ele>283</ele>
        <time>2018-02-13T10:43:54Z</time>
      </trkpt>
      <trkpt lat="45.96547" lon="4.86995">
        <ele>283</ele>
        <time>2018-02-13T10:43:56Z</time>
      </trkpt>
      <trkpt lat="45.96549" lon="4.86992">
        <ele>283</ele>
        <time>2018-02-13T10:43:57Z</time>
      </trkpt>
      <trkpt lat="45.96554" lon="4.86989">
        <ele>283</ele>
        <time>2018-02-13T10:43:59Z</time>
      </trkpt>
      <trkpt lat="45.96556" lon="4.86978">
        <ele>283</ele>
        <time>2018-02-13T10:44:00Z</time>
      </trkpt>
      <trkpt lat="45.96559" lon="4.86972">
        <ele>283</ele>
        <time>2018-02-13T10:44:02Z</time>
      </trkpt>
      <trkpt lat="45.96561" lon="4.86967">
        <ele>283</ele>
        <time>2018-02-13T10:44:03Z</time>
      </trkpt>
      <trkpt lat="45.96565" lon="4.86957">
        <ele>284</ele>
        <time>2018-02-13T10:44:05Z</time>
      </trkpt>
      <trkpt lat="45.96568" lon="4.86952">
        <ele>284</ele>
        <time>2018-02-13T10:44:06Z</time>
      </trkpt>
      <trkpt lat="45.96571" lon="4.86944">
        <ele>284</ele>
        <time>2018-02-13T10:44:08Z</time>
      </trkpt>
      <trkpt lat="45.96574" lon="4.86939">
        <ele>284</ele>
        <time>2018-02-13T10:44:09Z</time>
      </trkpt>
      <trkpt lat="45.96579" lon="4.86931">
        <ele>284</ele>
        <time>2018-02-13T10:44:11Z</time>
      </trkpt>
      <trkpt lat="45.96581" lon="4.86927">
        <ele>284</ele>
        <time>2018-02-13T10:44:12Z</time>
      </trkpt>
      <trkpt lat="45.96586" lon="4.86919">
        <ele>285</ele>
        <time>2018-02-13T10:44:14Z</time>
      </trkpt>
      <trkpt lat="45.96589" lon="4.86914">
        <ele>285</ele>
        <time>2018-02-13T10:44:15Z</time>
      </trkpt>
      <trkpt lat="45.96594" lon="4.86905">
        <ele>286</ele>
        <time>2018-02-13T10:44:17Z</time>
      </trkpt>
      <trkpt lat="45.96597" lon="4.869">
        <ele>286</ele>
        <time>2018-02-13T10:44:18Z</time>
      </trkpt>
      <trkpt lat="45.96604" lon="4.86892">
        <ele>287</ele>
        <time>2018-02-13T10:44:20Z</time>
      </trkpt>
      <trkpt lat="45.96607" lon="4.86888">
        <ele>287</ele>
        <time>2018-02-13T10:44:21Z</time>
      </trkpt>
      <trkpt lat="45.96612" lon="4.86879">
        <ele>287</ele>
        <time>2018-02-13T10:44:23Z</time>
      </trkpt>
      <trkpt lat="45.96614" lon="4.86874">
        <ele>287</ele>
        <time>2018-02-13T10:44:24Z</time>
      </trkpt>
      <trkpt lat="45.96618" lon="4.86864">
        <ele>287</ele>
        <time>2018-02-13T10:44:26Z</time>
      </trkpt>
      <trkpt lat="45.96621" lon="4.8686">
        <ele>287</ele>
        <time>2018-02-13T10:44:27Z</time>
      </trkpt>
      <trkpt lat="45.96627" lon="4.86851">
        <ele>287</ele>
        <time>2018-02-13T10:44:29Z</time>
      </trkpt>
      <trkpt lat="45.9663" lon="4.86846">
        <ele>287</ele>
        <time>2018-02-13T10:44:30Z</time>
      </trkpt>
      <trkpt lat="45.96636" lon="4.86837">
        <ele>287</ele>
        <time>2018-02-13T10:44:32Z</time>
      </trkpt>
      <trkpt lat="45.96639" lon="4.86834">
        <ele>287</ele>
        <time>2018-02-13T10:44:33Z</time>
      </trkpt>
      <trkpt lat="45.96643" lon="4.86826">
        <ele>288</ele>
        <time>2018-02-13T10:44:35Z</time>
      </trkpt>
      <trkpt lat="45.96647" lon="4.86822">
        <ele>288</ele>
        <time>2018-02-13T10:44:36Z</time>
      </trkpt>
      <trkpt lat="45.96652" lon="4.86814">
        <ele>288</ele>
        <time>2018-02-13T10:44:38Z</time>
      </trkpt>
      <trkpt lat="45.96655" lon="4.86809">
        <ele>288</ele>
        <time>2018-02-13T10:44:39Z</time>
      </trkpt>
      <trkpt lat="45.96659" lon="4.868">
        <ele>288</ele>
        <time>2018-02-13T10:44:41Z</time>
      </trkpt>
      <trkpt lat="45.96662" lon="4.86796">
        <ele>288</ele>
        <time>2018-02-13T10:44:42Z</time>
      </trkpt>
      <trkpt lat="45.96667" lon="4.86787">
        <ele>288</ele>
        <time>2018-02-13T10:44:44Z</time>
      </trkpt>
      <trkpt lat="45.96669" lon="4.86782">
        <ele>289</ele>
        <time>2018-02-13T10:44:45Z</time>
      </trkpt>
      <trkpt lat="45.96675" lon="4.86773">
        <ele>289</ele>
        <time>2018-02-13T10:44:47Z</time>
      </trkpt>
      <trkpt lat="45.96678" lon="4.86769">
        <ele>289</ele>
        <time>2018-02-13T10:44:48Z</time>
      </trkpt>
      <trkpt lat="45.96683" lon="4.8676">
        <ele>289</ele>
        <time>2018-02-13T10:44:50Z</time>
      </trkpt>
      <trkpt lat="45.96685" lon="4.86755">
        <ele>289</ele>
        <time>2018-02-13T10:44:51Z</time>
      </trkpt>
      <trkpt lat="45.96687" lon="4.8675">
        <ele>289</ele>
        <time>2018-02-13T10:44:52Z</time>
      </trkpt>
      <trkpt lat="45.96691" lon="4.86745">
        <ele>289</ele>
        <time>2018-02-13T10:44:53Z</time>
      </trkpt>
      <trkpt lat="45.96694" lon="4.86741">
        <ele>289</ele>
        <time>2018-02-13T10:44:54Z</time>
      </trkpt>
      <trkpt lat="45.96697" lon="4.86736">
        <ele>289</ele>
        <time>2018-02-13T10:44:55Z</time>
      </trkpt>
      <trkpt lat="45.96699" lon="4.8673">
        <ele>289</ele>
        <time>2018-02-13T10:44:56Z</time>
      </trkpt>
      <trkpt lat="45.96703" lon="4.86725">
        <ele>289</ele>
        <time>2018-02-13T10:44:57Z</time>
      </trkpt>
      <trkpt lat="45.96708" lon="4.86715">
        <ele>289</ele>
        <time>2018-02-13T10:44:59Z</time>
      </trkpt>
      <trkpt lat="45.96711" lon="4.86709">
        <ele>289</ele>
        <time>2018-02-13T10:45:00Z</time>
      </trkpt>
      <trkpt lat="45.96717" lon="4.86702">
        <ele>289</ele>
        <time>2018-02-13T10:45:02Z</time>
      </trkpt>
      <trkpt lat="45.9672" lon="4.86697">
        <ele>289</ele>
        <time>2018-02-13T10:45:03Z</time>
      </trkpt>
      <trkpt lat="45.96726" lon="4.86687">
        <ele>289</ele>
        <time>2018-02-13T10:45:05Z</time>
      </trkpt>
      <trkpt lat="45.96728" lon="4.86682">
        <ele>289</ele>
        <time>2018-02-13T10:45:06Z</time>
      </trkpt>
      <trkpt lat="45.96733" lon="4.86677">
        <ele>290</ele>
        <time>2018-02-13T10:45:07Z</time>
      </trkpt>
      <trkpt lat="45.96735" lon="4.86673">
        <ele>290</ele>
        <time>2018-02-13T10:45:08Z</time>
      </trkpt>
      <trkpt lat="45.96741" lon="4.86664">
        <ele>290</ele>
        <time>2018-02-13T10:45:10Z</time>
      </trkpt>
      <trkpt lat="45.96744" lon="4.8666">
        <ele>290</ele>
        <time>2018-02-13T10:45:11Z</time>
      </trkpt>
      <trkpt lat="45.96751" lon="4.86656">
        <ele>290</ele>
        <time>2018-02-13T10:45:13Z</time>
      </trkpt>
      <trkpt lat="45.96754" lon="4.86655">
        <ele>290</ele>
        <time>2018-02-13T10:45:14Z</time>
      </trkpt>
      <trkpt lat="45.96762" lon="4.8666">
        <ele>290</ele>
        <time>2018-02-13T10:45:16Z</time>
      </trkpt>
      <trkpt lat="45.96766" lon="4.86663">
        <ele>290</ele>
        <time>2018-02-13T10:45:17Z</time>
      </trkpt>
      <trkpt lat="45.96773" lon="4.8667">
        <ele>289</ele>
        <time>2018-02-13T10:45:19Z</time>
      </trkpt>
      <trkpt lat="45.96777" lon="4.86674">
        <ele>289</ele>
        <time>2018-02-13T10:45:20Z</time>
      </trkpt>
      <trkpt lat="45.96781" lon="4.8668">
        <ele>289</ele>
        <time>2018-02-13T10:45:21Z</time>
      </trkpt>
      <trkpt lat="45.96785" lon="4.86684">
        <ele>289</ele>
        <time>2018-02-13T10:45:22Z</time>
      </trkpt>
      <trkpt lat="45.96791" lon="4.86691">
        <ele>289</ele>
        <time>2018-02-13T10:45:24Z</time>
      </trkpt>
      <trkpt lat="45.96795" lon="4.86695">
        <ele>289</ele>
        <time>2018-02-13T10:45:25Z</time>
      </trkpt>
      <trkpt lat="45.96802" lon="4.86702">
        <ele>289</ele>
        <time>2018-02-13T10:45:27Z</time>
      </trkpt>
      <trkpt lat="45.96807" lon="4.86706">
        <ele>289</ele>
        <time>2018-02-13T10:45:28Z</time>
      </trkpt>
      <trkpt lat="45.9681" lon="4.86709">
        <ele>289</ele>
        <time>2018-02-13T10:45:29Z</time>
      </trkpt>
      <trkpt lat="45.96815" lon="4.86712">
        <ele>289</ele>
        <time>2018-02-13T10:45:30Z</time>
      </trkpt>
      <trkpt lat="45.96819" lon="4.86715">
        <ele>289</ele>
        <time>2018-02-13T10:45:31Z</time>
      </trkpt>
      <trkpt lat="45.96824" lon="4.86719">
        <ele>289</ele>
        <time>2018-02-13T10:45:32Z</time>
      </trkpt>
      <trkpt lat="45.96828" lon="4.86723">
        <ele>289</ele>
        <time>2018-02-13T10:45:33Z</time>
      </trkpt>
      <trkpt lat="45.96832" lon="4.86727">
        <ele>289</ele>
        <time>2018-02-13T10:45:34Z</time>
      </trkpt>
      <trkpt lat="45.96837" lon="4.86731">
        <ele>288</ele>
        <time>2018-02-13T10:45:35Z</time>
      </trkpt>
      <trkpt lat="45.96841" lon="4.86735">
        <ele>289</ele>
        <time>2018-02-13T10:45:36Z</time>
      </trkpt>
      <trkpt lat="45.96848" lon="4.86742">
        <ele>289</ele>
        <time>2018-02-13T10:45:38Z</time>
      </trkpt>
      <trkpt lat="45.96851" lon="4.86745">
        <ele>288</ele>
        <time>2018-02-13T10:45:39Z</time>
      </trkpt>
      <trkpt lat="45.96858" lon="4.86752">
        <ele>289</ele>
        <time>2018-02-13T10:45:41Z</time>
      </trkpt>
      <trkpt lat="45.96862" lon="4.86756">
        <ele>289</ele>
        <time>2018-02-13T10:45:42Z</time>
      </trkpt>
      <trkpt lat="45.96866" lon="4.86759">
        <ele>289</ele>
        <time>2018-02-13T10:45:43Z</time>
      </trkpt>
      <trkpt lat="45.9687" lon="4.86763">
        <ele>289</ele>
        <time>2018-02-13T10:45:44Z</time>
      </trkpt>
      <trkpt lat="45.96875" lon="4.86767">
        <ele>289</ele>
        <time>2018-02-13T10:45:45Z</time>
      </trkpt>
      <trkpt lat="45.96878" lon="4.86771">
        <ele>289</ele>
        <time>2018-02-13T10:45:46Z</time>
      </trkpt>
      <trkpt lat="45.96882" lon="4.86776">
        <ele>289</ele>
        <time>2018-02-13T10:45:47Z</time>
      </trkpt>
      <trkpt lat="45.96886" lon="4.8678">
        <ele>289</ele>
        <time>2018-02-13T10:45:48Z</time>
      </trkpt>
      <trkpt lat="45.9689" lon="4.86785">
        <ele>289</ele>
        <time>2018-02-13T10:45:49Z</time>
      </trkpt>
      <trkpt lat="45.96895" lon="4.86789">
        <ele>289</ele>
        <time>2018-02-13T10:45:50Z</time>
      </trkpt>
      <trkpt lat="45.96899" lon="4.86793">
        <ele>289</ele>
        <time>2018-02-13T10:45:51Z</time>
      </trkpt>
      <trkpt lat="45.96904" lon="4.86796">
        <ele>289</ele>
        <time>2018-02-13T10:45:52Z</time>
      </trkpt>
      <trkpt lat="45.9691" lon="4.86801">
        <ele>288</ele>
        <time>2018-02-13T10:45:53Z</time>
      </trkpt>
      <trkpt lat="45.96915" lon="4.86805">
        <ele>288</ele>
        <time>2018-02-13T10:45:54Z</time>
      </trkpt>
      <trkpt lat="45.96921" lon="4.86809">
        <ele>287</ele>
        <time>2018-02-13T10:45:55Z</time>
      </trkpt>
      <trkpt lat="45.96925" lon="4.86812">
        <ele>287</ele>
        <time>2018-02-13T10:45:56Z</time>
      </trkpt>
      <trkpt lat="45.96931" lon="4.86816">
        <ele>287</ele>
        <time>2018-02-13T10:45:57Z</time>
      </trkpt>
      <trkpt lat="45.96936" lon="4.8682">
        <ele>287</ele>
        <time>2018-02-13T10:45:58Z</time>
      </trkpt>
      <trkpt lat="45.96941" lon="4.86824">
        <ele>287</ele>
        <time>2018-02-13T10:45:59Z</time>
      </trkpt>
      <trkpt lat="45.96946" lon="4.86828">
        <ele>287</ele>
        <time>2018-02-13T10:46:00Z</time>
      </trkpt>
      <trkpt lat="45.96952" lon="4.86832">
        <ele>287</ele>
        <time>2018-02-13T10:46:01Z</time>
      </trkpt>
      <trkpt lat="45.96958" lon="4.86835">
        <ele>287</ele>
        <time>2018-02-13T10:46:02Z</time>
      </trkpt>
      <trkpt lat="45.96964" lon="4.86838">
        <ele>287</ele>
        <time>2018-02-13T10:46:03Z</time>
      </trkpt>
      <trkpt lat="45.96971" lon="4.86841">
        <ele>286</ele>
        <time>2018-02-13T10:46:04Z</time>
      </trkpt>
      <trkpt lat="45.96977" lon="4.86844">
        <ele>286</ele>
        <time>2018-02-13T10:46:05Z</time>
      </trkpt>
      <trkpt lat="45.96984" lon="4.86847">
        <ele>286</ele>
        <time>2018-02-13T10:46:06Z</time>
      </trkpt>
      <trkpt lat="45.9699" lon="4.86848">
        <ele>286</ele>
        <time>2018-02-13T10:46:07Z</time>
      </trkpt>
      <trkpt lat="45.96997" lon="4.86849">
        <ele>286</ele>
        <time>2018-02-13T10:46:08Z</time>
      </trkpt>
      <trkpt lat="45.97004" lon="4.86849">
        <ele>285</ele>
        <time>2018-02-13T10:46:09Z</time>
      </trkpt>
      <trkpt lat="45.9701" lon="4.86849">
        <ele>285</ele>
        <time>2018-02-13T10:46:10Z</time>
      </trkpt>
      <trkpt lat="45.97017" lon="4.86848">
        <ele>285</ele>
        <time>2018-02-13T10:46:11Z</time>
      </trkpt>
      <trkpt lat="45.97023" lon="4.86847">
        <ele>285</ele>
        <time>2018-02-13T10:46:12Z</time>
      </trkpt>
      <trkpt lat="45.97029" lon="4.86845">
        <ele>285</ele>
        <time>2018-02-13T10:46:13Z</time>
      </trkpt>
      <trkpt lat="45.97035" lon="4.86844">
        <ele>285</ele>
        <time>2018-02-13T10:46:14Z</time>
      </trkpt>
      <trkpt lat="45.97042" lon="4.86843">
        <ele>285</ele>
        <time>2018-02-13T10:46:15Z</time>
      </trkpt>
      <trkpt lat="45.97049" lon="4.86843">
        <ele>285</ele>
        <time>2018-02-13T10:46:16Z</time>
      </trkpt>
      <trkpt lat="45.97056" lon="4.86842">
        <ele>285</ele>
        <time>2018-02-13T10:46:17Z</time>
      </trkpt>
      <trkpt lat="45.97063" lon="4.86841">
        <ele>284</ele>
        <time>2018-02-13T10:46:18Z</time>
      </trkpt>
      <trkpt lat="45.97069" lon="4.86839">
        <ele>284</ele>
        <time>2018-02-13T10:46:19Z</time>
      </trkpt>
      <trkpt lat="45.97076" lon="4.86837">
        <ele>284</ele>
        <time>2018-02-13T10:46:20Z</time>
      </trkpt>
      <trkpt lat="45.97082" lon="4.86836">
        <ele>284</ele>
        <time>2018-02-13T10:46:21Z</time>
      </trkpt>
      <trkpt lat="45.97089" lon="4.86835">
        <ele>284</ele>
        <time>2018-02-13T10:46:22Z</time>
      </trkpt>
      <trkpt lat="45.97095" lon="4.86833">
        <ele>284</ele>
        <time>2018-02-13T10:46:23Z</time>
      </trkpt>
      <trkpt lat="45.97101" lon="4.86831">
        <ele>284</ele>
        <time>2018-02-13T10:46:24Z</time>
      </trkpt>
      <trkpt lat="45.97107" lon="4.8683">
        <ele>284</ele>
        <time>2018-02-13T10:46:25Z</time>
      </trkpt>
      <trkpt lat="45.97112" lon="4.86828">
        <ele>283</ele>
        <time>2018-02-13T10:46:26Z</time>
      </trkpt>
      <trkpt lat="45.97118" lon="4.86826">
        <ele>283</ele>
        <time>2018-02-13T10:46:27Z</time>
      </trkpt>
      <trkpt lat="45.97123" lon="4.86825">
        <ele>283</ele>
        <time>2018-02-13T10:46:28Z</time>
      </trkpt>
      <trkpt lat="45.97129" lon="4.86822">
        <ele>283</ele>
        <time>2018-02-13T10:46:29Z</time>
      </trkpt>
      <trkpt lat="45.97135" lon="4.8682">
        <ele>283</ele>
        <time>2018-02-13T10:46:30Z</time>
      </trkpt>
      <trkpt lat="45.9714" lon="4.86818">
        <ele>283</ele>
        <time>2018-02-13T10:46:31Z</time>
      </trkpt>
      <trkpt lat="45.97145" lon="4.86816">
        <ele>283</ele>
        <time>2018-02-13T10:46:32Z</time>
      </trkpt>
      <trkpt lat="45.97152" lon="4.86812">
        <ele>283</ele>
        <time>2018-02-13T10:46:33Z</time>
      </trkpt>
      <trkpt lat="45.97159" lon="4.86809">
        <ele>283</ele>
        <time>2018-02-13T10:46:34Z</time>
      </trkpt>
      <trkpt lat="45.97165" lon="4.86806">
        <ele>283</ele>
        <time>2018-02-13T10:46:35Z</time>
      </trkpt>
      <trkpt lat="45.97172" lon="4.86803">
        <ele>283</ele>
        <time>2018-02-13T10:46:36Z</time>
      </trkpt>
      <trkpt lat="45.97178" lon="4.86802">
        <ele>284</ele>
        <time>2018-02-13T10:46:37Z</time>
      </trkpt>
      <trkpt lat="45.97185" lon="4.868">
        <ele>284</ele>
        <time>2018-02-13T10:46:38Z</time>
      </trkpt>
      <trkpt lat="45.97191" lon="4.86797">
        <ele>284</ele>
        <time>2018-02-13T10:46:39Z</time>
      </trkpt>
      <trkpt lat="45.97197" lon="4.86795">
        <ele>284</ele>
        <time>2018-02-13T10:46:40Z</time>
      </trkpt>
      <trkpt lat="45.97204" lon="4.86793">
        <ele>284</ele>
        <time>2018-02-13T10:46:41Z</time>
      </trkpt>
      <trkpt lat="45.97209" lon="4.8679">
        <ele>284</ele>
        <time>2018-02-13T10:46:42Z</time>
      </trkpt>
      <trkpt lat="45.97217" lon="4.86789">
        <ele>284</ele>
        <time>2018-02-13T10:46:43Z</time>
      </trkpt>
      <trkpt lat="45.97223" lon="4.86788">
        <ele>284</ele>
        <time>2018-02-13T10:46:44Z</time>
      </trkpt>
      <trkpt lat="45.97229" lon="4.8679">
        <ele>284</ele>
        <time>2018-02-13T10:46:45Z</time>
      </trkpt>
      <trkpt lat="45.97234" lon="4.86793">
        <ele>284</ele>
        <time>2018-02-13T10:46:46Z</time>
      </trkpt>
      <trkpt lat="45.9724" lon="4.86795">
        <ele>284</ele>
        <time>2018-02-13T10:46:47Z</time>
      </trkpt>
      <trkpt lat="45.97246" lon="4.86798">
        <ele>284</ele>
        <time>2018-02-13T10:46:48Z</time>
      </trkpt>
      <trkpt lat="45.97251" lon="4.86803">
        <ele>285</ele>
        <time>2018-02-13T10:46:49Z</time>
      </trkpt>
      <trkpt lat="45.97256" lon="4.86808">
        <ele>285</ele>
        <time>2018-02-13T10:46:50Z</time>
      </trkpt>
      <trkpt lat="45.9726" lon="4.86815">
        <ele>285</ele>
        <time>2018-02-13T10:46:51Z</time>
      </trkpt>
      <trkpt lat="45.97266" lon="4.8682">
        <ele>285</ele>
        <time>2018-02-13T10:46:52Z</time>
      </trkpt>
      <trkpt lat="45.97268" lon="4.86827">
        <ele>285</ele>
        <time>2018-02-13T10:46:53Z</time>
      </trkpt>
      <trkpt lat="45.97273" lon="4.86833">
        <ele>285</ele>
        <time>2018-02-13T10:46:54Z</time>
      </trkpt>
      <trkpt lat="45.97277" lon="4.86839">
        <ele>285</ele>
        <time>2018-02-13T10:46:55Z</time>
      </trkpt>
      <trkpt lat="45.9728" lon="4.86845">
        <ele>285</ele>
        <time>2018-02-13T10:46:56Z</time>
      </trkpt>
      <trkpt lat="45.97283" lon="4.86852">
        <ele>285</ele>
        <time>2018-02-13T10:46:57Z</time>
      </trkpt>
      <trkpt lat="45.97287" lon="4.86858">
        <ele>285</ele>
        <time>2018-02-13T10:46:58Z</time>
      </trkpt>
      <trkpt lat="45.97291" lon="4.86865">
        <ele>285</ele>
        <time>2018-02-13T10:46:59Z</time>
      </trkpt>
      <trkpt lat="45.97295" lon="4.86871">
        <ele>284</ele>
        <time>2018-02-13T10:47:00Z</time>
      </trkpt>
      <trkpt lat="45.97299" lon="4.86877">
        <ele>284</ele>
        <time>2018-02-13T10:47:01Z</time>
      </trkpt>
      <trkpt lat="45.97304" lon="4.86883">
        <ele>284</ele>
        <time>2018-02-13T10:47:02Z</time>
      </trkpt>
      <trkpt lat="45.97309" lon="4.86889">
        <ele>284</ele>
        <time>2018-02-13T10:47:03Z</time>
      </trkpt>
      <trkpt lat="45.97314" lon="4.86894">
        <ele>284</ele>
        <time>2018-02-13T10:47:04Z</time>
      </trkpt>
      <trkpt lat="45.97318" lon="4.86901">
        <ele>284</ele>
        <time>2018-02-13T10:47:05Z</time>
      </trkpt>
      <trkpt lat="45.97322" lon="4.86906">
        <ele>284</ele>
        <time>2018-02-13T10:47:06Z</time>
      </trkpt>
      <trkpt lat="45.97326" lon="4.86912">
        <ele>284</ele>
        <time>2018-02-13T10:47:07Z</time>
      </trkpt>
      <trkpt lat="45.9733" lon="4.86919">
        <ele>284</ele>
        <time>2018-02-13T10:47:08Z</time>
      </trkpt>
      <trkpt lat="45.97334" lon="4.86926">
        <ele>284</ele>
        <time>2018-02-13T10:47:09Z</time>
      </trkpt>
      <trkpt lat="45.97338" lon="4.86933">
        <ele>284</ele>
        <time>2018-02-13T10:47:10Z</time>
      </trkpt>
      <trkpt lat="45.97343" lon="4.86939">
        <ele>284</ele>
        <time>2018-02-13T10:47:11Z</time>
      </trkpt>
      <trkpt lat="45.97347" lon="4.86945">
        <ele>284</ele>
        <time>2018-02-13T10:47:12Z</time>
      </trkpt>
      <trkpt lat="45.97351" lon="4.86952">
        <ele>284</ele>
        <time>2018-02-13T10:47:13Z</time>
      </trkpt>
      <trkpt lat="45.97356" lon="4.86959">
        <ele>285</ele>
        <time>2018-02-13T10:47:14Z</time>
      </trkpt>
      <trkpt lat="45.97362" lon="4.86965">
        <ele>285</ele>
        <time>2018-02-13T10:47:15Z</time>
      </trkpt>
      <trkpt lat="45.97367" lon="4.8697">
        <ele>285</ele>
        <time>2018-02-13T10:47:16Z</time>
      </trkpt>
      <trkpt lat="45.97372" lon="4.86975">
        <ele>285</ele>
        <time>2018-02-13T10:47:17Z</time>
      </trkpt>
      <trkpt lat="45.97376" lon="4.86981">
        <ele>285</ele>
        <time>2018-02-13T10:47:18Z</time>
      </trkpt>
      <trkpt lat="45.97381" lon="4.86986">
        <ele>285</ele>
        <time>2018-02-13T10:47:19Z</time>
      </trkpt>
      <trkpt lat="45.97385" lon="4.86992">
        <ele>285</ele>
        <time>2018-02-13T10:47:20Z</time>
      </trkpt>
      <trkpt lat="45.97391" lon="4.86997">
        <ele>285</ele>
        <time>2018-02-13T10:47:21Z</time>
      </trkpt>
      <trkpt lat="45.97396" lon="4.87001">
        <ele>285</ele>
        <time>2018-02-13T10:47:22Z</time>
      </trkpt>
      <trkpt lat="45.97401" lon="4.87005">
        <ele>285</ele>
        <time>2018-02-13T10:47:23Z</time>
      </trkpt>
      <trkpt lat="45.97405" lon="4.8701">
        <ele>285</ele>
        <time>2018-02-13T10:47:24Z</time>
      </trkpt>
      <trkpt lat="45.97409" lon="4.87014">
        <ele>285</ele>
        <time>2018-02-13T10:47:25Z</time>
      </trkpt>
      <trkpt lat="45.97413" lon="4.87018">
        <ele>285</ele>
        <time>2018-02-13T10:47:26Z</time>
      </trkpt>
      <trkpt lat="45.97417" lon="4.87024">
        <ele>284</ele>
        <time>2018-02-13T10:47:27Z</time>
      </trkpt>
      <trkpt lat="45.97421" lon="4.87028">
        <ele>284</ele>
        <time>2018-02-13T10:47:28Z</time>
      </trkpt>
      <trkpt lat="45.97426" lon="4.87032">
        <ele>284</ele>
        <time>2018-02-13T10:47:29Z</time>
      </trkpt>
      <trkpt lat="45.9743" lon="4.87038">
        <ele>284</ele>
        <time>2018-02-13T10:47:30Z</time>
      </trkpt>
      <trkpt lat="45.97434" lon="4.87042">
        <ele>284</ele>
        <time>2018-02-13T10:47:31Z</time>
      </trkpt>
      <trkpt lat="45.97438" lon="4.87047">
        <ele>284</ele>
        <time>2018-02-13T10:47:32Z</time>
      </trkpt>
      <trkpt lat="45.97442" lon="4.87052">
        <ele>284</ele>
        <time>2018-02-13T10:47:33Z</time>
      </trkpt>
      <trkpt lat="45.97446" lon="4.87056">
        <ele>284</ele>
        <time>2018-02-13T10:47:34Z</time>
      </trkpt>
      <trkpt lat="45.97451" lon="4.87061">
        <ele>284</ele>
        <time>2018-02-13T10:47:35Z</time>
      </trkpt>
      <trkpt lat="45.97457" lon="4.87065">
        <ele>284</ele>
        <time>2018-02-13T10:47:36Z</time>
      </trkpt>
      <trkpt lat="45.9746" lon="4.8707">
        <ele>284</ele>
        <time>2018-02-13T10:47:37Z</time>
      </trkpt>
      <trkpt lat="45.97464" lon="4.87074">
        <ele>284</ele>
        <time>2018-02-13T10:47:38Z</time>
      </trkpt>
      <trkpt lat="45.97469" lon="4.87077">
        <ele>284</ele>
        <time>2018-02-13T10:47:39Z</time>
      </trkpt>
      <trkpt lat="45.97473" lon="4.87081">
        <ele>284</ele>
        <time>2018-02-13T10:47:40Z</time>
      </trkpt>
      <trkpt lat="45.97476" lon="4.87086">
        <ele>283</ele>
        <time>2018-02-13T10:47:41Z</time>
      </trkpt>
      <trkpt lat="45.97481" lon="4.87089">
        <ele>283</ele>
        <time>2018-02-13T10:47:42Z</time>
      </trkpt>
      <trkpt lat="45.97485" lon="4.87094">
        <ele>283</ele>
        <time>2018-02-13T10:47:43Z</time>
      </trkpt>
      <trkpt lat="45.9749" lon="4.87098">
        <ele>283</ele>
        <time>2018-02-13T10:47:44Z</time>
      </trkpt>
      <trkpt lat="45.97496" lon="4.87102">
        <ele>283</ele>
        <time>2018-02-13T10:47:45Z</time>
      </trkpt>
      <trkpt lat="45.975" lon="4.87107">
        <ele>283</ele>
        <time>2018-02-13T10:47:46Z</time>
      </trkpt>
      <trkpt lat="45.97505" lon="4.87112">
        <ele>283</ele>
        <time>2018-02-13T10:47:47Z</time>
      </trkpt>
      <trkpt lat="45.97511" lon="4.87117">
        <ele>283</ele>
        <time>2018-02-13T10:47:48Z</time>
      </trkpt>
      <trkpt lat="45.97516" lon="4.87123">
        <ele>283</ele>
        <time>2018-02-13T10:47:49Z</time>
      </trkpt>
      <trkpt lat="45.97521" lon="4.87129">
        <ele>283</ele>
        <time>2018-02-13T10:47:50Z</time>
      </trkpt>
      <trkpt lat="45.97526" lon="4.87134">
        <ele>283</ele>
        <time>2018-02-13T10:47:51Z</time>
      </trkpt>
      <trkpt lat="45.97531" lon="4.87139">
        <ele>283</ele>
        <time>2018-02-13T10:47:52Z</time>
      </trkpt>
      <trkpt lat="45.97537" lon="4.87144">
        <ele>283</ele>
        <time>2018-02-13T10:47:53Z</time>
      </trkpt>
      <trkpt lat="45.97543" lon="4.87149">
        <ele>283</ele>
        <time>2018-02-13T10:47:54Z</time>
      </trkpt>
      <trkpt lat="45.9755" lon="4.87154">
        <ele>283</ele>
        <time>2018-02-13T10:47:55Z</time>
      </trkpt>
      <trkpt lat="45.97556" lon="4.87159">
        <ele>283</ele>
        <time>2018-02-13T10:47:56Z</time>
      </trkpt>
      <trkpt lat="45.9756" lon="4.87164">
        <ele>283</ele>
        <time>2018-02-13T10:47:57Z</time>
      </trkpt>
      <trkpt lat="45.97563" lon="4.87168">
        <ele>283</ele>
        <time>2018-02-13T10:47:58Z</time>
      </trkpt>
      <trkpt lat="45.97568" lon="4.87175">
        <ele>283</ele>
        <time>2018-02-13T10:47:59Z</time>
      </trkpt>
      <trkpt lat="45.97572" lon="4.8718">
        <ele>283</ele>
        <time>2018-02-13T10:48:00Z</time>
      </trkpt>
      <trkpt lat="45.97577" lon="4.87184">
        <ele>283</ele>
        <time>2018-02-13T10:48:01Z</time>
      </trkpt>
      <trkpt lat="45.97582" lon="4.87189">
        <ele>283</ele>
        <time>2018-02-13T10:48:02Z</time>
      </trkpt>
      <trkpt lat="45.97589" lon="4.87193">
        <ele>283</ele>
        <time>2018-02-13T10:48:03Z</time>
      </trkpt>
      <trkpt lat="45.97593" lon="4.87199">
        <ele>283</ele>
        <time>2018-02-13T10:48:04Z</time>
      </trkpt>
      <trkpt lat="45.97596" lon="4.87203">
        <ele>284</ele>
        <time>2018-02-13T10:48:05Z</time>
      </trkpt>
      <trkpt lat="45.97603" lon="4.87207">
        <ele>284</ele>
        <time>2018-02-13T10:48:06Z</time>
      </trkpt>
      <trkpt lat="45.97608" lon="4.87211">
        <ele>284</ele>
        <time>2018-02-13T10:48:07Z</time>
      </trkpt>
      <trkpt lat="45.97613" lon="4.87216">
        <ele>284</ele>
        <time>2018-02-13T10:48:08Z</time>
      </trkpt>
      <trkpt lat="45.97618" lon="4.87221">
        <ele>284</ele>
        <time>2018-02-13T10:48:09Z</time>
      </trkpt>
      <trkpt lat="45.97624" lon="4.87226">
        <ele>284</ele>
        <time>2018-02-13T10:48:10Z</time>
      </trkpt>
      <trkpt lat="45.97628" lon="4.87231">
        <ele>284</ele>
        <time>2018-02-13T10:48:11Z</time>
      </trkpt>
      <trkpt lat="45.97635" lon="4.87236">
        <ele>284</ele>
        <time>2018-02-13T10:48:12Z</time>
      </trkpt>
      <trkpt lat="45.9764" lon="4.87241">
        <ele>284</ele>
        <time>2018-02-13T10:48:13Z</time>
      </trkpt>
      <trkpt lat="45.97643" lon="4.87245">
        <ele>285</ele>
        <time>2018-02-13T10:48:14Z</time>
      </trkpt>
      <trkpt lat="45.97649" lon="4.87252">
        <ele>285</ele>
        <time>2018-02-13T10:48:15Z</time>
      </trkpt>
      <trkpt lat="45.97654" lon="4.87257">
        <ele>285</ele>
        <time>2018-02-13T10:48:16Z</time>
      </trkpt>
      <trkpt lat="45.97657" lon="4.8726">
        <ele>285</ele>
        <time>2018-02-13T10:48:17Z</time>
      </trkpt>
      <trkpt lat="45.9766" lon="4.87266">
        <ele>285</ele>
        <time>2018-02-13T10:48:18Z</time>
      </trkpt>
      <trkpt lat="45.97665" lon="4.87272">
        <ele>285</ele>
        <time>2018-02-13T10:48:19Z</time>
      </trkpt>
      <trkpt lat="45.97669" lon="4.87277">
        <ele>286</ele>
        <time>2018-02-13T10:48:20Z</time>
      </trkpt>
      <trkpt lat="45.97674" lon="4.87281">
        <ele>286</ele>
        <time>2018-02-13T10:48:21Z</time>
      </trkpt>
      <trkpt lat="45.97681" lon="4.87288">
        <ele>286</ele>
        <time>2018-02-13T10:48:22Z</time>
      </trkpt>
      <trkpt lat="45.97689" lon="4.87293">
        <ele>286</ele>
        <time>2018-02-13T10:48:23Z</time>
      </trkpt>
      <trkpt lat="45.97694" lon="4.87297">
        <ele>286</ele>
        <time>2018-02-13T10:48:24Z</time>
      </trkpt>
      <trkpt lat="45.977" lon="4.87303">
        <ele>286</ele>
        <time>2018-02-13T10:48:25Z</time>
      </trkpt>
      <trkpt lat="45.97703" lon="4.87308">
        <ele>286</ele>
        <time>2018-02-13T10:48:26Z</time>
      </trkpt>
      <trkpt lat="45.97708" lon="4.87314">
        <ele>286</ele>
        <time>2018-02-13T10:48:27Z</time>
      </trkpt>
      <trkpt lat="45.97713" lon="4.8732">
        <ele>286</ele>
        <time>2018-02-13T10:48:28Z</time>
      </trkpt>
      <trkpt lat="45.97717" lon="4.87326">
        <ele>286</ele>
        <time>2018-02-13T10:48:29Z</time>
      </trkpt>
      <trkpt lat="45.97723" lon="4.87333">
        <ele>286</ele>
        <time>2018-02-13T10:48:30Z</time>
      </trkpt>
      <trkpt lat="45.97728" lon="4.87337">
        <ele>286</ele>
        <time>2018-02-13T10:48:31Z</time>
      </trkpt>
      <trkpt lat="45.97731" lon="4.87344">
        <ele>286</ele>
        <time>2018-02-13T10:48:32Z</time>
      </trkpt>
      <trkpt lat="45.97736" lon="4.8735">
        <ele>286</ele>
        <time>2018-02-13T10:48:33Z</time>
      </trkpt>
      <trkpt lat="45.9774" lon="4.87354">
        <ele>286</ele>
        <time>2018-02-13T10:48:34Z</time>
      </trkpt>
      <trkpt lat="45.97744" lon="4.8736">
        <ele>285</ele>
        <time>2018-02-13T10:48:35Z</time>
      </trkpt>
      <trkpt lat="45.97748" lon="4.87365">
        <ele>285</ele>
        <time>2018-02-13T10:48:36Z</time>
      </trkpt>
      <trkpt lat="45.97751" lon="4.8737">
        <ele>285</ele>
        <time>2018-02-13T10:48:37Z</time>
      </trkpt>
      <trkpt lat="45.97754" lon="4.87376">
        <ele>285</ele>
        <time>2018-02-13T10:48:38Z</time>
      </trkpt>
      <trkpt lat="45.97758" lon="4.87382">
        <ele>284</ele>
        <time>2018-02-13T10:48:39Z</time>
      </trkpt>
      <trkpt lat="45.97762" lon="4.87387">
        <ele>284</ele>
        <time>2018-02-13T10:48:40Z</time>
      </trkpt>
      <trkpt lat="45.97767" lon="4.87392">
        <ele>284</ele>
        <time>2018-02-13T10:48:41Z</time>
      </trkpt>
      <trkpt lat="45.97772" lon="4.87398">
        <ele>284</ele>
        <time>2018-02-13T10:48:42Z</time>
      </trkpt>
      <trkpt lat="45.97777" lon="4.87403">
        <ele>284</ele>
        <time>2018-02-13T10:48:43Z</time>
      </trkpt>
      <trkpt lat="45.97782" lon="4.87409">
        <ele>284</ele>
        <time>2018-02-13T10:48:44Z</time>
      </trkpt>
      <trkpt lat="45.97785" lon="4.87414">
        <ele>284</ele>
        <time>2018-02-13T10:48:45Z</time>
      </trkpt>
      <trkpt lat="45.9779" lon="4.8742">
        <ele>283</ele>
        <time>2018-02-13T10:48:46Z</time>
      </trkpt>
      <trkpt lat="45.97794" lon="4.87425">
        <ele>283</ele>
        <time>2018-02-13T10:48:47Z</time>
      </trkpt>
      <trkpt lat="45.978" lon="4.87431">
        <ele>283</ele>
        <time>2018-02-13T10:48:48Z</time>
      </trkpt>
      <trkpt lat="45.97805" lon="4.87437">
        <ele>283</ele>
        <time>2018-02-13T10:48:49Z</time>
      </trkpt>
      <trkpt lat="45.97811" lon="4.87443">
        <ele>282</ele>
        <time>2018-02-13T10:48:50Z</time>
      </trkpt>
      <trkpt lat="45.97818" lon="4.87449">
        <ele>282</ele>
        <time>2018-02-13T10:48:51Z</time>
      </trkpt>
      <trkpt lat="45.97824" lon="4.87455">
        <ele>282</ele>
        <time>2018-02-13T10:48:52Z</time>
      </trkpt>
      <trkpt lat="45.9783" lon="4.8746">
        <ele>282</ele>
        <time>2018-02-13T10:48:53Z</time>
      </trkpt>
      <trkpt lat="45.97834" lon="4.87467">
        <ele>281</ele>
        <time>2018-02-13T10:48:54Z</time>
      </trkpt>
      <trkpt lat="45.97841" lon="4.87473">
        <ele>281</ele>
        <time>2018-02-13T10:48:55Z</time>
      </trkpt>
      <trkpt lat="45.97846" lon="4.87479">
        <ele>281</ele>
        <time>2018-02-13T10:48:56Z</time>
      </trkpt>
      <trkpt lat="45.97852" lon="4.87485">
        <ele>281</ele>
        <time>2018-02-13T10:48:57Z</time>
      </trkpt>
      <trkpt lat="45.97859" lon="4.87492">
        <ele>281</ele>
        <time>2018-02-13T10:48:58Z</time>
      </trkpt>
      <trkpt lat="45.97865" lon="4.87497">
        <ele>280</ele>
        <time>2018-02-13T10:48:59Z</time>
      </trkpt>
      <trkpt lat="45.97871" lon="4.87503">
        <ele>281</ele>
        <time>2018-02-13T10:49:00Z</time>
      </trkpt>
      <trkpt lat="45.97879" lon="4.87507">
        <ele>281</ele>
        <time>2018-02-13T10:49:01Z</time>
      </trkpt>
      <trkpt lat="45.97885" lon="4.87512">
        <ele>281</ele>
        <time>2018-02-13T10:49:02Z</time>
      </trkpt>
      <trkpt lat="45.97893" lon="4.87514">
        <ele>280</ele>
        <time>2018-02-13T10:49:03Z</time>
      </trkpt>
      <trkpt lat="45.97899" lon="4.87518">
        <ele>280</ele>
        <time>2018-02-13T10:49:04Z</time>
      </trkpt>
      <trkpt lat="45.97906" lon="4.87521">
        <ele>280</ele>
        <time>2018-02-13T10:49:05Z</time>
      </trkpt>
      <trkpt lat="45.97913" lon="4.87523">
        <ele>280</ele>
        <time>2018-02-13T10:49:06Z</time>
      </trkpt>
      <trkpt lat="45.9792" lon="4.87525">
        <ele>279</ele>
        <time>2018-02-13T10:49:07Z</time>
      </trkpt>
      <trkpt lat="45.97925" lon="4.87528">
        <ele>279</ele>
        <time>2018-02-13T10:49:08Z</time>
      </trkpt>
      <trkpt lat="45.97932" lon="4.8753">
        <ele>279</ele>
        <time>2018-02-13T10:49:09Z</time>
      </trkpt>
      <trkpt lat="45.97937" lon="4.87533">
        <ele>279</ele>
        <time>2018-02-13T10:49:10Z</time>
      </trkpt>
      <trkpt lat="45.97944" lon="4.87536">
        <ele>279</ele>
        <time>2018-02-13T10:49:11Z</time>
      </trkpt>
      <trkpt lat="45.9795" lon="4.87538">
        <ele>279</ele>
        <time>2018-02-13T10:49:12Z</time>
      </trkpt>
      <trkpt lat="45.97957" lon="4.87541">
        <ele>279</ele>
        <time>2018-02-13T10:49:13Z</time>
      </trkpt>
      <trkpt lat="45.97963" lon="4.87544">
        <ele>279</ele>
        <time>2018-02-13T10:49:14Z</time>
      </trkpt>
      <trkpt lat="45.97968" lon="4.87548">
        <ele>279</ele>
        <time>2018-02-13T10:49:15Z</time>
      </trkpt>
      <trkpt lat="45.97973" lon="4.87552">
        <ele>279</ele>
        <time>2018-02-13T10:49:16Z</time>
      </trkpt>
      <trkpt lat="45.97978" lon="4.87558">
        <ele>279</ele>
        <time>2018-02-13T10:49:17Z</time>
      </trkpt>
      <trkpt lat="45.97982" lon="4.87564">
        <ele>279</ele>
        <time>2018-02-13T10:49:18Z</time>
      </trkpt>
      <trkpt lat="45.97987" lon="4.8757">
        <ele>280</ele>
        <time>2018-02-13T10:49:19Z</time>
      </trkpt>
      <trkpt lat="45.97991" lon="4.87577">
        <ele>280</ele>
        <time>2018-02-13T10:49:20Z</time>
      </trkpt>
      <trkpt lat="45.97994" lon="4.87584">
        <ele>280</ele>
        <time>2018-02-13T10:49:21Z</time>
      </trkpt>
      <trkpt lat="45.97998" lon="4.87592">
        <ele>280</ele>
        <time>2018-02-13T10:49:22Z</time>
      </trkpt>
      <trkpt lat="45.98002" lon="4.876">
        <ele>280</ele>
        <time>2018-02-13T10:49:23Z</time>
      </trkpt>
      <trkpt lat="45.98005" lon="4.87607">
        <ele>280</ele>
        <time>2018-02-13T10:49:24Z</time>
      </trkpt>
      <trkpt lat="45.98008" lon="4.87614">
        <ele>280</ele>
        <time>2018-02-13T10:49:25Z</time>
      </trkpt>
      <trkpt lat="45.9801" lon="4.87621">
        <ele>280</ele>
        <time>2018-02-13T10:49:26Z</time>
      </trkpt>
      <trkpt lat="45.98013" lon="4.87628">
        <ele>280</ele>
        <time>2018-02-13T10:49:27Z</time>
      </trkpt>
      <trkpt lat="45.98015" lon="4.87635">
        <ele>280</ele>
        <time>2018-02-13T10:49:28Z</time>
      </trkpt>
      <trkpt lat="45.98016" lon="4.87642">
        <ele>280</ele>
        <time>2018-02-13T10:49:29Z</time>
      </trkpt>
      <trkpt lat="45.98018" lon="4.87648">
        <ele>280</ele>
        <time>2018-02-13T10:49:30Z</time>
      </trkpt>
      <trkpt lat="45.9802" lon="4.87655">
        <ele>280</ele>
        <time>2018-02-13T10:49:31Z</time>
      </trkpt>
      <trkpt lat="45.98022" lon="4.87662">
        <ele>280</ele>
        <time>2018-02-13T10:49:32Z</time>
      </trkpt>
      <trkpt lat="45.98023" lon="4.87669">
        <ele>280</ele>
        <time>2018-02-13T10:49:33Z</time>
      </trkpt>
      <trkpt lat="45.98027" lon="4.87676">
        <ele>280</ele>
        <time>2018-02-13T10:49:34Z</time>
      </trkpt>
      <trkpt lat="45.98029" lon="4.87684">
        <ele>280</ele>
        <time>2018-02-13T10:49:35Z</time>
      </trkpt>
      <trkpt lat="45.9803" lon="4.87692">
        <ele>280</ele>
        <time>2018-02-13T10:49:36Z</time>
      </trkpt>
      <trkpt lat="45.98032" lon="4.877">
        <ele>280</ele>
        <time>2018-02-13T10:49:37Z</time>
      </trkpt>
      <trkpt lat="45.98035" lon="4.87708">
        <ele>280</ele>
        <time>2018-02-13T10:49:38Z</time>
      </trkpt>
      <trkpt lat="45.98038" lon="4.87715">
        <ele>279</ele>
        <time>2018-02-13T10:49:39Z</time>
      </trkpt>
      <trkpt lat="45.9804" lon="4.87722">
        <ele>279</ele>
        <time>2018-02-13T10:49:40Z</time>
      </trkpt>
      <trkpt lat="45.98042" lon="4.8773">
        <ele>280</ele>
        <time>2018-02-13T10:49:41Z</time>
      </trkpt>
      <trkpt lat="45.98044" lon="4.87737">
        <ele>280</ele>
        <time>2018-02-13T10:49:42Z</time>
      </trkpt>
      <trkpt lat="45.98046" lon="4.87745">
        <ele>280</ele>
        <time>2018-02-13T10:49:43Z</time>
      </trkpt>
      <trkpt lat="45.98048" lon="4.87752">
        <ele>280</ele>
        <time>2018-02-13T10:49:44Z</time>
      </trkpt>
      <trkpt lat="45.9805" lon="4.87759">
        <ele>280</ele>
        <time>2018-02-13T10:49:45Z</time>
      </trkpt>
      <trkpt lat="45.98052" lon="4.87766">
        <ele>280</ele>
        <time>2018-02-13T10:49:46Z</time>
      </trkpt>
      <trkpt lat="45.98055" lon="4.87773">
        <ele>280</ele>
        <time>2018-02-13T10:49:47Z</time>
      </trkpt>
      <trkpt lat="45.98058" lon="4.8778">
        <ele>280</ele>
        <time>2018-02-13T10:49:48Z</time>
      </trkpt>
      <trkpt lat="45.9806" lon="4.87788">
        <ele>280</ele>
        <time>2018-02-13T10:49:49Z</time>
      </trkpt>
      <trkpt lat="45.98061" lon="4.87795">
        <ele>280</ele>
        <time>2018-02-13T10:49:50Z</time>
      </trkpt>
      <trkpt lat="45.98063" lon="4.87804">
        <ele>280</ele>
        <time>2018-02-13T10:49:51Z</time>
      </trkpt>
      <trkpt lat="45.98067" lon="4.87813">
        <ele>280</ele>
        <time>2018-02-13T10:49:52Z</time>
      </trkpt>
      <trkpt lat="45.98069" lon="4.8782">
        <ele>279</ele>
        <time>2018-02-13T10:49:53Z</time>
      </trkpt>
      <trkpt lat="45.98073" lon="4.87829">
        <ele>279</ele>
        <time>2018-02-13T10:49:54Z</time>
      </trkpt>
      <trkpt lat="45.98076" lon="4.87838">
        <ele>279</ele>
        <time>2018-02-13T10:49:55Z</time>
      </trkpt>
      <trkpt lat="45.98078" lon="4.87848">
        <ele>279</ele>
        <time>2018-02-13T10:49:56Z</time>
      </trkpt>
      <trkpt lat="45.9808" lon="4.87856">
        <ele>280</ele>
        <time>2018-02-13T10:49:57Z</time>
      </trkpt>
      <trkpt lat="45.98083" lon="4.87865">
        <ele>280</ele>
        <time>2018-02-13T10:49:58Z</time>
      </trkpt>
      <trkpt lat="45.98087" lon="4.87874">
        <ele>278</ele>
        <time>2018-02-13T10:49:59Z</time>
      </trkpt>
      <trkpt lat="45.98089" lon="4.87883">
        <ele>278</ele>
        <time>2018-02-13T10:50:00Z</time>
      </trkpt>
      <trkpt lat="45.98092" lon="4.87892">
        <ele>278</ele>
        <time>2018-02-13T10:50:01Z</time>
      </trkpt>
      <trkpt lat="45.98095" lon="4.87901">
        <ele>278</ele>
        <time>2018-02-13T10:50:02Z</time>
      </trkpt>
      <trkpt lat="45.98097" lon="4.87909">
        <ele>278</ele>
        <time>2018-02-13T10:50:03Z</time>
      </trkpt>
      <trkpt lat="45.98099" lon="4.87916">
        <ele>278</ele>
        <time>2018-02-13T10:50:04Z</time>
      </trkpt>
      <trkpt lat="45.98101" lon="4.87925">
        <ele>277</ele>
        <time>2018-02-13T10:50:05Z</time>
      </trkpt>
      <trkpt lat="45.98103" lon="4.87934">
        <ele>277</ele>
        <time>2018-02-13T10:50:06Z</time>
      </trkpt>
      <trkpt lat="45.98106" lon="4.87942">
        <ele>277</ele>
        <time>2018-02-13T10:50:07Z</time>
      </trkpt>
      <trkpt lat="45.98109" lon="4.8795">
        <ele>277</ele>
        <time>2018-02-13T10:50:08Z</time>
      </trkpt>
      <trkpt lat="45.98112" lon="4.87959">
        <ele>277</ele>
        <time>2018-02-13T10:50:09Z</time>
      </trkpt>
      <trkpt lat="45.98115" lon="4.87967">
        <ele>277</ele>
        <time>2018-02-13T10:50:10Z</time>
      </trkpt>
      <trkpt lat="45.98118" lon="4.87977">
        <ele>277</ele>
        <time>2018-02-13T10:50:11Z</time>
      </trkpt>
      <trkpt lat="45.98121" lon="4.87986">
        <ele>277</ele>
        <time>2018-02-13T10:50:12Z</time>
      </trkpt>
      <trkpt lat="45.98124" lon="4.87996">
        <ele>277</ele>
        <time>2018-02-13T10:50:13Z</time>
      </trkpt>
      <trkpt lat="45.98127" lon="4.88006">
        <ele>276</ele>
        <time>2018-02-13T10:50:14Z</time>
      </trkpt>
      <trkpt lat="45.9813" lon="4.88016">
        <ele>276</ele>
        <time>2018-02-13T10:50:15Z</time>
      </trkpt>
      <trkpt lat="45.98133" lon="4.88026">
        <ele>276</ele>
        <time>2018-02-13T10:50:16Z</time>
      </trkpt>
      <trkpt lat="45.98137" lon="4.88036">
        <ele>276</ele>
        <time>2018-02-13T10:50:17Z</time>
      </trkpt>
      <trkpt lat="45.9814" lon="4.88046">
        <ele>275</ele>
        <time>2018-02-13T10:50:18Z</time>
      </trkpt>
      <trkpt lat="45.98143" lon="4.88056">
        <ele>275</ele>
        <time>2018-02-13T10:50:19Z</time>
      </trkpt>
      <trkpt lat="45.98147" lon="4.88067">
        <ele>275</ele>
        <time>2018-02-13T10:50:20Z</time>
      </trkpt>
      <trkpt lat="45.9815" lon="4.88078">
        <ele>274</ele>
        <time>2018-02-13T10:50:21Z</time>
      </trkpt>
      <trkpt lat="45.98153" lon="4.88088">
        <ele>274</ele>
        <time>2018-02-13T10:50:22Z</time>
      </trkpt>
      <trkpt lat="45.98156" lon="4.88099">
        <ele>274</ele>
        <time>2018-02-13T10:50:23Z</time>
      </trkpt>
      <trkpt lat="45.98159" lon="4.8811">
        <ele>274</ele>
        <time>2018-02-13T10:50:24Z</time>
      </trkpt>
      <trkpt lat="45.98162" lon="4.8812">
        <ele>274</ele>
        <time>2018-02-13T10:50:25Z</time>
      </trkpt>
      <trkpt lat="45.98165" lon="4.8813">
        <ele>274</ele>
        <time>2018-02-13T10:50:26Z</time>
      </trkpt>
      <trkpt lat="45.98167" lon="4.88139">
        <ele>273</ele>
        <time>2018-02-13T10:50:27Z</time>
      </trkpt>
      <trkpt lat="45.9817" lon="4.88148">
        <ele>273</ele>
        <time>2018-02-13T10:50:28Z</time>
      </trkpt>
      <trkpt lat="45.98173" lon="4.88158">
        <ele>273</ele>
        <time>2018-02-13T10:50:29Z</time>
      </trkpt>
      <trkpt lat="45.98177" lon="4.88167">
        <ele>273</ele>
        <time>2018-02-13T10:50:30Z</time>
      </trkpt>
      <trkpt lat="45.9818" lon="4.88177">
        <ele>273</ele>
        <time>2018-02-13T10:50:31Z</time>
      </trkpt>
      <trkpt lat="45.98182" lon="4.88185">
        <ele>273</ele>
        <time>2018-02-13T10:50:32Z</time>
      </trkpt>
      <trkpt lat="45.98185" lon="4.88195">
        <ele>273</ele>
        <time>2018-02-13T10:50:33Z</time>
      </trkpt>
      <trkpt lat="45.98188" lon="4.88204">
        <ele>273</ele>
        <time>2018-02-13T10:50:34Z</time>
      </trkpt>
      <trkpt lat="45.98191" lon="4.88212">
        <ele>273</ele>
        <time>2018-02-13T10:50:35Z</time>
      </trkpt>
      <trkpt lat="45.98195" lon="4.88222">
        <ele>273</ele>
        <time>2018-02-13T10:50:36Z</time>
      </trkpt>
      <trkpt lat="45.98198" lon="4.8823">
        <ele>273</ele>
        <time>2018-02-13T10:50:37Z</time>
      </trkpt>
      <trkpt lat="45.982" lon="4.8824">
        <ele>273</ele>
        <time>2018-02-13T10:50:38Z</time>
      </trkpt>
      <trkpt lat="45.98201" lon="4.88249">
        <ele>273</ele>
        <time>2018-02-13T10:50:39Z</time>
      </trkpt>
      <trkpt lat="45.98202" lon="4.88258">
        <ele>274</ele>
        <time>2018-02-13T10:50:40Z</time>
      </trkpt>
      <trkpt lat="45.98204" lon="4.88267">
        <ele>274</ele>
        <time>2018-02-13T10:50:41Z</time>
      </trkpt>
      <trkpt lat="45.98207" lon="4.88275">
        <ele>274</ele>
        <time>2018-02-13T10:50:42Z</time>
      </trkpt>
      <trkpt lat="45.98208" lon="4.88283">
        <ele>274</ele>
        <time>2018-02-13T10:50:43Z</time>
      </trkpt>
      <trkpt lat="45.9821" lon="4.88292">
        <ele>274</ele>
        <time>2018-02-13T10:50:44Z</time>
      </trkpt>
      <trkpt lat="45.98211" lon="4.88301">
        <ele>274</ele>
        <time>2018-02-13T10:50:45Z</time>
      </trkpt>
      <trkpt lat="45.98213" lon="4.88309">
        <ele>274</ele>
        <time>2018-02-13T10:50:46Z</time>
      </trkpt>
      <trkpt lat="45.98212" lon="4.88315">
        <ele>274</ele>
        <time>2018-02-13T10:50:47Z</time>
      </trkpt>
      <trkpt lat="45.98212" lon="4.88324">
        <ele>274</ele>
        <time>2018-02-13T10:50:48Z</time>
      </trkpt>
      <trkpt lat="45.98213" lon="4.8833">
        <ele>274</ele>
        <time>2018-02-13T10:50:49Z</time>
      </trkpt>
      <trkpt lat="45.98213" lon="4.88337">
        <ele>275</ele>
        <time>2018-02-13T10:50:50Z</time>
      </trkpt>
      <trkpt lat="45.98213" lon="4.88344">
        <ele>275</ele>
        <time>2018-02-13T10:50:51Z</time>
      </trkpt>
      <trkpt lat="45.98214" lon="4.88351">
        <ele>275</ele>
        <time>2018-02-13T10:50:52Z</time>
      </trkpt>
      <trkpt lat="45.98214" lon="4.88363">
        <ele>275</ele>
        <time>2018-02-13T10:50:54Z</time>
      </trkpt>
      <trkpt lat="45.98215" lon="4.8837">
        <ele>275</ele>
        <time>2018-02-13T10:50:55Z</time>
      </trkpt>
      <trkpt lat="45.98215" lon="4.88376">
        <ele>275</ele>
        <time>2018-02-13T10:50:56Z</time>
      </trkpt>
      <trkpt lat="45.98216" lon="4.88383">
        <ele>275</ele>
        <time>2018-02-13T10:50:57Z</time>
      </trkpt>
      <trkpt lat="45.98217" lon="4.88389">
        <ele>275</ele>
        <time>2018-02-13T10:50:58Z</time>
      </trkpt>
      <trkpt lat="45.98219" lon="4.88396">
        <ele>275</ele>
        <time>2018-02-13T10:50:59Z</time>
      </trkpt>
      <trkpt lat="45.98221" lon="4.88402">
        <ele>275</ele>
        <time>2018-02-13T10:51:00Z</time>
      </trkpt>
      <trkpt lat="45.98223" lon="4.8841">
        <ele>275</ele>
        <time>2018-02-13T10:51:01Z</time>
      </trkpt>
      <trkpt lat="45.98226" lon="4.88422">
        <ele>276</ele>
        <time>2018-02-13T10:51:03Z</time>
      </trkpt>
      <trkpt lat="45.98229" lon="4.88428">
        <ele>276</ele>
        <time>2018-02-13T10:51:04Z</time>
      </trkpt>
      <trkpt lat="45.98232" lon="4.88434">
        <ele>276</ele>
        <time>2018-02-13T10:51:05Z</time>
      </trkpt>
      <trkpt lat="45.98233" lon="4.8844">
        <ele>276</ele>
        <time>2018-02-13T10:51:06Z</time>
      </trkpt>
      <trkpt lat="45.98234" lon="4.88453">
        <ele>276</ele>
        <time>2018-02-13T10:51:08Z</time>
      </trkpt>
      <trkpt lat="45.98236" lon="4.88458">
        <ele>276</ele>
        <time>2018-02-13T10:51:09Z</time>
      </trkpt>
      <trkpt lat="45.98237" lon="4.88465">
        <ele>276</ele>
        <time>2018-02-13T10:51:10Z</time>
      </trkpt>
      <trkpt lat="45.98238" lon="4.88471">
        <ele>276</ele>
        <time>2018-02-13T10:51:11Z</time>
      </trkpt>
      <trkpt lat="45.98242" lon="4.88483">
        <ele>276</ele>
        <time>2018-02-13T10:51:13Z</time>
      </trkpt>
      <trkpt lat="45.98243" lon="4.88489">
        <ele>276</ele>
        <time>2018-02-13T10:51:14Z</time>
      </trkpt>
      <trkpt lat="45.98246" lon="4.885">
        <ele>277</ele>
        <time>2018-02-13T10:51:16Z</time>
      </trkpt>
      <trkpt lat="45.98249" lon="4.88506">
        <ele>277</ele>
        <time>2018-02-13T10:51:17Z</time>
      </trkpt>
      <trkpt lat="45.98252" lon="4.88512">
        <ele>277</ele>
        <time>2018-02-13T10:51:18Z</time>
      </trkpt>
      <trkpt lat="45.98254" lon="4.88518">
        <ele>277</ele>
        <time>2018-02-13T10:51:19Z</time>
      </trkpt>
      <trkpt lat="45.98255" lon="4.88525">
        <ele>277</ele>
        <time>2018-02-13T10:51:20Z</time>
      </trkpt>
      <trkpt lat="45.98256" lon="4.88533">
        <ele>276</ele>
        <time>2018-02-13T10:51:21Z</time>
      </trkpt>
      <trkpt lat="45.98258" lon="4.8854">
        <ele>276</ele>
        <time>2018-02-13T10:51:22Z</time>
      </trkpt>
      <trkpt lat="45.98259" lon="4.88546">
        <ele>276</ele>
        <time>2018-02-13T10:51:23Z</time>
      </trkpt>
      <trkpt lat="45.98261" lon="4.88558">
        <ele>276</ele>
        <time>2018-02-13T10:51:25Z</time>
      </trkpt>
      <trkpt lat="45.98263" lon="4.88564">
        <ele>276</ele>
        <time>2018-02-13T10:51:26Z</time>
      </trkpt>
      <trkpt lat="45.98265" lon="4.88575">
        <ele>276</ele>
        <time>2018-02-13T10:51:28Z</time>
      </trkpt>
      <trkpt lat="45.98266" lon="4.88581">
        <ele>276</ele>
        <time>2018-02-13T10:51:29Z</time>
      </trkpt>
      <trkpt lat="45.98268" lon="4.88593">
        <ele>275</ele>
        <time>2018-02-13T10:51:31Z</time>
      </trkpt>
      <trkpt lat="45.98269" lon="4.88599">
        <ele>275</ele>
        <time>2018-02-13T10:51:32Z</time>
      </trkpt>
      <trkpt lat="45.98269" lon="4.88605">
        <ele>276</ele>
        <time>2018-02-13T10:51:33Z</time>
      </trkpt>
      <trkpt lat="45.98271" lon="4.88612">
        <ele>276</ele>
        <time>2018-02-13T10:51:34Z</time>
      </trkpt>
      <trkpt lat="45.98272" lon="4.88619">
        <ele>276</ele>
        <time>2018-02-13T10:51:35Z</time>
      </trkpt>
      <trkpt lat="45.98274" lon="4.88625">
        <ele>276</ele>
        <time>2018-02-13T10:51:36Z</time>
      </trkpt>
      <trkpt lat="45.98275" lon="4.88631">
        <ele>276</ele>
        <time>2018-02-13T10:51:37Z</time>
      </trkpt>
      <trkpt lat="45.98276" lon="4.88637">
        <ele>276</ele>
        <time>2018-02-13T10:51:38Z</time>
      </trkpt>
      <trkpt lat="45.98277" lon="4.88644">
        <ele>276</ele>
        <time>2018-02-13T10:51:39Z</time>
      </trkpt>
      <trkpt lat="45.98279" lon="4.8865">
        <ele>276</ele>
        <time>2018-02-13T10:51:40Z</time>
      </trkpt>
      <trkpt lat="45.9828" lon="4.88658">
        <ele>276</ele>
        <time>2018-02-13T10:51:41Z</time>
      </trkpt>
      <trkpt lat="45.98282" lon="4.88664">
        <ele>276</ele>
        <time>2018-02-13T10:51:42Z</time>
      </trkpt>
      <trkpt lat="45.98283" lon="4.88671">
        <ele>276</ele>
        <time>2018-02-13T10:51:43Z</time>
      </trkpt>
      <trkpt lat="45.98285" lon="4.88677">
        <ele>276</ele>
        <time>2018-02-13T10:51:44Z</time>
      </trkpt>
      <trkpt lat="45.98287" lon="4.88683">
        <ele>276</ele>
        <time>2018-02-13T10:51:45Z</time>
      </trkpt>
      <trkpt lat="45.98289" lon="4.88689">
        <ele>276</ele>
        <time>2018-02-13T10:51:46Z</time>
      </trkpt>
      <trkpt lat="45.98291" lon="4.88696">
        <ele>276</ele>
        <time>2018-02-13T10:51:47Z</time>
      </trkpt>
      <trkpt lat="45.98293" lon="4.88702">
        <ele>276</ele>
        <time>2018-02-13T10:51:48Z</time>
      </trkpt>
      <trkpt lat="45.98295" lon="4.88714">
        <ele>276</ele>
        <time>2018-02-13T10:51:50Z</time>
      </trkpt>
      <trkpt lat="45.98296" lon="4.8872">
        <ele>276</ele>
        <time>2018-02-13T10:51:51Z</time>
      </trkpt>
      <trkpt lat="45.98299" lon="4.88731">
        <ele>276</ele>
        <time>2018-02-13T10:51:53Z</time>
      </trkpt>
      <trkpt lat="45.98301" lon="4.88738">
        <ele>276</ele>
        <time>2018-02-13T10:51:54Z</time>
      </trkpt>
      <trkpt lat="45.98303" lon="4.88743">
        <ele>276</ele>
        <time>2018-02-13T10:51:55Z</time>
      </trkpt>
      <trkpt lat="45.98307" lon="4.8875">
        <ele>276</ele>
        <time>2018-02-13T10:51:56Z</time>
      </trkpt>
      <trkpt lat="45.98308" lon="4.88757">
        <ele>276</ele>
        <time>2018-02-13T10:51:57Z</time>
      </trkpt>
      <trkpt lat="45.98309" lon="4.88763">
        <ele>276</ele>
        <time>2018-02-13T10:51:58Z</time>
      </trkpt>
      <trkpt lat="45.98311" lon="4.88776">
        <ele>277</ele>
        <time>2018-02-13T10:52:00Z</time>
      </trkpt>
      <trkpt lat="45.98313" lon="4.88782">
        <ele>277</ele>
        <time>2018-02-13T10:52:01Z</time>
      </trkpt>
      <trkpt lat="45.98316" lon="4.88794">
        <ele>277</ele>
        <time>2018-02-13T10:52:03Z</time>
      </trkpt>
      <trkpt lat="45.98317" lon="4.88799">
        <ele>277</ele>
        <time>2018-02-13T10:52:04Z</time>
      </trkpt>
      <trkpt lat="45.9832" lon="4.88811">
        <ele>277</ele>
        <time>2018-02-13T10:52:06Z</time>
      </trkpt>
      <trkpt lat="45.98321" lon="4.88817">
        <ele>277</ele>
        <time>2018-02-13T10:52:07Z</time>
      </trkpt>
      <trkpt lat="45.98323" lon="4.88828">
        <ele>278</ele>
        <time>2018-02-13T10:52:09Z</time>
      </trkpt>
      <trkpt lat="45.98325" lon="4.88833">
        <ele>278</ele>
        <time>2018-02-13T10:52:10Z</time>
      </trkpt>
      <trkpt lat="45.98328" lon="4.88844">
        <ele>278</ele>
        <time>2018-02-13T10:52:12Z</time>
      </trkpt>
      <trkpt lat="45.9833" lon="4.8885">
        <ele>278</ele>
        <time>2018-02-13T10:52:13Z</time>
      </trkpt>
      <trkpt lat="45.98333" lon="4.88862">
        <ele>278</ele>
        <time>2018-02-13T10:52:15Z</time>
      </trkpt>
      <trkpt lat="45.98334" lon="4.88869">
        <ele>280</ele>
        <time>2018-02-13T10:52:16Z</time>
      </trkpt>
      <trkpt lat="45.98336" lon="4.88881">
        <ele>280</ele>
        <time>2018-02-13T10:52:18Z</time>
      </trkpt>
      <trkpt lat="45.98338" lon="4.88887">
        <ele>280</ele>
        <time>2018-02-13T10:52:19Z</time>
      </trkpt>
      <trkpt lat="45.98341" lon="4.88899">
        <ele>280</ele>
        <time>2018-02-13T10:52:21Z</time>
      </trkpt>
      <trkpt lat="45.98342" lon="4.88905">
        <ele>280</ele>
        <time>2018-02-13T10:52:22Z</time>
      </trkpt>
      <trkpt lat="45.98345" lon="4.88916">
        <ele>280</ele>
        <time>2018-02-13T10:52:24Z</time>
      </trkpt>
      <trkpt lat="45.98347" lon="4.88922">
        <ele>281</ele>
        <time>2018-02-13T10:52:25Z</time>
      </trkpt>
      <trkpt lat="45.9835" lon="4.88933">
        <ele>281</ele>
        <time>2018-02-13T10:52:27Z</time>
      </trkpt>
      <trkpt lat="45.98352" lon="4.88939">
        <ele>282</ele>
        <time>2018-02-13T10:52:28Z</time>
      </trkpt>
      <trkpt lat="45.98354" lon="4.8895">
        <ele>282</ele>
        <time>2018-02-13T10:52:30Z</time>
      </trkpt>
      <trkpt lat="45.98355" lon="4.88955">
        <ele>282</ele>
        <time>2018-02-13T10:52:31Z</time>
      </trkpt>
      <trkpt lat="45.98357" lon="4.88966">
        <ele>282</ele>
        <time>2018-02-13T10:52:33Z</time>
      </trkpt>
      <trkpt lat="45.98358" lon="4.88972">
        <ele>282</ele>
        <time>2018-02-13T10:52:34Z</time>
      </trkpt>
      <trkpt lat="45.98361" lon="4.88984">
        <ele>282</ele>
        <time>2018-02-13T10:52:36Z</time>
      </trkpt>
      <trkpt lat="45.98362" lon="4.88989">
        <ele>282</ele>
        <time>2018-02-13T10:52:37Z</time>
      </trkpt>
      <trkpt lat="45.98365" lon="4.89">
        <ele>283</ele>
        <time>2018-02-13T10:52:39Z</time>
      </trkpt>
      <trkpt lat="45.98366" lon="4.89006">
        <ele>283</ele>
        <time>2018-02-13T10:52:40Z</time>
      </trkpt>
      <trkpt lat="45.98369" lon="4.89018">
        <ele>284</ele>
        <time>2018-02-13T10:52:42Z</time>
      </trkpt>
      <trkpt lat="45.98371" lon="4.89024">
        <ele>284</ele>
        <time>2018-02-13T10:52:43Z</time>
      </trkpt>
      <trkpt lat="45.98374" lon="4.89035">
        <ele>284</ele>
        <time>2018-02-13T10:52:45Z</time>
      </trkpt>
      <trkpt lat="45.98375" lon="4.8904">
        <ele>284</ele>
        <time>2018-02-13T10:52:46Z</time>
      </trkpt>
      <trkpt lat="45.98378" lon="4.89051">
        <ele>284</ele>
        <time>2018-02-13T10:52:48Z</time>
      </trkpt>
      <trkpt lat="45.98379" lon="4.89057">
        <ele>284</ele>
        <time>2018-02-13T10:52:49Z</time>
      </trkpt>
      <trkpt lat="45.98382" lon="4.89067">
        <ele>285</ele>
        <time>2018-02-13T10:52:51Z</time>
      </trkpt>
      <trkpt lat="45.98384" lon="4.89072">
        <ele>285</ele>
        <time>2018-02-13T10:52:52Z</time>
      </trkpt>
      <trkpt lat="45.98387" lon="4.8908">
        <ele>285</ele>
        <time>2018-02-13T10:52:54Z</time>
      </trkpt>
      <trkpt lat="45.9839" lon="4.89085">
        <ele>285</ele>
        <time>2018-02-13T10:52:55Z</time>
      </trkpt>
      <trkpt lat="45.98395" lon="4.89093">
        <ele>286</ele>
        <time>2018-02-13T10:52:57Z</time>
      </trkpt>
      <trkpt lat="45.98398" lon="4.89097">
        <ele>286</ele>
        <time>2018-02-13T10:52:58Z</time>
      </trkpt>
      <trkpt lat="45.98403" lon="4.89106">
        <ele>286</ele>
        <time>2018-02-13T10:53:00Z</time>
      </trkpt>
      <trkpt lat="45.98406" lon="4.89111">
        <ele>286</ele>
        <time>2018-02-13T10:53:01Z</time>
      </trkpt>
      <trkpt lat="45.98413" lon="4.89119">
        <ele>286</ele>
        <time>2018-02-13T10:53:03Z</time>
      </trkpt>
      <trkpt lat="45.98413" lon="4.89124">
        <ele>285</ele>
        <time>2018-02-13T10:53:04Z</time>
      </trkpt>
      <trkpt lat="45.98417" lon="4.89129">
        <ele>288</ele>
        <time>2018-02-13T10:53:05Z</time>
      </trkpt>
      <trkpt lat="45.9842" lon="4.89134">
        <ele>288</ele>
        <time>2018-02-13T10:53:06Z</time>
      </trkpt>
      <trkpt lat="45.98426" lon="4.89143">
        <ele>288</ele>
        <time>2018-02-13T10:53:08Z</time>
      </trkpt>
      <trkpt lat="45.98428" lon="4.89148">
        <ele>288</ele>
        <time>2018-02-13T10:53:09Z</time>
      </trkpt>
      <trkpt lat="45.98434" lon="4.89155">
        <ele>288</ele>
        <time>2018-02-13T10:53:11Z</time>
      </trkpt>
      <trkpt lat="45.98436" lon="4.8916">
        <ele>288</ele>
        <time>2018-02-13T10:53:12Z</time>
      </trkpt>
      <trkpt lat="45.98442" lon="4.89168">
        <ele>288</ele>
        <time>2018-02-13T10:53:14Z</time>
      </trkpt>
      <trkpt lat="45.98445" lon="4.89173">
        <ele>288</ele>
        <time>2018-02-13T10:53:15Z</time>
      </trkpt>
      <trkpt lat="45.98449" lon="4.89183">
        <ele>288</ele>
        <time>2018-02-13T10:53:17Z</time>
      </trkpt>
      <trkpt lat="45.98451" lon="4.89187">
        <ele>289</ele>
        <time>2018-02-13T10:53:18Z</time>
      </trkpt>
      <trkpt lat="45.98455" lon="4.89197">
        <ele>289</ele>
        <time>2018-02-13T10:53:20Z</time>
      </trkpt>
      <trkpt lat="45.98457" lon="4.89201">
        <ele>289</ele>
        <time>2018-02-13T10:53:21Z</time>
      </trkpt>
      <trkpt lat="45.9846" lon="4.8921">
        <ele>289</ele>
        <time>2018-02-13T10:53:23Z</time>
      </trkpt>
      <trkpt lat="45.98462" lon="4.89215">
        <ele>289</ele>
        <time>2018-02-13T10:53:24Z</time>
      </trkpt>
      <trkpt lat="45.98466" lon="4.89223">
        <ele>289</ele>
        <time>2018-02-13T10:53:26Z</time>
      </trkpt>
      <trkpt lat="45.98468" lon="4.89227">
        <ele>289</ele>
        <time>2018-02-13T10:53:27Z</time>
      </trkpt>
      <trkpt lat="45.98473" lon="4.89235">
        <ele>289</ele>
        <time>2018-02-13T10:53:29Z</time>
      </trkpt>
      <trkpt lat="45.98475" lon="4.89238">
        <ele>289</ele>
        <time>2018-02-13T10:53:30Z</time>
      </trkpt>
      <trkpt lat="45.98479" lon="4.89247">
        <ele>289</ele>
        <time>2018-02-13T10:53:32Z</time>
      </trkpt>
      <trkpt lat="45.98481" lon="4.8925">
        <ele>291</ele>
        <time>2018-02-13T10:53:33Z</time>
      </trkpt>
      <trkpt lat="45.98485" lon="4.89258">
        <ele>291</ele>
        <time>2018-02-13T10:53:35Z</time>
      </trkpt>
      <trkpt lat="45.98486" lon="4.89262">
        <ele>291</ele>
        <time>2018-02-13T10:53:36Z</time>
      </trkpt>
      <trkpt lat="45.98491" lon="4.8927">
        <ele>292</ele>
        <time>2018-02-13T10:53:38Z</time>
      </trkpt>
      <trkpt lat="45.98494" lon="4.89275">
        <ele>292</ele>
        <time>2018-02-13T10:53:39Z</time>
      </trkpt>
      <trkpt lat="45.98498" lon="4.89281">
        <ele>292</ele>
        <time>2018-02-13T10:53:41Z</time>
      </trkpt>
      <trkpt lat="45.98503" lon="4.89287">
        <ele>292</ele>
        <time>2018-02-13T10:53:42Z</time>
      </trkpt>
      <trkpt lat="45.98507" lon="4.89292">
        <ele>292</ele>
        <time>2018-02-13T10:53:44Z</time>
      </trkpt>
      <trkpt lat="45.9851" lon="4.89297">
        <ele>293</ele>
        <time>2018-02-13T10:53:45Z</time>
      </trkpt>
      <trkpt lat="45.98517" lon="4.89304">
        <ele>293</ele>
        <time>2018-02-13T10:53:47Z</time>
      </trkpt>
      <trkpt lat="45.98519" lon="4.89308">
        <ele>293</ele>
        <time>2018-02-13T10:53:48Z</time>
      </trkpt>
      <trkpt lat="45.98525" lon="4.89316">
        <ele>293</ele>
        <time>2018-02-13T10:53:50Z</time>
      </trkpt>
      <trkpt lat="45.98528" lon="4.89321">
        <ele>293</ele>
        <time>2018-02-13T10:53:51Z</time>
      </trkpt>
      <trkpt lat="45.98532" lon="4.89325">
        <ele>293</ele>
        <time>2018-02-13T10:53:52Z</time>
      </trkpt>
      <trkpt lat="45.98536" lon="4.89328">
        <ele>293</ele>
        <time>2018-02-13T10:53:53Z</time>
      </trkpt>
      <trkpt lat="45.98541" lon="4.89335">
        <ele>295</ele>
        <time>2018-02-13T10:53:55Z</time>
      </trkpt>
      <trkpt lat="45.98544" lon="4.89339">
        <ele>295</ele>
        <time>2018-02-13T10:53:56Z</time>
      </trkpt>
      <trkpt lat="45.98547" lon="4.89344">
        <ele>295</ele>
        <time>2018-02-13T10:53:57Z</time>
      </trkpt>
      <trkpt lat="45.98551" lon="4.89348">
        <ele>295</ele>
        <time>2018-02-13T10:53:58Z</time>
      </trkpt>
      <trkpt lat="45.98554" lon="4.89352">
        <ele>295</ele>
        <time>2018-02-13T10:53:59Z</time>
      </trkpt>
      <trkpt lat="45.98558" lon="4.89357">
        <ele>295</ele>
        <time>2018-02-13T10:54:00Z</time>
      </trkpt>
      <trkpt lat="45.98562" lon="4.89361">
        <ele>295</ele>
        <time>2018-02-13T10:54:01Z</time>
      </trkpt>
      <trkpt lat="45.98565" lon="4.89365">
        <ele>295</ele>
        <time>2018-02-13T10:54:02Z</time>
      </trkpt>
      <trkpt lat="45.98569" lon="4.89369">
        <ele>295</ele>
        <time>2018-02-13T10:54:03Z</time>
      </trkpt>
      <trkpt lat="45.98573" lon="4.89373">
        <ele>295</ele>
        <time>2018-02-13T10:54:04Z</time>
      </trkpt>
      <trkpt lat="45.98577" lon="4.89377">
        <ele>295</ele>
        <time>2018-02-13T10:54:05Z</time>
      </trkpt>
      <trkpt lat="45.9858" lon="4.89381">
        <ele>295</ele>
        <time>2018-02-13T10:54:06Z</time>
      </trkpt>
      <trkpt lat="45.98584" lon="4.89384">
        <ele>292</ele>
        <time>2018-02-13T10:54:07Z</time>
      </trkpt>
      <trkpt lat="45.98589" lon="4.8939">
        <ele>292</ele>
        <time>2018-02-13T10:54:08Z</time>
      </trkpt>
      <trkpt lat="45.98593" lon="4.89394">
        <ele>292</ele>
        <time>2018-02-13T10:54:09Z</time>
      </trkpt>
      <trkpt lat="45.98597" lon="4.89399">
        <ele>292</ele>
        <time>2018-02-13T10:54:10Z</time>
      </trkpt>
      <trkpt lat="45.98602" lon="4.89401">
        <ele>292</ele>
        <time>2018-02-13T10:54:11Z</time>
      </trkpt>
      <trkpt lat="45.98607" lon="4.89406">
        <ele>291</ele>
        <time>2018-02-13T10:54:12Z</time>
      </trkpt>
      <trkpt lat="45.9861" lon="4.8941">
        <ele>291</ele>
        <time>2018-02-13T10:54:13Z</time>
      </trkpt>
      <trkpt lat="45.98615" lon="4.89415">
        <ele>291</ele>
        <time>2018-02-13T10:54:14Z</time>
      </trkpt>
      <trkpt lat="45.9862" lon="4.8942">
        <ele>291</ele>
        <time>2018-02-13T10:54:15Z</time>
      </trkpt>
      <trkpt lat="45.98626" lon="4.89425">
        <ele>291</ele>
        <time>2018-02-13T10:54:16Z</time>
      </trkpt>
      <trkpt lat="45.98631" lon="4.8943">
        <ele>291</ele>
        <time>2018-02-13T10:54:17Z</time>
      </trkpt>
      <trkpt lat="45.98636" lon="4.89436">
        <ele>291</ele>
        <time>2018-02-13T10:54:18Z</time>
      </trkpt>
      <trkpt lat="45.98638" lon="4.89441">
        <ele>291</ele>
        <time>2018-02-13T10:54:19Z</time>
      </trkpt>
      <trkpt lat="45.98642" lon="4.89445">
        <ele>291</ele>
        <time>2018-02-13T10:54:20Z</time>
      </trkpt>
      <trkpt lat="45.98646" lon="4.89449">
        <ele>290</ele>
        <time>2018-02-13T10:54:21Z</time>
      </trkpt>
      <trkpt lat="45.98651" lon="4.89453">
        <ele>290</ele>
        <time>2018-02-13T10:54:22Z</time>
      </trkpt>
      <trkpt lat="45.98655" lon="4.89459">
        <ele>290</ele>
        <time>2018-02-13T10:54:23Z</time>
      </trkpt>
      <trkpt lat="45.98658" lon="4.89463">
        <ele>290</ele>
        <time>2018-02-13T10:54:24Z</time>
      </trkpt>
      <trkpt lat="45.98662" lon="4.89467">
        <ele>290</ele>
        <time>2018-02-13T10:54:25Z</time>
      </trkpt>
      <trkpt lat="45.98667" lon="4.89472">
        <ele>290</ele>
        <time>2018-02-13T10:54:26Z</time>
      </trkpt>
      <trkpt lat="45.98671" lon="4.89481">
        <ele>289</ele>
        <time>2018-02-13T10:54:28Z</time>
      </trkpt>
      <trkpt lat="45.98673" lon="4.89485">
        <ele>289</ele>
        <time>2018-02-13T10:54:29Z</time>
      </trkpt>
      <trkpt lat="45.98676" lon="4.8949">
        <ele>289</ele>
        <time>2018-02-13T10:54:30Z</time>
      </trkpt>
      <trkpt lat="45.9868" lon="4.89494">
        <ele>289</ele>
        <time>2018-02-13T10:54:31Z</time>
      </trkpt>
      <trkpt lat="45.98685" lon="4.89498">
        <ele>289</ele>
        <time>2018-02-13T10:54:32Z</time>
      </trkpt>
      <trkpt lat="45.98688" lon="4.89502">
        <ele>289</ele>
        <time>2018-02-13T10:54:33Z</time>
      </trkpt>
      <trkpt lat="45.98692" lon="4.89514">
        <ele>289</ele>
        <time>2018-02-13T10:54:35Z</time>
      </trkpt>
      <trkpt lat="45.98696" lon="4.89519">
        <ele>289</ele>
        <time>2018-02-13T10:54:36Z</time>
      </trkpt>
      <trkpt lat="45.98698" lon="4.89525">
        <ele>289</ele>
        <time>2018-02-13T10:54:37Z</time>
      </trkpt>
      <trkpt lat="45.98702" lon="4.8953">
        <ele>289</ele>
        <time>2018-02-13T10:54:38Z</time>
      </trkpt>
      <trkpt lat="45.98706" lon="4.89535">
        <ele>289</ele>
        <time>2018-02-13T10:54:39Z</time>
      </trkpt>
      <trkpt lat="45.9871" lon="4.89541">
        <ele>290</ele>
        <time>2018-02-13T10:54:40Z</time>
      </trkpt>
      <trkpt lat="45.98713" lon="4.89547">
        <ele>290</ele>
        <time>2018-02-13T10:54:41Z</time>
      </trkpt>
      <trkpt lat="45.98716" lon="4.89551">
        <ele>290</ele>
        <time>2018-02-13T10:54:42Z</time>
      </trkpt>
      <trkpt lat="45.9872" lon="4.89556">
        <ele>290</ele>
        <time>2018-02-13T10:54:43Z</time>
      </trkpt>
      <trkpt lat="45.98723" lon="4.89561">
        <ele>290</ele>
        <time>2018-02-13T10:54:44Z</time>
      </trkpt>
      <trkpt lat="45.98727" lon="4.89566">
        <ele>290</ele>
        <time>2018-02-13T10:54:45Z</time>
      </trkpt>
      <trkpt lat="45.98731" lon="4.89571">
        <ele>290</ele>
        <time>2018-02-13T10:54:46Z</time>
      </trkpt>
      <trkpt lat="45.98735" lon="4.89577">
        <ele>290</ele>
        <time>2018-02-13T10:54:47Z</time>
      </trkpt>
      <trkpt lat="45.98739" lon="4.89581">
        <ele>290</ele>
        <time>2018-02-13T10:54:48Z</time>
      </trkpt>
      <trkpt lat="45.98743" lon="4.89585">
        <ele>291</ele>
        <time>2018-02-13T10:54:49Z</time>
      </trkpt>
      <trkpt lat="45.98747" lon="4.8959">
        <ele>291</ele>
        <time>2018-02-13T10:54:50Z</time>
      </trkpt>
      <trkpt lat="45.9875" lon="4.89594">
        <ele>291</ele>
        <time>2018-02-13T10:54:51Z</time>
      </trkpt>
      <trkpt lat="45.98754" lon="4.89599">
        <ele>291</ele>
        <time>2018-02-13T10:54:52Z</time>
      </trkpt>
      <trkpt lat="45.98757" lon="4.89604">
        <ele>291</ele>
        <time>2018-02-13T10:54:53Z</time>
      </trkpt>
      <trkpt lat="45.98761" lon="4.89608">
        <ele>291</ele>
        <time>2018-02-13T10:54:54Z</time>
      </trkpt>
      <trkpt lat="45.98766" lon="4.89617">
        <ele>291</ele>
        <time>2018-02-13T10:54:56Z</time>
      </trkpt>
      <trkpt lat="45.98769" lon="4.89621">
        <ele>291</ele>
        <time>2018-02-13T10:54:57Z</time>
      </trkpt>
      <trkpt lat="45.98773" lon="4.89627">
        <ele>291</ele>
        <time>2018-02-13T10:54:58Z</time>
      </trkpt>
      <trkpt lat="45.98776" lon="4.89632">
        <ele>291</ele>
        <time>2018-02-13T10:54:59Z</time>
      </trkpt>
      <trkpt lat="45.9878" lon="4.89636">
        <ele>291</ele>
        <time>2018-02-13T10:55:00Z</time>
      </trkpt>
      <trkpt lat="45.98783" lon="4.8964">
        <ele>291</ele>
        <time>2018-02-13T10:55:01Z</time>
      </trkpt>
      <trkpt lat="45.98786" lon="4.89645">
        <ele>291</ele>
        <time>2018-02-13T10:55:02Z</time>
      </trkpt>
      <trkpt lat="45.9879" lon="4.8965">
        <ele>291</ele>
        <time>2018-02-13T10:55:03Z</time>
      </trkpt>
      <trkpt lat="45.98796" lon="4.89658">
        <ele>291</ele>
        <time>2018-02-13T10:55:05Z</time>
      </trkpt>
      <trkpt lat="45.988" lon="4.89662">
        <ele>291</ele>
        <time>2018-02-13T10:55:06Z</time>
      </trkpt>
      <trkpt lat="45.98807" lon="4.8967">
        <ele>292</ele>
        <time>2018-02-13T10:55:08Z</time>
      </trkpt>
      <trkpt lat="45.9881" lon="4.89673">
        <ele>292</ele>
        <time>2018-02-13T10:55:09Z</time>
      </trkpt>
      <trkpt lat="45.98816" lon="4.89681">
        <ele>292</ele>
        <time>2018-02-13T10:55:11Z</time>
      </trkpt>
      <trkpt lat="45.98819" lon="4.89684">
        <ele>292</ele>
        <time>2018-02-13T10:55:12Z</time>
      </trkpt>
      <trkpt lat="45.98823" lon="4.89689">
        <ele>292</ele>
        <time>2018-02-13T10:55:13Z</time>
      </trkpt>
      <trkpt lat="45.98827" lon="4.89693">
        <ele>292</ele>
        <time>2018-02-13T10:55:14Z</time>
      </trkpt>
      <trkpt lat="45.98833" lon="4.897">
        <ele>292</ele>
        <time>2018-02-13T10:55:16Z</time>
      </trkpt>
      <trkpt lat="45.98836" lon="4.89705">
        <ele>292</ele>
        <time>2018-02-13T10:55:17Z</time>
      </trkpt>
      <trkpt lat="45.98844" lon="4.89712">
        <ele>293</ele>
        <time>2018-02-13T10:55:19Z</time>
      </trkpt>
      <trkpt lat="45.98847" lon="4.89716">
        <ele>293</ele>
        <time>2018-02-13T10:55:20Z</time>
      </trkpt>
      <trkpt lat="45.98853" lon="4.89721">
        <ele>293</ele>
        <time>2018-02-13T10:55:22Z</time>
      </trkpt>
      <trkpt lat="45.98857" lon="4.89724">
        <ele>293</ele>
        <time>2018-02-13T10:55:23Z</time>
      </trkpt>
      <trkpt lat="45.98861" lon="4.89727">
        <ele>293</ele>
        <time>2018-02-13T10:55:24Z</time>
      </trkpt>
      <trkpt lat="45.98864" lon="4.89731">
        <ele>293</ele>
        <time>2018-02-13T10:55:25Z</time>
      </trkpt>
      <trkpt lat="45.98872" lon="4.89737">
        <ele>293</ele>
        <time>2018-02-13T10:55:27Z</time>
      </trkpt>
      <trkpt lat="45.98876" lon="4.8974">
        <ele>293</ele>
        <time>2018-02-13T10:55:28Z</time>
      </trkpt>
      <trkpt lat="45.98883" lon="4.89745">
        <ele>293</ele>
        <time>2018-02-13T10:55:30Z</time>
      </trkpt>
      <trkpt lat="45.98887" lon="4.89748">
        <ele>293</ele>
        <time>2018-02-13T10:55:31Z</time>
      </trkpt>
      <trkpt lat="45.98895" lon="4.89754">
        <ele>293</ele>
        <time>2018-02-13T10:55:33Z</time>
      </trkpt>
      <trkpt lat="45.989" lon="4.89756">
        <ele>293</ele>
        <time>2018-02-13T10:55:34Z</time>
      </trkpt>
      <trkpt lat="45.98905" lon="4.89759">
        <ele>293</ele>
        <time>2018-02-13T10:55:35Z</time>
      </trkpt>
      <trkpt lat="45.98911" lon="4.89762">
        <ele>293</ele>
        <time>2018-02-13T10:55:36Z</time>
      </trkpt>
      <trkpt lat="45.98916" lon="4.89764">
        <ele>293</ele>
        <time>2018-02-13T10:55:37Z</time>
      </trkpt>
      <trkpt lat="45.98921" lon="4.89768">
        <ele>293</ele>
        <time>2018-02-13T10:55:38Z</time>
      </trkpt>
      <trkpt lat="45.98925" lon="4.89771">
        <ele>293</ele>
        <time>2018-02-13T10:55:39Z</time>
      </trkpt>
      <trkpt lat="45.9893" lon="4.89775">
        <ele>293</ele>
        <time>2018-02-13T10:55:40Z</time>
      </trkpt>
      <trkpt lat="45.98935" lon="4.89779">
        <ele>293</ele>
        <time>2018-02-13T10:55:41Z</time>
      </trkpt>
      <trkpt lat="45.9894" lon="4.89782">
        <ele>293</ele>
        <time>2018-02-13T10:55:42Z</time>
      </trkpt>
      <trkpt lat="45.98944" lon="4.89785">
        <ele>293</ele>
        <time>2018-02-13T10:55:43Z</time>
      </trkpt>
      <trkpt lat="45.98948" lon="4.89787">
        <ele>293</ele>
        <time>2018-02-13T10:55:44Z</time>
      </trkpt>
      <trkpt lat="45.98952" lon="4.89791">
        <ele>293</ele>
        <time>2018-02-13T10:55:45Z</time>
      </trkpt>
      <trkpt lat="45.98956" lon="4.89795">
        <ele>293</ele>
        <time>2018-02-13T10:55:46Z</time>
      </trkpt>
      <trkpt lat="45.98961" lon="4.89798">
        <ele>293</ele>
        <time>2018-02-13T10:55:47Z</time>
      </trkpt>
      <trkpt lat="45.98965" lon="4.89802">
        <ele>293</ele>
        <time>2018-02-13T10:55:48Z</time>
      </trkpt>
      <trkpt lat="45.98968" lon="4.89807">
        <ele>293</ele>
        <time>2018-02-13T10:55:49Z</time>
      </trkpt>
      <trkpt lat="45.98973" lon="4.89811">
        <ele>293</ele>
        <time>2018-02-13T10:55:50Z</time>
      </trkpt>
      <trkpt lat="45.98977" lon="4.89816">
        <ele>293</ele>
        <time>2018-02-13T10:55:51Z</time>
      </trkpt>
      <trkpt lat="45.98981" lon="4.8982">
        <ele>293</ele>
        <time>2018-02-13T10:55:52Z</time>
      </trkpt>
      <trkpt lat="45.98985" lon="4.89825">
        <ele>293</ele>
        <time>2018-02-13T10:55:53Z</time>
      </trkpt>
      <trkpt lat="45.98989" lon="4.89829">
        <ele>293</ele>
        <time>2018-02-13T10:55:54Z</time>
      </trkpt>
      <trkpt lat="45.98993" lon="4.89834">
        <ele>293</ele>
        <time>2018-02-13T10:55:55Z</time>
      </trkpt>
      <trkpt lat="45.98997" lon="4.89839">
        <ele>293</ele>
        <time>2018-02-13T10:55:56Z</time>
      </trkpt>
      <trkpt lat="45.99001" lon="4.89844">
        <ele>293</ele>
        <time>2018-02-13T10:55:57Z</time>
      </trkpt>
      <trkpt lat="45.99005" lon="4.89849">
        <ele>293</ele>
        <time>2018-02-13T10:55:58Z</time>
      </trkpt>
      <trkpt lat="45.9901" lon="4.89854">
        <ele>293</ele>
        <time>2018-02-13T10:55:59Z</time>
      </trkpt>
      <trkpt lat="45.99014" lon="4.89859">
        <ele>293</ele>
        <time>2018-02-13T10:56:00Z</time>
      </trkpt>
      <trkpt lat="45.99018" lon="4.89863">
        <ele>293</ele>
        <time>2018-02-13T10:56:01Z</time>
      </trkpt>
      <trkpt lat="45.99022" lon="4.89867">
        <ele>293</ele>
        <time>2018-02-13T10:56:02Z</time>
      </trkpt>
      <trkpt lat="45.99024" lon="4.89873">
        <ele>293</ele>
        <time>2018-02-13T10:56:03Z</time>
      </trkpt>
      <trkpt lat="45.99029" lon="4.89879">
        <ele>293</ele>
        <time>2018-02-13T10:56:04Z</time>
      </trkpt>
      <trkpt lat="45.99035" lon="4.89888">
        <ele>293</ele>
        <time>2018-02-13T10:56:06Z</time>
      </trkpt>
      <trkpt lat="45.99038" lon="4.89894">
        <ele>293</ele>
        <time>2018-02-13T10:56:07Z</time>
      </trkpt>
      <trkpt lat="45.99041" lon="4.89899">
        <ele>293</ele>
        <time>2018-02-13T10:56:08Z</time>
      </trkpt>
      <trkpt lat="45.99045" lon="4.89904">
        <ele>293</ele>
        <time>2018-02-13T10:56:09Z</time>
      </trkpt>
      <trkpt lat="45.99049" lon="4.89908">
        <ele>293</ele>
        <time>2018-02-13T10:56:10Z</time>
      </trkpt>
      <trkpt lat="45.99053" lon="4.89914">
        <ele>293</ele>
        <time>2018-02-13T10:56:11Z</time>
      </trkpt>
      <trkpt lat="45.99058" lon="4.89918">
        <ele>294</ele>
        <time>2018-02-13T10:56:12Z</time>
      </trkpt>
      <trkpt lat="45.99062" lon="4.89923">
        <ele>294</ele>
        <time>2018-02-13T10:56:13Z</time>
      </trkpt>
      <trkpt lat="45.99067" lon="4.89927">
        <ele>294</ele>
        <time>2018-02-13T10:56:14Z</time>
      </trkpt>
      <trkpt lat="45.9907" lon="4.89931">
        <ele>294</ele>
        <time>2018-02-13T10:56:15Z</time>
      </trkpt>
      <trkpt lat="45.99075" lon="4.8994">
        <ele>294</ele>
        <time>2018-02-13T10:56:17Z</time>
      </trkpt>
      <trkpt lat="45.99078" lon="4.89946">
        <ele>294</ele>
        <time>2018-02-13T10:56:18Z</time>
      </trkpt>
      <trkpt lat="45.99081" lon="4.89951">
        <ele>294</ele>
        <time>2018-02-13T10:56:19Z</time>
      </trkpt>
      <trkpt lat="45.99087" lon="4.89956">
        <ele>295</ele>
        <time>2018-02-13T10:56:20Z</time>
      </trkpt>
      <trkpt lat="45.9909" lon="4.89961">
        <ele>295</ele>
        <time>2018-02-13T10:56:21Z</time>
      </trkpt>
      <trkpt lat="45.99094" lon="4.89966">
        <ele>295</ele>
        <time>2018-02-13T10:56:22Z</time>
      </trkpt>
      <trkpt lat="45.99101" lon="4.89975">
        <ele>295</ele>
        <time>2018-02-13T10:56:24Z</time>
      </trkpt>
      <trkpt lat="45.99104" lon="4.89979">
        <ele>295</ele>
        <time>2018-02-13T10:56:25Z</time>
      </trkpt>
      <trkpt lat="45.99109" lon="4.89988">
        <ele>295</ele>
        <time>2018-02-13T10:56:27Z</time>
      </trkpt>
      <trkpt lat="45.99113" lon="4.89993">
        <ele>295</ele>
        <time>2018-02-13T10:56:28Z</time>
      </trkpt>
      <trkpt lat="45.99117" lon="4.89999">
        <ele>295</ele>
        <time>2018-02-13T10:56:29Z</time>
      </trkpt>
      <trkpt lat="45.99121" lon="4.90004">
        <ele>296</ele>
        <time>2018-02-13T10:56:30Z</time>
      </trkpt>
      <trkpt lat="45.99125" lon="4.90009">
        <ele>296</ele>
        <time>2018-02-13T10:56:31Z</time>
      </trkpt>
      <trkpt lat="45.99128" lon="4.90014">
        <ele>296</ele>
        <time>2018-02-13T10:56:32Z</time>
      </trkpt>
      <trkpt lat="45.99132" lon="4.90017">
        <ele>296</ele>
        <time>2018-02-13T10:56:33Z</time>
      </trkpt>
      <trkpt lat="45.99135" lon="4.90022">
        <ele>297</ele>
        <time>2018-02-13T10:56:34Z</time>
      </trkpt>
      <trkpt lat="45.99138" lon="4.90026">
        <ele>297</ele>
        <time>2018-02-13T10:56:35Z</time>
      </trkpt>
      <trkpt lat="45.99142" lon="4.9003">
        <ele>297</ele>
        <time>2018-02-13T10:56:36Z</time>
      </trkpt>
      <trkpt lat="45.99146" lon="4.90036">
        <ele>297</ele>
        <time>2018-02-13T10:56:37Z</time>
      </trkpt>
      <trkpt lat="45.99151" lon="4.90041">
        <ele>297</ele>
        <time>2018-02-13T10:56:38Z</time>
      </trkpt>
      <trkpt lat="45.99154" lon="4.90046">
        <ele>297</ele>
        <time>2018-02-13T10:56:39Z</time>
      </trkpt>
      <trkpt lat="45.9916" lon="4.90052">
        <ele>297</ele>
        <time>2018-02-13T10:56:40Z</time>
      </trkpt>
      <trkpt lat="45.99164" lon="4.90057">
        <ele>297</ele>
        <time>2018-02-13T10:56:41Z</time>
      </trkpt>
      <trkpt lat="45.99169" lon="4.90063">
        <ele>297</ele>
        <time>2018-02-13T10:56:42Z</time>
      </trkpt>
      <trkpt lat="45.99174" lon="4.90069">
        <ele>297</ele>
        <time>2018-02-13T10:56:43Z</time>
      </trkpt>
      <trkpt lat="45.99179" lon="4.90076">
        <ele>297</ele>
        <time>2018-02-13T10:56:44Z</time>
      </trkpt>
      <trkpt lat="45.99183" lon="4.90082">
        <ele>297</ele>
        <time>2018-02-13T10:56:45Z</time>
      </trkpt>
      <trkpt lat="45.99187" lon="4.90088">
        <ele>297</ele>
        <time>2018-02-13T10:56:46Z</time>
      </trkpt>
      <trkpt lat="45.99192" lon="4.90095">
        <ele>297</ele>
        <time>2018-02-13T10:56:47Z</time>
      </trkpt>
      <trkpt lat="45.99197" lon="4.901">
        <ele>297</ele>
        <time>2018-02-13T10:56:48Z</time>
      </trkpt>
      <trkpt lat="45.992" lon="4.90105">
        <ele>297</ele>
        <time>2018-02-13T10:56:49Z</time>
      </trkpt>
      <trkpt lat="45.99205" lon="4.9011">
        <ele>297</ele>
        <time>2018-02-13T10:56:50Z</time>
      </trkpt>
      <trkpt lat="45.99209" lon="4.90117">
        <ele>297</ele>
        <time>2018-02-13T10:56:51Z</time>
      </trkpt>
      <trkpt lat="45.99212" lon="4.9012">
        <ele>297</ele>
        <time>2018-02-13T10:56:52Z</time>
      </trkpt>
      <trkpt lat="45.99216" lon="4.90124">
        <ele>297</ele>
        <time>2018-02-13T10:56:53Z</time>
      </trkpt>
      <trkpt lat="45.9922" lon="4.90128">
        <ele>297</ele>
        <time>2018-02-13T10:56:54Z</time>
      </trkpt>
      <trkpt lat="45.99223" lon="4.90134">
        <ele>297</ele>
        <time>2018-02-13T10:56:55Z</time>
      </trkpt>
      <trkpt lat="45.99227" lon="4.90139">
        <ele>297</ele>
        <time>2018-02-13T10:56:56Z</time>
      </trkpt>
      <trkpt lat="45.99234" lon="4.90148">
        <ele>297</ele>
        <time>2018-02-13T10:56:58Z</time>
      </trkpt>
      <trkpt lat="45.99237" lon="4.90154">
        <ele>297</ele>
        <time>2018-02-13T10:56:59Z</time>
      </trkpt>
      <trkpt lat="45.99243" lon="4.90159">
        <ele>297</ele>
        <time>2018-02-13T10:57:00Z</time>
      </trkpt>
      <trkpt lat="45.99247" lon="4.90164">
        <ele>297</ele>
        <time>2018-02-13T10:57:01Z</time>
      </trkpt>
      <trkpt lat="45.9925" lon="4.9017">
        <ele>297</ele>
        <time>2018-02-13T10:57:02Z</time>
      </trkpt>
      <trkpt lat="45.99255" lon="4.90175">
        <ele>297</ele>
        <time>2018-02-13T10:57:03Z</time>
      </trkpt>
      <trkpt lat="45.99259" lon="4.90181">
        <ele>298</ele>
        <time>2018-02-13T10:57:04Z</time>
      </trkpt>
      <trkpt lat="45.99262" lon="4.90186">
        <ele>298</ele>
        <time>2018-02-13T10:57:05Z</time>
      </trkpt>
      <trkpt lat="45.99267" lon="4.90192">
        <ele>298</ele>
        <time>2018-02-13T10:57:06Z</time>
      </trkpt>
      <trkpt lat="45.9927" lon="4.90197">
        <ele>298</ele>
        <time>2018-02-13T10:57:07Z</time>
      </trkpt>
      <trkpt lat="45.99274" lon="4.90207">
        <ele>298</ele>
        <time>2018-02-13T10:57:09Z</time>
      </trkpt>
      <trkpt lat="45.99278" lon="4.90212">
        <ele>298</ele>
        <time>2018-02-13T10:57:10Z</time>
      </trkpt>
      <trkpt lat="45.99281" lon="4.90217">
        <ele>298</ele>
        <time>2018-02-13T10:57:11Z</time>
      </trkpt>
      <trkpt lat="45.99284" lon="4.90221">
        <ele>298</ele>
        <time>2018-02-13T10:57:12Z</time>
      </trkpt>
      <trkpt lat="45.99288" lon="4.90226">
        <ele>298</ele>
        <time>2018-02-13T10:57:13Z</time>
      </trkpt>
      <trkpt lat="45.99293" lon="4.90232">
        <ele>298</ele>
        <time>2018-02-13T10:57:14Z</time>
      </trkpt>
      <trkpt lat="45.99297" lon="4.90236">
        <ele>298</ele>
        <time>2018-02-13T10:57:15Z</time>
      </trkpt>
      <trkpt lat="45.993" lon="4.90241">
        <ele>298</ele>
        <time>2018-02-13T10:57:16Z</time>
      </trkpt>
      <trkpt lat="45.99303" lon="4.90246">
        <ele>298</ele>
        <time>2018-02-13T10:57:17Z</time>
      </trkpt>
      <trkpt lat="45.99307" lon="4.90251">
        <ele>299</ele>
        <time>2018-02-13T10:57:18Z</time>
      </trkpt>
      <trkpt lat="45.99312" lon="4.9026">
        <ele>299</ele>
        <time>2018-02-13T10:57:20Z</time>
      </trkpt>
      <trkpt lat="45.99315" lon="4.90264">
        <ele>299</ele>
        <time>2018-02-13T10:57:21Z</time>
      </trkpt>
      <trkpt lat="45.99316" lon="4.90274">
        <ele>299</ele>
        <time>2018-02-13T10:57:23Z</time>
      </trkpt>
      <trkpt lat="45.99317" lon="4.90277">
        <ele>299</ele>
        <time>2018-02-13T10:57:24Z</time>
      </trkpt>
      <trkpt lat="45.9932" lon="4.90289">
        <ele>299</ele>
        <time>2018-02-13T10:57:27Z</time>
      </trkpt>
      <trkpt lat="45.99323" lon="4.90291">
        <ele>299</ele>
        <time>2018-02-13T10:57:28Z</time>
      </trkpt>
      <trkpt lat="45.9933" lon="4.90291">
        <ele>299</ele>
        <time>2018-02-13T10:57:30Z</time>
      </trkpt>
      <trkpt lat="45.99334" lon="4.90291">
        <ele>299</ele>
        <time>2018-02-13T10:57:31Z</time>
      </trkpt>
      <trkpt lat="45.99341" lon="4.90292">
        <ele>299</ele>
        <time>2018-02-13T10:57:33Z</time>
      </trkpt>
      <trkpt lat="45.99345" lon="4.90292">
        <ele>300</ele>
        <time>2018-02-13T10:57:34Z</time>
      </trkpt>
      <trkpt lat="45.99353" lon="4.90294">
        <ele>300</ele>
        <time>2018-02-13T10:57:36Z</time>
      </trkpt>
      <trkpt lat="45.99358" lon="4.90294">
        <ele>300</ele>
        <time>2018-02-13T10:57:37Z</time>
      </trkpt>
      <trkpt lat="45.99363" lon="4.90295">
        <ele>300</ele>
        <time>2018-02-13T10:57:38Z</time>
      </trkpt>
      <trkpt lat="45.99369" lon="4.90295">
        <ele>300</ele>
        <time>2018-02-13T10:57:39Z</time>
      </trkpt>
      <trkpt lat="45.99373" lon="4.90296">
        <ele>300</ele>
        <time>2018-02-13T10:57:40Z</time>
      </trkpt>
      <trkpt lat="45.99378" lon="4.90296">
        <ele>300</ele>
        <time>2018-02-13T10:57:41Z</time>
      </trkpt>
      <trkpt lat="45.99384" lon="4.90296">
        <ele>300</ele>
        <time>2018-02-13T10:57:42Z</time>
      </trkpt>
      <trkpt lat="45.99388" lon="4.90296">
        <ele>300</ele>
        <time>2018-02-13T10:57:43Z</time>
      </trkpt>
      <trkpt lat="45.99393" lon="4.90296">
        <ele>300</ele>
        <time>2018-02-13T10:57:44Z</time>
      </trkpt>
      <trkpt lat="45.99397" lon="4.90296">
        <ele>300</ele>
        <time>2018-02-13T10:57:45Z</time>
      </trkpt>
      <trkpt lat="45.99406" lon="4.90298">
        <ele>300</ele>
        <time>2018-02-13T10:57:47Z</time>
      </trkpt>
      <trkpt lat="45.9941" lon="4.90298">
        <ele>300</ele>
        <time>2018-02-13T10:57:48Z</time>
      </trkpt>
      <trkpt lat="45.99418" lon="4.90298">
        <ele>300</ele>
        <time>2018-02-13T10:57:50Z</time>
      </trkpt>
      <trkpt lat="45.99424" lon="4.90299">
        <ele>300</ele>
        <time>2018-02-13T10:57:51Z</time>
      </trkpt>
      <trkpt lat="45.99429" lon="4.903">
        <ele>300</ele>
        <time>2018-02-13T10:57:52Z</time>
      </trkpt>
      <trkpt lat="45.99433" lon="4.90301">
        <ele>300</ele>
        <time>2018-02-13T10:57:53Z</time>
      </trkpt>
      <trkpt lat="45.99441" lon="4.90301">
        <ele>300</ele>
        <time>2018-02-13T10:57:55Z</time>
      </trkpt>
      <trkpt lat="45.99447" lon="4.90302">
        <ele>300</ele>
        <time>2018-02-13T10:57:56Z</time>
      </trkpt>
      <trkpt lat="45.99451" lon="4.90303">
        <ele>300</ele>
        <time>2018-02-13T10:57:57Z</time>
      </trkpt>
      <trkpt lat="45.99456" lon="4.90304">
        <ele>300</ele>
        <time>2018-02-13T10:57:58Z</time>
      </trkpt>
      <trkpt lat="45.9946" lon="4.90306">
        <ele>300</ele>
        <time>2018-02-13T10:57:59Z</time>
      </trkpt>
      <trkpt lat="45.99465" lon="4.90306">
        <ele>300</ele>
        <time>2018-02-13T10:58:00Z</time>
      </trkpt>
      <trkpt lat="45.99473" lon="4.90307">
        <ele>300</ele>
        <time>2018-02-13T10:58:02Z</time>
      </trkpt>
      <trkpt lat="45.99478" lon="4.90308">
        <ele>300</ele>
        <time>2018-02-13T10:58:03Z</time>
      </trkpt>
      <trkpt lat="45.99486" lon="4.9031">
        <ele>300</ele>
        <time>2018-02-13T10:58:05Z</time>
      </trkpt>
      <trkpt lat="45.99489" lon="4.9031">
        <ele>300</ele>
        <time>2018-02-13T10:58:06Z</time>
      </trkpt>
      <trkpt lat="45.99495" lon="4.9031">
        <ele>300</ele>
        <time>2018-02-13T10:58:07Z</time>
      </trkpt>
      <trkpt lat="45.99499" lon="4.90311">
        <ele>300</ele>
        <time>2018-02-13T10:58:08Z</time>
      </trkpt>
      <trkpt lat="45.99508" lon="4.90312">
        <ele>300</ele>
        <time>2018-02-13T10:58:10Z</time>
      </trkpt>
      <trkpt lat="45.99512" lon="4.90312">
        <ele>300</ele>
        <time>2018-02-13T10:58:11Z</time>
      </trkpt>
      <trkpt lat="45.99517" lon="4.90313">
        <ele>300</ele>
        <time>2018-02-13T10:58:12Z</time>
      </trkpt>
      <trkpt lat="45.99521" lon="4.90312">
        <ele>300</ele>
        <time>2018-02-13T10:58:13Z</time>
      </trkpt>
      <trkpt lat="45.99527" lon="4.90313">
        <ele>300</ele>
        <time>2018-02-13T10:58:14Z</time>
      </trkpt>
      <trkpt lat="45.9953" lon="4.90313">
        <ele>300</ele>
        <time>2018-02-13T10:58:15Z</time>
      </trkpt>
      <trkpt lat="45.99536" lon="4.90313">
        <ele>300</ele>
        <time>2018-02-13T10:58:16Z</time>
      </trkpt>
      <trkpt lat="45.99542" lon="4.90313">
        <ele>300</ele>
        <time>2018-02-13T10:58:17Z</time>
      </trkpt>
      <trkpt lat="45.9955" lon="4.90314">
        <ele>300</ele>
        <time>2018-02-13T10:58:19Z</time>
      </trkpt>
      <trkpt lat="45.99555" lon="4.90314">
        <ele>300</ele>
        <time>2018-02-13T10:58:20Z</time>
      </trkpt>
      <trkpt lat="45.99563" lon="4.90316">
        <ele>301</ele>
        <time>2018-02-13T10:58:22Z</time>
      </trkpt>
      <trkpt lat="45.99568" lon="4.90318">
        <ele>301</ele>
        <time>2018-02-13T10:58:23Z</time>
      </trkpt>
      <trkpt lat="45.99576" lon="4.90319">
        <ele>301</ele>
        <time>2018-02-13T10:58:25Z</time>
      </trkpt>
      <trkpt lat="45.9958" lon="4.90321">
        <ele>301</ele>
        <time>2018-02-13T10:58:26Z</time>
      </trkpt>
      <trkpt lat="45.99586" lon="4.90323">
        <ele>301</ele>
        <time>2018-02-13T10:58:28Z</time>
      </trkpt>
      <trkpt lat="45.99591" lon="4.90324">
        <ele>301</ele>
        <time>2018-02-13T10:58:29Z</time>
      </trkpt>
      <trkpt lat="45.99599" lon="4.90323">
        <ele>301</ele>
        <time>2018-02-13T10:58:31Z</time>
      </trkpt>
      <trkpt lat="45.99602" lon="4.90322">
        <ele>301</ele>
        <time>2018-02-13T10:58:32Z</time>
      </trkpt>
      <trkpt lat="45.9961" lon="4.90323">
        <ele>301</ele>
        <time>2018-02-13T10:58:34Z</time>
      </trkpt>
      <trkpt lat="45.99614" lon="4.90323">
        <ele>302</ele>
        <time>2018-02-13T10:58:35Z</time>
      </trkpt>
      <trkpt lat="45.99622" lon="4.90324">
        <ele>302</ele>
        <time>2018-02-13T10:58:37Z</time>
      </trkpt>
      <trkpt lat="45.99627" lon="4.90325">
        <ele>302</ele>
        <time>2018-02-13T10:58:38Z</time>
      </trkpt>
      <trkpt lat="45.99636" lon="4.90326">
        <ele>302</ele>
        <time>2018-02-13T10:58:40Z</time>
      </trkpt>
      <trkpt lat="45.9964" lon="4.90327">
        <ele>302</ele>
        <time>2018-02-13T10:58:41Z</time>
      </trkpt>
      <trkpt lat="45.99648" lon="4.90325">
        <ele>302</ele>
        <time>2018-02-13T10:58:43Z</time>
      </trkpt>
      <trkpt lat="45.99651" lon="4.90328">
        <ele>302</ele>
        <time>2018-02-13T10:58:44Z</time>
      </trkpt>
      <trkpt lat="45.99657" lon="4.90328">
        <ele>302</ele>
        <time>2018-02-13T10:58:46Z</time>
      </trkpt>
      <trkpt lat="45.99662" lon="4.90329">
        <ele>302</ele>
        <time>2018-02-13T10:58:47Z</time>
      </trkpt>
      <trkpt lat="45.99667" lon="4.90326">
        <ele>303</ele>
        <time>2018-02-13T10:58:49Z</time>
      </trkpt>
      <trkpt lat="45.99672" lon="4.90321">
        <ele>303</ele>
        <time>2018-02-13T10:58:50Z</time>
      </trkpt>
      <trkpt lat="45.99668" lon="4.90311">
        <ele>304</ele>
        <time>2018-02-13T10:58:52Z</time>
      </trkpt>
      <trkpt lat="45.99668" lon="4.90307">
        <ele>304</ele>
        <time>2018-02-13T10:58:53Z</time>
      </trkpt>
      <trkpt lat="45.99669" lon="4.90298">
        <ele>304</ele>
        <time>2018-02-13T10:58:55Z</time>
      </trkpt>
      <trkpt lat="45.99671" lon="4.90294">
        <ele>304</ele>
        <time>2018-02-13T10:58:56Z</time>
      </trkpt>
      <trkpt lat="45.99671" lon="4.90281">
        <ele>304</ele>
        <time>2018-02-13T10:58:58Z</time>
      </trkpt>
      <trkpt lat="45.99673" lon="4.90277">
        <ele>304</ele>
        <time>2018-02-13T10:58:59Z</time>
      </trkpt>
      <trkpt lat="45.99674" lon="4.90265">
        <ele>304</ele>
        <time>2018-02-13T10:59:02Z</time>
      </trkpt>
      <trkpt lat="45.99675" lon="4.90259">
        <ele>304</ele>
        <time>2018-02-13T10:59:03Z</time>
      </trkpt>
      <trkpt lat="45.99677" lon="4.9025">
        <ele>304</ele>
        <time>2018-02-13T10:59:04Z</time>
      </trkpt>
      <trkpt lat="45.99676" lon="4.90244">
        <ele>304</ele>
        <time>2018-02-13T10:59:05Z</time>
      </trkpt>
      <trkpt lat="45.99674" lon="4.90237">
        <ele>304</ele>
        <time>2018-02-13T10:59:06Z</time>
      </trkpt>
      <trkpt lat="45.99672" lon="4.9023">
        <ele>304</ele>
        <time>2018-02-13T10:59:07Z</time>
      </trkpt>
      <trkpt lat="45.99671" lon="4.90223">
        <ele>304</ele>
        <time>2018-02-13T10:59:08Z</time>
      </trkpt>
      <trkpt lat="45.9967" lon="4.90217">
        <ele>303</ele>
        <time>2018-02-13T10:59:09Z</time>
      </trkpt>
      <trkpt lat="45.99668" lon="4.9021">
        <ele>303</ele>
        <time>2018-02-13T10:59:10Z</time>
      </trkpt>
      <trkpt lat="45.99666" lon="4.90203">
        <ele>302</ele>
        <time>2018-02-13T10:59:11Z</time>
      </trkpt>
      <trkpt lat="45.99666" lon="4.90199">
        <ele>302</ele>
        <time>2018-02-13T10:59:12Z</time>
      </trkpt>
      <trkpt lat="45.99662" lon="4.90186">
        <ele>301</ele>
        <time>2018-02-13T10:59:13Z</time>
      </trkpt>
      <trkpt lat="45.9966" lon="4.90177">
        <ele>301</ele>
        <time>2018-02-13T10:59:14Z</time>
      </trkpt>
      <trkpt lat="45.99657" lon="4.90168">
        <ele>301</ele>
        <time>2018-02-13T10:59:15Z</time>
      </trkpt>
      <trkpt lat="45.99656" lon="4.90158">
        <ele>300</ele>
        <time>2018-02-13T10:59:16Z</time>
      </trkpt>
      <trkpt lat="45.99654" lon="4.90148">
        <ele>300</ele>
        <time>2018-02-13T10:59:17Z</time>
      </trkpt>
      <trkpt lat="45.99651" lon="4.90138">
        <ele>299</ele>
        <time>2018-02-13T10:59:18Z</time>
      </trkpt>
      <trkpt lat="45.99648" lon="4.90126">
        <ele>299</ele>
        <time>2018-02-13T10:59:19Z</time>
      </trkpt>
      <trkpt lat="45.99648" lon="4.90115">
        <ele>299</ele>
        <time>2018-02-13T10:59:20Z</time>
      </trkpt>
      <trkpt lat="45.99644" lon="4.90102">
        <ele>299</ele>
        <time>2018-02-13T10:59:21Z</time>
      </trkpt>
      <trkpt lat="45.99641" lon="4.90093">
        <ele>299</ele>
        <time>2018-02-13T10:59:22Z</time>
      </trkpt>
      <trkpt lat="45.99636" lon="4.90081">
        <ele>297</ele>
        <time>2018-02-13T10:59:23Z</time>
      </trkpt>
      <trkpt lat="45.99634" lon="4.90072">
        <ele>297</ele>
        <time>2018-02-13T10:59:24Z</time>
      </trkpt>
      <trkpt lat="45.99629" lon="4.90061">
        <ele>297</ele>
        <time>2018-02-13T10:59:25Z</time>
      </trkpt>
      <trkpt lat="45.99625" lon="4.90052">
        <ele>297</ele>
        <time>2018-02-13T10:59:26Z</time>
      </trkpt>
      <trkpt lat="45.99621" lon="4.90042">
        <ele>296</ele>
        <time>2018-02-13T10:59:27Z</time>
      </trkpt>
      <trkpt lat="45.99618" lon="4.90033">
        <ele>296</ele>
        <time>2018-02-13T10:59:28Z</time>
      </trkpt>
      <trkpt lat="45.99615" lon="4.90024">
        <ele>296</ele>
        <time>2018-02-13T10:59:29Z</time>
      </trkpt>
      <trkpt lat="45.99612" lon="4.90014">
        <ele>296</ele>
        <time>2018-02-13T10:59:30Z</time>
      </trkpt>
      <trkpt lat="45.99609" lon="4.90003">
        <ele>296</ele>
        <time>2018-02-13T10:59:31Z</time>
      </trkpt>
      <trkpt lat="45.99608" lon="4.89993">
        <ele>294</ele>
        <time>2018-02-13T10:59:32Z</time>
      </trkpt>
      <trkpt lat="45.99605" lon="4.89985">
        <ele>294</ele>
        <time>2018-02-13T10:59:33Z</time>
      </trkpt>
      <trkpt lat="45.99603" lon="4.89976">
        <ele>294</ele>
        <time>2018-02-13T10:59:34Z</time>
      </trkpt>
      <trkpt lat="45.99605" lon="4.89965">
        <ele>294</ele>
        <time>2018-02-13T10:59:35Z</time>
      </trkpt>
      <trkpt lat="45.99603" lon="4.89955">
        <ele>294</ele>
        <time>2018-02-13T10:59:36Z</time>
      </trkpt>
      <trkpt lat="45.99602" lon="4.89945">
        <ele>294</ele>
        <time>2018-02-13T10:59:37Z</time>
      </trkpt>
      <trkpt lat="45.99601" lon="4.89935">
        <ele>293</ele>
        <time>2018-02-13T10:59:38Z</time>
      </trkpt>
      <trkpt lat="45.99602" lon="4.89925">
        <ele>293</ele>
        <time>2018-02-13T10:59:39Z</time>
      </trkpt>
      <trkpt lat="45.99602" lon="4.89916">
        <ele>292</ele>
        <time>2018-02-13T10:59:40Z</time>
      </trkpt>
      <trkpt lat="45.99602" lon="4.89907">
        <ele>292</ele>
        <time>2018-02-13T10:59:41Z</time>
      </trkpt>
      <trkpt lat="45.99603" lon="4.89899">
        <ele>292</ele>
        <time>2018-02-13T10:59:42Z</time>
      </trkpt>
      <trkpt lat="45.99603" lon="4.8989">
        <ele>292</ele>
        <time>2018-02-13T10:59:43Z</time>
      </trkpt>
      <trkpt lat="45.99602" lon="4.89881">
        <ele>292</ele>
        <time>2018-02-13T10:59:44Z</time>
      </trkpt>
      <trkpt lat="45.99603" lon="4.89873">
        <ele>293</ele>
        <time>2018-02-13T10:59:45Z</time>
      </trkpt>
      <trkpt lat="45.99602" lon="4.89863">
        <ele>293</ele>
        <time>2018-02-13T10:59:46Z</time>
      </trkpt>
      <trkpt lat="45.99603" lon="4.89855">
        <ele>293</ele>
        <time>2018-02-13T10:59:47Z</time>
      </trkpt>
      <trkpt lat="45.99603" lon="4.89846">
        <ele>293</ele>
        <time>2018-02-13T10:59:48Z</time>
      </trkpt>
      <trkpt lat="45.99604" lon="4.89837">
        <ele>293</ele>
        <time>2018-02-13T10:59:49Z</time>
      </trkpt>
      <trkpt lat="45.99603" lon="4.89826">
        <ele>292</ele>
        <time>2018-02-13T10:59:50Z</time>
      </trkpt>
      <trkpt lat="45.99604" lon="4.89818">
        <ele>292</ele>
        <time>2018-02-13T10:59:51Z</time>
      </trkpt>
      <trkpt lat="45.99604" lon="4.8981">
        <ele>292</ele>
        <time>2018-02-13T10:59:52Z</time>
      </trkpt>
      <trkpt lat="45.99604" lon="4.89801">
        <ele>292</ele>
        <time>2018-02-13T10:59:53Z</time>
      </trkpt>
      <trkpt lat="45.99604" lon="4.89793">
        <ele>292</ele>
        <time>2018-02-13T10:59:54Z</time>
      </trkpt>
      <trkpt lat="45.99604" lon="4.89782">
        <ele>292</ele>
        <time>2018-02-13T10:59:55Z</time>
      </trkpt>
      <trkpt lat="45.99604" lon="4.89775">
        <ele>292</ele>
        <time>2018-02-13T10:59:56Z</time>
      </trkpt>
      <trkpt lat="45.99604" lon="4.89765">
        <ele>292</ele>
        <time>2018-02-13T10:59:57Z</time>
      </trkpt>
      <trkpt lat="45.99604" lon="4.89759">
        <ele>292</ele>
        <time>2018-02-13T10:59:58Z</time>
      </trkpt>
      <trkpt lat="45.99607" lon="4.89729">
        <ele>292</ele>
        <time>2018-02-13T11:00:01Z</time>
      </trkpt>
      <trkpt lat="45.99606" lon="4.89721">
        <ele>292</ele>
        <time>2018-02-13T11:00:02Z</time>
      </trkpt>
      <trkpt lat="45.99605" lon="4.89712">
        <ele>292</ele>
        <time>2018-02-13T11:00:03Z</time>
      </trkpt>
      <trkpt lat="45.99609" lon="4.89703">
        <ele>291</ele>
        <time>2018-02-13T11:00:04Z</time>
      </trkpt>
      <trkpt lat="45.99607" lon="4.89696">
        <ele>291</ele>
        <time>2018-02-13T11:00:05Z</time>
      </trkpt>
      <trkpt lat="45.99607" lon="4.89686">
        <ele>291</ele>
        <time>2018-02-13T11:00:06Z</time>
      </trkpt>
      <trkpt lat="45.99609" lon="4.89678">
        <ele>291</ele>
        <time>2018-02-13T11:00:07Z</time>
      </trkpt>
      <trkpt lat="45.99609" lon="4.8967">
        <ele>291</ele>
        <time>2018-02-13T11:00:08Z</time>
      </trkpt>
      <trkpt lat="45.99608" lon="4.89662">
        <ele>291</ele>
        <time>2018-02-13T11:00:09Z</time>
      </trkpt>
      <trkpt lat="45.99607" lon="4.89654">
        <ele>291</ele>
        <time>2018-02-13T11:00:10Z</time>
      </trkpt>
      <trkpt lat="45.99608" lon="4.89645">
        <ele>291</ele>
        <time>2018-02-13T11:00:11Z</time>
      </trkpt>
      <trkpt lat="45.99611" lon="4.89634">
        <ele>291</ele>
        <time>2018-02-13T11:00:12Z</time>
      </trkpt>
      <trkpt lat="45.9961" lon="4.89626">
        <ele>291</ele>
        <time>2018-02-13T11:00:13Z</time>
      </trkpt>
      <trkpt lat="45.9961" lon="4.89617">
        <ele>291</ele>
        <time>2018-02-13T11:00:14Z</time>
      </trkpt>
      <trkpt lat="45.99608" lon="4.8961">
        <ele>291</ele>
        <time>2018-02-13T11:00:15Z</time>
      </trkpt>
      <trkpt lat="45.99607" lon="4.89603">
        <ele>291</ele>
        <time>2018-02-13T11:00:16Z</time>
      </trkpt>
      <trkpt lat="45.99607" lon="4.89596">
        <ele>292</ele>
        <time>2018-02-13T11:00:17Z</time>
      </trkpt>
      <trkpt lat="45.99607" lon="4.89589">
        <ele>292</ele>
        <time>2018-02-13T11:00:18Z</time>
      </trkpt>
      <trkpt lat="45.99607" lon="4.89582">
        <ele>291</ele>
        <time>2018-02-13T11:00:19Z</time>
      </trkpt>
      <trkpt lat="45.99604" lon="4.89575">
        <ele>291</ele>
        <time>2018-02-13T11:00:20Z</time>
      </trkpt>
      <trkpt lat="45.99604" lon="4.89566">
        <ele>291</ele>
        <time>2018-02-13T11:00:21Z</time>
      </trkpt>
      <trkpt lat="45.99602" lon="4.89558">
        <ele>291</ele>
        <time>2018-02-13T11:00:22Z</time>
      </trkpt>
      <trkpt lat="45.996" lon="4.89551">
        <ele>291</ele>
        <time>2018-02-13T11:00:23Z</time>
      </trkpt>
      <trkpt lat="45.996" lon="4.89543">
        <ele>291</ele>
        <time>2018-02-13T11:00:24Z</time>
      </trkpt>
      <trkpt lat="45.99599" lon="4.89535">
        <ele>291</ele>
        <time>2018-02-13T11:00:25Z</time>
      </trkpt>
      <trkpt lat="45.99599" lon="4.89527">
        <ele>291</ele>
        <time>2018-02-13T11:00:26Z</time>
      </trkpt>
      <trkpt lat="45.99599" lon="4.8952">
        <ele>291</ele>
        <time>2018-02-13T11:00:27Z</time>
      </trkpt>
      <trkpt lat="45.99598" lon="4.89512">
        <ele>290</ele>
        <time>2018-02-13T11:00:28Z</time>
      </trkpt>
      <trkpt lat="45.99597" lon="4.89506">
        <ele>290</ele>
        <time>2018-02-13T11:00:29Z</time>
      </trkpt>
      <trkpt lat="45.99597" lon="4.89498">
        <ele>290</ele>
        <time>2018-02-13T11:00:30Z</time>
      </trkpt>
      <trkpt lat="45.99597" lon="4.89491">
        <ele>290</ele>
        <time>2018-02-13T11:00:31Z</time>
      </trkpt>
      <trkpt lat="45.99597" lon="4.89483">
        <ele>290</ele>
        <time>2018-02-13T11:00:32Z</time>
      </trkpt>
      <trkpt lat="45.99597" lon="4.89476">
        <ele>290</ele>
        <time>2018-02-13T11:00:33Z</time>
      </trkpt>
      <trkpt lat="45.99596" lon="4.89468">
        <ele>290</ele>
        <time>2018-02-13T11:00:34Z</time>
      </trkpt>
      <trkpt lat="45.99595" lon="4.8946">
        <ele>290</ele>
        <time>2018-02-13T11:00:35Z</time>
      </trkpt>
      <trkpt lat="45.99594" lon="4.89453">
        <ele>290</ele>
        <time>2018-02-13T11:00:36Z</time>
      </trkpt>
      <trkpt lat="45.99594" lon="4.89445">
        <ele>290</ele>
        <time>2018-02-13T11:00:37Z</time>
      </trkpt>
      <trkpt lat="45.99594" lon="4.89437">
        <ele>290</ele>
        <time>2018-02-13T11:00:38Z</time>
      </trkpt>
      <trkpt lat="45.99593" lon="4.89429">
        <ele>290</ele>
        <time>2018-02-13T11:00:39Z</time>
      </trkpt>
      <trkpt lat="45.99593" lon="4.8942">
        <ele>290</ele>
        <time>2018-02-13T11:00:40Z</time>
      </trkpt>
      <trkpt lat="45.99592" lon="4.89412">
        <ele>290</ele>
        <time>2018-02-13T11:00:41Z</time>
      </trkpt>
      <trkpt lat="45.99593" lon="4.89403">
        <ele>290</ele>
        <time>2018-02-13T11:00:42Z</time>
      </trkpt>
      <trkpt lat="45.99593" lon="4.89394">
        <ele>290</ele>
        <time>2018-02-13T11:00:43Z</time>
      </trkpt>
      <trkpt lat="45.99592" lon="4.89386">
        <ele>290</ele>
        <time>2018-02-13T11:00:44Z</time>
      </trkpt>
      <trkpt lat="45.99592" lon="4.89377">
        <ele>290</ele>
        <time>2018-02-13T11:00:45Z</time>
      </trkpt>
      <trkpt lat="45.99591" lon="4.89369">
        <ele>289</ele>
        <time>2018-02-13T11:00:46Z</time>
      </trkpt>
      <trkpt lat="45.99591" lon="4.8936">
        <ele>289</ele>
        <time>2018-02-13T11:00:47Z</time>
      </trkpt>
      <trkpt lat="45.9959" lon="4.89352">
        <ele>289</ele>
        <time>2018-02-13T11:00:48Z</time>
      </trkpt>
      <trkpt lat="45.9959" lon="4.89343">
        <ele>289</ele>
        <time>2018-02-13T11:00:49Z</time>
      </trkpt>
      <trkpt lat="45.9959" lon="4.89335">
        <ele>289</ele>
        <time>2018-02-13T11:00:50Z</time>
      </trkpt>
      <trkpt lat="45.99589" lon="4.89327">
        <ele>289</ele>
        <time>2018-02-13T11:00:51Z</time>
      </trkpt>
      <trkpt lat="45.99589" lon="4.89319">
        <ele>289</ele>
        <time>2018-02-13T11:00:52Z</time>
      </trkpt>
      <trkpt lat="45.99588" lon="4.89311">
        <ele>289</ele>
        <time>2018-02-13T11:00:53Z</time>
      </trkpt>
      <trkpt lat="45.99587" lon="4.89303">
        <ele>289</ele>
        <time>2018-02-13T11:00:54Z</time>
      </trkpt>
      <trkpt lat="45.99588" lon="4.89295">
        <ele>289</ele>
        <time>2018-02-13T11:00:55Z</time>
      </trkpt>
      <trkpt lat="45.99589" lon="4.89287">
        <ele>289</ele>
        <time>2018-02-13T11:00:56Z</time>
      </trkpt>
      <trkpt lat="45.99588" lon="4.8928">
        <ele>289</ele>
        <time>2018-02-13T11:00:57Z</time>
      </trkpt>
      <trkpt lat="45.99587" lon="4.89273">
        <ele>288</ele>
        <time>2018-02-13T11:00:58Z</time>
      </trkpt>
      <trkpt lat="45.99587" lon="4.89265">
        <ele>288</ele>
        <time>2018-02-13T11:00:59Z</time>
      </trkpt>
      <trkpt lat="45.99588" lon="4.89257">
        <ele>288</ele>
        <time>2018-02-13T11:01:00Z</time>
      </trkpt>
      <trkpt lat="45.99587" lon="4.89249">
        <ele>288</ele>
        <time>2018-02-13T11:01:01Z</time>
      </trkpt>
      <trkpt lat="45.99587" lon="4.89242">
        <ele>288</ele>
        <time>2018-02-13T11:01:02Z</time>
      </trkpt>
      <trkpt lat="45.99587" lon="4.89235">
        <ele>288</ele>
        <time>2018-02-13T11:01:03Z</time>
      </trkpt>
      <trkpt lat="45.99585" lon="4.89226">
        <ele>288</ele>
        <time>2018-02-13T11:01:04Z</time>
      </trkpt>
      <trkpt lat="45.99585" lon="4.89218">
        <ele>288</ele>
        <time>2018-02-13T11:01:05Z</time>
      </trkpt>
      <trkpt lat="45.99584" lon="4.8921">
        <ele>288</ele>
        <time>2018-02-13T11:01:06Z</time>
      </trkpt>
      <trkpt lat="45.99584" lon="4.89202">
        <ele>288</ele>
        <time>2018-02-13T11:01:07Z</time>
      </trkpt>
      <trkpt lat="45.99583" lon="4.89195">
        <ele>288</ele>
        <time>2018-02-13T11:01:08Z</time>
      </trkpt>
      <trkpt lat="45.99582" lon="4.89187">
        <ele>288</ele>
        <time>2018-02-13T11:01:09Z</time>
      </trkpt>
      <trkpt lat="45.99582" lon="4.89178">
        <ele>288</ele>
        <time>2018-02-13T11:01:10Z</time>
      </trkpt>
      <trkpt lat="45.99581" lon="4.8917">
        <ele>288</ele>
        <time>2018-02-13T11:01:11Z</time>
      </trkpt>
      <trkpt lat="45.99581" lon="4.89162">
        <ele>288</ele>
        <time>2018-02-13T11:01:12Z</time>
      </trkpt>
      <trkpt lat="45.99581" lon="4.89153">
        <ele>288</ele>
        <time>2018-02-13T11:01:13Z</time>
      </trkpt>
      <trkpt lat="45.9958" lon="4.89145">
        <ele>289</ele>
        <time>2018-02-13T11:01:14Z</time>
      </trkpt>
      <trkpt lat="45.9958" lon="4.89136">
        <ele>289</ele>
        <time>2018-02-13T11:01:15Z</time>
      </trkpt>
      <trkpt lat="45.99579" lon="4.89127">
        <ele>289</ele>
        <time>2018-02-13T11:01:16Z</time>
      </trkpt>
      <trkpt lat="45.99579" lon="4.89119">
        <ele>289</ele>
        <time>2018-02-13T11:01:17Z</time>
      </trkpt>
      <trkpt lat="45.99579" lon="4.89111">
        <ele>289</ele>
        <time>2018-02-13T11:01:18Z</time>
      </trkpt>
      <trkpt lat="45.9958" lon="4.89103">
        <ele>289</ele>
        <time>2018-02-13T11:01:19Z</time>
      </trkpt>
      <trkpt lat="45.9958" lon="4.89096">
        <ele>289</ele>
        <time>2018-02-13T11:01:20Z</time>
      </trkpt>
      <trkpt lat="45.99581" lon="4.89088">
        <ele>289</ele>
        <time>2018-02-13T11:01:21Z</time>
      </trkpt>
      <trkpt lat="45.99581" lon="4.8908">
        <ele>289</ele>
        <time>2018-02-13T11:01:22Z</time>
      </trkpt>
      <trkpt lat="45.99582" lon="4.89072">
        <ele>289</ele>
        <time>2018-02-13T11:01:23Z</time>
      </trkpt>
      <trkpt lat="45.99582" lon="4.89064">
        <ele>289</ele>
        <time>2018-02-13T11:01:24Z</time>
      </trkpt>
      <trkpt lat="45.99583" lon="4.89056">
        <ele>289</ele>
        <time>2018-02-13T11:01:25Z</time>
      </trkpt>
      <trkpt lat="45.99583" lon="4.89049">
        <ele>288</ele>
        <time>2018-02-13T11:01:26Z</time>
      </trkpt>
      <trkpt lat="45.99584" lon="4.8904">
        <ele>289</ele>
        <time>2018-02-13T11:01:27Z</time>
      </trkpt>
      <trkpt lat="45.99584" lon="4.89032">
        <ele>289</ele>
        <time>2018-02-13T11:01:28Z</time>
      </trkpt>
      <trkpt lat="45.99585" lon="4.89024">
        <ele>288</ele>
        <time>2018-02-13T11:01:29Z</time>
      </trkpt>
      <trkpt lat="45.99587" lon="4.89014">
        <ele>288</ele>
        <time>2018-02-13T11:01:30Z</time>
      </trkpt>
      <trkpt lat="45.99587" lon="4.89006">
        <ele>288</ele>
        <time>2018-02-13T11:01:31Z</time>
      </trkpt>
      <trkpt lat="45.99587" lon="4.88998">
        <ele>288</ele>
        <time>2018-02-13T11:01:32Z</time>
      </trkpt>
      <trkpt lat="45.99587" lon="4.8899">
        <ele>288</ele>
        <time>2018-02-13T11:01:33Z</time>
      </trkpt>
      <trkpt lat="45.99585" lon="4.88982">
        <ele>288</ele>
        <time>2018-02-13T11:01:34Z</time>
      </trkpt>
      <trkpt lat="45.99585" lon="4.88974">
        <ele>288</ele>
        <time>2018-02-13T11:01:35Z</time>
      </trkpt>
      <trkpt lat="45.99584" lon="4.88965">
        <ele>288</ele>
        <time>2018-02-13T11:01:36Z</time>
      </trkpt>
      <trkpt lat="45.99583" lon="4.88956">
        <ele>287</ele>
        <time>2018-02-13T11:01:37Z</time>
      </trkpt>
      <trkpt lat="45.99583" lon="4.88948">
        <ele>287</ele>
        <time>2018-02-13T11:01:38Z</time>
      </trkpt>
      <trkpt lat="45.99582" lon="4.8894">
        <ele>287</ele>
        <time>2018-02-13T11:01:39Z</time>
      </trkpt>
      <trkpt lat="45.99581" lon="4.88931">
        <ele>287</ele>
        <time>2018-02-13T11:01:40Z</time>
      </trkpt>
      <trkpt lat="45.9958" lon="4.88922">
        <ele>287</ele>
        <time>2018-02-13T11:01:41Z</time>
      </trkpt>
      <trkpt lat="45.99579" lon="4.88914">
        <ele>287</ele>
        <time>2018-02-13T11:01:42Z</time>
      </trkpt>
      <trkpt lat="45.99579" lon="4.88905">
        <ele>287</ele>
        <time>2018-02-13T11:01:43Z</time>
      </trkpt>
      <trkpt lat="45.99579" lon="4.88898">
        <ele>287</ele>
        <time>2018-02-13T11:01:44Z</time>
      </trkpt>
      <trkpt lat="45.99578" lon="4.8889">
        <ele>287</ele>
        <time>2018-02-13T11:01:45Z</time>
      </trkpt>
      <trkpt lat="45.99577" lon="4.88883">
        <ele>287</ele>
        <time>2018-02-13T11:01:46Z</time>
      </trkpt>
      <trkpt lat="45.99577" lon="4.88874">
        <ele>287</ele>
        <time>2018-02-13T11:01:47Z</time>
      </trkpt>
      <trkpt lat="45.99576" lon="4.88866">
        <ele>287</ele>
        <time>2018-02-13T11:01:48Z</time>
      </trkpt>
      <trkpt lat="45.99576" lon="4.88858">
        <ele>287</ele>
        <time>2018-02-13T11:01:49Z</time>
      </trkpt>
      <trkpt lat="45.99575" lon="4.88848">
        <ele>287</ele>
        <time>2018-02-13T11:01:50Z</time>
      </trkpt>
      <trkpt lat="45.99574" lon="4.88841">
        <ele>287</ele>
        <time>2018-02-13T11:01:51Z</time>
      </trkpt>
      <trkpt lat="45.99573" lon="4.88833">
        <ele>287</ele>
        <time>2018-02-13T11:01:52Z</time>
      </trkpt>
      <trkpt lat="45.99573" lon="4.88825">
        <ele>287</ele>
        <time>2018-02-13T11:01:53Z</time>
      </trkpt>
      <trkpt lat="45.99573" lon="4.88817">
        <ele>287</ele>
        <time>2018-02-13T11:01:54Z</time>
      </trkpt>
      <trkpt lat="45.99572" lon="4.8881">
        <ele>287</ele>
        <time>2018-02-13T11:01:55Z</time>
      </trkpt>
      <trkpt lat="45.99571" lon="4.88801">
        <ele>287</ele>
        <time>2018-02-13T11:01:56Z</time>
      </trkpt>
      <trkpt lat="45.99571" lon="4.88792">
        <ele>287</ele>
        <time>2018-02-13T11:01:57Z</time>
      </trkpt>
      <trkpt lat="45.9957" lon="4.88784">
        <ele>287</ele>
        <time>2018-02-13T11:01:58Z</time>
      </trkpt>
      <trkpt lat="45.99569" lon="4.88776">
        <ele>287</ele>
        <time>2018-02-13T11:01:59Z</time>
      </trkpt>
      <trkpt lat="45.99569" lon="4.88768">
        <ele>287</ele>
        <time>2018-02-13T11:02:00Z</time>
      </trkpt>
      <trkpt lat="45.99568" lon="4.88759">
        <ele>287</ele>
        <time>2018-02-13T11:02:01Z</time>
      </trkpt>
      <trkpt lat="45.99568" lon="4.88751">
        <ele>287</ele>
        <time>2018-02-13T11:02:02Z</time>
      </trkpt>
      <trkpt lat="45.99567" lon="4.88742">
        <ele>287</ele>
        <time>2018-02-13T11:02:03Z</time>
      </trkpt>
      <trkpt lat="45.99567" lon="4.88734">
        <ele>287</ele>
        <time>2018-02-13T11:02:04Z</time>
      </trkpt>
      <trkpt lat="45.99566" lon="4.88726">
        <ele>287</ele>
        <time>2018-02-13T11:02:05Z</time>
      </trkpt>
      <trkpt lat="45.99565" lon="4.88718">
        <ele>286</ele>
        <time>2018-02-13T11:02:06Z</time>
      </trkpt>
      <trkpt lat="45.99565" lon="4.8871">
        <ele>286</ele>
        <time>2018-02-13T11:02:07Z</time>
      </trkpt>
      <trkpt lat="45.99565" lon="4.88701">
        <ele>286</ele>
        <time>2018-02-13T11:02:08Z</time>
      </trkpt>
      <trkpt lat="45.99564" lon="4.88693">
        <ele>286</ele>
        <time>2018-02-13T11:02:09Z</time>
      </trkpt>
      <trkpt lat="45.99563" lon="4.88684">
        <ele>286</ele>
        <time>2018-02-13T11:02:10Z</time>
      </trkpt>
      <trkpt lat="45.99561" lon="4.88676">
        <ele>286</ele>
        <time>2018-02-13T11:02:11Z</time>
      </trkpt>
      <trkpt lat="45.9956" lon="4.88667">
        <ele>286</ele>
        <time>2018-02-13T11:02:12Z</time>
      </trkpt>
      <trkpt lat="45.99559" lon="4.88658">
        <ele>286</ele>
        <time>2018-02-13T11:02:13Z</time>
      </trkpt>
      <trkpt lat="45.99558" lon="4.88649">
        <ele>286</ele>
        <time>2018-02-13T11:02:14Z</time>
      </trkpt>
      <trkpt lat="45.99557" lon="4.88641">
        <ele>286</ele>
        <time>2018-02-13T11:02:15Z</time>
      </trkpt>
      <trkpt lat="45.99556" lon="4.88634">
        <ele>286</ele>
        <time>2018-02-13T11:02:16Z</time>
      </trkpt>
      <trkpt lat="45.99554" lon="4.88624">
        <ele>286</ele>
        <time>2018-02-13T11:02:17Z</time>
      </trkpt>
      <trkpt lat="45.99554" lon="4.88616">
        <ele>286</ele>
        <time>2018-02-13T11:02:18Z</time>
      </trkpt>
      <trkpt lat="45.99552" lon="4.88607">
        <ele>286</ele>
        <time>2018-02-13T11:02:19Z</time>
      </trkpt>
      <trkpt lat="45.99551" lon="4.886">
        <ele>286</ele>
        <time>2018-02-13T11:02:20Z</time>
      </trkpt>
      <trkpt lat="45.99549" lon="4.88593">
        <ele>286</ele>
        <time>2018-02-13T11:02:21Z</time>
      </trkpt>
      <trkpt lat="45.99548" lon="4.88585">
        <ele>286</ele>
        <time>2018-02-13T11:02:22Z</time>
      </trkpt>
      <trkpt lat="45.99547" lon="4.88576">
        <ele>286</ele>
        <time>2018-02-13T11:02:23Z</time>
      </trkpt>
      <trkpt lat="45.99546" lon="4.88568">
        <ele>286</ele>
        <time>2018-02-13T11:02:24Z</time>
      </trkpt>
      <trkpt lat="45.99543" lon="4.8856">
        <ele>285</ele>
        <time>2018-02-13T11:02:25Z</time>
      </trkpt>
      <trkpt lat="45.99541" lon="4.88552">
        <ele>285</ele>
        <time>2018-02-13T11:02:26Z</time>
      </trkpt>
      <trkpt lat="45.99538" lon="4.88544">
        <ele>285</ele>
        <time>2018-02-13T11:02:27Z</time>
      </trkpt>
      <trkpt lat="45.99535" lon="4.88537">
        <ele>285</ele>
        <time>2018-02-13T11:02:28Z</time>
      </trkpt>
      <trkpt lat="45.99532" lon="4.8853">
        <ele>285</ele>
        <time>2018-02-13T11:02:29Z</time>
      </trkpt>
      <trkpt lat="45.99528" lon="4.88524">
        <ele>285</ele>
        <time>2018-02-13T11:02:30Z</time>
      </trkpt>
      <trkpt lat="45.99525" lon="4.88518">
        <ele>285</ele>
        <time>2018-02-13T11:02:31Z</time>
      </trkpt>
      <trkpt lat="45.99522" lon="4.88512">
        <ele>285</ele>
        <time>2018-02-13T11:02:32Z</time>
      </trkpt>
      <trkpt lat="45.99519" lon="4.88506">
        <ele>285</ele>
        <time>2018-02-13T11:02:33Z</time>
      </trkpt>
      <trkpt lat="45.99516" lon="4.88499">
        <ele>284</ele>
        <time>2018-02-13T11:02:34Z</time>
      </trkpt>
      <trkpt lat="45.99513" lon="4.88493">
        <ele>284</ele>
        <time>2018-02-13T11:02:35Z</time>
      </trkpt>
      <trkpt lat="45.9951" lon="4.88488">
        <ele>284</ele>
        <time>2018-02-13T11:02:36Z</time>
      </trkpt>
      <trkpt lat="45.99506" lon="4.88481">
        <ele>284</ele>
        <time>2018-02-13T11:02:37Z</time>
      </trkpt>
      <trkpt lat="45.99503" lon="4.88475">
        <ele>284</ele>
        <time>2018-02-13T11:02:38Z</time>
      </trkpt>
      <trkpt lat="45.99499" lon="4.88469">
        <ele>284</ele>
        <time>2018-02-13T11:02:39Z</time>
      </trkpt>
      <trkpt lat="45.99496" lon="4.88463">
        <ele>284</ele>
        <time>2018-02-13T11:02:40Z</time>
      </trkpt>
      <trkpt lat="45.99492" lon="4.88457">
        <ele>284</ele>
        <time>2018-02-13T11:02:41Z</time>
      </trkpt>
      <trkpt lat="45.99488" lon="4.88451">
        <ele>284</ele>
        <time>2018-02-13T11:02:42Z</time>
      </trkpt>
      <trkpt lat="45.99485" lon="4.88444">
        <ele>284</ele>
        <time>2018-02-13T11:02:43Z</time>
      </trkpt>
      <trkpt lat="45.99481" lon="4.88439">
        <ele>284</ele>
        <time>2018-02-13T11:02:44Z</time>
      </trkpt>
      <trkpt lat="45.99477" lon="4.88432">
        <ele>284</ele>
        <time>2018-02-13T11:02:45Z</time>
      </trkpt>
      <trkpt lat="45.99473" lon="4.88427">
        <ele>284</ele>
        <time>2018-02-13T11:02:46Z</time>
      </trkpt>
      <trkpt lat="45.99468" lon="4.88422">
        <ele>284</ele>
        <time>2018-02-13T11:02:47Z</time>
      </trkpt>
      <trkpt lat="45.99462" lon="4.88417">
        <ele>284</ele>
        <time>2018-02-13T11:02:48Z</time>
      </trkpt>
      <trkpt lat="45.99458" lon="4.88413">
        <ele>283</ele>
        <time>2018-02-13T11:02:49Z</time>
      </trkpt>
      <trkpt lat="45.99453" lon="4.88408">
        <ele>283</ele>
        <time>2018-02-13T11:02:50Z</time>
      </trkpt>
      <trkpt lat="45.99449" lon="4.88402">
        <ele>283</ele>
        <time>2018-02-13T11:02:51Z</time>
      </trkpt>
      <trkpt lat="45.99444" lon="4.88396">
        <ele>283</ele>
        <time>2018-02-13T11:02:52Z</time>
      </trkpt>
      <trkpt lat="45.9944" lon="4.88391">
        <ele>283</ele>
        <time>2018-02-13T11:02:53Z</time>
      </trkpt>
      <trkpt lat="45.99436" lon="4.88383">
        <ele>283</ele>
        <time>2018-02-13T11:02:54Z</time>
      </trkpt>
      <trkpt lat="45.99432" lon="4.88376">
        <ele>283</ele>
        <time>2018-02-13T11:02:55Z</time>
      </trkpt>
      <trkpt lat="45.99428" lon="4.88368">
        <ele>283</ele>
        <time>2018-02-13T11:02:56Z</time>
      </trkpt>
      <trkpt lat="45.99424" lon="4.88361">
        <ele>283</ele>
        <time>2018-02-13T11:02:57Z</time>
      </trkpt>
      <trkpt lat="45.99421" lon="4.88353">
        <ele>283</ele>
        <time>2018-02-13T11:02:58Z</time>
      </trkpt>
      <trkpt lat="45.99418" lon="4.88345">
        <ele>282</ele>
        <time>2018-02-13T11:02:59Z</time>
      </trkpt>
      <trkpt lat="45.99415" lon="4.88337">
        <ele>282</ele>
        <time>2018-02-13T11:03:00Z</time>
      </trkpt>
      <trkpt lat="45.99411" lon="4.88328">
        <ele>283</ele>
        <time>2018-02-13T11:03:01Z</time>
      </trkpt>
      <trkpt lat="45.99408" lon="4.8832">
        <ele>283</ele>
        <time>2018-02-13T11:03:02Z</time>
      </trkpt>
      <trkpt lat="45.99405" lon="4.88312">
        <ele>283</ele>
        <time>2018-02-13T11:03:03Z</time>
      </trkpt>
      <trkpt lat="45.99402" lon="4.88305">
        <ele>284</ele>
        <time>2018-02-13T11:03:04Z</time>
      </trkpt>
      <trkpt lat="45.994" lon="4.88297">
        <ele>284</ele>
        <time>2018-02-13T11:03:05Z</time>
      </trkpt>
      <trkpt lat="45.99397" lon="4.88291">
        <ele>284</ele>
        <time>2018-02-13T11:03:06Z</time>
      </trkpt>
      <trkpt lat="45.99394" lon="4.88284">
        <ele>284</ele>
        <time>2018-02-13T11:03:07Z</time>
      </trkpt>
      <trkpt lat="45.99392" lon="4.88277">
        <ele>284</ele>
        <time>2018-02-13T11:03:08Z</time>
      </trkpt>
      <trkpt lat="45.99389" lon="4.8827">
        <ele>285</ele>
        <time>2018-02-13T11:03:09Z</time>
      </trkpt>
      <trkpt lat="45.99385" lon="4.88264">
        <ele>285</ele>
        <time>2018-02-13T11:03:10Z</time>
      </trkpt>
      <trkpt lat="45.99382" lon="4.88258">
        <ele>285</ele>
        <time>2018-02-13T11:03:11Z</time>
      </trkpt>
      <trkpt lat="45.99379" lon="4.88251">
        <ele>285</ele>
        <time>2018-02-13T11:03:12Z</time>
      </trkpt>
      <trkpt lat="45.99375" lon="4.88244">
        <ele>287</ele>
        <time>2018-02-13T11:03:13Z</time>
      </trkpt>
      <trkpt lat="45.99371" lon="4.8824">
        <ele>287</ele>
        <time>2018-02-13T11:03:14Z</time>
      </trkpt>
      <trkpt lat="45.99367" lon="4.88235">
        <ele>287</ele>
        <time>2018-02-13T11:03:15Z</time>
      </trkpt>
      <trkpt lat="45.99362" lon="4.8823">
        <ele>287</ele>
        <time>2018-02-13T11:03:16Z</time>
      </trkpt>
      <trkpt lat="45.99357" lon="4.88226">
        <ele>287</ele>
        <time>2018-02-13T11:03:17Z</time>
      </trkpt>
      <trkpt lat="45.99354" lon="4.8822">
        <ele>287</ele>
        <time>2018-02-13T11:03:18Z</time>
      </trkpt>
      <trkpt lat="45.99349" lon="4.88215">
        <ele>287</ele>
        <time>2018-02-13T11:03:19Z</time>
      </trkpt>
      <trkpt lat="45.99345" lon="4.88211">
        <ele>287</ele>
        <time>2018-02-13T11:03:20Z</time>
      </trkpt>
      <trkpt lat="45.9934" lon="4.88207">
        <ele>288</ele>
        <time>2018-02-13T11:03:21Z</time>
      </trkpt>
      <trkpt lat="45.99336" lon="4.88202">
        <ele>288</ele>
        <time>2018-02-13T11:03:22Z</time>
      </trkpt>
      <trkpt lat="45.99331" lon="4.88199">
        <ele>285</ele>
        <time>2018-02-13T11:03:23Z</time>
      </trkpt>
      <trkpt lat="45.99326" lon="4.88194">
        <ele>285</ele>
        <time>2018-02-13T11:03:24Z</time>
      </trkpt>
      <trkpt lat="45.99322" lon="4.8819">
        <ele>285</ele>
        <time>2018-02-13T11:03:25Z</time>
      </trkpt>
      <trkpt lat="45.99317" lon="4.88185">
        <ele>285</ele>
        <time>2018-02-13T11:03:26Z</time>
      </trkpt>
      <trkpt lat="45.99312" lon="4.88181">
        <ele>285</ele>
        <time>2018-02-13T11:03:27Z</time>
      </trkpt>
      <trkpt lat="45.99307" lon="4.88175">
        <ele>285</ele>
        <time>2018-02-13T11:03:28Z</time>
      </trkpt>
      <trkpt lat="45.99301" lon="4.88171">
        <ele>285</ele>
        <time>2018-02-13T11:03:29Z</time>
      </trkpt>
      <trkpt lat="45.99296" lon="4.88167">
        <ele>284</ele>
        <time>2018-02-13T11:03:30Z</time>
      </trkpt>
      <trkpt lat="45.99291" lon="4.88161">
        <ele>284</ele>
        <time>2018-02-13T11:03:31Z</time>
      </trkpt>
      <trkpt lat="45.99286" lon="4.88156">
        <ele>284</ele>
        <time>2018-02-13T11:03:32Z</time>
      </trkpt>
      <trkpt lat="45.9928" lon="4.88152">
        <ele>284</ele>
        <time>2018-02-13T11:03:33Z</time>
      </trkpt>
      <trkpt lat="45.99275" lon="4.88148">
        <ele>283</ele>
        <time>2018-02-13T11:03:34Z</time>
      </trkpt>
      <trkpt lat="45.9927" lon="4.88144">
        <ele>283</ele>
        <time>2018-02-13T11:03:35Z</time>
      </trkpt>
      <trkpt lat="45.99265" lon="4.88141">
        <ele>283</ele>
        <time>2018-02-13T11:03:36Z</time>
      </trkpt>
      <trkpt lat="45.9926" lon="4.88136">
        <ele>283</ele>
        <time>2018-02-13T11:03:37Z</time>
      </trkpt>
      <trkpt lat="45.99256" lon="4.88131">
        <ele>283</ele>
        <time>2018-02-13T11:03:38Z</time>
      </trkpt>
      <trkpt lat="45.99251" lon="4.88127">
        <ele>283</ele>
        <time>2018-02-13T11:03:39Z</time>
      </trkpt>
      <trkpt lat="45.99247" lon="4.88123">
        <ele>280</ele>
        <time>2018-02-13T11:03:40Z</time>
      </trkpt>
      <trkpt lat="45.99243" lon="4.88118">
        <ele>280</ele>
        <time>2018-02-13T11:03:41Z</time>
      </trkpt>
      <trkpt lat="45.99238" lon="4.88113">
        <ele>280</ele>
        <time>2018-02-13T11:03:42Z</time>
      </trkpt>
      <trkpt lat="45.99234" lon="4.88109">
        <ele>280</ele>
        <time>2018-02-13T11:03:43Z</time>
      </trkpt>
      <trkpt lat="45.99229" lon="4.88104">
        <ele>280</ele>
        <time>2018-02-13T11:03:44Z</time>
      </trkpt>
      <trkpt lat="45.99224" lon="4.88101">
        <ele>280</ele>
        <time>2018-02-13T11:03:45Z</time>
      </trkpt>
      <trkpt lat="45.99218" lon="4.88097">
        <ele>280</ele>
        <time>2018-02-13T11:03:46Z</time>
      </trkpt>
      <trkpt lat="45.99213" lon="4.88092">
        <ele>280</ele>
        <time>2018-02-13T11:03:47Z</time>
      </trkpt>
      <trkpt lat="45.99208" lon="4.88088">
        <ele>280</ele>
        <time>2018-02-13T11:03:48Z</time>
      </trkpt>
      <trkpt lat="45.99202" lon="4.88084">
        <ele>280</ele>
        <time>2018-02-13T11:03:49Z</time>
      </trkpt>
      <trkpt lat="45.99197" lon="4.88079">
        <ele>280</ele>
        <time>2018-02-13T11:03:50Z</time>
      </trkpt>
      <trkpt lat="45.99192" lon="4.88075">
        <ele>280</ele>
        <time>2018-02-13T11:03:51Z</time>
      </trkpt>
      <trkpt lat="45.99187" lon="4.88071">
        <ele>280</ele>
        <time>2018-02-13T11:03:52Z</time>
      </trkpt>
      <trkpt lat="45.99182" lon="4.88067">
        <ele>279</ele>
        <time>2018-02-13T11:03:53Z</time>
      </trkpt>
      <trkpt lat="45.99178" lon="4.88063">
        <ele>279</ele>
        <time>2018-02-13T11:03:54Z</time>
      </trkpt>
      <trkpt lat="45.99173" lon="4.88059">
        <ele>279</ele>
        <time>2018-02-13T11:03:55Z</time>
      </trkpt>
      <trkpt lat="45.99168" lon="4.88055">
        <ele>279</ele>
        <time>2018-02-13T11:03:56Z</time>
      </trkpt>
      <trkpt lat="45.99163" lon="4.88051">
        <ele>279</ele>
        <time>2018-02-13T11:03:57Z</time>
      </trkpt>
      <trkpt lat="45.99158" lon="4.88048">
        <ele>279</ele>
        <time>2018-02-13T11:03:58Z</time>
      </trkpt>
      <trkpt lat="45.99153" lon="4.88044">
        <ele>279</ele>
        <time>2018-02-13T11:03:59Z</time>
      </trkpt>
      <trkpt lat="45.99148" lon="4.88041">
        <ele>279</ele>
        <time>2018-02-13T11:04:00Z</time>
      </trkpt>
      <trkpt lat="45.99142" lon="4.88037">
        <ele>279</ele>
        <time>2018-02-13T11:04:01Z</time>
      </trkpt>
      <trkpt lat="45.99137" lon="4.88034">
        <ele>279</ele>
        <time>2018-02-13T11:04:02Z</time>
      </trkpt>
      <trkpt lat="45.99131" lon="4.88031">
        <ele>279</ele>
        <time>2018-02-13T11:04:03Z</time>
      </trkpt>
      <trkpt lat="45.99126" lon="4.88028">
        <ele>279</ele>
        <time>2018-02-13T11:04:04Z</time>
      </trkpt>
      <trkpt lat="45.99121" lon="4.88024">
        <ele>278</ele>
        <time>2018-02-13T11:04:05Z</time>
      </trkpt>
      <trkpt lat="45.99115" lon="4.8802">
        <ele>278</ele>
        <time>2018-02-13T11:04:06Z</time>
      </trkpt>
      <trkpt lat="45.99109" lon="4.88016">
        <ele>278</ele>
        <time>2018-02-13T11:04:07Z</time>
      </trkpt>
      <trkpt lat="45.99103" lon="4.88013">
        <ele>278</ele>
        <time>2018-02-13T11:04:08Z</time>
      </trkpt>
      <trkpt lat="45.99098" lon="4.8801">
        <ele>278</ele>
        <time>2018-02-13T11:04:09Z</time>
      </trkpt>
      <trkpt lat="45.99092" lon="4.88007">
        <ele>278</ele>
        <time>2018-02-13T11:04:10Z</time>
      </trkpt>
      <trkpt lat="45.99087" lon="4.88003">
        <ele>278</ele>
        <time>2018-02-13T11:04:11Z</time>
      </trkpt>
      <trkpt lat="45.99079" lon="4.88">
        <ele>278</ele>
        <time>2018-02-13T11:04:12Z</time>
      </trkpt>
      <trkpt lat="45.99074" lon="4.87997">
        <ele>277</ele>
        <time>2018-02-13T11:04:13Z</time>
      </trkpt>
      <trkpt lat="45.99068" lon="4.87993">
        <ele>277</ele>
        <time>2018-02-13T11:04:14Z</time>
      </trkpt>
      <trkpt lat="45.99062" lon="4.8799">
        <ele>277</ele>
        <time>2018-02-13T11:04:15Z</time>
      </trkpt>
      <trkpt lat="45.99056" lon="4.87987">
        <ele>277</ele>
        <time>2018-02-13T11:04:16Z</time>
      </trkpt>
      <trkpt lat="45.99051" lon="4.87985">
        <ele>277</ele>
        <time>2018-02-13T11:04:17Z</time>
      </trkpt>
      <trkpt lat="45.99046" lon="4.87982">
        <ele>277</ele>
        <time>2018-02-13T11:04:18Z</time>
      </trkpt>
      <trkpt lat="45.9904" lon="4.87979">
        <ele>276</ele>
        <time>2018-02-13T11:04:19Z</time>
      </trkpt>
      <trkpt lat="45.99035" lon="4.87976">
        <ele>276</ele>
        <time>2018-02-13T11:04:20Z</time>
      </trkpt>
      <trkpt lat="45.9903" lon="4.87972">
        <ele>276</ele>
        <time>2018-02-13T11:04:21Z</time>
      </trkpt>
      <trkpt lat="45.99024" lon="4.8797">
        <ele>276</ele>
        <time>2018-02-13T11:04:22Z</time>
      </trkpt>
      <trkpt lat="45.99018" lon="4.87966">
        <ele>276</ele>
        <time>2018-02-13T11:04:23Z</time>
      </trkpt>
      <trkpt lat="45.99012" lon="4.87963">
        <ele>276</ele>
        <time>2018-02-13T11:04:24Z</time>
      </trkpt>
      <trkpt lat="45.99006" lon="4.8796">
        <ele>276</ele>
        <time>2018-02-13T11:04:25Z</time>
      </trkpt>
      <trkpt lat="45.98999" lon="4.87957">
        <ele>274</ele>
        <time>2018-02-13T11:04:26Z</time>
      </trkpt>
      <trkpt lat="45.98994" lon="4.87953">
        <ele>274</ele>
        <time>2018-02-13T11:04:27Z</time>
      </trkpt>
      <trkpt lat="45.98988" lon="4.87949">
        <ele>274</ele>
        <time>2018-02-13T11:04:28Z</time>
      </trkpt>
      <trkpt lat="45.98981" lon="4.87945">
        <ele>274</ele>
        <time>2018-02-13T11:04:29Z</time>
      </trkpt>
      <trkpt lat="45.98975" lon="4.87941">
        <ele>274</ele>
        <time>2018-02-13T11:04:30Z</time>
      </trkpt>
      <trkpt lat="45.98969" lon="4.87937">
        <ele>274</ele>
        <time>2018-02-13T11:04:31Z</time>
      </trkpt>
      <trkpt lat="45.98962" lon="4.87935">
        <ele>273</ele>
        <time>2018-02-13T11:04:32Z</time>
      </trkpt>
      <trkpt lat="45.98956" lon="4.87929">
        <ele>273</ele>
        <time>2018-02-13T11:04:33Z</time>
      </trkpt>
      <trkpt lat="45.98948" lon="4.87926">
        <ele>273</ele>
        <time>2018-02-13T11:04:34Z</time>
      </trkpt>
      <trkpt lat="45.9894" lon="4.87922">
        <ele>273</ele>
        <time>2018-02-13T11:04:35Z</time>
      </trkpt>
      <trkpt lat="45.98934" lon="4.87918">
        <ele>272</ele>
        <time>2018-02-13T11:04:36Z</time>
      </trkpt>
      <trkpt lat="45.98928" lon="4.87914">
        <ele>272</ele>
        <time>2018-02-13T11:04:37Z</time>
      </trkpt>
      <trkpt lat="45.98921" lon="4.87908">
        <ele>272</ele>
        <time>2018-02-13T11:04:38Z</time>
      </trkpt>
      <trkpt lat="45.98914" lon="4.87902">
        <ele>272</ele>
        <time>2018-02-13T11:04:39Z</time>
      </trkpt>
      <trkpt lat="45.98908" lon="4.87895">
        <ele>272</ele>
        <time>2018-02-13T11:04:40Z</time>
      </trkpt>
      <trkpt lat="45.98902" lon="4.87888">
        <ele>272</ele>
        <time>2018-02-13T11:04:41Z</time>
      </trkpt>
      <trkpt lat="45.98896" lon="4.8788">
        <ele>272</ele>
        <time>2018-02-13T11:04:42Z</time>
      </trkpt>
      <trkpt lat="45.98891" lon="4.87872">
        <ele>272</ele>
        <time>2018-02-13T11:04:43Z</time>
      </trkpt>
      <trkpt lat="45.98886" lon="4.87865">
        <ele>272</ele>
        <time>2018-02-13T11:04:44Z</time>
      </trkpt>
      <trkpt lat="45.98881" lon="4.87857">
        <ele>272</ele>
        <time>2018-02-13T11:04:45Z</time>
      </trkpt>
      <trkpt lat="45.98876" lon="4.87848">
        <ele>272</ele>
        <time>2018-02-13T11:04:46Z</time>
      </trkpt>
      <trkpt lat="45.98872" lon="4.87841">
        <ele>273</ele>
        <time>2018-02-13T11:04:47Z</time>
      </trkpt>
      <trkpt lat="45.98868" lon="4.87833">
        <ele>273</ele>
        <time>2018-02-13T11:04:48Z</time>
      </trkpt>
      <trkpt lat="45.98865" lon="4.87827">
        <ele>273</ele>
        <time>2018-02-13T11:04:49Z</time>
      </trkpt>
      <trkpt lat="45.98861" lon="4.87818">
        <ele>273</ele>
        <time>2018-02-13T11:04:50Z</time>
      </trkpt>
      <trkpt lat="45.98858" lon="4.87809">
        <ele>273</ele>
        <time>2018-02-13T11:04:51Z</time>
      </trkpt>
      <trkpt lat="45.98854" lon="4.87802">
        <ele>273</ele>
        <time>2018-02-13T11:04:52Z</time>
      </trkpt>
      <trkpt lat="45.98854" lon="4.87793">
        <ele>273</ele>
        <time>2018-02-13T11:04:53Z</time>
      </trkpt>
      <trkpt lat="45.98851" lon="4.87784">
        <ele>273</ele>
        <time>2018-02-13T11:04:54Z</time>
      </trkpt>
      <trkpt lat="45.98849" lon="4.87775">
        <ele>273</ele>
        <time>2018-02-13T11:04:55Z</time>
      </trkpt>
      <trkpt lat="45.98848" lon="4.87766">
        <ele>273</ele>
        <time>2018-02-13T11:04:56Z</time>
      </trkpt>
      <trkpt lat="45.98846" lon="4.87758">
        <ele>273</ele>
        <time>2018-02-13T11:04:57Z</time>
      </trkpt>
      <trkpt lat="45.98843" lon="4.87749">
        <ele>273</ele>
        <time>2018-02-13T11:04:58Z</time>
      </trkpt>
      <trkpt lat="45.98841" lon="4.87741">
        <ele>273</ele>
        <time>2018-02-13T11:04:59Z</time>
      </trkpt>
      <trkpt lat="45.9884" lon="4.87732">
        <ele>273</ele>
        <time>2018-02-13T11:05:00Z</time>
      </trkpt>
      <trkpt lat="45.98838" lon="4.87723">
        <ele>273</ele>
        <time>2018-02-13T11:05:01Z</time>
      </trkpt>
      <trkpt lat="45.98836" lon="4.87714">
        <ele>273</ele>
        <time>2018-02-13T11:05:02Z</time>
      </trkpt>
      <trkpt lat="45.98833" lon="4.87705">
        <ele>273</ele>
        <time>2018-02-13T11:05:03Z</time>
      </trkpt>
      <trkpt lat="45.98831" lon="4.87696">
        <ele>273</ele>
        <time>2018-02-13T11:05:04Z</time>
      </trkpt>
      <trkpt lat="45.98829" lon="4.87688">
        <ele>273</ele>
        <time>2018-02-13T11:05:05Z</time>
      </trkpt>
      <trkpt lat="45.98828" lon="4.87679">
        <ele>273</ele>
        <time>2018-02-13T11:05:06Z</time>
      </trkpt>
      <trkpt lat="45.98826" lon="4.87671">
        <ele>273</ele>
        <time>2018-02-13T11:05:07Z</time>
      </trkpt>
      <trkpt lat="45.98824" lon="4.87663">
        <ele>272</ele>
        <time>2018-02-13T11:05:08Z</time>
      </trkpt>
      <trkpt lat="45.98821" lon="4.87654">
        <ele>272</ele>
        <time>2018-02-13T11:05:09Z</time>
      </trkpt>
      <trkpt lat="45.98819" lon="4.87649">
        <ele>272</ele>
        <time>2018-02-13T11:05:10Z</time>
      </trkpt>
      <trkpt lat="45.98819" lon="4.87642">
        <ele>272</ele>
        <time>2018-02-13T11:05:11Z</time>
      </trkpt>
      <trkpt lat="45.98817" lon="4.87634">
        <ele>272</ele>
        <time>2018-02-13T11:05:12Z</time>
      </trkpt>
      <trkpt lat="45.98815" lon="4.87627">
        <ele>271</ele>
        <time>2018-02-13T11:05:13Z</time>
      </trkpt>
      <trkpt lat="45.98813" lon="4.8762">
        <ele>271</ele>
        <time>2018-02-13T11:05:14Z</time>
      </trkpt>
      <trkpt lat="45.9881" lon="4.87615">
        <ele>271</ele>
        <time>2018-02-13T11:05:15Z</time>
      </trkpt>
      <trkpt lat="45.98805" lon="4.87605">
        <ele>271</ele>
        <time>2018-02-13T11:05:17Z</time>
      </trkpt>
      <trkpt lat="45.988" lon="4.87599">
        <ele>271</ele>
        <time>2018-02-13T11:05:18Z</time>
      </trkpt>
      <trkpt lat="45.98795" lon="4.87592">
        <ele>271</ele>
        <time>2018-02-13T11:05:19Z</time>
      </trkpt>
      <trkpt lat="45.98793" lon="4.87587">
        <ele>271</ele>
        <time>2018-02-13T11:05:20Z</time>
      </trkpt>
      <trkpt lat="45.98788" lon="4.87581">
        <ele>269</ele>
        <time>2018-02-13T11:05:21Z</time>
      </trkpt>
      <trkpt lat="45.98782" lon="4.87577">
        <ele>269</ele>
        <time>2018-02-13T11:05:22Z</time>
      </trkpt>
      <trkpt lat="45.98777" lon="4.87572">
        <ele>269</ele>
        <time>2018-02-13T11:05:23Z</time>
      </trkpt>
      <trkpt lat="45.98772" lon="4.87568">
        <ele>269</ele>
        <time>2018-02-13T11:05:24Z</time>
      </trkpt>
      <trkpt lat="45.98767" lon="4.87564">
        <ele>269</ele>
        <time>2018-02-13T11:05:25Z</time>
      </trkpt>
      <trkpt lat="45.98763" lon="4.8756">
        <ele>269</ele>
        <time>2018-02-13T11:05:26Z</time>
      </trkpt>
      <trkpt lat="45.98758" lon="4.87556">
        <ele>269</ele>
        <time>2018-02-13T11:05:27Z</time>
      </trkpt>
      <trkpt lat="45.98753" lon="4.87554">
        <ele>269</ele>
        <time>2018-02-13T11:05:28Z</time>
      </trkpt>
      <trkpt lat="45.98746" lon="4.87554">
        <ele>267</ele>
        <time>2018-02-13T11:05:29Z</time>
      </trkpt>
      <trkpt lat="45.9874" lon="4.87553">
        <ele>267</ele>
        <time>2018-02-13T11:05:30Z</time>
      </trkpt>
      <trkpt lat="45.98734" lon="4.87552">
        <ele>267</ele>
        <time>2018-02-13T11:05:31Z</time>
      </trkpt>
      <trkpt lat="45.98729" lon="4.87552">
        <ele>267</ele>
        <time>2018-02-13T11:05:32Z</time>
      </trkpt>
      <trkpt lat="45.98723" lon="4.87552">
        <ele>267</ele>
        <time>2018-02-13T11:05:33Z</time>
      </trkpt>
      <trkpt lat="45.98716" lon="4.87553">
        <ele>267</ele>
        <time>2018-02-13T11:05:34Z</time>
      </trkpt>
      <trkpt lat="45.98709" lon="4.87557">
        <ele>267</ele>
        <time>2018-02-13T11:05:36Z</time>
      </trkpt>
      <trkpt lat="45.98706" lon="4.87559">
        <ele>267</ele>
        <time>2018-02-13T11:05:37Z</time>
      </trkpt>
      <trkpt lat="45.98701" lon="4.87558">
        <ele>267</ele>
        <time>2018-02-13T11:05:38Z</time>
      </trkpt>
      <trkpt lat="45.98697" lon="4.87558">
        <ele>267</ele>
        <time>2018-02-13T11:05:39Z</time>
      </trkpt>
      <trkpt lat="45.98693" lon="4.87561">
        <ele>267</ele>
        <time>2018-02-13T11:05:40Z</time>
      </trkpt>
      <trkpt lat="45.98687" lon="4.87561">
        <ele>267</ele>
        <time>2018-02-13T11:05:41Z</time>
      </trkpt>
      <trkpt lat="45.98679" lon="4.87565">
        <ele>267</ele>
        <time>2018-02-13T11:05:44Z</time>
      </trkpt>
      <trkpt lat="45.98675" lon="4.87568">
        <ele>267</ele>
        <time>2018-02-13T11:05:45Z</time>
      </trkpt>
      <trkpt lat="45.98673" lon="4.87572">
        <ele>267</ele>
        <time>2018-02-13T11:05:46Z</time>
      </trkpt>
      <trkpt lat="45.98665" lon="4.87571">
        <ele>267</ele>
        <time>2018-02-13T11:05:47Z</time>
      </trkpt>
      <trkpt lat="45.9866" lon="4.8757">
        <ele>267</ele>
        <time>2018-02-13T11:05:48Z</time>
      </trkpt>
      <trkpt lat="45.98654" lon="4.87561">
        <ele>267</ele>
        <time>2018-02-13T11:05:49Z</time>
      </trkpt>
      <trkpt lat="45.9865" lon="4.87554">
        <ele>267</ele>
        <time>2018-02-13T11:05:50Z</time>
      </trkpt>
      <trkpt lat="45.98645" lon="4.87548">
        <ele>267</ele>
        <time>2018-02-13T11:05:51Z</time>
      </trkpt>
      <trkpt lat="45.98641" lon="4.8754">
        <ele>267</ele>
        <time>2018-02-13T11:05:53Z</time>
      </trkpt>
      <trkpt lat="45.98639" lon="4.87531">
        <ele>267</ele>
        <time>2018-02-13T11:05:54Z</time>
      </trkpt>
      <trkpt lat="45.98638" lon="4.87525">
        <ele>267</ele>
        <time>2018-02-13T11:05:55Z</time>
      </trkpt>
      <trkpt lat="45.98636" lon="4.87516">
        <ele>267</ele>
        <time>2018-02-13T11:05:56Z</time>
      </trkpt>
      <trkpt lat="45.98635" lon="4.87509">
        <ele>267</ele>
        <time>2018-02-13T11:05:57Z</time>
      </trkpt>
      <trkpt lat="45.98635" lon="4.87501">
        <ele>267</ele>
        <time>2018-02-13T11:05:58Z</time>
      </trkpt>
      <trkpt lat="45.98634" lon="4.87493">
        <ele>267</ele>
        <time>2018-02-13T11:05:59Z</time>
      </trkpt>
      <trkpt lat="45.98633" lon="4.87485">
        <ele>268</ele>
        <time>2018-02-13T11:06:00Z</time>
      </trkpt>
      <trkpt lat="45.98632" lon="4.87479">
        <ele>268</ele>
        <time>2018-02-13T11:06:01Z</time>
      </trkpt>
      <trkpt lat="45.9863" lon="4.87472">
        <ele>268</ele>
        <time>2018-02-13T11:06:02Z</time>
      </trkpt>
      <trkpt lat="45.98628" lon="4.87465">
        <ele>268</ele>
        <time>2018-02-13T11:06:03Z</time>
      </trkpt>
      <trkpt lat="45.98627" lon="4.87459">
        <ele>268</ele>
        <time>2018-02-13T11:06:04Z</time>
      </trkpt>
      <trkpt lat="45.98626" lon="4.87448">
        <ele>268</ele>
        <time>2018-02-13T11:06:06Z</time>
      </trkpt>
      <trkpt lat="45.98625" lon="4.87441">
        <ele>269</ele>
        <time>2018-02-13T11:06:07Z</time>
      </trkpt>
      <trkpt lat="45.98622" lon="4.87429">
        <ele>269</ele>
        <time>2018-02-13T11:06:09Z</time>
      </trkpt>
      <trkpt lat="45.98621" lon="4.87424">
        <ele>269</ele>
        <time>2018-02-13T11:06:10Z</time>
      </trkpt>
      <trkpt lat="45.98619" lon="4.87412">
        <ele>271</ele>
        <time>2018-02-13T11:06:12Z</time>
      </trkpt>
      <trkpt lat="45.98618" lon="4.87407">
        <ele>271</ele>
        <time>2018-02-13T11:06:13Z</time>
      </trkpt>
      <trkpt lat="45.98616" lon="4.87395">
        <ele>271</ele>
        <time>2018-02-13T11:06:15Z</time>
      </trkpt>
      <trkpt lat="45.98614" lon="4.87389">
        <ele>271</ele>
        <time>2018-02-13T11:06:16Z</time>
      </trkpt>
      <trkpt lat="45.98611" lon="4.87378">
        <ele>271</ele>
        <time>2018-02-13T11:06:18Z</time>
      </trkpt>
      <trkpt lat="45.9861" lon="4.87372">
        <ele>271</ele>
        <time>2018-02-13T11:06:19Z</time>
      </trkpt>
      <trkpt lat="45.98608" lon="4.87362">
        <ele>272</ele>
        <time>2018-02-13T11:06:21Z</time>
      </trkpt>
      <trkpt lat="45.98607" lon="4.87357">
        <ele>272</ele>
        <time>2018-02-13T11:06:22Z</time>
      </trkpt>
      <trkpt lat="45.98605" lon="4.87347">
        <ele>272</ele>
        <time>2018-02-13T11:06:24Z</time>
      </trkpt>
      <trkpt lat="45.98604" lon="4.87343">
        <ele>272</ele>
        <time>2018-02-13T11:06:25Z</time>
      </trkpt>
      <trkpt lat="45.98602" lon="4.8733">
        <ele>274</ele>
        <time>2018-02-13T11:06:28Z</time>
      </trkpt>
      <trkpt lat="45.98602" lon="4.87326">
        <ele>274</ele>
        <time>2018-02-13T11:06:29Z</time>
      </trkpt>
      <trkpt lat="45.98602" lon="4.87314">
        <ele>274</ele>
        <time>2018-02-13T11:06:32Z</time>
      </trkpt>
      <trkpt lat="45.98602" lon="4.8731">
        <ele>274</ele>
        <time>2018-02-13T11:06:33Z</time>
      </trkpt>
      <trkpt lat="45.98601" lon="4.87298">
        <ele>275</ele>
        <time>2018-02-13T11:06:36Z</time>
      </trkpt>
      <trkpt lat="45.986" lon="4.87293">
        <ele>275</ele>
        <time>2018-02-13T11:06:37Z</time>
      </trkpt>
      <trkpt lat="45.986" lon="4.87283">
        <ele>275</ele>
        <time>2018-02-13T11:06:39Z</time>
      </trkpt>
      <trkpt lat="45.986" lon="4.87277">
        <ele>275</ele>
        <time>2018-02-13T11:06:40Z</time>
      </trkpt>
      <trkpt lat="45.98602" lon="4.87267">
        <ele>275</ele>
        <time>2018-02-13T11:06:43Z</time>
      </trkpt>
      <trkpt lat="45.98602" lon="4.87262">
        <ele>275</ele>
        <time>2018-02-13T11:06:44Z</time>
      </trkpt>
      <trkpt lat="45.98602" lon="4.87251">
        <ele>275</ele>
        <time>2018-02-13T11:06:46Z</time>
      </trkpt>
      <trkpt lat="45.98602" lon="4.87247">
        <ele>277</ele>
        <time>2018-02-13T11:06:47Z</time>
      </trkpt>
      <trkpt lat="45.98602" lon="4.87235">
        <ele>277</ele>
        <time>2018-02-13T11:06:50Z</time>
      </trkpt>
      <trkpt lat="45.98602" lon="4.8723">
        <ele>277</ele>
        <time>2018-02-13T11:06:51Z</time>
      </trkpt>
      <trkpt lat="45.98602" lon="4.8722">
        <ele>277</ele>
        <time>2018-02-13T11:06:53Z</time>
      </trkpt>
      <trkpt lat="45.98602" lon="4.87216">
        <ele>277</ele>
        <time>2018-02-13T11:06:54Z</time>
      </trkpt>
      <trkpt lat="45.98603" lon="4.87206">
        <ele>277</ele>
        <time>2018-02-13T11:06:56Z</time>
      </trkpt>
      <trkpt lat="45.98603" lon="4.87201">
        <ele>277</ele>
        <time>2018-02-13T11:06:57Z</time>
      </trkpt>
      <trkpt lat="45.98604" lon="4.87189">
        <ele>277</ele>
        <time>2018-02-13T11:06:59Z</time>
      </trkpt>
      <trkpt lat="45.98605" lon="4.87184">
        <ele>277</ele>
        <time>2018-02-13T11:07:00Z</time>
      </trkpt>
      <trkpt lat="45.98607" lon="4.87173">
        <ele>277</ele>
        <time>2018-02-13T11:07:03Z</time>
      </trkpt>
      <trkpt lat="45.98608" lon="4.87162">
        <ele>278</ele>
        <time>2018-02-13T11:07:04Z</time>
      </trkpt>
      <trkpt lat="45.98608" lon="4.87151">
        <ele>278</ele>
        <time>2018-02-13T11:07:06Z</time>
      </trkpt>
      <trkpt lat="45.98607" lon="4.87146">
        <ele>278</ele>
        <time>2018-02-13T11:07:07Z</time>
      </trkpt>
      <trkpt lat="45.98608" lon="4.87136">
        <ele>278</ele>
        <time>2018-02-13T11:07:09Z</time>
      </trkpt>
      <trkpt lat="45.98608" lon="4.87131">
        <ele>279</ele>
        <time>2018-02-13T11:07:10Z</time>
      </trkpt>
      <trkpt lat="45.98608" lon="4.87123">
        <ele>279</ele>
        <time>2018-02-13T11:07:12Z</time>
      </trkpt>
      <trkpt lat="45.98606" lon="4.87115">
        <ele>279</ele>
        <time>2018-02-13T11:07:13Z</time>
      </trkpt>
      <trkpt lat="45.98606" lon="4.87106">
        <ele>279</ele>
        <time>2018-02-13T11:07:15Z</time>
      </trkpt>
      <trkpt lat="45.98605" lon="4.87098">
        <ele>279</ele>
        <time>2018-02-13T11:07:16Z</time>
      </trkpt>
      <trkpt lat="45.98605" lon="4.87086">
        <ele>279</ele>
        <time>2018-02-13T11:07:18Z</time>
      </trkpt>
      <trkpt lat="45.98604" lon="4.87079">
        <ele>279</ele>
        <time>2018-02-13T11:07:19Z</time>
      </trkpt>
      <trkpt lat="45.98602" lon="4.87066">
        <ele>279</ele>
        <time>2018-02-13T11:07:21Z</time>
      </trkpt>
      <trkpt lat="45.986" lon="4.87061">
        <ele>279</ele>
        <time>2018-02-13T11:07:22Z</time>
      </trkpt>
      <trkpt lat="45.98599" lon="4.8705">
        <ele>279</ele>
        <time>2018-02-13T11:07:24Z</time>
      </trkpt>
      <trkpt lat="45.98598" lon="4.87044">
        <ele>279</ele>
        <time>2018-02-13T11:07:25Z</time>
      </trkpt>
      <trkpt lat="45.98596" lon="4.87034">
        <ele>279</ele>
        <time>2018-02-13T11:07:27Z</time>
      </trkpt>
      <trkpt lat="45.98595" lon="4.87029">
        <ele>279</ele>
        <time>2018-02-13T11:07:28Z</time>
      </trkpt>
      <trkpt lat="45.98592" lon="4.87018">
        <ele>279</ele>
        <time>2018-02-13T11:07:30Z</time>
      </trkpt>
      <trkpt lat="45.98591" lon="4.87012">
        <ele>279</ele>
        <time>2018-02-13T11:07:31Z</time>
      </trkpt>
      <trkpt lat="45.98589" lon="4.87">
        <ele>280</ele>
        <time>2018-02-13T11:07:33Z</time>
      </trkpt>
      <trkpt lat="45.98588" lon="4.86994">
        <ele>279</ele>
        <time>2018-02-13T11:07:34Z</time>
      </trkpt>
      <trkpt lat="45.98586" lon="4.86984">
        <ele>279</ele>
        <time>2018-02-13T11:07:36Z</time>
      </trkpt>
      <trkpt lat="45.98585" lon="4.86975">
        <ele>279</ele>
        <time>2018-02-13T11:07:37Z</time>
      </trkpt>
      <trkpt lat="45.98584" lon="4.86964">
        <ele>279</ele>
        <time>2018-02-13T11:07:39Z</time>
      </trkpt>
      <trkpt lat="45.98584" lon="4.86958">
        <ele>279</ele>
        <time>2018-02-13T11:07:40Z</time>
      </trkpt>
      <trkpt lat="45.98584" lon="4.86951">
        <ele>279</ele>
        <time>2018-02-13T11:07:41Z</time>
      </trkpt>
      <trkpt lat="45.98584" lon="4.86945">
        <ele>279</ele>
        <time>2018-02-13T11:07:42Z</time>
      </trkpt>
      <trkpt lat="45.98585" lon="4.86938">
        <ele>279</ele>
        <time>2018-02-13T11:07:43Z</time>
      </trkpt>
      <trkpt lat="45.98584" lon="4.86931">
        <ele>279</ele>
        <time>2018-02-13T11:07:44Z</time>
      </trkpt>
      <trkpt lat="45.98584" lon="4.86924">
        <ele>279</ele>
        <time>2018-02-13T11:07:45Z</time>
      </trkpt>
      <trkpt lat="45.98584" lon="4.86918">
        <ele>279</ele>
        <time>2018-02-13T11:07:46Z</time>
      </trkpt>
      <trkpt lat="45.98585" lon="4.86907">
        <ele>278</ele>
        <time>2018-02-13T11:07:48Z</time>
      </trkpt>
      <trkpt lat="45.98585" lon="4.86901">
        <ele>278</ele>
        <time>2018-02-13T11:07:49Z</time>
      </trkpt>
      <trkpt lat="45.98586" lon="4.86894">
        <ele>278</ele>
        <time>2018-02-13T11:07:50Z</time>
      </trkpt>
      <trkpt lat="45.98587" lon="4.86887">
        <ele>278</ele>
        <time>2018-02-13T11:07:51Z</time>
      </trkpt>
      <trkpt lat="45.98589" lon="4.86878">
        <ele>277</ele>
        <time>2018-02-13T11:07:52Z</time>
      </trkpt>
      <trkpt lat="45.98589" lon="4.86872">
        <ele>277</ele>
        <time>2018-02-13T11:07:53Z</time>
      </trkpt>
      <trkpt lat="45.9859" lon="4.86866">
        <ele>277</ele>
        <time>2018-02-13T11:07:54Z</time>
      </trkpt>
      <trkpt lat="45.98589" lon="4.86859">
        <ele>277</ele>
        <time>2018-02-13T11:07:55Z</time>
      </trkpt>
      <trkpt lat="45.98589" lon="4.86847">
        <ele>277</ele>
        <time>2018-02-13T11:07:57Z</time>
      </trkpt>
      <trkpt lat="45.9859" lon="4.8684">
        <ele>277</ele>
        <time>2018-02-13T11:07:58Z</time>
      </trkpt>
      <trkpt lat="45.98588" lon="4.86829">
        <ele>277</ele>
        <time>2018-02-13T11:08:00Z</time>
      </trkpt>
      <trkpt lat="45.98588" lon="4.86821">
        <ele>276</ele>
        <time>2018-02-13T11:08:01Z</time>
      </trkpt>
      <trkpt lat="45.98588" lon="4.86815">
        <ele>276</ele>
        <time>2018-02-13T11:08:02Z</time>
      </trkpt>
      <trkpt lat="45.98587" lon="4.86808">
        <ele>276</ele>
        <time>2018-02-13T11:08:03Z</time>
      </trkpt>
      <trkpt lat="45.98583" lon="4.86796">
        <ele>277</ele>
        <time>2018-02-13T11:08:05Z</time>
      </trkpt>
      <trkpt lat="45.98582" lon="4.8679">
        <ele>277</ele>
        <time>2018-02-13T11:08:06Z</time>
      </trkpt>
      <trkpt lat="45.98581" lon="4.86784">
        <ele>277</ele>
        <time>2018-02-13T11:08:07Z</time>
      </trkpt>
      <trkpt lat="45.9858" lon="4.86777">
        <ele>277</ele>
        <time>2018-02-13T11:08:08Z</time>
      </trkpt>
      <trkpt lat="45.98578" lon="4.8677">
        <ele>277</ele>
        <time>2018-02-13T11:08:09Z</time>
      </trkpt>
      <trkpt lat="45.98577" lon="4.86763">
        <ele>277</ele>
        <time>2018-02-13T11:08:10Z</time>
      </trkpt>
      <trkpt lat="45.98575" lon="4.86751">
        <ele>277</ele>
        <time>2018-02-13T11:08:12Z</time>
      </trkpt>
      <trkpt lat="45.98574" lon="4.86745">
        <ele>277</ele>
        <time>2018-02-13T11:08:13Z</time>
      </trkpt>
      <trkpt lat="45.98572" lon="4.86733">
        <ele>277</ele>
        <time>2018-02-13T11:08:15Z</time>
      </trkpt>
      <trkpt lat="45.98572" lon="4.86727">
        <ele>277</ele>
        <time>2018-02-13T11:08:16Z</time>
      </trkpt>
      <trkpt lat="45.98572" lon="4.86721">
        <ele>277</ele>
        <time>2018-02-13T11:08:17Z</time>
      </trkpt>
      <trkpt lat="45.98571" lon="4.86714">
        <ele>277</ele>
        <time>2018-02-13T11:08:18Z</time>
      </trkpt>
      <trkpt lat="45.9857" lon="4.86706">
        <ele>277</ele>
        <time>2018-02-13T11:08:19Z</time>
      </trkpt>
      <trkpt lat="45.98569" lon="4.867">
        <ele>277</ele>
        <time>2018-02-13T11:08:20Z</time>
      </trkpt>
      <trkpt lat="45.98569" lon="4.86693">
        <ele>277</ele>
        <time>2018-02-13T11:08:21Z</time>
      </trkpt>
      <trkpt lat="45.9857" lon="4.86687">
        <ele>277</ele>
        <time>2018-02-13T11:08:22Z</time>
      </trkpt>
      <trkpt lat="45.98569" lon="4.86681">
        <ele>276</ele>
        <time>2018-02-13T11:08:23Z</time>
      </trkpt>
      <trkpt lat="45.98568" lon="4.86674">
        <ele>276</ele>
        <time>2018-02-13T11:08:24Z</time>
      </trkpt>
      <trkpt lat="45.98568" lon="4.86667">
        <ele>276</ele>
        <time>2018-02-13T11:08:25Z</time>
      </trkpt>
      <trkpt lat="45.98568" lon="4.86659">
        <ele>277</ele>
        <time>2018-02-13T11:08:26Z</time>
      </trkpt>
      <trkpt lat="45.98567" lon="4.86653">
        <ele>277</ele>
        <time>2018-02-13T11:08:27Z</time>
      </trkpt>
      <trkpt lat="45.98566" lon="4.86645">
        <ele>277</ele>
        <time>2018-02-13T11:08:28Z</time>
      </trkpt>
      <trkpt lat="45.98565" lon="4.86639">
        <ele>277</ele>
        <time>2018-02-13T11:08:29Z</time>
      </trkpt>
      <trkpt lat="45.98564" lon="4.86632">
        <ele>277</ele>
        <time>2018-02-13T11:08:30Z</time>
      </trkpt>
      <trkpt lat="45.98563" lon="4.86625">
        <ele>278</ele>
        <time>2018-02-13T11:08:31Z</time>
      </trkpt>
      <trkpt lat="45.98562" lon="4.86618">
        <ele>278</ele>
        <time>2018-02-13T11:08:32Z</time>
      </trkpt>
      <trkpt lat="45.98561" lon="4.8661">
        <ele>278</ele>
        <time>2018-02-13T11:08:33Z</time>
      </trkpt>
      <trkpt lat="45.9856" lon="4.86604">
        <ele>278</ele>
        <time>2018-02-13T11:08:34Z</time>
      </trkpt>
      <trkpt lat="45.98558" lon="4.86597">
        <ele>278</ele>
        <time>2018-02-13T11:08:35Z</time>
      </trkpt>
      <trkpt lat="45.98556" lon="4.86591">
        <ele>278</ele>
        <time>2018-02-13T11:08:36Z</time>
      </trkpt>
      <trkpt lat="45.98555" lon="4.86585">
        <ele>278</ele>
        <time>2018-02-13T11:08:37Z</time>
      </trkpt>
      <trkpt lat="45.98553" lon="4.86579">
        <ele>278</ele>
        <time>2018-02-13T11:08:38Z</time>
      </trkpt>
      <trkpt lat="45.98549" lon="4.86567">
        <ele>278</ele>
        <time>2018-02-13T11:08:40Z</time>
      </trkpt>
      <trkpt lat="45.98546" lon="4.86561">
        <ele>278</ele>
        <time>2018-02-13T11:08:41Z</time>
      </trkpt>
      <trkpt lat="45.98541" lon="4.86551">
        <ele>278</ele>
        <time>2018-02-13T11:08:43Z</time>
      </trkpt>
      <trkpt lat="45.9854" lon="4.86546">
        <ele>278</ele>
        <time>2018-02-13T11:08:44Z</time>
      </trkpt>
      <trkpt lat="45.98537" lon="4.8654">
        <ele>278</ele>
        <time>2018-02-13T11:08:45Z</time>
      </trkpt>
      <trkpt lat="45.98534" lon="4.86534">
        <ele>278</ele>
        <time>2018-02-13T11:08:46Z</time>
      </trkpt>
      <trkpt lat="45.98531" lon="4.86529">
        <ele>278</ele>
        <time>2018-02-13T11:08:47Z</time>
      </trkpt>
      <trkpt lat="45.98528" lon="4.86524">
        <ele>279</ele>
        <time>2018-02-13T11:08:48Z</time>
      </trkpt>
      <trkpt lat="45.98523" lon="4.86514">
        <ele>279</ele>
        <time>2018-02-13T11:08:50Z</time>
      </trkpt>
      <trkpt lat="45.9852" lon="4.86508">
        <ele>279</ele>
        <time>2018-02-13T11:08:51Z</time>
      </trkpt>
      <trkpt lat="45.98518" lon="4.86502">
        <ele>279</ele>
        <time>2018-02-13T11:08:52Z</time>
      </trkpt>
      <trkpt lat="45.98514" lon="4.86496">
        <ele>279</ele>
        <time>2018-02-13T11:08:53Z</time>
      </trkpt>
      <trkpt lat="45.9851" lon="4.86485">
        <ele>278</ele>
        <time>2018-02-13T11:08:55Z</time>
      </trkpt>
      <trkpt lat="45.98507" lon="4.86478">
        <ele>278</ele>
        <time>2018-02-13T11:08:56Z</time>
      </trkpt>
      <trkpt lat="45.98504" lon="4.86473">
        <ele>278</ele>
        <time>2018-02-13T11:08:57Z</time>
      </trkpt>
      <trkpt lat="45.98501" lon="4.86467">
        <ele>278</ele>
        <time>2018-02-13T11:08:58Z</time>
      </trkpt>
      <trkpt lat="45.98499" lon="4.86462">
        <ele>278</ele>
        <time>2018-02-13T11:08:59Z</time>
      </trkpt>
      <trkpt lat="45.98496" lon="4.86456">
        <ele>278</ele>
        <time>2018-02-13T11:09:00Z</time>
      </trkpt>
      <trkpt lat="45.98495" lon="4.86449">
        <ele>278</ele>
        <time>2018-02-13T11:09:01Z</time>
      </trkpt>
      <trkpt lat="45.98492" lon="4.86443">
        <ele>278</ele>
        <time>2018-02-13T11:09:02Z</time>
      </trkpt>
      <trkpt lat="45.98486" lon="4.86434">
        <ele>278</ele>
        <time>2018-02-13T11:09:04Z</time>
      </trkpt>
      <trkpt lat="45.98484" lon="4.86428">
        <ele>278</ele>
        <time>2018-02-13T11:09:05Z</time>
      </trkpt>
      <trkpt lat="45.98483" lon="4.8642">
        <ele>278</ele>
        <time>2018-02-13T11:09:06Z</time>
      </trkpt>
      <trkpt lat="45.98481" lon="4.86414">
        <ele>277</ele>
        <time>2018-02-13T11:09:07Z</time>
      </trkpt>
      <trkpt lat="45.98477" lon="4.86405">
        <ele>277</ele>
        <time>2018-02-13T11:09:09Z</time>
      </trkpt>
      <trkpt lat="45.98474" lon="4.86399">
        <ele>277</ele>
        <time>2018-02-13T11:09:10Z</time>
      </trkpt>
      <trkpt lat="45.98472" lon="4.86392">
        <ele>277</ele>
        <time>2018-02-13T11:09:11Z</time>
      </trkpt>
      <trkpt lat="45.9847" lon="4.86386">
        <ele>277</ele>
        <time>2018-02-13T11:09:12Z</time>
      </trkpt>
      <trkpt lat="45.98467" lon="4.86379">
        <ele>277</ele>
        <time>2018-02-13T11:09:13Z</time>
      </trkpt>
      <trkpt lat="45.98464" lon="4.86374">
        <ele>277</ele>
        <time>2018-02-13T11:09:14Z</time>
      </trkpt>
      <trkpt lat="45.98462" lon="4.86367">
        <ele>277</ele>
        <time>2018-02-13T11:09:15Z</time>
      </trkpt>
      <trkpt lat="45.98459" lon="4.8636">
        <ele>277</ele>
        <time>2018-02-13T11:09:16Z</time>
      </trkpt>
      <trkpt lat="45.98457" lon="4.86354">
        <ele>277</ele>
        <time>2018-02-13T11:09:17Z</time>
      </trkpt>
      <trkpt lat="45.98455" lon="4.86347">
        <ele>277</ele>
        <time>2018-02-13T11:09:18Z</time>
      </trkpt>
      <trkpt lat="45.98455" lon="4.8634">
        <ele>277</ele>
        <time>2018-02-13T11:09:19Z</time>
      </trkpt>
      <trkpt lat="45.98453" lon="4.86333">
        <ele>276</ele>
        <time>2018-02-13T11:09:20Z</time>
      </trkpt>
      <trkpt lat="45.98451" lon="4.86326">
        <ele>276</ele>
        <time>2018-02-13T11:09:21Z</time>
      </trkpt>
      <trkpt lat="45.98449" lon="4.86318">
        <ele>276</ele>
        <time>2018-02-13T11:09:22Z</time>
      </trkpt>
      <trkpt lat="45.98448" lon="4.86311">
        <ele>276</ele>
        <time>2018-02-13T11:09:23Z</time>
      </trkpt>
      <trkpt lat="45.98447" lon="4.86304">
        <ele>276</ele>
        <time>2018-02-13T11:09:24Z</time>
      </trkpt>
      <trkpt lat="45.98445" lon="4.86291">
        <ele>276</ele>
        <time>2018-02-13T11:09:26Z</time>
      </trkpt>
      <trkpt lat="45.98444" lon="4.86286">
        <ele>276</ele>
        <time>2018-02-13T11:09:27Z</time>
      </trkpt>
      <trkpt lat="45.98441" lon="4.86275">
        <ele>276</ele>
        <time>2018-02-13T11:09:29Z</time>
      </trkpt>
      <trkpt lat="45.9844" lon="4.8627">
        <ele>276</ele>
        <time>2018-02-13T11:09:30Z</time>
      </trkpt>
      <trkpt lat="45.98439" lon="4.86262">
        <ele>275</ele>
        <time>2018-02-13T11:09:31Z</time>
      </trkpt>
      <trkpt lat="45.98437" lon="4.86257">
        <ele>275</ele>
        <time>2018-02-13T11:09:32Z</time>
      </trkpt>
      <trkpt lat="45.98437" lon="4.86246">
        <ele>275</ele>
        <time>2018-02-13T11:09:34Z</time>
      </trkpt>
      <trkpt lat="45.98437" lon="4.86242">
        <ele>275</ele>
        <time>2018-02-13T11:09:35Z</time>
      </trkpt>
      <trkpt lat="45.98433" lon="4.86231">
        <ele>275</ele>
        <time>2018-02-13T11:09:38Z</time>
      </trkpt>
      <trkpt lat="45.98432" lon="4.86227">
        <ele>275</ele>
        <time>2018-02-13T11:09:39Z</time>
      </trkpt>
      <trkpt lat="45.9843" lon="4.86215">
        <ele>275</ele>
        <time>2018-02-13T11:09:42Z</time>
      </trkpt>
      <trkpt lat="45.9843" lon="4.86211">
        <ele>275</ele>
        <time>2018-02-13T11:09:43Z</time>
      </trkpt>
      <trkpt lat="45.98428" lon="4.86199">
        <ele>275</ele>
        <time>2018-02-13T11:09:46Z</time>
      </trkpt>
      <trkpt lat="45.98427" lon="4.86195">
        <ele>275</ele>
        <time>2018-02-13T11:09:47Z</time>
      </trkpt>
      <trkpt lat="45.98425" lon="4.86186">
        <ele>275</ele>
        <time>2018-02-13T11:09:49Z</time>
      </trkpt>
      <trkpt lat="45.98425" lon="4.86181">
        <ele>275</ele>
        <time>2018-02-13T11:09:50Z</time>
      </trkpt>
      <trkpt lat="45.98423" lon="4.8617">
        <ele>276</ele>
        <time>2018-02-13T11:09:52Z</time>
      </trkpt>
      <trkpt lat="45.98422" lon="4.86165">
        <ele>276</ele>
        <time>2018-02-13T11:09:53Z</time>
      </trkpt>
      <trkpt lat="45.98421" lon="4.86155">
        <ele>276</ele>
        <time>2018-02-13T11:09:55Z</time>
      </trkpt>
      <trkpt lat="45.9842" lon="4.86148">
        <ele>276</ele>
        <time>2018-02-13T11:09:56Z</time>
      </trkpt>
      <trkpt lat="45.98419" lon="4.86141">
        <ele>276</ele>
        <time>2018-02-13T11:09:57Z</time>
      </trkpt>
      <trkpt lat="45.98417" lon="4.86135">
        <ele>276</ele>
        <time>2018-02-13T11:09:58Z</time>
      </trkpt>
      <trkpt lat="45.98416" lon="4.86128">
        <ele>276</ele>
        <time>2018-02-13T11:09:59Z</time>
      </trkpt>
      <trkpt lat="45.98415" lon="4.86122">
        <ele>277</ele>
        <time>2018-02-13T11:10:00Z</time>
      </trkpt>
      <trkpt lat="45.98413" lon="4.86115">
        <ele>277</ele>
        <time>2018-02-13T11:10:01Z</time>
      </trkpt>
      <trkpt lat="45.98413" lon="4.86107">
        <ele>277</ele>
        <time>2018-02-13T11:10:02Z</time>
      </trkpt>
      <trkpt lat="45.98411" lon="4.86099">
        <ele>277</ele>
        <time>2018-02-13T11:10:03Z</time>
      </trkpt>
      <trkpt lat="45.98409" lon="4.86091">
        <ele>277</ele>
        <time>2018-02-13T11:10:04Z</time>
      </trkpt>
      <trkpt lat="45.98408" lon="4.86081">
        <ele>277</ele>
        <time>2018-02-13T11:10:05Z</time>
      </trkpt>
      <trkpt lat="45.98405" lon="4.86072">
        <ele>277</ele>
        <time>2018-02-13T11:10:06Z</time>
      </trkpt>
      <trkpt lat="45.98402" lon="4.86063">
        <ele>277</ele>
        <time>2018-02-13T11:10:07Z</time>
      </trkpt>
      <trkpt lat="45.98399" lon="4.86053">
        <ele>277</ele>
        <time>2018-02-13T11:10:08Z</time>
      </trkpt>
      <trkpt lat="45.98396" lon="4.86044">
        <ele>277</ele>
        <time>2018-02-13T11:10:09Z</time>
      </trkpt>
      <trkpt lat="45.98393" lon="4.86035">
        <ele>277</ele>
        <time>2018-02-13T11:10:10Z</time>
      </trkpt>
      <trkpt lat="45.9839" lon="4.86026">
        <ele>277</ele>
        <time>2018-02-13T11:10:11Z</time>
      </trkpt>
      <trkpt lat="45.98387" lon="4.86017">
        <ele>277</ele>
        <time>2018-02-13T11:10:12Z</time>
      </trkpt>
      <trkpt lat="45.98383" lon="4.86009">
        <ele>277</ele>
        <time>2018-02-13T11:10:13Z</time>
      </trkpt>
      <trkpt lat="45.98381" lon="4.86">
        <ele>277</ele>
        <time>2018-02-13T11:10:14Z</time>
      </trkpt>
      <trkpt lat="45.98377" lon="4.85993">
        <ele>277</ele>
        <time>2018-02-13T11:10:15Z</time>
      </trkpt>
      <trkpt lat="45.98375" lon="4.85985">
        <ele>276</ele>
        <time>2018-02-13T11:10:16Z</time>
      </trkpt>
      <trkpt lat="45.98372" lon="4.85978">
        <ele>276</ele>
        <time>2018-02-13T11:10:17Z</time>
      </trkpt>
      <trkpt lat="45.98369" lon="4.85971">
        <ele>276</ele>
        <time>2018-02-13T11:10:18Z</time>
      </trkpt>
      <trkpt lat="45.98367" lon="4.85963">
        <ele>276</ele>
        <time>2018-02-13T11:10:19Z</time>
      </trkpt>
      <trkpt lat="45.98364" lon="4.85956">
        <ele>276</ele>
        <time>2018-02-13T11:10:20Z</time>
      </trkpt>
      <trkpt lat="45.98361" lon="4.85949">
        <ele>276</ele>
        <time>2018-02-13T11:10:21Z</time>
      </trkpt>
      <trkpt lat="45.98359" lon="4.85942">
        <ele>276</ele>
        <time>2018-02-13T11:10:22Z</time>
      </trkpt>
      <trkpt lat="45.98356" lon="4.85936">
        <ele>276</ele>
        <time>2018-02-13T11:10:23Z</time>
      </trkpt>
      <trkpt lat="45.98352" lon="4.8593">
        <ele>276</ele>
        <time>2018-02-13T11:10:24Z</time>
      </trkpt>
      <trkpt lat="45.98349" lon="4.85922">
        <ele>276</ele>
        <time>2018-02-13T11:10:25Z</time>
      </trkpt>
      <trkpt lat="45.98346" lon="4.85915">
        <ele>276</ele>
        <time>2018-02-13T11:10:26Z</time>
      </trkpt>
      <trkpt lat="45.98344" lon="4.85908">
        <ele>276</ele>
        <time>2018-02-13T11:10:27Z</time>
      </trkpt>
      <trkpt lat="45.9834" lon="4.85903">
        <ele>276</ele>
        <time>2018-02-13T11:10:28Z</time>
      </trkpt>
      <trkpt lat="45.98335" lon="4.85893">
        <ele>276</ele>
        <time>2018-02-13T11:10:30Z</time>
      </trkpt>
      <trkpt lat="45.98333" lon="4.85887">
        <ele>276</ele>
        <time>2018-02-13T11:10:31Z</time>
      </trkpt>
      <trkpt lat="45.98329" lon="4.85883">
        <ele>276</ele>
        <time>2018-02-13T11:10:32Z</time>
      </trkpt>
      <trkpt lat="45.98327" lon="4.85874">
        <ele>276</ele>
        <time>2018-02-13T11:10:33Z</time>
      </trkpt>
      <trkpt lat="45.98325" lon="4.85868">
        <ele>276</ele>
        <time>2018-02-13T11:10:34Z</time>
      </trkpt>
      <trkpt lat="45.98323" lon="4.85861">
        <ele>276</ele>
        <time>2018-02-13T11:10:35Z</time>
      </trkpt>
      <trkpt lat="45.98321" lon="4.85854">
        <ele>276</ele>
        <time>2018-02-13T11:10:36Z</time>
      </trkpt>
      <trkpt lat="45.98318" lon="4.85846">
        <ele>276</ele>
        <time>2018-02-13T11:10:37Z</time>
      </trkpt>
      <trkpt lat="45.98315" lon="4.8584">
        <ele>276</ele>
        <time>2018-02-13T11:10:38Z</time>
      </trkpt>
      <trkpt lat="45.98313" lon="4.85833">
        <ele>275</ele>
        <time>2018-02-13T11:10:39Z</time>
      </trkpt>
      <trkpt lat="45.9831" lon="4.85827">
        <ele>275</ele>
        <time>2018-02-13T11:10:40Z</time>
      </trkpt>
      <trkpt lat="45.98308" lon="4.85821">
        <ele>275</ele>
        <time>2018-02-13T11:10:41Z</time>
      </trkpt>
      <trkpt lat="45.98306" lon="4.85814">
        <ele>275</ele>
        <time>2018-02-13T11:10:42Z</time>
      </trkpt>
      <trkpt lat="45.98304" lon="4.8581">
        <ele>275</ele>
        <time>2018-02-13T11:10:43Z</time>
      </trkpt>
      <trkpt lat="45.98301" lon="4.85804">
        <ele>275</ele>
        <time>2018-02-13T11:10:44Z</time>
      </trkpt>
      <trkpt lat="45.98299" lon="4.85798">
        <ele>275</ele>
        <time>2018-02-13T11:10:45Z</time>
      </trkpt>
      <trkpt lat="45.98294" lon="4.85787">
        <ele>275</ele>
        <time>2018-02-13T11:10:47Z</time>
      </trkpt>
      <trkpt lat="45.98292" lon="4.85781">
        <ele>275</ele>
        <time>2018-02-13T11:10:48Z</time>
      </trkpt>
      <trkpt lat="45.98287" lon="4.85771">
        <ele>275</ele>
        <time>2018-02-13T11:10:50Z</time>
      </trkpt>
      <trkpt lat="45.98285" lon="4.85765">
        <ele>275</ele>
        <time>2018-02-13T11:10:51Z</time>
      </trkpt>
      <trkpt lat="45.9828" lon="4.85755">
        <ele>275</ele>
        <time>2018-02-13T11:10:53Z</time>
      </trkpt>
      <trkpt lat="45.98278" lon="4.85749">
        <ele>274</ele>
        <time>2018-02-13T11:10:54Z</time>
      </trkpt>
      <trkpt lat="45.98274" lon="4.85738">
        <ele>274</ele>
        <time>2018-02-13T11:10:56Z</time>
      </trkpt>
      <trkpt lat="45.98272" lon="4.85733">
        <ele>274</ele>
        <time>2018-02-13T11:10:57Z</time>
      </trkpt>
      <trkpt lat="45.98268" lon="4.85722">
        <ele>275</ele>
        <time>2018-02-13T11:10:59Z</time>
      </trkpt>
      <trkpt lat="45.98266" lon="4.85717">
        <ele>275</ele>
        <time>2018-02-13T11:11:00Z</time>
      </trkpt>
      <trkpt lat="45.98262" lon="4.85705">
        <ele>275</ele>
        <time>2018-02-13T11:11:02Z</time>
      </trkpt>
      <trkpt lat="45.9826" lon="4.857">
        <ele>275</ele>
        <time>2018-02-13T11:11:03Z</time>
      </trkpt>
      <trkpt lat="45.98257" lon="4.85694">
        <ele>275</ele>
        <time>2018-02-13T11:11:04Z</time>
      </trkpt>
      <trkpt lat="45.98255" lon="4.85689">
        <ele>275</ele>
        <time>2018-02-13T11:11:05Z</time>
      </trkpt>
      <trkpt lat="45.98253" lon="4.85684">
        <ele>275</ele>
        <time>2018-02-13T11:11:06Z</time>
      </trkpt>
      <trkpt lat="45.9825" lon="4.85678">
        <ele>276</ele>
        <time>2018-02-13T11:11:07Z</time>
      </trkpt>
      <trkpt lat="45.98248" lon="4.85672">
        <ele>276</ele>
        <time>2018-02-13T11:11:08Z</time>
      </trkpt>
      <trkpt lat="45.98246" lon="4.85666">
        <ele>276</ele>
        <time>2018-02-13T11:11:09Z</time>
      </trkpt>
      <trkpt lat="45.98243" lon="4.8566">
        <ele>276</ele>
        <time>2018-02-13T11:11:10Z</time>
      </trkpt>
      <trkpt lat="45.98241" lon="4.85654">
        <ele>276</ele>
        <time>2018-02-13T11:11:11Z</time>
      </trkpt>
      <trkpt lat="45.98238" lon="4.85644">
        <ele>277</ele>
        <time>2018-02-13T11:11:13Z</time>
      </trkpt>
      <trkpt lat="45.98236" lon="4.85638">
        <ele>277</ele>
        <time>2018-02-13T11:11:14Z</time>
      </trkpt>
      <trkpt lat="45.98234" lon="4.85632">
        <ele>277</ele>
        <time>2018-02-13T11:11:15Z</time>
      </trkpt>
      <trkpt lat="45.98232" lon="4.85627">
        <ele>277</ele>
        <time>2018-02-13T11:11:16Z</time>
      </trkpt>
      <trkpt lat="45.98227" lon="4.85616">
        <ele>277</ele>
        <time>2018-02-13T11:11:18Z</time>
      </trkpt>
      <trkpt lat="45.98225" lon="4.85611">
        <ele>277</ele>
        <time>2018-02-13T11:11:19Z</time>
      </trkpt>
      <trkpt lat="45.98223" lon="4.85605">
        <ele>277</ele>
        <time>2018-02-13T11:11:20Z</time>
      </trkpt>
      <trkpt lat="45.9822" lon="4.85599">
        <ele>277</ele>
        <time>2018-02-13T11:11:21Z</time>
      </trkpt>
      <trkpt lat="45.98215" lon="4.85589">
        <ele>277</ele>
        <time>2018-02-13T11:11:23Z</time>
      </trkpt>
      <trkpt lat="45.98213" lon="4.85583">
        <ele>276</ele>
        <time>2018-02-13T11:11:24Z</time>
      </trkpt>
      <trkpt lat="45.98209" lon="4.85573">
        <ele>276</ele>
        <time>2018-02-13T11:11:26Z</time>
      </trkpt>
      <trkpt lat="45.98207" lon="4.85567">
        <ele>276</ele>
        <time>2018-02-13T11:11:27Z</time>
      </trkpt>
      <trkpt lat="45.98202" lon="4.85556">
        <ele>276</ele>
        <time>2018-02-13T11:11:29Z</time>
      </trkpt>
      <trkpt lat="45.98199" lon="4.8555">
        <ele>276</ele>
        <time>2018-02-13T11:11:30Z</time>
      </trkpt>
      <trkpt lat="45.98197" lon="4.85543">
        <ele>276</ele>
        <time>2018-02-13T11:11:31Z</time>
      </trkpt>
      <trkpt lat="45.98194" lon="4.85537">
        <ele>276</ele>
        <time>2018-02-13T11:11:32Z</time>
      </trkpt>
      <trkpt lat="45.98192" lon="4.8553">
        <ele>276</ele>
        <time>2018-02-13T11:11:33Z</time>
      </trkpt>
      <trkpt lat="45.9819" lon="4.85524">
        <ele>276</ele>
        <time>2018-02-13T11:11:34Z</time>
      </trkpt>
      <trkpt lat="45.98187" lon="4.85517">
        <ele>275</ele>
        <time>2018-02-13T11:11:35Z</time>
      </trkpt>
      <trkpt lat="45.98185" lon="4.8551">
        <ele>275</ele>
        <time>2018-02-13T11:11:36Z</time>
      </trkpt>
      <trkpt lat="45.98182" lon="4.85503">
        <ele>275</ele>
        <time>2018-02-13T11:11:37Z</time>
      </trkpt>
      <trkpt lat="45.98179" lon="4.85497">
        <ele>275</ele>
        <time>2018-02-13T11:11:38Z</time>
      </trkpt>
      <trkpt lat="45.98177" lon="4.85491">
        <ele>275</ele>
        <time>2018-02-13T11:11:39Z</time>
      </trkpt>
      <trkpt lat="45.98173" lon="4.85485">
        <ele>275</ele>
        <time>2018-02-13T11:11:40Z</time>
      </trkpt>
      <trkpt lat="45.98171" lon="4.85478">
        <ele>275</ele>
        <time>2018-02-13T11:11:41Z</time>
      </trkpt>
      <trkpt lat="45.98169" lon="4.85472">
        <ele>275</ele>
        <time>2018-02-13T11:11:42Z</time>
      </trkpt>
      <trkpt lat="45.98166" lon="4.85466">
        <ele>275</ele>
        <time>2018-02-13T11:11:43Z</time>
      </trkpt>
      <trkpt lat="45.98165" lon="4.85461">
        <ele>275</ele>
        <time>2018-02-13T11:11:44Z</time>
      </trkpt>
      <trkpt lat="45.98162" lon="4.85456">
        <ele>276</ele>
        <time>2018-02-13T11:11:45Z</time>
      </trkpt>
      <trkpt lat="45.9816" lon="4.8545">
        <ele>276</ele>
        <time>2018-02-13T11:11:46Z</time>
      </trkpt>
      <trkpt lat="45.98157" lon="4.85444">
        <ele>276</ele>
        <time>2018-02-13T11:11:47Z</time>
      </trkpt>
      <trkpt lat="45.98154" lon="4.85438">
        <ele>276</ele>
        <time>2018-02-13T11:11:48Z</time>
      </trkpt>
      <trkpt lat="45.98151" lon="4.85432">
        <ele>276</ele>
        <time>2018-02-13T11:11:49Z</time>
      </trkpt>
      <trkpt lat="45.98149" lon="4.85424">
        <ele>276</ele>
        <time>2018-02-13T11:11:50Z</time>
      </trkpt>
      <trkpt lat="45.98147" lon="4.85416">
        <ele>276</ele>
        <time>2018-02-13T11:11:51Z</time>
      </trkpt>
      <trkpt lat="45.98144" lon="4.85411">
        <ele>276</ele>
        <time>2018-02-13T11:11:52Z</time>
      </trkpt>
      <trkpt lat="45.98141" lon="4.85404">
        <ele>276</ele>
        <time>2018-02-13T11:11:53Z</time>
      </trkpt>
      <trkpt lat="45.98139" lon="4.85397">
        <ele>276</ele>
        <time>2018-02-13T11:11:54Z</time>
      </trkpt>
      <trkpt lat="45.98136" lon="4.8539">
        <ele>276</ele>
        <time>2018-02-13T11:11:55Z</time>
      </trkpt>
      <trkpt lat="45.98133" lon="4.85384">
        <ele>276</ele>
        <time>2018-02-13T11:11:56Z</time>
      </trkpt>
      <trkpt lat="45.9813" lon="4.85379">
        <ele>276</ele>
        <time>2018-02-13T11:11:57Z</time>
      </trkpt>
      <trkpt lat="45.98127" lon="4.85372">
        <ele>276</ele>
        <time>2018-02-13T11:11:58Z</time>
      </trkpt>
      <trkpt lat="45.98124" lon="4.85365">
        <ele>276</ele>
        <time>2018-02-13T11:11:59Z</time>
      </trkpt>
      <trkpt lat="45.98121" lon="4.85359">
        <ele>276</ele>
        <time>2018-02-13T11:12:00Z</time>
      </trkpt>
      <trkpt lat="45.98119" lon="4.85353">
        <ele>276</ele>
        <time>2018-02-13T11:12:01Z</time>
      </trkpt>
      <trkpt lat="45.98116" lon="4.85346">
        <ele>276</ele>
        <time>2018-02-13T11:12:02Z</time>
      </trkpt>
      <trkpt lat="45.98113" lon="4.8534">
        <ele>276</ele>
        <time>2018-02-13T11:12:03Z</time>
      </trkpt>
      <trkpt lat="45.98111" lon="4.85332">
        <ele>276</ele>
        <time>2018-02-13T11:12:04Z</time>
      </trkpt>
      <trkpt lat="45.98108" lon="4.85327">
        <ele>276</ele>
        <time>2018-02-13T11:12:05Z</time>
      </trkpt>
      <trkpt lat="45.98106" lon="4.8532">
        <ele>276</ele>
        <time>2018-02-13T11:12:06Z</time>
      </trkpt>
      <trkpt lat="45.98103" lon="4.85314">
        <ele>276</ele>
        <time>2018-02-13T11:12:07Z</time>
      </trkpt>
      <trkpt lat="45.981" lon="4.85308">
        <ele>276</ele>
        <time>2018-02-13T11:12:08Z</time>
      </trkpt>
      <trkpt lat="45.98098" lon="4.85303">
        <ele>276</ele>
        <time>2018-02-13T11:12:09Z</time>
      </trkpt>
      <trkpt lat="45.98095" lon="4.85298">
        <ele>276</ele>
        <time>2018-02-13T11:12:10Z</time>
      </trkpt>
      <trkpt lat="45.98093" lon="4.85292">
        <ele>276</ele>
        <time>2018-02-13T11:12:11Z</time>
      </trkpt>
      <trkpt lat="45.9809" lon="4.85287">
        <ele>276</ele>
        <time>2018-02-13T11:12:12Z</time>
      </trkpt>
      <trkpt lat="45.98086" lon="4.85276">
        <ele>276</ele>
        <time>2018-02-13T11:12:14Z</time>
      </trkpt>
      <trkpt lat="45.98083" lon="4.85271">
        <ele>276</ele>
        <time>2018-02-13T11:12:15Z</time>
      </trkpt>
      <trkpt lat="45.98078" lon="4.85261">
        <ele>276</ele>
        <time>2018-02-13T11:12:17Z</time>
      </trkpt>
      <trkpt lat="45.98075" lon="4.85255">
        <ele>276</ele>
        <time>2018-02-13T11:12:18Z</time>
      </trkpt>
      <trkpt lat="45.98073" lon="4.8525">
        <ele>276</ele>
        <time>2018-02-13T11:12:19Z</time>
      </trkpt>
      <trkpt lat="45.9807" lon="4.85244">
        <ele>276</ele>
        <time>2018-02-13T11:12:20Z</time>
      </trkpt>
      <trkpt lat="45.98066" lon="4.85239">
        <ele>276</ele>
        <time>2018-02-13T11:12:21Z</time>
      </trkpt>
      <trkpt lat="45.98064" lon="4.85234">
        <ele>276</ele>
        <time>2018-02-13T11:12:22Z</time>
      </trkpt>
      <trkpt lat="45.98059" lon="4.85224">
        <ele>276</ele>
        <time>2018-02-13T11:12:24Z</time>
      </trkpt>
      <trkpt lat="45.98056" lon="4.85219">
        <ele>276</ele>
        <time>2018-02-13T11:12:25Z</time>
      </trkpt>
      <trkpt lat="45.98054" lon="4.85213">
        <ele>276</ele>
        <time>2018-02-13T11:12:26Z</time>
      </trkpt>
      <trkpt lat="45.98053" lon="4.85207">
        <ele>276</ele>
        <time>2018-02-13T11:12:27Z</time>
      </trkpt>
      <trkpt lat="45.98049" lon="4.85195">
        <ele>276</ele>
        <time>2018-02-13T11:12:29Z</time>
      </trkpt>
      <trkpt lat="45.98047" lon="4.85189">
        <ele>276</ele>
        <time>2018-02-13T11:12:30Z</time>
      </trkpt>
      <trkpt lat="45.98045" lon="4.85177">
        <ele>276</ele>
        <time>2018-02-13T11:12:32Z</time>
      </trkpt>
      <trkpt lat="45.98043" lon="4.85171">
        <ele>275</ele>
        <time>2018-02-13T11:12:33Z</time>
      </trkpt>
      <trkpt lat="45.98041" lon="4.85165">
        <ele>275</ele>
        <time>2018-02-13T11:12:34Z</time>
      </trkpt>
      <trkpt lat="45.98039" lon="4.85158">
        <ele>275</ele>
        <time>2018-02-13T11:12:35Z</time>
      </trkpt>
      <trkpt lat="45.98037" lon="4.85152">
        <ele>275</ele>
        <time>2018-02-13T11:12:36Z</time>
      </trkpt>
      <trkpt lat="45.98035" lon="4.85146">
        <ele>275</ele>
        <time>2018-02-13T11:12:37Z</time>
      </trkpt>
      <trkpt lat="45.98034" lon="4.85138">
        <ele>275</ele>
        <time>2018-02-13T11:12:38Z</time>
      </trkpt>
      <trkpt lat="45.98032" lon="4.8513">
        <ele>274</ele>
        <time>2018-02-13T11:12:39Z</time>
      </trkpt>
      <trkpt lat="45.9803" lon="4.85123">
        <ele>274</ele>
        <time>2018-02-13T11:12:40Z</time>
      </trkpt>
      <trkpt lat="45.98028" lon="4.85117">
        <ele>274</ele>
        <time>2018-02-13T11:12:41Z</time>
      </trkpt>
      <trkpt lat="45.98025" lon="4.85108">
        <ele>274</ele>
        <time>2018-02-13T11:12:42Z</time>
      </trkpt>
      <trkpt lat="45.98023" lon="4.85101">
        <ele>274</ele>
        <time>2018-02-13T11:12:43Z</time>
      </trkpt>
      <trkpt lat="45.98023" lon="4.85093">
        <ele>274</ele>
        <time>2018-02-13T11:12:44Z</time>
      </trkpt>
      <trkpt lat="45.98022" lon="4.85085">
        <ele>274</ele>
        <time>2018-02-13T11:12:45Z</time>
      </trkpt>
      <trkpt lat="45.98022" lon="4.85079">
        <ele>273</ele>
        <time>2018-02-13T11:12:46Z</time>
      </trkpt>
      <trkpt lat="45.98022" lon="4.85072">
        <ele>273</ele>
        <time>2018-02-13T11:12:47Z</time>
      </trkpt>
      <trkpt lat="45.98022" lon="4.85064">
        <ele>273</ele>
        <time>2018-02-13T11:12:48Z</time>
      </trkpt>
      <trkpt lat="45.98022" lon="4.85057">
        <ele>273</ele>
        <time>2018-02-13T11:12:49Z</time>
      </trkpt>
      <trkpt lat="45.98022" lon="4.8505">
        <ele>273</ele>
        <time>2018-02-13T11:12:50Z</time>
      </trkpt>
      <trkpt lat="45.98022" lon="4.85043">
        <ele>273</ele>
        <time>2018-02-13T11:12:51Z</time>
      </trkpt>
      <trkpt lat="45.98022" lon="4.85036">
        <ele>273</ele>
        <time>2018-02-13T11:12:52Z</time>
      </trkpt>
      <trkpt lat="45.98022" lon="4.8503">
        <ele>273</ele>
        <time>2018-02-13T11:12:53Z</time>
      </trkpt>
      <trkpt lat="45.98022" lon="4.85022">
        <ele>273</ele>
        <time>2018-02-13T11:12:54Z</time>
      </trkpt>
      <trkpt lat="45.98021" lon="4.85015">
        <ele>273</ele>
        <time>2018-02-13T11:12:55Z</time>
      </trkpt>
      <trkpt lat="45.9802" lon="4.85007">
        <ele>273</ele>
        <time>2018-02-13T11:12:56Z</time>
      </trkpt>
      <trkpt lat="45.98021" lon="4.85">
        <ele>272</ele>
        <time>2018-02-13T11:12:57Z</time>
      </trkpt>
      <trkpt lat="45.9802" lon="4.84993">
        <ele>272</ele>
        <time>2018-02-13T11:12:58Z</time>
      </trkpt>
      <trkpt lat="45.9802" lon="4.84985">
        <ele>272</ele>
        <time>2018-02-13T11:12:59Z</time>
      </trkpt>
      <trkpt lat="45.98019" lon="4.84977">
        <ele>272</ele>
        <time>2018-02-13T11:13:00Z</time>
      </trkpt>
      <trkpt lat="45.98019" lon="4.8497">
        <ele>272</ele>
        <time>2018-02-13T11:13:01Z</time>
      </trkpt>
      <trkpt lat="45.98017" lon="4.8496">
        <ele>272</ele>
        <time>2018-02-13T11:13:02Z</time>
      </trkpt>
      <trkpt lat="45.98017" lon="4.84953">
        <ele>272</ele>
        <time>2018-02-13T11:13:03Z</time>
      </trkpt>
      <trkpt lat="45.98016" lon="4.84946">
        <ele>272</ele>
        <time>2018-02-13T11:13:04Z</time>
      </trkpt>
      <trkpt lat="45.98016" lon="4.84939">
        <ele>272</ele>
        <time>2018-02-13T11:13:05Z</time>
      </trkpt>
      <trkpt lat="45.98014" lon="4.84931">
        <ele>272</ele>
        <time>2018-02-13T11:13:06Z</time>
      </trkpt>
      <trkpt lat="45.98013" lon="4.84924">
        <ele>272</ele>
        <time>2018-02-13T11:13:07Z</time>
      </trkpt>
      <trkpt lat="45.98012" lon="4.84917">
        <ele>272</ele>
        <time>2018-02-13T11:13:08Z</time>
      </trkpt>
      <trkpt lat="45.98011" lon="4.8491">
        <ele>272</ele>
        <time>2018-02-13T11:13:09Z</time>
      </trkpt>
      <trkpt lat="45.98011" lon="4.84901">
        <ele>272</ele>
        <time>2018-02-13T11:13:10Z</time>
      </trkpt>
      <trkpt lat="45.98011" lon="4.84894">
        <ele>272</ele>
        <time>2018-02-13T11:13:11Z</time>
      </trkpt>
      <trkpt lat="45.9801" lon="4.84886">
        <ele>272</ele>
        <time>2018-02-13T11:13:12Z</time>
      </trkpt>
      <trkpt lat="45.98008" lon="4.84878">
        <ele>272</ele>
        <time>2018-02-13T11:13:13Z</time>
      </trkpt>
      <trkpt lat="45.98007" lon="4.8487">
        <ele>272</ele>
        <time>2018-02-13T11:13:14Z</time>
      </trkpt>
      <trkpt lat="45.98007" lon="4.84862">
        <ele>272</ele>
        <time>2018-02-13T11:13:15Z</time>
      </trkpt>
      <trkpt lat="45.98006" lon="4.84854">
        <ele>272</ele>
        <time>2018-02-13T11:13:16Z</time>
      </trkpt>
      <trkpt lat="45.98005" lon="4.84845">
        <ele>272</ele>
        <time>2018-02-13T11:13:17Z</time>
      </trkpt>
      <trkpt lat="45.98005" lon="4.84837">
        <ele>272</ele>
        <time>2018-02-13T11:13:18Z</time>
      </trkpt>
      <trkpt lat="45.98004" lon="4.84828">
        <ele>272</ele>
        <time>2018-02-13T11:13:19Z</time>
      </trkpt>
      <trkpt lat="45.98002" lon="4.84821">
        <ele>272</ele>
        <time>2018-02-13T11:13:20Z</time>
      </trkpt>
      <trkpt lat="45.98001" lon="4.84812">
        <ele>273</ele>
        <time>2018-02-13T11:13:21Z</time>
      </trkpt>
      <trkpt lat="45.98" lon="4.84803">
        <ele>273</ele>
        <time>2018-02-13T11:13:22Z</time>
      </trkpt>
      <trkpt lat="45.98" lon="4.84794">
        <ele>273</ele>
        <time>2018-02-13T11:13:23Z</time>
      </trkpt>
      <trkpt lat="45.97999" lon="4.84784">
        <ele>274</ele>
        <time>2018-02-13T11:13:24Z</time>
      </trkpt>
      <trkpt lat="45.97998" lon="4.84776">
        <ele>274</ele>
        <time>2018-02-13T11:13:25Z</time>
      </trkpt>
      <trkpt lat="45.97998" lon="4.84765">
        <ele>275</ele>
        <time>2018-02-13T11:13:26Z</time>
      </trkpt>
      <trkpt lat="45.97998" lon="4.84757">
        <ele>275</ele>
        <time>2018-02-13T11:13:27Z</time>
      </trkpt>
      <trkpt lat="45.97997" lon="4.84747">
        <ele>275</ele>
        <time>2018-02-13T11:13:28Z</time>
      </trkpt>
      <trkpt lat="45.97996" lon="4.84738">
        <ele>275</ele>
        <time>2018-02-13T11:13:29Z</time>
      </trkpt>
      <trkpt lat="45.97995" lon="4.8473">
        <ele>275</ele>
        <time>2018-02-13T11:13:30Z</time>
      </trkpt>
      <trkpt lat="45.97994" lon="4.84722">
        <ele>275</ele>
        <time>2018-02-13T11:13:31Z</time>
      </trkpt>
      <trkpt lat="45.97993" lon="4.84713">
        <ele>275</ele>
        <time>2018-02-13T11:13:32Z</time>
      </trkpt>
      <trkpt lat="45.97994" lon="4.84704">
        <ele>275</ele>
        <time>2018-02-13T11:13:33Z</time>
      </trkpt>
      <trkpt lat="45.97992" lon="4.84697">
        <ele>275</ele>
        <time>2018-02-13T11:13:34Z</time>
      </trkpt>
      <trkpt lat="45.97992" lon="4.84689">
        <ele>275</ele>
        <time>2018-02-13T11:13:35Z</time>
      </trkpt>
      <trkpt lat="45.97991" lon="4.84681">
        <ele>275</ele>
        <time>2018-02-13T11:13:36Z</time>
      </trkpt>
      <trkpt lat="45.97989" lon="4.84673">
        <ele>275</ele>
        <time>2018-02-13T11:13:37Z</time>
      </trkpt>
      <trkpt lat="45.97988" lon="4.84665">
        <ele>274</ele>
        <time>2018-02-13T11:13:38Z</time>
      </trkpt>
      <trkpt lat="45.97987" lon="4.84658">
        <ele>274</ele>
        <time>2018-02-13T11:13:39Z</time>
      </trkpt>
      <trkpt lat="45.97985" lon="4.84649">
        <ele>274</ele>
        <time>2018-02-13T11:13:40Z</time>
      </trkpt>
      <trkpt lat="45.97984" lon="4.84642">
        <ele>275</ele>
        <time>2018-02-13T11:13:41Z</time>
      </trkpt>
      <trkpt lat="45.97983" lon="4.84635">
        <ele>275</ele>
        <time>2018-02-13T11:13:42Z</time>
      </trkpt>
      <trkpt lat="45.97982" lon="4.84627">
        <ele>275</ele>
        <time>2018-02-13T11:13:43Z</time>
      </trkpt>
      <trkpt lat="45.9798" lon="4.84618">
        <ele>275</ele>
        <time>2018-02-13T11:13:44Z</time>
      </trkpt>
      <trkpt lat="45.97978" lon="4.84608">
        <ele>275</ele>
        <time>2018-02-13T11:13:45Z</time>
      </trkpt>
      <trkpt lat="45.97977" lon="4.846">
        <ele>275</ele>
        <time>2018-02-13T11:13:46Z</time>
      </trkpt>
      <trkpt lat="45.97975" lon="4.84592">
        <ele>274</ele>
        <time>2018-02-13T11:13:47Z</time>
      </trkpt>
      <trkpt lat="45.97974" lon="4.84584">
        <ele>274</ele>
        <time>2018-02-13T11:13:48Z</time>
      </trkpt>
      <trkpt lat="45.97972" lon="4.84576">
        <ele>275</ele>
        <time>2018-02-13T11:13:49Z</time>
      </trkpt>
      <trkpt lat="45.9797" lon="4.84568">
        <ele>275</ele>
        <time>2018-02-13T11:13:50Z</time>
      </trkpt>
      <trkpt lat="45.97969" lon="4.8456">
        <ele>275</ele>
        <time>2018-02-13T11:13:51Z</time>
      </trkpt>
      <trkpt lat="45.97968" lon="4.84552">
        <ele>275</ele>
        <time>2018-02-13T11:13:52Z</time>
      </trkpt>
      <trkpt lat="45.97966" lon="4.84543">
        <ele>275</ele>
        <time>2018-02-13T11:13:53Z</time>
      </trkpt>
      <trkpt lat="45.97966" lon="4.84534">
        <ele>275</ele>
        <time>2018-02-13T11:13:54Z</time>
      </trkpt>
      <trkpt lat="45.97965" lon="4.84526">
        <ele>275</ele>
        <time>2018-02-13T11:13:55Z</time>
      </trkpt>
      <trkpt lat="45.97963" lon="4.84519">
        <ele>275</ele>
        <time>2018-02-13T11:13:56Z</time>
      </trkpt>
      <trkpt lat="45.97962" lon="4.84513">
        <ele>275</ele>
        <time>2018-02-13T11:13:57Z</time>
      </trkpt>
      <trkpt lat="45.97961" lon="4.84505">
        <ele>275</ele>
        <time>2018-02-13T11:13:58Z</time>
      </trkpt>
      <trkpt lat="45.9796" lon="4.84497">
        <ele>275</ele>
        <time>2018-02-13T11:13:59Z</time>
      </trkpt>
      <trkpt lat="45.9796" lon="4.8449">
        <ele>275</ele>
        <time>2018-02-13T11:14:00Z</time>
      </trkpt>
      <trkpt lat="45.97958" lon="4.84484">
        <ele>275</ele>
        <time>2018-02-13T11:14:01Z</time>
      </trkpt>
      <trkpt lat="45.97957" lon="4.84476">
        <ele>275</ele>
        <time>2018-02-13T11:14:02Z</time>
      </trkpt>
      <trkpt lat="45.97956" lon="4.84468">
        <ele>275</ele>
        <time>2018-02-13T11:14:03Z</time>
      </trkpt>
      <trkpt lat="45.97954" lon="4.84461">
        <ele>275</ele>
        <time>2018-02-13T11:14:04Z</time>
      </trkpt>
      <trkpt lat="45.97953" lon="4.84454">
        <ele>275</ele>
        <time>2018-02-13T11:14:05Z</time>
      </trkpt>
      <trkpt lat="45.97952" lon="4.84447">
        <ele>275</ele>
        <time>2018-02-13T11:14:06Z</time>
      </trkpt>
      <trkpt lat="45.97951" lon="4.84441">
        <ele>275</ele>
        <time>2018-02-13T11:14:07Z</time>
      </trkpt>
      <trkpt lat="45.97951" lon="4.84434">
        <ele>275</ele>
        <time>2018-02-13T11:14:08Z</time>
      </trkpt>
      <trkpt lat="45.9795" lon="4.84427">
        <ele>275</ele>
        <time>2018-02-13T11:14:09Z</time>
      </trkpt>
      <trkpt lat="45.97949" lon="4.84421">
        <ele>275</ele>
        <time>2018-02-13T11:14:10Z</time>
      </trkpt>
      <trkpt lat="45.97948" lon="4.84414">
        <ele>275</ele>
        <time>2018-02-13T11:14:11Z</time>
      </trkpt>
      <trkpt lat="45.97948" lon="4.84407">
        <ele>275</ele>
        <time>2018-02-13T11:14:12Z</time>
      </trkpt>
      <trkpt lat="45.97947" lon="4.844">
        <ele>275</ele>
        <time>2018-02-13T11:14:13Z</time>
      </trkpt>
      <trkpt lat="45.97946" lon="4.84394">
        <ele>275</ele>
        <time>2018-02-13T11:14:14Z</time>
      </trkpt>
      <trkpt lat="45.97944" lon="4.84388">
        <ele>275</ele>
        <time>2018-02-13T11:14:15Z</time>
      </trkpt>
      <trkpt lat="45.97943" lon="4.84381">
        <ele>275</ele>
        <time>2018-02-13T11:14:16Z</time>
      </trkpt>
      <trkpt lat="45.97942" lon="4.84375">
        <ele>275</ele>
        <time>2018-02-13T11:14:17Z</time>
      </trkpt>
      <trkpt lat="45.97941" lon="4.84369">
        <ele>275</ele>
        <time>2018-02-13T11:14:18Z</time>
      </trkpt>
      <trkpt lat="45.97938" lon="4.84362">
        <ele>275</ele>
        <time>2018-02-13T11:14:19Z</time>
      </trkpt>
      <trkpt lat="45.97938" lon="4.84355">
        <ele>275</ele>
        <time>2018-02-13T11:14:20Z</time>
      </trkpt>
      <trkpt lat="45.97936" lon="4.84348">
        <ele>275</ele>
        <time>2018-02-13T11:14:21Z</time>
      </trkpt>
      <trkpt lat="45.97935" lon="4.84342">
        <ele>275</ele>
        <time>2018-02-13T11:14:22Z</time>
      </trkpt>
      <trkpt lat="45.97934" lon="4.84334">
        <ele>275</ele>
        <time>2018-02-13T11:14:23Z</time>
      </trkpt>
      <trkpt lat="45.97932" lon="4.84326">
        <ele>275</ele>
        <time>2018-02-13T11:14:24Z</time>
      </trkpt>
      <trkpt lat="45.97931" lon="4.84318">
        <ele>275</ele>
        <time>2018-02-13T11:14:25Z</time>
      </trkpt>
      <trkpt lat="45.97929" lon="4.84311">
        <ele>275</ele>
        <time>2018-02-13T11:14:26Z</time>
      </trkpt>
      <trkpt lat="45.97928" lon="4.84304">
        <ele>275</ele>
        <time>2018-02-13T11:14:27Z</time>
      </trkpt>
      <trkpt lat="45.97926" lon="4.84297">
        <ele>275</ele>
        <time>2018-02-13T11:14:28Z</time>
      </trkpt>
      <trkpt lat="45.97926" lon="4.8429">
        <ele>275</ele>
        <time>2018-02-13T11:14:29Z</time>
      </trkpt>
      <trkpt lat="45.97926" lon="4.84282">
        <ele>275</ele>
        <time>2018-02-13T11:14:30Z</time>
      </trkpt>
      <trkpt lat="45.97926" lon="4.84275">
        <ele>275</ele>
        <time>2018-02-13T11:14:31Z</time>
      </trkpt>
      <trkpt lat="45.97928" lon="4.84268">
        <ele>275</ele>
        <time>2018-02-13T11:14:32Z</time>
      </trkpt>
      <trkpt lat="45.97931" lon="4.84263">
        <ele>275</ele>
        <time>2018-02-13T11:14:33Z</time>
      </trkpt>
      <trkpt lat="45.97935" lon="4.84258">
        <ele>275</ele>
        <time>2018-02-13T11:14:34Z</time>
      </trkpt>
      <trkpt lat="45.9794" lon="4.84254">
        <ele>275</ele>
        <time>2018-02-13T11:14:35Z</time>
      </trkpt>
      <trkpt lat="45.97944" lon="4.8425">
        <ele>275</ele>
        <time>2018-02-13T11:14:36Z</time>
      </trkpt>
      <trkpt lat="45.97948" lon="4.84246">
        <ele>275</ele>
        <time>2018-02-13T11:14:37Z</time>
      </trkpt>
      <trkpt lat="45.97952" lon="4.84242">
        <ele>275</ele>
        <time>2018-02-13T11:14:38Z</time>
      </trkpt>
      <trkpt lat="45.97957" lon="4.84236">
        <ele>275</ele>
        <time>2018-02-13T11:14:39Z</time>
      </trkpt>
      <trkpt lat="45.97961" lon="4.84231">
        <ele>274</ele>
        <time>2018-02-13T11:14:40Z</time>
      </trkpt>
      <trkpt lat="45.97966" lon="4.84226">
        <ele>274</ele>
        <time>2018-02-13T11:14:41Z</time>
      </trkpt>
      <trkpt lat="45.97971" lon="4.84222">
        <ele>274</ele>
        <time>2018-02-13T11:14:42Z</time>
      </trkpt>
      <trkpt lat="45.97976" lon="4.84217">
        <ele>274</ele>
        <time>2018-02-13T11:14:43Z</time>
      </trkpt>
      <trkpt lat="45.97981" lon="4.84212">
        <ele>274</ele>
        <time>2018-02-13T11:14:44Z</time>
      </trkpt>
      <trkpt lat="45.97986" lon="4.84208">
        <ele>274</ele>
        <time>2018-02-13T11:14:45Z</time>
      </trkpt>
      <trkpt lat="45.9799" lon="4.84203">
        <ele>274</ele>
        <time>2018-02-13T11:14:46Z</time>
      </trkpt>
      <trkpt lat="45.97995" lon="4.842">
        <ele>274</ele>
        <time>2018-02-13T11:14:47Z</time>
      </trkpt>
      <trkpt lat="45.98" lon="4.84196">
        <ele>274</ele>
        <time>2018-02-13T11:14:48Z</time>
      </trkpt>
      <trkpt lat="45.98004" lon="4.84192">
        <ele>274</ele>
        <time>2018-02-13T11:14:49Z</time>
      </trkpt>
      <trkpt lat="45.98009" lon="4.84187">
        <ele>274</ele>
        <time>2018-02-13T11:14:50Z</time>
      </trkpt>
      <trkpt lat="45.98014" lon="4.84184">
        <ele>274</ele>
        <time>2018-02-13T11:14:51Z</time>
      </trkpt>
      <trkpt lat="45.98019" lon="4.84179">
        <ele>274</ele>
        <time>2018-02-13T11:14:52Z</time>
      </trkpt>
      <trkpt lat="45.98024" lon="4.84174">
        <ele>274</ele>
        <time>2018-02-13T11:14:53Z</time>
      </trkpt>
      <trkpt lat="45.98029" lon="4.8417">
        <ele>274</ele>
        <time>2018-02-13T11:14:54Z</time>
      </trkpt>
      <trkpt lat="45.98034" lon="4.84166">
        <ele>273</ele>
        <time>2018-02-13T11:14:55Z</time>
      </trkpt>
      <trkpt lat="45.98039" lon="4.84161">
        <ele>273</ele>
        <time>2018-02-13T11:14:56Z</time>
      </trkpt>
      <trkpt lat="45.98044" lon="4.84156">
        <ele>273</ele>
        <time>2018-02-13T11:14:57Z</time>
      </trkpt>
      <trkpt lat="45.98049" lon="4.84152">
        <ele>273</ele>
        <time>2018-02-13T11:14:58Z</time>
      </trkpt>
      <trkpt lat="45.98054" lon="4.84147">
        <ele>273</ele>
        <time>2018-02-13T11:14:59Z</time>
      </trkpt>
      <trkpt lat="45.98059" lon="4.84142">
        <ele>273</ele>
        <time>2018-02-13T11:15:00Z</time>
      </trkpt>
      <trkpt lat="45.98064" lon="4.84137">
        <ele>273</ele>
        <time>2018-02-13T11:15:01Z</time>
      </trkpt>
      <trkpt lat="45.98069" lon="4.84131">
        <ele>273</ele>
        <time>2018-02-13T11:15:02Z</time>
      </trkpt>
      <trkpt lat="45.98074" lon="4.84126">
        <ele>273</ele>
        <time>2018-02-13T11:15:03Z</time>
      </trkpt>
      <trkpt lat="45.98079" lon="4.84121">
        <ele>273</ele>
        <time>2018-02-13T11:15:04Z</time>
      </trkpt>
      <trkpt lat="45.98084" lon="4.84117">
        <ele>273</ele>
        <time>2018-02-13T11:15:05Z</time>
      </trkpt>
      <trkpt lat="45.9809" lon="4.84113">
        <ele>273</ele>
        <time>2018-02-13T11:15:06Z</time>
      </trkpt>
      <trkpt lat="45.98095" lon="4.84108">
        <ele>273</ele>
        <time>2018-02-13T11:15:07Z</time>
      </trkpt>
      <trkpt lat="45.98099" lon="4.84103">
        <ele>273</ele>
        <time>2018-02-13T11:15:08Z</time>
      </trkpt>
      <trkpt lat="45.98104" lon="4.84098">
        <ele>273</ele>
        <time>2018-02-13T11:15:09Z</time>
      </trkpt>
      <trkpt lat="45.9811" lon="4.84092">
        <ele>273</ele>
        <time>2018-02-13T11:15:10Z</time>
      </trkpt>
      <trkpt lat="45.98114" lon="4.84088">
        <ele>273</ele>
        <time>2018-02-13T11:15:11Z</time>
      </trkpt>
      <trkpt lat="45.9812" lon="4.84084">
        <ele>273</ele>
        <time>2018-02-13T11:15:12Z</time>
      </trkpt>
      <trkpt lat="45.98124" lon="4.84079">
        <ele>273</ele>
        <time>2018-02-13T11:15:13Z</time>
      </trkpt>
      <trkpt lat="45.98129" lon="4.84074">
        <ele>273</ele>
        <time>2018-02-13T11:15:14Z</time>
      </trkpt>
      <trkpt lat="45.98134" lon="4.84068">
        <ele>273</ele>
        <time>2018-02-13T11:15:15Z</time>
      </trkpt>
      <trkpt lat="45.98138" lon="4.84062">
        <ele>273</ele>
        <time>2018-02-13T11:15:16Z</time>
      </trkpt>
      <trkpt lat="45.98143" lon="4.84056">
        <ele>273</ele>
        <time>2018-02-13T11:15:17Z</time>
      </trkpt>
      <trkpt lat="45.98147" lon="4.84049">
        <ele>273</ele>
        <time>2018-02-13T11:15:18Z</time>
      </trkpt>
      <trkpt lat="45.98152" lon="4.84042">
        <ele>273</ele>
        <time>2018-02-13T11:15:19Z</time>
      </trkpt>
      <trkpt lat="45.98156" lon="4.84036">
        <ele>273</ele>
        <time>2018-02-13T11:15:20Z</time>
      </trkpt>
      <trkpt lat="45.98159" lon="4.84029">
        <ele>273</ele>
        <time>2018-02-13T11:15:21Z</time>
      </trkpt>
      <trkpt lat="45.98163" lon="4.84022">
        <ele>273</ele>
        <time>2018-02-13T11:15:22Z</time>
      </trkpt>
      <trkpt lat="45.98166" lon="4.84015">
        <ele>273</ele>
        <time>2018-02-13T11:15:23Z</time>
      </trkpt>
      <trkpt lat="45.9817" lon="4.84008">
        <ele>273</ele>
        <time>2018-02-13T11:15:24Z</time>
      </trkpt>
      <trkpt lat="45.98174" lon="4.84">
        <ele>273</ele>
        <time>2018-02-13T11:15:25Z</time>
      </trkpt>
      <trkpt lat="45.98178" lon="4.83993">
        <ele>273</ele>
        <time>2018-02-13T11:15:26Z</time>
      </trkpt>
      <trkpt lat="45.98182" lon="4.83986">
        <ele>273</ele>
        <time>2018-02-13T11:15:27Z</time>
      </trkpt>
      <trkpt lat="45.98185" lon="4.83979">
        <ele>273</ele>
        <time>2018-02-13T11:15:28Z</time>
      </trkpt>
      <trkpt lat="45.98188" lon="4.83971">
        <ele>273</ele>
        <time>2018-02-13T11:15:29Z</time>
      </trkpt>
      <trkpt lat="45.98192" lon="4.83963">
        <ele>273</ele>
        <time>2018-02-13T11:15:30Z</time>
      </trkpt>
      <trkpt lat="45.98195" lon="4.83955">
        <ele>273</ele>
        <time>2018-02-13T11:15:31Z</time>
      </trkpt>
      <trkpt lat="45.98198" lon="4.83946">
        <ele>273</ele>
        <time>2018-02-13T11:15:32Z</time>
      </trkpt>
      <trkpt lat="45.98201" lon="4.83938">
        <ele>273</ele>
        <time>2018-02-13T11:15:33Z</time>
      </trkpt>
      <trkpt lat="45.98203" lon="4.83929">
        <ele>273</ele>
        <time>2018-02-13T11:15:34Z</time>
      </trkpt>
      <trkpt lat="45.98206" lon="4.83918">
        <ele>273</ele>
        <time>2018-02-13T11:15:35Z</time>
      </trkpt>
      <trkpt lat="45.98209" lon="4.8391">
        <ele>273</ele>
        <time>2018-02-13T11:15:36Z</time>
      </trkpt>
      <trkpt lat="45.98212" lon="4.83901">
        <ele>273</ele>
        <time>2018-02-13T11:15:37Z</time>
      </trkpt>
      <trkpt lat="45.98215" lon="4.83892">
        <ele>273</ele>
        <time>2018-02-13T11:15:38Z</time>
      </trkpt>
      <trkpt lat="45.98218" lon="4.83884">
        <ele>272</ele>
        <time>2018-02-13T11:15:39Z</time>
      </trkpt>
      <trkpt lat="45.98221" lon="4.83875">
        <ele>272</ele>
        <time>2018-02-13T11:15:40Z</time>
      </trkpt>
      <trkpt lat="45.98224" lon="4.83867">
        <ele>272</ele>
        <time>2018-02-13T11:15:41Z</time>
      </trkpt>
      <trkpt lat="45.98227" lon="4.83859">
        <ele>272</ele>
        <time>2018-02-13T11:15:42Z</time>
      </trkpt>
      <trkpt lat="45.98229" lon="4.8385">
        <ele>272</ele>
        <time>2018-02-13T11:15:43Z</time>
      </trkpt>
      <trkpt lat="45.98233" lon="4.83842">
        <ele>272</ele>
        <time>2018-02-13T11:15:44Z</time>
      </trkpt>
      <trkpt lat="45.98235" lon="4.83834">
        <ele>272</ele>
        <time>2018-02-13T11:15:45Z</time>
      </trkpt>
      <trkpt lat="45.98238" lon="4.83825">
        <ele>272</ele>
        <time>2018-02-13T11:15:46Z</time>
      </trkpt>
      <trkpt lat="45.98241" lon="4.83817">
        <ele>272</ele>
        <time>2018-02-13T11:15:47Z</time>
      </trkpt>
      <trkpt lat="45.98245" lon="4.83808">
        <ele>272</ele>
        <time>2018-02-13T11:15:48Z</time>
      </trkpt>
      <trkpt lat="45.98247" lon="4.83799">
        <ele>272</ele>
        <time>2018-02-13T11:15:49Z</time>
      </trkpt>
      <trkpt lat="45.98251" lon="4.83791">
        <ele>272</ele>
        <time>2018-02-13T11:15:50Z</time>
      </trkpt>
      <trkpt lat="45.98253" lon="4.83783">
        <ele>272</ele>
        <time>2018-02-13T11:15:51Z</time>
      </trkpt>
      <trkpt lat="45.98256" lon="4.83776">
        <ele>272</ele>
        <time>2018-02-13T11:15:52Z</time>
      </trkpt>
      <trkpt lat="45.98258" lon="4.83768">
        <ele>272</ele>
        <time>2018-02-13T11:15:53Z</time>
      </trkpt>
      <trkpt lat="45.98261" lon="4.8376">
        <ele>272</ele>
        <time>2018-02-13T11:15:54Z</time>
      </trkpt>
      <trkpt lat="45.98265" lon="4.83751">
        <ele>272</ele>
        <time>2018-02-13T11:15:55Z</time>
      </trkpt>
      <trkpt lat="45.98268" lon="4.83742">
        <ele>272</ele>
        <time>2018-02-13T11:15:56Z</time>
      </trkpt>
      <trkpt lat="45.98271" lon="4.83734">
        <ele>272</ele>
        <time>2018-02-13T11:15:57Z</time>
      </trkpt>
      <trkpt lat="45.98274" lon="4.83727">
        <ele>272</ele>
        <time>2018-02-13T11:15:58Z</time>
      </trkpt>
      <trkpt lat="45.98276" lon="4.83719">
        <ele>272</ele>
        <time>2018-02-13T11:15:59Z</time>
      </trkpt>
      <trkpt lat="45.98279" lon="4.83711">
        <ele>272</ele>
        <time>2018-02-13T11:16:00Z</time>
      </trkpt>
      <trkpt lat="45.98283" lon="4.83702">
        <ele>272</ele>
        <time>2018-02-13T11:16:01Z</time>
      </trkpt>
      <trkpt lat="45.98286" lon="4.83694">
        <ele>272</ele>
        <time>2018-02-13T11:16:02Z</time>
      </trkpt>
      <trkpt lat="45.98289" lon="4.83685">
        <ele>272</ele>
        <time>2018-02-13T11:16:03Z</time>
      </trkpt>
      <trkpt lat="45.98293" lon="4.83676">
        <ele>272</ele>
        <time>2018-02-13T11:16:04Z</time>
      </trkpt>
      <trkpt lat="45.98296" lon="4.83669">
        <ele>272</ele>
        <time>2018-02-13T11:16:05Z</time>
      </trkpt>
      <trkpt lat="45.98299" lon="4.83661">
        <ele>271</ele>
        <time>2018-02-13T11:16:06Z</time>
      </trkpt>
      <trkpt lat="45.98302" lon="4.83653">
        <ele>271</ele>
        <time>2018-02-13T11:16:07Z</time>
      </trkpt>
      <trkpt lat="45.98306" lon="4.83645">
        <ele>271</ele>
        <time>2018-02-13T11:16:08Z</time>
      </trkpt>
      <trkpt lat="45.98309" lon="4.83637">
        <ele>271</ele>
        <time>2018-02-13T11:16:09Z</time>
      </trkpt>
      <trkpt lat="45.98312" lon="4.8363">
        <ele>271</ele>
        <time>2018-02-13T11:16:10Z</time>
      </trkpt>
      <trkpt lat="45.98316" lon="4.83624">
        <ele>271</ele>
        <time>2018-02-13T11:16:11Z</time>
      </trkpt>
      <trkpt lat="45.98319" lon="4.83618">
        <ele>271</ele>
        <time>2018-02-13T11:16:12Z</time>
      </trkpt>
      <trkpt lat="45.98322" lon="4.8361">
        <ele>271</ele>
        <time>2018-02-13T11:16:13Z</time>
      </trkpt>
      <trkpt lat="45.98326" lon="4.83604">
        <ele>271</ele>
        <time>2018-02-13T11:16:14Z</time>
      </trkpt>
      <trkpt lat="45.9833" lon="4.83597">
        <ele>271</ele>
        <time>2018-02-13T11:16:15Z</time>
      </trkpt>
      <trkpt lat="45.98334" lon="4.8359">
        <ele>270</ele>
        <time>2018-02-13T11:16:16Z</time>
      </trkpt>
      <trkpt lat="45.98339" lon="4.83584">
        <ele>270</ele>
        <time>2018-02-13T11:16:17Z</time>
      </trkpt>
      <trkpt lat="45.98344" lon="4.83578">
        <ele>270</ele>
        <time>2018-02-13T11:16:18Z</time>
      </trkpt>
      <trkpt lat="45.98349" lon="4.83572">
        <ele>269</ele>
        <time>2018-02-13T11:16:19Z</time>
      </trkpt>
      <trkpt lat="45.98354" lon="4.83565">
        <ele>269</ele>
        <time>2018-02-13T11:16:20Z</time>
      </trkpt>
      <trkpt lat="45.98359" lon="4.83559">
        <ele>269</ele>
        <time>2018-02-13T11:16:21Z</time>
      </trkpt>
      <trkpt lat="45.98364" lon="4.83553">
        <ele>269</ele>
        <time>2018-02-13T11:16:22Z</time>
      </trkpt>
      <trkpt lat="45.98369" lon="4.83546">
        <ele>269</ele>
        <time>2018-02-13T11:16:23Z</time>
      </trkpt>
      <trkpt lat="45.98375" lon="4.83539">
        <ele>269</ele>
        <time>2018-02-13T11:16:24Z</time>
      </trkpt>
      <trkpt lat="45.98379" lon="4.83533">
        <ele>269</ele>
        <time>2018-02-13T11:16:25Z</time>
      </trkpt>
      <trkpt lat="45.98383" lon="4.83526">
        <ele>269</ele>
        <time>2018-02-13T11:16:26Z</time>
      </trkpt>
      <trkpt lat="45.98388" lon="4.83519">
        <ele>269</ele>
        <time>2018-02-13T11:16:27Z</time>
      </trkpt>
      <trkpt lat="45.98393" lon="4.83513">
        <ele>269</ele>
        <time>2018-02-13T11:16:28Z</time>
      </trkpt>
      <trkpt lat="45.98398" lon="4.83507">
        <ele>269</ele>
        <time>2018-02-13T11:16:29Z</time>
      </trkpt>
      <trkpt lat="45.98403" lon="4.83501">
        <ele>268</ele>
        <time>2018-02-13T11:16:30Z</time>
      </trkpt>
      <trkpt lat="45.98408" lon="4.83495">
        <ele>268</ele>
        <time>2018-02-13T11:16:31Z</time>
      </trkpt>
      <trkpt lat="45.98413" lon="4.83488">
        <ele>269</ele>
        <time>2018-02-13T11:16:32Z</time>
      </trkpt>
      <trkpt lat="45.98417" lon="4.83481">
        <ele>268</ele>
        <time>2018-02-13T11:16:33Z</time>
      </trkpt>
      <trkpt lat="45.98423" lon="4.83474">
        <ele>268</ele>
        <time>2018-02-13T11:16:34Z</time>
      </trkpt>
      <trkpt lat="45.98428" lon="4.83467">
        <ele>268</ele>
        <time>2018-02-13T11:16:35Z</time>
      </trkpt>
      <trkpt lat="45.98433" lon="4.8346">
        <ele>268</ele>
        <time>2018-02-13T11:16:36Z</time>
      </trkpt>
      <trkpt lat="45.98438" lon="4.83453">
        <ele>268</ele>
        <time>2018-02-13T11:16:37Z</time>
      </trkpt>
      <trkpt lat="45.98443" lon="4.83446">
        <ele>268</ele>
        <time>2018-02-13T11:16:38Z</time>
      </trkpt>
      <trkpt lat="45.98449" lon="4.83439">
        <ele>268</ele>
        <time>2018-02-13T11:16:39Z</time>
      </trkpt>
      <trkpt lat="45.98455" lon="4.83432">
        <ele>268</ele>
        <time>2018-02-13T11:16:40Z</time>
      </trkpt>
      <trkpt lat="45.9846" lon="4.83424">
        <ele>269</ele>
        <time>2018-02-13T11:16:41Z</time>
      </trkpt>
      <trkpt lat="45.98465" lon="4.83417">
        <ele>269</ele>
        <time>2018-02-13T11:16:42Z</time>
      </trkpt>
      <trkpt lat="45.9847" lon="4.83412">
        <ele>269</ele>
        <time>2018-02-13T11:16:43Z</time>
      </trkpt>
      <trkpt lat="45.98474" lon="4.83406">
        <ele>269</ele>
        <time>2018-02-13T11:16:44Z</time>
      </trkpt>
      <trkpt lat="45.98478" lon="4.83399">
        <ele>269</ele>
        <time>2018-02-13T11:16:45Z</time>
      </trkpt>
      <trkpt lat="45.98482" lon="4.83392">
        <ele>269</ele>
        <time>2018-02-13T11:16:46Z</time>
      </trkpt>
      <trkpt lat="45.98487" lon="4.83386">
        <ele>269</ele>
        <time>2018-02-13T11:16:47Z</time>
      </trkpt>
      <trkpt lat="45.98491" lon="4.8338">
        <ele>269</ele>
        <time>2018-02-13T11:16:48Z</time>
      </trkpt>
      <trkpt lat="45.98496" lon="4.83374">
        <ele>270</ele>
        <time>2018-02-13T11:16:49Z</time>
      </trkpt>
      <trkpt lat="45.985" lon="4.83368">
        <ele>270</ele>
        <time>2018-02-13T11:16:50Z</time>
      </trkpt>
      <trkpt lat="45.98505" lon="4.83362">
        <ele>269</ele>
        <time>2018-02-13T11:16:51Z</time>
      </trkpt>
      <trkpt lat="45.98509" lon="4.83356">
        <ele>270</ele>
        <time>2018-02-13T11:16:52Z</time>
      </trkpt>
      <trkpt lat="45.98514" lon="4.83349">
        <ele>270</ele>
        <time>2018-02-13T11:16:53Z</time>
      </trkpt>
      <trkpt lat="45.98518" lon="4.83344">
        <ele>270</ele>
        <time>2018-02-13T11:16:54Z</time>
      </trkpt>
      <trkpt lat="45.98523" lon="4.83338">
        <ele>270</ele>
        <time>2018-02-13T11:16:55Z</time>
      </trkpt>
      <trkpt lat="45.98528" lon="4.83332">
        <ele>269</ele>
        <time>2018-02-13T11:16:56Z</time>
      </trkpt>
      <trkpt lat="45.98533" lon="4.83326">
        <ele>269</ele>
        <time>2018-02-13T11:16:57Z</time>
      </trkpt>
      <trkpt lat="45.98538" lon="4.83319">
        <ele>269</ele>
        <time>2018-02-13T11:16:58Z</time>
      </trkpt>
      <trkpt lat="45.98543" lon="4.83311">
        <ele>269</ele>
        <time>2018-02-13T11:16:59Z</time>
      </trkpt>
      <trkpt lat="45.98548" lon="4.83305">
        <ele>269</ele>
        <time>2018-02-13T11:17:00Z</time>
      </trkpt>
      <trkpt lat="45.98553" lon="4.83297">
        <ele>269</ele>
        <time>2018-02-13T11:17:01Z</time>
      </trkpt>
      <trkpt lat="45.98559" lon="4.83289">
        <ele>269</ele>
        <time>2018-02-13T11:17:02Z</time>
      </trkpt>
      <trkpt lat="45.98564" lon="4.83281">
        <ele>269</ele>
        <time>2018-02-13T11:17:03Z</time>
      </trkpt>
      <trkpt lat="45.9857" lon="4.83275">
        <ele>269</ele>
        <time>2018-02-13T11:17:04Z</time>
      </trkpt>
      <trkpt lat="45.98575" lon="4.83268">
        <ele>269</ele>
        <time>2018-02-13T11:17:05Z</time>
      </trkpt>
      <trkpt lat="45.98579" lon="4.83262">
        <ele>268</ele>
        <time>2018-02-13T11:17:06Z</time>
      </trkpt>
      <trkpt lat="45.98584" lon="4.83255">
        <ele>268</ele>
        <time>2018-02-13T11:17:07Z</time>
      </trkpt>
      <trkpt lat="45.98589" lon="4.83248">
        <ele>268</ele>
        <time>2018-02-13T11:17:08Z</time>
      </trkpt>
      <trkpt lat="45.98595" lon="4.83241">
        <ele>268</ele>
        <time>2018-02-13T11:17:09Z</time>
      </trkpt>
      <trkpt lat="45.986" lon="4.83234">
        <ele>268</ele>
        <time>2018-02-13T11:17:10Z</time>
      </trkpt>
      <trkpt lat="45.98604" lon="4.83228">
        <ele>267</ele>
        <time>2018-02-13T11:17:11Z</time>
      </trkpt>
      <trkpt lat="45.98609" lon="4.83222">
        <ele>267</ele>
        <time>2018-02-13T11:17:12Z</time>
      </trkpt>
      <trkpt lat="45.98613" lon="4.83215">
        <ele>267</ele>
        <time>2018-02-13T11:17:13Z</time>
      </trkpt>
      <trkpt lat="45.98618" lon="4.83209">
        <ele>267</ele>
        <time>2018-02-13T11:17:14Z</time>
      </trkpt>
      <trkpt lat="45.98624" lon="4.83201">
        <ele>267</ele>
        <time>2018-02-13T11:17:15Z</time>
      </trkpt>
      <trkpt lat="45.98629" lon="4.83193">
        <ele>267</ele>
        <time>2018-02-13T11:17:16Z</time>
      </trkpt>
      <trkpt lat="45.98635" lon="4.83187">
        <ele>267</ele>
        <time>2018-02-13T11:17:17Z</time>
      </trkpt>
      <trkpt lat="45.98641" lon="4.8318">
        <ele>267</ele>
        <time>2018-02-13T11:17:18Z</time>
      </trkpt>
      <trkpt lat="45.98647" lon="4.83175">
        <ele>267</ele>
        <time>2018-02-13T11:17:19Z</time>
      </trkpt>
      <trkpt lat="45.98654" lon="4.83169">
        <ele>267</ele>
        <time>2018-02-13T11:17:20Z</time>
      </trkpt>
      <trkpt lat="45.9866" lon="4.83164">
        <ele>266</ele>
        <time>2018-02-13T11:17:21Z</time>
      </trkpt>
      <trkpt lat="45.98668" lon="4.83157">
        <ele>266</ele>
        <time>2018-02-13T11:17:22Z</time>
      </trkpt>
      <trkpt lat="45.98675" lon="4.83153">
        <ele>266</ele>
        <time>2018-02-13T11:17:23Z</time>
      </trkpt>
      <trkpt lat="45.98682" lon="4.83147">
        <ele>266</ele>
        <time>2018-02-13T11:17:24Z</time>
      </trkpt>
      <trkpt lat="45.98689" lon="4.83142">
        <ele>266</ele>
        <time>2018-02-13T11:17:25Z</time>
      </trkpt>
      <trkpt lat="45.98695" lon="4.83136">
        <ele>266</ele>
        <time>2018-02-13T11:17:26Z</time>
      </trkpt>
      <trkpt lat="45.98702" lon="4.83131">
        <ele>266</ele>
        <time>2018-02-13T11:17:27Z</time>
      </trkpt>
      <trkpt lat="45.98709" lon="4.83126">
        <ele>266</ele>
        <time>2018-02-13T11:17:28Z</time>
      </trkpt>
      <trkpt lat="45.98715" lon="4.8312">
        <ele>267</ele>
        <time>2018-02-13T11:17:29Z</time>
      </trkpt>
      <trkpt lat="45.98721" lon="4.83115">
        <ele>267</ele>
        <time>2018-02-13T11:17:30Z</time>
      </trkpt>
      <trkpt lat="45.98728" lon="4.83109">
        <ele>267</ele>
        <time>2018-02-13T11:17:31Z</time>
      </trkpt>
      <trkpt lat="45.98735" lon="4.83103">
        <ele>267</ele>
        <time>2018-02-13T11:17:32Z</time>
      </trkpt>
      <trkpt lat="45.98741" lon="4.83097">
        <ele>267</ele>
        <time>2018-02-13T11:17:33Z</time>
      </trkpt>
      <trkpt lat="45.98749" lon="4.83091">
        <ele>267</ele>
        <time>2018-02-13T11:17:34Z</time>
      </trkpt>
      <trkpt lat="45.98756" lon="4.83085">
        <ele>266</ele>
        <time>2018-02-13T11:17:35Z</time>
      </trkpt>
      <trkpt lat="45.98763" lon="4.83078">
        <ele>266</ele>
        <time>2018-02-13T11:17:36Z</time>
      </trkpt>
      <trkpt lat="45.98771" lon="4.83072">
        <ele>266</ele>
        <time>2018-02-13T11:17:37Z</time>
      </trkpt>
      <trkpt lat="45.98779" lon="4.83066">
        <ele>265</ele>
        <time>2018-02-13T11:17:38Z</time>
      </trkpt>
      <trkpt lat="45.98786" lon="4.8306">
        <ele>265</ele>
        <time>2018-02-13T11:17:39Z</time>
      </trkpt>
      <trkpt lat="45.98794" lon="4.83053">
        <ele>265</ele>
        <time>2018-02-13T11:17:40Z</time>
      </trkpt>
      <trkpt lat="45.98802" lon="4.83046">
        <ele>264</ele>
        <time>2018-02-13T11:17:41Z</time>
      </trkpt>
      <trkpt lat="45.9881" lon="4.8304">
        <ele>264</ele>
        <time>2018-02-13T11:17:42Z</time>
      </trkpt>
      <trkpt lat="45.98817" lon="4.83035">
        <ele>264</ele>
        <time>2018-02-13T11:17:43Z</time>
      </trkpt>
      <trkpt lat="45.98827" lon="4.83028">
        <ele>264</ele>
        <time>2018-02-13T11:17:44Z</time>
      </trkpt>
      <trkpt lat="45.98836" lon="4.83022">
        <ele>261</ele>
        <time>2018-02-13T11:17:45Z</time>
      </trkpt>
      <trkpt lat="45.98844" lon="4.83014">
        <ele>261</ele>
        <time>2018-02-13T11:17:46Z</time>
      </trkpt>
      <trkpt lat="45.98853" lon="4.83007">
        <ele>261</ele>
        <time>2018-02-13T11:17:47Z</time>
      </trkpt>
      <trkpt lat="45.98862" lon="4.83001">
        <ele>260</ele>
        <time>2018-02-13T11:17:48Z</time>
      </trkpt>
      <trkpt lat="45.98872" lon="4.82994">
        <ele>260</ele>
        <time>2018-02-13T11:17:49Z</time>
      </trkpt>
      <trkpt lat="45.98882" lon="4.82987">
        <ele>259</ele>
        <time>2018-02-13T11:17:50Z</time>
      </trkpt>
      <trkpt lat="45.98892" lon="4.8298">
        <ele>259</ele>
        <time>2018-02-13T11:17:51Z</time>
      </trkpt>
      <trkpt lat="45.98901" lon="4.82969">
        <ele>259</ele>
        <time>2018-02-13T11:17:52Z</time>
      </trkpt>
      <trkpt lat="45.9891" lon="4.82958">
        <ele>258</ele>
        <time>2018-02-13T11:17:53Z</time>
      </trkpt>
      <trkpt lat="45.98917" lon="4.82945">
        <ele>255</ele>
        <time>2018-02-13T11:17:54Z</time>
      </trkpt>
      <trkpt lat="45.98923" lon="4.82931">
        <ele>255</ele>
        <time>2018-02-13T11:17:55Z</time>
      </trkpt>
      <trkpt lat="45.9893" lon="4.82916">
        <ele>254</ele>
        <time>2018-02-13T11:17:56Z</time>
      </trkpt>
      <trkpt lat="45.98937" lon="4.82901">
        <ele>253</ele>
        <time>2018-02-13T11:17:57Z</time>
      </trkpt>
      <trkpt lat="45.98944" lon="4.82885">
        <ele>253</ele>
        <time>2018-02-13T11:17:58Z</time>
      </trkpt>
      <trkpt lat="45.98951" lon="4.8287">
        <ele>253</ele>
        <time>2018-02-13T11:17:59Z</time>
      </trkpt>
      <trkpt lat="45.98958" lon="4.82854">
        <ele>252</ele>
        <time>2018-02-13T11:18:00Z</time>
      </trkpt>
      <trkpt lat="45.98964" lon="4.82839">
        <ele>252</ele>
        <time>2018-02-13T11:18:01Z</time>
      </trkpt>
      <trkpt lat="45.98971" lon="4.82824">
        <ele>249</ele>
        <time>2018-02-13T11:18:02Z</time>
      </trkpt>
      <trkpt lat="45.98978" lon="4.82807">
        <ele>248</ele>
        <time>2018-02-13T11:18:03Z</time>
      </trkpt>
      <trkpt lat="45.98986" lon="4.82791">
        <ele>247</ele>
        <time>2018-02-13T11:18:04Z</time>
      </trkpt>
      <trkpt lat="45.98992" lon="4.82774">
        <ele>246</ele>
        <time>2018-02-13T11:18:05Z</time>
      </trkpt>
      <trkpt lat="45.98999" lon="4.82758">
        <ele>243</ele>
        <time>2018-02-13T11:18:06Z</time>
      </trkpt>
      <trkpt lat="45.99008" lon="4.82742">
        <ele>240</ele>
        <time>2018-02-13T11:18:07Z</time>
      </trkpt>
      <trkpt lat="45.99014" lon="4.82726">
        <ele>239</ele>
        <time>2018-02-13T11:18:08Z</time>
      </trkpt>
      <trkpt lat="45.99022" lon="4.8271">
        <ele>238</ele>
        <time>2018-02-13T11:18:09Z</time>
      </trkpt>
      <trkpt lat="45.99027" lon="4.82695">
        <ele>238</ele>
        <time>2018-02-13T11:18:10Z</time>
      </trkpt>
      <trkpt lat="45.99034" lon="4.8268">
        <ele>238</ele>
        <time>2018-02-13T11:18:11Z</time>
      </trkpt>
      <trkpt lat="45.99039" lon="4.82665">
        <ele>236</ele>
        <time>2018-02-13T11:18:12Z</time>
      </trkpt>
      <trkpt lat="45.99046" lon="4.82651">
        <ele>236</ele>
        <time>2018-02-13T11:18:13Z</time>
      </trkpt>
      <trkpt lat="45.99051" lon="4.82639">
        <ele>236</ele>
        <time>2018-02-13T11:18:14Z</time>
      </trkpt>
      <trkpt lat="45.99056" lon="4.82626">
        <ele>236</ele>
        <time>2018-02-13T11:18:15Z</time>
      </trkpt>
      <trkpt lat="45.9906" lon="4.82615">
        <ele>236</ele>
        <time>2018-02-13T11:18:16Z</time>
      </trkpt>
      <trkpt lat="45.99064" lon="4.82606">
        <ele>236</ele>
        <time>2018-02-13T11:18:17Z</time>
      </trkpt>
      <trkpt lat="45.99067" lon="4.82598">
        <ele>235</ele>
        <time>2018-02-13T11:18:18Z</time>
      </trkpt>
      <trkpt lat="45.99071" lon="4.82592">
        <ele>235</ele>
        <time>2018-02-13T11:18:19Z</time>
      </trkpt>
      <trkpt lat="45.99074" lon="4.82586">
        <ele>235</ele>
        <time>2018-02-13T11:18:20Z</time>
      </trkpt>
      <trkpt lat="45.99076" lon="4.8258">
        <ele>235</ele>
        <time>2018-02-13T11:18:21Z</time>
      </trkpt>
      <trkpt lat="45.99072" lon="4.82572">
        <ele>235</ele>
        <time>2018-02-13T11:18:23Z</time>
      </trkpt>
      <trkpt lat="45.9907" lon="4.82569">
        <ele>235</ele>
        <time>2018-02-13T11:18:24Z</time>
      </trkpt>
      <trkpt lat="45.99061" lon="4.8257">
        <ele>235</ele>
        <time>2018-02-13T11:22:14Z</time>
      </trkpt>
      <trkpt lat="45.99061" lon="4.82569">
        <ele>235</ele>
        <time>2018-02-13T11:22:15Z</time>
      </trkpt>
      <trkpt lat="45.99054" lon="4.82562">
        <ele>235</ele>
        <time>2018-02-13T11:22:28Z</time>
      </trkpt>
      <trkpt lat="45.99052" lon="4.82561">
        <ele>235</ele>
        <time>2018-02-13T11:22:29Z</time>
      </trkpt>
      <trkpt lat="45.99044" lon="4.82557">
        <ele>235</ele>
        <time>2018-02-13T11:22:33Z</time>
      </trkpt>
      <trkpt lat="45.99042" lon="4.82557">
        <ele>235</ele>
        <time>2018-02-13T11:22:34Z</time>
      </trkpt>
      <trkpt lat="45.99034" lon="4.82551">
        <ele>235</ele>
        <time>2018-02-13T11:22:38Z</time>
      </trkpt>
      <trkpt lat="45.99032" lon="4.82549">
        <ele>235</ele>
        <time>2018-02-13T11:22:39Z</time>
      </trkpt>
      <trkpt lat="45.99025" lon="4.82541">
        <ele>235</ele>
        <time>2018-02-13T11:22:42Z</time>
      </trkpt>
      <trkpt lat="45.99022" lon="4.82538">
        <ele>235</ele>
        <time>2018-02-13T11:22:43Z</time>
      </trkpt>
      <trkpt lat="45.99017" lon="4.8253">
        <ele>235</ele>
        <time>2018-02-13T11:22:45Z</time>
      </trkpt>
      <trkpt lat="45.99014" lon="4.82526">
        <ele>235</ele>
        <time>2018-02-13T11:22:46Z</time>
      </trkpt>
      <trkpt lat="45.99009" lon="4.82517">
        <ele>235</ele>
        <time>2018-02-13T11:22:48Z</time>
      </trkpt>
      <trkpt lat="45.99007" lon="4.82513">
        <ele>235</ele>
        <time>2018-02-13T11:22:49Z</time>
      </trkpt>
      <trkpt lat="45.99002" lon="4.82503">
        <ele>235</ele>
        <time>2018-02-13T11:22:51Z</time>
      </trkpt>
      <trkpt lat="45.99" lon="4.82498">
        <ele>235</ele>
        <time>2018-02-13T11:22:52Z</time>
      </trkpt>
      <trkpt lat="45.98996" lon="4.82488">
        <ele>236</ele>
        <time>2018-02-13T11:22:54Z</time>
      </trkpt>
      <trkpt lat="45.98994" lon="4.82482">
        <ele>236</ele>
        <time>2018-02-13T11:22:55Z</time>
      </trkpt>
      <trkpt lat="45.9899" lon="4.82471">
        <ele>236</ele>
        <time>2018-02-13T11:22:57Z</time>
      </trkpt>
      <trkpt lat="45.98989" lon="4.82464">
        <ele>236</ele>
        <time>2018-02-13T11:22:58Z</time>
      </trkpt>
      <trkpt lat="45.98986" lon="4.82457">
        <ele>236</ele>
        <time>2018-02-13T11:22:59Z</time>
      </trkpt>
      <trkpt lat="45.98984" lon="4.82451">
        <ele>236</ele>
        <time>2018-02-13T11:23:00Z</time>
      </trkpt>
      <trkpt lat="45.98982" lon="4.82444">
        <ele>236</ele>
        <time>2018-02-13T11:23:01Z</time>
      </trkpt>
      <trkpt lat="45.98981" lon="4.82438">
        <ele>236</ele>
        <time>2018-02-13T11:23:02Z</time>
      </trkpt>
      <trkpt lat="45.98979" lon="4.82431">
        <ele>236</ele>
        <time>2018-02-13T11:23:03Z</time>
      </trkpt>
      <trkpt lat="45.98977" lon="4.82425">
        <ele>236</ele>
        <time>2018-02-13T11:23:04Z</time>
      </trkpt>
      <trkpt lat="45.98975" lon="4.82413">
        <ele>235</ele>
        <time>2018-02-13T11:23:06Z</time>
      </trkpt>
      <trkpt lat="45.98973" lon="4.82406">
        <ele>235</ele>
        <time>2018-02-13T11:23:07Z</time>
      </trkpt>
      <trkpt lat="45.98971" lon="4.82399">
        <ele>235</ele>
        <time>2018-02-13T11:23:08Z</time>
      </trkpt>
      <trkpt lat="45.9897" lon="4.82393">
        <ele>235</ele>
        <time>2018-02-13T11:23:09Z</time>
      </trkpt>
      <trkpt lat="45.98968" lon="4.82387">
        <ele>235</ele>
        <time>2018-02-13T11:23:10Z</time>
      </trkpt>
      <trkpt lat="45.98966" lon="4.82381">
        <ele>235</ele>
        <time>2018-02-13T11:23:11Z</time>
      </trkpt>
      <trkpt lat="45.98962" lon="4.8237">
        <ele>235</ele>
        <time>2018-02-13T11:23:13Z</time>
      </trkpt>
      <trkpt lat="45.98961" lon="4.82363">
        <ele>235</ele>
        <time>2018-02-13T11:23:14Z</time>
      </trkpt>
      <trkpt lat="45.9896" lon="4.82356">
        <ele>235</ele>
        <time>2018-02-13T11:23:15Z</time>
      </trkpt>
      <trkpt lat="45.98958" lon="4.82351">
        <ele>235</ele>
        <time>2018-02-13T11:23:16Z</time>
      </trkpt>
      <trkpt lat="45.98955" lon="4.82345">
        <ele>235</ele>
        <time>2018-02-13T11:23:17Z</time>
      </trkpt>
      <trkpt lat="45.98953" lon="4.82339">
        <ele>235</ele>
        <time>2018-02-13T11:23:18Z</time>
      </trkpt>
      <trkpt lat="45.9895" lon="4.82334">
        <ele>235</ele>
        <time>2018-02-13T11:23:19Z</time>
      </trkpt>
      <trkpt lat="45.98947" lon="4.82328">
        <ele>234</ele>
        <time>2018-02-13T11:23:20Z</time>
      </trkpt>
      <trkpt lat="45.98944" lon="4.82323">
        <ele>234</ele>
        <time>2018-02-13T11:23:21Z</time>
      </trkpt>
      <trkpt lat="45.98941" lon="4.82318">
        <ele>234</ele>
        <time>2018-02-13T11:23:22Z</time>
      </trkpt>
      <trkpt lat="45.98937" lon="4.82314">
        <ele>234</ele>
        <time>2018-02-13T11:23:23Z</time>
      </trkpt>
      <trkpt lat="45.98934" lon="4.82309">
        <ele>234</ele>
        <time>2018-02-13T11:23:24Z</time>
      </trkpt>
      <trkpt lat="45.9893" lon="4.82305">
        <ele>234</ele>
        <time>2018-02-13T11:23:25Z</time>
      </trkpt>
      <trkpt lat="45.98926" lon="4.82302">
        <ele>234</ele>
        <time>2018-02-13T11:23:26Z</time>
      </trkpt>
      <trkpt lat="45.98919" lon="4.82294">
        <ele>234</ele>
        <time>2018-02-13T11:23:28Z</time>
      </trkpt>
      <trkpt lat="45.98915" lon="4.8229">
        <ele>236</ele>
        <time>2018-02-13T11:23:29Z</time>
      </trkpt>
      <trkpt lat="45.98908" lon="4.82282">
        <ele>236</ele>
        <time>2018-02-13T11:23:31Z</time>
      </trkpt>
      <trkpt lat="45.98905" lon="4.82278">
        <ele>236</ele>
        <time>2018-02-13T11:23:32Z</time>
      </trkpt>
      <trkpt lat="45.98901" lon="4.82273">
        <ele>236</ele>
        <time>2018-02-13T11:23:33Z</time>
      </trkpt>
      <trkpt lat="45.98898" lon="4.82268">
        <ele>236</ele>
        <time>2018-02-13T11:23:34Z</time>
      </trkpt>
      <trkpt lat="45.98894" lon="4.82263">
        <ele>236</ele>
        <time>2018-02-13T11:23:35Z</time>
      </trkpt>
      <trkpt lat="45.98892" lon="4.82258">
        <ele>236</ele>
        <time>2018-02-13T11:23:36Z</time>
      </trkpt>
      <trkpt lat="45.98889" lon="4.82253">
        <ele>236</ele>
        <time>2018-02-13T11:23:37Z</time>
      </trkpt>
      <trkpt lat="45.98887" lon="4.82246">
        <ele>235</ele>
        <time>2018-02-13T11:23:38Z</time>
      </trkpt>
      <trkpt lat="45.98884" lon="4.82241">
        <ele>236</ele>
        <time>2018-02-13T11:23:39Z</time>
      </trkpt>
      <trkpt lat="45.98882" lon="4.82235">
        <ele>236</ele>
        <time>2018-02-13T11:23:40Z</time>
      </trkpt>
      <trkpt lat="45.98879" lon="4.8223">
        <ele>236</ele>
        <time>2018-02-13T11:23:41Z</time>
      </trkpt>
      <trkpt lat="45.98876" lon="4.82224">
        <ele>236</ele>
        <time>2018-02-13T11:23:42Z</time>
      </trkpt>
      <trkpt lat="45.98874" lon="4.82219">
        <ele>236</ele>
        <time>2018-02-13T11:23:43Z</time>
      </trkpt>
      <trkpt lat="45.98871" lon="4.82213">
        <ele>236</ele>
        <time>2018-02-13T11:23:44Z</time>
      </trkpt>
      <trkpt lat="45.98869" lon="4.82207">
        <ele>236</ele>
        <time>2018-02-13T11:23:45Z</time>
      </trkpt>
      <trkpt lat="45.98866" lon="4.82201">
        <ele>236</ele>
        <time>2018-02-13T11:23:46Z</time>
      </trkpt>
      <trkpt lat="45.98863" lon="4.82194">
        <ele>236</ele>
        <time>2018-02-13T11:23:47Z</time>
      </trkpt>
      <trkpt lat="45.98861" lon="4.82189">
        <ele>236</ele>
        <time>2018-02-13T11:23:48Z</time>
      </trkpt>
      <trkpt lat="45.98858" lon="4.82182">
        <ele>236</ele>
        <time>2018-02-13T11:23:49Z</time>
      </trkpt>
      <trkpt lat="45.98856" lon="4.82177">
        <ele>236</ele>
        <time>2018-02-13T11:23:50Z</time>
      </trkpt>
      <trkpt lat="45.98854" lon="4.8217">
        <ele>236</ele>
        <time>2018-02-13T11:23:51Z</time>
      </trkpt>
      <trkpt lat="45.98852" lon="4.82165">
        <ele>236</ele>
        <time>2018-02-13T11:23:52Z</time>
      </trkpt>
      <trkpt lat="45.98849" lon="4.82153">
        <ele>236</ele>
        <time>2018-02-13T11:23:54Z</time>
      </trkpt>
      <trkpt lat="45.98847" lon="4.82146">
        <ele>236</ele>
        <time>2018-02-13T11:23:55Z</time>
      </trkpt>
      <trkpt lat="45.98843" lon="4.82135">
        <ele>236</ele>
        <time>2018-02-13T11:23:57Z</time>
      </trkpt>
      <trkpt lat="45.98842" lon="4.82128">
        <ele>236</ele>
        <time>2018-02-13T11:23:58Z</time>
      </trkpt>
      <trkpt lat="45.9884" lon="4.82122">
        <ele>235</ele>
        <time>2018-02-13T11:23:59Z</time>
      </trkpt>
      <trkpt lat="45.98839" lon="4.82116">
        <ele>235</ele>
        <time>2018-02-13T11:24:00Z</time>
      </trkpt>
      <trkpt lat="45.98838" lon="4.82109">
        <ele>235</ele>
        <time>2018-02-13T11:24:01Z</time>
      </trkpt>
      <trkpt lat="45.98837" lon="4.82102">
        <ele>236</ele>
        <time>2018-02-13T11:24:02Z</time>
      </trkpt>
      <trkpt lat="45.98835" lon="4.8209">
        <ele>236</ele>
        <time>2018-02-13T11:24:04Z</time>
      </trkpt>
      <trkpt lat="45.98834" lon="4.82082">
        <ele>236</ele>
        <time>2018-02-13T11:24:05Z</time>
      </trkpt>
      <trkpt lat="45.98832" lon="4.82076">
        <ele>237</ele>
        <time>2018-02-13T11:24:06Z</time>
      </trkpt>
      <trkpt lat="45.98832" lon="4.82069">
        <ele>237</ele>
        <time>2018-02-13T11:24:07Z</time>
      </trkpt>
      <trkpt lat="45.98831" lon="4.82062">
        <ele>237</ele>
        <time>2018-02-13T11:24:08Z</time>
      </trkpt>
      <trkpt lat="45.9883" lon="4.82055">
        <ele>237</ele>
        <time>2018-02-13T11:24:09Z</time>
      </trkpt>
      <trkpt lat="45.98829" lon="4.82048">
        <ele>238</ele>
        <time>2018-02-13T11:24:10Z</time>
      </trkpt>
      <trkpt lat="45.98828" lon="4.82041">
        <ele>238</ele>
        <time>2018-02-13T11:24:11Z</time>
      </trkpt>
      <trkpt lat="45.98827" lon="4.82034">
        <ele>238</ele>
        <time>2018-02-13T11:24:12Z</time>
      </trkpt>
      <trkpt lat="45.98826" lon="4.82027">
        <ele>238</ele>
        <time>2018-02-13T11:24:13Z</time>
      </trkpt>
      <trkpt lat="45.98824" lon="4.82021">
        <ele>238</ele>
        <time>2018-02-13T11:24:14Z</time>
      </trkpt>
      <trkpt lat="45.98823" lon="4.82014">
        <ele>238</ele>
        <time>2018-02-13T11:24:15Z</time>
      </trkpt>
      <trkpt lat="45.98821" lon="4.82007">
        <ele>238</ele>
        <time>2018-02-13T11:24:16Z</time>
      </trkpt>
      <trkpt lat="45.9882" lon="4.82">
        <ele>238</ele>
        <time>2018-02-13T11:24:17Z</time>
      </trkpt>
      <trkpt lat="45.98819" lon="4.81993">
        <ele>238</ele>
        <time>2018-02-13T11:24:18Z</time>
      </trkpt>
      <trkpt lat="45.98819" lon="4.81987">
        <ele>238</ele>
        <time>2018-02-13T11:24:19Z</time>
      </trkpt>
      <trkpt lat="45.98818" lon="4.8198">
        <ele>239</ele>
        <time>2018-02-13T11:24:20Z</time>
      </trkpt>
      <trkpt lat="45.98817" lon="4.81973">
        <ele>239</ele>
        <time>2018-02-13T11:24:21Z</time>
      </trkpt>
      <trkpt lat="45.98816" lon="4.81967">
        <ele>239</ele>
        <time>2018-02-13T11:24:22Z</time>
      </trkpt>
      <trkpt lat="45.98816" lon="4.8196">
        <ele>239</ele>
        <time>2018-02-13T11:24:23Z</time>
      </trkpt>
      <trkpt lat="45.98815" lon="4.81952">
        <ele>239</ele>
        <time>2018-02-13T11:24:24Z</time>
      </trkpt>
      <trkpt lat="45.98814" lon="4.81945">
        <ele>239</ele>
        <time>2018-02-13T11:24:25Z</time>
      </trkpt>
      <trkpt lat="45.98813" lon="4.81938">
        <ele>239</ele>
        <time>2018-02-13T11:24:26Z</time>
      </trkpt>
      <trkpt lat="45.98812" lon="4.81931">
        <ele>239</ele>
        <time>2018-02-13T11:24:27Z</time>
      </trkpt>
      <trkpt lat="45.9881" lon="4.81924">
        <ele>239</ele>
        <time>2018-02-13T11:24:28Z</time>
      </trkpt>
      <trkpt lat="45.98809" lon="4.81916">
        <ele>239</ele>
        <time>2018-02-13T11:24:29Z</time>
      </trkpt>
      <trkpt lat="45.98808" lon="4.81909">
        <ele>239</ele>
        <time>2018-02-13T11:24:30Z</time>
      </trkpt>
      <trkpt lat="45.98805" lon="4.81901">
        <ele>239</ele>
        <time>2018-02-13T11:24:31Z</time>
      </trkpt>
      <trkpt lat="45.98804" lon="4.81895">
        <ele>239</ele>
        <time>2018-02-13T11:24:32Z</time>
      </trkpt>
      <trkpt lat="45.98802" lon="4.81887">
        <ele>239</ele>
        <time>2018-02-13T11:24:33Z</time>
      </trkpt>
      <trkpt lat="45.988" lon="4.8188">
        <ele>239</ele>
        <time>2018-02-13T11:24:34Z</time>
      </trkpt>
      <trkpt lat="45.98798" lon="4.81874">
        <ele>239</ele>
        <time>2018-02-13T11:24:35Z</time>
      </trkpt>
      <trkpt lat="45.98796" lon="4.81867">
        <ele>239</ele>
        <time>2018-02-13T11:24:36Z</time>
      </trkpt>
      <trkpt lat="45.98793" lon="4.81862">
        <ele>239</ele>
        <time>2018-02-13T11:24:37Z</time>
      </trkpt>
      <trkpt lat="45.98789" lon="4.81851">
        <ele>239</ele>
        <time>2018-02-13T11:24:39Z</time>
      </trkpt>
      <trkpt lat="45.98787" lon="4.81845">
        <ele>239</ele>
        <time>2018-02-13T11:24:40Z</time>
      </trkpt>
      <trkpt lat="45.98785" lon="4.81839">
        <ele>239</ele>
        <time>2018-02-13T11:24:41Z</time>
      </trkpt>
      <trkpt lat="45.98783" lon="4.81833">
        <ele>240</ele>
        <time>2018-02-13T11:24:42Z</time>
      </trkpt>
      <trkpt lat="45.98779" lon="4.81827">
        <ele>240</ele>
        <time>2018-02-13T11:24:43Z</time>
      </trkpt>
      <trkpt lat="45.98777" lon="4.81822">
        <ele>240</ele>
        <time>2018-02-13T11:24:44Z</time>
      </trkpt>
      <trkpt lat="45.98775" lon="4.81816">
        <ele>240</ele>
        <time>2018-02-13T11:24:45Z</time>
      </trkpt>
      <trkpt lat="45.98772" lon="4.8181">
        <ele>240</ele>
        <time>2018-02-13T11:24:46Z</time>
      </trkpt>
      <trkpt lat="45.98767" lon="4.81802">
        <ele>240</ele>
        <time>2018-02-13T11:24:48Z</time>
      </trkpt>
      <trkpt lat="45.98764" lon="4.81797">
        <ele>240</ele>
        <time>2018-02-13T11:24:49Z</time>
      </trkpt>
      <trkpt lat="45.9876" lon="4.81787">
        <ele>241</ele>
        <time>2018-02-13T11:24:51Z</time>
      </trkpt>
      <trkpt lat="45.98758" lon="4.81783">
        <ele>241</ele>
        <time>2018-02-13T11:24:52Z</time>
      </trkpt>
      <trkpt lat="45.98753" lon="4.81776">
        <ele>241</ele>
        <time>2018-02-13T11:24:54Z</time>
      </trkpt>
      <trkpt lat="45.9875" lon="4.81771">
        <ele>240</ele>
        <time>2018-02-13T11:24:55Z</time>
      </trkpt>
      <trkpt lat="45.98745" lon="4.81761">
        <ele>240</ele>
        <time>2018-02-13T11:24:57Z</time>
      </trkpt>
      <trkpt lat="45.98743" lon="4.81756">
        <ele>240</ele>
        <time>2018-02-13T11:24:58Z</time>
      </trkpt>
      <trkpt lat="45.98741" lon="4.81751">
        <ele>240</ele>
        <time>2018-02-13T11:24:59Z</time>
      </trkpt>
      <trkpt lat="45.98738" lon="4.81745">
        <ele>240</ele>
        <time>2018-02-13T11:25:00Z</time>
      </trkpt>
      <trkpt lat="45.98732" lon="4.81738">
        <ele>240</ele>
        <time>2018-02-13T11:25:02Z</time>
      </trkpt>
      <trkpt lat="45.98729" lon="4.81733">
        <ele>239</ele>
        <time>2018-02-13T11:25:03Z</time>
      </trkpt>
      <trkpt lat="45.98725" lon="4.8173">
        <ele>239</ele>
        <time>2018-02-13T11:25:04Z</time>
      </trkpt>
      <trkpt lat="45.9872" lon="4.8173">
        <ele>239</ele>
        <time>2018-02-13T11:25:05Z</time>
      </trkpt>
      <trkpt lat="45.98711" lon="4.81728">
        <ele>239</ele>
        <time>2018-02-13T11:25:07Z</time>
      </trkpt>
      <trkpt lat="45.98707" lon="4.81729">
        <ele>239</ele>
        <time>2018-02-13T11:25:08Z</time>
      </trkpt>
      <trkpt lat="45.98702" lon="4.81731">
        <ele>239</ele>
        <time>2018-02-13T11:25:09Z</time>
      </trkpt>
      <trkpt lat="45.98698" lon="4.81732">
        <ele>239</ele>
        <time>2018-02-13T11:25:10Z</time>
      </trkpt>
      <trkpt lat="45.9869" lon="4.81734">
        <ele>238</ele>
        <time>2018-02-13T11:25:12Z</time>
      </trkpt>
      <trkpt lat="45.98686" lon="4.81735">
        <ele>238</ele>
        <time>2018-02-13T11:25:13Z</time>
      </trkpt>
      <trkpt lat="45.98683" lon="4.81738">
        <ele>238</ele>
        <time>2018-02-13T11:25:15Z</time>
      </trkpt>
      <trkpt lat="45.98674" lon="4.81739">
        <ele>238</ele>
        <time>2018-02-13T11:25:16Z</time>
      </trkpt>
      <trkpt lat="45.98669" lon="4.81739">
        <ele>238</ele>
        <time>2018-02-13T11:25:17Z</time>
      </trkpt>
      <trkpt lat="45.98664" lon="4.81741">
        <ele>238</ele>
        <time>2018-02-13T11:25:18Z</time>
      </trkpt>
      <trkpt lat="45.98656" lon="4.81743">
        <ele>237</ele>
        <time>2018-02-13T11:25:20Z</time>
      </trkpt>
      <trkpt lat="45.98652" lon="4.81744">
        <ele>237</ele>
        <time>2018-02-13T11:25:21Z</time>
      </trkpt>
      <trkpt lat="45.98646" lon="4.81745">
        <ele>237</ele>
        <time>2018-02-13T11:25:22Z</time>
      </trkpt>
      <trkpt lat="45.98642" lon="4.81746">
        <ele>237</ele>
        <time>2018-02-13T11:25:23Z</time>
      </trkpt>
      <trkpt lat="45.98634" lon="4.81748">
        <ele>237</ele>
        <time>2018-02-13T11:25:25Z</time>
      </trkpt>
      <trkpt lat="45.9863" lon="4.8175">
        <ele>237</ele>
        <time>2018-02-13T11:25:26Z</time>
      </trkpt>
      <trkpt lat="45.98626" lon="4.81752">
        <ele>238</ele>
        <time>2018-02-13T11:25:27Z</time>
      </trkpt>
      <trkpt lat="45.9862" lon="4.81752">
        <ele>238</ele>
        <time>2018-02-13T11:25:28Z</time>
      </trkpt>
      <trkpt lat="45.98615" lon="4.81753">
        <ele>238</ele>
        <time>2018-02-13T11:25:29Z</time>
      </trkpt>
      <trkpt lat="45.9861" lon="4.81756">
        <ele>238</ele>
        <time>2018-02-13T11:25:30Z</time>
      </trkpt>
      <trkpt lat="45.98601" lon="4.8176">
        <ele>238</ele>
        <time>2018-02-13T11:25:32Z</time>
      </trkpt>
      <trkpt lat="45.98596" lon="4.81763">
        <ele>238</ele>
        <time>2018-02-13T11:25:33Z</time>
      </trkpt>
      <trkpt lat="45.98591" lon="4.81768">
        <ele>238</ele>
        <time>2018-02-13T11:25:34Z</time>
      </trkpt>
      <trkpt lat="45.98587" lon="4.81772">
        <ele>238</ele>
        <time>2018-02-13T11:25:35Z</time>
      </trkpt>
      <trkpt lat="45.98582" lon="4.81775">
        <ele>237</ele>
        <time>2018-02-13T11:25:36Z</time>
      </trkpt>
      <trkpt lat="45.98579" lon="4.8178">
        <ele>238</ele>
        <time>2018-02-13T11:25:37Z</time>
      </trkpt>
      <trkpt lat="45.98575" lon="4.81785">
        <ele>238</ele>
        <time>2018-02-13T11:25:38Z</time>
      </trkpt>
      <trkpt lat="45.98572" lon="4.8179">
        <ele>238</ele>
        <time>2018-02-13T11:25:39Z</time>
      </trkpt>
      <trkpt lat="45.98568" lon="4.81795">
        <ele>238</ele>
        <time>2018-02-13T11:25:40Z</time>
      </trkpt>
      <trkpt lat="45.98564" lon="4.81798">
        <ele>238</ele>
        <time>2018-02-13T11:25:41Z</time>
      </trkpt>
      <trkpt lat="45.98559" lon="4.81802">
        <ele>238</ele>
        <time>2018-02-13T11:25:42Z</time>
      </trkpt>
      <trkpt lat="45.98554" lon="4.81804">
        <ele>238</ele>
        <time>2018-02-13T11:25:43Z</time>
      </trkpt>
      <trkpt lat="45.98548" lon="4.81804">
        <ele>238</ele>
        <time>2018-02-13T11:25:44Z</time>
      </trkpt>
      <trkpt lat="45.98543" lon="4.81802">
        <ele>238</ele>
        <time>2018-02-13T11:25:45Z</time>
      </trkpt>
      <trkpt lat="45.98538" lon="4.81799">
        <ele>238</ele>
        <time>2018-02-13T11:25:46Z</time>
      </trkpt>
      <trkpt lat="45.98534" lon="4.81796">
        <ele>238</ele>
        <time>2018-02-13T11:25:47Z</time>
      </trkpt>
      <trkpt lat="45.9853" lon="4.81792">
        <ele>238</ele>
        <time>2018-02-13T11:25:48Z</time>
      </trkpt>
      <trkpt lat="45.98527" lon="4.81787">
        <ele>238</ele>
        <time>2018-02-13T11:25:49Z</time>
      </trkpt>
      <trkpt lat="45.98523" lon="4.81781">
        <ele>238</ele>
        <time>2018-02-13T11:25:50Z</time>
      </trkpt>
      <trkpt lat="45.98519" lon="4.81776">
        <ele>238</ele>
        <time>2018-02-13T11:25:51Z</time>
      </trkpt>
      <trkpt lat="45.98513" lon="4.81767">
        <ele>237</ele>
        <time>2018-02-13T11:25:53Z</time>
      </trkpt>
      <trkpt lat="45.98509" lon="4.81763">
        <ele>237</ele>
        <time>2018-02-13T11:25:54Z</time>
      </trkpt>
      <trkpt lat="45.98503" lon="4.81753">
        <ele>237</ele>
        <time>2018-02-13T11:25:56Z</time>
      </trkpt>
      <trkpt lat="45.985" lon="4.81749">
        <ele>237</ele>
        <time>2018-02-13T11:25:57Z</time>
      </trkpt>
      <trkpt lat="45.98494" lon="4.81742">
        <ele>238</ele>
        <time>2018-02-13T11:25:59Z</time>
      </trkpt>
      <trkpt lat="45.9849" lon="4.81739">
        <ele>238</ele>
        <time>2018-02-13T11:26:00Z</time>
      </trkpt>
      <trkpt lat="45.98484" lon="4.81735">
        <ele>238</ele>
        <time>2018-02-13T11:26:02Z</time>
      </trkpt>
      <trkpt lat="45.98481" lon="4.81731">
        <ele>238</ele>
        <time>2018-02-13T11:26:03Z</time>
      </trkpt>
      <trkpt lat="45.98475" lon="4.81725">
        <ele>239</ele>
        <time>2018-02-13T11:26:05Z</time>
      </trkpt>
      <trkpt lat="45.98472" lon="4.81723">
        <ele>239</ele>
        <time>2018-02-13T11:26:06Z</time>
      </trkpt>
      <trkpt lat="45.98467" lon="4.81717">
        <ele>239</ele>
        <time>2018-02-13T11:26:08Z</time>
      </trkpt>
      <trkpt lat="45.98465" lon="4.81714">
        <ele>239</ele>
        <time>2018-02-13T11:26:09Z</time>
      </trkpt>
      <trkpt lat="45.9846" lon="4.81705">
        <ele>239</ele>
        <time>2018-02-13T11:26:12Z</time>
      </trkpt>
      <trkpt lat="45.98458" lon="4.81703">
        <ele>239</ele>
        <time>2018-02-13T11:26:13Z</time>
      </trkpt>
      <trkpt lat="45.98452" lon="4.81694">
        <ele>239</ele>
        <time>2018-02-13T11:26:16Z</time>
      </trkpt>
      <trkpt lat="45.9845" lon="4.8169">
        <ele>239</ele>
        <time>2018-02-13T11:26:17Z</time>
      </trkpt>
      <trkpt lat="45.98448" lon="4.81682">
        <ele>239</ele>
        <time>2018-02-13T11:26:19Z</time>
      </trkpt>
      <trkpt lat="45.98446" lon="4.81678">
        <ele>239</ele>
        <time>2018-02-13T11:26:20Z</time>
      </trkpt>
      <trkpt lat="45.98441" lon="4.81671">
        <ele>240</ele>
        <time>2018-02-13T11:26:22Z</time>
      </trkpt>
      <trkpt lat="45.98438" lon="4.81668">
        <ele>240</ele>
        <time>2018-02-13T11:26:23Z</time>
      </trkpt>
      <trkpt lat="45.98431" lon="4.81663">
        <ele>239</ele>
        <time>2018-02-13T11:26:25Z</time>
      </trkpt>
      <trkpt lat="45.98427" lon="4.81661">
        <ele>239</ele>
        <time>2018-02-13T11:26:26Z</time>
      </trkpt>
      <trkpt lat="45.98419" lon="4.81658">
        <ele>240</ele>
        <time>2018-02-13T11:26:28Z</time>
      </trkpt>
      <trkpt lat="45.98415" lon="4.81658">
        <ele>241</ele>
        <time>2018-02-13T11:26:29Z</time>
      </trkpt>
      <trkpt lat="45.98407" lon="4.81659">
        <ele>241</ele>
        <time>2018-02-13T11:26:31Z</time>
      </trkpt>
      <trkpt lat="45.98403" lon="4.8166">
        <ele>242</ele>
        <time>2018-02-13T11:26:32Z</time>
      </trkpt>
      <trkpt lat="45.98395" lon="4.81662">
        <ele>242</ele>
        <time>2018-02-13T11:26:34Z</time>
      </trkpt>
      <trkpt lat="45.98392" lon="4.81663">
        <ele>242</ele>
        <time>2018-02-13T11:26:35Z</time>
      </trkpt>
      <trkpt lat="45.98384" lon="4.81665">
        <ele>242</ele>
        <time>2018-02-13T11:26:37Z</time>
      </trkpt>
      <trkpt lat="45.9838" lon="4.81666">
        <ele>242</ele>
        <time>2018-02-13T11:26:38Z</time>
      </trkpt>
      <trkpt lat="45.98372" lon="4.81667">
        <ele>244</ele>
        <time>2018-02-13T11:26:40Z</time>
      </trkpt>
      <trkpt lat="45.98368" lon="4.81668">
        <ele>244</ele>
        <time>2018-02-13T11:26:41Z</time>
      </trkpt>
      <trkpt lat="45.9836" lon="4.81671">
        <ele>244</ele>
        <time>2018-02-13T11:26:43Z</time>
      </trkpt>
      <trkpt lat="45.98357" lon="4.81672">
        <ele>245</ele>
        <time>2018-02-13T11:26:44Z</time>
      </trkpt>
      <trkpt lat="45.98349" lon="4.81671">
        <ele>245</ele>
        <time>2018-02-13T11:26:46Z</time>
      </trkpt>
      <trkpt lat="45.98346" lon="4.8167">
        <ele>245</ele>
        <time>2018-02-13T11:26:47Z</time>
      </trkpt>
      <trkpt lat="45.98338" lon="4.81667">
        <ele>246</ele>
        <time>2018-02-13T11:26:49Z</time>
      </trkpt>
      <trkpt lat="45.98335" lon="4.81665">
        <ele>246</ele>
        <time>2018-02-13T11:26:50Z</time>
      </trkpt>
      <trkpt lat="45.98329" lon="4.81662">
        <ele>246</ele>
        <time>2018-02-13T11:26:52Z</time>
      </trkpt>
      <trkpt lat="45.98325" lon="4.8166">
        <ele>246</ele>
        <time>2018-02-13T11:26:53Z</time>
      </trkpt>
      <trkpt lat="45.98318" lon="4.81657">
        <ele>246</ele>
        <time>2018-02-13T11:26:55Z</time>
      </trkpt>
      <trkpt lat="45.98315" lon="4.81654">
        <ele>246</ele>
        <time>2018-02-13T11:26:56Z</time>
      </trkpt>
      <trkpt lat="45.98308" lon="4.81647">
        <ele>246</ele>
        <time>2018-02-13T11:26:58Z</time>
      </trkpt>
      <trkpt lat="45.98305" lon="4.81644">
        <ele>246</ele>
        <time>2018-02-13T11:26:59Z</time>
      </trkpt>
      <trkpt lat="45.98298" lon="4.81637">
        <ele>247</ele>
        <time>2018-02-13T11:27:01Z</time>
      </trkpt>
      <trkpt lat="45.98295" lon="4.81633">
        <ele>247</ele>
        <time>2018-02-13T11:27:02Z</time>
      </trkpt>
      <trkpt lat="45.98289" lon="4.81626">
        <ele>247</ele>
        <time>2018-02-13T11:27:04Z</time>
      </trkpt>
      <trkpt lat="45.98286" lon="4.81622">
        <ele>247</ele>
        <time>2018-02-13T11:27:05Z</time>
      </trkpt>
      <trkpt lat="45.98282" lon="4.81613">
        <ele>247</ele>
        <time>2018-02-13T11:27:07Z</time>
      </trkpt>
      <trkpt lat="45.9828" lon="4.81609">
        <ele>247</ele>
        <time>2018-02-13T11:27:08Z</time>
      </trkpt>
      <trkpt lat="45.98275" lon="4.816">
        <ele>247</ele>
        <time>2018-02-13T11:27:10Z</time>
      </trkpt>
      <trkpt lat="45.98273" lon="4.81595">
        <ele>247</ele>
        <time>2018-02-13T11:27:11Z</time>
      </trkpt>
      <trkpt lat="45.9827" lon="4.81585">
        <ele>247</ele>
        <time>2018-02-13T11:27:13Z</time>
      </trkpt>
      <trkpt lat="45.98268" lon="4.8158">
        <ele>247</ele>
        <time>2018-02-13T11:27:14Z</time>
      </trkpt>
      <trkpt lat="45.98266" lon="4.8157">
        <ele>247</ele>
        <time>2018-02-13T11:27:16Z</time>
      </trkpt>
      <trkpt lat="45.98264" lon="4.81564">
        <ele>247</ele>
        <time>2018-02-13T11:27:17Z</time>
      </trkpt>
      <trkpt lat="45.98261" lon="4.81554">
        <ele>247</ele>
        <time>2018-02-13T11:27:19Z</time>
      </trkpt>
      <trkpt lat="45.98259" lon="4.81549">
        <ele>247</ele>
        <time>2018-02-13T11:27:20Z</time>
      </trkpt>
      <trkpt lat="45.98255" lon="4.81539">
        <ele>247</ele>
        <time>2018-02-13T11:27:22Z</time>
      </trkpt>
      <trkpt lat="45.98254" lon="4.81533">
        <ele>247</ele>
        <time>2018-02-13T11:27:23Z</time>
      </trkpt>
      <trkpt lat="45.9825" lon="4.81522">
        <ele>249</ele>
        <time>2018-02-13T11:27:25Z</time>
      </trkpt>
      <trkpt lat="45.98248" lon="4.81517">
        <ele>249</ele>
        <time>2018-02-13T11:27:26Z</time>
      </trkpt>
      <trkpt lat="45.98244" lon="4.81505">
        <ele>249</ele>
        <time>2018-02-13T11:27:28Z</time>
      </trkpt>
      <trkpt lat="45.98243" lon="4.815">
        <ele>249</ele>
        <time>2018-02-13T11:27:29Z</time>
      </trkpt>
      <trkpt lat="45.98239" lon="4.81489">
        <ele>249</ele>
        <time>2018-02-13T11:27:31Z</time>
      </trkpt>
      <trkpt lat="45.98237" lon="4.81484">
        <ele>249</ele>
        <time>2018-02-13T11:27:32Z</time>
      </trkpt>
      <trkpt lat="45.98233" lon="4.81473">
        <ele>249</ele>
        <time>2018-02-13T11:27:34Z</time>
      </trkpt>
      <trkpt lat="45.98232" lon="4.81468">
        <ele>249</ele>
        <time>2018-02-13T11:27:35Z</time>
      </trkpt>
      <trkpt lat="45.98228" lon="4.81456">
        <ele>249</ele>
        <time>2018-02-13T11:27:37Z</time>
      </trkpt>
      <trkpt lat="45.98226" lon="4.81451">
        <ele>249</ele>
        <time>2018-02-13T11:27:38Z</time>
      </trkpt>
      <trkpt lat="45.98224" lon="4.81445">
        <ele>249</ele>
        <time>2018-02-13T11:27:39Z</time>
      </trkpt>
      <trkpt lat="45.98223" lon="4.81439">
        <ele>249</ele>
        <time>2018-02-13T11:27:40Z</time>
      </trkpt>
      <trkpt lat="45.9822" lon="4.81433">
        <ele>249</ele>
        <time>2018-02-13T11:27:41Z</time>
      </trkpt>
      <trkpt lat="45.98218" lon="4.81427">
        <ele>249</ele>
        <time>2018-02-13T11:27:42Z</time>
      </trkpt>
      <trkpt lat="45.98216" lon="4.8142">
        <ele>249</ele>
        <time>2018-02-13T11:27:43Z</time>
      </trkpt>
      <trkpt lat="45.98213" lon="4.81413">
        <ele>248</ele>
        <time>2018-02-13T11:27:44Z</time>
      </trkpt>
      <trkpt lat="45.9821" lon="4.81406">
        <ele>248</ele>
        <time>2018-02-13T11:27:45Z</time>
      </trkpt>
      <trkpt lat="45.98207" lon="4.81399">
        <ele>248</ele>
        <time>2018-02-13T11:27:46Z</time>
      </trkpt>
      <trkpt lat="45.98205" lon="4.81392">
        <ele>248</ele>
        <time>2018-02-13T11:27:47Z</time>
      </trkpt>
      <trkpt lat="45.98203" lon="4.81385">
        <ele>248</ele>
        <time>2018-02-13T11:27:48Z</time>
      </trkpt>
      <trkpt lat="45.98201" lon="4.81378">
        <ele>248</ele>
        <time>2018-02-13T11:27:49Z</time>
      </trkpt>
      <trkpt lat="45.982" lon="4.8137">
        <ele>248</ele>
        <time>2018-02-13T11:27:50Z</time>
      </trkpt>
      <trkpt lat="45.98198" lon="4.81362">
        <ele>248</ele>
        <time>2018-02-13T11:27:51Z</time>
      </trkpt>
      <trkpt lat="45.98197" lon="4.81355">
        <ele>248</ele>
        <time>2018-02-13T11:27:52Z</time>
      </trkpt>
      <trkpt lat="45.98195" lon="4.81347">
        <ele>248</ele>
        <time>2018-02-13T11:27:53Z</time>
      </trkpt>
      <trkpt lat="45.98193" lon="4.81339">
        <ele>248</ele>
        <time>2018-02-13T11:27:54Z</time>
      </trkpt>
      <trkpt lat="45.9819" lon="4.81331">
        <ele>247</ele>
        <time>2018-02-13T11:27:55Z</time>
      </trkpt>
      <trkpt lat="45.98189" lon="4.81322">
        <ele>247</ele>
        <time>2018-02-13T11:27:56Z</time>
      </trkpt>
      <trkpt lat="45.98187" lon="4.81312">
        <ele>247</ele>
        <time>2018-02-13T11:27:57Z</time>
      </trkpt>
      <trkpt lat="45.98185" lon="4.81303">
        <ele>247</ele>
        <time>2018-02-13T11:27:58Z</time>
      </trkpt>
      <trkpt lat="45.98184" lon="4.81296">
        <ele>247</ele>
        <time>2018-02-13T11:27:59Z</time>
      </trkpt>
      <trkpt lat="45.98182" lon="4.81288">
        <ele>247</ele>
        <time>2018-02-13T11:28:00Z</time>
      </trkpt>
      <trkpt lat="45.98181" lon="4.8128">
        <ele>247</ele>
        <time>2018-02-13T11:28:01Z</time>
      </trkpt>
      <trkpt lat="45.98179" lon="4.81272">
        <ele>247</ele>
        <time>2018-02-13T11:28:02Z</time>
      </trkpt>
      <trkpt lat="45.98178" lon="4.81264">
        <ele>247</ele>
        <time>2018-02-13T11:28:03Z</time>
      </trkpt>
      <trkpt lat="45.98177" lon="4.81256">
        <ele>247</ele>
        <time>2018-02-13T11:28:04Z</time>
      </trkpt>
      <trkpt lat="45.98175" lon="4.81247">
        <ele>247</ele>
        <time>2018-02-13T11:28:05Z</time>
      </trkpt>
      <trkpt lat="45.98174" lon="4.81239">
        <ele>247</ele>
        <time>2018-02-13T11:28:06Z</time>
      </trkpt>
      <trkpt lat="45.98173" lon="4.81231">
        <ele>246</ele>
        <time>2018-02-13T11:28:07Z</time>
      </trkpt>
      <trkpt lat="45.98172" lon="4.81223">
        <ele>246</ele>
        <time>2018-02-13T11:28:08Z</time>
      </trkpt>
      <trkpt lat="45.98171" lon="4.81215">
        <ele>246</ele>
        <time>2018-02-13T11:28:09Z</time>
      </trkpt>
      <trkpt lat="45.9817" lon="4.81207">
        <ele>246</ele>
        <time>2018-02-13T11:28:10Z</time>
      </trkpt>
      <trkpt lat="45.98171" lon="4.81197">
        <ele>245</ele>
        <time>2018-02-13T11:28:11Z</time>
      </trkpt>
      <trkpt lat="45.98169" lon="4.81189">
        <ele>245</ele>
        <time>2018-02-13T11:28:12Z</time>
      </trkpt>
      <trkpt lat="45.98169" lon="4.81181">
        <ele>245</ele>
        <time>2018-02-13T11:28:13Z</time>
      </trkpt>
      <trkpt lat="45.98167" lon="4.81173">
        <ele>245</ele>
        <time>2018-02-13T11:28:14Z</time>
      </trkpt>
      <trkpt lat="45.98165" lon="4.81165">
        <ele>245</ele>
        <time>2018-02-13T11:28:15Z</time>
      </trkpt>
      <trkpt lat="45.98162" lon="4.81156">
        <ele>245</ele>
        <time>2018-02-13T11:28:16Z</time>
      </trkpt>
      <trkpt lat="45.9816" lon="4.81149">
        <ele>245</ele>
        <time>2018-02-13T11:28:17Z</time>
      </trkpt>
      <trkpt lat="45.98157" lon="4.81142">
        <ele>245</ele>
        <time>2018-02-13T11:28:18Z</time>
      </trkpt>
      <trkpt lat="45.98154" lon="4.81135">
        <ele>245</ele>
        <time>2018-02-13T11:28:19Z</time>
      </trkpt>
      <trkpt lat="45.9815" lon="4.81127">
        <ele>245</ele>
        <time>2018-02-13T11:28:20Z</time>
      </trkpt>
      <trkpt lat="45.98147" lon="4.81119">
        <ele>245</ele>
        <time>2018-02-13T11:28:21Z</time>
      </trkpt>
      <trkpt lat="45.98144" lon="4.81112">
        <ele>245</ele>
        <time>2018-02-13T11:28:22Z</time>
      </trkpt>
      <trkpt lat="45.98141" lon="4.81104">
        <ele>245</ele>
        <time>2018-02-13T11:28:23Z</time>
      </trkpt>
      <trkpt lat="45.98138" lon="4.81097">
        <ele>245</ele>
        <time>2018-02-13T11:28:24Z</time>
      </trkpt>
      <trkpt lat="45.98135" lon="4.81089">
        <ele>245</ele>
        <time>2018-02-13T11:28:25Z</time>
      </trkpt>
      <trkpt lat="45.98132" lon="4.81082">
        <ele>243</ele>
        <time>2018-02-13T11:28:26Z</time>
      </trkpt>
      <trkpt lat="45.9813" lon="4.81074">
        <ele>243</ele>
        <time>2018-02-13T11:28:27Z</time>
      </trkpt>
      <trkpt lat="45.98127" lon="4.81067">
        <ele>243</ele>
        <time>2018-02-13T11:28:28Z</time>
      </trkpt>
      <trkpt lat="45.98123" lon="4.81061">
        <ele>243</ele>
        <time>2018-02-13T11:28:29Z</time>
      </trkpt>
      <trkpt lat="45.98121" lon="4.81053">
        <ele>243</ele>
        <time>2018-02-13T11:28:30Z</time>
      </trkpt>
      <trkpt lat="45.98118" lon="4.81045">
        <ele>242</ele>
        <time>2018-02-13T11:28:31Z</time>
      </trkpt>
      <trkpt lat="45.98115" lon="4.81039">
        <ele>242</ele>
        <time>2018-02-13T11:28:32Z</time>
      </trkpt>
      <trkpt lat="45.98113" lon="4.81032">
        <ele>242</ele>
        <time>2018-02-13T11:28:33Z</time>
      </trkpt>
      <trkpt lat="45.98111" lon="4.81025">
        <ele>242</ele>
        <time>2018-02-13T11:28:34Z</time>
      </trkpt>
      <trkpt lat="45.9811" lon="4.81019">
        <ele>242</ele>
        <time>2018-02-13T11:28:35Z</time>
      </trkpt>
      <trkpt lat="45.98108" lon="4.81013">
        <ele>242</ele>
        <time>2018-02-13T11:28:36Z</time>
      </trkpt>
      <trkpt lat="45.98105" lon="4.81006">
        <ele>242</ele>
        <time>2018-02-13T11:28:37Z</time>
      </trkpt>
      <trkpt lat="45.98104" lon="4.81001">
        <ele>242</ele>
        <time>2018-02-13T11:28:38Z</time>
      </trkpt>
      <trkpt lat="45.98101" lon="4.80995">
        <ele>240</ele>
        <time>2018-02-13T11:28:39Z</time>
      </trkpt>
      <trkpt lat="45.98099" lon="4.80989">
        <ele>240</ele>
        <time>2018-02-13T11:28:40Z</time>
      </trkpt>
      <trkpt lat="45.98094" lon="4.80978">
        <ele>239</ele>
        <time>2018-02-13T11:28:42Z</time>
      </trkpt>
      <trkpt lat="45.98092" lon="4.80971">
        <ele>239</ele>
        <time>2018-02-13T11:28:43Z</time>
      </trkpt>
      <trkpt lat="45.98091" lon="4.80964">
        <ele>239</ele>
        <time>2018-02-13T11:28:44Z</time>
      </trkpt>
      <trkpt lat="45.98089" lon="4.80957">
        <ele>239</ele>
        <time>2018-02-13T11:28:45Z</time>
      </trkpt>
      <trkpt lat="45.98087" lon="4.80948">
        <ele>238</ele>
        <time>2018-02-13T11:28:46Z</time>
      </trkpt>
      <trkpt lat="45.98084" lon="4.80939">
        <ele>238</ele>
        <time>2018-02-13T11:28:47Z</time>
      </trkpt>
      <trkpt lat="45.98082" lon="4.80929">
        <ele>240</ele>
        <time>2018-02-13T11:28:48Z</time>
      </trkpt>
      <trkpt lat="45.9808" lon="4.8092">
        <ele>239</ele>
        <time>2018-02-13T11:28:49Z</time>
      </trkpt>
      <trkpt lat="45.98077" lon="4.8091">
        <ele>238</ele>
        <time>2018-02-13T11:28:50Z</time>
      </trkpt>
      <trkpt lat="45.98075" lon="4.80899">
        <ele>238</ele>
        <time>2018-02-13T11:28:51Z</time>
      </trkpt>
      <trkpt lat="45.98073" lon="4.80889">
        <ele>238</ele>
        <time>2018-02-13T11:28:52Z</time>
      </trkpt>
      <trkpt lat="45.9807" lon="4.80879">
        <ele>237</ele>
        <time>2018-02-13T11:28:53Z</time>
      </trkpt>
      <trkpt lat="45.98069" lon="4.80869">
        <ele>237</ele>
        <time>2018-02-13T11:28:54Z</time>
      </trkpt>
      <trkpt lat="45.98066" lon="4.80858">
        <ele>236</ele>
        <time>2018-02-13T11:28:55Z</time>
      </trkpt>
      <trkpt lat="45.98064" lon="4.80848">
        <ele>236</ele>
        <time>2018-02-13T11:28:56Z</time>
      </trkpt>
      <trkpt lat="45.98061" lon="4.80839">
        <ele>236</ele>
        <time>2018-02-13T11:28:57Z</time>
      </trkpt>
      <trkpt lat="45.98058" lon="4.8083">
        <ele>234</ele>
        <time>2018-02-13T11:28:58Z</time>
      </trkpt>
      <trkpt lat="45.98056" lon="4.8082">
        <ele>234</ele>
        <time>2018-02-13T11:28:59Z</time>
      </trkpt>
      <trkpt lat="45.98054" lon="4.80811">
        <ele>234</ele>
        <time>2018-02-13T11:29:00Z</time>
      </trkpt>
      <trkpt lat="45.98052" lon="4.80801">
        <ele>234</ele>
        <time>2018-02-13T11:29:01Z</time>
      </trkpt>
      <trkpt lat="45.9805" lon="4.80792">
        <ele>233</ele>
        <time>2018-02-13T11:29:02Z</time>
      </trkpt>
      <trkpt lat="45.98047" lon="4.80781">
        <ele>233</ele>
        <time>2018-02-13T11:29:03Z</time>
      </trkpt>
      <trkpt lat="45.98046" lon="4.80772">
        <ele>233</ele>
        <time>2018-02-13T11:29:04Z</time>
      </trkpt>
      <trkpt lat="45.98043" lon="4.80763">
        <ele>233</ele>
        <time>2018-02-13T11:29:05Z</time>
      </trkpt>
      <trkpt lat="45.98041" lon="4.80754">
        <ele>233</ele>
        <time>2018-02-13T11:29:06Z</time>
      </trkpt>
      <trkpt lat="45.98039" lon="4.80747">
        <ele>231</ele>
        <time>2018-02-13T11:29:07Z</time>
      </trkpt>
      <trkpt lat="45.98037" lon="4.80739">
        <ele>231</ele>
        <time>2018-02-13T11:29:08Z</time>
      </trkpt>
      <trkpt lat="45.98035" lon="4.80732">
        <ele>231</ele>
        <time>2018-02-13T11:29:09Z</time>
      </trkpt>
      <trkpt lat="45.98031" lon="4.8072">
        <ele>231</ele>
        <time>2018-02-13T11:29:11Z</time>
      </trkpt>
      <trkpt lat="45.9803" lon="4.80716">
        <ele>231</ele>
        <time>2018-02-13T11:29:12Z</time>
      </trkpt>
      <trkpt lat="45.98026" lon="4.80705">
        <ele>231</ele>
        <time>2018-02-13T11:29:15Z</time>
      </trkpt>
      <trkpt lat="45.98025" lon="4.80703">
        <ele>231</ele>
        <time>2018-02-13T11:29:16Z</time>
      </trkpt>
      <trkpt lat="45.9803" lon="4.80692">
        <ele>230</ele>
        <time>2018-02-13T11:29:46Z</time>
      </trkpt>
      <trkpt lat="45.98031" lon="4.80692">
        <ele>230</ele>
        <time>2018-02-13T11:29:47Z</time>
      </trkpt>
      <trkpt lat="45.98039" lon="4.80692">
        <ele>230</ele>
        <time>2018-02-13T11:29:51Z</time>
      </trkpt>
      <trkpt lat="45.98042" lon="4.80692">
        <ele>230</ele>
        <time>2018-02-13T11:29:52Z</time>
      </trkpt>
      <trkpt lat="45.9805" lon="4.8069">
        <ele>230</ele>
        <time>2018-02-13T11:29:54Z</time>
      </trkpt>
      <trkpt lat="45.98055" lon="4.80689">
        <ele>230</ele>
        <time>2018-02-13T11:29:55Z</time>
      </trkpt>
      <trkpt lat="45.98059" lon="4.80689">
        <ele>230</ele>
        <time>2018-02-13T11:29:56Z</time>
      </trkpt>
      <trkpt lat="45.98064" lon="4.80689">
        <ele>230</ele>
        <time>2018-02-13T11:29:57Z</time>
      </trkpt>
      <trkpt lat="45.98073" lon="4.80687">
        <ele>230</ele>
        <time>2018-02-13T11:29:59Z</time>
      </trkpt>
      <trkpt lat="45.98076" lon="4.80687">
        <ele>229</ele>
        <time>2018-02-13T11:30:00Z</time>
      </trkpt>
      <trkpt lat="45.98085" lon="4.80686">
        <ele>228</ele>
        <time>2018-02-13T11:30:02Z</time>
      </trkpt>
      <trkpt lat="45.98089" lon="4.80686">
        <ele>228</ele>
        <time>2018-02-13T11:30:03Z</time>
      </trkpt>
      <trkpt lat="45.98094" lon="4.80685">
        <ele>228</ele>
        <time>2018-02-13T11:30:04Z</time>
      </trkpt>
      <trkpt lat="45.98098" lon="4.80685">
        <ele>228</ele>
        <time>2018-02-13T11:30:05Z</time>
      </trkpt>
      <trkpt lat="45.98105" lon="4.80684">
        <ele>228</ele>
        <time>2018-02-13T11:30:07Z</time>
      </trkpt>
      <trkpt lat="45.9811" lon="4.80684">
        <ele>228</ele>
        <time>2018-02-13T11:30:08Z</time>
      </trkpt>
      <trkpt lat="45.98115" lon="4.80684">
        <ele>228</ele>
        <time>2018-02-13T11:30:09Z</time>
      </trkpt>
      <trkpt lat="45.9812" lon="4.80683">
        <ele>228</ele>
        <time>2018-02-13T11:30:10Z</time>
      </trkpt>
      <trkpt lat="45.98128" lon="4.80682">
        <ele>228</ele>
        <time>2018-02-13T11:30:12Z</time>
      </trkpt>
      <trkpt lat="45.98132" lon="4.80683">
        <ele>228</ele>
        <time>2018-02-13T11:30:13Z</time>
      </trkpt>
      <trkpt lat="45.9814" lon="4.80683">
        <ele>228</ele>
        <time>2018-02-13T11:30:15Z</time>
      </trkpt>
      <trkpt lat="45.98143" lon="4.80683">
        <ele>228</ele>
        <time>2018-02-13T11:30:16Z</time>
      </trkpt>
      <trkpt lat="45.9815" lon="4.80682">
        <ele>227</ele>
        <time>2018-02-13T11:30:18Z</time>
      </trkpt>
      <trkpt lat="45.98153" lon="4.80682">
        <ele>227</ele>
        <time>2018-02-13T11:30:19Z</time>
      </trkpt>
      <trkpt lat="45.98162" lon="4.80682">
        <ele>227</ele>
        <time>2018-02-13T11:30:22Z</time>
      </trkpt>
      <trkpt lat="45.98163" lon="4.80682">
        <ele>227</ele>
        <time>2018-02-13T11:30:23Z</time>
      </trkpt>
      <trkpt lat="45.98171" lon="4.80684">
        <ele>225</ele>
        <time>2018-02-13T11:30:35Z</time>
      </trkpt>
      <trkpt lat="45.98173" lon="4.80683">
        <ele>225</ele>
        <time>2018-02-13T11:30:36Z</time>
      </trkpt>
      <trkpt lat="45.98181" lon="4.80681">
        <ele>225</ele>
        <time>2018-02-13T11:30:39Z</time>
      </trkpt>
      <trkpt lat="45.98184" lon="4.8068">
        <ele>225</ele>
        <time>2018-02-13T11:30:40Z</time>
      </trkpt>
      <trkpt lat="45.98191" lon="4.80678">
        <ele>225</ele>
        <time>2018-02-13T11:30:42Z</time>
      </trkpt>
      <trkpt lat="45.98195" lon="4.80676">
        <ele>225</ele>
        <time>2018-02-13T11:30:43Z</time>
      </trkpt>
      <trkpt lat="45.98202" lon="4.80674">
        <ele>225</ele>
        <time>2018-02-13T11:30:45Z</time>
      </trkpt>
      <trkpt lat="45.98205" lon="4.80672">
        <ele>224</ele>
        <time>2018-02-13T11:30:46Z</time>
      </trkpt>
      <trkpt lat="45.98214" lon="4.80672">
        <ele>224</ele>
        <time>2018-02-13T11:30:56Z</time>
      </trkpt>
      <trkpt lat="45.98215" lon="4.80672">
        <ele>224</ele>
        <time>2018-02-13T11:30:57Z</time>
      </trkpt>
      <trkpt lat="45.98219" lon="4.80663">
        <ele>224</ele>
        <time>2018-02-13T11:31:06Z</time>
      </trkpt>
      <trkpt lat="45.98221" lon="4.80659">
        <ele>224</ele>
        <time>2018-02-13T11:31:07Z</time>
      </trkpt>
      <trkpt lat="45.98224" lon="4.80651">
        <ele>224</ele>
        <time>2018-02-13T11:31:09Z</time>
      </trkpt>
      <trkpt lat="45.98227" lon="4.80645">
        <ele>224</ele>
        <time>2018-02-13T11:31:10Z</time>
      </trkpt>
      <trkpt lat="45.9823" lon="4.8064">
        <ele>224</ele>
        <time>2018-02-13T11:31:11Z</time>
      </trkpt>
      <trkpt lat="45.98232" lon="4.80634">
        <ele>224</ele>
        <time>2018-02-13T11:31:12Z</time>
      </trkpt>
      <trkpt lat="45.98235" lon="4.80628">
        <ele>224</ele>
        <time>2018-02-13T11:31:13Z</time>
      </trkpt>
      <trkpt lat="45.98237" lon="4.80622">
        <ele>224</ele>
        <time>2018-02-13T11:31:14Z</time>
      </trkpt>
      <trkpt lat="45.98239" lon="4.80614">
        <ele>224</ele>
        <time>2018-02-13T11:31:15Z</time>
      </trkpt>
      <trkpt lat="45.98241" lon="4.80607">
        <ele>224</ele>
        <time>2018-02-13T11:31:16Z</time>
      </trkpt>
      <trkpt lat="45.98243" lon="4.806">
        <ele>224</ele>
        <time>2018-02-13T11:31:17Z</time>
      </trkpt>
      <trkpt lat="45.98245" lon="4.80592">
        <ele>224</ele>
        <time>2018-02-13T11:31:18Z</time>
      </trkpt>
      <trkpt lat="45.98247" lon="4.80585">
        <ele>224</ele>
        <time>2018-02-13T11:31:19Z</time>
      </trkpt>
      <trkpt lat="45.98249" lon="4.80578">
        <ele>224</ele>
        <time>2018-02-13T11:31:20Z</time>
      </trkpt>
      <trkpt lat="45.98251" lon="4.8057">
        <ele>224</ele>
        <time>2018-02-13T11:31:21Z</time>
      </trkpt>
      <trkpt lat="45.98253" lon="4.80564">
        <ele>224</ele>
        <time>2018-02-13T11:31:22Z</time>
      </trkpt>
      <trkpt lat="45.98255" lon="4.80557">
        <ele>224</ele>
        <time>2018-02-13T11:31:23Z</time>
      </trkpt>
      <trkpt lat="45.98257" lon="4.80549">
        <ele>224</ele>
        <time>2018-02-13T11:31:24Z</time>
      </trkpt>
      <trkpt lat="45.9826" lon="4.80542">
        <ele>224</ele>
        <time>2018-02-13T11:31:25Z</time>
      </trkpt>
      <trkpt lat="45.98263" lon="4.80535">
        <ele>224</ele>
        <time>2018-02-13T11:31:26Z</time>
      </trkpt>
      <trkpt lat="45.98264" lon="4.80527">
        <ele>224</ele>
        <time>2018-02-13T11:31:27Z</time>
      </trkpt>
      <trkpt lat="45.98266" lon="4.80519">
        <ele>223</ele>
        <time>2018-02-13T11:31:28Z</time>
      </trkpt>
      <trkpt lat="45.98267" lon="4.8051">
        <ele>223</ele>
        <time>2018-02-13T11:31:29Z</time>
      </trkpt>
      <trkpt lat="45.98268" lon="4.80501">
        <ele>223</ele>
        <time>2018-02-13T11:31:30Z</time>
      </trkpt>
      <trkpt lat="45.98269" lon="4.80493">
        <ele>223</ele>
        <time>2018-02-13T11:31:31Z</time>
      </trkpt>
      <trkpt lat="45.9827" lon="4.80487">
        <ele>223</ele>
        <time>2018-02-13T11:31:32Z</time>
      </trkpt>
      <trkpt lat="45.98273" lon="4.80476">
        <ele>223</ele>
        <time>2018-02-13T11:31:34Z</time>
      </trkpt>
      <trkpt lat="45.98275" lon="4.80468">
        <ele>223</ele>
        <time>2018-02-13T11:31:35Z</time>
      </trkpt>
      <trkpt lat="45.98277" lon="4.8046">
        <ele>223</ele>
        <time>2018-02-13T11:31:36Z</time>
      </trkpt>
      <trkpt lat="45.98279" lon="4.80452">
        <ele>223</ele>
        <time>2018-02-13T11:31:37Z</time>
      </trkpt>
      <trkpt lat="45.9828" lon="4.80442">
        <ele>223</ele>
        <time>2018-02-13T11:31:38Z</time>
      </trkpt>
      <trkpt lat="45.98283" lon="4.80434">
        <ele>223</ele>
        <time>2018-02-13T11:31:39Z</time>
      </trkpt>
      <trkpt lat="45.98283" lon="4.80426">
        <ele>223</ele>
        <time>2018-02-13T11:31:40Z</time>
      </trkpt>
      <trkpt lat="45.98285" lon="4.80419">
        <ele>223</ele>
        <time>2018-02-13T11:31:41Z</time>
      </trkpt>
      <trkpt lat="45.98286" lon="4.80412">
        <ele>224</ele>
        <time>2018-02-13T11:31:42Z</time>
      </trkpt>
      <trkpt lat="45.98287" lon="4.80406">
        <ele>224</ele>
        <time>2018-02-13T11:31:43Z</time>
      </trkpt>
      <trkpt lat="45.98288" lon="4.80398">
        <ele>224</ele>
        <time>2018-02-13T11:31:44Z</time>
      </trkpt>
      <trkpt lat="45.98289" lon="4.80391">
        <ele>224</ele>
        <time>2018-02-13T11:31:45Z</time>
      </trkpt>
      <trkpt lat="45.98291" lon="4.80384">
        <ele>224</ele>
        <time>2018-02-13T11:31:46Z</time>
      </trkpt>
      <trkpt lat="45.98292" lon="4.80377">
        <ele>224</ele>
        <time>2018-02-13T11:31:47Z</time>
      </trkpt>
      <trkpt lat="45.98295" lon="4.80366">
        <ele>224</ele>
        <time>2018-02-13T11:31:49Z</time>
      </trkpt>
      <trkpt lat="45.98296" lon="4.80358">
        <ele>225</ele>
        <time>2018-02-13T11:31:50Z</time>
      </trkpt>
      <trkpt lat="45.98299" lon="4.8035">
        <ele>225</ele>
        <time>2018-02-13T11:31:51Z</time>
      </trkpt>
      <trkpt lat="45.98302" lon="4.80346">
        <ele>225</ele>
        <time>2018-02-13T11:31:52Z</time>
      </trkpt>
      <trkpt lat="45.98304" lon="4.80336">
        <ele>226</ele>
        <time>2018-02-13T11:31:54Z</time>
      </trkpt>
      <trkpt lat="45.98305" lon="4.8033">
        <ele>226</ele>
        <time>2018-02-13T11:31:55Z</time>
      </trkpt>
      <trkpt lat="45.98306" lon="4.80318">
        <ele>226</ele>
        <time>2018-02-13T11:31:57Z</time>
      </trkpt>
      <trkpt lat="45.98308" lon="4.80311">
        <ele>226</ele>
        <time>2018-02-13T11:31:58Z</time>
      </trkpt>
      <trkpt lat="45.9831" lon="4.80305">
        <ele>226</ele>
        <time>2018-02-13T11:31:59Z</time>
      </trkpt>
      <trkpt lat="45.98311" lon="4.80299">
        <ele>226</ele>
        <time>2018-02-13T11:32:00Z</time>
      </trkpt>
      <trkpt lat="45.98313" lon="4.80288">
        <ele>226</ele>
        <time>2018-02-13T11:32:02Z</time>
      </trkpt>
      <trkpt lat="45.98314" lon="4.80285">
        <ele>226</ele>
        <time>2018-02-13T11:32:03Z</time>
      </trkpt>
      <trkpt lat="45.98317" lon="4.80274">
        <ele>227</ele>
        <time>2018-02-13T11:32:05Z</time>
      </trkpt>
      <trkpt lat="45.98318" lon="4.80269">
        <ele>227</ele>
        <time>2018-02-13T11:32:06Z</time>
      </trkpt>
      <trkpt lat="45.98319" lon="4.80257">
        <ele>228</ele>
        <time>2018-02-13T11:32:08Z</time>
      </trkpt>
      <trkpt lat="45.98321" lon="4.80252">
        <ele>228</ele>
        <time>2018-02-13T11:32:09Z</time>
      </trkpt>
      <trkpt lat="45.98323" lon="4.80242">
        <ele>228</ele>
        <time>2018-02-13T11:32:11Z</time>
      </trkpt>
      <trkpt lat="45.98324" lon="4.80237">
        <ele>228</ele>
        <time>2018-02-13T11:32:12Z</time>
      </trkpt>
      <trkpt lat="45.98327" lon="4.80227">
        <ele>228</ele>
        <time>2018-02-13T11:32:14Z</time>
      </trkpt>
      <trkpt lat="45.98328" lon="4.80222">
        <ele>227</ele>
        <time>2018-02-13T11:32:15Z</time>
      </trkpt>
      <trkpt lat="45.98328" lon="4.8021">
        <ele>227</ele>
        <time>2018-02-13T11:32:17Z</time>
      </trkpt>
      <trkpt lat="45.98327" lon="4.80205">
        <ele>227</ele>
        <time>2018-02-13T11:32:18Z</time>
      </trkpt>
      <trkpt lat="45.98323" lon="4.80193">
        <ele>227</ele>
        <time>2018-02-13T11:32:20Z</time>
      </trkpt>
      <trkpt lat="45.98321" lon="4.80187">
        <ele>227</ele>
        <time>2018-02-13T11:32:21Z</time>
      </trkpt>
      <trkpt lat="45.98319" lon="4.80181">
        <ele>227</ele>
        <time>2018-02-13T11:32:22Z</time>
      </trkpt>
      <trkpt lat="45.98318" lon="4.80175">
        <ele>227</ele>
        <time>2018-02-13T11:32:23Z</time>
      </trkpt>
      <trkpt lat="45.98316" lon="4.80169">
        <ele>227</ele>
        <time>2018-02-13T11:32:24Z</time>
      </trkpt>
      <trkpt lat="45.98313" lon="4.80163">
        <ele>228</ele>
        <time>2018-02-13T11:32:25Z</time>
      </trkpt>
      <trkpt lat="45.98311" lon="4.80157">
        <ele>228</ele>
        <time>2018-02-13T11:32:26Z</time>
      </trkpt>
      <trkpt lat="45.98309" lon="4.8015">
        <ele>228</ele>
        <time>2018-02-13T11:32:27Z</time>
      </trkpt>
      <trkpt lat="45.98307" lon="4.80143">
        <ele>228</ele>
        <time>2018-02-13T11:32:28Z</time>
      </trkpt>
      <trkpt lat="45.98304" lon="4.80137">
        <ele>228</ele>
        <time>2018-02-13T11:32:29Z</time>
      </trkpt>
      <trkpt lat="45.98301" lon="4.8013">
        <ele>228</ele>
        <time>2018-02-13T11:32:30Z</time>
      </trkpt>
      <trkpt lat="45.98299" lon="4.80125">
        <ele>228</ele>
        <time>2018-02-13T11:32:31Z</time>
      </trkpt>
      <trkpt lat="45.98297" lon="4.80118">
        <ele>228</ele>
        <time>2018-02-13T11:32:32Z</time>
      </trkpt>
      <trkpt lat="45.98296" lon="4.80112">
        <ele>228</ele>
        <time>2018-02-13T11:32:33Z</time>
      </trkpt>
      <trkpt lat="45.98294" lon="4.80106">
        <ele>228</ele>
        <time>2018-02-13T11:32:34Z</time>
      </trkpt>
      <trkpt lat="45.98291" lon="4.80099">
        <ele>228</ele>
        <time>2018-02-13T11:32:35Z</time>
      </trkpt>
      <trkpt lat="45.98288" lon="4.80092">
        <ele>228</ele>
        <time>2018-02-13T11:32:36Z</time>
      </trkpt>
      <trkpt lat="45.98286" lon="4.80086">
        <ele>228</ele>
        <time>2018-02-13T11:32:37Z</time>
      </trkpt>
      <trkpt lat="45.98283" lon="4.8008">
        <ele>229</ele>
        <time>2018-02-13T11:32:38Z</time>
      </trkpt>
      <trkpt lat="45.98281" lon="4.80074">
        <ele>229</ele>
        <time>2018-02-13T11:32:39Z</time>
      </trkpt>
      <trkpt lat="45.98278" lon="4.80068">
        <ele>229</ele>
        <time>2018-02-13T11:32:40Z</time>
      </trkpt>
      <trkpt lat="45.98276" lon="4.80061">
        <ele>229</ele>
        <time>2018-02-13T11:32:41Z</time>
      </trkpt>
      <trkpt lat="45.98274" lon="4.80055">
        <ele>229</ele>
        <time>2018-02-13T11:32:42Z</time>
      </trkpt>
      <trkpt lat="45.98272" lon="4.80049">
        <ele>229</ele>
        <time>2018-02-13T11:32:43Z</time>
      </trkpt>
      <trkpt lat="45.9827" lon="4.80043">
        <ele>229</ele>
        <time>2018-02-13T11:32:44Z</time>
      </trkpt>
      <trkpt lat="45.98268" lon="4.80036">
        <ele>229</ele>
        <time>2018-02-13T11:32:45Z</time>
      </trkpt>
      <trkpt lat="45.98266" lon="4.80029">
        <ele>228</ele>
        <time>2018-02-13T11:32:46Z</time>
      </trkpt>
      <trkpt lat="45.98264" lon="4.80023">
        <ele>228</ele>
        <time>2018-02-13T11:32:47Z</time>
      </trkpt>
      <trkpt lat="45.98262" lon="4.80017">
        <ele>228</ele>
        <time>2018-02-13T11:32:48Z</time>
      </trkpt>
      <trkpt lat="45.98259" lon="4.8001">
        <ele>228</ele>
        <time>2018-02-13T11:32:49Z</time>
      </trkpt>
      <trkpt lat="45.98257" lon="4.80003">
        <ele>227</ele>
        <time>2018-02-13T11:32:50Z</time>
      </trkpt>
      <trkpt lat="45.98254" lon="4.79997">
        <ele>227</ele>
        <time>2018-02-13T11:32:51Z</time>
      </trkpt>
      <trkpt lat="45.98252" lon="4.7999">
        <ele>227</ele>
        <time>2018-02-13T11:32:52Z</time>
      </trkpt>
      <trkpt lat="45.9825" lon="4.79983">
        <ele>225</ele>
        <time>2018-02-13T11:32:53Z</time>
      </trkpt>
      <trkpt lat="45.98247" lon="4.79976">
        <ele>225</ele>
        <time>2018-02-13T11:32:54Z</time>
      </trkpt>
      <trkpt lat="45.98245" lon="4.79969">
        <ele>225</ele>
        <time>2018-02-13T11:32:55Z</time>
      </trkpt>
      <trkpt lat="45.98242" lon="4.79961">
        <ele>225</ele>
        <time>2018-02-13T11:32:56Z</time>
      </trkpt>
      <trkpt lat="45.98239" lon="4.79954">
        <ele>225</ele>
        <time>2018-02-13T11:32:57Z</time>
      </trkpt>
      <trkpt lat="45.98236" lon="4.79947">
        <ele>225</ele>
        <time>2018-02-13T11:32:58Z</time>
      </trkpt>
      <trkpt lat="45.98233" lon="4.79941">
        <ele>225</ele>
        <time>2018-02-13T11:32:59Z</time>
      </trkpt>
      <trkpt lat="45.98231" lon="4.79936">
        <ele>225</ele>
        <time>2018-02-13T11:33:00Z</time>
      </trkpt>
      <trkpt lat="45.98229" lon="4.79928">
        <ele>225</ele>
        <time>2018-02-13T11:33:01Z</time>
      </trkpt>
      <trkpt lat="45.98228" lon="4.7992">
        <ele>225</ele>
        <time>2018-02-13T11:33:02Z</time>
      </trkpt>
      <trkpt lat="45.98226" lon="4.79914">
        <ele>225</ele>
        <time>2018-02-13T11:33:03Z</time>
      </trkpt>
      <trkpt lat="45.98224" lon="4.79907">
        <ele>225</ele>
        <time>2018-02-13T11:33:04Z</time>
      </trkpt>
      <trkpt lat="45.98222" lon="4.799">
        <ele>225</ele>
        <time>2018-02-13T11:33:05Z</time>
      </trkpt>
      <trkpt lat="45.98219" lon="4.79894">
        <ele>225</ele>
        <time>2018-02-13T11:33:06Z</time>
      </trkpt>
      <trkpt lat="45.98216" lon="4.79887">
        <ele>225</ele>
        <time>2018-02-13T11:33:07Z</time>
      </trkpt>
      <trkpt lat="45.98214" lon="4.79882">
        <ele>225</ele>
        <time>2018-02-13T11:33:08Z</time>
      </trkpt>
      <trkpt lat="45.98211" lon="4.79876">
        <ele>225</ele>
        <time>2018-02-13T11:33:09Z</time>
      </trkpt>
      <trkpt lat="45.98208" lon="4.7987">
        <ele>225</ele>
        <time>2018-02-13T11:33:10Z</time>
      </trkpt>
      <trkpt lat="45.98206" lon="4.79864">
        <ele>225</ele>
        <time>2018-02-13T11:33:11Z</time>
      </trkpt>
      <trkpt lat="45.98203" lon="4.79856">
        <ele>225</ele>
        <time>2018-02-13T11:33:12Z</time>
      </trkpt>
      <trkpt lat="45.98202" lon="4.79848">
        <ele>225</ele>
        <time>2018-02-13T11:33:13Z</time>
      </trkpt>
      <trkpt lat="45.982" lon="4.79843">
        <ele>225</ele>
        <time>2018-02-13T11:33:14Z</time>
      </trkpt>
      <trkpt lat="45.98197" lon="4.79835">
        <ele>225</ele>
        <time>2018-02-13T11:33:15Z</time>
      </trkpt>
      <trkpt lat="45.98196" lon="4.79829">
        <ele>225</ele>
        <time>2018-02-13T11:33:16Z</time>
      </trkpt>
      <trkpt lat="45.98193" lon="4.79823">
        <ele>225</ele>
        <time>2018-02-13T11:33:17Z</time>
      </trkpt>
      <trkpt lat="45.98191" lon="4.79816">
        <ele>225</ele>
        <time>2018-02-13T11:33:18Z</time>
      </trkpt>
      <trkpt lat="45.9819" lon="4.7981">
        <ele>225</ele>
        <time>2018-02-13T11:33:19Z</time>
      </trkpt>
      <trkpt lat="45.98189" lon="4.79798">
        <ele>226</ele>
        <time>2018-02-13T11:33:21Z</time>
      </trkpt>
      <trkpt lat="45.98188" lon="4.79792">
        <ele>226</ele>
        <time>2018-02-13T11:33:22Z</time>
      </trkpt>
      <trkpt lat="45.98185" lon="4.7978">
        <ele>226</ele>
        <time>2018-02-13T11:33:24Z</time>
      </trkpt>
      <trkpt lat="45.98185" lon="4.79774">
        <ele>226</ele>
        <time>2018-02-13T11:33:25Z</time>
      </trkpt>
      <trkpt lat="45.98183" lon="4.79762">
        <ele>226</ele>
        <time>2018-02-13T11:33:27Z</time>
      </trkpt>
      <trkpt lat="45.98184" lon="4.79757">
        <ele>226</ele>
        <time>2018-02-13T11:33:28Z</time>
      </trkpt>
      <trkpt lat="45.98184" lon="4.79747">
        <ele>227</ele>
        <time>2018-02-13T11:33:30Z</time>
      </trkpt>
      <trkpt lat="45.98184" lon="4.79742">
        <ele>227</ele>
        <time>2018-02-13T11:33:31Z</time>
      </trkpt>
      <trkpt lat="45.98176" lon="4.79735">
        <ele>227</ele>
        <time>2018-02-13T11:33:33Z</time>
      </trkpt>
      <trkpt lat="45.98172" lon="4.79734">
        <ele>227</ele>
        <time>2018-02-13T11:33:34Z</time>
      </trkpt>
      <trkpt lat="45.98167" lon="4.79737">
        <ele>227</ele>
        <time>2018-02-13T11:33:35Z</time>
      </trkpt>
      <trkpt lat="45.98163" lon="4.79741">
        <ele>226</ele>
        <time>2018-02-13T11:33:36Z</time>
      </trkpt>
      <trkpt lat="45.98159" lon="4.79744">
        <ele>226</ele>
        <time>2018-02-13T11:33:37Z</time>
      </trkpt>
      <trkpt lat="45.98154" lon="4.79748">
        <ele>226</ele>
        <time>2018-02-13T11:33:38Z</time>
      </trkpt>
      <trkpt lat="45.98149" lon="4.79749">
        <ele>226</ele>
        <time>2018-02-13T11:33:39Z</time>
      </trkpt>
      <trkpt lat="45.98144" lon="4.79751">
        <ele>225</ele>
        <time>2018-02-13T11:33:40Z</time>
      </trkpt>
      <trkpt lat="45.98139" lon="4.79753">
        <ele>224</ele>
        <time>2018-02-13T11:33:41Z</time>
      </trkpt>
      <trkpt lat="45.98133" lon="4.79754">
        <ele>224</ele>
        <time>2018-02-13T11:33:42Z</time>
      </trkpt>
      <trkpt lat="45.98129" lon="4.79755">
        <ele>224</ele>
        <time>2018-02-13T11:33:43Z</time>
      </trkpt>
      <trkpt lat="45.98124" lon="4.79755">
        <ele>224</ele>
        <time>2018-02-13T11:33:44Z</time>
      </trkpt>
      <trkpt lat="45.98119" lon="4.79756">
        <ele>224</ele>
        <time>2018-02-13T11:33:45Z</time>
      </trkpt>
      <trkpt lat="45.98113" lon="4.79757">
        <ele>224</ele>
        <time>2018-02-13T11:33:46Z</time>
      </trkpt>
      <trkpt lat="45.98107" lon="4.79757">
        <ele>224</ele>
        <time>2018-02-13T11:33:47Z</time>
      </trkpt>
      <trkpt lat="45.98102" lon="4.79758">
        <ele>223</ele>
        <time>2018-02-13T11:33:48Z</time>
      </trkpt>
      <trkpt lat="45.98096" lon="4.79758">
        <ele>223</ele>
        <time>2018-02-13T11:33:49Z</time>
      </trkpt>
      <trkpt lat="45.9809" lon="4.79759">
        <ele>223</ele>
        <time>2018-02-13T11:33:50Z</time>
      </trkpt>
      <trkpt lat="45.98083" lon="4.7976">
        <ele>223</ele>
        <time>2018-02-13T11:33:51Z</time>
      </trkpt>
      <trkpt lat="45.98076" lon="4.79761">
        <ele>223</ele>
        <time>2018-02-13T11:33:52Z</time>
      </trkpt>
      <trkpt lat="45.9807" lon="4.79761">
        <ele>223</ele>
        <time>2018-02-13T11:33:53Z</time>
      </trkpt>
      <trkpt lat="45.98065" lon="4.79762">
        <ele>223</ele>
        <time>2018-02-13T11:33:54Z</time>
      </trkpt>
      <trkpt lat="45.98059" lon="4.79762">
        <ele>223</ele>
        <time>2018-02-13T11:33:55Z</time>
      </trkpt>
      <trkpt lat="45.98054" lon="4.79763">
        <ele>223</ele>
        <time>2018-02-13T11:33:56Z</time>
      </trkpt>
      <trkpt lat="45.98048" lon="4.79764">
        <ele>223</ele>
        <time>2018-02-13T11:33:57Z</time>
      </trkpt>
      <trkpt lat="45.98043" lon="4.79765">
        <ele>223</ele>
        <time>2018-02-13T11:33:58Z</time>
      </trkpt>
      <trkpt lat="45.98038" lon="4.79766">
        <ele>223</ele>
        <time>2018-02-13T11:33:59Z</time>
      </trkpt>
      <trkpt lat="45.98032" lon="4.79767">
        <ele>223</ele>
        <time>2018-02-13T11:34:00Z</time>
      </trkpt>
      <trkpt lat="45.98027" lon="4.79767">
        <ele>223</ele>
        <time>2018-02-13T11:34:01Z</time>
      </trkpt>
      <trkpt lat="45.98021" lon="4.79768">
        <ele>223</ele>
        <time>2018-02-13T11:34:02Z</time>
      </trkpt>
      <trkpt lat="45.98016" lon="4.79769">
        <ele>223</ele>
        <time>2018-02-13T11:34:03Z</time>
      </trkpt>
      <trkpt lat="45.9801" lon="4.79771">
        <ele>223</ele>
        <time>2018-02-13T11:34:04Z</time>
      </trkpt>
      <trkpt lat="45.98005" lon="4.79771">
        <ele>223</ele>
        <time>2018-02-13T11:34:05Z</time>
      </trkpt>
      <trkpt lat="45.97999" lon="4.79772">
        <ele>224</ele>
        <time>2018-02-13T11:34:06Z</time>
      </trkpt>
      <trkpt lat="45.97994" lon="4.79773">
        <ele>224</ele>
        <time>2018-02-13T11:34:07Z</time>
      </trkpt>
      <trkpt lat="45.97987" lon="4.79774">
        <ele>224</ele>
        <time>2018-02-13T11:34:08Z</time>
      </trkpt>
      <trkpt lat="45.97982" lon="4.79775">
        <ele>224</ele>
        <time>2018-02-13T11:34:09Z</time>
      </trkpt>
      <trkpt lat="45.97976" lon="4.79775">
        <ele>224</ele>
        <time>2018-02-13T11:34:10Z</time>
      </trkpt>
      <trkpt lat="45.97968" lon="4.79775">
        <ele>224</ele>
        <time>2018-02-13T11:34:12Z</time>
      </trkpt>
      <trkpt lat="45.97962" lon="4.79777">
        <ele>224</ele>
        <time>2018-02-13T11:34:13Z</time>
      </trkpt>
      <trkpt lat="45.97957" lon="4.79777">
        <ele>224</ele>
        <time>2018-02-13T11:34:14Z</time>
      </trkpt>
      <trkpt lat="45.97952" lon="4.79778">
        <ele>224</ele>
        <time>2018-02-13T11:34:15Z</time>
      </trkpt>
      <trkpt lat="45.97946" lon="4.79778">
        <ele>224</ele>
        <time>2018-02-13T11:34:16Z</time>
      </trkpt>
      <trkpt lat="45.97941" lon="4.7978">
        <ele>225</ele>
        <time>2018-02-13T11:34:17Z</time>
      </trkpt>
      <trkpt lat="45.97935" lon="4.79781">
        <ele>225</ele>
        <time>2018-02-13T11:34:18Z</time>
      </trkpt>
      <trkpt lat="45.97928" lon="4.79783">
        <ele>225</ele>
        <time>2018-02-13T11:34:19Z</time>
      </trkpt>
      <trkpt lat="45.97923" lon="4.79784">
        <ele>225</ele>
        <time>2018-02-13T11:34:20Z</time>
      </trkpt>
      <trkpt lat="45.97917" lon="4.79785">
        <ele>225</ele>
        <time>2018-02-13T11:34:21Z</time>
      </trkpt>
      <trkpt lat="45.97911" lon="4.79787">
        <ele>225</ele>
        <time>2018-02-13T11:34:22Z</time>
      </trkpt>
      <trkpt lat="45.97904" lon="4.79788">
        <ele>225</ele>
        <time>2018-02-13T11:34:23Z</time>
      </trkpt>
      <trkpt lat="45.97899" lon="4.7979">
        <ele>225</ele>
        <time>2018-02-13T11:34:24Z</time>
      </trkpt>
      <trkpt lat="45.97893" lon="4.7979">
        <ele>224</ele>
        <time>2018-02-13T11:34:25Z</time>
      </trkpt>
      <trkpt lat="45.97887" lon="4.79791">
        <ele>224</ele>
        <time>2018-02-13T11:34:26Z</time>
      </trkpt>
      <trkpt lat="45.97881" lon="4.79792">
        <ele>224</ele>
        <time>2018-02-13T11:34:27Z</time>
      </trkpt>
      <trkpt lat="45.97875" lon="4.79793">
        <ele>224</ele>
        <time>2018-02-13T11:34:28Z</time>
      </trkpt>
      <trkpt lat="45.97869" lon="4.79794">
        <ele>224</ele>
        <time>2018-02-13T11:34:29Z</time>
      </trkpt>
      <trkpt lat="45.97865" lon="4.79795">
        <ele>224</ele>
        <time>2018-02-13T11:34:30Z</time>
      </trkpt>
      <trkpt lat="45.97859" lon="4.79796">
        <ele>224</ele>
        <time>2018-02-13T11:34:31Z</time>
      </trkpt>
      <trkpt lat="45.97854" lon="4.79798">
        <ele>224</ele>
        <time>2018-02-13T11:34:32Z</time>
      </trkpt>
      <trkpt lat="45.97849" lon="4.79799">
        <ele>224</ele>
        <time>2018-02-13T11:34:33Z</time>
      </trkpt>
      <trkpt lat="45.97843" lon="4.798">
        <ele>224</ele>
        <time>2018-02-13T11:34:34Z</time>
      </trkpt>
      <trkpt lat="45.97838" lon="4.798">
        <ele>224</ele>
        <time>2018-02-13T11:34:35Z</time>
      </trkpt>
      <trkpt lat="45.97832" lon="4.79801">
        <ele>223</ele>
        <time>2018-02-13T11:34:36Z</time>
      </trkpt>
      <trkpt lat="45.97827" lon="4.79802">
        <ele>223</ele>
        <time>2018-02-13T11:34:37Z</time>
      </trkpt>
      <trkpt lat="45.97821" lon="4.79804">
        <ele>223</ele>
        <time>2018-02-13T11:34:38Z</time>
      </trkpt>
      <trkpt lat="45.97816" lon="4.79805">
        <ele>223</ele>
        <time>2018-02-13T11:34:39Z</time>
      </trkpt>
      <trkpt lat="45.9781" lon="4.79807">
        <ele>223</ele>
        <time>2018-02-13T11:34:40Z</time>
      </trkpt>
      <trkpt lat="45.97805" lon="4.79808">
        <ele>223</ele>
        <time>2018-02-13T11:34:41Z</time>
      </trkpt>
      <trkpt lat="45.978" lon="4.79809">
        <ele>223</ele>
        <time>2018-02-13T11:34:42Z</time>
      </trkpt>
      <trkpt lat="45.97795" lon="4.79809">
        <ele>223</ele>
        <time>2018-02-13T11:34:43Z</time>
      </trkpt>
      <trkpt lat="45.97789" lon="4.79809">
        <ele>223</ele>
        <time>2018-02-13T11:34:44Z</time>
      </trkpt>
      <trkpt lat="45.97784" lon="4.7981">
        <ele>223</ele>
        <time>2018-02-13T11:34:45Z</time>
      </trkpt>
      <trkpt lat="45.97778" lon="4.79811">
        <ele>223</ele>
        <time>2018-02-13T11:34:46Z</time>
      </trkpt>
      <trkpt lat="45.97773" lon="4.79812">
        <ele>223</ele>
        <time>2018-02-13T11:34:47Z</time>
      </trkpt>
      <trkpt lat="45.97768" lon="4.79812">
        <ele>223</ele>
        <time>2018-02-13T11:34:48Z</time>
      </trkpt>
      <trkpt lat="45.97763" lon="4.79813">
        <ele>223</ele>
        <time>2018-02-13T11:34:49Z</time>
      </trkpt>
      <trkpt lat="45.97758" lon="4.79814">
        <ele>223</ele>
        <time>2018-02-13T11:34:50Z</time>
      </trkpt>
      <trkpt lat="45.97753" lon="4.79815">
        <ele>223</ele>
        <time>2018-02-13T11:34:51Z</time>
      </trkpt>
      <trkpt lat="45.97744" lon="4.79816">
        <ele>223</ele>
        <time>2018-02-13T11:34:53Z</time>
      </trkpt>
      <trkpt lat="45.97739" lon="4.79817">
        <ele>223</ele>
        <time>2018-02-13T11:34:54Z</time>
      </trkpt>
      <trkpt lat="45.97734" lon="4.79818">
        <ele>223</ele>
        <time>2018-02-13T11:34:55Z</time>
      </trkpt>
      <trkpt lat="45.97729" lon="4.79819">
        <ele>223</ele>
        <time>2018-02-13T11:34:56Z</time>
      </trkpt>
      <trkpt lat="45.97724" lon="4.79821">
        <ele>223</ele>
        <time>2018-02-13T11:34:57Z</time>
      </trkpt>
      <trkpt lat="45.97719" lon="4.79822">
        <ele>223</ele>
        <time>2018-02-13T11:34:58Z</time>
      </trkpt>
      <trkpt lat="45.97714" lon="4.79823">
        <ele>223</ele>
        <time>2018-02-13T11:34:59Z</time>
      </trkpt>
      <trkpt lat="45.97708" lon="4.79824">
        <ele>223</ele>
        <time>2018-02-13T11:35:00Z</time>
      </trkpt>
      <trkpt lat="45.97703" lon="4.79825">
        <ele>223</ele>
        <time>2018-02-13T11:35:01Z</time>
      </trkpt>
      <trkpt lat="45.97699" lon="4.79825">
        <ele>223</ele>
        <time>2018-02-13T11:35:02Z</time>
      </trkpt>
      <trkpt lat="45.97692" lon="4.79826">
        <ele>223</ele>
        <time>2018-02-13T11:35:03Z</time>
      </trkpt>
      <trkpt lat="45.97687" lon="4.79827">
        <ele>223</ele>
        <time>2018-02-13T11:35:04Z</time>
      </trkpt>
      <trkpt lat="45.97682" lon="4.79828">
        <ele>223</ele>
        <time>2018-02-13T11:35:05Z</time>
      </trkpt>
      <trkpt lat="45.97678" lon="4.79829">
        <ele>223</ele>
        <time>2018-02-13T11:35:06Z</time>
      </trkpt>
      <trkpt lat="45.97671" lon="4.79831">
        <ele>222</ele>
        <time>2018-02-13T11:35:07Z</time>
      </trkpt>
      <trkpt lat="45.97666" lon="4.79832">
        <ele>222</ele>
        <time>2018-02-13T11:35:08Z</time>
      </trkpt>
      <trkpt lat="45.97661" lon="4.79833">
        <ele>222</ele>
        <time>2018-02-13T11:35:09Z</time>
      </trkpt>
      <trkpt lat="45.97656" lon="4.79834">
        <ele>221</ele>
        <time>2018-02-13T11:35:10Z</time>
      </trkpt>
      <trkpt lat="45.97652" lon="4.79836">
        <ele>221</ele>
        <time>2018-02-13T11:35:11Z</time>
      </trkpt>
      <trkpt lat="45.97647" lon="4.79838">
        <ele>221</ele>
        <time>2018-02-13T11:35:12Z</time>
      </trkpt>
      <trkpt lat="45.97642" lon="4.7984">
        <ele>221</ele>
        <time>2018-02-13T11:35:13Z</time>
      </trkpt>
      <trkpt lat="45.97637" lon="4.79841">
        <ele>221</ele>
        <time>2018-02-13T11:35:14Z</time>
      </trkpt>
      <trkpt lat="45.97633" lon="4.79843">
        <ele>221</ele>
        <time>2018-02-13T11:35:15Z</time>
      </trkpt>
      <trkpt lat="45.97628" lon="4.79845">
        <ele>221</ele>
        <time>2018-02-13T11:35:16Z</time>
      </trkpt>
      <trkpt lat="45.97622" lon="4.79846">
        <ele>221</ele>
        <time>2018-02-13T11:35:17Z</time>
      </trkpt>
      <trkpt lat="45.97617" lon="4.79849">
        <ele>221</ele>
        <time>2018-02-13T11:35:18Z</time>
      </trkpt>
      <trkpt lat="45.97612" lon="4.79851">
        <ele>221</ele>
        <time>2018-02-13T11:35:19Z</time>
      </trkpt>
      <trkpt lat="45.97607" lon="4.79853">
        <ele>221</ele>
        <time>2018-02-13T11:35:20Z</time>
      </trkpt>
      <trkpt lat="45.97601" lon="4.79855">
        <ele>221</ele>
        <time>2018-02-13T11:35:21Z</time>
      </trkpt>
      <trkpt lat="45.97596" lon="4.79858">
        <ele>221</ele>
        <time>2018-02-13T11:35:22Z</time>
      </trkpt>
      <trkpt lat="45.97591" lon="4.7986">
        <ele>221</ele>
        <time>2018-02-13T11:35:23Z</time>
      </trkpt>
      <trkpt lat="45.97585" lon="4.79863">
        <ele>221</ele>
        <time>2018-02-13T11:35:24Z</time>
      </trkpt>
      <trkpt lat="45.9758" lon="4.79865">
        <ele>222</ele>
        <time>2018-02-13T11:35:25Z</time>
      </trkpt>
      <trkpt lat="45.97576" lon="4.79867">
        <ele>222</ele>
        <time>2018-02-13T11:35:26Z</time>
      </trkpt>
      <trkpt lat="45.9757" lon="4.79868">
        <ele>222</ele>
        <time>2018-02-13T11:35:27Z</time>
      </trkpt>
      <trkpt lat="45.97565" lon="4.7987">
        <ele>222</ele>
        <time>2018-02-13T11:35:28Z</time>
      </trkpt>
      <trkpt lat="45.9756" lon="4.79873">
        <ele>222</ele>
        <time>2018-02-13T11:35:29Z</time>
      </trkpt>
      <trkpt lat="45.97554" lon="4.79874">
        <ele>222</ele>
        <time>2018-02-13T11:35:30Z</time>
      </trkpt>
      <trkpt lat="45.97548" lon="4.79876">
        <ele>222</ele>
        <time>2018-02-13T11:35:31Z</time>
      </trkpt>
      <trkpt lat="45.97541" lon="4.79878">
        <ele>222</ele>
        <time>2018-02-13T11:35:32Z</time>
      </trkpt>
      <trkpt lat="45.97535" lon="4.79879">
        <ele>222</ele>
        <time>2018-02-13T11:35:33Z</time>
      </trkpt>
      <trkpt lat="45.97529" lon="4.7988">
        <ele>222</ele>
        <time>2018-02-13T11:35:34Z</time>
      </trkpt>
      <trkpt lat="45.97522" lon="4.79881">
        <ele>222</ele>
        <time>2018-02-13T11:35:35Z</time>
      </trkpt>
      <trkpt lat="45.97516" lon="4.79881">
        <ele>222</ele>
        <time>2018-02-13T11:35:36Z</time>
      </trkpt>
      <trkpt lat="45.97508" lon="4.79882">
        <ele>222</ele>
        <time>2018-02-13T11:35:37Z</time>
      </trkpt>
      <trkpt lat="45.97501" lon="4.79883">
        <ele>222</ele>
        <time>2018-02-13T11:35:38Z</time>
      </trkpt>
      <trkpt lat="45.97494" lon="4.79883">
        <ele>221</ele>
        <time>2018-02-13T11:35:39Z</time>
      </trkpt>
      <trkpt lat="45.97486" lon="4.79884">
        <ele>221</ele>
        <time>2018-02-13T11:35:40Z</time>
      </trkpt>
      <trkpt lat="45.97478" lon="4.79885">
        <ele>221</ele>
        <time>2018-02-13T11:35:41Z</time>
      </trkpt>
      <trkpt lat="45.9747" lon="4.79885">
        <ele>221</ele>
        <time>2018-02-13T11:35:42Z</time>
      </trkpt>
      <trkpt lat="45.97462" lon="4.79885">
        <ele>221</ele>
        <time>2018-02-13T11:35:43Z</time>
      </trkpt>
      <trkpt lat="45.97454" lon="4.79886">
        <ele>221</ele>
        <time>2018-02-13T11:35:44Z</time>
      </trkpt>
      <trkpt lat="45.97447" lon="4.79885">
        <ele>221</ele>
        <time>2018-02-13T11:35:45Z</time>
      </trkpt>
      <trkpt lat="45.9744" lon="4.79885">
        <ele>220</ele>
        <time>2018-02-13T11:35:46Z</time>
      </trkpt>
      <trkpt lat="45.97432" lon="4.79885">
        <ele>220</ele>
        <time>2018-02-13T11:35:47Z</time>
      </trkpt>
      <trkpt lat="45.97423" lon="4.79884">
        <ele>220</ele>
        <time>2018-02-13T11:35:48Z</time>
      </trkpt>
      <trkpt lat="45.97416" lon="4.79886">
        <ele>218</ele>
        <time>2018-02-13T11:35:49Z</time>
      </trkpt>
      <trkpt lat="45.97409" lon="4.79887">
        <ele>218</ele>
        <time>2018-02-13T11:35:50Z</time>
      </trkpt>
      <trkpt lat="45.97402" lon="4.79888">
        <ele>218</ele>
        <time>2018-02-13T11:35:51Z</time>
      </trkpt>
      <trkpt lat="45.97395" lon="4.79889">
        <ele>218</ele>
        <time>2018-02-13T11:35:52Z</time>
      </trkpt>
      <trkpt lat="45.97388" lon="4.7989">
        <ele>217</ele>
        <time>2018-02-13T11:35:53Z</time>
      </trkpt>
      <trkpt lat="45.97381" lon="4.79892">
        <ele>217</ele>
        <time>2018-02-13T11:35:54Z</time>
      </trkpt>
      <trkpt lat="45.97373" lon="4.79893">
        <ele>217</ele>
        <time>2018-02-13T11:35:55Z</time>
      </trkpt>
      <trkpt lat="45.97366" lon="4.79895">
        <ele>217</ele>
        <time>2018-02-13T11:35:56Z</time>
      </trkpt>
      <trkpt lat="45.97358" lon="4.79896">
        <ele>216</ele>
        <time>2018-02-13T11:35:57Z</time>
      </trkpt>
      <trkpt lat="45.9735" lon="4.79898">
        <ele>216</ele>
        <time>2018-02-13T11:35:58Z</time>
      </trkpt>
      <trkpt lat="45.97343" lon="4.79899">
        <ele>216</ele>
        <time>2018-02-13T11:35:59Z</time>
      </trkpt>
      <trkpt lat="45.97335" lon="4.799">
        <ele>215</ele>
        <time>2018-02-13T11:36:00Z</time>
      </trkpt>
      <trkpt lat="45.97328" lon="4.79901">
        <ele>214</ele>
        <time>2018-02-13T11:36:01Z</time>
      </trkpt>
      <trkpt lat="45.97322" lon="4.79902">
        <ele>214</ele>
        <time>2018-02-13T11:36:02Z</time>
      </trkpt>
      <trkpt lat="45.97315" lon="4.79903">
        <ele>214</ele>
        <time>2018-02-13T11:36:03Z</time>
      </trkpt>
      <trkpt lat="45.97308" lon="4.79904">
        <ele>214</ele>
        <time>2018-02-13T11:36:04Z</time>
      </trkpt>
      <trkpt lat="45.97302" lon="4.79905">
        <ele>213</ele>
        <time>2018-02-13T11:36:05Z</time>
      </trkpt>
      <trkpt lat="45.97296" lon="4.79906">
        <ele>213</ele>
        <time>2018-02-13T11:36:06Z</time>
      </trkpt>
      <trkpt lat="45.97289" lon="4.79906">
        <ele>213</ele>
        <time>2018-02-13T11:36:07Z</time>
      </trkpt>
      <trkpt lat="45.97283" lon="4.79907">
        <ele>213</ele>
        <time>2018-02-13T11:36:08Z</time>
      </trkpt>
      <trkpt lat="45.97276" lon="4.79908">
        <ele>213</ele>
        <time>2018-02-13T11:36:09Z</time>
      </trkpt>
      <trkpt lat="45.97271" lon="4.79908">
        <ele>213</ele>
        <time>2018-02-13T11:36:10Z</time>
      </trkpt>
      <trkpt lat="45.97264" lon="4.79909">
        <ele>213</ele>
        <time>2018-02-13T11:36:11Z</time>
      </trkpt>
      <trkpt lat="45.97258" lon="4.7991">
        <ele>213</ele>
        <time>2018-02-13T11:36:12Z</time>
      </trkpt>
      <trkpt lat="45.97254" lon="4.79907">
        <ele>213</ele>
        <time>2018-02-13T11:36:13Z</time>
      </trkpt>
      <trkpt lat="45.97251" lon="4.79901">
        <ele>213</ele>
        <time>2018-02-13T11:36:14Z</time>
      </trkpt>
      <trkpt lat="45.97249" lon="4.79894">
        <ele>211</ele>
        <time>2018-02-13T11:36:15Z</time>
      </trkpt>
      <trkpt lat="45.97247" lon="4.79887">
        <ele>211</ele>
        <time>2018-02-13T11:36:16Z</time>
      </trkpt>
      <trkpt lat="45.97245" lon="4.79878">
        <ele>211</ele>
        <time>2018-02-13T11:36:17Z</time>
      </trkpt>
      <trkpt lat="45.97243" lon="4.7987">
        <ele>211</ele>
        <time>2018-02-13T11:36:18Z</time>
      </trkpt>
      <trkpt lat="45.97241" lon="4.79862">
        <ele>211</ele>
        <time>2018-02-13T11:36:19Z</time>
      </trkpt>
      <trkpt lat="45.97238" lon="4.79853">
        <ele>211</ele>
        <time>2018-02-13T11:36:20Z</time>
      </trkpt>
      <trkpt lat="45.97237" lon="4.79845">
        <ele>211</ele>
        <time>2018-02-13T11:36:21Z</time>
      </trkpt>
      <trkpt lat="45.97237" lon="4.79836">
        <ele>211</ele>
        <time>2018-02-13T11:36:22Z</time>
      </trkpt>
      <trkpt lat="45.97236" lon="4.79828">
        <ele>211</ele>
        <time>2018-02-13T11:36:23Z</time>
      </trkpt>
      <trkpt lat="45.97236" lon="4.7982">
        <ele>211</ele>
        <time>2018-02-13T11:36:24Z</time>
      </trkpt>
      <trkpt lat="45.97237" lon="4.79811">
        <ele>210</ele>
        <time>2018-02-13T11:36:25Z</time>
      </trkpt>
      <trkpt lat="45.97238" lon="4.79803">
        <ele>210</ele>
        <time>2018-02-13T11:36:26Z</time>
      </trkpt>
      <trkpt lat="45.97237" lon="4.79795">
        <ele>210</ele>
        <time>2018-02-13T11:36:27Z</time>
      </trkpt>
      <trkpt lat="45.97236" lon="4.79787">
        <ele>210</ele>
        <time>2018-02-13T11:36:28Z</time>
      </trkpt>
      <trkpt lat="45.97236" lon="4.79779">
        <ele>210</ele>
        <time>2018-02-13T11:36:29Z</time>
      </trkpt>
      <trkpt lat="45.97237" lon="4.79771">
        <ele>210</ele>
        <time>2018-02-13T11:36:30Z</time>
      </trkpt>
      <trkpt lat="45.97238" lon="4.79762">
        <ele>209</ele>
        <time>2018-02-13T11:36:31Z</time>
      </trkpt>
      <trkpt lat="45.97238" lon="4.79754">
        <ele>209</ele>
        <time>2018-02-13T11:36:32Z</time>
      </trkpt>
      <trkpt lat="45.97239" lon="4.79746">
        <ele>209</ele>
        <time>2018-02-13T11:36:33Z</time>
      </trkpt>
      <trkpt lat="45.97241" lon="4.79736">
        <ele>209</ele>
        <time>2018-02-13T11:36:34Z</time>
      </trkpt>
      <trkpt lat="45.97242" lon="4.79728">
        <ele>209</ele>
        <time>2018-02-13T11:36:35Z</time>
      </trkpt>
      <trkpt lat="45.97243" lon="4.79721">
        <ele>209</ele>
        <time>2018-02-13T11:36:36Z</time>
      </trkpt>
      <trkpt lat="45.97244" lon="4.79713">
        <ele>209</ele>
        <time>2018-02-13T11:36:37Z</time>
      </trkpt>
      <trkpt lat="45.97245" lon="4.79707">
        <ele>208</ele>
        <time>2018-02-13T11:36:38Z</time>
      </trkpt>
      <trkpt lat="45.97247" lon="4.797">
        <ele>208</ele>
        <time>2018-02-13T11:36:39Z</time>
      </trkpt>
      <trkpt lat="45.97248" lon="4.79691">
        <ele>208</ele>
        <time>2018-02-13T11:36:40Z</time>
      </trkpt>
      <trkpt lat="45.97248" lon="4.79683">
        <ele>208</ele>
        <time>2018-02-13T11:36:41Z</time>
      </trkpt>
      <trkpt lat="45.9725" lon="4.79676">
        <ele>208</ele>
        <time>2018-02-13T11:36:42Z</time>
      </trkpt>
      <trkpt lat="45.97251" lon="4.79668">
        <ele>208</ele>
        <time>2018-02-13T11:36:43Z</time>
      </trkpt>
      <trkpt lat="45.97252" lon="4.79661">
        <ele>209</ele>
        <time>2018-02-13T11:36:44Z</time>
      </trkpt>
      <trkpt lat="45.97254" lon="4.79654">
        <ele>211</ele>
        <time>2018-02-13T11:36:45Z</time>
      </trkpt>
      <trkpt lat="45.97254" lon="4.79647">
        <ele>212</ele>
        <time>2018-02-13T11:36:46Z</time>
      </trkpt>
      <trkpt lat="45.97254" lon="4.79639">
        <ele>212</ele>
        <time>2018-02-13T11:36:47Z</time>
      </trkpt>
      <trkpt lat="45.97254" lon="4.79629">
        <ele>213</ele>
        <time>2018-02-13T11:36:48Z</time>
      </trkpt>
      <trkpt lat="45.97254" lon="4.7962">
        <ele>213</ele>
        <time>2018-02-13T11:36:49Z</time>
      </trkpt>
      <trkpt lat="45.97255" lon="4.79612">
        <ele>213</ele>
        <time>2018-02-13T11:36:50Z</time>
      </trkpt>
      <trkpt lat="45.97255" lon="4.79603">
        <ele>212</ele>
        <time>2018-02-13T11:36:51Z</time>
      </trkpt>
      <trkpt lat="45.97255" lon="4.79595">
        <ele>212</ele>
        <time>2018-02-13T11:36:52Z</time>
      </trkpt>
      <trkpt lat="45.97255" lon="4.79587">
        <ele>211</ele>
        <time>2018-02-13T11:36:53Z</time>
      </trkpt>
      <trkpt lat="45.97255" lon="4.7958">
        <ele>211</ele>
        <time>2018-02-13T11:36:54Z</time>
      </trkpt>
      <trkpt lat="45.97255" lon="4.79572">
        <ele>212</ele>
        <time>2018-02-13T11:36:55Z</time>
      </trkpt>
      <trkpt lat="45.97254" lon="4.79566">
        <ele>213</ele>
        <time>2018-02-13T11:36:56Z</time>
      </trkpt>
      <trkpt lat="45.97253" lon="4.79553">
        <ele>214</ele>
        <time>2018-02-13T11:36:58Z</time>
      </trkpt>
      <trkpt lat="45.97252" lon="4.79546">
        <ele>214</ele>
        <time>2018-02-13T11:36:59Z</time>
      </trkpt>
      <trkpt lat="45.9725" lon="4.79539">
        <ele>214</ele>
        <time>2018-02-13T11:37:00Z</time>
      </trkpt>
      <trkpt lat="45.97249" lon="4.79532">
        <ele>210</ele>
        <time>2018-02-13T11:37:01Z</time>
      </trkpt>
      <trkpt lat="45.97248" lon="4.79524">
        <ele>210</ele>
        <time>2018-02-13T11:37:02Z</time>
      </trkpt>
      <trkpt lat="45.97247" lon="4.79518">
        <ele>210</ele>
        <time>2018-02-13T11:37:03Z</time>
      </trkpt>
      <trkpt lat="45.97246" lon="4.79511">
        <ele>210</ele>
        <time>2018-02-13T11:37:04Z</time>
      </trkpt>
      <trkpt lat="45.97246" lon="4.79503">
        <ele>211</ele>
        <time>2018-02-13T11:37:05Z</time>
      </trkpt>
      <trkpt lat="45.97245" lon="4.79496">
        <ele>210</ele>
        <time>2018-02-13T11:37:06Z</time>
      </trkpt>
      <trkpt lat="45.97243" lon="4.79489">
        <ele>210</ele>
        <time>2018-02-13T11:37:07Z</time>
      </trkpt>
      <trkpt lat="45.97241" lon="4.79482">
        <ele>210</ele>
        <time>2018-02-13T11:37:08Z</time>
      </trkpt>
      <trkpt lat="45.97239" lon="4.79475">
        <ele>209</ele>
        <time>2018-02-13T11:37:09Z</time>
      </trkpt>
      <trkpt lat="45.97237" lon="4.79469">
        <ele>209</ele>
        <time>2018-02-13T11:37:10Z</time>
      </trkpt>
      <trkpt lat="45.97235" lon="4.79463">
        <ele>209</ele>
        <time>2018-02-13T11:37:11Z</time>
      </trkpt>
      <trkpt lat="45.97231" lon="4.79451">
        <ele>209</ele>
        <time>2018-02-13T11:37:13Z</time>
      </trkpt>
      <trkpt lat="45.97228" lon="4.79445">
        <ele>209</ele>
        <time>2018-02-13T11:37:14Z</time>
      </trkpt>
      <trkpt lat="45.97226" lon="4.79438">
        <ele>209</ele>
        <time>2018-02-13T11:37:15Z</time>
      </trkpt>
      <trkpt lat="45.97223" lon="4.7943">
        <ele>209</ele>
        <time>2018-02-13T11:37:16Z</time>
      </trkpt>
      <trkpt lat="45.9722" lon="4.79423">
        <ele>208</ele>
        <time>2018-02-13T11:37:17Z</time>
      </trkpt>
      <trkpt lat="45.97217" lon="4.79416">
        <ele>208</ele>
        <time>2018-02-13T11:37:18Z</time>
      </trkpt>
      <trkpt lat="45.97213" lon="4.79409">
        <ele>208</ele>
        <time>2018-02-13T11:37:19Z</time>
      </trkpt>
      <trkpt lat="45.97211" lon="4.79403">
        <ele>208</ele>
        <time>2018-02-13T11:37:20Z</time>
      </trkpt>
      <trkpt lat="45.97209" lon="4.79396">
        <ele>208</ele>
        <time>2018-02-13T11:37:21Z</time>
      </trkpt>
      <trkpt lat="45.97206" lon="4.7939">
        <ele>208</ele>
        <time>2018-02-13T11:37:22Z</time>
      </trkpt>
      <trkpt lat="45.97204" lon="4.79383">
        <ele>208</ele>
        <time>2018-02-13T11:37:23Z</time>
      </trkpt>
      <trkpt lat="45.97202" lon="4.79378">
        <ele>208</ele>
        <time>2018-02-13T11:37:24Z</time>
      </trkpt>
      <trkpt lat="45.972" lon="4.79371">
        <ele>207</ele>
        <time>2018-02-13T11:37:25Z</time>
      </trkpt>
      <trkpt lat="45.97197" lon="4.79367">
        <ele>207</ele>
        <time>2018-02-13T11:37:26Z</time>
      </trkpt>
      <trkpt lat="45.97195" lon="4.79359">
        <ele>207</ele>
        <time>2018-02-13T11:37:27Z</time>
      </trkpt>
      <trkpt lat="45.97193" lon="4.79353">
        <ele>207</ele>
        <time>2018-02-13T11:37:28Z</time>
      </trkpt>
      <trkpt lat="45.9719" lon="4.79346">
        <ele>207</ele>
        <time>2018-02-13T11:37:29Z</time>
      </trkpt>
      <trkpt lat="45.97185" lon="4.79341">
        <ele>207</ele>
        <time>2018-02-13T11:37:30Z</time>
      </trkpt>
      <trkpt lat="45.97182" lon="4.79334">
        <ele>206</ele>
        <time>2018-02-13T11:37:31Z</time>
      </trkpt>
      <trkpt lat="45.97179" lon="4.79326">
        <ele>207</ele>
        <time>2018-02-13T11:37:32Z</time>
      </trkpt>
      <trkpt lat="45.97177" lon="4.79318">
        <ele>207</ele>
        <time>2018-02-13T11:37:33Z</time>
      </trkpt>
      <trkpt lat="45.97175" lon="4.7931">
        <ele>207</ele>
        <time>2018-02-13T11:37:34Z</time>
      </trkpt>
      <trkpt lat="45.97171" lon="4.79304">
        <ele>207</ele>
        <time>2018-02-13T11:37:35Z</time>
      </trkpt>
      <trkpt lat="45.97168" lon="4.79297">
        <ele>207</ele>
        <time>2018-02-13T11:37:36Z</time>
      </trkpt>
      <trkpt lat="45.97165" lon="4.79291">
        <ele>204</ele>
        <time>2018-02-13T11:37:37Z</time>
      </trkpt>
      <trkpt lat="45.97163" lon="4.79283">
        <ele>204</ele>
        <time>2018-02-13T11:37:38Z</time>
      </trkpt>
      <trkpt lat="45.9716" lon="4.79276">
        <ele>204</ele>
        <time>2018-02-13T11:37:39Z</time>
      </trkpt>
      <trkpt lat="45.97158" lon="4.79269">
        <ele>204</ele>
        <time>2018-02-13T11:37:40Z</time>
      </trkpt>
      <trkpt lat="45.97155" lon="4.79263">
        <ele>204</ele>
        <time>2018-02-13T11:37:41Z</time>
      </trkpt>
      <trkpt lat="45.97152" lon="4.79256">
        <ele>205</ele>
        <time>2018-02-13T11:37:42Z</time>
      </trkpt>
      <trkpt lat="45.97149" lon="4.7925">
        <ele>205</ele>
        <time>2018-02-13T11:37:43Z</time>
      </trkpt>
      <trkpt lat="45.97147" lon="4.79243">
        <ele>205</ele>
        <time>2018-02-13T11:37:44Z</time>
      </trkpt>
      <trkpt lat="45.97144" lon="4.79236">
        <ele>205</ele>
        <time>2018-02-13T11:37:45Z</time>
      </trkpt>
      <trkpt lat="45.97141" lon="4.79229">
        <ele>205</ele>
        <time>2018-02-13T11:37:46Z</time>
      </trkpt>
      <trkpt lat="45.97138" lon="4.79221">
        <ele>206</ele>
        <time>2018-02-13T11:37:47Z</time>
      </trkpt>
      <trkpt lat="45.97135" lon="4.79214">
        <ele>206</ele>
        <time>2018-02-13T11:37:48Z</time>
      </trkpt>
      <trkpt lat="45.97132" lon="4.79208">
        <ele>206</ele>
        <time>2018-02-13T11:37:49Z</time>
      </trkpt>
      <trkpt lat="45.97129" lon="4.792">
        <ele>206</ele>
        <time>2018-02-13T11:37:50Z</time>
      </trkpt>
      <trkpt lat="45.97125" lon="4.79193">
        <ele>206</ele>
        <time>2018-02-13T11:37:51Z</time>
      </trkpt>
      <trkpt lat="45.97122" lon="4.79185">
        <ele>206</ele>
        <time>2018-02-13T11:37:52Z</time>
      </trkpt>
      <trkpt lat="45.97119" lon="4.79178">
        <ele>206</ele>
        <time>2018-02-13T11:37:53Z</time>
      </trkpt>
      <trkpt lat="45.97116" lon="4.79171">
        <ele>206</ele>
        <time>2018-02-13T11:37:54Z</time>
      </trkpt>
      <trkpt lat="45.97114" lon="4.79163">
        <ele>207</ele>
        <time>2018-02-13T11:37:55Z</time>
      </trkpt>
      <trkpt lat="45.97111" lon="4.79156">
        <ele>206</ele>
        <time>2018-02-13T11:37:56Z</time>
      </trkpt>
      <trkpt lat="45.97108" lon="4.7915">
        <ele>206</ele>
        <time>2018-02-13T11:37:57Z</time>
      </trkpt>
      <trkpt lat="45.97104" lon="4.79145">
        <ele>206</ele>
        <time>2018-02-13T11:37:58Z</time>
      </trkpt>
      <trkpt lat="45.971" lon="4.7914">
        <ele>206</ele>
        <time>2018-02-13T11:37:59Z</time>
      </trkpt>
      <trkpt lat="45.97097" lon="4.79134">
        <ele>206</ele>
        <time>2018-02-13T11:38:00Z</time>
      </trkpt>
      <trkpt lat="45.97093" lon="4.79127">
        <ele>206</ele>
        <time>2018-02-13T11:38:01Z</time>
      </trkpt>
      <trkpt lat="45.97089" lon="4.79121">
        <ele>206</ele>
        <time>2018-02-13T11:38:02Z</time>
      </trkpt>
      <trkpt lat="45.97087" lon="4.79114">
        <ele>206</ele>
        <time>2018-02-13T11:38:03Z</time>
      </trkpt>
      <trkpt lat="45.97084" lon="4.79108">
        <ele>206</ele>
        <time>2018-02-13T11:38:04Z</time>
      </trkpt>
      <trkpt lat="45.97081" lon="4.791">
        <ele>204</ele>
        <time>2018-02-13T11:38:05Z</time>
      </trkpt>
      <trkpt lat="45.9708" lon="4.79093">
        <ele>204</ele>
        <time>2018-02-13T11:38:06Z</time>
      </trkpt>
      <trkpt lat="45.97077" lon="4.79085">
        <ele>204</ele>
        <time>2018-02-13T11:38:07Z</time>
      </trkpt>
      <trkpt lat="45.97075" lon="4.79078">
        <ele>204</ele>
        <time>2018-02-13T11:38:08Z</time>
      </trkpt>
      <trkpt lat="45.97073" lon="4.7907">
        <ele>204</ele>
        <time>2018-02-13T11:38:09Z</time>
      </trkpt>
      <trkpt lat="45.97071" lon="4.79061">
        <ele>203</ele>
        <time>2018-02-13T11:38:10Z</time>
      </trkpt>
      <trkpt lat="45.97069" lon="4.79053">
        <ele>203</ele>
        <time>2018-02-13T11:38:11Z</time>
      </trkpt>
      <trkpt lat="45.97068" lon="4.79045">
        <ele>203</ele>
        <time>2018-02-13T11:38:12Z</time>
      </trkpt>
      <trkpt lat="45.97066" lon="4.79036">
        <ele>203</ele>
        <time>2018-02-13T11:38:13Z</time>
      </trkpt>
      <trkpt lat="45.97063" lon="4.79029">
        <ele>203</ele>
        <time>2018-02-13T11:38:14Z</time>
      </trkpt>
      <trkpt lat="45.97061" lon="4.79021">
        <ele>204</ele>
        <time>2018-02-13T11:38:15Z</time>
      </trkpt>
      <trkpt lat="45.97059" lon="4.79013">
        <ele>204</ele>
        <time>2018-02-13T11:38:16Z</time>
      </trkpt>
      <trkpt lat="45.97057" lon="4.79006">
        <ele>204</ele>
        <time>2018-02-13T11:38:17Z</time>
      </trkpt>
      <trkpt lat="45.97055" lon="4.78999">
        <ele>205</ele>
        <time>2018-02-13T11:38:18Z</time>
      </trkpt>
      <trkpt lat="45.97053" lon="4.78992">
        <ele>205</ele>
        <time>2018-02-13T11:38:19Z</time>
      </trkpt>
      <trkpt lat="45.97051" lon="4.78985">
        <ele>205</ele>
        <time>2018-02-13T11:38:20Z</time>
      </trkpt>
      <trkpt lat="45.97049" lon="4.78978">
        <ele>205</ele>
        <time>2018-02-13T11:38:21Z</time>
      </trkpt>
      <trkpt lat="45.97045" lon="4.7897">
        <ele>205</ele>
        <time>2018-02-13T11:38:22Z</time>
      </trkpt>
      <trkpt lat="45.97041" lon="4.78963">
        <ele>205</ele>
        <time>2018-02-13T11:38:23Z</time>
      </trkpt>
      <trkpt lat="45.97037" lon="4.78956">
        <ele>205</ele>
        <time>2018-02-13T11:38:24Z</time>
      </trkpt>
      <trkpt lat="45.97033" lon="4.78948">
        <ele>205</ele>
        <time>2018-02-13T11:38:25Z</time>
      </trkpt>
      <trkpt lat="45.97029" lon="4.78942">
        <ele>205</ele>
        <time>2018-02-13T11:38:26Z</time>
      </trkpt>
      <trkpt lat="45.97026" lon="4.78936">
        <ele>205</ele>
        <time>2018-02-13T11:38:27Z</time>
      </trkpt>
      <trkpt lat="45.97022" lon="4.78929">
        <ele>205</ele>
        <time>2018-02-13T11:38:28Z</time>
      </trkpt>
      <trkpt lat="45.97018" lon="4.78922">
        <ele>205</ele>
        <time>2018-02-13T11:38:29Z</time>
      </trkpt>
      <trkpt lat="45.97014" lon="4.78917">
        <ele>206</ele>
        <time>2018-02-13T11:38:30Z</time>
      </trkpt>
      <trkpt lat="45.9701" lon="4.78911">
        <ele>206</ele>
        <time>2018-02-13T11:38:31Z</time>
      </trkpt>
      <trkpt lat="45.97005" lon="4.78905">
        <ele>206</ele>
        <time>2018-02-13T11:38:32Z</time>
      </trkpt>
      <trkpt lat="45.97" lon="4.78899">
        <ele>204</ele>
        <time>2018-02-13T11:38:33Z</time>
      </trkpt>
      <trkpt lat="45.96995" lon="4.78895">
        <ele>203</ele>
        <time>2018-02-13T11:38:34Z</time>
      </trkpt>
      <trkpt lat="45.96991" lon="4.78889">
        <ele>203</ele>
        <time>2018-02-13T11:38:35Z</time>
      </trkpt>
      <trkpt lat="45.96986" lon="4.78884">
        <ele>203</ele>
        <time>2018-02-13T11:38:36Z</time>
      </trkpt>
      <trkpt lat="45.96982" lon="4.78878">
        <ele>203</ele>
        <time>2018-02-13T11:38:37Z</time>
      </trkpt>
      <trkpt lat="45.96977" lon="4.78873">
        <ele>203</ele>
        <time>2018-02-13T11:38:38Z</time>
      </trkpt>
      <trkpt lat="45.96973" lon="4.78868">
        <ele>203</ele>
        <time>2018-02-13T11:38:39Z</time>
      </trkpt>
      <trkpt lat="45.96968" lon="4.78864">
        <ele>203</ele>
        <time>2018-02-13T11:38:40Z</time>
      </trkpt>
      <trkpt lat="45.96963" lon="4.78859">
        <ele>203</ele>
        <time>2018-02-13T11:38:41Z</time>
      </trkpt>
      <trkpt lat="45.96958" lon="4.78854">
        <ele>203</ele>
        <time>2018-02-13T11:38:42Z</time>
      </trkpt>
      <trkpt lat="45.96953" lon="4.78848">
        <ele>203</ele>
        <time>2018-02-13T11:38:43Z</time>
      </trkpt>
      <trkpt lat="45.96949" lon="4.78841">
        <ele>202</ele>
        <time>2018-02-13T11:38:44Z</time>
      </trkpt>
      <trkpt lat="45.96944" lon="4.78835">
        <ele>202</ele>
        <time>2018-02-13T11:38:45Z</time>
      </trkpt>
      <trkpt lat="45.9694" lon="4.7883">
        <ele>203</ele>
        <time>2018-02-13T11:38:46Z</time>
      </trkpt>
      <trkpt lat="45.96936" lon="4.78824">
        <ele>202</ele>
        <time>2018-02-13T11:38:47Z</time>
      </trkpt>
      <trkpt lat="45.96933" lon="4.78818">
        <ele>202</ele>
        <time>2018-02-13T11:38:48Z</time>
      </trkpt>
      <trkpt lat="45.96929" lon="4.78812">
        <ele>203</ele>
        <time>2018-02-13T11:38:49Z</time>
      </trkpt>
      <trkpt lat="45.96925" lon="4.78806">
        <ele>203</ele>
        <time>2018-02-13T11:38:50Z</time>
      </trkpt>
      <trkpt lat="45.96922" lon="4.788">
        <ele>203</ele>
        <time>2018-02-13T11:38:51Z</time>
      </trkpt>
      <trkpt lat="45.96919" lon="4.78794">
        <ele>203</ele>
        <time>2018-02-13T11:38:52Z</time>
      </trkpt>
      <trkpt lat="45.96915" lon="4.78787">
        <ele>201</ele>
        <time>2018-02-13T11:38:53Z</time>
      </trkpt>
      <trkpt lat="45.96912" lon="4.78781">
        <ele>201</ele>
        <time>2018-02-13T11:38:54Z</time>
      </trkpt>
      <trkpt lat="45.96909" lon="4.78774">
        <ele>201</ele>
        <time>2018-02-13T11:38:55Z</time>
      </trkpt>
      <trkpt lat="45.96905" lon="4.78768">
        <ele>201</ele>
        <time>2018-02-13T11:38:56Z</time>
      </trkpt>
      <trkpt lat="45.96902" lon="4.78761">
        <ele>202</ele>
        <time>2018-02-13T11:38:57Z</time>
      </trkpt>
      <trkpt lat="45.96899" lon="4.78755">
        <ele>202</ele>
        <time>2018-02-13T11:38:58Z</time>
      </trkpt>
      <trkpt lat="45.96895" lon="4.78748">
        <ele>202</ele>
        <time>2018-02-13T11:38:59Z</time>
      </trkpt>
      <trkpt lat="45.96892" lon="4.78741">
        <ele>202</ele>
        <time>2018-02-13T11:39:00Z</time>
      </trkpt>
      <trkpt lat="45.96888" lon="4.78733">
        <ele>202</ele>
        <time>2018-02-13T11:39:01Z</time>
      </trkpt>
      <trkpt lat="45.96885" lon="4.78727">
        <ele>202</ele>
        <time>2018-02-13T11:39:02Z</time>
      </trkpt>
      <trkpt lat="45.96882" lon="4.7872">
        <ele>202</ele>
        <time>2018-02-13T11:39:03Z</time>
      </trkpt>
      <trkpt lat="45.96879" lon="4.78712">
        <ele>202</ele>
        <time>2018-02-13T11:39:04Z</time>
      </trkpt>
      <trkpt lat="45.96876" lon="4.78706">
        <ele>202</ele>
        <time>2018-02-13T11:39:05Z</time>
      </trkpt>
      <trkpt lat="45.96872" lon="4.78699">
        <ele>202</ele>
        <time>2018-02-13T11:39:06Z</time>
      </trkpt>
      <trkpt lat="45.9687" lon="4.78693">
        <ele>202</ele>
        <time>2018-02-13T11:39:07Z</time>
      </trkpt>
      <trkpt lat="45.96866" lon="4.78688">
        <ele>202</ele>
        <time>2018-02-13T11:39:08Z</time>
      </trkpt>
      <trkpt lat="45.96863" lon="4.78681">
        <ele>202</ele>
        <time>2018-02-13T11:39:09Z</time>
      </trkpt>
      <trkpt lat="45.9686" lon="4.78674">
        <ele>202</ele>
        <time>2018-02-13T11:39:10Z</time>
      </trkpt>
      <trkpt lat="45.96856" lon="4.78668">
        <ele>202</ele>
        <time>2018-02-13T11:39:11Z</time>
      </trkpt>
      <trkpt lat="45.96853" lon="4.78661">
        <ele>203</ele>
        <time>2018-02-13T11:39:12Z</time>
      </trkpt>
      <trkpt lat="45.96849" lon="4.78654">
        <ele>203</ele>
        <time>2018-02-13T11:39:13Z</time>
      </trkpt>
      <trkpt lat="45.96845" lon="4.78648">
        <ele>203</ele>
        <time>2018-02-13T11:39:14Z</time>
      </trkpt>
      <trkpt lat="45.96843" lon="4.78641">
        <ele>203</ele>
        <time>2018-02-13T11:39:15Z</time>
      </trkpt>
      <trkpt lat="45.96839" lon="4.78635">
        <ele>203</ele>
        <time>2018-02-13T11:39:16Z</time>
      </trkpt>
      <trkpt lat="45.96837" lon="4.78628">
        <ele>203</ele>
        <time>2018-02-13T11:39:17Z</time>
      </trkpt>
      <trkpt lat="45.96834" lon="4.78621">
        <ele>203</ele>
        <time>2018-02-13T11:39:18Z</time>
      </trkpt>
      <trkpt lat="45.96832" lon="4.78614">
        <ele>202</ele>
        <time>2018-02-13T11:39:19Z</time>
      </trkpt>
      <trkpt lat="45.9683" lon="4.78607">
        <ele>202</ele>
        <time>2018-02-13T11:39:20Z</time>
      </trkpt>
      <trkpt lat="45.96826" lon="4.78599">
        <ele>202</ele>
        <time>2018-02-13T11:39:21Z</time>
      </trkpt>
      <trkpt lat="45.96823" lon="4.78592">
        <ele>202</ele>
        <time>2018-02-13T11:39:22Z</time>
      </trkpt>
      <trkpt lat="45.96821" lon="4.78585">
        <ele>202</ele>
        <time>2018-02-13T11:39:23Z</time>
      </trkpt>
      <trkpt lat="45.96817" lon="4.78579">
        <ele>203</ele>
        <time>2018-02-13T11:39:24Z</time>
      </trkpt>
      <trkpt lat="45.96815" lon="4.78572">
        <ele>203</ele>
        <time>2018-02-13T11:39:25Z</time>
      </trkpt>
      <trkpt lat="45.96811" lon="4.78565">
        <ele>203</ele>
        <time>2018-02-13T11:39:26Z</time>
      </trkpt>
      <trkpt lat="45.96807" lon="4.78559">
        <ele>203</ele>
        <time>2018-02-13T11:39:27Z</time>
      </trkpt>
      <trkpt lat="45.96803" lon="4.78552">
        <ele>203</ele>
        <time>2018-02-13T11:39:28Z</time>
      </trkpt>
      <trkpt lat="45.96799" lon="4.78546">
        <ele>203</ele>
        <time>2018-02-13T11:39:29Z</time>
      </trkpt>
      <trkpt lat="45.96794" lon="4.78539">
        <ele>203</ele>
        <time>2018-02-13T11:39:30Z</time>
      </trkpt>
      <trkpt lat="45.96789" lon="4.78533">
        <ele>203</ele>
        <time>2018-02-13T11:39:31Z</time>
      </trkpt>
      <trkpt lat="45.96785" lon="4.78525">
        <ele>203</ele>
        <time>2018-02-13T11:39:32Z</time>
      </trkpt>
      <trkpt lat="45.96781" lon="4.78519">
        <ele>203</ele>
        <time>2018-02-13T11:39:33Z</time>
      </trkpt>
      <trkpt lat="45.96777" lon="4.78512">
        <ele>203</ele>
        <time>2018-02-13T11:39:34Z</time>
      </trkpt>
      <trkpt lat="45.96773" lon="4.78506">
        <ele>203</ele>
        <time>2018-02-13T11:39:35Z</time>
      </trkpt>
      <trkpt lat="45.96769" lon="4.78499">
        <ele>205</ele>
        <time>2018-02-13T11:39:36Z</time>
      </trkpt>
      <trkpt lat="45.96765" lon="4.78494">
        <ele>205</ele>
        <time>2018-02-13T11:39:37Z</time>
      </trkpt>
      <trkpt lat="45.96759" lon="4.7849">
        <ele>204</ele>
        <time>2018-02-13T11:39:38Z</time>
      </trkpt>
      <trkpt lat="45.96755" lon="4.78484">
        <ele>205</ele>
        <time>2018-02-13T11:39:39Z</time>
      </trkpt>
      <trkpt lat="45.96751" lon="4.78477">
        <ele>205</ele>
        <time>2018-02-13T11:39:40Z</time>
      </trkpt>
      <trkpt lat="45.96746" lon="4.78473">
        <ele>203</ele>
        <time>2018-02-13T11:39:41Z</time>
      </trkpt>
      <trkpt lat="45.96742" lon="4.78469">
        <ele>203</ele>
        <time>2018-02-13T11:39:42Z</time>
      </trkpt>
      <trkpt lat="45.96737" lon="4.78465">
        <ele>203</ele>
        <time>2018-02-13T11:39:43Z</time>
      </trkpt>
      <trkpt lat="45.96733" lon="4.78461">
        <ele>203</ele>
        <time>2018-02-13T11:39:44Z</time>
      </trkpt>
      <trkpt lat="45.96728" lon="4.78456">
        <ele>203</ele>
        <time>2018-02-13T11:39:45Z</time>
      </trkpt>
      <trkpt lat="45.96723" lon="4.78451">
        <ele>203</ele>
        <time>2018-02-13T11:39:46Z</time>
      </trkpt>
      <trkpt lat="45.96718" lon="4.78447">
        <ele>203</ele>
        <time>2018-02-13T11:39:47Z</time>
      </trkpt>
      <trkpt lat="45.96714" lon="4.78444">
        <ele>203</ele>
        <time>2018-02-13T11:39:48Z</time>
      </trkpt>
      <trkpt lat="45.9671" lon="4.7844">
        <ele>203</ele>
        <time>2018-02-13T11:39:49Z</time>
      </trkpt>
      <trkpt lat="45.96706" lon="4.78435">
        <ele>203</ele>
        <time>2018-02-13T11:39:50Z</time>
      </trkpt>
      <trkpt lat="45.96702" lon="4.78431">
        <ele>203</ele>
        <time>2018-02-13T11:39:51Z</time>
      </trkpt>
      <trkpt lat="45.96697" lon="4.78427">
        <ele>203</ele>
        <time>2018-02-13T11:39:52Z</time>
      </trkpt>
      <trkpt lat="45.96693" lon="4.78423">
        <ele>202</ele>
        <time>2018-02-13T11:39:53Z</time>
      </trkpt>
      <trkpt lat="45.9669" lon="4.78419">
        <ele>202</ele>
        <time>2018-02-13T11:39:54Z</time>
      </trkpt>
      <trkpt lat="45.96683" lon="4.78412">
        <ele>204</ele>
        <time>2018-02-13T11:39:56Z</time>
      </trkpt>
      <trkpt lat="45.96679" lon="4.78408">
        <ele>204</ele>
        <time>2018-02-13T11:39:57Z</time>
      </trkpt>
      <trkpt lat="45.96675" lon="4.78403">
        <ele>204</ele>
        <time>2018-02-13T11:39:58Z</time>
      </trkpt>
      <trkpt lat="45.96671" lon="4.78399">
        <ele>204</ele>
        <time>2018-02-13T11:39:59Z</time>
      </trkpt>
      <trkpt lat="45.96667" lon="4.78394">
        <ele>204</ele>
        <time>2018-02-13T11:40:00Z</time>
      </trkpt>
      <trkpt lat="45.96663" lon="4.7839">
        <ele>201</ele>
        <time>2018-02-13T11:40:01Z</time>
      </trkpt>
      <trkpt lat="45.96658" lon="4.78386">
        <ele>201</ele>
        <time>2018-02-13T11:40:02Z</time>
      </trkpt>
      <trkpt lat="45.96654" lon="4.78381">
        <ele>201</ele>
        <time>2018-02-13T11:40:03Z</time>
      </trkpt>
      <trkpt lat="45.96649" lon="4.78376">
        <ele>201</ele>
        <time>2018-02-13T11:40:04Z</time>
      </trkpt>
      <trkpt lat="45.96646" lon="4.78371">
        <ele>202</ele>
        <time>2018-02-13T11:40:05Z</time>
      </trkpt>
      <trkpt lat="45.96641" lon="4.78367">
        <ele>201</ele>
        <time>2018-02-13T11:40:06Z</time>
      </trkpt>
      <trkpt lat="45.96637" lon="4.78364">
        <ele>201</ele>
        <time>2018-02-13T11:40:07Z</time>
      </trkpt>
      <trkpt lat="45.96632" lon="4.78359">
        <ele>201</ele>
        <time>2018-02-13T11:40:08Z</time>
      </trkpt>
      <trkpt lat="45.96628" lon="4.78355">
        <ele>201</ele>
        <time>2018-02-13T11:40:09Z</time>
      </trkpt>
      <trkpt lat="45.96623" lon="4.78351">
        <ele>201</ele>
        <time>2018-02-13T11:40:10Z</time>
      </trkpt>
      <trkpt lat="45.96618" lon="4.78347">
        <ele>201</ele>
        <time>2018-02-13T11:40:11Z</time>
      </trkpt>
      <trkpt lat="45.96613" lon="4.78343">
        <ele>200</ele>
        <time>2018-02-13T11:40:12Z</time>
      </trkpt>
      <trkpt lat="45.96608" lon="4.78337">
        <ele>200</ele>
        <time>2018-02-13T11:40:13Z</time>
      </trkpt>
      <trkpt lat="45.96603" lon="4.78333">
        <ele>203</ele>
        <time>2018-02-13T11:40:14Z</time>
      </trkpt>
      <trkpt lat="45.96599" lon="4.78329">
        <ele>202</ele>
        <time>2018-02-13T11:40:15Z</time>
      </trkpt>
      <trkpt lat="45.96595" lon="4.78324">
        <ele>202</ele>
        <time>2018-02-13T11:40:16Z</time>
      </trkpt>
      <trkpt lat="45.9659" lon="4.7832">
        <ele>202</ele>
        <time>2018-02-13T11:40:17Z</time>
      </trkpt>
      <trkpt lat="45.96586" lon="4.78316">
        <ele>202</ele>
        <time>2018-02-13T11:40:18Z</time>
      </trkpt>
      <trkpt lat="45.96581" lon="4.78311">
        <ele>199</ele>
        <time>2018-02-13T11:40:19Z</time>
      </trkpt>
      <trkpt lat="45.96576" lon="4.78306">
        <ele>200</ele>
        <time>2018-02-13T11:40:20Z</time>
      </trkpt>
      <trkpt lat="45.96571" lon="4.78301">
        <ele>200</ele>
        <time>2018-02-13T11:40:21Z</time>
      </trkpt>
      <trkpt lat="45.96566" lon="4.78297">
        <ele>200</ele>
        <time>2018-02-13T11:40:22Z</time>
      </trkpt>
      <trkpt lat="45.96561" lon="4.78292">
        <ele>200</ele>
        <time>2018-02-13T11:40:23Z</time>
      </trkpt>
      <trkpt lat="45.96556" lon="4.78287">
        <ele>200</ele>
        <time>2018-02-13T11:40:24Z</time>
      </trkpt>
      <trkpt lat="45.96551" lon="4.78282">
        <ele>200</ele>
        <time>2018-02-13T11:40:25Z</time>
      </trkpt>
      <trkpt lat="45.96546" lon="4.78276">
        <ele>200</ele>
        <time>2018-02-13T11:40:26Z</time>
      </trkpt>
      <trkpt lat="45.96541" lon="4.7827">
        <ele>200</ele>
        <time>2018-02-13T11:40:27Z</time>
      </trkpt>
      <trkpt lat="45.96538" lon="4.78263">
        <ele>200</ele>
        <time>2018-02-13T11:40:28Z</time>
      </trkpt>
      <trkpt lat="45.96534" lon="4.78257">
        <ele>200</ele>
        <time>2018-02-13T11:40:29Z</time>
      </trkpt>
      <trkpt lat="45.9653" lon="4.78251">
        <ele>200</ele>
        <time>2018-02-13T11:40:30Z</time>
      </trkpt>
      <trkpt lat="45.96526" lon="4.78245">
        <ele>204</ele>
        <time>2018-02-13T11:40:31Z</time>
      </trkpt>
      <trkpt lat="45.96522" lon="4.78239">
        <ele>203</ele>
        <time>2018-02-13T11:40:32Z</time>
      </trkpt>
      <trkpt lat="45.96518" lon="4.78233">
        <ele>203</ele>
        <time>2018-02-13T11:40:33Z</time>
      </trkpt>
      <trkpt lat="45.96515" lon="4.78226">
        <ele>204</ele>
        <time>2018-02-13T11:40:34Z</time>
      </trkpt>
      <trkpt lat="45.96511" lon="4.78221">
        <ele>204</ele>
        <time>2018-02-13T11:40:35Z</time>
      </trkpt>
      <trkpt lat="45.96507" lon="4.78217">
        <ele>204</ele>
        <time>2018-02-13T11:40:36Z</time>
      </trkpt>
      <trkpt lat="45.96504" lon="4.78212">
        <ele>205</ele>
        <time>2018-02-13T11:40:37Z</time>
      </trkpt>
      <trkpt lat="45.96499" lon="4.78206">
        <ele>200</ele>
        <time>2018-02-13T11:40:38Z</time>
      </trkpt>
      <trkpt lat="45.96495" lon="4.78201">
        <ele>200</ele>
        <time>2018-02-13T11:40:39Z</time>
      </trkpt>
      <trkpt lat="45.96489" lon="4.78198">
        <ele>200</ele>
        <time>2018-02-13T11:40:40Z</time>
      </trkpt>
      <trkpt lat="45.96484" lon="4.78194">
        <ele>200</ele>
        <time>2018-02-13T11:40:41Z</time>
      </trkpt>
      <trkpt lat="45.96479" lon="4.78192">
        <ele>200</ele>
        <time>2018-02-13T11:40:42Z</time>
      </trkpt>
      <trkpt lat="45.96474" lon="4.78188">
        <ele>200</ele>
        <time>2018-02-13T11:40:43Z</time>
      </trkpt>
      <trkpt lat="45.96469" lon="4.78185">
        <ele>200</ele>
        <time>2018-02-13T11:40:44Z</time>
      </trkpt>
      <trkpt lat="45.96465" lon="4.78181">
        <ele>200</ele>
        <time>2018-02-13T11:40:45Z</time>
      </trkpt>
      <trkpt lat="45.96461" lon="4.78177">
        <ele>200</ele>
        <time>2018-02-13T11:40:46Z</time>
      </trkpt>
      <trkpt lat="45.96456" lon="4.78172">
        <ele>200</ele>
        <time>2018-02-13T11:40:47Z</time>
      </trkpt>
      <trkpt lat="45.96452" lon="4.78168">
        <ele>200</ele>
        <time>2018-02-13T11:40:48Z</time>
      </trkpt>
      <trkpt lat="45.96447" lon="4.78165">
        <ele>203</ele>
        <time>2018-02-13T11:40:49Z</time>
      </trkpt>
      <trkpt lat="45.96443" lon="4.78161">
        <ele>203</ele>
        <time>2018-02-13T11:40:50Z</time>
      </trkpt>
      <trkpt lat="45.96439" lon="4.78156">
        <ele>203</ele>
        <time>2018-02-13T11:40:51Z</time>
      </trkpt>
      <trkpt lat="45.96435" lon="4.78153">
        <ele>202</ele>
        <time>2018-02-13T11:40:52Z</time>
      </trkpt>
      <trkpt lat="45.96431" lon="4.78148">
        <ele>203</ele>
        <time>2018-02-13T11:40:53Z</time>
      </trkpt>
      <trkpt lat="45.96426" lon="4.78144">
        <ele>203</ele>
        <time>2018-02-13T11:40:54Z</time>
      </trkpt>
      <trkpt lat="45.96422" lon="4.7814">
        <ele>203</ele>
        <time>2018-02-13T11:40:55Z</time>
      </trkpt>
      <trkpt lat="45.96418" lon="4.78137">
        <ele>203</ele>
        <time>2018-02-13T11:40:56Z</time>
      </trkpt>
      <trkpt lat="45.96413" lon="4.78133">
        <ele>199</ele>
        <time>2018-02-13T11:40:57Z</time>
      </trkpt>
      <trkpt lat="45.96408" lon="4.78129">
        <ele>199</ele>
        <time>2018-02-13T11:40:58Z</time>
      </trkpt>
      <trkpt lat="45.96404" lon="4.78125">
        <ele>200</ele>
        <time>2018-02-13T11:40:59Z</time>
      </trkpt>
      <trkpt lat="45.96399" lon="4.78121">
        <ele>200</ele>
        <time>2018-02-13T11:41:00Z</time>
      </trkpt>
      <trkpt lat="45.96394" lon="4.78117">
        <ele>200</ele>
        <time>2018-02-13T11:41:01Z</time>
      </trkpt>
      <trkpt lat="45.9639" lon="4.78112">
        <ele>200</ele>
        <time>2018-02-13T11:41:02Z</time>
      </trkpt>
      <trkpt lat="45.96385" lon="4.78108">
        <ele>200</ele>
        <time>2018-02-13T11:41:03Z</time>
      </trkpt>
      <trkpt lat="45.9638" lon="4.78103">
        <ele>200</ele>
        <time>2018-02-13T11:41:04Z</time>
      </trkpt>
      <trkpt lat="45.96376" lon="4.78098">
        <ele>200</ele>
        <time>2018-02-13T11:41:05Z</time>
      </trkpt>
      <trkpt lat="45.96372" lon="4.78093">
        <ele>200</ele>
        <time>2018-02-13T11:41:06Z</time>
      </trkpt>
      <trkpt lat="45.96368" lon="4.78088">
        <ele>199</ele>
        <time>2018-02-13T11:41:07Z</time>
      </trkpt>
      <trkpt lat="45.96365" lon="4.78082">
        <ele>202</ele>
        <time>2018-02-13T11:41:08Z</time>
      </trkpt>
      <trkpt lat="45.96361" lon="4.78078">
        <ele>202</ele>
        <time>2018-02-13T11:41:09Z</time>
      </trkpt>
      <trkpt lat="45.96357" lon="4.78073">
        <ele>202</ele>
        <time>2018-02-13T11:41:10Z</time>
      </trkpt>
      <trkpt lat="45.96353" lon="4.78068">
        <ele>202</ele>
        <time>2018-02-13T11:41:11Z</time>
      </trkpt>
      <trkpt lat="45.96349" lon="4.78063">
        <ele>202</ele>
        <time>2018-02-13T11:41:12Z</time>
      </trkpt>
      <trkpt lat="45.96346" lon="4.78058">
        <ele>202</ele>
        <time>2018-02-13T11:41:13Z</time>
      </trkpt>
      <trkpt lat="45.96341" lon="4.78054">
        <ele>202</ele>
        <time>2018-02-13T11:41:14Z</time>
      </trkpt>
      <trkpt lat="45.96337" lon="4.78049">
        <ele>203</ele>
        <time>2018-02-13T11:41:15Z</time>
      </trkpt>
      <trkpt lat="45.96332" lon="4.78044">
        <ele>199</ele>
        <time>2018-02-13T11:41:16Z</time>
      </trkpt>
      <trkpt lat="45.96328" lon="4.78039">
        <ele>200</ele>
        <time>2018-02-13T11:41:17Z</time>
      </trkpt>
      <trkpt lat="45.96324" lon="4.78035">
        <ele>200</ele>
        <time>2018-02-13T11:41:18Z</time>
      </trkpt>
      <trkpt lat="45.96321" lon="4.78029">
        <ele>200</ele>
        <time>2018-02-13T11:41:19Z</time>
      </trkpt>
      <trkpt lat="45.96316" lon="4.78025">
        <ele>200</ele>
        <time>2018-02-13T11:41:20Z</time>
      </trkpt>
      <trkpt lat="45.9631" lon="4.7802">
        <ele>200</ele>
        <time>2018-02-13T11:41:21Z</time>
      </trkpt>
      <trkpt lat="45.96305" lon="4.78015">
        <ele>200</ele>
        <time>2018-02-13T11:41:22Z</time>
      </trkpt>
      <trkpt lat="45.963" lon="4.7801">
        <ele>200</ele>
        <time>2018-02-13T11:41:23Z</time>
      </trkpt>
      <trkpt lat="45.96296" lon="4.78005">
        <ele>199</ele>
        <time>2018-02-13T11:41:24Z</time>
      </trkpt>
      <trkpt lat="45.96291" lon="4.78">
        <ele>199</ele>
        <time>2018-02-13T11:41:25Z</time>
      </trkpt>
      <trkpt lat="45.96286" lon="4.77996">
        <ele>204</ele>
        <time>2018-02-13T11:41:26Z</time>
      </trkpt>
      <trkpt lat="45.96283" lon="4.77993">
        <ele>204</ele>
        <time>2018-02-13T11:41:27Z</time>
      </trkpt>
      <trkpt lat="45.96277" lon="4.77985">
        <ele>203</ele>
        <time>2018-02-13T11:41:29Z</time>
      </trkpt>
      <trkpt lat="45.96272" lon="4.77982">
        <ele>203</ele>
        <time>2018-02-13T11:41:30Z</time>
      </trkpt>
      <trkpt lat="45.96266" lon="4.77979">
        <ele>203</ele>
        <time>2018-02-13T11:41:31Z</time>
      </trkpt>
      <trkpt lat="45.96261" lon="4.77976">
        <ele>203</ele>
        <time>2018-02-13T11:41:32Z</time>
      </trkpt>
      <trkpt lat="45.96257" lon="4.77974">
        <ele>203</ele>
        <time>2018-02-13T11:41:33Z</time>
      </trkpt>
      <trkpt lat="45.96253" lon="4.77971">
        <ele>203</ele>
        <time>2018-02-13T11:41:34Z</time>
      </trkpt>
      <trkpt lat="45.96249" lon="4.77967">
        <ele>199</ele>
        <time>2018-02-13T11:41:35Z</time>
      </trkpt>
      <trkpt lat="45.96246" lon="4.77962">
        <ele>199</ele>
        <time>2018-02-13T11:41:36Z</time>
      </trkpt>
      <trkpt lat="45.96238" lon="4.77956">
        <ele>199</ele>
        <time>2018-02-13T11:41:38Z</time>
      </trkpt>
      <trkpt lat="45.96234" lon="4.77954">
        <ele>199</ele>
        <time>2018-02-13T11:41:39Z</time>
      </trkpt>
      <trkpt lat="45.9623" lon="4.77951">
        <ele>199</ele>
        <time>2018-02-13T11:41:40Z</time>
      </trkpt>
      <trkpt lat="45.96227" lon="4.77945">
        <ele>200</ele>
        <time>2018-02-13T11:41:41Z</time>
      </trkpt>
      <trkpt lat="45.96224" lon="4.77939">
        <ele>200</ele>
        <time>2018-02-13T11:41:42Z</time>
      </trkpt>
      <trkpt lat="45.96221" lon="4.77934">
        <ele>200</ele>
        <time>2018-02-13T11:41:43Z</time>
      </trkpt>
      <trkpt lat="45.96218" lon="4.77929">
        <ele>200</ele>
        <time>2018-02-13T11:41:44Z</time>
      </trkpt>
      <trkpt lat="45.96214" lon="4.77923">
        <ele>200</ele>
        <time>2018-02-13T11:41:45Z</time>
      </trkpt>
      <trkpt lat="45.96211" lon="4.77917">
        <ele>203</ele>
        <time>2018-02-13T11:41:46Z</time>
      </trkpt>
      <trkpt lat="45.96208" lon="4.77911">
        <ele>202</ele>
        <time>2018-02-13T11:41:47Z</time>
      </trkpt>
      <trkpt lat="45.96204" lon="4.77906">
        <ele>202</ele>
        <time>2018-02-13T11:41:48Z</time>
      </trkpt>
      <trkpt lat="45.96201" lon="4.779">
        <ele>202</ele>
        <time>2018-02-13T11:41:49Z</time>
      </trkpt>
      <trkpt lat="45.96198" lon="4.77895">
        <ele>201</ele>
        <time>2018-02-13T11:41:50Z</time>
      </trkpt>
      <trkpt lat="45.96194" lon="4.77889">
        <ele>201</ele>
        <time>2018-02-13T11:41:51Z</time>
      </trkpt>
      <trkpt lat="45.96191" lon="4.77883">
        <ele>201</ele>
        <time>2018-02-13T11:41:52Z</time>
      </trkpt>
      <trkpt lat="45.96188" lon="4.77878">
        <ele>201</ele>
        <time>2018-02-13T11:41:53Z</time>
      </trkpt>
      <trkpt lat="45.96184" lon="4.77873">
        <ele>201</ele>
        <time>2018-02-13T11:41:54Z</time>
      </trkpt>
      <trkpt lat="45.96181" lon="4.77868">
        <ele>201</ele>
        <time>2018-02-13T11:41:55Z</time>
      </trkpt>
      <trkpt lat="45.96176" lon="4.77858">
        <ele>201</ele>
        <time>2018-02-13T11:41:57Z</time>
      </trkpt>
      <trkpt lat="45.96173" lon="4.77852">
        <ele>201</ele>
        <time>2018-02-13T11:41:58Z</time>
      </trkpt>
      <trkpt lat="45.96169" lon="4.77847">
        <ele>200</ele>
        <time>2018-02-13T11:41:59Z</time>
      </trkpt>
      <trkpt lat="45.96167" lon="4.77841">
        <ele>198</ele>
        <time>2018-02-13T11:42:00Z</time>
      </trkpt>
      <trkpt lat="45.96164" lon="4.77836">
        <ele>198</ele>
        <time>2018-02-13T11:42:01Z</time>
      </trkpt>
      <trkpt lat="45.9616" lon="4.77831">
        <ele>199</ele>
        <time>2018-02-13T11:42:02Z</time>
      </trkpt>
      <trkpt lat="45.96157" lon="4.77824">
        <ele>198</ele>
        <time>2018-02-13T11:42:03Z</time>
      </trkpt>
      <trkpt lat="45.96153" lon="4.77819">
        <ele>198</ele>
        <time>2018-02-13T11:42:04Z</time>
      </trkpt>
      <trkpt lat="45.96147" lon="4.77813">
        <ele>198</ele>
        <time>2018-02-13T11:42:05Z</time>
      </trkpt>
      <trkpt lat="45.96144" lon="4.77807">
        <ele>198</ele>
        <time>2018-02-13T11:42:06Z</time>
      </trkpt>
      <trkpt lat="45.9614" lon="4.77801">
        <ele>198</ele>
        <time>2018-02-13T11:42:07Z</time>
      </trkpt>
      <trkpt lat="45.96136" lon="4.77795">
        <ele>198</ele>
        <time>2018-02-13T11:42:08Z</time>
      </trkpt>
      <trkpt lat="45.96133" lon="4.7779">
        <ele>198</ele>
        <time>2018-02-13T11:42:09Z</time>
      </trkpt>
      <trkpt lat="45.96131" lon="4.77784">
        <ele>198</ele>
        <time>2018-02-13T11:42:10Z</time>
      </trkpt>
      <trkpt lat="45.96128" lon="4.77778">
        <ele>198</ele>
        <time>2018-02-13T11:42:11Z</time>
      </trkpt>
      <trkpt lat="45.96124" lon="4.77772">
        <ele>197</ele>
        <time>2018-02-13T11:42:12Z</time>
      </trkpt>
      <trkpt lat="45.96121" lon="4.77767">
        <ele>197</ele>
        <time>2018-02-13T11:42:13Z</time>
      </trkpt>
      <trkpt lat="45.96118" lon="4.77762">
        <ele>197</ele>
        <time>2018-02-13T11:42:14Z</time>
      </trkpt>
      <trkpt lat="45.96115" lon="4.77756">
        <ele>197</ele>
        <time>2018-02-13T11:42:15Z</time>
      </trkpt>
      <trkpt lat="45.96112" lon="4.77752">
        <ele>197</ele>
        <time>2018-02-13T11:42:16Z</time>
      </trkpt>
      <trkpt lat="45.96108" lon="4.77746">
        <ele>199</ele>
        <time>2018-02-13T11:42:17Z</time>
      </trkpt>
      <trkpt lat="45.96105" lon="4.77741">
        <ele>199</ele>
        <time>2018-02-13T11:42:18Z</time>
      </trkpt>
      <trkpt lat="45.96101" lon="4.77734">
        <ele>199</ele>
        <time>2018-02-13T11:42:19Z</time>
      </trkpt>
      <trkpt lat="45.96097" lon="4.77728">
        <ele>199</ele>
        <time>2018-02-13T11:42:20Z</time>
      </trkpt>
      <trkpt lat="45.96093" lon="4.77722">
        <ele>199</ele>
        <time>2018-02-13T11:42:21Z</time>
      </trkpt>
      <trkpt lat="45.96089" lon="4.77716">
        <ele>199</ele>
        <time>2018-02-13T11:42:22Z</time>
      </trkpt>
      <trkpt lat="45.96085" lon="4.77709">
        <ele>200</ele>
        <time>2018-02-13T11:42:23Z</time>
      </trkpt>
      <trkpt lat="45.96081" lon="4.77703">
        <ele>197</ele>
        <time>2018-02-13T11:42:24Z</time>
      </trkpt>
      <trkpt lat="45.96077" lon="4.77697">
        <ele>197</ele>
        <time>2018-02-13T11:42:25Z</time>
      </trkpt>
      <trkpt lat="45.96074" lon="4.77691">
        <ele>198</ele>
        <time>2018-02-13T11:42:26Z</time>
      </trkpt>
      <trkpt lat="45.96069" lon="4.77686">
        <ele>198</ele>
        <time>2018-02-13T11:42:27Z</time>
      </trkpt>
      <trkpt lat="45.96066" lon="4.7768">
        <ele>198</ele>
        <time>2018-02-13T11:42:28Z</time>
      </trkpt>
      <trkpt lat="45.96062" lon="4.77675">
        <ele>198</ele>
        <time>2018-02-13T11:42:29Z</time>
      </trkpt>
      <trkpt lat="45.96059" lon="4.77669">
        <ele>198</ele>
        <time>2018-02-13T11:42:30Z</time>
      </trkpt>
      <trkpt lat="45.96055" lon="4.77664">
        <ele>200</ele>
        <time>2018-02-13T11:42:31Z</time>
      </trkpt>
      <trkpt lat="45.96051" lon="4.77659">
        <ele>200</ele>
        <time>2018-02-13T11:42:32Z</time>
      </trkpt>
      <trkpt lat="45.96047" lon="4.77655">
        <ele>199</ele>
        <time>2018-02-13T11:42:33Z</time>
      </trkpt>
      <trkpt lat="45.96044" lon="4.77649">
        <ele>199</ele>
        <time>2018-02-13T11:42:34Z</time>
      </trkpt>
      <trkpt lat="45.9604" lon="4.77644">
        <ele>199</ele>
        <time>2018-02-13T11:42:35Z</time>
      </trkpt>
      <trkpt lat="45.96037" lon="4.7764">
        <ele>199</ele>
        <time>2018-02-13T11:42:36Z</time>
      </trkpt>
      <trkpt lat="45.96033" lon="4.77635">
        <ele>199</ele>
        <time>2018-02-13T11:42:37Z</time>
      </trkpt>
      <trkpt lat="45.96029" lon="4.7763">
        <ele>199</ele>
        <time>2018-02-13T11:42:38Z</time>
      </trkpt>
      <trkpt lat="45.96024" lon="4.77625">
        <ele>199</ele>
        <time>2018-02-13T11:42:39Z</time>
      </trkpt>
      <trkpt lat="45.9602" lon="4.77621">
        <ele>199</ele>
        <time>2018-02-13T11:42:40Z</time>
      </trkpt>
      <trkpt lat="45.96016" lon="4.77616">
        <ele>199</ele>
        <time>2018-02-13T11:42:41Z</time>
      </trkpt>
      <trkpt lat="45.96013" lon="4.7761">
        <ele>199</ele>
        <time>2018-02-13T11:42:42Z</time>
      </trkpt>
      <trkpt lat="45.96009" lon="4.77605">
        <ele>199</ele>
        <time>2018-02-13T11:42:43Z</time>
      </trkpt>
      <trkpt lat="45.96005" lon="4.77599">
        <ele>198</ele>
        <time>2018-02-13T11:42:44Z</time>
      </trkpt>
      <trkpt lat="45.96001" lon="4.77595">
        <ele>198</ele>
        <time>2018-02-13T11:42:45Z</time>
      </trkpt>
      <trkpt lat="45.95999" lon="4.77589">
        <ele>196</ele>
        <time>2018-02-13T11:42:46Z</time>
      </trkpt>
      <trkpt lat="45.95996" lon="4.77584">
        <ele>196</ele>
        <time>2018-02-13T11:42:47Z</time>
      </trkpt>
      <trkpt lat="45.95993" lon="4.77578">
        <ele>196</ele>
        <time>2018-02-13T11:42:48Z</time>
      </trkpt>
      <trkpt lat="45.9599" lon="4.77572">
        <ele>196</ele>
        <time>2018-02-13T11:42:49Z</time>
      </trkpt>
      <trkpt lat="45.95987" lon="4.77567">
        <ele>196</ele>
        <time>2018-02-13T11:42:50Z</time>
      </trkpt>
      <trkpt lat="45.95984" lon="4.77561">
        <ele>196</ele>
        <time>2018-02-13T11:42:51Z</time>
      </trkpt>
      <trkpt lat="45.95981" lon="4.77555">
        <ele>196</ele>
        <time>2018-02-13T11:42:52Z</time>
      </trkpt>
      <trkpt lat="45.95979" lon="4.77548">
        <ele>196</ele>
        <time>2018-02-13T11:42:53Z</time>
      </trkpt>
      <trkpt lat="45.95976" lon="4.77543">
        <ele>195</ele>
        <time>2018-02-13T11:42:54Z</time>
      </trkpt>
      <trkpt lat="45.95971" lon="4.77534">
        <ele>195</ele>
        <time>2018-02-13T11:42:56Z</time>
      </trkpt>
      <trkpt lat="45.95968" lon="4.77528">
        <ele>195</ele>
        <time>2018-02-13T11:42:57Z</time>
      </trkpt>
      <trkpt lat="45.95965" lon="4.77521">
        <ele>195</ele>
        <time>2018-02-13T11:42:58Z</time>
      </trkpt>
      <trkpt lat="45.95962" lon="4.77513">
        <ele>195</ele>
        <time>2018-02-13T11:42:59Z</time>
      </trkpt>
      <trkpt lat="45.95958" lon="4.77505">
        <ele>195</ele>
        <time>2018-02-13T11:43:00Z</time>
      </trkpt>
      <trkpt lat="45.95956" lon="4.77498">
        <ele>196</ele>
        <time>2018-02-13T11:43:01Z</time>
      </trkpt>
      <trkpt lat="45.95953" lon="4.77491">
        <ele>196</ele>
        <time>2018-02-13T11:43:02Z</time>
      </trkpt>
      <trkpt lat="45.9595" lon="4.77484">
        <ele>195</ele>
        <time>2018-02-13T11:43:03Z</time>
      </trkpt>
      <trkpt lat="45.95947" lon="4.77475">
        <ele>195</ele>
        <time>2018-02-13T11:43:04Z</time>
      </trkpt>
      <trkpt lat="45.95944" lon="4.77468">
        <ele>195</ele>
        <time>2018-02-13T11:43:05Z</time>
      </trkpt>
      <trkpt lat="45.95941" lon="4.7746">
        <ele>195</ele>
        <time>2018-02-13T11:43:06Z</time>
      </trkpt>
      <trkpt lat="45.95938" lon="4.7745">
        <ele>195</ele>
        <time>2018-02-13T11:43:07Z</time>
      </trkpt>
      <trkpt lat="45.95935" lon="4.77442">
        <ele>195</ele>
        <time>2018-02-13T11:43:08Z</time>
      </trkpt>
      <trkpt lat="45.95932" lon="4.77436">
        <ele>195</ele>
        <time>2018-02-13T11:43:09Z</time>
      </trkpt>
      <trkpt lat="45.95929" lon="4.77429">
        <ele>195</ele>
        <time>2018-02-13T11:43:10Z</time>
      </trkpt>
      <trkpt lat="45.95927" lon="4.77421">
        <ele>195</ele>
        <time>2018-02-13T11:43:11Z</time>
      </trkpt>
      <trkpt lat="45.95925" lon="4.77414">
        <ele>195</ele>
        <time>2018-02-13T11:43:12Z</time>
      </trkpt>
      <trkpt lat="45.95923" lon="4.77407">
        <ele>195</ele>
        <time>2018-02-13T11:43:13Z</time>
      </trkpt>
      <trkpt lat="45.95921" lon="4.77398">
        <ele>196</ele>
        <time>2018-02-13T11:43:14Z</time>
      </trkpt>
      <trkpt lat="45.95918" lon="4.7739">
        <ele>196</ele>
        <time>2018-02-13T11:43:15Z</time>
      </trkpt>
      <trkpt lat="45.95915" lon="4.77382">
        <ele>193</ele>
        <time>2018-02-13T11:43:16Z</time>
      </trkpt>
      <trkpt lat="45.95913" lon="4.77375">
        <ele>193</ele>
        <time>2018-02-13T11:43:17Z</time>
      </trkpt>
      <trkpt lat="45.9591" lon="4.77366">
        <ele>193</ele>
        <time>2018-02-13T11:43:18Z</time>
      </trkpt>
      <trkpt lat="45.95907" lon="4.77359">
        <ele>193</ele>
        <time>2018-02-13T11:43:19Z</time>
      </trkpt>
      <trkpt lat="45.95904" lon="4.7735">
        <ele>193</ele>
        <time>2018-02-13T11:43:20Z</time>
      </trkpt>
      <trkpt lat="45.95902" lon="4.77342">
        <ele>193</ele>
        <time>2018-02-13T11:43:21Z</time>
      </trkpt>
      <trkpt lat="45.95899" lon="4.77334">
        <ele>193</ele>
        <time>2018-02-13T11:43:22Z</time>
      </trkpt>
      <trkpt lat="45.95897" lon="4.77325">
        <ele>193</ele>
        <time>2018-02-13T11:43:23Z</time>
      </trkpt>
      <trkpt lat="45.95895" lon="4.77317">
        <ele>193</ele>
        <time>2018-02-13T11:43:24Z</time>
      </trkpt>
      <trkpt lat="45.95892" lon="4.77309">
        <ele>193</ele>
        <time>2018-02-13T11:43:25Z</time>
      </trkpt>
      <trkpt lat="45.9589" lon="4.77301">
        <ele>193</ele>
        <time>2018-02-13T11:43:26Z</time>
      </trkpt>
      <trkpt lat="45.95887" lon="4.77294">
        <ele>193</ele>
        <time>2018-02-13T11:43:27Z</time>
      </trkpt>
      <trkpt lat="45.95884" lon="4.77284">
        <ele>193</ele>
        <time>2018-02-13T11:43:28Z</time>
      </trkpt>
      <trkpt lat="45.95883" lon="4.77277">
        <ele>193</ele>
        <time>2018-02-13T11:43:29Z</time>
      </trkpt>
      <trkpt lat="45.95881" lon="4.77269">
        <ele>193</ele>
        <time>2018-02-13T11:43:30Z</time>
      </trkpt>
      <trkpt lat="45.95879" lon="4.7726">
        <ele>193</ele>
        <time>2018-02-13T11:43:31Z</time>
      </trkpt>
      <trkpt lat="45.95876" lon="4.7725">
        <ele>193</ele>
        <time>2018-02-13T11:43:32Z</time>
      </trkpt>
      <trkpt lat="45.95875" lon="4.77242">
        <ele>193</ele>
        <time>2018-02-13T11:43:33Z</time>
      </trkpt>
      <trkpt lat="45.95873" lon="4.77233">
        <ele>193</ele>
        <time>2018-02-13T11:43:34Z</time>
      </trkpt>
      <trkpt lat="45.95872" lon="4.77224">
        <ele>193</ele>
        <time>2018-02-13T11:43:35Z</time>
      </trkpt>
      <trkpt lat="45.9587" lon="4.77216">
        <ele>193</ele>
        <time>2018-02-13T11:43:36Z</time>
      </trkpt>
      <trkpt lat="45.95868" lon="4.77208">
        <ele>193</ele>
        <time>2018-02-13T11:43:37Z</time>
      </trkpt>
      <trkpt lat="45.95866" lon="4.772">
        <ele>193</ele>
        <time>2018-02-13T11:43:38Z</time>
      </trkpt>
      <trkpt lat="45.95865" lon="4.77192">
        <ele>193</ele>
        <time>2018-02-13T11:43:39Z</time>
      </trkpt>
      <trkpt lat="45.95863" lon="4.77185">
        <ele>192</ele>
        <time>2018-02-13T11:43:40Z</time>
      </trkpt>
      <trkpt lat="45.95861" lon="4.77177">
        <ele>192</ele>
        <time>2018-02-13T11:43:41Z</time>
      </trkpt>
      <trkpt lat="45.95859" lon="4.77171">
        <ele>192</ele>
        <time>2018-02-13T11:43:42Z</time>
      </trkpt>
      <trkpt lat="45.95857" lon="4.77163">
        <ele>192</ele>
        <time>2018-02-13T11:43:43Z</time>
      </trkpt>
      <trkpt lat="45.95855" lon="4.77155">
        <ele>192</ele>
        <time>2018-02-13T11:43:44Z</time>
      </trkpt>
      <trkpt lat="45.95852" lon="4.77147">
        <ele>193</ele>
        <time>2018-02-13T11:43:45Z</time>
      </trkpt>
      <trkpt lat="45.9585" lon="4.77138">
        <ele>193</ele>
        <time>2018-02-13T11:43:46Z</time>
      </trkpt>
      <trkpt lat="45.95848" lon="4.77129">
        <ele>193</ele>
        <time>2018-02-13T11:43:47Z</time>
      </trkpt>
      <trkpt lat="45.95847" lon="4.7712">
        <ele>193</ele>
        <time>2018-02-13T11:43:48Z</time>
      </trkpt>
      <trkpt lat="45.95844" lon="4.77112">
        <ele>193</ele>
        <time>2018-02-13T11:43:49Z</time>
      </trkpt>
      <trkpt lat="45.95842" lon="4.77102">
        <ele>193</ele>
        <time>2018-02-13T11:43:50Z</time>
      </trkpt>
      <trkpt lat="45.9584" lon="4.77093">
        <ele>193</ele>
        <time>2018-02-13T11:43:51Z</time>
      </trkpt>
      <trkpt lat="45.95837" lon="4.77085">
        <ele>192</ele>
        <time>2018-02-13T11:43:52Z</time>
      </trkpt>
      <trkpt lat="45.95834" lon="4.77075">
        <ele>192</ele>
        <time>2018-02-13T11:43:53Z</time>
      </trkpt>
      <trkpt lat="45.9583" lon="4.77067">
        <ele>191</ele>
        <time>2018-02-13T11:43:54Z</time>
      </trkpt>
      <trkpt lat="45.95827" lon="4.7706">
        <ele>190</ele>
        <time>2018-02-13T11:43:55Z</time>
      </trkpt>
      <trkpt lat="45.95823" lon="4.77052">
        <ele>190</ele>
        <time>2018-02-13T11:43:56Z</time>
      </trkpt>
      <trkpt lat="45.9582" lon="4.77045">
        <ele>190</ele>
        <time>2018-02-13T11:43:57Z</time>
      </trkpt>
      <trkpt lat="45.95817" lon="4.77038">
        <ele>190</ele>
        <time>2018-02-13T11:43:58Z</time>
      </trkpt>
      <trkpt lat="45.95814" lon="4.77031">
        <ele>190</ele>
        <time>2018-02-13T11:43:59Z</time>
      </trkpt>
      <trkpt lat="45.95811" lon="4.77023">
        <ele>190</ele>
        <time>2018-02-13T11:44:00Z</time>
      </trkpt>
      <trkpt lat="45.95808" lon="4.77014">
        <ele>190</ele>
        <time>2018-02-13T11:44:01Z</time>
      </trkpt>
      <trkpt lat="45.95806" lon="4.77006">
        <ele>190</ele>
        <time>2018-02-13T11:44:02Z</time>
      </trkpt>
      <trkpt lat="45.95804" lon="4.76998">
        <ele>190</ele>
        <time>2018-02-13T11:44:03Z</time>
      </trkpt>
      <trkpt lat="45.95803" lon="4.7699">
        <ele>189</ele>
        <time>2018-02-13T11:44:04Z</time>
      </trkpt>
      <trkpt lat="45.95803" lon="4.76981">
        <ele>189</ele>
        <time>2018-02-13T11:44:05Z</time>
      </trkpt>
      <trkpt lat="45.95803" lon="4.76972">
        <ele>189</ele>
        <time>2018-02-13T11:44:06Z</time>
      </trkpt>
      <trkpt lat="45.95804" lon="4.76963">
        <ele>189</ele>
        <time>2018-02-13T11:44:07Z</time>
      </trkpt>
      <trkpt lat="45.95805" lon="4.76954">
        <ele>189</ele>
        <time>2018-02-13T11:44:08Z</time>
      </trkpt>
      <trkpt lat="45.95807" lon="4.76946">
        <ele>189</ele>
        <time>2018-02-13T11:44:09Z</time>
      </trkpt>
      <trkpt lat="45.95809" lon="4.76938">
        <ele>189</ele>
        <time>2018-02-13T11:44:10Z</time>
      </trkpt>
      <trkpt lat="45.95812" lon="4.76928">
        <ele>189</ele>
        <time>2018-02-13T11:44:11Z</time>
      </trkpt>
      <trkpt lat="45.95814" lon="4.76921">
        <ele>189</ele>
        <time>2018-02-13T11:44:12Z</time>
      </trkpt>
      <trkpt lat="45.95815" lon="4.76913">
        <ele>189</ele>
        <time>2018-02-13T11:44:13Z</time>
      </trkpt>
      <trkpt lat="45.95816" lon="4.76905">
        <ele>189</ele>
        <time>2018-02-13T11:44:14Z</time>
      </trkpt>
      <trkpt lat="45.95817" lon="4.76899">
        <ele>189</ele>
        <time>2018-02-13T11:44:15Z</time>
      </trkpt>
      <trkpt lat="45.95819" lon="4.76892">
        <ele>189</ele>
        <time>2018-02-13T11:44:16Z</time>
      </trkpt>
      <trkpt lat="45.9582" lon="4.76885">
        <ele>189</ele>
        <time>2018-02-13T11:44:17Z</time>
      </trkpt>
      <trkpt lat="45.95821" lon="4.76878">
        <ele>189</ele>
        <time>2018-02-13T11:44:18Z</time>
      </trkpt>
      <trkpt lat="45.95822" lon="4.76871">
        <ele>189</ele>
        <time>2018-02-13T11:44:19Z</time>
      </trkpt>
      <trkpt lat="45.95823" lon="4.76863">
        <ele>189</ele>
        <time>2018-02-13T11:44:20Z</time>
      </trkpt>
      <trkpt lat="45.95823" lon="4.76855">
        <ele>189</ele>
        <time>2018-02-13T11:44:21Z</time>
      </trkpt>
      <trkpt lat="45.95825" lon="4.76847">
        <ele>190</ele>
        <time>2018-02-13T11:44:22Z</time>
      </trkpt>
      <trkpt lat="45.95825" lon="4.7684">
        <ele>190</ele>
        <time>2018-02-13T11:44:23Z</time>
      </trkpt>
      <trkpt lat="45.95826" lon="4.76833">
        <ele>190</ele>
        <time>2018-02-13T11:44:24Z</time>
      </trkpt>
      <trkpt lat="45.95827" lon="4.76825">
        <ele>190</ele>
        <time>2018-02-13T11:44:25Z</time>
      </trkpt>
      <trkpt lat="45.95829" lon="4.76817">
        <ele>190</ele>
        <time>2018-02-13T11:44:26Z</time>
      </trkpt>
      <trkpt lat="45.95831" lon="4.76809">
        <ele>190</ele>
        <time>2018-02-13T11:44:27Z</time>
      </trkpt>
      <trkpt lat="45.95832" lon="4.768">
        <ele>190</ele>
        <time>2018-02-13T11:44:28Z</time>
      </trkpt>
      <trkpt lat="45.95835" lon="4.76791">
        <ele>191</ele>
        <time>2018-02-13T11:44:29Z</time>
      </trkpt>
      <trkpt lat="45.95835" lon="4.76783">
        <ele>191</ele>
        <time>2018-02-13T11:44:30Z</time>
      </trkpt>
      <trkpt lat="45.95833" lon="4.76775">
        <ele>190</ele>
        <time>2018-02-13T11:44:31Z</time>
      </trkpt>
      <trkpt lat="45.9583" lon="4.76767">
        <ele>190</ele>
        <time>2018-02-13T11:44:32Z</time>
      </trkpt>
      <trkpt lat="45.95827" lon="4.76759">
        <ele>191</ele>
        <time>2018-02-13T11:44:33Z</time>
      </trkpt>
      <trkpt lat="45.95825" lon="4.7675">
        <ele>191</ele>
        <time>2018-02-13T11:44:34Z</time>
      </trkpt>
      <trkpt lat="45.95824" lon="4.76741">
        <ele>190</ele>
        <time>2018-02-13T11:44:35Z</time>
      </trkpt>
      <trkpt lat="45.95822" lon="4.76732">
        <ele>190</ele>
        <time>2018-02-13T11:44:36Z</time>
      </trkpt>
      <trkpt lat="45.95821" lon="4.76723">
        <ele>190</ele>
        <time>2018-02-13T11:44:37Z</time>
      </trkpt>
      <trkpt lat="45.9582" lon="4.76714">
        <ele>189</ele>
        <time>2018-02-13T11:44:38Z</time>
      </trkpt>
      <trkpt lat="45.95819" lon="4.76706">
        <ele>189</ele>
        <time>2018-02-13T11:44:39Z</time>
      </trkpt>
      <trkpt lat="45.95818" lon="4.76696">
        <ele>189</ele>
        <time>2018-02-13T11:44:40Z</time>
      </trkpt>
      <trkpt lat="45.95817" lon="4.76688">
        <ele>189</ele>
        <time>2018-02-13T11:44:41Z</time>
      </trkpt>
      <trkpt lat="45.95816" lon="4.76679">
        <ele>189</ele>
        <time>2018-02-13T11:44:42Z</time>
      </trkpt>
      <trkpt lat="45.95816" lon="4.76671">
        <ele>189</ele>
        <time>2018-02-13T11:44:43Z</time>
      </trkpt>
      <trkpt lat="45.95815" lon="4.76662">
        <ele>188</ele>
        <time>2018-02-13T11:44:44Z</time>
      </trkpt>
      <trkpt lat="45.95814" lon="4.76653">
        <ele>188</ele>
        <time>2018-02-13T11:44:45Z</time>
      </trkpt>
      <trkpt lat="45.95812" lon="4.76644">
        <ele>188</ele>
        <time>2018-02-13T11:44:46Z</time>
      </trkpt>
      <trkpt lat="45.95811" lon="4.76635">
        <ele>188</ele>
        <time>2018-02-13T11:44:47Z</time>
      </trkpt>
      <trkpt lat="45.9581" lon="4.76626">
        <ele>188</ele>
        <time>2018-02-13T11:44:48Z</time>
      </trkpt>
      <trkpt lat="45.95807" lon="4.76617">
        <ele>188</ele>
        <time>2018-02-13T11:44:49Z</time>
      </trkpt>
      <trkpt lat="45.95806" lon="4.76607">
        <ele>188</ele>
        <time>2018-02-13T11:44:50Z</time>
      </trkpt>
      <trkpt lat="45.95805" lon="4.76597">
        <ele>188</ele>
        <time>2018-02-13T11:44:51Z</time>
      </trkpt>
      <trkpt lat="45.95803" lon="4.76588">
        <ele>187</ele>
        <time>2018-02-13T11:44:52Z</time>
      </trkpt>
      <trkpt lat="45.95802" lon="4.76578">
        <ele>187</ele>
        <time>2018-02-13T11:44:53Z</time>
      </trkpt>
      <trkpt lat="45.958" lon="4.76569">
        <ele>187</ele>
        <time>2018-02-13T11:44:54Z</time>
      </trkpt>
      <trkpt lat="45.95799" lon="4.76559">
        <ele>187</ele>
        <time>2018-02-13T11:44:55Z</time>
      </trkpt>
      <trkpt lat="45.95797" lon="4.7655">
        <ele>187</ele>
        <time>2018-02-13T11:44:56Z</time>
      </trkpt>
      <trkpt lat="45.95796" lon="4.76542">
        <ele>187</ele>
        <time>2018-02-13T11:44:57Z</time>
      </trkpt>
      <trkpt lat="45.95795" lon="4.76534">
        <ele>187</ele>
        <time>2018-02-13T11:44:58Z</time>
      </trkpt>
      <trkpt lat="45.95794" lon="4.76525">
        <ele>187</ele>
        <time>2018-02-13T11:44:59Z</time>
      </trkpt>
      <trkpt lat="45.95793" lon="4.76516">
        <ele>187</ele>
        <time>2018-02-13T11:45:00Z</time>
      </trkpt>
      <trkpt lat="45.95791" lon="4.76509">
        <ele>187</ele>
        <time>2018-02-13T11:45:01Z</time>
      </trkpt>
      <trkpt lat="45.9579" lon="4.76502">
        <ele>187</ele>
        <time>2018-02-13T11:45:02Z</time>
      </trkpt>
      <trkpt lat="45.95789" lon="4.76495">
        <ele>186</ele>
        <time>2018-02-13T11:45:03Z</time>
      </trkpt>
      <trkpt lat="45.95788" lon="4.76487">
        <ele>186</ele>
        <time>2018-02-13T11:45:04Z</time>
      </trkpt>
      <trkpt lat="45.95787" lon="4.76481">
        <ele>186</ele>
        <time>2018-02-13T11:45:05Z</time>
      </trkpt>
      <trkpt lat="45.95786" lon="4.76474">
        <ele>186</ele>
        <time>2018-02-13T11:45:06Z</time>
      </trkpt>
      <trkpt lat="45.95785" lon="4.76466">
        <ele>186</ele>
        <time>2018-02-13T11:45:07Z</time>
      </trkpt>
      <trkpt lat="45.95784" lon="4.76459">
        <ele>186</ele>
        <time>2018-02-13T11:45:08Z</time>
      </trkpt>
      <trkpt lat="45.95782" lon="4.7645">
        <ele>186</ele>
        <time>2018-02-13T11:45:09Z</time>
      </trkpt>
      <trkpt lat="45.95782" lon="4.76443">
        <ele>186</ele>
        <time>2018-02-13T11:45:10Z</time>
      </trkpt>
      <trkpt lat="45.95781" lon="4.76435">
        <ele>186</ele>
        <time>2018-02-13T11:45:11Z</time>
      </trkpt>
      <trkpt lat="45.9578" lon="4.76427">
        <ele>186</ele>
        <time>2018-02-13T11:45:12Z</time>
      </trkpt>
      <trkpt lat="45.95779" lon="4.76419">
        <ele>186</ele>
        <time>2018-02-13T11:45:13Z</time>
      </trkpt>
      <trkpt lat="45.95778" lon="4.76412">
        <ele>186</ele>
        <time>2018-02-13T11:45:14Z</time>
      </trkpt>
      <trkpt lat="45.95777" lon="4.76404">
        <ele>186</ele>
        <time>2018-02-13T11:45:15Z</time>
      </trkpt>
      <trkpt lat="45.95775" lon="4.76397">
        <ele>186</ele>
        <time>2018-02-13T11:45:16Z</time>
      </trkpt>
      <trkpt lat="45.95775" lon="4.7639">
        <ele>186</ele>
        <time>2018-02-13T11:45:17Z</time>
      </trkpt>
      <trkpt lat="45.95774" lon="4.76383">
        <ele>186</ele>
        <time>2018-02-13T11:45:18Z</time>
      </trkpt>
      <trkpt lat="45.95774" lon="4.76375">
        <ele>186</ele>
        <time>2018-02-13T11:45:19Z</time>
      </trkpt>
      <trkpt lat="45.95774" lon="4.76367">
        <ele>186</ele>
        <time>2018-02-13T11:45:20Z</time>
      </trkpt>
      <trkpt lat="45.95774" lon="4.76359">
        <ele>186</ele>
        <time>2018-02-13T11:45:21Z</time>
      </trkpt>
      <trkpt lat="45.95773" lon="4.76351">
        <ele>186</ele>
        <time>2018-02-13T11:45:22Z</time>
      </trkpt>
      <trkpt lat="45.95773" lon="4.76343">
        <ele>186</ele>
        <time>2018-02-13T11:45:23Z</time>
      </trkpt>
      <trkpt lat="45.95772" lon="4.76334">
        <ele>186</ele>
        <time>2018-02-13T11:45:24Z</time>
      </trkpt>
      <trkpt lat="45.95772" lon="4.76326">
        <ele>185</ele>
        <time>2018-02-13T11:45:25Z</time>
      </trkpt>
      <trkpt lat="45.95772" lon="4.76317">
        <ele>185</ele>
        <time>2018-02-13T11:45:26Z</time>
      </trkpt>
      <trkpt lat="45.95771" lon="4.76308">
        <ele>186</ele>
        <time>2018-02-13T11:45:27Z</time>
      </trkpt>
      <trkpt lat="45.95771" lon="4.76299">
        <ele>186</ele>
        <time>2018-02-13T11:45:28Z</time>
      </trkpt>
      <trkpt lat="45.95771" lon="4.7629">
        <ele>186</ele>
        <time>2018-02-13T11:45:29Z</time>
      </trkpt>
      <trkpt lat="45.9577" lon="4.76281">
        <ele>186</ele>
        <time>2018-02-13T11:45:30Z</time>
      </trkpt>
      <trkpt lat="45.95769" lon="4.7627">
        <ele>186</ele>
        <time>2018-02-13T11:45:31Z</time>
      </trkpt>
      <trkpt lat="45.95769" lon="4.76261">
        <ele>185</ele>
        <time>2018-02-13T11:45:32Z</time>
      </trkpt>
      <trkpt lat="45.95768" lon="4.76252">
        <ele>185</ele>
        <time>2018-02-13T11:45:33Z</time>
      </trkpt>
      <trkpt lat="45.95768" lon="4.76243">
        <ele>186</ele>
        <time>2018-02-13T11:45:34Z</time>
      </trkpt>
      <trkpt lat="45.95767" lon="4.76234">
        <ele>186</ele>
        <time>2018-02-13T11:45:35Z</time>
      </trkpt>
      <trkpt lat="45.95767" lon="4.76225">
        <ele>186</ele>
        <time>2018-02-13T11:45:36Z</time>
      </trkpt>
      <trkpt lat="45.95767" lon="4.76217">
        <ele>186</ele>
        <time>2018-02-13T11:45:37Z</time>
      </trkpt>
      <trkpt lat="45.95766" lon="4.76207">
        <ele>186</ele>
        <time>2018-02-13T11:45:38Z</time>
      </trkpt>
      <trkpt lat="45.95766" lon="4.762">
        <ele>186</ele>
        <time>2018-02-13T11:45:39Z</time>
      </trkpt>
      <trkpt lat="45.95766" lon="4.7619">
        <ele>186</ele>
        <time>2018-02-13T11:45:40Z</time>
      </trkpt>
      <trkpt lat="45.95765" lon="4.76182">
        <ele>186</ele>
        <time>2018-02-13T11:45:41Z</time>
      </trkpt>
      <trkpt lat="45.95765" lon="4.76174">
        <ele>185</ele>
        <time>2018-02-13T11:45:42Z</time>
      </trkpt>
      <trkpt lat="45.95764" lon="4.76166">
        <ele>186</ele>
        <time>2018-02-13T11:45:43Z</time>
      </trkpt>
      <trkpt lat="45.95764" lon="4.76158">
        <ele>186</ele>
        <time>2018-02-13T11:45:44Z</time>
      </trkpt>
      <trkpt lat="45.95763" lon="4.76149">
        <ele>186</ele>
        <time>2018-02-13T11:45:45Z</time>
      </trkpt>
      <trkpt lat="45.95763" lon="4.76141">
        <ele>186</ele>
        <time>2018-02-13T11:45:46Z</time>
      </trkpt>
      <trkpt lat="45.95762" lon="4.76133">
        <ele>186</ele>
        <time>2018-02-13T11:45:47Z</time>
      </trkpt>
      <trkpt lat="45.9576" lon="4.76124">
        <ele>186</ele>
        <time>2018-02-13T11:45:48Z</time>
      </trkpt>
      <trkpt lat="45.95759" lon="4.76114">
        <ele>186</ele>
        <time>2018-02-13T11:45:49Z</time>
      </trkpt>
      <trkpt lat="45.95758" lon="4.76106">
        <ele>186</ele>
        <time>2018-02-13T11:45:50Z</time>
      </trkpt>
      <trkpt lat="45.95756" lon="4.76098">
        <ele>186</ele>
        <time>2018-02-13T11:45:51Z</time>
      </trkpt>
      <trkpt lat="45.95754" lon="4.7609">
        <ele>185</ele>
        <time>2018-02-13T11:45:52Z</time>
      </trkpt>
      <trkpt lat="45.95752" lon="4.76082">
        <ele>185</ele>
        <time>2018-02-13T11:45:53Z</time>
      </trkpt>
      <trkpt lat="45.95749" lon="4.76075">
        <ele>185</ele>
        <time>2018-02-13T11:45:54Z</time>
      </trkpt>
      <trkpt lat="45.95746" lon="4.76067">
        <ele>185</ele>
        <time>2018-02-13T11:45:55Z</time>
      </trkpt>
      <trkpt lat="45.95743" lon="4.7606">
        <ele>184</ele>
        <time>2018-02-13T11:45:56Z</time>
      </trkpt>
      <trkpt lat="45.9574" lon="4.76054">
        <ele>184</ele>
        <time>2018-02-13T11:45:57Z</time>
      </trkpt>
      <trkpt lat="45.95736" lon="4.76047">
        <ele>184</ele>
        <time>2018-02-13T11:45:58Z</time>
      </trkpt>
      <trkpt lat="45.95734" lon="4.76039">
        <ele>184</ele>
        <time>2018-02-13T11:45:59Z</time>
      </trkpt>
      <trkpt lat="45.95731" lon="4.76032">
        <ele>184</ele>
        <time>2018-02-13T11:46:00Z</time>
      </trkpt>
      <trkpt lat="45.95728" lon="4.76026">
        <ele>185</ele>
        <time>2018-02-13T11:46:01Z</time>
      </trkpt>
      <trkpt lat="45.95725" lon="4.76019">
        <ele>185</ele>
        <time>2018-02-13T11:46:02Z</time>
      </trkpt>
      <trkpt lat="45.95722" lon="4.76012">
        <ele>185</ele>
        <time>2018-02-13T11:46:03Z</time>
      </trkpt>
      <trkpt lat="45.95718" lon="4.76005">
        <ele>184</ele>
        <time>2018-02-13T11:46:04Z</time>
      </trkpt>
      <trkpt lat="45.95715" lon="4.75998">
        <ele>185</ele>
        <time>2018-02-13T11:46:05Z</time>
      </trkpt>
      <trkpt lat="45.95712" lon="4.7599">
        <ele>185</ele>
        <time>2018-02-13T11:46:06Z</time>
      </trkpt>
      <trkpt lat="45.95709" lon="4.75982">
        <ele>185</ele>
        <time>2018-02-13T11:46:07Z</time>
      </trkpt>
      <trkpt lat="45.95705" lon="4.75975">
        <ele>185</ele>
        <time>2018-02-13T11:46:08Z</time>
      </trkpt>
      <trkpt lat="45.95702" lon="4.75968">
        <ele>185</ele>
        <time>2018-02-13T11:46:09Z</time>
      </trkpt>
      <trkpt lat="45.95699" lon="4.75961">
        <ele>185</ele>
        <time>2018-02-13T11:46:10Z</time>
      </trkpt>
      <trkpt lat="45.95696" lon="4.75954">
        <ele>185</ele>
        <time>2018-02-13T11:46:11Z</time>
      </trkpt>
      <trkpt lat="45.95692" lon="4.75946">
        <ele>185</ele>
        <time>2018-02-13T11:46:12Z</time>
      </trkpt>
      <trkpt lat="45.9569" lon="4.7594">
        <ele>185</ele>
        <time>2018-02-13T11:46:13Z</time>
      </trkpt>
      <trkpt lat="45.95687" lon="4.75932">
        <ele>185</ele>
        <time>2018-02-13T11:46:14Z</time>
      </trkpt>
      <trkpt lat="45.95684" lon="4.75926">
        <ele>185</ele>
        <time>2018-02-13T11:46:15Z</time>
      </trkpt>
      <trkpt lat="45.95681" lon="4.75919">
        <ele>185</ele>
        <time>2018-02-13T11:46:16Z</time>
      </trkpt>
      <trkpt lat="45.95678" lon="4.75912">
        <ele>185</ele>
        <time>2018-02-13T11:46:17Z</time>
      </trkpt>
      <trkpt lat="45.95675" lon="4.75905">
        <ele>185</ele>
        <time>2018-02-13T11:46:18Z</time>
      </trkpt>
      <trkpt lat="45.95671" lon="4.75896">
        <ele>186</ele>
        <time>2018-02-13T11:46:19Z</time>
      </trkpt>
      <trkpt lat="45.95668" lon="4.75889">
        <ele>186</ele>
        <time>2018-02-13T11:46:20Z</time>
      </trkpt>
      <trkpt lat="45.95666" lon="4.75881">
        <ele>184</ele>
        <time>2018-02-13T11:46:21Z</time>
      </trkpt>
      <trkpt lat="45.95663" lon="4.75874">
        <ele>184</ele>
        <time>2018-02-13T11:46:22Z</time>
      </trkpt>
      <trkpt lat="45.9566" lon="4.75866">
        <ele>184</ele>
        <time>2018-02-13T11:46:23Z</time>
      </trkpt>
      <trkpt lat="45.95657" lon="4.75858">
        <ele>184</ele>
        <time>2018-02-13T11:46:24Z</time>
      </trkpt>
      <trkpt lat="45.95655" lon="4.7585">
        <ele>185</ele>
        <time>2018-02-13T11:46:25Z</time>
      </trkpt>
      <trkpt lat="45.95652" lon="4.75842">
        <ele>185</ele>
        <time>2018-02-13T11:46:26Z</time>
      </trkpt>
      <trkpt lat="45.9565" lon="4.75833">
        <ele>185</ele>
        <time>2018-02-13T11:46:27Z</time>
      </trkpt>
      <trkpt lat="45.95649" lon="4.75825">
        <ele>185</ele>
        <time>2018-02-13T11:46:28Z</time>
      </trkpt>
      <trkpt lat="45.95647" lon="4.75817">
        <ele>185</ele>
        <time>2018-02-13T11:46:29Z</time>
      </trkpt>
      <trkpt lat="45.95645" lon="4.75809">
        <ele>185</ele>
        <time>2018-02-13T11:46:30Z</time>
      </trkpt>
      <trkpt lat="45.95644" lon="4.75801">
        <ele>185</ele>
        <time>2018-02-13T11:46:31Z</time>
      </trkpt>
      <trkpt lat="45.95643" lon="4.75794">
        <ele>185</ele>
        <time>2018-02-13T11:46:32Z</time>
      </trkpt>
      <trkpt lat="45.95642" lon="4.75786">
        <ele>185</ele>
        <time>2018-02-13T11:46:33Z</time>
      </trkpt>
      <trkpt lat="45.95641" lon="4.75778">
        <ele>186</ele>
        <time>2018-02-13T11:46:34Z</time>
      </trkpt>
      <trkpt lat="45.9564" lon="4.7577">
        <ele>186</ele>
        <time>2018-02-13T11:46:35Z</time>
      </trkpt>
      <trkpt lat="45.95639" lon="4.75762">
        <ele>186</ele>
        <time>2018-02-13T11:46:36Z</time>
      </trkpt>
      <trkpt lat="45.95638" lon="4.75755">
        <ele>186</ele>
        <time>2018-02-13T11:46:37Z</time>
      </trkpt>
      <trkpt lat="45.95637" lon="4.75747">
        <ele>187</ele>
        <time>2018-02-13T11:46:38Z</time>
      </trkpt>
      <trkpt lat="45.95636" lon="4.75739">
        <ele>187</ele>
        <time>2018-02-13T11:46:39Z</time>
      </trkpt>
      <trkpt lat="45.95635" lon="4.75731">
        <ele>187</ele>
        <time>2018-02-13T11:46:40Z</time>
      </trkpt>
      <trkpt lat="45.95635" lon="4.75723">
        <ele>187</ele>
        <time>2018-02-13T11:46:41Z</time>
      </trkpt>
      <trkpt lat="45.95634" lon="4.75716">
        <ele>187</ele>
        <time>2018-02-13T11:46:42Z</time>
      </trkpt>
      <trkpt lat="45.95633" lon="4.75709">
        <ele>187</ele>
        <time>2018-02-13T11:46:43Z</time>
      </trkpt>
      <trkpt lat="45.95632" lon="4.75701">
        <ele>187</ele>
        <time>2018-02-13T11:46:44Z</time>
      </trkpt>
      <trkpt lat="45.95631" lon="4.75693">
        <ele>187</ele>
        <time>2018-02-13T11:46:45Z</time>
      </trkpt>
      <trkpt lat="45.95629" lon="4.75684">
        <ele>187</ele>
        <time>2018-02-13T11:46:46Z</time>
      </trkpt>
      <trkpt lat="45.95627" lon="4.75676">
        <ele>187</ele>
        <time>2018-02-13T11:46:47Z</time>
      </trkpt>
      <trkpt lat="45.95626" lon="4.75668">
        <ele>187</ele>
        <time>2018-02-13T11:46:48Z</time>
      </trkpt>
      <trkpt lat="45.95624" lon="4.75659">
        <ele>188</ele>
        <time>2018-02-13T11:46:49Z</time>
      </trkpt>
      <trkpt lat="45.95622" lon="4.75651">
        <ele>188</ele>
        <time>2018-02-13T11:46:50Z</time>
      </trkpt>
      <trkpt lat="45.9562" lon="4.75643">
        <ele>188</ele>
        <time>2018-02-13T11:46:51Z</time>
      </trkpt>
      <trkpt lat="45.95617" lon="4.75634">
        <ele>188</ele>
        <time>2018-02-13T11:46:52Z</time>
      </trkpt>
      <trkpt lat="45.95615" lon="4.75626">
        <ele>188</ele>
        <time>2018-02-13T11:46:53Z</time>
      </trkpt>
      <trkpt lat="45.95613" lon="4.75619">
        <ele>188</ele>
        <time>2018-02-13T11:46:54Z</time>
      </trkpt>
      <trkpt lat="45.95611" lon="4.75611">
        <ele>188</ele>
        <time>2018-02-13T11:46:55Z</time>
      </trkpt>
      <trkpt lat="45.95608" lon="4.75604">
        <ele>188</ele>
        <time>2018-02-13T11:46:56Z</time>
      </trkpt>
      <trkpt lat="45.95606" lon="4.75597">
        <ele>187</ele>
        <time>2018-02-13T11:46:57Z</time>
      </trkpt>
      <trkpt lat="45.95603" lon="4.7559">
        <ele>187</ele>
        <time>2018-02-13T11:46:58Z</time>
      </trkpt>
      <trkpt lat="45.95601" lon="4.75584">
        <ele>187</ele>
        <time>2018-02-13T11:46:59Z</time>
      </trkpt>
      <trkpt lat="45.95598" lon="4.75578">
        <ele>188</ele>
        <time>2018-02-13T11:47:00Z</time>
      </trkpt>
      <trkpt lat="45.95596" lon="4.75571">
        <ele>188</ele>
        <time>2018-02-13T11:47:01Z</time>
      </trkpt>
      <trkpt lat="45.95593" lon="4.75566">
        <ele>188</ele>
        <time>2018-02-13T11:47:02Z</time>
      </trkpt>
      <trkpt lat="45.95589" lon="4.75559">
        <ele>188</ele>
        <time>2018-02-13T11:47:03Z</time>
      </trkpt>
      <trkpt lat="45.95586" lon="4.75554">
        <ele>188</ele>
        <time>2018-02-13T11:47:04Z</time>
      </trkpt>
      <trkpt lat="45.95582" lon="4.75548">
        <ele>186</ele>
        <time>2018-02-13T11:47:05Z</time>
      </trkpt>
      <trkpt lat="45.95578" lon="4.75543">
        <ele>186</ele>
        <time>2018-02-13T11:47:06Z</time>
      </trkpt>
      <trkpt lat="45.95573" lon="4.75538">
        <ele>186</ele>
        <time>2018-02-13T11:47:07Z</time>
      </trkpt>
      <trkpt lat="45.95569" lon="4.75532">
        <ele>186</ele>
        <time>2018-02-13T11:47:08Z</time>
      </trkpt>
      <trkpt lat="45.95565" lon="4.75527">
        <ele>186</ele>
        <time>2018-02-13T11:47:09Z</time>
      </trkpt>
      <trkpt lat="45.9556" lon="4.75522">
        <ele>186</ele>
        <time>2018-02-13T11:47:10Z</time>
      </trkpt>
      <trkpt lat="45.95556" lon="4.75517">
        <ele>186</ele>
        <time>2018-02-13T11:47:11Z</time>
      </trkpt>
      <trkpt lat="45.95552" lon="4.75512">
        <ele>186</ele>
        <time>2018-02-13T11:47:12Z</time>
      </trkpt>
      <trkpt lat="45.95548" lon="4.75507">
        <ele>186</ele>
        <time>2018-02-13T11:47:13Z</time>
      </trkpt>
      <trkpt lat="45.95542" lon="4.75499">
        <ele>187</ele>
        <time>2018-02-13T11:47:15Z</time>
      </trkpt>
      <trkpt lat="45.9554" lon="4.75496">
        <ele>187</ele>
        <time>2018-02-13T11:47:16Z</time>
      </trkpt>
      <trkpt lat="45.95539" lon="4.75487">
        <ele>187</ele>
        <time>2018-02-13T11:47:19Z</time>
      </trkpt>
      <trkpt lat="45.95538" lon="4.75482">
        <ele>187</ele>
        <time>2018-02-13T11:47:20Z</time>
      </trkpt>
      <trkpt lat="45.95538" lon="4.75473">
        <ele>187</ele>
        <time>2018-02-13T11:47:22Z</time>
      </trkpt>
      <trkpt lat="45.95538" lon="4.75467">
        <ele>187</ele>
        <time>2018-02-13T11:47:23Z</time>
      </trkpt>
      <trkpt lat="45.95535" lon="4.75457">
        <ele>187</ele>
        <time>2018-02-13T11:47:25Z</time>
      </trkpt>
      <trkpt lat="45.95533" lon="4.75451">
        <ele>187</ele>
        <time>2018-02-13T11:47:26Z</time>
      </trkpt>
      <trkpt lat="45.95529" lon="4.75446">
        <ele>187</ele>
        <time>2018-02-13T11:47:27Z</time>
      </trkpt>
      <trkpt lat="45.95525" lon="4.75442">
        <ele>187</ele>
        <time>2018-02-13T11:47:28Z</time>
      </trkpt>
      <trkpt lat="45.95521" lon="4.75437">
        <ele>187</ele>
        <time>2018-02-13T11:47:29Z</time>
      </trkpt>
      <trkpt lat="45.95518" lon="4.75432">
        <ele>187</ele>
        <time>2018-02-13T11:47:30Z</time>
      </trkpt>
      <trkpt lat="45.95515" lon="4.75426">
        <ele>186</ele>
        <time>2018-02-13T11:47:31Z</time>
      </trkpt>
      <trkpt lat="45.95513" lon="4.7542">
        <ele>186</ele>
        <time>2018-02-13T11:47:32Z</time>
      </trkpt>
      <trkpt lat="45.95511" lon="4.75413">
        <ele>187</ele>
        <time>2018-02-13T11:47:33Z</time>
      </trkpt>
      <trkpt lat="45.95509" lon="4.75407">
        <ele>187</ele>
        <time>2018-02-13T11:47:34Z</time>
      </trkpt>
      <trkpt lat="45.95507" lon="4.75401">
        <ele>187</ele>
        <time>2018-02-13T11:47:35Z</time>
      </trkpt>
      <trkpt lat="45.95504" lon="4.75395">
        <ele>188</ele>
        <time>2018-02-13T11:47:36Z</time>
      </trkpt>
      <trkpt lat="45.955" lon="4.75386">
        <ele>188</ele>
        <time>2018-02-13T11:47:38Z</time>
      </trkpt>
      <trkpt lat="45.95499" lon="4.75379">
        <ele>185</ele>
        <time>2018-02-13T11:47:39Z</time>
      </trkpt>
      <trkpt lat="45.95496" lon="4.75373">
        <ele>185</ele>
        <time>2018-02-13T11:47:40Z</time>
      </trkpt>
      <trkpt lat="45.95494" lon="4.75368">
        <ele>186</ele>
        <time>2018-02-13T11:47:41Z</time>
      </trkpt>
      <trkpt lat="45.95492" lon="4.75362">
        <ele>186</ele>
        <time>2018-02-13T11:47:42Z</time>
      </trkpt>
      <trkpt lat="45.95489" lon="4.75356">
        <ele>186</ele>
        <time>2018-02-13T11:47:43Z</time>
      </trkpt>
      <trkpt lat="45.95484" lon="4.75347">
        <ele>186</ele>
        <time>2018-02-13T11:47:45Z</time>
      </trkpt>
      <trkpt lat="45.95482" lon="4.7534">
        <ele>187</ele>
        <time>2018-02-13T11:47:46Z</time>
      </trkpt>
      <trkpt lat="45.95479" lon="4.75334">
        <ele>186</ele>
        <time>2018-02-13T11:47:47Z</time>
      </trkpt>
      <trkpt lat="45.95476" lon="4.75328">
        <ele>188</ele>
        <time>2018-02-13T11:47:48Z</time>
      </trkpt>
      <trkpt lat="45.95473" lon="4.75322">
        <ele>188</ele>
        <time>2018-02-13T11:47:49Z</time>
      </trkpt>
      <trkpt lat="45.9547" lon="4.75316">
        <ele>188</ele>
        <time>2018-02-13T11:47:50Z</time>
      </trkpt>
      <trkpt lat="45.95467" lon="4.75311">
        <ele>188</ele>
        <time>2018-02-13T11:47:51Z</time>
      </trkpt>
      <trkpt lat="45.95464" lon="4.75304">
        <ele>188</ele>
        <time>2018-02-13T11:47:52Z</time>
      </trkpt>
      <trkpt lat="45.95462" lon="4.75298">
        <ele>188</ele>
        <time>2018-02-13T11:47:53Z</time>
      </trkpt>
      <trkpt lat="45.9546" lon="4.75292">
        <ele>189</ele>
        <time>2018-02-13T11:47:54Z</time>
      </trkpt>
      <trkpt lat="45.95454" lon="4.75284">
        <ele>189</ele>
        <time>2018-02-13T11:47:56Z</time>
      </trkpt>
      <trkpt lat="45.95452" lon="4.75278">
        <ele>189</ele>
        <time>2018-02-13T11:47:57Z</time>
      </trkpt>
      <trkpt lat="45.95448" lon="4.75271">
        <ele>189</ele>
        <time>2018-02-13T11:47:58Z</time>
      </trkpt>
      <trkpt lat="45.95446" lon="4.75266">
        <ele>189</ele>
        <time>2018-02-13T11:47:59Z</time>
      </trkpt>
      <trkpt lat="45.95443" lon="4.75262">
        <ele>189</ele>
        <time>2018-02-13T11:48:00Z</time>
      </trkpt>
      <trkpt lat="45.95439" lon="4.75258">
        <ele>189</ele>
        <time>2018-02-13T11:48:01Z</time>
      </trkpt>
      <trkpt lat="45.95437" lon="4.75252">
        <ele>189</ele>
        <time>2018-02-13T11:48:02Z</time>
      </trkpt>
      <trkpt lat="45.95433" lon="4.75248">
        <ele>190</ele>
        <time>2018-02-13T11:48:03Z</time>
      </trkpt>
      <trkpt lat="45.95429" lon="4.75243">
        <ele>190</ele>
        <time>2018-02-13T11:48:04Z</time>
      </trkpt>
      <trkpt lat="45.95425" lon="4.75238">
        <ele>190</ele>
        <time>2018-02-13T11:48:05Z</time>
      </trkpt>
      <trkpt lat="45.95422" lon="4.75233">
        <ele>190</ele>
        <time>2018-02-13T11:48:06Z</time>
      </trkpt>
      <trkpt lat="45.95418" lon="4.75229">
        <ele>191</ele>
        <time>2018-02-13T11:48:07Z</time>
      </trkpt>
      <trkpt lat="45.95414" lon="4.75223">
        <ele>189</ele>
        <time>2018-02-13T11:48:08Z</time>
      </trkpt>
      <trkpt lat="45.95411" lon="4.75217">
        <ele>189</ele>
        <time>2018-02-13T11:48:09Z</time>
      </trkpt>
      <trkpt lat="45.95407" lon="4.75212">
        <ele>189</ele>
        <time>2018-02-13T11:48:10Z</time>
      </trkpt>
      <trkpt lat="45.95404" lon="4.75206">
        <ele>189</ele>
        <time>2018-02-13T11:48:11Z</time>
      </trkpt>
      <trkpt lat="45.95401" lon="4.75201">
        <ele>189</ele>
        <time>2018-02-13T11:48:12Z</time>
      </trkpt>
      <trkpt lat="45.95398" lon="4.75196">
        <ele>189</ele>
        <time>2018-02-13T11:48:13Z</time>
      </trkpt>
      <trkpt lat="45.95396" lon="4.7519">
        <ele>189</ele>
        <time>2018-02-13T11:48:14Z</time>
      </trkpt>
      <trkpt lat="45.95393" lon="4.75185">
        <ele>189</ele>
        <time>2018-02-13T11:48:15Z</time>
      </trkpt>
      <trkpt lat="45.95387" lon="4.75175">
        <ele>189</ele>
        <time>2018-02-13T11:48:17Z</time>
      </trkpt>
      <trkpt lat="45.95384" lon="4.7517">
        <ele>189</ele>
        <time>2018-02-13T11:48:18Z</time>
      </trkpt>
      <trkpt lat="45.95381" lon="4.75165">
        <ele>191</ele>
        <time>2018-02-13T11:48:19Z</time>
      </trkpt>
      <trkpt lat="45.95378" lon="4.7516">
        <ele>191</ele>
        <time>2018-02-13T11:48:20Z</time>
      </trkpt>
      <trkpt lat="45.95375" lon="4.75154">
        <ele>191</ele>
        <time>2018-02-13T11:48:21Z</time>
      </trkpt>
      <trkpt lat="45.95371" lon="4.75148">
        <ele>191</ele>
        <time>2018-02-13T11:48:22Z</time>
      </trkpt>
      <trkpt lat="45.95368" lon="4.75143">
        <ele>191</ele>
        <time>2018-02-13T11:48:23Z</time>
      </trkpt>
      <trkpt lat="45.95365" lon="4.75137">
        <ele>191</ele>
        <time>2018-02-13T11:48:24Z</time>
      </trkpt>
      <trkpt lat="45.95362" lon="4.75132">
        <ele>191</ele>
        <time>2018-02-13T11:48:25Z</time>
      </trkpt>
      <trkpt lat="45.95359" lon="4.75126">
        <ele>191</ele>
        <time>2018-02-13T11:48:26Z</time>
      </trkpt>
      <trkpt lat="45.95356" lon="4.75121">
        <ele>191</ele>
        <time>2018-02-13T11:48:27Z</time>
      </trkpt>
      <trkpt lat="45.95352" lon="4.75116">
        <ele>192</ele>
        <time>2018-02-13T11:48:28Z</time>
      </trkpt>
      <trkpt lat="45.95349" lon="4.75111">
        <ele>192</ele>
        <time>2018-02-13T11:48:29Z</time>
      </trkpt>
      <trkpt lat="45.95346" lon="4.75106">
        <ele>192</ele>
        <time>2018-02-13T11:48:30Z</time>
      </trkpt>
      <trkpt lat="45.95342" lon="4.75101">
        <ele>192</ele>
        <time>2018-02-13T11:48:31Z</time>
      </trkpt>
      <trkpt lat="45.9534" lon="4.75095">
        <ele>192</ele>
        <time>2018-02-13T11:48:32Z</time>
      </trkpt>
      <trkpt lat="45.95337" lon="4.7509">
        <ele>193</ele>
        <time>2018-02-13T11:48:33Z</time>
      </trkpt>
      <trkpt lat="45.95332" lon="4.75085">
        <ele>193</ele>
        <time>2018-02-13T11:48:34Z</time>
      </trkpt>
      <trkpt lat="45.95329" lon="4.75079">
        <ele>193</ele>
        <time>2018-02-13T11:48:35Z</time>
      </trkpt>
      <trkpt lat="45.95324" lon="4.75073">
        <ele>192</ele>
        <time>2018-02-13T11:48:36Z</time>
      </trkpt>
      <trkpt lat="45.9532" lon="4.75066">
        <ele>192</ele>
        <time>2018-02-13T11:48:37Z</time>
      </trkpt>
      <trkpt lat="45.95318" lon="4.7506">
        <ele>192</ele>
        <time>2018-02-13T11:48:38Z</time>
      </trkpt>
      <trkpt lat="45.95314" lon="4.75055">
        <ele>192</ele>
        <time>2018-02-13T11:48:39Z</time>
      </trkpt>
      <trkpt lat="45.95311" lon="4.75048">
        <ele>192</ele>
        <time>2018-02-13T11:48:40Z</time>
      </trkpt>
      <trkpt lat="45.95307" lon="4.75043">
        <ele>192</ele>
        <time>2018-02-13T11:48:41Z</time>
      </trkpt>
      <trkpt lat="45.95303" lon="4.75037">
        <ele>192</ele>
        <time>2018-02-13T11:48:42Z</time>
      </trkpt>
      <trkpt lat="45.95299" lon="4.75031">
        <ele>191</ele>
        <time>2018-02-13T11:48:43Z</time>
      </trkpt>
      <trkpt lat="45.95295" lon="4.75025">
        <ele>191</ele>
        <time>2018-02-13T11:48:44Z</time>
      </trkpt>
      <trkpt lat="45.95292" lon="4.75019">
        <ele>191</ele>
        <time>2018-02-13T11:48:45Z</time>
      </trkpt>
      <trkpt lat="45.95288" lon="4.75014">
        <ele>191</ele>
        <time>2018-02-13T11:48:46Z</time>
      </trkpt>
      <trkpt lat="45.95284" lon="4.75008">
        <ele>191</ele>
        <time>2018-02-13T11:48:47Z</time>
      </trkpt>
      <trkpt lat="45.95281" lon="4.75002">
        <ele>191</ele>
        <time>2018-02-13T11:48:48Z</time>
      </trkpt>
      <trkpt lat="45.95277" lon="4.74997">
        <ele>192</ele>
        <time>2018-02-13T11:48:49Z</time>
      </trkpt>
      <trkpt lat="45.95273" lon="4.74991">
        <ele>192</ele>
        <time>2018-02-13T11:48:50Z</time>
      </trkpt>
      <trkpt lat="45.9527" lon="4.74986">
        <ele>192</ele>
        <time>2018-02-13T11:48:51Z</time>
      </trkpt>
      <trkpt lat="45.95266" lon="4.7498">
        <ele>192</ele>
        <time>2018-02-13T11:48:52Z</time>
      </trkpt>
      <trkpt lat="45.95263" lon="4.74975">
        <ele>192</ele>
        <time>2018-02-13T11:48:53Z</time>
      </trkpt>
      <trkpt lat="45.95259" lon="4.7497">
        <ele>192</ele>
        <time>2018-02-13T11:48:54Z</time>
      </trkpt>
      <trkpt lat="45.95255" lon="4.74965">
        <ele>192</ele>
        <time>2018-02-13T11:48:55Z</time>
      </trkpt>
      <trkpt lat="45.95252" lon="4.74959">
        <ele>192</ele>
        <time>2018-02-13T11:48:56Z</time>
      </trkpt>
      <trkpt lat="45.95248" lon="4.74953">
        <ele>192</ele>
        <time>2018-02-13T11:48:57Z</time>
      </trkpt>
      <trkpt lat="45.95245" lon="4.74948">
        <ele>192</ele>
        <time>2018-02-13T11:48:58Z</time>
      </trkpt>
      <trkpt lat="45.95242" lon="4.74942">
        <ele>192</ele>
        <time>2018-02-13T11:48:59Z</time>
      </trkpt>
      <trkpt lat="45.95239" lon="4.74935">
        <ele>192</ele>
        <time>2018-02-13T11:49:00Z</time>
      </trkpt>
      <trkpt lat="45.95235" lon="4.7493">
        <ele>192</ele>
        <time>2018-02-13T11:49:01Z</time>
      </trkpt>
      <trkpt lat="45.95231" lon="4.74924">
        <ele>192</ele>
        <time>2018-02-13T11:49:02Z</time>
      </trkpt>
      <trkpt lat="45.95227" lon="4.74919">
        <ele>192</ele>
        <time>2018-02-13T11:49:03Z</time>
      </trkpt>
      <trkpt lat="45.95223" lon="4.74914">
        <ele>193</ele>
        <time>2018-02-13T11:49:04Z</time>
      </trkpt>
      <trkpt lat="45.9522" lon="4.74908">
        <ele>193</ele>
        <time>2018-02-13T11:49:05Z</time>
      </trkpt>
      <trkpt lat="45.95217" lon="4.74903">
        <ele>193</ele>
        <time>2018-02-13T11:49:06Z</time>
      </trkpt>
      <trkpt lat="45.95213" lon="4.74897">
        <ele>193</ele>
        <time>2018-02-13T11:49:07Z</time>
      </trkpt>
      <trkpt lat="45.95209" lon="4.74892">
        <ele>193</ele>
        <time>2018-02-13T11:49:08Z</time>
      </trkpt>
      <trkpt lat="45.95205" lon="4.74886">
        <ele>194</ele>
        <time>2018-02-13T11:49:09Z</time>
      </trkpt>
      <trkpt lat="45.95202" lon="4.7488">
        <ele>194</ele>
        <time>2018-02-13T11:49:10Z</time>
      </trkpt>
      <trkpt lat="45.95198" lon="4.74873">
        <ele>194</ele>
        <time>2018-02-13T11:49:11Z</time>
      </trkpt>
      <trkpt lat="45.95194" lon="4.74867">
        <ele>194</ele>
        <time>2018-02-13T11:49:12Z</time>
      </trkpt>
      <trkpt lat="45.9519" lon="4.7486">
        <ele>194</ele>
        <time>2018-02-13T11:49:13Z</time>
      </trkpt>
      <trkpt lat="45.95186" lon="4.74854">
        <ele>194</ele>
        <time>2018-02-13T11:49:14Z</time>
      </trkpt>
      <trkpt lat="45.95182" lon="4.74847">
        <ele>194</ele>
        <time>2018-02-13T11:49:15Z</time>
      </trkpt>
      <trkpt lat="45.95178" lon="4.74841">
        <ele>194</ele>
        <time>2018-02-13T11:49:16Z</time>
      </trkpt>
      <trkpt lat="45.95174" lon="4.74834">
        <ele>194</ele>
        <time>2018-02-13T11:49:17Z</time>
      </trkpt>
      <trkpt lat="45.9517" lon="4.74828">
        <ele>194</ele>
        <time>2018-02-13T11:49:18Z</time>
      </trkpt>
      <trkpt lat="45.95165" lon="4.74821">
        <ele>194</ele>
        <time>2018-02-13T11:49:19Z</time>
      </trkpt>
      <trkpt lat="45.95162" lon="4.74815">
        <ele>194</ele>
        <time>2018-02-13T11:49:20Z</time>
      </trkpt>
      <trkpt lat="45.95158" lon="4.74809">
        <ele>194</ele>
        <time>2018-02-13T11:49:21Z</time>
      </trkpt>
      <trkpt lat="45.95153" lon="4.74804">
        <ele>194</ele>
        <time>2018-02-13T11:49:22Z</time>
      </trkpt>
      <trkpt lat="45.9515" lon="4.74797">
        <ele>194</ele>
        <time>2018-02-13T11:49:23Z</time>
      </trkpt>
      <trkpt lat="45.95146" lon="4.74792">
        <ele>194</ele>
        <time>2018-02-13T11:49:24Z</time>
      </trkpt>
      <trkpt lat="45.95142" lon="4.74786">
        <ele>194</ele>
        <time>2018-02-13T11:49:25Z</time>
      </trkpt>
      <trkpt lat="45.95139" lon="4.74781">
        <ele>194</ele>
        <time>2018-02-13T11:49:26Z</time>
      </trkpt>
      <trkpt lat="45.95136" lon="4.74775">
        <ele>194</ele>
        <time>2018-02-13T11:49:27Z</time>
      </trkpt>
      <trkpt lat="45.95133" lon="4.74769">
        <ele>194</ele>
        <time>2018-02-13T11:49:28Z</time>
      </trkpt>
      <trkpt lat="45.95129" lon="4.74764">
        <ele>194</ele>
        <time>2018-02-13T11:49:29Z</time>
      </trkpt>
      <trkpt lat="45.95126" lon="4.74758">
        <ele>194</ele>
        <time>2018-02-13T11:49:30Z</time>
      </trkpt>
      <trkpt lat="45.95122" lon="4.74752">
        <ele>194</ele>
        <time>2018-02-13T11:49:31Z</time>
      </trkpt>
      <trkpt lat="45.95118" lon="4.74746">
        <ele>194</ele>
        <time>2018-02-13T11:49:32Z</time>
      </trkpt>
      <trkpt lat="45.95115" lon="4.7474">
        <ele>194</ele>
        <time>2018-02-13T11:49:33Z</time>
      </trkpt>
      <trkpt lat="45.95112" lon="4.74733">
        <ele>194</ele>
        <time>2018-02-13T11:49:34Z</time>
      </trkpt>
      <trkpt lat="45.95109" lon="4.74727">
        <ele>194</ele>
        <time>2018-02-13T11:49:35Z</time>
      </trkpt>
      <trkpt lat="45.95105" lon="4.74721">
        <ele>194</ele>
        <time>2018-02-13T11:49:36Z</time>
      </trkpt>
      <trkpt lat="45.95101" lon="4.74715">
        <ele>194</ele>
        <time>2018-02-13T11:49:37Z</time>
      </trkpt>
      <trkpt lat="45.95097" lon="4.7471">
        <ele>194</ele>
        <time>2018-02-13T11:49:38Z</time>
      </trkpt>
      <trkpt lat="45.95092" lon="4.74704">
        <ele>194</ele>
        <time>2018-02-13T11:49:39Z</time>
      </trkpt>
      <trkpt lat="45.95088" lon="4.74698">
        <ele>194</ele>
        <time>2018-02-13T11:49:40Z</time>
      </trkpt>
      <trkpt lat="45.95085" lon="4.74692">
        <ele>195</ele>
        <time>2018-02-13T11:49:41Z</time>
      </trkpt>
      <trkpt lat="45.95081" lon="4.74686">
        <ele>194</ele>
        <time>2018-02-13T11:49:42Z</time>
      </trkpt>
      <trkpt lat="45.95077" lon="4.74681">
        <ele>194</ele>
        <time>2018-02-13T11:49:43Z</time>
      </trkpt>
      <trkpt lat="45.95075" lon="4.74676">
        <ele>194</ele>
        <time>2018-02-13T11:49:44Z</time>
      </trkpt>
      <trkpt lat="45.95072" lon="4.74669">
        <ele>194</ele>
        <time>2018-02-13T11:49:45Z</time>
      </trkpt>
      <trkpt lat="45.95069" lon="4.74662">
        <ele>195</ele>
        <time>2018-02-13T11:49:46Z</time>
      </trkpt>
      <trkpt lat="45.95066" lon="4.74655">
        <ele>195</ele>
        <time>2018-02-13T11:49:47Z</time>
      </trkpt>
      <trkpt lat="45.95062" lon="4.74649">
        <ele>194</ele>
        <time>2018-02-13T11:49:48Z</time>
      </trkpt>
      <trkpt lat="45.95059" lon="4.74643">
        <ele>194</ele>
        <time>2018-02-13T11:49:49Z</time>
      </trkpt>
      <trkpt lat="45.95055" lon="4.74636">
        <ele>194</ele>
        <time>2018-02-13T11:49:50Z</time>
      </trkpt>
      <trkpt lat="45.95052" lon="4.7463">
        <ele>194</ele>
        <time>2018-02-13T11:49:51Z</time>
      </trkpt>
      <trkpt lat="45.95048" lon="4.74623">
        <ele>194</ele>
        <time>2018-02-13T11:49:52Z</time>
      </trkpt>
      <trkpt lat="45.95045" lon="4.74617">
        <ele>194</ele>
        <time>2018-02-13T11:49:53Z</time>
      </trkpt>
      <trkpt lat="45.95041" lon="4.7461">
        <ele>194</ele>
        <time>2018-02-13T11:49:54Z</time>
      </trkpt>
      <trkpt lat="45.95038" lon="4.74605">
        <ele>194</ele>
        <time>2018-02-13T11:49:55Z</time>
      </trkpt>
      <trkpt lat="45.95035" lon="4.74599">
        <ele>194</ele>
        <time>2018-02-13T11:49:56Z</time>
      </trkpt>
      <trkpt lat="45.95031" lon="4.74592">
        <ele>194</ele>
        <time>2018-02-13T11:49:57Z</time>
      </trkpt>
      <trkpt lat="45.95028" lon="4.74585">
        <ele>194</ele>
        <time>2018-02-13T11:49:58Z</time>
      </trkpt>
      <trkpt lat="45.95024" lon="4.74578">
        <ele>194</ele>
        <time>2018-02-13T11:49:59Z</time>
      </trkpt>
      <trkpt lat="45.95021" lon="4.74571">
        <ele>194</ele>
        <time>2018-02-13T11:50:00Z</time>
      </trkpt>
      <trkpt lat="45.95017" lon="4.74564">
        <ele>194</ele>
        <time>2018-02-13T11:50:01Z</time>
      </trkpt>
      <trkpt lat="45.95014" lon="4.74557">
        <ele>194</ele>
        <time>2018-02-13T11:50:02Z</time>
      </trkpt>
      <trkpt lat="45.9501" lon="4.7455">
        <ele>194</ele>
        <time>2018-02-13T11:50:03Z</time>
      </trkpt>
      <trkpt lat="45.95007" lon="4.74544">
        <ele>194</ele>
        <time>2018-02-13T11:50:04Z</time>
      </trkpt>
      <trkpt lat="45.95003" lon="4.74537">
        <ele>194</ele>
        <time>2018-02-13T11:50:05Z</time>
      </trkpt>
      <trkpt lat="45.94999" lon="4.74529">
        <ele>193</ele>
        <time>2018-02-13T11:50:06Z</time>
      </trkpt>
      <trkpt lat="45.94996" lon="4.74522">
        <ele>193</ele>
        <time>2018-02-13T11:50:07Z</time>
      </trkpt>
      <trkpt lat="45.94993" lon="4.74515">
        <ele>193</ele>
        <time>2018-02-13T11:50:08Z</time>
      </trkpt>
      <trkpt lat="45.94989" lon="4.74508">
        <ele>193</ele>
        <time>2018-02-13T11:50:09Z</time>
      </trkpt>
      <trkpt lat="45.94985" lon="4.74501">
        <ele>193</ele>
        <time>2018-02-13T11:50:10Z</time>
      </trkpt>
      <trkpt lat="45.94982" lon="4.74492">
        <ele>193</ele>
        <time>2018-02-13T11:50:11Z</time>
      </trkpt>
      <trkpt lat="45.94978" lon="4.74485">
        <ele>193</ele>
        <time>2018-02-13T11:50:12Z</time>
      </trkpt>
      <trkpt lat="45.94975" lon="4.74477">
        <ele>193</ele>
        <time>2018-02-13T11:50:13Z</time>
      </trkpt>
      <trkpt lat="45.94971" lon="4.7447">
        <ele>193</ele>
        <time>2018-02-13T11:50:14Z</time>
      </trkpt>
      <trkpt lat="45.94967" lon="4.74463">
        <ele>193</ele>
        <time>2018-02-13T11:50:15Z</time>
      </trkpt>
      <trkpt lat="45.94963" lon="4.74455">
        <ele>192</ele>
        <time>2018-02-13T11:50:16Z</time>
      </trkpt>
      <trkpt lat="45.94959" lon="4.74448">
        <ele>192</ele>
        <time>2018-02-13T11:50:17Z</time>
      </trkpt>
      <trkpt lat="45.94955" lon="4.74441">
        <ele>192</ele>
        <time>2018-02-13T11:50:18Z</time>
      </trkpt>
      <trkpt lat="45.94952" lon="4.74434">
        <ele>192</ele>
        <time>2018-02-13T11:50:19Z</time>
      </trkpt>
      <trkpt lat="45.94947" lon="4.74426">
        <ele>192</ele>
        <time>2018-02-13T11:50:20Z</time>
      </trkpt>
      <trkpt lat="45.94944" lon="4.74418">
        <ele>192</ele>
        <time>2018-02-13T11:50:21Z</time>
      </trkpt>
      <trkpt lat="45.9494" lon="4.74411">
        <ele>192</ele>
        <time>2018-02-13T11:50:22Z</time>
      </trkpt>
      <trkpt lat="45.94936" lon="4.74403">
        <ele>192</ele>
        <time>2018-02-13T11:50:23Z</time>
      </trkpt>
      <trkpt lat="45.94932" lon="4.74396">
        <ele>192</ele>
        <time>2018-02-13T11:50:24Z</time>
      </trkpt>
      <trkpt lat="45.94928" lon="4.74388">
        <ele>192</ele>
        <time>2018-02-13T11:50:25Z</time>
      </trkpt>
      <trkpt lat="45.94925" lon="4.74382">
        <ele>192</ele>
        <time>2018-02-13T11:50:26Z</time>
      </trkpt>
      <trkpt lat="45.9492" lon="4.74374">
        <ele>192</ele>
        <time>2018-02-13T11:50:27Z</time>
      </trkpt>
      <trkpt lat="45.94916" lon="4.74367">
        <ele>191</ele>
        <time>2018-02-13T11:50:28Z</time>
      </trkpt>
      <trkpt lat="45.94912" lon="4.74359">
        <ele>191</ele>
        <time>2018-02-13T11:50:29Z</time>
      </trkpt>
      <trkpt lat="45.94908" lon="4.74352">
        <ele>191</ele>
        <time>2018-02-13T11:50:30Z</time>
      </trkpt>
      <trkpt lat="45.94905" lon="4.74345">
        <ele>191</ele>
        <time>2018-02-13T11:50:31Z</time>
      </trkpt>
      <trkpt lat="45.94901" lon="4.74337">
        <ele>191</ele>
        <time>2018-02-13T11:50:32Z</time>
      </trkpt>
      <trkpt lat="45.94897" lon="4.7433">
        <ele>191</ele>
        <time>2018-02-13T11:50:33Z</time>
      </trkpt>
      <trkpt lat="45.94893" lon="4.74322">
        <ele>191</ele>
        <time>2018-02-13T11:50:34Z</time>
      </trkpt>
      <trkpt lat="45.94889" lon="4.74314">
        <ele>191</ele>
        <time>2018-02-13T11:50:35Z</time>
      </trkpt>
      <trkpt lat="45.94884" lon="4.74306">
        <ele>191</ele>
        <time>2018-02-13T11:50:36Z</time>
      </trkpt>
      <trkpt lat="45.94879" lon="4.74299">
        <ele>191</ele>
        <time>2018-02-13T11:50:37Z</time>
      </trkpt>
      <trkpt lat="45.94876" lon="4.74291">
        <ele>191</ele>
        <time>2018-02-13T11:50:38Z</time>
      </trkpt>
      <trkpt lat="45.94872" lon="4.74284">
        <ele>191</ele>
        <time>2018-02-13T11:50:39Z</time>
      </trkpt>
      <trkpt lat="45.94866" lon="4.74276">
        <ele>191</ele>
        <time>2018-02-13T11:50:40Z</time>
      </trkpt>
      <trkpt lat="45.94862" lon="4.74268">
        <ele>190</ele>
        <time>2018-02-13T11:50:41Z</time>
      </trkpt>
      <trkpt lat="45.94858" lon="4.7426">
        <ele>190</ele>
        <time>2018-02-13T11:50:42Z</time>
      </trkpt>
      <trkpt lat="45.94854" lon="4.74253">
        <ele>190</ele>
        <time>2018-02-13T11:50:43Z</time>
      </trkpt>
      <trkpt lat="45.94851" lon="4.74245">
        <ele>190</ele>
        <time>2018-02-13T11:50:44Z</time>
      </trkpt>
      <trkpt lat="45.94848" lon="4.74237">
        <ele>190</ele>
        <time>2018-02-13T11:50:45Z</time>
      </trkpt>
      <trkpt lat="45.94844" lon="4.74229">
        <ele>190</ele>
        <time>2018-02-13T11:50:46Z</time>
      </trkpt>
      <trkpt lat="45.9484" lon="4.74222">
        <ele>190</ele>
        <time>2018-02-13T11:50:47Z</time>
      </trkpt>
      <trkpt lat="45.94836" lon="4.74215">
        <ele>190</ele>
        <time>2018-02-13T11:50:48Z</time>
      </trkpt>
      <trkpt lat="45.94832" lon="4.74209">
        <ele>189</ele>
        <time>2018-02-13T11:50:49Z</time>
      </trkpt>
      <trkpt lat="45.94829" lon="4.74203">
        <ele>189</ele>
        <time>2018-02-13T11:50:50Z</time>
      </trkpt>
      <trkpt lat="45.94825" lon="4.74197">
        <ele>189</ele>
        <time>2018-02-13T11:50:51Z</time>
      </trkpt>
      <trkpt lat="45.94822" lon="4.7419">
        <ele>189</ele>
        <time>2018-02-13T11:50:52Z</time>
      </trkpt>
      <trkpt lat="45.94819" lon="4.74183">
        <ele>189</ele>
        <time>2018-02-13T11:50:53Z</time>
      </trkpt>
      <trkpt lat="45.94815" lon="4.74176">
        <ele>189</ele>
        <time>2018-02-13T11:50:54Z</time>
      </trkpt>
      <trkpt lat="45.94811" lon="4.7417">
        <ele>189</ele>
        <time>2018-02-13T11:50:55Z</time>
      </trkpt>
      <trkpt lat="45.94807" lon="4.74164">
        <ele>189</ele>
        <time>2018-02-13T11:50:56Z</time>
      </trkpt>
      <trkpt lat="45.94803" lon="4.74158">
        <ele>189</ele>
        <time>2018-02-13T11:50:57Z</time>
      </trkpt>
      <trkpt lat="45.948" lon="4.74151">
        <ele>189</ele>
        <time>2018-02-13T11:50:58Z</time>
      </trkpt>
      <trkpt lat="45.94796" lon="4.74145">
        <ele>189</ele>
        <time>2018-02-13T11:50:59Z</time>
      </trkpt>
      <trkpt lat="45.94792" lon="4.74139">
        <ele>189</ele>
        <time>2018-02-13T11:51:00Z</time>
      </trkpt>
      <trkpt lat="45.94788" lon="4.74133">
        <ele>189</ele>
        <time>2018-02-13T11:51:01Z</time>
      </trkpt>
      <trkpt lat="45.94785" lon="4.74125">
        <ele>189</ele>
        <time>2018-02-13T11:51:02Z</time>
      </trkpt>
      <trkpt lat="45.94781" lon="4.74119">
        <ele>189</ele>
        <time>2018-02-13T11:51:03Z</time>
      </trkpt>
      <trkpt lat="45.94778" lon="4.74112">
        <ele>189</ele>
        <time>2018-02-13T11:51:04Z</time>
      </trkpt>
      <trkpt lat="45.94773" lon="4.74106">
        <ele>189</ele>
        <time>2018-02-13T11:51:05Z</time>
      </trkpt>
      <trkpt lat="45.94769" lon="4.741">
        <ele>189</ele>
        <time>2018-02-13T11:51:06Z</time>
      </trkpt>
      <trkpt lat="45.94764" lon="4.74094">
        <ele>189</ele>
        <time>2018-02-13T11:51:07Z</time>
      </trkpt>
      <trkpt lat="45.94759" lon="4.74089">
        <ele>189</ele>
        <time>2018-02-13T11:51:08Z</time>
      </trkpt>
      <trkpt lat="45.94755" lon="4.74083">
        <ele>189</ele>
        <time>2018-02-13T11:51:09Z</time>
      </trkpt>
      <trkpt lat="45.94751" lon="4.74078">
        <ele>189</ele>
        <time>2018-02-13T11:51:10Z</time>
      </trkpt>
      <trkpt lat="45.94747" lon="4.74072">
        <ele>188</ele>
        <time>2018-02-13T11:51:11Z</time>
      </trkpt>
      <trkpt lat="45.94742" lon="4.74067">
        <ele>188</ele>
        <time>2018-02-13T11:51:12Z</time>
      </trkpt>
      <trkpt lat="45.94738" lon="4.74062">
        <ele>188</ele>
        <time>2018-02-13T11:51:13Z</time>
      </trkpt>
      <trkpt lat="45.94733" lon="4.74057">
        <ele>188</ele>
        <time>2018-02-13T11:51:14Z</time>
      </trkpt>
      <trkpt lat="45.9473" lon="4.74051">
        <ele>188</ele>
        <time>2018-02-13T11:51:15Z</time>
      </trkpt>
      <trkpt lat="45.94726" lon="4.74046">
        <ele>188</ele>
        <time>2018-02-13T11:51:16Z</time>
      </trkpt>
      <trkpt lat="45.94722" lon="4.74042">
        <ele>187</ele>
        <time>2018-02-13T11:51:17Z</time>
      </trkpt>
      <trkpt lat="45.94718" lon="4.74036">
        <ele>187</ele>
        <time>2018-02-13T11:51:18Z</time>
      </trkpt>
      <trkpt lat="45.94715" lon="4.74031">
        <ele>187</ele>
        <time>2018-02-13T11:51:19Z</time>
      </trkpt>
      <trkpt lat="45.94711" lon="4.74026">
        <ele>187</ele>
        <time>2018-02-13T11:51:20Z</time>
      </trkpt>
      <trkpt lat="45.94707" lon="4.7402">
        <ele>187</ele>
        <time>2018-02-13T11:51:21Z</time>
      </trkpt>
      <trkpt lat="45.94703" lon="4.74015">
        <ele>187</ele>
        <time>2018-02-13T11:51:22Z</time>
      </trkpt>
      <trkpt lat="45.947" lon="4.74009">
        <ele>187</ele>
        <time>2018-02-13T11:51:23Z</time>
      </trkpt>
      <trkpt lat="45.94695" lon="4.74004">
        <ele>187</ele>
        <time>2018-02-13T11:51:24Z</time>
      </trkpt>
      <trkpt lat="45.94691" lon="4.73999">
        <ele>187</ele>
        <time>2018-02-13T11:51:25Z</time>
      </trkpt>
      <trkpt lat="45.94687" lon="4.73993">
        <ele>187</ele>
        <time>2018-02-13T11:51:26Z</time>
      </trkpt>
      <trkpt lat="45.94683" lon="4.73986">
        <ele>187</ele>
        <time>2018-02-13T11:51:27Z</time>
      </trkpt>
      <trkpt lat="45.94679" lon="4.7398">
        <ele>187</ele>
        <time>2018-02-13T11:51:28Z</time>
      </trkpt>
      <trkpt lat="45.94674" lon="4.73975">
        <ele>187</ele>
        <time>2018-02-13T11:51:29Z</time>
      </trkpt>
      <trkpt lat="45.94669" lon="4.73969">
        <ele>187</ele>
        <time>2018-02-13T11:51:30Z</time>
      </trkpt>
      <trkpt lat="45.94665" lon="4.73963">
        <ele>187</ele>
        <time>2018-02-13T11:51:31Z</time>
      </trkpt>
      <trkpt lat="45.9466" lon="4.73956">
        <ele>187</ele>
        <time>2018-02-13T11:51:32Z</time>
      </trkpt>
      <trkpt lat="45.94655" lon="4.7395">
        <ele>187</ele>
        <time>2018-02-13T11:51:33Z</time>
      </trkpt>
      <trkpt lat="45.94651" lon="4.73944">
        <ele>187</ele>
        <time>2018-02-13T11:51:34Z</time>
      </trkpt>
      <trkpt lat="45.94647" lon="4.73938">
        <ele>187</ele>
        <time>2018-02-13T11:51:35Z</time>
      </trkpt>
      <trkpt lat="45.94642" lon="4.73932">
        <ele>187</ele>
        <time>2018-02-13T11:51:36Z</time>
      </trkpt>
      <trkpt lat="45.94638" lon="4.73925">
        <ele>187</ele>
        <time>2018-02-13T11:51:37Z</time>
      </trkpt>
      <trkpt lat="45.94633" lon="4.7392">
        <ele>187</ele>
        <time>2018-02-13T11:51:38Z</time>
      </trkpt>
      <trkpt lat="45.94629" lon="4.73914">
        <ele>187</ele>
        <time>2018-02-13T11:51:39Z</time>
      </trkpt>
      <trkpt lat="45.94624" lon="4.73909">
        <ele>187</ele>
        <time>2018-02-13T11:51:40Z</time>
      </trkpt>
      <trkpt lat="45.9462" lon="4.73903">
        <ele>187</ele>
        <time>2018-02-13T11:51:41Z</time>
      </trkpt>
      <trkpt lat="45.94614" lon="4.73897">
        <ele>187</ele>
        <time>2018-02-13T11:51:42Z</time>
      </trkpt>
      <trkpt lat="45.94609" lon="4.73891">
        <ele>187</ele>
        <time>2018-02-13T11:51:43Z</time>
      </trkpt>
      <trkpt lat="45.94605" lon="4.73885">
        <ele>187</ele>
        <time>2018-02-13T11:51:44Z</time>
      </trkpt>
      <trkpt lat="45.946" lon="4.7388">
        <ele>187</ele>
        <time>2018-02-13T11:51:45Z</time>
      </trkpt>
      <trkpt lat="45.94597" lon="4.73875">
        <ele>187</ele>
        <time>2018-02-13T11:51:46Z</time>
      </trkpt>
      <trkpt lat="45.94593" lon="4.7387">
        <ele>187</ele>
        <time>2018-02-13T11:51:47Z</time>
      </trkpt>
      <trkpt lat="45.94589" lon="4.73864">
        <ele>187</ele>
        <time>2018-02-13T11:51:48Z</time>
      </trkpt>
      <trkpt lat="45.94585" lon="4.7386">
        <ele>187</ele>
        <time>2018-02-13T11:51:49Z</time>
      </trkpt>
      <trkpt lat="45.94581" lon="4.73855">
        <ele>186</ele>
        <time>2018-02-13T11:51:50Z</time>
      </trkpt>
      <trkpt lat="45.94577" lon="4.73851">
        <ele>186</ele>
        <time>2018-02-13T11:51:51Z</time>
      </trkpt>
      <trkpt lat="45.94572" lon="4.73846">
        <ele>186</ele>
        <time>2018-02-13T11:51:52Z</time>
      </trkpt>
      <trkpt lat="45.94568" lon="4.73841">
        <ele>186</ele>
        <time>2018-02-13T11:51:53Z</time>
      </trkpt>
      <trkpt lat="45.94563" lon="4.73837">
        <ele>186</ele>
        <time>2018-02-13T11:51:54Z</time>
      </trkpt>
      <trkpt lat="45.94559" lon="4.73832">
        <ele>186</ele>
        <time>2018-02-13T11:51:55Z</time>
      </trkpt>
      <trkpt lat="45.94554" lon="4.73827">
        <ele>186</ele>
        <time>2018-02-13T11:51:56Z</time>
      </trkpt>
      <trkpt lat="45.9455" lon="4.73822">
        <ele>186</ele>
        <time>2018-02-13T11:51:57Z</time>
      </trkpt>
      <trkpt lat="45.94545" lon="4.73818">
        <ele>186</ele>
        <time>2018-02-13T11:51:58Z</time>
      </trkpt>
      <trkpt lat="45.94539" lon="4.73813">
        <ele>186</ele>
        <time>2018-02-13T11:51:59Z</time>
      </trkpt>
      <trkpt lat="45.94535" lon="4.73809">
        <ele>186</ele>
        <time>2018-02-13T11:52:00Z</time>
      </trkpt>
      <trkpt lat="45.94529" lon="4.73804">
        <ele>186</ele>
        <time>2018-02-13T11:52:01Z</time>
      </trkpt>
      <trkpt lat="45.94525" lon="4.738">
        <ele>186</ele>
        <time>2018-02-13T11:52:02Z</time>
      </trkpt>
      <trkpt lat="45.94521" lon="4.73795">
        <ele>186</ele>
        <time>2018-02-13T11:52:03Z</time>
      </trkpt>
      <trkpt lat="45.94516" lon="4.73791">
        <ele>186</ele>
        <time>2018-02-13T11:52:04Z</time>
      </trkpt>
      <trkpt lat="45.94511" lon="4.73786">
        <ele>186</ele>
        <time>2018-02-13T11:52:05Z</time>
      </trkpt>
      <trkpt lat="45.94507" lon="4.73782">
        <ele>186</ele>
        <time>2018-02-13T11:52:06Z</time>
      </trkpt>
      <trkpt lat="45.94504" lon="4.73777">
        <ele>186</ele>
        <time>2018-02-13T11:52:07Z</time>
      </trkpt>
      <trkpt lat="45.945" lon="4.73772">
        <ele>186</ele>
        <time>2018-02-13T11:52:08Z</time>
      </trkpt>
      <trkpt lat="45.94496" lon="4.73767">
        <ele>186</ele>
        <time>2018-02-13T11:52:09Z</time>
      </trkpt>
      <trkpt lat="45.94493" lon="4.73762">
        <ele>186</ele>
        <time>2018-02-13T11:52:10Z</time>
      </trkpt>
      <trkpt lat="45.94488" lon="4.73752">
        <ele>186</ele>
        <time>2018-02-13T11:52:12Z</time>
      </trkpt>
      <trkpt lat="45.94487" lon="4.73746">
        <ele>186</ele>
        <time>2018-02-13T11:52:13Z</time>
      </trkpt>
      <trkpt lat="45.94487" lon="4.73738">
        <ele>186</ele>
        <time>2018-02-13T11:52:14Z</time>
      </trkpt>
      <trkpt lat="45.94488" lon="4.73732">
        <ele>186</ele>
        <time>2018-02-13T11:52:15Z</time>
      </trkpt>
      <trkpt lat="45.94488" lon="4.73724">
        <ele>186</ele>
        <time>2018-02-13T11:52:16Z</time>
      </trkpt>
      <trkpt lat="45.9449" lon="4.73716">
        <ele>186</ele>
        <time>2018-02-13T11:52:17Z</time>
      </trkpt>
      <trkpt lat="45.94492" lon="4.73708">
        <ele>186</ele>
        <time>2018-02-13T11:52:18Z</time>
      </trkpt>
      <trkpt lat="45.94492" lon="4.73699">
        <ele>186</ele>
        <time>2018-02-13T11:52:19Z</time>
      </trkpt>
      <trkpt lat="45.94494" lon="4.73691">
        <ele>186</ele>
        <time>2018-02-13T11:52:20Z</time>
      </trkpt>
      <trkpt lat="45.94495" lon="4.73683">
        <ele>186</ele>
        <time>2018-02-13T11:52:21Z</time>
      </trkpt>
      <trkpt lat="45.94496" lon="4.73675">
        <ele>185</ele>
        <time>2018-02-13T11:52:22Z</time>
      </trkpt>
      <trkpt lat="45.94497" lon="4.73667">
        <ele>185</ele>
        <time>2018-02-13T11:52:23Z</time>
      </trkpt>
      <trkpt lat="45.94498" lon="4.73659">
        <ele>185</ele>
        <time>2018-02-13T11:52:24Z</time>
      </trkpt>
      <trkpt lat="45.94498" lon="4.73651">
        <ele>185</ele>
        <time>2018-02-13T11:52:25Z</time>
      </trkpt>
      <trkpt lat="45.94499" lon="4.73643">
        <ele>186</ele>
        <time>2018-02-13T11:52:26Z</time>
      </trkpt>
      <trkpt lat="45.945" lon="4.73635">
        <ele>184</ele>
        <time>2018-02-13T11:52:27Z</time>
      </trkpt>
      <trkpt lat="45.945" lon="4.73628">
        <ele>184</ele>
        <time>2018-02-13T11:52:28Z</time>
      </trkpt>
      <trkpt lat="45.94501" lon="4.73619">
        <ele>184</ele>
        <time>2018-02-13T11:52:29Z</time>
      </trkpt>
      <trkpt lat="45.94502" lon="4.73611">
        <ele>184</ele>
        <time>2018-02-13T11:52:30Z</time>
      </trkpt>
      <trkpt lat="45.94502" lon="4.73602">
        <ele>184</ele>
        <time>2018-02-13T11:52:31Z</time>
      </trkpt>
      <trkpt lat="45.94502" lon="4.73592">
        <ele>185</ele>
        <time>2018-02-13T11:52:32Z</time>
      </trkpt>
      <trkpt lat="45.94503" lon="4.73582">
        <ele>185</ele>
        <time>2018-02-13T11:52:33Z</time>
      </trkpt>
      <trkpt lat="45.94504" lon="4.73575">
        <ele>184</ele>
        <time>2018-02-13T11:52:34Z</time>
      </trkpt>
      <trkpt lat="45.94503" lon="4.73565">
        <ele>184</ele>
        <time>2018-02-13T11:52:35Z</time>
      </trkpt>
      <trkpt lat="45.94504" lon="4.73557">
        <ele>184</ele>
        <time>2018-02-13T11:52:36Z</time>
      </trkpt>
      <trkpt lat="45.94504" lon="4.73548">
        <ele>183</ele>
        <time>2018-02-13T11:52:37Z</time>
      </trkpt>
      <trkpt lat="45.94505" lon="4.7354">
        <ele>183</ele>
        <time>2018-02-13T11:52:38Z</time>
      </trkpt>
      <trkpt lat="45.94505" lon="4.73531">
        <ele>183</ele>
        <time>2018-02-13T11:52:39Z</time>
      </trkpt>
      <trkpt lat="45.94506" lon="4.73521">
        <ele>183</ele>
        <time>2018-02-13T11:52:40Z</time>
      </trkpt>
      <trkpt lat="45.94504" lon="4.7351">
        <ele>183</ele>
        <time>2018-02-13T11:52:41Z</time>
      </trkpt>
      <trkpt lat="45.94504" lon="4.73501">
        <ele>183</ele>
        <time>2018-02-13T11:52:42Z</time>
      </trkpt>
      <trkpt lat="45.94505" lon="4.7349">
        <ele>182</ele>
        <time>2018-02-13T11:52:43Z</time>
      </trkpt>
      <trkpt lat="45.94505" lon="4.73481">
        <ele>182</ele>
        <time>2018-02-13T11:52:44Z</time>
      </trkpt>
      <trkpt lat="45.94506" lon="4.73472">
        <ele>182</ele>
        <time>2018-02-13T11:52:45Z</time>
      </trkpt>
      <trkpt lat="45.94505" lon="4.73463">
        <ele>181</ele>
        <time>2018-02-13T11:52:46Z</time>
      </trkpt>
      <trkpt lat="45.94505" lon="4.73454">
        <ele>181</ele>
        <time>2018-02-13T11:52:47Z</time>
      </trkpt>
      <trkpt lat="45.94505" lon="4.73444">
        <ele>181</ele>
        <time>2018-02-13T11:52:48Z</time>
      </trkpt>
      <trkpt lat="45.94504" lon="4.73434">
        <ele>181</ele>
        <time>2018-02-13T11:52:49Z</time>
      </trkpt>
      <trkpt lat="45.94504" lon="4.73424">
        <ele>180</ele>
        <time>2018-02-13T11:52:50Z</time>
      </trkpt>
      <trkpt lat="45.94504" lon="4.73413">
        <ele>180</ele>
        <time>2018-02-13T11:52:51Z</time>
      </trkpt>
      <trkpt lat="45.94503" lon="4.73403">
        <ele>179</ele>
        <time>2018-02-13T11:52:52Z</time>
      </trkpt>
      <trkpt lat="45.94502" lon="4.73392">
        <ele>179</ele>
        <time>2018-02-13T11:52:53Z</time>
      </trkpt>
      <trkpt lat="45.94501" lon="4.73381">
        <ele>179</ele>
        <time>2018-02-13T11:52:54Z</time>
      </trkpt>
      <trkpt lat="45.94501" lon="4.73371">
        <ele>178</ele>
        <time>2018-02-13T11:52:55Z</time>
      </trkpt>
      <trkpt lat="45.945" lon="4.73362">
        <ele>179</ele>
        <time>2018-02-13T11:52:56Z</time>
      </trkpt>
      <trkpt lat="45.94499" lon="4.73352">
        <ele>178</ele>
        <time>2018-02-13T11:52:57Z</time>
      </trkpt>
      <trkpt lat="45.94498" lon="4.73342">
        <ele>178</ele>
        <time>2018-02-13T11:52:58Z</time>
      </trkpt>
      <trkpt lat="45.94497" lon="4.73332">
        <ele>177</ele>
        <time>2018-02-13T11:52:59Z</time>
      </trkpt>
      <trkpt lat="45.94496" lon="4.73322">
        <ele>177</ele>
        <time>2018-02-13T11:53:00Z</time>
      </trkpt>
      <trkpt lat="45.94494" lon="4.73311">
        <ele>177</ele>
        <time>2018-02-13T11:53:01Z</time>
      </trkpt>
      <trkpt lat="45.94493" lon="4.73301">
        <ele>177</ele>
        <time>2018-02-13T11:53:02Z</time>
      </trkpt>
      <trkpt lat="45.94493" lon="4.73291">
        <ele>177</ele>
        <time>2018-02-13T11:53:03Z</time>
      </trkpt>
      <trkpt lat="45.94491" lon="4.7328">
        <ele>177</ele>
        <time>2018-02-13T11:53:04Z</time>
      </trkpt>
      <trkpt lat="45.94488" lon="4.73269">
        <ele>177</ele>
        <time>2018-02-13T11:53:05Z</time>
      </trkpt>
      <trkpt lat="45.94486" lon="4.73259">
        <ele>176</ele>
        <time>2018-02-13T11:53:06Z</time>
      </trkpt>
      <trkpt lat="45.94485" lon="4.73248">
        <ele>175</ele>
        <time>2018-02-13T11:53:07Z</time>
      </trkpt>
      <trkpt lat="45.94483" lon="4.73238">
        <ele>175</ele>
        <time>2018-02-13T11:53:08Z</time>
      </trkpt>
      <trkpt lat="45.94482" lon="4.73228">
        <ele>175</ele>
        <time>2018-02-13T11:53:09Z</time>
      </trkpt>
      <trkpt lat="45.94481" lon="4.73217">
        <ele>175</ele>
        <time>2018-02-13T11:53:10Z</time>
      </trkpt>
      <trkpt lat="45.94479" lon="4.73209">
        <ele>175</ele>
        <time>2018-02-13T11:53:11Z</time>
      </trkpt>
      <trkpt lat="45.94478" lon="4.73201">
        <ele>174</ele>
        <time>2018-02-13T11:53:12Z</time>
      </trkpt>
      <trkpt lat="45.94477" lon="4.73192">
        <ele>174</ele>
        <time>2018-02-13T11:53:13Z</time>
      </trkpt>
      <trkpt lat="45.94475" lon="4.73183">
        <ele>174</ele>
        <time>2018-02-13T11:53:14Z</time>
      </trkpt>
      <trkpt lat="45.94475" lon="4.73176">
        <ele>174</ele>
        <time>2018-02-13T11:53:15Z</time>
      </trkpt>
      <trkpt lat="45.94473" lon="4.73165">
        <ele>173</ele>
        <time>2018-02-13T11:53:17Z</time>
      </trkpt>
      <trkpt lat="45.94472" lon="4.7316">
        <ele>173</ele>
        <time>2018-02-13T11:53:18Z</time>
      </trkpt>
      <trkpt lat="45.94471" lon="4.73148">
        <ele>172</ele>
        <time>2018-02-13T11:53:21Z</time>
      </trkpt>
      <trkpt lat="45.9447" lon="4.73143">
        <ele>172</ele>
        <time>2018-02-13T11:53:22Z</time>
      </trkpt>
      <trkpt lat="45.94469" lon="4.73132">
        <ele>172</ele>
        <time>2018-02-13T11:53:26Z</time>
      </trkpt>
      <trkpt lat="45.94468" lon="4.73128">
        <ele>172</ele>
        <time>2018-02-13T11:53:27Z</time>
      </trkpt>
      <trkpt lat="45.94467" lon="4.7312">
        <ele>172</ele>
        <time>2018-02-13T11:53:29Z</time>
      </trkpt>
      <trkpt lat="45.94465" lon="4.73116">
        <ele>172</ele>
        <time>2018-02-13T11:53:30Z</time>
      </trkpt>
      <trkpt lat="45.94462" lon="4.73106">
        <ele>172</ele>
        <time>2018-02-13T11:53:32Z</time>
      </trkpt>
      <trkpt lat="45.94462" lon="4.73101">
        <ele>171</ele>
        <time>2018-02-13T11:53:33Z</time>
      </trkpt>
      <trkpt lat="45.94463" lon="4.73089">
        <ele>171</ele>
        <time>2018-02-13T11:53:35Z</time>
      </trkpt>
      <trkpt lat="45.94463" lon="4.73083">
        <ele>170</ele>
        <time>2018-02-13T11:53:36Z</time>
      </trkpt>
      <trkpt lat="45.94465" lon="4.73077">
        <ele>170</ele>
        <time>2018-02-13T11:53:37Z</time>
      </trkpt>
      <trkpt lat="45.94463" lon="4.7307">
        <ele>170</ele>
        <time>2018-02-13T11:53:38Z</time>
      </trkpt>
      <trkpt lat="45.94461" lon="4.73064">
        <ele>170</ele>
        <time>2018-02-13T11:53:39Z</time>
      </trkpt>
      <trkpt lat="45.9446" lon="4.73057">
        <ele>170</ele>
        <time>2018-02-13T11:53:40Z</time>
      </trkpt>
      <trkpt lat="45.94457" lon="4.73046">
        <ele>170</ele>
        <time>2018-02-13T11:53:42Z</time>
      </trkpt>
      <trkpt lat="45.94456" lon="4.7304">
        <ele>169</ele>
        <time>2018-02-13T11:53:43Z</time>
      </trkpt>
      <trkpt lat="45.94456" lon="4.73027">
        <ele>169</ele>
        <time>2018-02-13T11:53:45Z</time>
      </trkpt>
      <trkpt lat="45.94453" lon="4.7302">
        <ele>169</ele>
        <time>2018-02-13T11:53:46Z</time>
      </trkpt>
      <trkpt lat="45.94452" lon="4.7301">
        <ele>169</ele>
        <time>2018-02-13T11:53:48Z</time>
      </trkpt>
      <trkpt lat="45.94452" lon="4.73003">
        <ele>169</ele>
        <time>2018-02-13T11:53:49Z</time>
      </trkpt>
      <trkpt lat="45.94451" lon="4.72991">
        <ele>167</ele>
        <time>2018-02-13T11:53:51Z</time>
      </trkpt>
      <trkpt lat="45.94451" lon="4.72985">
        <ele>167</ele>
        <time>2018-02-13T11:53:52Z</time>
      </trkpt>
      <trkpt lat="45.94449" lon="4.72974">
        <ele>167</ele>
        <time>2018-02-13T11:53:54Z</time>
      </trkpt>
      <trkpt lat="45.94449" lon="4.72969">
        <ele>167</ele>
        <time>2018-02-13T11:53:55Z</time>
      </trkpt>
      <trkpt lat="45.94447" lon="4.72958">
        <ele>167</ele>
        <time>2018-02-13T11:53:57Z</time>
      </trkpt>
      <trkpt lat="45.94446" lon="4.72953">
        <ele>167</ele>
        <time>2018-02-13T11:53:58Z</time>
      </trkpt>
      <trkpt lat="45.94444" lon="4.72942">
        <ele>167</ele>
        <time>2018-02-13T11:54:00Z</time>
      </trkpt>
      <trkpt lat="45.94444" lon="4.72937">
        <ele>167</ele>
        <time>2018-02-13T11:54:01Z</time>
      </trkpt>
      <trkpt lat="45.94442" lon="4.72927">
        <ele>167</ele>
        <time>2018-02-13T11:54:03Z</time>
      </trkpt>
      <trkpt lat="45.94441" lon="4.72922">
        <ele>167</ele>
        <time>2018-02-13T11:54:04Z</time>
      </trkpt>
      <trkpt lat="45.9444" lon="4.72912">
        <ele>166</ele>
        <time>2018-02-13T11:54:06Z</time>
      </trkpt>
      <trkpt lat="45.9444" lon="4.72907">
        <ele>166</ele>
        <time>2018-02-13T11:54:07Z</time>
      </trkpt>
      <trkpt lat="45.94438" lon="4.72896">
        <ele>166</ele>
        <time>2018-02-13T11:54:09Z</time>
      </trkpt>
      <trkpt lat="45.94437" lon="4.7289">
        <ele>166</ele>
        <time>2018-02-13T11:54:10Z</time>
      </trkpt>
      <trkpt lat="45.94435" lon="4.72878">
        <ele>166</ele>
        <time>2018-02-13T11:54:12Z</time>
      </trkpt>
      <trkpt lat="45.94434" lon="4.72872">
        <ele>166</ele>
        <time>2018-02-13T11:54:13Z</time>
      </trkpt>
      <trkpt lat="45.94434" lon="4.72865">
        <ele>166</ele>
        <time>2018-02-13T11:54:14Z</time>
      </trkpt>
      <trkpt lat="45.94433" lon="4.72858">
        <ele>166</ele>
        <time>2018-02-13T11:54:15Z</time>
      </trkpt>
      <trkpt lat="45.94432" lon="4.72852">
        <ele>166</ele>
        <time>2018-02-13T11:54:16Z</time>
      </trkpt>
      <trkpt lat="45.94432" lon="4.72844">
        <ele>166</ele>
        <time>2018-02-13T11:54:17Z</time>
      </trkpt>
      <trkpt lat="45.9443" lon="4.72832">
        <ele>167</ele>
        <time>2018-02-13T11:54:19Z</time>
      </trkpt>
      <trkpt lat="45.94429" lon="4.72825">
        <ele>167</ele>
        <time>2018-02-13T11:54:20Z</time>
      </trkpt>
      <trkpt lat="45.94428" lon="4.72819">
        <ele>167</ele>
        <time>2018-02-13T11:54:21Z</time>
      </trkpt>
      <trkpt lat="45.94427" lon="4.72812">
        <ele>167</ele>
        <time>2018-02-13T11:54:22Z</time>
      </trkpt>
      <trkpt lat="45.94425" lon="4.72806">
        <ele>167</ele>
        <time>2018-02-13T11:54:23Z</time>
      </trkpt>
      <trkpt lat="45.94424" lon="4.72799">
        <ele>167</ele>
        <time>2018-02-13T11:54:24Z</time>
      </trkpt>
      <trkpt lat="45.94422" lon="4.72792">
        <ele>168</ele>
        <time>2018-02-13T11:54:25Z</time>
      </trkpt>
      <trkpt lat="45.94421" lon="4.72785">
        <ele>168</ele>
        <time>2018-02-13T11:54:26Z</time>
      </trkpt>
      <trkpt lat="45.9442" lon="4.72777">
        <ele>168</ele>
        <time>2018-02-13T11:54:27Z</time>
      </trkpt>
      <trkpt lat="45.9442" lon="4.7277">
        <ele>169</ele>
        <time>2018-02-13T11:54:28Z</time>
      </trkpt>
      <trkpt lat="45.94418" lon="4.72762">
        <ele>170</ele>
        <time>2018-02-13T11:54:29Z</time>
      </trkpt>
      <trkpt lat="45.94417" lon="4.72754">
        <ele>170</ele>
        <time>2018-02-13T11:54:30Z</time>
      </trkpt>
      <trkpt lat="45.94416" lon="4.72745">
        <ele>171</ele>
        <time>2018-02-13T11:54:31Z</time>
      </trkpt>
      <trkpt lat="45.94416" lon="4.72737">
        <ele>171</ele>
        <time>2018-02-13T11:54:32Z</time>
      </trkpt>
      <trkpt lat="45.94415" lon="4.72729">
        <ele>172</ele>
        <time>2018-02-13T11:54:33Z</time>
      </trkpt>
      <trkpt lat="45.94414" lon="4.72721">
        <ele>172</ele>
        <time>2018-02-13T11:54:34Z</time>
      </trkpt>
      <trkpt lat="45.94413" lon="4.72712">
        <ele>172</ele>
        <time>2018-02-13T11:54:35Z</time>
      </trkpt>
      <trkpt lat="45.94412" lon="4.72704">
        <ele>172</ele>
        <time>2018-02-13T11:54:36Z</time>
      </trkpt>
      <trkpt lat="45.94412" lon="4.72696">
        <ele>173</ele>
        <time>2018-02-13T11:54:37Z</time>
      </trkpt>
      <trkpt lat="45.9441" lon="4.72689">
        <ele>173</ele>
        <time>2018-02-13T11:54:38Z</time>
      </trkpt>
      <trkpt lat="45.9441" lon="4.72682">
        <ele>173</ele>
        <time>2018-02-13T11:54:39Z</time>
      </trkpt>
      <trkpt lat="45.94409" lon="4.72673">
        <ele>173</ele>
        <time>2018-02-13T11:54:40Z</time>
      </trkpt>
      <trkpt lat="45.94407" lon="4.72664">
        <ele>174</ele>
        <time>2018-02-13T11:54:41Z</time>
      </trkpt>
      <trkpt lat="45.94406" lon="4.72655">
        <ele>174</ele>
        <time>2018-02-13T11:54:42Z</time>
      </trkpt>
      <trkpt lat="45.94405" lon="4.72646">
        <ele>174</ele>
        <time>2018-02-13T11:54:43Z</time>
      </trkpt>
      <trkpt lat="45.94404" lon="4.72637">
        <ele>174</ele>
        <time>2018-02-13T11:54:44Z</time>
      </trkpt>
      <trkpt lat="45.94403" lon="4.72628">
        <ele>174</ele>
        <time>2018-02-13T11:54:45Z</time>
      </trkpt>
      <trkpt lat="45.94402" lon="4.72619">
        <ele>173</ele>
        <time>2018-02-13T11:54:46Z</time>
      </trkpt>
      <trkpt lat="45.94401" lon="4.72611">
        <ele>173</ele>
        <time>2018-02-13T11:54:47Z</time>
      </trkpt>
      <trkpt lat="45.94401" lon="4.72603">
        <ele>173</ele>
        <time>2018-02-13T11:54:48Z</time>
      </trkpt>
      <trkpt lat="45.944" lon="4.72596">
        <ele>173</ele>
        <time>2018-02-13T11:54:49Z</time>
      </trkpt>
      <trkpt lat="45.94399" lon="4.72589">
        <ele>173</ele>
        <time>2018-02-13T11:54:50Z</time>
      </trkpt>
      <trkpt lat="45.94397" lon="4.72581">
        <ele>173</ele>
        <time>2018-02-13T11:54:51Z</time>
      </trkpt>
      <trkpt lat="45.94396" lon="4.72574">
        <ele>173</ele>
        <time>2018-02-13T11:54:52Z</time>
      </trkpt>
      <trkpt lat="45.94395" lon="4.72567">
        <ele>173</ele>
        <time>2018-02-13T11:54:53Z</time>
      </trkpt>
      <trkpt lat="45.94394" lon="4.72559">
        <ele>173</ele>
        <time>2018-02-13T11:54:54Z</time>
      </trkpt>
      <trkpt lat="45.94392" lon="4.72553">
        <ele>173</ele>
        <time>2018-02-13T11:54:55Z</time>
      </trkpt>
      <trkpt lat="45.94391" lon="4.72545">
        <ele>173</ele>
        <time>2018-02-13T11:54:56Z</time>
      </trkpt>
      <trkpt lat="45.94389" lon="4.72537">
        <ele>174</ele>
        <time>2018-02-13T11:54:57Z</time>
      </trkpt>
      <trkpt lat="45.94387" lon="4.72531">
        <ele>174</ele>
        <time>2018-02-13T11:54:58Z</time>
      </trkpt>
      <trkpt lat="45.94385" lon="4.72523">
        <ele>174</ele>
        <time>2018-02-13T11:54:59Z</time>
      </trkpt>
      <trkpt lat="45.94382" lon="4.72517">
        <ele>174</ele>
        <time>2018-02-13T11:55:00Z</time>
      </trkpt>
      <trkpt lat="45.9438" lon="4.7251">
        <ele>174</ele>
        <time>2018-02-13T11:55:01Z</time>
      </trkpt>
      <trkpt lat="45.94378" lon="4.72502">
        <ele>174</ele>
        <time>2018-02-13T11:55:02Z</time>
      </trkpt>
      <trkpt lat="45.94376" lon="4.72496">
        <ele>173</ele>
        <time>2018-02-13T11:55:03Z</time>
      </trkpt>
      <trkpt lat="45.94373" lon="4.72488">
        <ele>173</ele>
        <time>2018-02-13T11:55:04Z</time>
      </trkpt>
      <trkpt lat="45.9437" lon="4.7248">
        <ele>173</ele>
        <time>2018-02-13T11:55:05Z</time>
      </trkpt>
      <trkpt lat="45.94369" lon="4.72474">
        <ele>173</ele>
        <time>2018-02-13T11:55:06Z</time>
      </trkpt>
      <trkpt lat="45.94367" lon="4.72467">
        <ele>173</ele>
        <time>2018-02-13T11:55:07Z</time>
      </trkpt>
      <trkpt lat="45.94365" lon="4.7246">
        <ele>173</ele>
        <time>2018-02-13T11:55:08Z</time>
      </trkpt>
      <trkpt lat="45.94362" lon="4.72454">
        <ele>173</ele>
        <time>2018-02-13T11:55:09Z</time>
      </trkpt>
      <trkpt lat="45.94359" lon="4.72447">
        <ele>173</ele>
        <time>2018-02-13T11:55:10Z</time>
      </trkpt>
      <trkpt lat="45.94355" lon="4.72441">
        <ele>173</ele>
        <time>2018-02-13T11:55:11Z</time>
      </trkpt>
      <trkpt lat="45.94353" lon="4.72434">
        <ele>173</ele>
        <time>2018-02-13T11:55:12Z</time>
      </trkpt>
      <trkpt lat="45.9435" lon="4.72427">
        <ele>173</ele>
        <time>2018-02-13T11:55:13Z</time>
      </trkpt>
      <trkpt lat="45.94346" lon="4.7242">
        <ele>173</ele>
        <time>2018-02-13T11:55:14Z</time>
      </trkpt>
      <trkpt lat="45.94343" lon="4.72414">
        <ele>173</ele>
        <time>2018-02-13T11:55:15Z</time>
      </trkpt>
      <trkpt lat="45.94339" lon="4.72408">
        <ele>173</ele>
        <time>2018-02-13T11:55:16Z</time>
      </trkpt>
      <trkpt lat="45.94335" lon="4.72401">
        <ele>173</ele>
        <time>2018-02-13T11:55:17Z</time>
      </trkpt>
      <trkpt lat="45.94331" lon="4.72394">
        <ele>172</ele>
        <time>2018-02-13T11:55:18Z</time>
      </trkpt>
      <trkpt lat="45.9433" lon="4.72386">
        <ele>172</ele>
        <time>2018-02-13T11:55:19Z</time>
      </trkpt>
      <trkpt lat="45.94327" lon="4.7238">
        <ele>172</ele>
        <time>2018-02-13T11:55:20Z</time>
      </trkpt>
      <trkpt lat="45.94325" lon="4.72373">
        <ele>172</ele>
        <time>2018-02-13T11:55:21Z</time>
      </trkpt>
      <trkpt lat="45.94322" lon="4.72367">
        <ele>172</ele>
        <time>2018-02-13T11:55:22Z</time>
      </trkpt>
      <trkpt lat="45.94319" lon="4.72363">
        <ele>172</ele>
        <time>2018-02-13T11:55:23Z</time>
      </trkpt>
      <trkpt lat="45.94318" lon="4.72355">
        <ele>172</ele>
        <time>2018-02-13T11:55:24Z</time>
      </trkpt>
      <trkpt lat="45.94317" lon="4.72349">
        <ele>172</ele>
        <time>2018-02-13T11:55:25Z</time>
      </trkpt>
      <trkpt lat="45.94315" lon="4.72343">
        <ele>172</ele>
        <time>2018-02-13T11:55:26Z</time>
      </trkpt>
      <trkpt lat="45.9431" lon="4.72334">
        <ele>172</ele>
        <time>2018-02-13T11:55:28Z</time>
      </trkpt>
      <trkpt lat="45.94308" lon="4.72329">
        <ele>171</ele>
        <time>2018-02-13T11:55:29Z</time>
      </trkpt>
      <trkpt lat="45.94305" lon="4.7232">
        <ele>171</ele>
        <time>2018-02-13T11:55:31Z</time>
      </trkpt>
      <trkpt lat="45.94302" lon="4.72312">
        <ele>171</ele>
        <time>2018-02-13T11:55:32Z</time>
      </trkpt>
      <trkpt lat="45.94299" lon="4.72307">
        <ele>171</ele>
        <time>2018-02-13T11:55:33Z</time>
      </trkpt>
      <trkpt lat="45.94295" lon="4.72301">
        <ele>171</ele>
        <time>2018-02-13T11:55:34Z</time>
      </trkpt>
      <trkpt lat="45.94291" lon="4.72291">
        <ele>171</ele>
        <time>2018-02-13T11:55:36Z</time>
      </trkpt>
      <trkpt lat="45.94288" lon="4.72286">
        <ele>171</ele>
        <time>2018-02-13T11:55:37Z</time>
      </trkpt>
      <trkpt lat="45.94283" lon="4.72276">
        <ele>171</ele>
        <time>2018-02-13T11:55:39Z</time>
      </trkpt>
      <trkpt lat="45.94282" lon="4.72272">
        <ele>171</ele>
        <time>2018-02-13T11:55:40Z</time>
      </trkpt>
      <trkpt lat="45.94277" lon="4.72266">
        <ele>171</ele>
        <time>2018-02-13T11:55:42Z</time>
      </trkpt>
      <trkpt lat="45.94273" lon="4.72267">
        <ele>171</ele>
        <time>2018-02-13T11:55:43Z</time>
      </trkpt>
      <trkpt lat="45.94265" lon="4.72271">
        <ele>171</ele>
        <time>2018-02-13T11:55:45Z</time>
      </trkpt>
      <trkpt lat="45.9426" lon="4.72275">
        <ele>171</ele>
        <time>2018-02-13T11:55:46Z</time>
      </trkpt>
      <trkpt lat="45.94254" lon="4.72277">
        <ele>171</ele>
        <time>2018-02-13T11:55:47Z</time>
      </trkpt>
      <trkpt lat="45.9425" lon="4.72279">
        <ele>171</ele>
        <time>2018-02-13T11:55:48Z</time>
      </trkpt>
      <trkpt lat="45.94244" lon="4.72281">
        <ele>171</ele>
        <time>2018-02-13T11:55:49Z</time>
      </trkpt>
      <trkpt lat="45.94239" lon="4.72284">
        <ele>171</ele>
        <time>2018-02-13T11:55:50Z</time>
      </trkpt>
      <trkpt lat="45.94234" lon="4.72285">
        <ele>171</ele>
        <time>2018-02-13T11:55:51Z</time>
      </trkpt>
      <trkpt lat="45.94228" lon="4.72286">
        <ele>171</ele>
        <time>2018-02-13T11:55:52Z</time>
      </trkpt>
      <trkpt lat="45.94222" lon="4.72287">
        <ele>171</ele>
        <time>2018-02-13T11:55:53Z</time>
      </trkpt>
      <trkpt lat="45.94217" lon="4.72288">
        <ele>171</ele>
        <time>2018-02-13T11:55:54Z</time>
      </trkpt>
      <trkpt lat="45.94211" lon="4.72288">
        <ele>171</ele>
        <time>2018-02-13T11:55:55Z</time>
      </trkpt>
      <trkpt lat="45.94206" lon="4.72288">
        <ele>171</ele>
        <time>2018-02-13T11:55:56Z</time>
      </trkpt>
      <trkpt lat="45.942" lon="4.72288">
        <ele>171</ele>
        <time>2018-02-13T11:55:57Z</time>
      </trkpt>
      <trkpt lat="45.94194" lon="4.72288">
        <ele>171</ele>
        <time>2018-02-13T11:55:58Z</time>
      </trkpt>
      <trkpt lat="45.94189" lon="4.72287">
        <ele>171</ele>
        <time>2018-02-13T11:55:59Z</time>
      </trkpt>
      <trkpt lat="45.94183" lon="4.72287">
        <ele>171</ele>
        <time>2018-02-13T11:56:00Z</time>
      </trkpt>
      <trkpt lat="45.94179" lon="4.72287">
        <ele>171</ele>
        <time>2018-02-13T11:56:01Z</time>
      </trkpt>
      <trkpt lat="45.94173" lon="4.72286">
        <ele>171</ele>
        <time>2018-02-13T11:56:02Z</time>
      </trkpt>
      <trkpt lat="45.94166" lon="4.72285">
        <ele>171</ele>
        <time>2018-02-13T11:56:03Z</time>
      </trkpt>
      <trkpt lat="45.9416" lon="4.72284">
        <ele>171</ele>
        <time>2018-02-13T11:56:04Z</time>
      </trkpt>
      <trkpt lat="45.94154" lon="4.72283">
        <ele>171</ele>
        <time>2018-02-13T11:56:05Z</time>
      </trkpt>
      <trkpt lat="45.94148" lon="4.72281">
        <ele>171</ele>
        <time>2018-02-13T11:56:06Z</time>
      </trkpt>
      <trkpt lat="45.94143" lon="4.72279">
        <ele>171</ele>
        <time>2018-02-13T11:56:07Z</time>
      </trkpt>
      <trkpt lat="45.94138" lon="4.72276">
        <ele>171</ele>
        <time>2018-02-13T11:56:08Z</time>
      </trkpt>
      <trkpt lat="45.94132" lon="4.72274">
        <ele>171</ele>
        <time>2018-02-13T11:56:09Z</time>
      </trkpt>
      <trkpt lat="45.94128" lon="4.72272">
        <ele>171</ele>
        <time>2018-02-13T11:56:10Z</time>
      </trkpt>
      <trkpt lat="45.94123" lon="4.72269">
        <ele>171</ele>
        <time>2018-02-13T11:56:11Z</time>
      </trkpt>
      <trkpt lat="45.94119" lon="4.72266">
        <ele>171</ele>
        <time>2018-02-13T11:56:12Z</time>
      </trkpt>
      <trkpt lat="45.94114" lon="4.72263">
        <ele>171</ele>
        <time>2018-02-13T11:56:13Z</time>
      </trkpt>
      <trkpt lat="45.94108" lon="4.72261">
        <ele>171</ele>
        <time>2018-02-13T11:56:14Z</time>
      </trkpt>
      <trkpt lat="45.94103" lon="4.7226">
        <ele>171</ele>
        <time>2018-02-13T11:56:15Z</time>
      </trkpt>
      <trkpt lat="45.94097" lon="4.72259">
        <ele>171</ele>
        <time>2018-02-13T11:56:16Z</time>
      </trkpt>
      <trkpt lat="45.94091" lon="4.7226">
        <ele>171</ele>
        <time>2018-02-13T11:56:17Z</time>
      </trkpt>
      <trkpt lat="45.94085" lon="4.72262">
        <ele>171</ele>
        <time>2018-02-13T11:56:18Z</time>
      </trkpt>
      <trkpt lat="45.9408" lon="4.72265">
        <ele>171</ele>
        <time>2018-02-13T11:56:19Z</time>
      </trkpt>
      <trkpt lat="45.94073" lon="4.72268">
        <ele>171</ele>
        <time>2018-02-13T11:56:20Z</time>
      </trkpt>
      <trkpt lat="45.94068" lon="4.72272">
        <ele>171</ele>
        <time>2018-02-13T11:56:21Z</time>
      </trkpt>
      <trkpt lat="45.94062" lon="4.72277">
        <ele>171</ele>
        <time>2018-02-13T11:56:22Z</time>
      </trkpt>
      <trkpt lat="45.94057" lon="4.72283">
        <ele>171</ele>
        <time>2018-02-13T11:56:23Z</time>
      </trkpt>
      <trkpt lat="45.94051" lon="4.72289">
        <ele>171</ele>
        <time>2018-02-13T11:56:24Z</time>
      </trkpt>
      <trkpt lat="45.94047" lon="4.72295">
        <ele>171</ele>
        <time>2018-02-13T11:56:25Z</time>
      </trkpt>
      <trkpt lat="45.94042" lon="4.72299">
        <ele>171</ele>
        <time>2018-02-13T11:56:26Z</time>
      </trkpt>
      <trkpt lat="45.94038" lon="4.72307">
        <ele>171</ele>
        <time>2018-02-13T11:56:27Z</time>
      </trkpt>
      <trkpt lat="45.94033" lon="4.72313">
        <ele>171</ele>
        <time>2018-02-13T11:56:28Z</time>
      </trkpt>
      <trkpt lat="45.94029" lon="4.72319">
        <ele>171</ele>
        <time>2018-02-13T11:56:29Z</time>
      </trkpt>
      <trkpt lat="45.94025" lon="4.72325">
        <ele>171</ele>
        <time>2018-02-13T11:56:30Z</time>
      </trkpt>
      <trkpt lat="45.94021" lon="4.7233">
        <ele>171</ele>
        <time>2018-02-13T11:56:31Z</time>
      </trkpt>
      <trkpt lat="45.94017" lon="4.72335">
        <ele>171</ele>
        <time>2018-02-13T11:56:32Z</time>
      </trkpt>
      <trkpt lat="45.94012" lon="4.7234">
        <ele>171</ele>
        <time>2018-02-13T11:56:33Z</time>
      </trkpt>
      <trkpt lat="45.94008" lon="4.72345">
        <ele>171</ele>
        <time>2018-02-13T11:56:34Z</time>
      </trkpt>
      <trkpt lat="45.94004" lon="4.72349">
        <ele>171</ele>
        <time>2018-02-13T11:56:35Z</time>
      </trkpt>
      <trkpt lat="45.94" lon="4.72356">
        <ele>171</ele>
        <time>2018-02-13T11:56:36Z</time>
      </trkpt>
      <trkpt lat="45.93996" lon="4.72362">
        <ele>171</ele>
        <time>2018-02-13T11:56:37Z</time>
      </trkpt>
      <trkpt lat="45.93992" lon="4.72367">
        <ele>171</ele>
        <time>2018-02-13T11:56:38Z</time>
      </trkpt>
      <trkpt lat="45.93988" lon="4.72371">
        <ele>171</ele>
        <time>2018-02-13T11:56:39Z</time>
      </trkpt>
      <trkpt lat="45.93985" lon="4.72376">
        <ele>171</ele>
        <time>2018-02-13T11:56:40Z</time>
      </trkpt>
      <trkpt lat="45.9398" lon="4.72382">
        <ele>171</ele>
        <time>2018-02-13T11:56:41Z</time>
      </trkpt>
      <trkpt lat="45.93976" lon="4.72387">
        <ele>171</ele>
        <time>2018-02-13T11:56:42Z</time>
      </trkpt>
      <trkpt lat="45.93972" lon="4.72392">
        <ele>171</ele>
        <time>2018-02-13T11:56:43Z</time>
      </trkpt>
      <trkpt lat="45.93968" lon="4.72396">
        <ele>171</ele>
        <time>2018-02-13T11:56:44Z</time>
      </trkpt>
      <trkpt lat="45.93963" lon="4.72401">
        <ele>171</ele>
        <time>2018-02-13T11:56:45Z</time>
      </trkpt>
      <trkpt lat="45.9396" lon="4.72406">
        <ele>171</ele>
        <time>2018-02-13T11:56:46Z</time>
      </trkpt>
      <trkpt lat="45.93955" lon="4.72411">
        <ele>171</ele>
        <time>2018-02-13T11:56:47Z</time>
      </trkpt>
      <trkpt lat="45.9395" lon="4.72416">
        <ele>171</ele>
        <time>2018-02-13T11:56:48Z</time>
      </trkpt>
      <trkpt lat="45.93946" lon="4.7242">
        <ele>171</ele>
        <time>2018-02-13T11:56:49Z</time>
      </trkpt>
      <trkpt lat="45.93941" lon="4.72424">
        <ele>172</ele>
        <time>2018-02-13T11:56:50Z</time>
      </trkpt>
      <trkpt lat="45.93937" lon="4.72428">
        <ele>172</ele>
        <time>2018-02-13T11:56:51Z</time>
      </trkpt>
      <trkpt lat="45.93934" lon="4.72432">
        <ele>172</ele>
        <time>2018-02-13T11:56:52Z</time>
      </trkpt>
      <trkpt lat="45.93928" lon="4.72441">
        <ele>171</ele>
        <time>2018-02-13T11:56:54Z</time>
      </trkpt>
      <trkpt lat="45.93924" lon="4.72447">
        <ele>171</ele>
        <time>2018-02-13T11:56:55Z</time>
      </trkpt>
      <trkpt lat="45.93921" lon="4.72452">
        <ele>171</ele>
        <time>2018-02-13T11:56:56Z</time>
      </trkpt>
      <trkpt lat="45.93917" lon="4.72457">
        <ele>171</ele>
        <time>2018-02-13T11:56:57Z</time>
      </trkpt>
      <trkpt lat="45.93915" lon="4.72462">
        <ele>172</ele>
        <time>2018-02-13T11:56:58Z</time>
      </trkpt>
      <trkpt lat="45.9391" lon="4.72466">
        <ele>172</ele>
        <time>2018-02-13T11:56:59Z</time>
      </trkpt>
      <trkpt lat="45.93904" lon="4.72474">
        <ele>172</ele>
        <time>2018-02-13T11:57:01Z</time>
      </trkpt>
      <trkpt lat="45.939" lon="4.72478">
        <ele>172</ele>
        <time>2018-02-13T11:57:02Z</time>
      </trkpt>
      <trkpt lat="45.93894" lon="4.72486">
        <ele>172</ele>
        <time>2018-02-13T11:57:04Z</time>
      </trkpt>
      <trkpt lat="45.93891" lon="4.72491">
        <ele>172</ele>
        <time>2018-02-13T11:57:05Z</time>
      </trkpt>
      <trkpt lat="45.93888" lon="4.72496">
        <ele>172</ele>
        <time>2018-02-13T11:57:06Z</time>
      </trkpt>
      <trkpt lat="45.93884" lon="4.725">
        <ele>172</ele>
        <time>2018-02-13T11:57:07Z</time>
      </trkpt>
      <trkpt lat="45.93879" lon="4.72504">
        <ele>173</ele>
        <time>2018-02-13T11:57:08Z</time>
      </trkpt>
      <trkpt lat="45.93876" lon="4.72507">
        <ele>173</ele>
        <time>2018-02-13T11:57:09Z</time>
      </trkpt>
      <trkpt lat="45.93871" lon="4.72509">
        <ele>173</ele>
        <time>2018-02-13T11:57:10Z</time>
      </trkpt>
      <trkpt lat="45.93866" lon="4.7251">
        <ele>173</ele>
        <time>2018-02-13T11:57:11Z</time>
      </trkpt>
      <trkpt lat="45.9386" lon="4.72508">
        <ele>173</ele>
        <time>2018-02-13T11:57:12Z</time>
      </trkpt>
      <trkpt lat="45.93856" lon="4.72505">
        <ele>173</ele>
        <time>2018-02-13T11:57:13Z</time>
      </trkpt>
      <trkpt lat="45.9385" lon="4.72498">
        <ele>173</ele>
        <time>2018-02-13T11:57:15Z</time>
      </trkpt>
      <trkpt lat="45.93847" lon="4.72497">
        <ele>173</ele>
        <time>2018-02-13T11:57:16Z</time>
      </trkpt>
      <trkpt lat="45.93843" lon="4.72494">
        <ele>173</ele>
        <time>2018-02-13T11:57:21Z</time>
      </trkpt>
      <trkpt lat="45.93826" lon="4.72473">
        <ele>172</ele>
        <time>2018-02-13T11:57:22Z</time>
      </trkpt>
      <trkpt lat="45.93819" lon="4.72467">
        <ele>172</ele>
        <time>2018-02-13T11:57:24Z</time>
      </trkpt>
      <trkpt lat="45.93816" lon="4.72464">
        <ele>172</ele>
        <time>2018-02-13T11:57:25Z</time>
      </trkpt>
      <trkpt lat="45.9381" lon="4.72459">
        <ele>172</ele>
        <time>2018-02-13T11:57:27Z</time>
      </trkpt>
      <trkpt lat="45.93807" lon="4.72454">
        <ele>172</ele>
        <time>2018-02-13T11:57:28Z</time>
      </trkpt>
      <trkpt lat="45.93801" lon="4.72451">
        <ele>172</ele>
        <time>2018-02-13T11:57:30Z</time>
      </trkpt>
      <trkpt lat="45.93795" lon="4.72448">
        <ele>172</ele>
        <time>2018-02-13T11:57:31Z</time>
      </trkpt>
      <trkpt lat="45.93788" lon="4.72445">
        <ele>172</ele>
        <time>2018-02-13T11:57:33Z</time>
      </trkpt>
      <trkpt lat="45.93785" lon="4.72439">
        <ele>172</ele>
        <time>2018-02-13T11:57:34Z</time>
      </trkpt>
      <trkpt lat="45.9378" lon="4.72436">
        <ele>172</ele>
        <time>2018-02-13T11:57:35Z</time>
      </trkpt>
      <trkpt lat="45.93776" lon="4.72433">
        <ele>171</ele>
        <time>2018-02-13T11:57:36Z</time>
      </trkpt>
      <trkpt lat="45.9377" lon="4.72425">
        <ele>171</ele>
        <time>2018-02-13T11:57:38Z</time>
      </trkpt>
      <trkpt lat="45.93767" lon="4.72421">
        <ele>171</ele>
        <time>2018-02-13T11:57:39Z</time>
      </trkpt>
      <trkpt lat="45.93763" lon="4.72414">
        <ele>171</ele>
        <time>2018-02-13T11:57:40Z</time>
      </trkpt>
      <trkpt lat="45.93759" lon="4.72411">
        <ele>171</ele>
        <time>2018-02-13T11:57:41Z</time>
      </trkpt>
      <trkpt lat="45.93756" lon="4.72405">
        <ele>171</ele>
        <time>2018-02-13T11:57:42Z</time>
      </trkpt>
      <trkpt lat="45.93752" lon="4.72402">
        <ele>171</ele>
        <time>2018-02-13T11:57:43Z</time>
      </trkpt>
      <trkpt lat="45.93748" lon="4.72396">
        <ele>171</ele>
        <time>2018-02-13T11:57:44Z</time>
      </trkpt>
      <trkpt lat="45.93743" lon="4.72393">
        <ele>171</ele>
        <time>2018-02-13T11:57:45Z</time>
      </trkpt>
      <trkpt lat="45.93738" lon="4.72388">
        <ele>171</ele>
        <time>2018-02-13T11:57:46Z</time>
      </trkpt>
      <trkpt lat="45.93733" lon="4.72386">
        <ele>171</ele>
        <time>2018-02-13T11:57:47Z</time>
      </trkpt>
      <trkpt lat="45.93728" lon="4.72382">
        <ele>171</ele>
        <time>2018-02-13T11:57:48Z</time>
      </trkpt>
      <trkpt lat="45.93724" lon="4.72379">
        <ele>171</ele>
        <time>2018-02-13T11:57:49Z</time>
      </trkpt>
      <trkpt lat="45.93719" lon="4.72375">
        <ele>172</ele>
        <time>2018-02-13T11:57:50Z</time>
      </trkpt>
      <trkpt lat="45.93714" lon="4.7237">
        <ele>172</ele>
        <time>2018-02-13T11:57:51Z</time>
      </trkpt>
      <trkpt lat="45.93709" lon="4.72366">
        <ele>172</ele>
        <time>2018-02-13T11:57:52Z</time>
      </trkpt>
      <trkpt lat="45.93704" lon="4.72362">
        <ele>171</ele>
        <time>2018-02-13T11:57:53Z</time>
      </trkpt>
      <trkpt lat="45.93701" lon="4.72357">
        <ele>171</ele>
        <time>2018-02-13T11:57:54Z</time>
      </trkpt>
      <trkpt lat="45.93697" lon="4.72354">
        <ele>171</ele>
        <time>2018-02-13T11:57:55Z</time>
      </trkpt>
      <trkpt lat="45.93693" lon="4.72351">
        <ele>171</ele>
        <time>2018-02-13T11:57:56Z</time>
      </trkpt>
      <trkpt lat="45.93688" lon="4.72348">
        <ele>171</ele>
        <time>2018-02-13T11:57:57Z</time>
      </trkpt>
      <trkpt lat="45.93682" lon="4.7234">
        <ele>171</ele>
        <time>2018-02-13T11:57:59Z</time>
      </trkpt>
      <trkpt lat="45.93679" lon="4.72337">
        <ele>171</ele>
        <time>2018-02-13T11:58:00Z</time>
      </trkpt>
      <trkpt lat="45.93675" lon="4.72332">
        <ele>171</ele>
        <time>2018-02-13T11:58:01Z</time>
      </trkpt>
      <trkpt lat="45.9367" lon="4.72327">
        <ele>171</ele>
        <time>2018-02-13T11:58:02Z</time>
      </trkpt>
      <trkpt lat="45.93667" lon="4.72324">
        <ele>171</ele>
        <time>2018-02-13T11:58:03Z</time>
      </trkpt>
      <trkpt lat="45.93661" lon="4.7232">
        <ele>172</ele>
        <time>2018-02-13T11:58:04Z</time>
      </trkpt>
      <trkpt lat="45.93654" lon="4.72312">
        <ele>172</ele>
        <time>2018-02-13T11:58:06Z</time>
      </trkpt>
      <trkpt lat="45.9365" lon="4.72308">
        <ele>172</ele>
        <time>2018-02-13T11:58:07Z</time>
      </trkpt>
      <trkpt lat="45.93646" lon="4.72304">
        <ele>172</ele>
        <time>2018-02-13T11:58:08Z</time>
      </trkpt>
      <trkpt lat="45.93641" lon="4.72299">
        <ele>172</ele>
        <time>2018-02-13T11:58:09Z</time>
      </trkpt>
      <trkpt lat="45.93635" lon="4.72292">
        <ele>172</ele>
        <time>2018-02-13T11:58:11Z</time>
      </trkpt>
      <trkpt lat="45.93631" lon="4.7229">
        <ele>172</ele>
        <time>2018-02-13T11:58:12Z</time>
      </trkpt>
      <trkpt lat="45.93624" lon="4.72283">
        <ele>172</ele>
        <time>2018-02-13T11:58:14Z</time>
      </trkpt>
      <trkpt lat="45.93619" lon="4.7228">
        <ele>172</ele>
        <time>2018-02-13T11:58:15Z</time>
      </trkpt>
      <trkpt lat="45.93613" lon="4.72271">
        <ele>172</ele>
        <time>2018-02-13T11:58:17Z</time>
      </trkpt>
      <trkpt lat="45.93609" lon="4.72268">
        <ele>172</ele>
        <time>2018-02-13T11:58:18Z</time>
      </trkpt>
      <trkpt lat="45.93602" lon="4.7226">
        <ele>173</ele>
        <time>2018-02-13T11:58:20Z</time>
      </trkpt>
      <trkpt lat="45.93599" lon="4.72257">
        <ele>173</ele>
        <time>2018-02-13T11:58:21Z</time>
      </trkpt>
      <trkpt lat="45.93594" lon="4.7225">
        <ele>173</ele>
        <time>2018-02-13T11:58:23Z</time>
      </trkpt>
      <trkpt lat="45.93589" lon="4.72247">
        <ele>173</ele>
        <time>2018-02-13T11:58:24Z</time>
      </trkpt>
      <trkpt lat="45.93583" lon="4.72242">
        <ele>173</ele>
        <time>2018-02-13T11:58:26Z</time>
      </trkpt>
      <trkpt lat="45.93581" lon="4.72239">
        <ele>173</ele>
        <time>2018-02-13T11:58:27Z</time>
      </trkpt>
      <trkpt lat="45.93574" lon="4.72231">
        <ele>173</ele>
        <time>2018-02-13T11:58:30Z</time>
      </trkpt>
      <trkpt lat="45.93572" lon="4.72229">
        <ele>173</ele>
        <time>2018-02-13T11:58:31Z</time>
      </trkpt>
      <trkpt lat="45.93564" lon="4.72222">
        <ele>173</ele>
        <time>2018-02-13T11:58:34Z</time>
      </trkpt>
      <trkpt lat="45.93562" lon="4.7222">
        <ele>173</ele>
        <time>2018-02-13T11:58:35Z</time>
      </trkpt>
      <trkpt lat="45.93554" lon="4.72219">
        <ele>173</ele>
        <time>2018-02-13T11:58:38Z</time>
      </trkpt>
      <trkpt lat="45.93551" lon="4.72221">
        <ele>173</ele>
        <time>2018-02-13T11:58:39Z</time>
      </trkpt>
      <trkpt lat="45.93546" lon="4.72228">
        <ele>172</ele>
        <time>2018-02-13T11:58:41Z</time>
      </trkpt>
      <trkpt lat="45.93544" lon="4.72232">
        <ele>172</ele>
        <time>2018-02-13T11:58:42Z</time>
      </trkpt>
      <trkpt lat="45.9354" lon="4.72241">
        <ele>172</ele>
        <time>2018-02-13T11:58:44Z</time>
      </trkpt>
      <trkpt lat="45.93538" lon="4.72245">
        <ele>172</ele>
        <time>2018-02-13T11:58:45Z</time>
      </trkpt>
      <trkpt lat="45.93535" lon="4.72254">
        <ele>172</ele>
        <time>2018-02-13T11:58:47Z</time>
      </trkpt>
      <trkpt lat="45.93533" lon="4.72259">
        <ele>172</ele>
        <time>2018-02-13T11:58:48Z</time>
      </trkpt>
      <trkpt lat="45.93529" lon="4.72269">
        <ele>172</ele>
        <time>2018-02-13T11:58:50Z</time>
      </trkpt>
      <trkpt lat="45.93528" lon="4.72275">
        <ele>172</ele>
        <time>2018-02-13T11:58:51Z</time>
      </trkpt>
      <trkpt lat="45.93526" lon="4.72281">
        <ele>172</ele>
        <time>2018-02-13T11:58:52Z</time>
      </trkpt>
      <trkpt lat="45.93524" lon="4.72288">
        <ele>172</ele>
        <time>2018-02-13T11:58:53Z</time>
      </trkpt>
      <trkpt lat="45.93518" lon="4.72298">
        <ele>172</ele>
        <time>2018-02-13T11:58:55Z</time>
      </trkpt>
      <trkpt lat="45.93515" lon="4.72302">
        <ele>172</ele>
        <time>2018-02-13T11:58:56Z</time>
      </trkpt>
      <trkpt lat="45.93511" lon="4.72307">
        <ele>173</ele>
        <time>2018-02-13T11:58:57Z</time>
      </trkpt>
      <trkpt lat="45.93507" lon="4.72312">
        <ele>173</ele>
        <time>2018-02-13T11:58:58Z</time>
      </trkpt>
      <trkpt lat="45.93503" lon="4.72317">
        <ele>173</ele>
        <time>2018-02-13T11:58:59Z</time>
      </trkpt>
      <trkpt lat="45.935" lon="4.72322">
        <ele>173</ele>
        <time>2018-02-13T11:59:00Z</time>
      </trkpt>
      <trkpt lat="45.93496" lon="4.72328">
        <ele>173</ele>
        <time>2018-02-13T11:59:01Z</time>
      </trkpt>
      <trkpt lat="45.93492" lon="4.72333">
        <ele>173</ele>
        <time>2018-02-13T11:59:02Z</time>
      </trkpt>
      <trkpt lat="45.93488" lon="4.72338">
        <ele>173</ele>
        <time>2018-02-13T11:59:03Z</time>
      </trkpt>
      <trkpt lat="45.93486" lon="4.72343">
        <ele>173</ele>
        <time>2018-02-13T11:59:04Z</time>
      </trkpt>
      <trkpt lat="45.93482" lon="4.72347">
        <ele>173</ele>
        <time>2018-02-13T11:59:05Z</time>
      </trkpt>
      <trkpt lat="45.93476" lon="4.72351">
        <ele>173</ele>
        <time>2018-02-13T11:59:06Z</time>
      </trkpt>
      <trkpt lat="45.93473" lon="4.72356">
        <ele>173</ele>
        <time>2018-02-13T11:59:07Z</time>
      </trkpt>
      <trkpt lat="45.9347" lon="4.7236">
        <ele>173</ele>
        <time>2018-02-13T11:59:08Z</time>
      </trkpt>
      <trkpt lat="45.93467" lon="4.72364">
        <ele>173</ele>
        <time>2018-02-13T11:59:09Z</time>
      </trkpt>
      <trkpt lat="45.93463" lon="4.72369">
        <ele>173</ele>
        <time>2018-02-13T11:59:10Z</time>
      </trkpt>
      <trkpt lat="45.93459" lon="4.72373">
        <ele>173</ele>
        <time>2018-02-13T11:59:11Z</time>
      </trkpt>
      <trkpt lat="45.93455" lon="4.72378">
        <ele>173</ele>
        <time>2018-02-13T11:59:12Z</time>
      </trkpt>
      <trkpt lat="45.9345" lon="4.72382">
        <ele>173</ele>
        <time>2018-02-13T11:59:13Z</time>
      </trkpt>
      <trkpt lat="45.93445" lon="4.72385">
        <ele>173</ele>
        <time>2018-02-13T11:59:14Z</time>
      </trkpt>
      <trkpt lat="45.93441" lon="4.72389">
        <ele>173</ele>
        <time>2018-02-13T11:59:15Z</time>
      </trkpt>
      <trkpt lat="45.93437" lon="4.72393">
        <ele>173</ele>
        <time>2018-02-13T11:59:16Z</time>
      </trkpt>
      <trkpt lat="45.93433" lon="4.72395">
        <ele>173</ele>
        <time>2018-02-13T11:59:17Z</time>
      </trkpt>
      <trkpt lat="45.93428" lon="4.72397">
        <ele>174</ele>
        <time>2018-02-13T11:59:18Z</time>
      </trkpt>
      <trkpt lat="45.93421" lon="4.72401">
        <ele>174</ele>
        <time>2018-02-13T11:59:20Z</time>
      </trkpt>
      <trkpt lat="45.93418" lon="4.72404">
        <ele>174</ele>
        <time>2018-02-13T11:59:21Z</time>
      </trkpt>
      <trkpt lat="45.93413" lon="4.72406">
        <ele>174</ele>
        <time>2018-02-13T11:59:22Z</time>
      </trkpt>
      <trkpt lat="45.93409" lon="4.72408">
        <ele>174</ele>
        <time>2018-02-13T11:59:23Z</time>
      </trkpt>
      <trkpt lat="45.93403" lon="4.72409">
        <ele>174</ele>
        <time>2018-02-13T11:59:24Z</time>
      </trkpt>
      <trkpt lat="45.93398" lon="4.72408">
        <ele>174</ele>
        <time>2018-02-13T11:59:25Z</time>
      </trkpt>
      <trkpt lat="45.93389" lon="4.72408">
        <ele>174</ele>
        <time>2018-02-13T11:59:27Z</time>
      </trkpt>
      <trkpt lat="45.93386" lon="4.7241">
        <ele>174</ele>
        <time>2018-02-13T11:59:28Z</time>
      </trkpt>
      <trkpt lat="45.93381" lon="4.7242">
        <ele>173</ele>
        <time>2018-02-13T11:59:30Z</time>
      </trkpt>
      <trkpt lat="45.93383" lon="4.72427">
        <ele>173</ele>
        <time>2018-02-13T11:59:31Z</time>
      </trkpt>
      <trkpt lat="45.93385" lon="4.72432">
        <ele>173</ele>
        <time>2018-02-13T11:59:32Z</time>
      </trkpt>
      <trkpt lat="45.93388" lon="4.72438">
        <ele>173</ele>
        <time>2018-02-13T11:59:33Z</time>
      </trkpt>
      <trkpt lat="45.9339" lon="4.72446">
        <ele>173</ele>
        <time>2018-02-13T11:59:34Z</time>
      </trkpt>
      <trkpt lat="45.9339" lon="4.72453">
        <ele>173</ele>
        <time>2018-02-13T11:59:35Z</time>
      </trkpt>
      <trkpt lat="45.93389" lon="4.72459">
        <ele>173</ele>
        <time>2018-02-13T11:59:36Z</time>
      </trkpt>
      <trkpt lat="45.93387" lon="4.72465">
        <ele>173</ele>
        <time>2018-02-13T11:59:37Z</time>
      </trkpt>
      <trkpt lat="45.93384" lon="4.7247">
        <ele>173</ele>
        <time>2018-02-13T11:59:38Z</time>
      </trkpt>
      <trkpt lat="45.93379" lon="4.72474">
        <ele>173</ele>
        <time>2018-02-13T11:59:39Z</time>
      </trkpt>
      <trkpt lat="45.93376" lon="4.72479">
        <ele>173</ele>
        <time>2018-02-13T11:59:40Z</time>
      </trkpt>
      <trkpt lat="45.93372" lon="4.72483">
        <ele>173</ele>
        <time>2018-02-13T11:59:41Z</time>
      </trkpt>
      <trkpt lat="45.93365" lon="4.7249">
        <ele>173</ele>
        <time>2018-02-13T11:59:43Z</time>
      </trkpt>
      <trkpt lat="45.93362" lon="4.72494">
        <ele>173</ele>
        <time>2018-02-13T11:59:44Z</time>
      </trkpt>
      <trkpt lat="45.93357" lon="4.72499">
        <ele>173</ele>
        <time>2018-02-13T11:59:45Z</time>
      </trkpt>
      <trkpt lat="45.93353" lon="4.72503">
        <ele>172</ele>
        <time>2018-02-13T11:59:46Z</time>
      </trkpt>
      <trkpt lat="45.93347" lon="4.72511">
        <ele>172</ele>
        <time>2018-02-13T11:59:48Z</time>
      </trkpt>
      <trkpt lat="45.93344" lon="4.72515">
        <ele>172</ele>
        <time>2018-02-13T11:59:49Z</time>
      </trkpt>
      <trkpt lat="45.93337" lon="4.72522">
        <ele>172</ele>
        <time>2018-02-13T11:59:51Z</time>
      </trkpt>
      <trkpt lat="45.93333" lon="4.72526">
        <ele>172</ele>
        <time>2018-02-13T11:59:52Z</time>
      </trkpt>
      <trkpt lat="45.93329" lon="4.7253">
        <ele>172</ele>
        <time>2018-02-13T11:59:53Z</time>
      </trkpt>
      <trkpt lat="45.93326" lon="4.72534">
        <ele>172</ele>
        <time>2018-02-13T11:59:54Z</time>
      </trkpt>
      <trkpt lat="45.93322" lon="4.72538">
        <ele>172</ele>
        <time>2018-02-13T11:59:55Z</time>
      </trkpt>
      <trkpt lat="45.93318" lon="4.72542">
        <ele>172</ele>
        <time>2018-02-13T11:59:56Z</time>
      </trkpt>
      <trkpt lat="45.93313" lon="4.72545">
        <ele>172</ele>
        <time>2018-02-13T11:59:57Z</time>
      </trkpt>
      <trkpt lat="45.93311" lon="4.72551">
        <ele>172</ele>
        <time>2018-02-13T11:59:58Z</time>
      </trkpt>
      <trkpt lat="45.93307" lon="4.72556">
        <ele>172</ele>
        <time>2018-02-13T11:59:59Z</time>
      </trkpt>
      <trkpt lat="45.93303" lon="4.72561">
        <ele>172</ele>
        <time>2018-02-13T12:00:00Z</time>
      </trkpt>
      <trkpt lat="45.93299" lon="4.72566">
        <ele>172</ele>
        <time>2018-02-13T12:00:01Z</time>
      </trkpt>
      <trkpt lat="45.93295" lon="4.7257">
        <ele>172</ele>
        <time>2018-02-13T12:00:02Z</time>
      </trkpt>
      <trkpt lat="45.93287" lon="4.72574">
        <ele>172</ele>
        <time>2018-02-13T12:00:04Z</time>
      </trkpt>
      <trkpt lat="45.93282" lon="4.72579">
        <ele>172</ele>
        <time>2018-02-13T12:00:05Z</time>
      </trkpt>
      <trkpt lat="45.93276" lon="4.72587">
        <ele>170</ele>
        <time>2018-02-13T12:00:07Z</time>
      </trkpt>
      <trkpt lat="45.93272" lon="4.72591">
        <ele>170</ele>
        <time>2018-02-13T12:00:08Z</time>
      </trkpt>
      <trkpt lat="45.93269" lon="4.72596">
        <ele>170</ele>
        <time>2018-02-13T12:00:09Z</time>
      </trkpt>
      <trkpt lat="45.93264" lon="4.72602">
        <ele>170</ele>
        <time>2018-02-13T12:00:10Z</time>
      </trkpt>
      <trkpt lat="45.9326" lon="4.72607">
        <ele>170</ele>
        <time>2018-02-13T12:00:11Z</time>
      </trkpt>
      <trkpt lat="45.93257" lon="4.72611">
        <ele>170</ele>
        <time>2018-02-13T12:00:12Z</time>
      </trkpt>
      <trkpt lat="45.93253" lon="4.72616">
        <ele>170</ele>
        <time>2018-02-13T12:00:13Z</time>
      </trkpt>
      <trkpt lat="45.9325" lon="4.7262">
        <ele>170</ele>
        <time>2018-02-13T12:00:14Z</time>
      </trkpt>
      <trkpt lat="45.93246" lon="4.72625">
        <ele>170</ele>
        <time>2018-02-13T12:00:15Z</time>
      </trkpt>
      <trkpt lat="45.93243" lon="4.72629">
        <ele>170</ele>
        <time>2018-02-13T12:00:16Z</time>
      </trkpt>
      <trkpt lat="45.9324" lon="4.72633">
        <ele>170</ele>
        <time>2018-02-13T12:00:17Z</time>
      </trkpt>
      <trkpt lat="45.93236" lon="4.72638">
        <ele>170</ele>
        <time>2018-02-13T12:00:18Z</time>
      </trkpt>
      <trkpt lat="45.93232" lon="4.72642">
        <ele>170</ele>
        <time>2018-02-13T12:00:19Z</time>
      </trkpt>
      <trkpt lat="45.93228" lon="4.72647">
        <ele>170</ele>
        <time>2018-02-13T12:00:20Z</time>
      </trkpt>
      <trkpt lat="45.93224" lon="4.72652">
        <ele>170</ele>
        <time>2018-02-13T12:00:21Z</time>
      </trkpt>
      <trkpt lat="45.93221" lon="4.72656">
        <ele>170</ele>
        <time>2018-02-13T12:00:22Z</time>
      </trkpt>
      <trkpt lat="45.93217" lon="4.7266">
        <ele>170</ele>
        <time>2018-02-13T12:00:23Z</time>
      </trkpt>
      <trkpt lat="45.93213" lon="4.72665">
        <ele>170</ele>
        <time>2018-02-13T12:00:24Z</time>
      </trkpt>
      <trkpt lat="45.93209" lon="4.72669">
        <ele>169</ele>
        <time>2018-02-13T12:00:25Z</time>
      </trkpt>
      <trkpt lat="45.93206" lon="4.72675">
        <ele>169</ele>
        <time>2018-02-13T12:00:26Z</time>
      </trkpt>
      <trkpt lat="45.93199" lon="4.72682">
        <ele>169</ele>
        <time>2018-02-13T12:00:28Z</time>
      </trkpt>
      <trkpt lat="45.93196" lon="4.72687">
        <ele>169</ele>
        <time>2018-02-13T12:00:29Z</time>
      </trkpt>
      <trkpt lat="45.93189" lon="4.72693">
        <ele>169</ele>
        <time>2018-02-13T12:00:31Z</time>
      </trkpt>
      <trkpt lat="45.93186" lon="4.72697">
        <ele>169</ele>
        <time>2018-02-13T12:00:32Z</time>
      </trkpt>
      <trkpt lat="45.93183" lon="4.72701">
        <ele>169</ele>
        <time>2018-02-13T12:00:33Z</time>
      </trkpt>
      <trkpt lat="45.93178" lon="4.72707">
        <ele>169</ele>
        <time>2018-02-13T12:00:34Z</time>
      </trkpt>
      <trkpt lat="45.93174" lon="4.7271">
        <ele>170</ele>
        <time>2018-02-13T12:00:35Z</time>
      </trkpt>
      <trkpt lat="45.93169" lon="4.72714">
        <ele>170</ele>
        <time>2018-02-13T12:00:36Z</time>
      </trkpt>
      <trkpt lat="45.93163" lon="4.72722">
        <ele>170</ele>
        <time>2018-02-13T12:00:38Z</time>
      </trkpt>
      <trkpt lat="45.93158" lon="4.72726">
        <ele>170</ele>
        <time>2018-02-13T12:00:39Z</time>
      </trkpt>
      <trkpt lat="45.93154" lon="4.7273">
        <ele>170</ele>
        <time>2018-02-13T12:00:40Z</time>
      </trkpt>
      <trkpt lat="45.9315" lon="4.72736">
        <ele>170</ele>
        <time>2018-02-13T12:00:41Z</time>
      </trkpt>
      <trkpt lat="45.93146" lon="4.7274">
        <ele>170</ele>
        <time>2018-02-13T12:00:42Z</time>
      </trkpt>
      <trkpt lat="45.93142" lon="4.72744">
        <ele>170</ele>
        <time>2018-02-13T12:00:43Z</time>
      </trkpt>
      <trkpt lat="45.93137" lon="4.72749">
        <ele>170</ele>
        <time>2018-02-13T12:00:44Z</time>
      </trkpt>
      <trkpt lat="45.93134" lon="4.72754">
        <ele>171</ele>
        <time>2018-02-13T12:00:45Z</time>
      </trkpt>
      <trkpt lat="45.9313" lon="4.72759">
        <ele>171</ele>
        <time>2018-02-13T12:00:46Z</time>
      </trkpt>
      <trkpt lat="45.93126" lon="4.72763">
        <ele>171</ele>
        <time>2018-02-13T12:00:47Z</time>
      </trkpt>
      <trkpt lat="45.93122" lon="4.72767">
        <ele>171</ele>
        <time>2018-02-13T12:00:48Z</time>
      </trkpt>
      <trkpt lat="45.93117" lon="4.72773">
        <ele>171</ele>
        <time>2018-02-13T12:00:49Z</time>
      </trkpt>
      <trkpt lat="45.93113" lon="4.72779">
        <ele>171</ele>
        <time>2018-02-13T12:00:50Z</time>
      </trkpt>
      <trkpt lat="45.9311" lon="4.72785">
        <ele>171</ele>
        <time>2018-02-13T12:00:51Z</time>
      </trkpt>
      <trkpt lat="45.93106" lon="4.72791">
        <ele>171</ele>
        <time>2018-02-13T12:00:52Z</time>
      </trkpt>
      <trkpt lat="45.93101" lon="4.72796">
        <ele>171</ele>
        <time>2018-02-13T12:00:53Z</time>
      </trkpt>
      <trkpt lat="45.93097" lon="4.728">
        <ele>171</ele>
        <time>2018-02-13T12:00:54Z</time>
      </trkpt>
      <trkpt lat="45.93093" lon="4.72805">
        <ele>172</ele>
        <time>2018-02-13T12:00:55Z</time>
      </trkpt>
      <trkpt lat="45.93086" lon="4.72812">
        <ele>172</ele>
        <time>2018-02-13T12:00:57Z</time>
      </trkpt>
      <trkpt lat="45.93082" lon="4.72816">
        <ele>172</ele>
        <time>2018-02-13T12:00:58Z</time>
      </trkpt>
      <trkpt lat="45.93076" lon="4.72823">
        <ele>173</ele>
        <time>2018-02-13T12:01:00Z</time>
      </trkpt>
      <trkpt lat="45.93074" lon="4.72829">
        <ele>173</ele>
        <time>2018-02-13T12:01:01Z</time>
      </trkpt>
      <trkpt lat="45.93071" lon="4.72839">
        <ele>173</ele>
        <time>2018-02-13T12:01:05Z</time>
      </trkpt>
      <trkpt lat="45.93064" lon="4.7285">
        <ele>172</ele>
        <time>2018-02-13T12:01:06Z</time>
      </trkpt>
      <trkpt lat="45.93058" lon="4.72853">
        <ele>172</ele>
        <time>2018-02-13T12:01:07Z</time>
      </trkpt>
      <trkpt lat="45.9305" lon="4.72858">
        <ele>172</ele>
        <time>2018-02-13T12:01:08Z</time>
      </trkpt>
      <trkpt lat="45.93047" lon="4.7286">
        <ele>172</ele>
        <time>2018-02-13T12:01:09Z</time>
      </trkpt>
      <trkpt lat="45.93042" lon="4.72866">
        <ele>172</ele>
        <time>2018-02-13T12:01:10Z</time>
      </trkpt>
      <trkpt lat="45.93039" lon="4.7287">
        <ele>172</ele>
        <time>2018-02-13T12:01:11Z</time>
      </trkpt>
      <trkpt lat="45.93035" lon="4.72875">
        <ele>172</ele>
        <time>2018-02-13T12:01:12Z</time>
      </trkpt>
      <trkpt lat="45.93031" lon="4.72879">
        <ele>172</ele>
        <time>2018-02-13T12:01:13Z</time>
      </trkpt>
      <trkpt lat="45.93027" lon="4.72885">
        <ele>172</ele>
        <time>2018-02-13T12:01:14Z</time>
      </trkpt>
      <trkpt lat="45.93023" lon="4.72889">
        <ele>172</ele>
        <time>2018-02-13T12:01:15Z</time>
      </trkpt>
      <trkpt lat="45.93019" lon="4.72893">
        <ele>172</ele>
        <time>2018-02-13T12:01:16Z</time>
      </trkpt>
      <trkpt lat="45.93013" lon="4.72902">
        <ele>172</ele>
        <time>2018-02-13T12:01:18Z</time>
      </trkpt>
      <trkpt lat="45.93009" lon="4.72905">
        <ele>171</ele>
        <time>2018-02-13T12:01:19Z</time>
      </trkpt>
      <trkpt lat="45.93006" lon="4.7291">
        <ele>171</ele>
        <time>2018-02-13T12:01:20Z</time>
      </trkpt>
      <trkpt lat="45.93002" lon="4.72914">
        <ele>171</ele>
        <time>2018-02-13T12:01:21Z</time>
      </trkpt>
      <trkpt lat="45.92998" lon="4.72919">
        <ele>171</ele>
        <time>2018-02-13T12:01:22Z</time>
      </trkpt>
      <trkpt lat="45.92995" lon="4.72925">
        <ele>171</ele>
        <time>2018-02-13T12:01:23Z</time>
      </trkpt>
      <trkpt lat="45.92991" lon="4.72929">
        <ele>171</ele>
        <time>2018-02-13T12:01:24Z</time>
      </trkpt>
      <trkpt lat="45.92988" lon="4.72933">
        <ele>171</ele>
        <time>2018-02-13T12:01:25Z</time>
      </trkpt>
      <trkpt lat="45.92983" lon="4.72937">
        <ele>171</ele>
        <time>2018-02-13T12:01:26Z</time>
      </trkpt>
      <trkpt lat="45.92979" lon="4.72941">
        <ele>171</ele>
        <time>2018-02-13T12:01:27Z</time>
      </trkpt>
      <trkpt lat="45.92975" lon="4.72947">
        <ele>171</ele>
        <time>2018-02-13T12:01:28Z</time>
      </trkpt>
      <trkpt lat="45.92971" lon="4.72951">
        <ele>171</ele>
        <time>2018-02-13T12:01:29Z</time>
      </trkpt>
      <trkpt lat="45.92967" lon="4.72955">
        <ele>171</ele>
        <time>2018-02-13T12:01:30Z</time>
      </trkpt>
      <trkpt lat="45.92963" lon="4.7296">
        <ele>171</ele>
        <time>2018-02-13T12:01:31Z</time>
      </trkpt>
      <trkpt lat="45.92957" lon="4.72967">
        <ele>171</ele>
        <time>2018-02-13T12:01:33Z</time>
      </trkpt>
      <trkpt lat="45.92953" lon="4.72971">
        <ele>171</ele>
        <time>2018-02-13T12:01:34Z</time>
      </trkpt>
      <trkpt lat="45.92949" lon="4.72976">
        <ele>171</ele>
        <time>2018-02-13T12:01:35Z</time>
      </trkpt>
      <trkpt lat="45.92945" lon="4.7298">
        <ele>171</ele>
        <time>2018-02-13T12:01:36Z</time>
      </trkpt>
      <trkpt lat="45.92941" lon="4.72985">
        <ele>171</ele>
        <time>2018-02-13T12:01:37Z</time>
      </trkpt>
      <trkpt lat="45.92938" lon="4.72989">
        <ele>171</ele>
        <time>2018-02-13T12:01:38Z</time>
      </trkpt>
      <trkpt lat="45.92933" lon="4.72994">
        <ele>172</ele>
        <time>2018-02-13T12:01:39Z</time>
      </trkpt>
      <trkpt lat="45.92929" lon="4.72998">
        <ele>172</ele>
        <time>2018-02-13T12:01:40Z</time>
      </trkpt>
      <trkpt lat="45.92923" lon="4.73006">
        <ele>172</ele>
        <time>2018-02-13T12:01:42Z</time>
      </trkpt>
      <trkpt lat="45.92919" lon="4.73011">
        <ele>172</ele>
        <time>2018-02-13T12:01:43Z</time>
      </trkpt>
      <trkpt lat="45.92916" lon="4.73016">
        <ele>172</ele>
        <time>2018-02-13T12:01:44Z</time>
      </trkpt>
      <trkpt lat="45.92912" lon="4.73021">
        <ele>172</ele>
        <time>2018-02-13T12:01:45Z</time>
      </trkpt>
      <trkpt lat="45.92908" lon="4.73025">
        <ele>172</ele>
        <time>2018-02-13T12:01:46Z</time>
      </trkpt>
      <trkpt lat="45.92905" lon="4.7303">
        <ele>172</ele>
        <time>2018-02-13T12:01:47Z</time>
      </trkpt>
      <trkpt lat="45.92899" lon="4.73039">
        <ele>172</ele>
        <time>2018-02-13T12:01:49Z</time>
      </trkpt>
      <trkpt lat="45.92896" lon="4.73043">
        <ele>172</ele>
        <time>2018-02-13T12:01:50Z</time>
      </trkpt>
      <trkpt lat="45.92891" lon="4.73051">
        <ele>172</ele>
        <time>2018-02-13T12:01:52Z</time>
      </trkpt>
      <trkpt lat="45.92888" lon="4.73056">
        <ele>172</ele>
        <time>2018-02-13T12:01:53Z</time>
      </trkpt>
      <trkpt lat="45.92881" lon="4.73065">
        <ele>172</ele>
        <time>2018-02-13T12:01:55Z</time>
      </trkpt>
      <trkpt lat="45.92879" lon="4.73069">
        <ele>172</ele>
        <time>2018-02-13T12:01:56Z</time>
      </trkpt>
      <trkpt lat="45.92873" lon="4.73078">
        <ele>172</ele>
        <time>2018-02-13T12:01:58Z</time>
      </trkpt>
      <trkpt lat="45.9287" lon="4.73081">
        <ele>172</ele>
        <time>2018-02-13T12:01:59Z</time>
      </trkpt>
      <trkpt lat="45.92863" lon="4.73088">
        <ele>171</ele>
        <time>2018-02-13T12:02:01Z</time>
      </trkpt>
      <trkpt lat="45.9286" lon="4.73091">
        <ele>171</ele>
        <time>2018-02-13T12:02:02Z</time>
      </trkpt>
      <trkpt lat="45.92856" lon="4.73095">
        <ele>171</ele>
        <time>2018-02-13T12:02:03Z</time>
      </trkpt>
      <trkpt lat="45.92852" lon="4.73099">
        <ele>171</ele>
        <time>2018-02-13T12:02:04Z</time>
      </trkpt>
      <trkpt lat="45.92845" lon="4.73101">
        <ele>171</ele>
        <time>2018-02-13T12:02:06Z</time>
      </trkpt>
      <trkpt lat="45.92841" lon="4.73097">
        <ele>171</ele>
        <time>2018-02-13T12:02:07Z</time>
      </trkpt>
      <trkpt lat="45.92843" lon="4.73084">
        <ele>171</ele>
        <time>2018-02-13T12:02:08Z</time>
      </trkpt>
      <trkpt lat="45.92843" lon="4.73077">
        <ele>171</ele>
        <time>2018-02-13T12:02:09Z</time>
      </trkpt>
      <trkpt lat="45.92841" lon="4.73071">
        <ele>171</ele>
        <time>2018-02-13T12:02:10Z</time>
      </trkpt>
      <trkpt lat="45.9284" lon="4.73064">
        <ele>171</ele>
        <time>2018-02-13T12:02:11Z</time>
      </trkpt>
      <trkpt lat="45.92839" lon="4.73057">
        <ele>171</ele>
        <time>2018-02-13T12:02:12Z</time>
      </trkpt>
      <trkpt lat="45.92839" lon="4.7305">
        <ele>171</ele>
        <time>2018-02-13T12:02:13Z</time>
      </trkpt>
      <trkpt lat="45.92838" lon="4.73043">
        <ele>171</ele>
        <time>2018-02-13T12:02:14Z</time>
      </trkpt>
      <trkpt lat="45.92837" lon="4.73036">
        <ele>171</ele>
        <time>2018-02-13T12:02:15Z</time>
      </trkpt>
      <trkpt lat="45.92835" lon="4.7303">
        <ele>171</ele>
        <time>2018-02-13T12:02:16Z</time>
      </trkpt>
      <trkpt lat="45.92833" lon="4.73023">
        <ele>170</ele>
        <time>2018-02-13T12:02:17Z</time>
      </trkpt>
      <trkpt lat="45.92833" lon="4.73016">
        <ele>170</ele>
        <time>2018-02-13T12:02:18Z</time>
      </trkpt>
      <trkpt lat="45.92832" lon="4.7301">
        <ele>170</ele>
        <time>2018-02-13T12:02:19Z</time>
      </trkpt>
      <trkpt lat="45.92831" lon="4.73003">
        <ele>170</ele>
        <time>2018-02-13T12:02:20Z</time>
      </trkpt>
      <trkpt lat="45.92831" lon="4.72997">
        <ele>170</ele>
        <time>2018-02-13T12:02:21Z</time>
      </trkpt>
      <trkpt lat="45.9283" lon="4.7299">
        <ele>170</ele>
        <time>2018-02-13T12:02:22Z</time>
      </trkpt>
      <trkpt lat="45.92828" lon="4.72978">
        <ele>170</ele>
        <time>2018-02-13T12:02:24Z</time>
      </trkpt>
      <trkpt lat="45.92827" lon="4.72972">
        <ele>170</ele>
        <time>2018-02-13T12:02:25Z</time>
      </trkpt>
      <trkpt lat="45.92827" lon="4.72966">
        <ele>170</ele>
        <time>2018-02-13T12:02:26Z</time>
      </trkpt>
      <trkpt lat="45.92826" lon="4.72959">
        <ele>170</ele>
        <time>2018-02-13T12:02:27Z</time>
      </trkpt>
      <trkpt lat="45.92825" lon="4.72946">
        <ele>170</ele>
        <time>2018-02-13T12:02:29Z</time>
      </trkpt>
      <trkpt lat="45.92825" lon="4.7294">
        <ele>170</ele>
        <time>2018-02-13T12:02:30Z</time>
      </trkpt>
      <trkpt lat="45.92825" lon="4.72933">
        <ele>170</ele>
        <time>2018-02-13T12:02:31Z</time>
      </trkpt>
      <trkpt lat="45.92825" lon="4.72927">
        <ele>170</ele>
        <time>2018-02-13T12:02:32Z</time>
      </trkpt>
      <trkpt lat="45.92824" lon="4.7292">
        <ele>170</ele>
        <time>2018-02-13T12:02:33Z</time>
      </trkpt>
      <trkpt lat="45.92824" lon="4.72912">
        <ele>170</ele>
        <time>2018-02-13T12:02:34Z</time>
      </trkpt>
      <trkpt lat="45.92823" lon="4.72905">
        <ele>170</ele>
        <time>2018-02-13T12:02:35Z</time>
      </trkpt>
      <trkpt lat="45.92821" lon="4.72899">
        <ele>170</ele>
        <time>2018-02-13T12:02:36Z</time>
      </trkpt>
      <trkpt lat="45.9282" lon="4.72891">
        <ele>170</ele>
        <time>2018-02-13T12:02:37Z</time>
      </trkpt>
      <trkpt lat="45.9282" lon="4.72883">
        <ele>170</ele>
        <time>2018-02-13T12:02:38Z</time>
      </trkpt>
      <trkpt lat="45.92819" lon="4.72876">
        <ele>170</ele>
        <time>2018-02-13T12:02:39Z</time>
      </trkpt>
      <trkpt lat="45.92817" lon="4.72869">
        <ele>170</ele>
        <time>2018-02-13T12:02:40Z</time>
      </trkpt>
      <trkpt lat="45.92815" lon="4.72861">
        <ele>170</ele>
        <time>2018-02-13T12:02:41Z</time>
      </trkpt>
      <trkpt lat="45.92814" lon="4.72854">
        <ele>170</ele>
        <time>2018-02-13T12:02:42Z</time>
      </trkpt>
      <trkpt lat="45.92812" lon="4.72847">
        <ele>170</ele>
        <time>2018-02-13T12:02:43Z</time>
      </trkpt>
      <trkpt lat="45.92811" lon="4.72841">
        <ele>170</ele>
        <time>2018-02-13T12:02:44Z</time>
      </trkpt>
      <trkpt lat="45.92809" lon="4.72834">
        <ele>170</ele>
        <time>2018-02-13T12:02:45Z</time>
      </trkpt>
      <trkpt lat="45.92808" lon="4.72827">
        <ele>171</ele>
        <time>2018-02-13T12:02:46Z</time>
      </trkpt>
      <trkpt lat="45.92807" lon="4.7282">
        <ele>171</ele>
        <time>2018-02-13T12:02:47Z</time>
      </trkpt>
      <trkpt lat="45.92806" lon="4.72813">
        <ele>171</ele>
        <time>2018-02-13T12:02:48Z</time>
      </trkpt>
      <trkpt lat="45.92804" lon="4.72801">
        <ele>171</ele>
        <time>2018-02-13T12:02:50Z</time>
      </trkpt>
      <trkpt lat="45.92802" lon="4.72796">
        <ele>171</ele>
        <time>2018-02-13T12:02:51Z</time>
      </trkpt>
      <trkpt lat="45.92799" lon="4.72786">
        <ele>171</ele>
        <time>2018-02-13T12:02:53Z</time>
      </trkpt>
      <trkpt lat="45.92796" lon="4.72784">
        <ele>171</ele>
        <time>2018-02-13T12:02:54Z</time>
      </trkpt>
      <trkpt lat="45.92789" lon="4.72786">
        <ele>171</ele>
        <time>2018-02-13T12:02:56Z</time>
      </trkpt>
      <trkpt lat="45.92786" lon="4.72787">
        <ele>170</ele>
        <time>2018-02-13T12:02:57Z</time>
      </trkpt>
      <trkpt lat="45.92781" lon="4.72791">
        <ele>170</ele>
        <time>2018-02-13T12:02:58Z</time>
      </trkpt>
      <trkpt lat="45.92777" lon="4.72794">
        <ele>170</ele>
        <time>2018-02-13T12:02:59Z</time>
      </trkpt>
      <trkpt lat="45.9277" lon="4.72799">
        <ele>170</ele>
        <time>2018-02-13T12:03:01Z</time>
      </trkpt>
      <trkpt lat="45.92767" lon="4.72803">
        <ele>170</ele>
        <time>2018-02-13T12:03:02Z</time>
      </trkpt>
      <trkpt lat="45.9276" lon="4.7281">
        <ele>170</ele>
        <time>2018-02-13T12:03:04Z</time>
      </trkpt>
      <trkpt lat="45.92756" lon="4.72815">
        <ele>170</ele>
        <time>2018-02-13T12:03:05Z</time>
      </trkpt>
      <trkpt lat="45.92752" lon="4.72819">
        <ele>170</ele>
        <time>2018-02-13T12:03:06Z</time>
      </trkpt>
      <trkpt lat="45.92747" lon="4.72822">
        <ele>169</ele>
        <time>2018-02-13T12:03:07Z</time>
      </trkpt>
      <trkpt lat="45.92742" lon="4.72826">
        <ele>169</ele>
        <time>2018-02-13T12:03:08Z</time>
      </trkpt>
      <trkpt lat="45.92738" lon="4.72827">
        <ele>169</ele>
        <time>2018-02-13T12:03:09Z</time>
      </trkpt>
      <trkpt lat="45.9273" lon="4.72832">
        <ele>169</ele>
        <time>2018-02-13T12:03:11Z</time>
      </trkpt>
      <trkpt lat="45.92726" lon="4.72835">
        <ele>169</ele>
        <time>2018-02-13T12:03:12Z</time>
      </trkpt>
      <trkpt lat="45.92718" lon="4.72839">
        <ele>169</ele>
        <time>2018-02-13T12:03:14Z</time>
      </trkpt>
      <trkpt lat="45.92714" lon="4.72842">
        <ele>169</ele>
        <time>2018-02-13T12:03:15Z</time>
      </trkpt>
      <trkpt lat="45.92707" lon="4.72848">
        <ele>169</ele>
        <time>2018-02-13T12:03:17Z</time>
      </trkpt>
      <trkpt lat="45.92702" lon="4.72852">
        <ele>169</ele>
        <time>2018-02-13T12:03:18Z</time>
      </trkpt>
      <trkpt lat="45.92698" lon="4.72855">
        <ele>169</ele>
        <time>2018-02-13T12:03:19Z</time>
      </trkpt>
      <trkpt lat="45.92694" lon="4.72858">
        <ele>169</ele>
        <time>2018-02-13T12:03:20Z</time>
      </trkpt>
      <trkpt lat="45.92689" lon="4.72861">
        <ele>169</ele>
        <time>2018-02-13T12:03:21Z</time>
      </trkpt>
      <trkpt lat="45.92685" lon="4.72865">
        <ele>169</ele>
        <time>2018-02-13T12:03:22Z</time>
      </trkpt>
      <trkpt lat="45.92677" lon="4.72871">
        <ele>169</ele>
        <time>2018-02-13T12:03:24Z</time>
      </trkpt>
      <trkpt lat="45.92672" lon="4.72874">
        <ele>169</ele>
        <time>2018-02-13T12:03:25Z</time>
      </trkpt>
      <trkpt lat="45.92668" lon="4.72877">
        <ele>170</ele>
        <time>2018-02-13T12:03:26Z</time>
      </trkpt>
      <trkpt lat="45.92663" lon="4.72881">
        <ele>169</ele>
        <time>2018-02-13T12:03:27Z</time>
      </trkpt>
      <trkpt lat="45.92659" lon="4.72884">
        <ele>169</ele>
        <time>2018-02-13T12:03:28Z</time>
      </trkpt>
      <trkpt lat="45.92655" lon="4.72888">
        <ele>169</ele>
        <time>2018-02-13T12:03:29Z</time>
      </trkpt>
      <trkpt lat="45.92651" lon="4.72892">
        <ele>169</ele>
        <time>2018-02-13T12:03:30Z</time>
      </trkpt>
      <trkpt lat="45.92647" lon="4.72895">
        <ele>169</ele>
        <time>2018-02-13T12:03:31Z</time>
      </trkpt>
      <trkpt lat="45.92639" lon="4.72902">
        <ele>169</ele>
        <time>2018-02-13T12:03:33Z</time>
      </trkpt>
      <trkpt lat="45.92636" lon="4.72905">
        <ele>169</ele>
        <time>2018-02-13T12:03:34Z</time>
      </trkpt>
      <trkpt lat="45.92628" lon="4.72912">
        <ele>169</ele>
        <time>2018-02-13T12:03:36Z</time>
      </trkpt>
      <trkpt lat="45.92625" lon="4.72915">
        <ele>169</ele>
        <time>2018-02-13T12:03:37Z</time>
      </trkpt>
      <trkpt lat="45.9262" lon="4.72919">
        <ele>169</ele>
        <time>2018-02-13T12:03:38Z</time>
      </trkpt>
      <trkpt lat="45.92616" lon="4.72923">
        <ele>169</ele>
        <time>2018-02-13T12:03:39Z</time>
      </trkpt>
      <trkpt lat="45.92611" lon="4.72926">
        <ele>169</ele>
        <time>2018-02-13T12:03:40Z</time>
      </trkpt>
      <trkpt lat="45.92607" lon="4.7293">
        <ele>169</ele>
        <time>2018-02-13T12:03:41Z</time>
      </trkpt>
      <trkpt lat="45.92603" lon="4.72934">
        <ele>169</ele>
        <time>2018-02-13T12:03:42Z</time>
      </trkpt>
      <trkpt lat="45.92599" lon="4.72937">
        <ele>169</ele>
        <time>2018-02-13T12:03:43Z</time>
      </trkpt>
      <trkpt lat="45.92595" lon="4.72942">
        <ele>169</ele>
        <time>2018-02-13T12:03:44Z</time>
      </trkpt>
      <trkpt lat="45.92592" lon="4.72946">
        <ele>169</ele>
        <time>2018-02-13T12:03:45Z</time>
      </trkpt>
      <trkpt lat="45.92586" lon="4.72954">
        <ele>169</ele>
        <time>2018-02-13T12:03:47Z</time>
      </trkpt>
      <trkpt lat="45.92582" lon="4.72958">
        <ele>169</ele>
        <time>2018-02-13T12:03:48Z</time>
      </trkpt>
      <trkpt lat="45.92578" lon="4.72962">
        <ele>169</ele>
        <time>2018-02-13T12:03:49Z</time>
      </trkpt>
      <trkpt lat="45.92575" lon="4.72966">
        <ele>169</ele>
        <time>2018-02-13T12:03:50Z</time>
      </trkpt>
      <trkpt lat="45.9257" lon="4.72969">
        <ele>169</ele>
        <time>2018-02-13T12:03:51Z</time>
      </trkpt>
      <trkpt lat="45.92567" lon="4.72972">
        <ele>169</ele>
        <time>2018-02-13T12:03:52Z</time>
      </trkpt>
      <trkpt lat="45.92562" lon="4.72976">
        <ele>169</ele>
        <time>2018-02-13T12:03:53Z</time>
      </trkpt>
      <trkpt lat="45.92559" lon="4.72979">
        <ele>169</ele>
        <time>2018-02-13T12:03:54Z</time>
      </trkpt>
      <trkpt lat="45.92555" lon="4.72985">
        <ele>169</ele>
        <time>2018-02-13T12:03:55Z</time>
      </trkpt>
      <trkpt lat="45.92551" lon="4.72989">
        <ele>169</ele>
        <time>2018-02-13T12:03:56Z</time>
      </trkpt>
      <trkpt lat="45.92548" lon="4.72993">
        <ele>169</ele>
        <time>2018-02-13T12:03:57Z</time>
      </trkpt>
      <trkpt lat="45.92543" lon="4.72996">
        <ele>169</ele>
        <time>2018-02-13T12:03:58Z</time>
      </trkpt>
      <trkpt lat="45.92539" lon="4.73001">
        <ele>169</ele>
        <time>2018-02-13T12:03:59Z</time>
      </trkpt>
      <trkpt lat="45.92535" lon="4.73005">
        <ele>169</ele>
        <time>2018-02-13T12:04:00Z</time>
      </trkpt>
      <trkpt lat="45.92531" lon="4.73009">
        <ele>169</ele>
        <time>2018-02-13T12:04:01Z</time>
      </trkpt>
      <trkpt lat="45.92527" lon="4.73013">
        <ele>169</ele>
        <time>2018-02-13T12:04:02Z</time>
      </trkpt>
      <trkpt lat="45.92523" lon="4.73016">
        <ele>169</ele>
        <time>2018-02-13T12:04:03Z</time>
      </trkpt>
      <trkpt lat="45.92519" lon="4.7302">
        <ele>169</ele>
        <time>2018-02-13T12:04:04Z</time>
      </trkpt>
      <trkpt lat="45.92515" lon="4.73024">
        <ele>169</ele>
        <time>2018-02-13T12:04:05Z</time>
      </trkpt>
      <trkpt lat="45.92511" lon="4.73027">
        <ele>169</ele>
        <time>2018-02-13T12:04:06Z</time>
      </trkpt>
      <trkpt lat="45.92504" lon="4.73034">
        <ele>169</ele>
        <time>2018-02-13T12:04:08Z</time>
      </trkpt>
      <trkpt lat="45.92501" lon="4.73037">
        <ele>169</ele>
        <time>2018-02-13T12:04:09Z</time>
      </trkpt>
      <trkpt lat="45.92497" lon="4.73042">
        <ele>170</ele>
        <time>2018-02-13T12:04:10Z</time>
      </trkpt>
      <trkpt lat="45.92493" lon="4.73045">
        <ele>170</ele>
        <time>2018-02-13T12:04:11Z</time>
      </trkpt>
      <trkpt lat="45.92485" lon="4.73051">
        <ele>170</ele>
        <time>2018-02-13T12:04:13Z</time>
      </trkpt>
      <trkpt lat="45.92481" lon="4.73054">
        <ele>170</ele>
        <time>2018-02-13T12:04:14Z</time>
      </trkpt>
      <trkpt lat="45.92477" lon="4.73058">
        <ele>170</ele>
        <time>2018-02-13T12:04:15Z</time>
      </trkpt>
      <trkpt lat="45.92473" lon="4.73062">
        <ele>170</ele>
        <time>2018-02-13T12:04:16Z</time>
      </trkpt>
      <trkpt lat="45.92466" lon="4.73068">
        <ele>170</ele>
        <time>2018-02-13T12:04:18Z</time>
      </trkpt>
      <trkpt lat="45.92462" lon="4.73071">
        <ele>170</ele>
        <time>2018-02-13T12:04:19Z</time>
      </trkpt>
      <trkpt lat="45.92455" lon="4.73078">
        <ele>170</ele>
        <time>2018-02-13T12:04:21Z</time>
      </trkpt>
      <trkpt lat="45.92451" lon="4.73081">
        <ele>170</ele>
        <time>2018-02-13T12:04:22Z</time>
      </trkpt>
      <trkpt lat="45.92444" lon="4.73087">
        <ele>170</ele>
        <time>2018-02-13T12:04:24Z</time>
      </trkpt>
      <trkpt lat="45.9244" lon="4.73091">
        <ele>171</ele>
        <time>2018-02-13T12:04:25Z</time>
      </trkpt>
      <trkpt lat="45.92433" lon="4.73096">
        <ele>171</ele>
        <time>2018-02-13T12:04:27Z</time>
      </trkpt>
      <trkpt lat="45.92429" lon="4.731">
        <ele>171</ele>
        <time>2018-02-13T12:04:28Z</time>
      </trkpt>
      <trkpt lat="45.92422" lon="4.73105">
        <ele>171</ele>
        <time>2018-02-13T12:04:30Z</time>
      </trkpt>
      <trkpt lat="45.92418" lon="4.73108">
        <ele>171</ele>
        <time>2018-02-13T12:04:31Z</time>
      </trkpt>
      <trkpt lat="45.92412" lon="4.73115">
        <ele>171</ele>
        <time>2018-02-13T12:04:33Z</time>
      </trkpt>
      <trkpt lat="45.9241" lon="4.7312">
        <ele>171</ele>
        <time>2018-02-13T12:04:34Z</time>
      </trkpt>
      <trkpt lat="45.92408" lon="4.73132">
        <ele>171</ele>
        <time>2018-02-13T12:04:36Z</time>
      </trkpt>
      <trkpt lat="45.92407" lon="4.73138">
        <ele>171</ele>
        <time>2018-02-13T12:04:37Z</time>
      </trkpt>
      <trkpt lat="45.92408" lon="4.73145">
        <ele>171</ele>
        <time>2018-02-13T12:04:38Z</time>
      </trkpt>
      <trkpt lat="45.92409" lon="4.73152">
        <ele>171</ele>
        <time>2018-02-13T12:04:39Z</time>
      </trkpt>
      <trkpt lat="45.92408" lon="4.73159">
        <ele>170</ele>
        <time>2018-02-13T12:04:40Z</time>
      </trkpt>
      <trkpt lat="45.92409" lon="4.73166">
        <ele>170</ele>
        <time>2018-02-13T12:04:41Z</time>
      </trkpt>
      <trkpt lat="45.92409" lon="4.73173">
        <ele>170</ele>
        <time>2018-02-13T12:04:42Z</time>
      </trkpt>
      <trkpt lat="45.92409" lon="4.73181">
        <ele>171</ele>
        <time>2018-02-13T12:04:43Z</time>
      </trkpt>
      <trkpt lat="45.9241" lon="4.73188">
        <ele>171</ele>
        <time>2018-02-13T12:04:44Z</time>
      </trkpt>
      <trkpt lat="45.9241" lon="4.73196">
        <ele>171</ele>
        <time>2018-02-13T12:04:45Z</time>
      </trkpt>
      <trkpt lat="45.9241" lon="4.73202">
        <ele>171</ele>
        <time>2018-02-13T12:04:46Z</time>
      </trkpt>
      <trkpt lat="45.9241" lon="4.7321">
        <ele>171</ele>
        <time>2018-02-13T12:04:47Z</time>
      </trkpt>
      <trkpt lat="45.9241" lon="4.73216">
        <ele>171</ele>
        <time>2018-02-13T12:04:48Z</time>
      </trkpt>
      <trkpt lat="45.92411" lon="4.73223">
        <ele>171</ele>
        <time>2018-02-13T12:04:49Z</time>
      </trkpt>
      <trkpt lat="45.92412" lon="4.73231">
        <ele>171</ele>
        <time>2018-02-13T12:04:50Z</time>
      </trkpt>
      <trkpt lat="45.92413" lon="4.73238">
        <ele>171</ele>
        <time>2018-02-13T12:04:51Z</time>
      </trkpt>
      <trkpt lat="45.92413" lon="4.73244">
        <ele>171</ele>
        <time>2018-02-13T12:04:52Z</time>
      </trkpt>
      <trkpt lat="45.92414" lon="4.73251">
        <ele>171</ele>
        <time>2018-02-13T12:04:53Z</time>
      </trkpt>
      <trkpt lat="45.92414" lon="4.73258">
        <ele>171</ele>
        <time>2018-02-13T12:04:54Z</time>
      </trkpt>
      <trkpt lat="45.92415" lon="4.73265">
        <ele>171</ele>
        <time>2018-02-13T12:04:55Z</time>
      </trkpt>
      <trkpt lat="45.92415" lon="4.73277">
        <ele>171</ele>
        <time>2018-02-13T12:04:57Z</time>
      </trkpt>
      <trkpt lat="45.92416" lon="4.73283">
        <ele>171</ele>
        <time>2018-02-13T12:04:58Z</time>
      </trkpt>
      <trkpt lat="45.92416" lon="4.7329">
        <ele>171</ele>
        <time>2018-02-13T12:04:59Z</time>
      </trkpt>
      <trkpt lat="45.92417" lon="4.73297">
        <ele>171</ele>
        <time>2018-02-13T12:05:00Z</time>
      </trkpt>
      <trkpt lat="45.92418" lon="4.73303">
        <ele>171</ele>
        <time>2018-02-13T12:05:01Z</time>
      </trkpt>
      <trkpt lat="45.92417" lon="4.7331">
        <ele>171</ele>
        <time>2018-02-13T12:05:02Z</time>
      </trkpt>
      <trkpt lat="45.92417" lon="4.73316">
        <ele>171</ele>
        <time>2018-02-13T12:05:03Z</time>
      </trkpt>
      <trkpt lat="45.92418" lon="4.73323">
        <ele>171</ele>
        <time>2018-02-13T12:05:04Z</time>
      </trkpt>
      <trkpt lat="45.92419" lon="4.7333">
        <ele>171</ele>
        <time>2018-02-13T12:05:05Z</time>
      </trkpt>
      <trkpt lat="45.92418" lon="4.73336">
        <ele>171</ele>
        <time>2018-02-13T12:05:06Z</time>
      </trkpt>
      <trkpt lat="45.9242" lon="4.73343">
        <ele>171</ele>
        <time>2018-02-13T12:05:07Z</time>
      </trkpt>
      <trkpt lat="45.92421" lon="4.73351">
        <ele>171</ele>
        <time>2018-02-13T12:05:08Z</time>
      </trkpt>
      <trkpt lat="45.92421" lon="4.73358">
        <ele>171</ele>
        <time>2018-02-13T12:05:09Z</time>
      </trkpt>
      <trkpt lat="45.92422" lon="4.73366">
        <ele>172</ele>
        <time>2018-02-13T12:05:10Z</time>
      </trkpt>
      <trkpt lat="45.92423" lon="4.73374">
        <ele>172</ele>
        <time>2018-02-13T12:05:11Z</time>
      </trkpt>
      <trkpt lat="45.92424" lon="4.73381">
        <ele>172</ele>
        <time>2018-02-13T12:05:12Z</time>
      </trkpt>
      <trkpt lat="45.92425" lon="4.73388">
        <ele>172</ele>
        <time>2018-02-13T12:05:13Z</time>
      </trkpt>
      <trkpt lat="45.92427" lon="4.73395">
        <ele>172</ele>
        <time>2018-02-13T12:05:14Z</time>
      </trkpt>
      <trkpt lat="45.92429" lon="4.73401">
        <ele>172</ele>
        <time>2018-02-13T12:05:15Z</time>
      </trkpt>
      <trkpt lat="45.92433" lon="4.73406">
        <ele>172</ele>
        <time>2018-02-13T12:05:16Z</time>
      </trkpt>
      <trkpt lat="45.92437" lon="4.73411">
        <ele>172</ele>
        <time>2018-02-13T12:05:17Z</time>
      </trkpt>
      <trkpt lat="45.92442" lon="4.73415">
        <ele>172</ele>
        <time>2018-02-13T12:05:18Z</time>
      </trkpt>
      <trkpt lat="45.92447" lon="4.73418">
        <ele>173</ele>
        <time>2018-02-13T12:05:19Z</time>
      </trkpt>
      <trkpt lat="45.92451" lon="4.73422">
        <ele>173</ele>
        <time>2018-02-13T12:05:20Z</time>
      </trkpt>
      <trkpt lat="45.92455" lon="4.73426">
        <ele>173</ele>
        <time>2018-02-13T12:05:21Z</time>
      </trkpt>
      <trkpt lat="45.92458" lon="4.73431">
        <ele>173</ele>
        <time>2018-02-13T12:05:22Z</time>
      </trkpt>
      <trkpt lat="45.92463" lon="4.73437">
        <ele>173</ele>
        <time>2018-02-13T12:05:23Z</time>
      </trkpt>
      <trkpt lat="45.92466" lon="4.73443">
        <ele>173</ele>
        <time>2018-02-13T12:05:24Z</time>
      </trkpt>
      <trkpt lat="45.92468" lon="4.7345">
        <ele>173</ele>
        <time>2018-02-13T12:05:25Z</time>
      </trkpt>
      <trkpt lat="45.92469" lon="4.73456">
        <ele>173</ele>
        <time>2018-02-13T12:05:26Z</time>
      </trkpt>
      <trkpt lat="45.92469" lon="4.73463">
        <ele>173</ele>
        <time>2018-02-13T12:05:27Z</time>
      </trkpt>
      <trkpt lat="45.92468" lon="4.7347">
        <ele>173</ele>
        <time>2018-02-13T12:05:28Z</time>
      </trkpt>
      <trkpt lat="45.92468" lon="4.73478">
        <ele>173</ele>
        <time>2018-02-13T12:05:29Z</time>
      </trkpt>
      <trkpt lat="45.92468" lon="4.73484">
        <ele>173</ele>
        <time>2018-02-13T12:05:30Z</time>
      </trkpt>
      <trkpt lat="45.92467" lon="4.73492">
        <ele>173</ele>
        <time>2018-02-13T12:05:31Z</time>
      </trkpt>
      <trkpt lat="45.92467" lon="4.73499">
        <ele>173</ele>
        <time>2018-02-13T12:05:32Z</time>
      </trkpt>
      <trkpt lat="45.92469" lon="4.73511">
        <ele>174</ele>
        <time>2018-02-13T12:05:34Z</time>
      </trkpt>
      <trkpt lat="45.92468" lon="4.73517">
        <ele>174</ele>
        <time>2018-02-13T12:05:35Z</time>
      </trkpt>
      <trkpt lat="45.92467" lon="4.73527">
        <ele>174</ele>
        <time>2018-02-13T12:05:37Z</time>
      </trkpt>
      <trkpt lat="45.92467" lon="4.73531">
        <ele>174</ele>
        <time>2018-02-13T12:05:38Z</time>
      </trkpt>
      <trkpt lat="45.92467" lon="4.73541">
        <ele>174</ele>
        <time>2018-02-13T12:05:40Z</time>
      </trkpt>
      <trkpt lat="45.92467" lon="4.73546">
        <ele>173</ele>
        <time>2018-02-13T12:05:41Z</time>
      </trkpt>
      <trkpt lat="45.92467" lon="4.73556">
        <ele>173</ele>
        <time>2018-02-13T12:05:43Z</time>
      </trkpt>
      <trkpt lat="45.92467" lon="4.73563">
        <ele>173</ele>
        <time>2018-02-13T12:05:44Z</time>
      </trkpt>
      <trkpt lat="45.92467" lon="4.73571">
        <ele>173</ele>
        <time>2018-02-13T12:05:45Z</time>
      </trkpt>
      <trkpt lat="45.92468" lon="4.73578">
        <ele>173</ele>
        <time>2018-02-13T12:05:46Z</time>
      </trkpt>
      <trkpt lat="45.92467" lon="4.73585">
        <ele>174</ele>
        <time>2018-02-13T12:05:47Z</time>
      </trkpt>
      <trkpt lat="45.92466" lon="4.73592">
        <ele>174</ele>
        <time>2018-02-13T12:05:48Z</time>
      </trkpt>
      <trkpt lat="45.92467" lon="4.736">
        <ele>174</ele>
        <time>2018-02-13T12:05:49Z</time>
      </trkpt>
      <trkpt lat="45.92467" lon="4.73606">
        <ele>174</ele>
        <time>2018-02-13T12:05:50Z</time>
      </trkpt>
      <trkpt lat="45.92468" lon="4.73612">
        <ele>174</ele>
        <time>2018-02-13T12:05:51Z</time>
      </trkpt>
      <trkpt lat="45.9247" lon="4.73622">
        <ele>174</ele>
        <time>2018-02-13T12:05:52Z</time>
      </trkpt>
      <trkpt lat="45.92471" lon="4.73628">
        <ele>174</ele>
        <time>2018-02-13T12:05:53Z</time>
      </trkpt>
      <trkpt lat="45.92472" lon="4.73635">
        <ele>174</ele>
        <time>2018-02-13T12:05:54Z</time>
      </trkpt>
      <trkpt lat="45.92473" lon="4.73647">
        <ele>174</ele>
        <time>2018-02-13T12:05:56Z</time>
      </trkpt>
      <trkpt lat="45.92473" lon="4.73655">
        <ele>174</ele>
        <time>2018-02-13T12:05:57Z</time>
      </trkpt>
      <trkpt lat="45.92473" lon="4.73666">
        <ele>174</ele>
        <time>2018-02-13T12:05:59Z</time>
      </trkpt>
      <trkpt lat="45.92472" lon="4.73672">
        <ele>174</ele>
        <time>2018-02-13T12:06:00Z</time>
      </trkpt>
      <trkpt lat="45.92469" lon="4.73684">
        <ele>174</ele>
        <time>2018-02-13T12:06:02Z</time>
      </trkpt>
      <trkpt lat="45.92468" lon="4.73689">
        <ele>174</ele>
        <time>2018-02-13T12:06:03Z</time>
      </trkpt>
      <trkpt lat="45.92467" lon="4.737">
        <ele>174</ele>
        <time>2018-02-13T12:06:05Z</time>
      </trkpt>
      <trkpt lat="45.92467" lon="4.73706">
        <ele>174</ele>
        <time>2018-02-13T12:06:06Z</time>
      </trkpt>
      <trkpt lat="45.92466" lon="4.7371">
        <ele>174</ele>
        <time>2018-02-13T12:06:52.392Z</time>
      </trkpt>
    </trkseg>
  </trk>
</gpx>